<?xml version='1.0' encoding='UTF-8'?><gpx version="1.1" creator="JPX - https://github.com/jenetics/jpx" xmlns="http://www.topografix.com/GPX/1/1"><trk><trkseg><trkpt lat="44.8213883" lon="9.496225"><ele>194.0</ele><time>2026-04-18T07:35:39.984Z</time></trkpt><trkpt lat="44.8214117" lon="9.49611"><ele>194.0</ele><time>2026-04-18T07:35:41.984Z</time></trkpt><trkpt lat="44.8214067" lon="9.4959717"><ele>194.0</ele><time>2026-04-18T07:35:43.985Z</time></trkpt><trkpt lat="44.8214033" lon="9.495845"><ele>194.0</ele><time>2026-04-18T07:35:45.985Z</time></trkpt><trkpt lat="44.821375" lon="9.49573"><ele>194.0</ele><time>2026-04-18T07:35:47.985Z</time></trkpt><trkpt lat="44.8213083" lon="9.4956183"><ele>194.00000000000003</ele><time>2026-04-18T07:35:49.985Z</time></trkpt><trkpt lat="44.821245" lon="9.4955117"><ele>194.0</ele><time>2026-04-18T07:35:51.985Z</time></trkpt><trkpt lat="44.8211783" lon="9.4953783"><ele>194.0</ele><time>2026-04-18T07:35:53.985Z</time></trkpt><trkpt lat="44.8211433" lon="9.4952883"><ele>194.0</ele><time>2026-04-18T07:35:54.983Z</time></trkpt><trkpt lat="44.8211083" lon="9.49521"><ele>194.00000000000003</ele><time>2026-04-18T07:35:55.984Z</time></trkpt><trkpt lat="44.8210833" lon="9.49512"><ele>194.0</ele><time>2026-04-18T07:35:56.984Z</time></trkpt><trkpt lat="44.8210567" lon="9.49503"><ele>194.0</ele><time>2026-04-18T07:35:57.982Z</time></trkpt><trkpt lat="44.8210233" lon="9.4949267"><ele>194.0</ele><time>2026-04-18T07:35:58.983Z</time></trkpt><trkpt lat="44.8209833" lon="9.4948217"><ele>194.0</ele><time>2026-04-18T07:35:59.982Z</time></trkpt><trkpt lat="44.8209383" lon="9.4947183"><ele>194.0</ele><time>2026-04-18T07:36:00.984Z</time></trkpt><trkpt lat="44.8208883" lon="9.4946"><ele>194.0</ele><time>2026-04-18T07:36:01.982Z</time></trkpt><trkpt lat="44.8208317" lon="9.494465"><ele>194.0</ele><time>2026-04-18T07:36:02.984Z</time></trkpt><trkpt lat="44.8207783" lon="9.4943217"><ele>194.0</ele><time>2026-04-18T07:36:03.983Z</time></trkpt><trkpt lat="44.82073" lon="9.4941783"><ele>194.0</ele><time>2026-04-18T07:36:04.984Z</time></trkpt><trkpt lat="44.8206933" lon="9.49404"><ele>194.0</ele><time>2026-04-18T07:36:05.983Z</time></trkpt><trkpt lat="44.8206617" lon="9.4939033"><ele>194.0</ele><time>2026-04-18T07:36:06.985Z</time></trkpt><trkpt lat="44.8206333" lon="9.49377"><ele>194.2</ele><time>2026-04-18T07:36:07.985Z</time></trkpt><trkpt lat="44.820605" lon="9.4936333"><ele>194.39999999999998</ele><time>2026-04-18T07:36:08.983Z</time></trkpt><trkpt lat="44.82058" lon="9.4935017"><ele>194.6</ele><time>2026-04-18T07:36:09.984Z</time></trkpt><trkpt lat="44.820555" lon="9.4933783"><ele>194.8</ele><time>2026-04-18T07:36:10.984Z</time></trkpt><trkpt lat="44.8205267" lon="9.4932583"><ele>195.0</ele><time>2026-04-18T07:36:11.983Z</time></trkpt><trkpt lat="44.8204833" lon="9.4931367"><ele>195.0</ele><time>2026-04-18T07:36:12.983Z</time></trkpt><trkpt lat="44.820425" lon="9.4930117"><ele>195.0</ele><time>2026-04-18T07:36:13.983Z</time></trkpt><trkpt lat="44.82037" lon="9.492885"><ele>195.0</ele><time>2026-04-18T07:36:14.982Z</time></trkpt><trkpt lat="44.8203267" lon="9.4927583"><ele>195.0</ele><time>2026-04-18T07:36:15.983Z</time></trkpt><trkpt lat="44.820295" lon="9.4926283"><ele>195.0</ele><time>2026-04-18T07:36:16.984Z</time></trkpt><trkpt lat="44.8202633" lon="9.4924883"><ele>195.0</ele><time>2026-04-18T07:36:17.983Z</time></trkpt><trkpt lat="44.8202333" lon="9.4923367"><ele>195.0</ele><time>2026-04-18T07:36:18.983Z</time></trkpt><trkpt lat="44.8201983" lon="9.4921933"><ele>195.0</ele><time>2026-04-18T07:36:19.984Z</time></trkpt><trkpt lat="44.82016" lon="9.4920633"><ele>195.0</ele><time>2026-04-18T07:36:20.983Z</time></trkpt><trkpt lat="44.820115" lon="9.4919433"><ele>195.0</ele><time>2026-04-18T07:36:21.984Z</time></trkpt><trkpt lat="44.8200617" lon="9.4918183"><ele>195.0</ele><time>2026-04-18T07:36:22.985Z</time></trkpt><trkpt lat="44.8200067" lon="9.4916833"><ele>195.0</ele><time>2026-04-18T07:36:23.986Z</time></trkpt><trkpt lat="44.81995" lon="9.4915383"><ele>195.0</ele><time>2026-04-18T07:36:24.984Z</time></trkpt><trkpt lat="44.819905" lon="9.4913983"><ele>195.0</ele><time>2026-04-18T07:36:25.983Z</time></trkpt><trkpt lat="44.819865" lon="9.4912667"><ele>195.0</ele><time>2026-04-18T07:36:26.984Z</time></trkpt><trkpt lat="44.8198333" lon="9.49114"><ele>195.4</ele><time>2026-04-18T07:36:27.983Z</time></trkpt><trkpt lat="44.8198083" lon="9.4910167"><ele>195.8</ele><time>2026-04-18T07:36:28.983Z</time></trkpt><trkpt lat="44.8197867" lon="9.490885"><ele>196.2</ele><time>2026-04-18T07:36:29.985Z</time></trkpt><trkpt lat="44.81977" lon="9.4907367"><ele>196.6</ele><time>2026-04-18T07:36:30.984Z</time></trkpt><trkpt lat="44.8197567" lon="9.4905883"><ele>197.0</ele><time>2026-04-18T07:36:31.984Z</time></trkpt><trkpt lat="44.8197433" lon="9.490455"><ele>197.50000000000003</ele><time>2026-04-18T07:36:32.984Z</time></trkpt><trkpt lat="44.8197317" lon="9.4903267"><ele>198.0</ele><time>2026-04-18T07:36:33.984Z</time></trkpt><trkpt lat="44.8197167" lon="9.490205"><ele>198.5</ele><time>2026-04-18T07:36:34.984Z</time></trkpt><trkpt lat="44.8197083" lon="9.4900983"><ele>199.0</ele><time>2026-04-18T07:36:35.985Z</time></trkpt><trkpt lat="44.819705" lon="9.490005"><ele>199.50000000000003</ele><time>2026-04-18T07:36:36.983Z</time></trkpt><trkpt lat="44.8197483" lon="9.4898367"><ele>200.0</ele><time>2026-04-18T07:36:38.986Z</time></trkpt><trkpt lat="44.819805" lon="9.4897467"><ele>200.00000000000003</ele><time>2026-04-18T07:36:39.984Z</time></trkpt><trkpt lat="44.819865" lon="9.4896433"><ele>200.0</ele><time>2026-04-18T07:36:40.984Z</time></trkpt><trkpt lat="44.8199117" lon="9.4895283"><ele>200.0</ele><time>2026-04-18T07:36:41.982Z</time></trkpt><trkpt lat="44.8199383" lon="9.48941"><ele>200.0</ele><time>2026-04-18T07:36:42.983Z</time></trkpt><trkpt lat="44.8199667" lon="9.489305"><ele>200.00000000000003</ele><time>2026-04-18T07:36:43.983Z</time></trkpt><trkpt lat="44.8200067" lon="9.4892267"><ele>200.0</ele><time>2026-04-18T07:36:44.984Z</time></trkpt><trkpt lat="44.820125" lon="9.489195"><ele>202.6</ele><time>2026-04-18T07:36:46.984Z</time></trkpt><trkpt lat="44.82021" lon="9.4892217"><ele>205.2</ele><time>2026-04-18T07:36:47.985Z</time></trkpt><trkpt lat="44.8203017" lon="9.4892567"><ele>207.8</ele><time>2026-04-18T07:36:48.985Z</time></trkpt><trkpt lat="44.8204017" lon="9.4892833"><ele>210.4</ele><time>2026-04-18T07:36:49.984Z</time></trkpt><trkpt lat="44.8205067" lon="9.4892883"><ele>213.0</ele><time>2026-04-18T07:36:50.986Z</time></trkpt><trkpt lat="44.8206117" lon="9.4892833"><ele>213.0</ele><time>2026-04-18T07:36:51.985Z</time></trkpt><trkpt lat="44.8207033" lon="9.489265"><ele>213.0</ele><time>2026-04-18T07:36:52.983Z</time></trkpt><trkpt lat="44.8207883" lon="9.4892183"><ele>213.0</ele><time>2026-04-18T07:36:53.984Z</time></trkpt><trkpt lat="44.820865" lon="9.4891433"><ele>213.0</ele><time>2026-04-18T07:36:54.983Z</time></trkpt><trkpt lat="44.820955" lon="9.4890533"><ele>213.0</ele><time>2026-04-18T07:36:55.982Z</time></trkpt><trkpt lat="44.821055" lon="9.48896"><ele>215.0</ele><time>2026-04-18T07:36:56.985Z</time></trkpt><trkpt lat="44.8211533" lon="9.4888667"><ele>217.0</ele><time>2026-04-18T07:36:57.982Z</time></trkpt><trkpt lat="44.821235" lon="9.4887733"><ele>219.0</ele><time>2026-04-18T07:36:58.983Z</time></trkpt><trkpt lat="44.82129" lon="9.4886617"><ele>221.0</ele><time>2026-04-18T07:36:59.984Z</time></trkpt><trkpt lat="44.8213183" lon="9.4885383"><ele>223.0</ele><time>2026-04-18T07:37:00.983Z</time></trkpt><trkpt lat="44.82133" lon="9.4883867"><ele>224.0</ele><time>2026-04-18T07:37:01.984Z</time></trkpt><trkpt lat="44.82134" lon="9.4882317"><ele>225.0</ele><time>2026-04-18T07:37:02.984Z</time></trkpt><trkpt lat="44.8213533" lon="9.4880867"><ele>226.0</ele><time>2026-04-18T07:37:03.983Z</time></trkpt><trkpt lat="44.821375" lon="9.4879483"><ele>227.0</ele><time>2026-04-18T07:37:04.984Z</time></trkpt><trkpt lat="44.8214067" lon="9.4878017"><ele>228.0</ele><time>2026-04-18T07:37:05.983Z</time></trkpt><trkpt lat="44.821445" lon="9.4876633"><ele>228.66666666666666</ele><time>2026-04-18T07:37:06.983Z</time></trkpt><trkpt lat="44.8214933" lon="9.4875583"><ele>229.33333333333331</ele><time>2026-04-18T07:37:07.984Z</time></trkpt><trkpt lat="44.8215533" lon="9.4874833"><ele>230.0</ele><time>2026-04-18T07:37:08.986Z</time></trkpt><trkpt lat="44.8216133" lon="9.4874367"><ele>230.66666666666666</ele><time>2026-04-18T07:37:09.985Z</time></trkpt><trkpt lat="44.8216817" lon="9.4874217"><ele>231.33333333333331</ele><time>2026-04-18T07:37:10.985Z</time></trkpt><trkpt lat="44.8217683" lon="9.487435"><ele>232.0</ele><time>2026-04-18T07:37:11.984Z</time></trkpt><trkpt lat="44.8218717" lon="9.4874633"><ele>234.0</ele><time>2026-04-18T07:37:12.984Z</time></trkpt><trkpt lat="44.821985" lon="9.487485"><ele>236.0</ele><time>2026-04-18T07:37:13.983Z</time></trkpt><trkpt lat="44.8221033" lon="9.4874933"><ele>238.0</ele><time>2026-04-18T07:37:14.985Z</time></trkpt><trkpt lat="44.822225" lon="9.48748"><ele>240.0</ele><time>2026-04-18T07:37:15.984Z</time></trkpt><trkpt lat="44.82235" lon="9.4874367"><ele>240.0</ele><time>2026-04-18T07:37:16.983Z</time></trkpt><trkpt lat="44.8224683" lon="9.4873833"><ele>240.0</ele><time>2026-04-18T07:37:17.984Z</time></trkpt><trkpt lat="44.8225833" lon="9.4873317"><ele>240.0</ele><time>2026-04-18T07:37:18.984Z</time></trkpt><trkpt lat="44.8227017" lon="9.4872683"><ele>240.0</ele><time>2026-04-18T07:37:19.984Z</time></trkpt><trkpt lat="44.822815" lon="9.4871967"><ele>242.4</ele><time>2026-04-18T07:37:20.984Z</time></trkpt><trkpt lat="44.8229233" lon="9.4871233"><ele>244.8</ele><time>2026-04-18T07:37:21.984Z</time></trkpt><trkpt lat="44.82302" lon="9.4870583"><ele>247.2</ele><time>2026-04-18T07:37:22.984Z</time></trkpt><trkpt lat="44.8231033" lon="9.487005"><ele>249.6</ele><time>2026-04-18T07:37:23.984Z</time></trkpt><trkpt lat="44.8232017" lon="9.4869533"><ele>252.0</ele><time>2026-04-18T07:37:24.983Z</time></trkpt><trkpt lat="44.8233" lon="9.486895"><ele>252.39999999999998</ele><time>2026-04-18T07:37:25.985Z</time></trkpt><trkpt lat="44.8234067" lon="9.486835"><ele>252.79999999999998</ele><time>2026-04-18T07:37:26.984Z</time></trkpt><trkpt lat="44.8235217" lon="9.486785"><ele>253.2</ele><time>2026-04-18T07:37:27.983Z</time></trkpt><trkpt lat="44.8236333" lon="9.48675"><ele>253.6</ele><time>2026-04-18T07:37:28.985Z</time></trkpt><trkpt lat="44.82373" lon="9.486725"><ele>254.0</ele><time>2026-04-18T07:37:29.985Z</time></trkpt><trkpt lat="44.8238117" lon="9.4867017"><ele>256.33333333333337</ele><time>2026-04-18T07:37:30.984Z</time></trkpt><trkpt lat="44.8239117" lon="9.4866583"><ele>258.6666666666667</ele><time>2026-04-18T07:37:32.984Z</time></trkpt><trkpt lat="44.8238917" lon="9.4865217"><ele>261.0</ele><time>2026-04-18T07:37:35.983Z</time></trkpt><trkpt lat="44.82384" lon="9.486445"><ele>263.3333333333333</ele><time>2026-04-18T07:37:36.984Z</time></trkpt><trkpt lat="44.8238025" lon="9.4863558"><ele>265.66666666666663</ele><time>2026-04-18T07:37:37.983Z</time></trkpt><trkpt lat="44.8237712" lon="9.4862483"><ele>268.0</ele><time>2026-04-18T07:37:38.984Z</time></trkpt><trkpt lat="44.8237482" lon="9.4861276"><ele>268.66666666666663</ele><time>2026-04-18T07:37:39.984Z</time></trkpt><trkpt lat="44.8237275" lon="9.485998"><ele>269.3333333333333</ele><time>2026-04-18T07:37:40.984Z</time></trkpt><trkpt lat="44.8237024" lon="9.4858647"><ele>270.0</ele><time>2026-04-18T07:37:41.984Z</time></trkpt><trkpt lat="44.8236708" lon="9.4857419"><ele>270.6666666666667</ele><time>2026-04-18T07:37:42.983Z</time></trkpt><trkpt lat="44.8236307" lon="9.4856336"><ele>271.33333333333337</ele><time>2026-04-18T07:37:43.983Z</time></trkpt><trkpt lat="44.8235897" lon="9.4855603"><ele>272.0</ele><time>2026-04-18T07:37:44.983Z</time></trkpt><trkpt lat="44.8234835" lon="9.4855055"><ele>269.33333333333337</ele><time>2026-04-18T07:37:46.984Z</time></trkpt><trkpt lat="44.8234153" lon="9.4855007"><ele>266.6666666666667</ele><time>2026-04-18T07:37:47.983Z</time></trkpt><trkpt lat="44.8233385" lon="9.4854953"><ele>264.0</ele><time>2026-04-18T07:37:48.985Z</time></trkpt><trkpt lat="44.8232561" lon="9.4854886"><ele>261.3333333333333</ele><time>2026-04-18T07:37:49.983Z</time></trkpt><trkpt lat="44.8231691" lon="9.4854706"><ele>258.66666666666663</ele><time>2026-04-18T07:37:50.983Z</time></trkpt><trkpt lat="44.8230856" lon="9.4854307"><ele>256.0</ele><time>2026-04-18T07:37:51.984Z</time></trkpt><trkpt lat="44.8230045" lon="9.485375"><ele>255.83333333333331</ele><time>2026-04-18T07:37:52.984Z</time></trkpt><trkpt lat="44.8229208" lon="9.4853249"><ele>255.66666666666666</ele><time>2026-04-18T07:37:53.983Z</time></trkpt><trkpt lat="44.8228338" lon="9.4852917"><ele>255.5</ele><time>2026-04-18T07:37:54.983Z</time></trkpt><trkpt lat="44.8227525" lon="9.4852788"><ele>255.33333333333331</ele><time>2026-04-18T07:37:55.984Z</time></trkpt><trkpt lat="44.8226737" lon="9.485288"><ele>255.16666666666666</ele><time>2026-04-18T07:37:56.984Z</time></trkpt><trkpt lat="44.8225982" lon="9.4853216"><ele>255.0</ele><time>2026-04-18T07:37:57.984Z</time></trkpt><trkpt lat="44.8225169" lon="9.4853666"><ele>252.2</ele><time>2026-04-18T07:37:58.984Z</time></trkpt><trkpt lat="44.8224258" lon="9.4854036"><ele>249.4</ele><time>2026-04-18T07:37:59.985Z</time></trkpt><trkpt lat="44.8223291" lon="9.4854136"><ele>246.60000000000002</ele><time>2026-04-18T07:38:00.984Z</time></trkpt><trkpt lat="44.8222316" lon="9.4853951"><ele>243.8</ele><time>2026-04-18T07:38:01.985Z</time></trkpt><trkpt lat="44.8221335" lon="9.4853653"><ele>241.0</ele><time>2026-04-18T07:38:02.984Z</time></trkpt><trkpt lat="44.8220406" lon="9.4853358"><ele>241.0</ele><time>2026-04-18T07:38:03.983Z</time></trkpt><trkpt lat="44.8219524" lon="9.4852993"><ele>241.00000000000003</ele><time>2026-04-18T07:38:04.984Z</time></trkpt><trkpt lat="44.8218645" lon="9.4852545"><ele>241.00000000000003</ele><time>2026-04-18T07:38:05.983Z</time></trkpt><trkpt lat="44.8217846" lon="9.4851985"><ele>241.0</ele><time>2026-04-18T07:38:06.983Z</time></trkpt><trkpt lat="44.8217055" lon="9.4851358"><ele>241.0</ele><time>2026-04-18T07:38:07.983Z</time></trkpt><trkpt lat="44.8216182" lon="9.4850726"><ele>239.66666666666666</ele><time>2026-04-18T07:38:08.984Z</time></trkpt><trkpt lat="44.8215296" lon="9.4850128"><ele>238.33333333333331</ele><time>2026-04-18T07:38:09.984Z</time></trkpt><trkpt lat="44.8214459" lon="9.484956"><ele>237.0</ele><time>2026-04-18T07:38:10.982Z</time></trkpt><trkpt lat="44.82137" lon="9.4848999"><ele>235.66666666666669</ele><time>2026-04-18T07:38:11.984Z</time></trkpt><trkpt lat="44.8212993" lon="9.4848431"><ele>234.33333333333334</ele><time>2026-04-18T07:38:12.984Z</time></trkpt><trkpt lat="44.82124" lon="9.484786"><ele>233.0</ele><time>2026-04-18T07:38:13.984Z</time></trkpt><trkpt lat="44.8211861" lon="9.484723"><ele>233.0</ele><time>2026-04-18T07:38:14.983Z</time></trkpt><trkpt lat="44.8211358" lon="9.4846577"><ele>233.0</ele><time>2026-04-18T07:38:15.984Z</time></trkpt><trkpt lat="44.8210866" lon="9.4845961"><ele>233.0</ele><time>2026-04-18T07:38:16.983Z</time></trkpt><trkpt lat="44.8209923" lon="9.4844849"><ele>233.0</ele><time>2026-04-18T07:38:18.983Z</time></trkpt><trkpt lat="44.8208876" lon="9.4843898"><ele>233.0</ele><time>2026-04-18T07:38:20.984Z</time></trkpt><trkpt lat="44.8207842" lon="9.4842834"><ele>231.0</ele><time>2026-04-18T07:38:22.985Z</time></trkpt><trkpt lat="44.8207383" lon="9.4842146"><ele>229.0</ele><time>2026-04-18T07:38:23.985Z</time></trkpt><trkpt lat="44.8206949" lon="9.4841322"><ele>227.0</ele><time>2026-04-18T07:38:24.984Z</time></trkpt><trkpt lat="44.8206483" lon="9.4840333"><ele>225.0</ele><time>2026-04-18T07:38:25.983Z</time></trkpt><trkpt lat="44.82061" lon="9.4839333"><ele>223.0</ele><time>2026-04-18T07:38:26.984Z</time></trkpt><trkpt lat="44.820575" lon="9.483845"><ele>221.0</ele><time>2026-04-18T07:38:27.983Z</time></trkpt><trkpt lat="44.8205433" lon="9.4837617"><ele>219.0</ele><time>2026-04-18T07:38:28.983Z</time></trkpt><trkpt lat="44.82052" lon="9.4836767"><ele>218.6</ele><time>2026-04-18T07:38:29.983Z</time></trkpt><trkpt lat="44.8204967" lon="9.483515"><ele>218.2</ele><time>2026-04-18T07:38:31.984Z</time></trkpt><trkpt lat="44.8205017" lon="9.4833683"><ele>217.79999999999998</ele><time>2026-04-18T07:38:33.984Z</time></trkpt><trkpt lat="44.82047" lon="9.4832133"><ele>217.39999999999998</ele><time>2026-04-18T07:38:35.984Z</time></trkpt><trkpt lat="44.8204383" lon="9.483125"><ele>217.0</ele><time>2026-04-18T07:38:36.983Z</time></trkpt><trkpt lat="44.82041" lon="9.483025"><ele>216.49999999999997</ele><time>2026-04-18T07:38:37.984Z</time></trkpt><trkpt lat="44.8203817" lon="9.482915"><ele>216.0</ele><time>2026-04-18T07:38:38.983Z</time></trkpt><trkpt lat="44.8203533" lon="9.48281"><ele>215.5</ele><time>2026-04-18T07:38:39.983Z</time></trkpt><trkpt lat="44.82032" lon="9.4827267"><ele>215.0</ele><time>2026-04-18T07:38:40.984Z</time></trkpt><trkpt lat="44.82028" lon="9.4826467"><ele>214.49999999999997</ele><time>2026-04-18T07:38:41.984Z</time></trkpt><trkpt lat="44.82023" lon="9.482585"><ele>214.0</ele><time>2026-04-18T07:38:42.984Z</time></trkpt><trkpt lat="44.8201817" lon="9.48247"><ele>213.99999999999997</ele><time>2026-04-18T07:38:44.984Z</time></trkpt><trkpt lat="44.82017" lon="9.4823183"><ele>214.0</ele><time>2026-04-18T07:38:46.984Z</time></trkpt><trkpt lat="44.8201467" lon="9.4821883"><ele>214.0</ele><time>2026-04-18T07:38:48.986Z</time></trkpt><trkpt lat="44.820095" lon="9.4821183"><ele>214.0</ele><time>2026-04-18T07:38:50.984Z</time></trkpt><trkpt lat="44.820015" lon="9.4821067"><ele>213.99999999999997</ele><time>2026-04-18T07:38:52.984Z</time></trkpt><trkpt lat="44.8199367" lon="9.48215"><ele>214.0</ele><time>2026-04-18T07:38:55.984Z</time></trkpt><trkpt lat="44.8198783" lon="9.482115"><ele>213.39999999999998</ele><time>2026-04-18T07:38:57.983Z</time></trkpt><trkpt lat="44.8197783" lon="9.4820633"><ele>212.79999999999998</ele><time>2026-04-18T07:38:59.987Z</time></trkpt><trkpt lat="44.8196833" lon="9.481995"><ele>212.2</ele><time>2026-04-18T07:39:01.983Z</time></trkpt><trkpt lat="44.8196133" lon="9.4819583"><ele>211.60000000000002</ele><time>2026-04-18T07:39:03.983Z</time></trkpt><trkpt lat="44.8195333" lon="9.4819267"><ele>211.0</ele><time>2026-04-18T07:39:05.984Z</time></trkpt><trkpt lat="44.8194433" lon="9.4818783"><ele>211.0</ele><time>2026-04-18T07:39:07.983Z</time></trkpt><trkpt lat="44.81935" lon="9.48178"><ele>211.0</ele><time>2026-04-18T07:39:09.984Z</time></trkpt><trkpt lat="44.81923" lon="9.4817183"><ele>211.0</ele><time>2026-04-18T07:39:11.985Z</time></trkpt><trkpt lat="44.81916" lon="9.4816983"><ele>211.0</ele><time>2026-04-18T07:39:12.983Z</time></trkpt><trkpt lat="44.819055" lon="9.4816133"><ele>211.0</ele><time>2026-04-18T07:39:14.984Z</time></trkpt><trkpt lat="44.81901" lon="9.4815483"><ele>210.42857142857144</ele><time>2026-04-18T07:39:15.984Z</time></trkpt><trkpt lat="44.8189567" lon="9.481485"><ele>209.85714285714286</ele><time>2026-04-18T07:39:16.984Z</time></trkpt><trkpt lat="44.8189067" lon="9.48141"><ele>209.28571428571428</ele><time>2026-04-18T07:39:17.984Z</time></trkpt><trkpt lat="44.8188617" lon="9.4813233"><ele>208.71428571428572</ele><time>2026-04-18T07:39:18.985Z</time></trkpt><trkpt lat="44.8188233" lon="9.48123"><ele>208.14285714285714</ele><time>2026-04-18T07:39:19.985Z</time></trkpt><trkpt lat="44.8187833" lon="9.4811383"><ele>207.57142857142858</ele><time>2026-04-18T07:39:20.985Z</time></trkpt><trkpt lat="44.8187333" lon="9.4810583"><ele>207.0</ele><time>2026-04-18T07:39:21.984Z</time></trkpt><trkpt lat="44.8186833" lon="9.4809917"><ele>207.0</ele><time>2026-04-18T07:39:22.985Z</time></trkpt><trkpt lat="44.818625" lon="9.480915"><ele>207.0</ele><time>2026-04-18T07:39:24.987Z</time></trkpt><trkpt lat="44.8185833" lon="9.4808267"><ele>207.0</ele><time>2026-04-18T07:39:28.983Z</time></trkpt><trkpt lat="44.8185617" lon="9.4807333"><ele>207.0</ele><time>2026-04-18T07:39:30.983Z</time></trkpt><trkpt lat="44.8184933" lon="9.4806817"><ele>207.0</ele><time>2026-04-18T07:39:32.985Z</time></trkpt><trkpt lat="44.8184367" lon="9.4806367"><ele>207.0</ele><time>2026-04-18T07:39:34.984Z</time></trkpt><trkpt lat="44.8183683" lon="9.4805683"><ele>207.6</ele><time>2026-04-18T07:39:37.983Z</time></trkpt><trkpt lat="44.8183533" lon="9.4804217"><ele>208.2</ele><time>2026-04-18T07:39:47.984Z</time></trkpt><trkpt lat="44.8183483" lon="9.4803067"><ele>208.8</ele><time>2026-04-18T07:39:49.985Z</time></trkpt><trkpt lat="44.818395" lon="9.480225"><ele>209.4</ele><time>2026-04-18T07:39:51.984Z</time></trkpt><trkpt lat="44.8184833" lon="9.4801733"><ele>210.0</ele><time>2026-04-18T07:39:53.984Z</time></trkpt><trkpt lat="44.8185867" lon="9.4801017"><ele>210.0</ele><time>2026-04-18T07:39:55.985Z</time></trkpt><trkpt lat="44.8187017" lon="9.4800767"><ele>210.0</ele><time>2026-04-18T07:39:57.984Z</time></trkpt><trkpt lat="44.81881" lon="9.4800517"><ele>210.0</ele><time>2026-04-18T07:39:59.983Z</time></trkpt><trkpt lat="44.81891" lon="9.4800283"><ele>210.0</ele><time>2026-04-18T07:40:01.985Z</time></trkpt><trkpt lat="44.8190267" lon="9.4800317"><ele>210.0</ele><time>2026-04-18T07:40:03.983Z</time></trkpt><trkpt lat="44.8191417" lon="9.480035"><ele>210.0</ele><time>2026-04-18T07:40:05.984Z</time></trkpt><trkpt lat="44.819235" lon="9.4799667"><ele>210.0</ele><time>2026-04-18T07:40:07.983Z</time></trkpt><trkpt lat="44.8193283" lon="9.479865"><ele>210.0</ele><time>2026-04-18T07:40:09.983Z</time></trkpt><trkpt lat="44.8194183" lon="9.4798017"><ele>210.0</ele><time>2026-04-18T07:40:11.984Z</time></trkpt><trkpt lat="44.8195083" lon="9.4798067"><ele>210.0</ele><time>2026-04-18T07:40:13.985Z</time></trkpt><trkpt lat="44.819585" lon="9.479885"><ele>212.66666666666666</ele><time>2026-04-18T07:40:15.985Z</time></trkpt><trkpt lat="44.819655" lon="9.4798983"><ele>215.33333333333331</ele><time>2026-04-18T07:40:17.984Z</time></trkpt><trkpt lat="44.8197267" lon="9.4798583"><ele>218.0</ele><time>2026-04-18T07:40:19.984Z</time></trkpt><trkpt lat="44.8198117" lon="9.47979"><ele>220.66666666666666</ele><time>2026-04-18T07:40:21.983Z</time></trkpt><trkpt lat="44.8198783" lon="9.4797"><ele>223.33333333333331</ele><time>2026-04-18T07:40:23.985Z</time></trkpt><trkpt lat="44.81996" lon="9.479645"><ele>226.0</ele><time>2026-04-18T07:40:25.984Z</time></trkpt><trkpt lat="44.82004" lon="9.4796"><ele>227.8</ele><time>2026-04-18T07:40:27.983Z</time></trkpt><trkpt lat="44.8201283" lon="9.4795767"><ele>229.60000000000002</ele><time>2026-04-18T07:40:29.984Z</time></trkpt><trkpt lat="44.8202183" lon="9.4795417"><ele>231.4</ele><time>2026-04-18T07:40:31.984Z</time></trkpt><trkpt lat="44.8202983" lon="9.47948"><ele>233.2</ele><time>2026-04-18T07:40:33.983Z</time></trkpt><trkpt lat="44.8203967" lon="9.4794267"><ele>235.0</ele><time>2026-04-18T07:40:35.985Z</time></trkpt><trkpt lat="44.8204883" lon="9.4793836"><ele>238.8</ele><time>2026-04-18T07:40:37.982Z</time></trkpt><trkpt lat="44.8205786" lon="9.4793278"><ele>242.6</ele><time>2026-04-18T07:40:39.984Z</time></trkpt><trkpt lat="44.8206654" lon="9.4792618"><ele>246.39999999999998</ele><time>2026-04-18T07:40:41.984Z</time></trkpt><trkpt lat="44.8207551" lon="9.4791876"><ele>250.2</ele><time>2026-04-18T07:40:43.984Z</time></trkpt><trkpt lat="44.820823" lon="9.4791208"><ele>254.0</ele><time>2026-04-18T07:40:45.984Z</time></trkpt><trkpt lat="44.8208732" lon="9.4790456"><ele>254.00000000000003</ele><time>2026-04-18T07:40:47.984Z</time></trkpt><trkpt lat="44.8209029" lon="9.4789561"><ele>254.0</ele><time>2026-04-18T07:40:49.985Z</time></trkpt><trkpt lat="44.8209806" lon="9.4789066"><ele>254.0</ele><time>2026-04-18T07:40:52.985Z</time></trkpt><trkpt lat="44.8210448" lon="9.4787929"><ele>254.0</ele><time>2026-04-18T07:40:55.985Z</time></trkpt><trkpt lat="44.8210822" lon="9.478678"><ele>254.00000000000003</ele><time>2026-04-18T07:40:57.986Z</time></trkpt><trkpt lat="44.8211453" lon="9.4786195"><ele>254.0</ele><time>2026-04-18T07:40:59.986Z</time></trkpt><trkpt lat="44.8212166" lon="9.4786055"><ele>258.83333333333337</ele><time>2026-04-18T07:41:01.984Z</time></trkpt><trkpt lat="44.8212795" lon="9.4785578"><ele>263.6666666666667</ele><time>2026-04-18T07:41:03.983Z</time></trkpt><trkpt lat="44.8213537" lon="9.4784835"><ele>268.5</ele><time>2026-04-18T07:41:05.985Z</time></trkpt><trkpt lat="44.821415" lon="9.4784146"><ele>273.3333333333333</ele><time>2026-04-18T07:41:07.986Z</time></trkpt><trkpt lat="44.8214953" lon="9.4783271"><ele>278.16666666666663</ele><time>2026-04-18T07:41:09.984Z</time></trkpt><trkpt lat="44.8215822" lon="9.4782507"><ele>283.0</ele><time>2026-04-18T07:41:11.983Z</time></trkpt><trkpt lat="44.8216864" lon="9.4782157"><ele>283.0</ele><time>2026-04-18T07:41:13.984Z</time></trkpt><trkpt lat="44.8217937" lon="9.4781658"><ele>283.0</ele><time>2026-04-18T07:41:15.984Z</time></trkpt><trkpt lat="44.8218777" lon="9.4781294"><ele>283.0</ele><time>2026-04-18T07:41:17.985Z</time></trkpt><trkpt lat="44.8219602" lon="9.4781707"><ele>283.0</ele><time>2026-04-18T07:41:19.984Z</time></trkpt><trkpt lat="44.822065" lon="9.4782317"><ele>283.0</ele><time>2026-04-18T07:41:21.985Z</time></trkpt><trkpt lat="44.8221683" lon="9.47827"><ele>285.3333333333333</ele><time>2026-04-18T07:41:23.985Z</time></trkpt><trkpt lat="44.8222483" lon="9.478305"><ele>287.66666666666663</ele><time>2026-04-18T07:41:25.984Z</time></trkpt><trkpt lat="44.8223267" lon="9.4783367"><ele>290.0</ele><time>2026-04-18T07:41:27.983Z</time></trkpt><trkpt lat="44.8224233" lon="9.4783367"><ele>292.3333333333333</ele><time>2026-04-18T07:41:29.984Z</time></trkpt><trkpt lat="44.822485" lon="9.4783967"><ele>294.6666666666667</ele><time>2026-04-18T07:41:31.985Z</time></trkpt><trkpt lat="44.8225567" lon="9.4784633"><ele>297.0</ele><time>2026-04-18T07:41:33.984Z</time></trkpt><trkpt lat="44.8226317" lon="9.4785483"><ele>298.6666666666667</ele><time>2026-04-18T07:41:35.985Z</time></trkpt><trkpt lat="44.8227233" lon="9.4786317"><ele>300.3333333333333</ele><time>2026-04-18T07:41:37.984Z</time></trkpt><trkpt lat="44.822785" lon="9.4786767"><ele>302.0</ele><time>2026-04-18T07:41:38.984Z</time></trkpt><trkpt lat="44.82285" lon="9.4787233"><ele>303.66666666666663</ele><time>2026-04-18T07:41:39.985Z</time></trkpt><trkpt lat="44.822915" lon="9.4787583"><ele>305.3333333333333</ele><time>2026-04-18T07:41:40.984Z</time></trkpt><trkpt lat="44.8230333" lon="9.4787933"><ele>307.0</ele><time>2026-04-18T07:41:42.984Z</time></trkpt><trkpt lat="44.8231" lon="9.4787833"><ele>307.2</ele><time>2026-04-18T07:41:43.984Z</time></trkpt><trkpt lat="44.8231633" lon="9.4787783"><ele>307.4</ele><time>2026-04-18T07:41:44.984Z</time></trkpt><trkpt lat="44.8232733" lon="9.4788033"><ele>307.6</ele><time>2026-04-18T07:41:46.985Z</time></trkpt><trkpt lat="44.8233933" lon="9.4788183"><ele>307.8</ele><time>2026-04-18T07:41:48.983Z</time></trkpt><trkpt lat="44.8235" lon="9.4788567"><ele>308.0</ele><time>2026-04-18T07:41:50.984Z</time></trkpt><trkpt lat="44.8236167" lon="9.4789"><ele>311.4</ele><time>2026-04-18T07:41:52.985Z</time></trkpt><trkpt lat="44.8237367" lon="9.47897"><ele>314.8</ele><time>2026-04-18T07:41:54.984Z</time></trkpt><trkpt lat="44.8237967" lon="9.47901"><ele>318.2</ele><time>2026-04-18T07:41:55.983Z</time></trkpt><trkpt lat="44.8238617" lon="9.4790383"><ele>321.6</ele><time>2026-04-18T07:41:56.984Z</time></trkpt><trkpt lat="44.8239717" lon="9.47905"><ele>325.0</ele><time>2026-04-18T07:41:58.984Z</time></trkpt><trkpt lat="44.8240717" lon="9.4790617"><ele>325.0</ele><time>2026-04-18T07:42:00.983Z</time></trkpt><trkpt lat="44.8241583" lon="9.479135"><ele>325.0</ele><time>2026-04-18T07:42:02.984Z</time></trkpt><trkpt lat="44.824245" lon="9.47921"><ele>325.0</ele><time>2026-04-18T07:42:04.984Z</time></trkpt><trkpt lat="44.824335" lon="9.4792267"><ele>325.0</ele><time>2026-04-18T07:42:06.983Z</time></trkpt><trkpt lat="44.824455" lon="9.47922"><ele>325.0</ele><time>2026-04-18T07:42:08.985Z</time></trkpt><trkpt lat="44.8245833" lon="9.4792533"><ele>327.0</ele><time>2026-04-18T07:42:10.984Z</time></trkpt><trkpt lat="44.82465" lon="9.4792733"><ele>329.0</ele><time>2026-04-18T07:42:11.984Z</time></trkpt><trkpt lat="44.8247217" lon="9.479285"><ele>331.0</ele><time>2026-04-18T07:42:12.984Z</time></trkpt><trkpt lat="44.824795" lon="9.4792967"><ele>333.0</ele><time>2026-04-18T07:42:13.984Z</time></trkpt><trkpt lat="44.8248667" lon="9.479335"><ele>335.0</ele><time>2026-04-18T07:42:14.984Z</time></trkpt><trkpt lat="44.82492" lon="9.479385"><ele>337.0</ele><time>2026-04-18T07:42:15.983Z</time></trkpt><trkpt lat="44.82498" lon="9.479465"><ele>339.0</ele><time>2026-04-18T07:42:16.984Z</time></trkpt><trkpt lat="44.825035" lon="9.4795517"><ele>339.3333333333333</ele><time>2026-04-18T07:42:17.984Z</time></trkpt><trkpt lat="44.825095" lon="9.479635"><ele>339.6666666666667</ele><time>2026-04-18T07:42:18.985Z</time></trkpt><trkpt lat="44.8251633" lon="9.4797033"><ele>340.0</ele><time>2026-04-18T07:42:19.986Z</time></trkpt><trkpt lat="44.825235" lon="9.4797533"><ele>340.33333333333337</ele><time>2026-04-18T07:42:20.987Z</time></trkpt><trkpt lat="44.8253033" lon="9.4797967"><ele>340.6666666666667</ele><time>2026-04-18T07:42:21.985Z</time></trkpt><trkpt lat="44.8253767" lon="9.479845"><ele>341.0</ele><time>2026-04-18T07:42:22.985Z</time></trkpt><trkpt lat="44.82544" lon="9.479885"><ele>343.5</ele><time>2026-04-18T07:42:23.986Z</time></trkpt><trkpt lat="44.8254883" lon="9.47995"><ele>346.0</ele><time>2026-04-18T07:42:24.985Z</time></trkpt><trkpt lat="44.8255333" lon="9.480015"><ele>348.5</ele><time>2026-04-18T07:42:25.986Z</time></trkpt><trkpt lat="44.8256217" lon="9.48012"><ele>351.0</ele><time>2026-04-18T07:42:27.983Z</time></trkpt><trkpt lat="44.8256733" lon="9.4801833"><ele>353.5</ele><time>2026-04-18T07:42:28.984Z</time></trkpt><trkpt lat="44.8257317" lon="9.4802533"><ele>356.0</ele><time>2026-04-18T07:42:29.983Z</time></trkpt><trkpt lat="44.8257933" lon="9.480315"><ele>355.99999999999994</ele><time>2026-04-18T07:42:30.985Z</time></trkpt><trkpt lat="44.8258533" lon="9.4803667"><ele>356.0</ele><time>2026-04-18T07:42:31.983Z</time></trkpt><trkpt lat="44.8259117" lon="9.4804117"><ele>356.0</ele><time>2026-04-18T07:42:32.986Z</time></trkpt><trkpt lat="44.8259717" lon="9.480455"><ele>356.0</ele><time>2026-04-18T07:42:33.984Z</time></trkpt><trkpt lat="44.8260333" lon="9.4804917"><ele>356.0</ele><time>2026-04-18T07:42:34.983Z</time></trkpt><trkpt lat="44.8260983" lon="9.480535"><ele>355.99999999999994</ele><time>2026-04-18T07:42:35.984Z</time></trkpt><trkpt lat="44.8261717" lon="9.4805817"><ele>356.0</ele><time>2026-04-18T07:42:36.984Z</time></trkpt><trkpt lat="44.826255" lon="9.4806333"><ele>360.0</ele><time>2026-04-18T07:42:37.984Z</time></trkpt><trkpt lat="44.82633" lon="9.48069"><ele>364.0</ele><time>2026-04-18T07:42:38.986Z</time></trkpt><trkpt lat="44.82638" lon="9.4807483"><ele>368.0</ele><time>2026-04-18T07:42:39.984Z</time></trkpt><trkpt lat="44.8264283" lon="9.4808867"><ele>372.0</ele><time>2026-04-18T07:42:41.985Z</time></trkpt><trkpt lat="44.82646" lon="9.481015"><ele>376.0</ele><time>2026-04-18T07:42:43.983Z</time></trkpt><trkpt lat="44.8265117" lon="9.48115"><ele>375.66666666666663</ele><time>2026-04-18T07:42:45.984Z</time></trkpt><trkpt lat="44.8265533" lon="9.481275"><ele>375.3333333333333</ele><time>2026-04-18T07:42:47.984Z</time></trkpt><trkpt lat="44.826535" lon="9.4813967"><ele>375.0</ele><time>2026-04-18T07:42:50.986Z</time></trkpt><trkpt lat="44.826545" lon="9.48149"><ele>374.6666666666667</ele><time>2026-04-18T07:42:52.985Z</time></trkpt><trkpt lat="44.8266333" lon="9.4815033"><ele>374.33333333333337</ele><time>2026-04-18T07:43:04.984Z</time></trkpt><trkpt lat="44.82671" lon="9.48144"><ele>374.0</ele><time>2026-04-18T07:43:06.983Z</time></trkpt><trkpt lat="44.8268217" lon="9.4814117"><ele>376.7142857142857</ele><time>2026-04-18T07:43:08.983Z</time></trkpt><trkpt lat="44.8268867" lon="9.48139"><ele>379.42857142857144</ele><time>2026-04-18T07:43:09.985Z</time></trkpt><trkpt lat="44.8269517" lon="9.48137"><ele>382.14285714285717</ele><time>2026-04-18T07:43:10.984Z</time></trkpt><trkpt lat="44.8270183" lon="9.48135"><ele>384.8571428571429</ele><time>2026-04-18T07:43:11.984Z</time></trkpt><trkpt lat="44.827095" lon="9.4813183"><ele>387.57142857142856</ele><time>2026-04-18T07:43:12.983Z</time></trkpt><trkpt lat="44.827155" lon="9.48129"><ele>390.28571428571433</ele><time>2026-04-18T07:43:13.984Z</time></trkpt><trkpt lat="44.82722" lon="9.481275"><ele>393.0</ele><time>2026-04-18T07:43:14.985Z</time></trkpt><trkpt lat="44.8273017" lon="9.4812683"><ele>393.0</ele><time>2026-04-18T07:43:15.986Z</time></trkpt><trkpt lat="44.82738" lon="9.4812683"><ele>393.0</ele><time>2026-04-18T07:43:16.985Z</time></trkpt><trkpt lat="44.827455" lon="9.481295"><ele>393.0</ele><time>2026-04-18T07:43:17.983Z</time></trkpt><trkpt lat="44.8275233" lon="9.4813417"><ele>393.0</ele><time>2026-04-18T07:43:18.986Z</time></trkpt><trkpt lat="44.8275867" lon="9.4813767"><ele>393.0</ele><time>2026-04-18T07:43:19.985Z</time></trkpt><trkpt lat="44.82766" lon="9.4814067"><ele>393.0</ele><time>2026-04-18T07:43:20.986Z</time></trkpt><trkpt lat="44.8277333" lon="9.481435"><ele>395.6666666666667</ele><time>2026-04-18T07:43:21.986Z</time></trkpt><trkpt lat="44.8278067" lon="9.4814633"><ele>398.33333333333337</ele><time>2026-04-18T07:43:22.984Z</time></trkpt><trkpt lat="44.8278717" lon="9.4815"><ele>401.0</ele><time>2026-04-18T07:43:23.985Z</time></trkpt><trkpt lat="44.8279767" lon="9.4815983"><ele>403.6666666666667</ele><time>2026-04-18T07:43:25.984Z</time></trkpt><trkpt lat="44.8280417" lon="9.4816583"><ele>406.33333333333337</ele><time>2026-04-18T07:43:26.984Z</time></trkpt><trkpt lat="44.82811" lon="9.4817133"><ele>409.0</ele><time>2026-04-18T07:43:27.984Z</time></trkpt><trkpt lat="44.8281767" lon="9.4817717"><ele>409.00000000000006</ele><time>2026-04-18T07:43:28.986Z</time></trkpt><trkpt lat="44.82825" lon="9.48185"><ele>409.0</ele><time>2026-04-18T07:43:29.986Z</time></trkpt><trkpt lat="44.8283" lon="9.4819367"><ele>409.0</ele><time>2026-04-18T07:43:30.985Z</time></trkpt><trkpt lat="44.82834" lon="9.4820367"><ele>409.0</ele><time>2026-04-18T07:43:31.984Z</time></trkpt><trkpt lat="44.8283783" lon="9.48214"><ele>409.00000000000006</ele><time>2026-04-18T07:43:32.985Z</time></trkpt><trkpt lat="44.82841" lon="9.4822317"><ele>409.0</ele><time>2026-04-18T07:43:33.985Z</time></trkpt><trkpt lat="44.8284783" lon="9.4823367"><ele>409.6666666666667</ele><time>2026-04-18T07:43:35.984Z</time></trkpt><trkpt lat="44.82856" lon="9.48238"><ele>410.33333333333337</ele><time>2026-04-18T07:43:37.985Z</time></trkpt><trkpt lat="44.8286317" lon="9.4824267"><ele>411.0</ele><time>2026-04-18T07:43:40.984Z</time></trkpt><trkpt lat="44.8285717" lon="9.4823783"><ele>411.66666666666663</ele><time>2026-04-18T07:47:45.984Z</time></trkpt><trkpt lat="44.8284983" lon="9.4823483"><ele>412.3333333333333</ele><time>2026-04-18T07:47:47.986Z</time></trkpt><trkpt lat="44.8284333" lon="9.48229"><ele>413.0</ele><time>2026-04-18T07:47:49.986Z</time></trkpt><trkpt lat="44.8283933" lon="9.4821967"><ele>412.3333333333333</ele><time>2026-04-18T07:47:51.986Z</time></trkpt><trkpt lat="44.8283533" lon="9.4820733"><ele>411.66666666666663</ele><time>2026-04-18T07:47:53.986Z</time></trkpt><trkpt lat="44.82829" lon="9.4819367"><ele>411.0</ele><time>2026-04-18T07:47:55.984Z</time></trkpt><trkpt lat="44.8282483" lon="9.48187"><ele>410.33333333333337</ele><time>2026-04-18T07:47:56.985Z</time></trkpt><trkpt lat="44.8281983" lon="9.4818033"><ele>409.6666666666667</ele><time>2026-04-18T07:47:57.985Z</time></trkpt><trkpt lat="44.8281483" lon="9.4817483"><ele>409.0</ele><time>2026-04-18T07:47:58.984Z</time></trkpt><trkpt lat="44.828045" lon="9.48166"><ele>409.0</ele><time>2026-04-18T07:48:00.984Z</time></trkpt><trkpt lat="44.8279383" lon="9.4815817"><ele>409.0</ele><time>2026-04-18T07:48:02.984Z</time></trkpt><trkpt lat="44.8278367" lon="9.4814917"><ele>409.0</ele><time>2026-04-18T07:48:04.984Z</time></trkpt><trkpt lat="44.827755" lon="9.48144"><ele>409.0</ele><time>2026-04-18T07:48:06.983Z</time></trkpt><trkpt lat="44.8276833" lon="9.4814067"><ele>409.0</ele><time>2026-04-18T07:48:08.984Z</time></trkpt><trkpt lat="44.8277867" lon="9.4814583"><ele>409.0</ele><time>2026-04-18T07:52:26.984Z</time></trkpt><trkpt lat="44.8278817" lon="9.4815217"><ele>409.0</ele><time>2026-04-18T07:52:28.985Z</time></trkpt><trkpt lat="44.827935" lon="9.48157"><ele>409.0</ele><time>2026-04-18T07:52:29.983Z</time></trkpt><trkpt lat="44.8280417" lon="9.4816567"><ele>409.0</ele><time>2026-04-18T07:52:31.984Z</time></trkpt><trkpt lat="44.82811" lon="9.4817067"><ele>409.0</ele><time>2026-04-18T07:52:32.983Z</time></trkpt><trkpt lat="44.8281767" lon="9.481775"><ele>409.00000000000006</ele><time>2026-04-18T07:52:33.984Z</time></trkpt><trkpt lat="44.8282367" lon="9.4818567"><ele>409.0</ele><time>2026-04-18T07:52:34.983Z</time></trkpt><trkpt lat="44.828285" lon="9.48194"><ele>409.0</ele><time>2026-04-18T07:52:35.984Z</time></trkpt><trkpt lat="44.8283233" lon="9.4820217"><ele>409.0</ele><time>2026-04-18T07:52:36.986Z</time></trkpt><trkpt lat="44.82836" lon="9.482115"><ele>409.00000000000006</ele><time>2026-04-18T07:52:37.984Z</time></trkpt><trkpt lat="44.8283933" lon="9.4822033"><ele>409.0</ele><time>2026-04-18T07:52:38.983Z</time></trkpt><trkpt lat="44.8284567" lon="9.4823117"><ele>411.50000000000006</ele><time>2026-04-18T07:52:40.985Z</time></trkpt><trkpt lat="44.8285583" lon="9.4823817"><ele>414.0</ele><time>2026-04-18T07:52:42.983Z</time></trkpt><trkpt lat="44.82862" lon="9.4824117"><ele>416.5</ele><time>2026-04-18T07:52:43.985Z</time></trkpt><trkpt lat="44.8286817" lon="9.482435"><ele>419.0</ele><time>2026-04-18T07:52:44.984Z</time></trkpt><trkpt lat="44.8287867" lon="9.4824167"><ele>421.50000000000006</ele><time>2026-04-18T07:52:46.984Z</time></trkpt><trkpt lat="44.828875" lon="9.4823517"><ele>424.0</ele><time>2026-04-18T07:52:48.984Z</time></trkpt><trkpt lat="44.8289383" lon="9.482305"><ele>424.0</ele><time>2026-04-18T07:52:50.985Z</time></trkpt><trkpt lat="44.8290133" lon="9.48222"><ele>424.0</ele><time>2026-04-18T08:01:37.987Z</time></trkpt><trkpt lat="44.8291317" lon="9.482155"><ele>424.0</ele><time>2026-04-18T08:01:39.986Z</time></trkpt><trkpt lat="44.829205" lon="9.4821167"><ele>424.0</ele><time>2026-04-18T08:01:40.986Z</time></trkpt><trkpt lat="44.8292833" lon="9.4820817"><ele>424.0</ele><time>2026-04-18T08:01:41.987Z</time></trkpt><trkpt lat="44.829365" lon="9.482045"><ele>426.83333333333337</ele><time>2026-04-18T08:01:42.986Z</time></trkpt><trkpt lat="44.8294333" lon="9.4820083"><ele>429.6666666666667</ele><time>2026-04-18T08:01:43.987Z</time></trkpt><trkpt lat="44.829495" lon="9.4819667"><ele>432.5</ele><time>2026-04-18T08:01:44.986Z</time></trkpt><trkpt lat="44.8295567" lon="9.4819217"><ele>435.33333333333337</ele><time>2026-04-18T08:01:45.985Z</time></trkpt><trkpt lat="44.82962" lon="9.48186"><ele>438.1666666666667</ele><time>2026-04-18T08:01:46.986Z</time></trkpt><trkpt lat="44.829685" lon="9.4817567"><ele>441.0</ele><time>2026-04-18T08:01:47.987Z</time></trkpt><trkpt lat="44.8297467" lon="9.48164"><ele>441.0</ele><time>2026-04-18T08:01:48.987Z</time></trkpt><trkpt lat="44.8298033" lon="9.48152"><ele>441.0</ele><time>2026-04-18T08:01:49.986Z</time></trkpt><trkpt lat="44.8298483" lon="9.48142"><ele>441.0</ele><time>2026-04-18T08:01:50.987Z</time></trkpt><trkpt lat="44.8298783" lon="9.481335"><ele>441.0</ele><time>2026-04-18T08:01:51.984Z</time></trkpt><trkpt lat="44.8298983" lon="9.4811583"><ele>441.0</ele><time>2026-04-18T08:01:53.987Z</time></trkpt><trkpt lat="44.8298867" lon="9.4810617"><ele>440.1666666666667</ele><time>2026-04-18T08:01:54.986Z</time></trkpt><trkpt lat="44.82987" lon="9.480975"><ele>439.33333333333337</ele><time>2026-04-18T08:01:55.986Z</time></trkpt><trkpt lat="44.8298167" lon="9.4808517"><ele>438.5</ele><time>2026-04-18T08:01:57.987Z</time></trkpt><trkpt lat="44.8297333" lon="9.4807817"><ele>437.6666666666667</ele><time>2026-04-18T08:01:59.986Z</time></trkpt><trkpt lat="44.8296733" lon="9.480715"><ele>436.83333333333337</ele><time>2026-04-18T08:02:01.985Z</time></trkpt><trkpt lat="44.8296333" lon="9.48063"><ele>436.0</ele><time>2026-04-18T08:02:03.985Z</time></trkpt><trkpt lat="44.8296167" lon="9.4805267"><ele>435.83333333333337</ele><time>2026-04-18T08:02:05.985Z</time></trkpt><trkpt lat="44.8296267" lon="9.4804317"><ele>435.6666666666667</ele><time>2026-04-18T08:02:07.987Z</time></trkpt><trkpt lat="44.82965" lon="9.4803333"><ele>435.5</ele><time>2026-04-18T08:02:09.986Z</time></trkpt><trkpt lat="44.82967" lon="9.4802183"><ele>435.33333333333337</ele><time>2026-04-18T08:02:11.985Z</time></trkpt><trkpt lat="44.8296783" lon="9.4801017"><ele>435.1666666666667</ele><time>2026-04-18T08:02:13.985Z</time></trkpt><trkpt lat="44.8296967" lon="9.4799633"><ele>435.0</ele><time>2026-04-18T08:02:16.984Z</time></trkpt><trkpt lat="44.829715" lon="9.479865"><ele>435.0</ele><time>2026-04-18T08:02:18.983Z</time></trkpt><trkpt lat="44.8297267" lon="9.4797533"><ele>435.0</ele><time>2026-04-18T08:02:21.985Z</time></trkpt><trkpt lat="44.8297533" lon="9.4796583"><ele>435.0</ele><time>2026-04-18T08:02:23.987Z</time></trkpt><trkpt lat="44.82976" lon="9.4795167"><ele>435.0</ele><time>2026-04-18T08:02:25.985Z</time></trkpt><trkpt lat="44.829815" lon="9.4793917"><ele>435.0</ele><time>2026-04-18T08:02:27.984Z</time></trkpt><trkpt lat="44.82987" lon="9.479345"><ele>435.0</ele><time>2026-04-18T08:02:28.984Z</time></trkpt><trkpt lat="44.82993" lon="9.4793"><ele>435.2</ele><time>2026-04-18T08:02:29.986Z</time></trkpt><trkpt lat="44.8299883" lon="9.479255"><ele>435.4</ele><time>2026-04-18T08:02:30.986Z</time></trkpt><trkpt lat="44.8300767" lon="9.4791867"><ele>435.6</ele><time>2026-04-18T08:02:32.985Z</time></trkpt><trkpt lat="44.8301567" lon="9.4791833"><ele>435.8</ele><time>2026-04-18T08:02:34.985Z</time></trkpt><trkpt lat="44.83025" lon="9.4792017"><ele>436.0</ele><time>2026-04-18T08:02:36.987Z</time></trkpt><trkpt lat="44.8303733" lon="9.4791917"><ele>439.42857142857144</ele><time>2026-04-18T08:02:38.986Z</time></trkpt><trkpt lat="44.8304433" lon="9.479185"><ele>442.8571428571429</ele><time>2026-04-18T08:02:39.986Z</time></trkpt><trkpt lat="44.8305133" lon="9.4791683"><ele>446.2857142857142</ele><time>2026-04-18T08:02:40.985Z</time></trkpt><trkpt lat="44.8305867" lon="9.4791383"><ele>449.71428571428567</ele><time>2026-04-18T08:02:41.984Z</time></trkpt><trkpt lat="44.8306533" lon="9.4791183"><ele>453.1428571428571</ele><time>2026-04-18T08:02:42.984Z</time></trkpt><trkpt lat="44.830715" lon="9.4790983"><ele>456.5714285714285</ele><time>2026-04-18T08:02:43.985Z</time></trkpt><trkpt lat="44.83081" lon="9.4790783"><ele>459.99999999999994</ele><time>2026-04-18T08:02:45.986Z</time></trkpt><trkpt lat="44.8308583" lon="9.479005"><ele>460.00000000000006</ele><time>2026-04-18T08:02:47.985Z</time></trkpt><trkpt lat="44.830865" lon="9.4788633"><ele>460.0</ele><time>2026-04-18T08:02:59.987Z</time></trkpt><trkpt lat="44.83086" lon="9.4787533"><ele>460.0</ele><time>2026-04-18T08:03:02.986Z</time></trkpt><trkpt lat="44.830805" lon="9.4786617"><ele>460.0</ele><time>2026-04-18T08:03:06.987Z</time></trkpt><trkpt lat="44.8307333" lon="9.4785817"><ele>460.00000000000006</ele><time>2026-04-18T08:03:09.987Z</time></trkpt><trkpt lat="44.8307017" lon="9.4784817"><ele>460.0</ele><time>2026-04-18T08:03:12.987Z</time></trkpt><trkpt lat="44.8307017" lon="9.4783883"><ele>460.83333333333337</ele><time>2026-04-18T08:03:14.999Z</time></trkpt><trkpt lat="44.8306967" lon="9.4782967"><ele>461.6666666666667</ele><time>2026-04-18T08:03:16.985Z</time></trkpt><trkpt lat="44.8306817" lon="9.4781583"><ele>462.5</ele><time>2026-04-18T08:03:18.984Z</time></trkpt><trkpt lat="44.83067" lon="9.4780667"><ele>463.33333333333337</ele><time>2026-04-18T08:03:19.985Z</time></trkpt><trkpt lat="44.8306533" lon="9.4779567"><ele>464.1666666666667</ele><time>2026-04-18T08:03:20.985Z</time></trkpt><trkpt lat="44.83063" lon="9.4778433"><ele>465.0</ele><time>2026-04-18T08:03:21.984Z</time></trkpt><trkpt lat="44.8306083" lon="9.47773"><ele>466.2</ele><time>2026-04-18T08:03:22.987Z</time></trkpt><trkpt lat="44.8305867" lon="9.47762"><ele>467.4</ele><time>2026-04-18T08:03:23.986Z</time></trkpt><trkpt lat="44.83057" lon="9.4775133"><ele>468.6</ele><time>2026-04-18T08:03:24.985Z</time></trkpt><trkpt lat="44.830555" lon="9.4774217"><ele>469.8</ele><time>2026-04-18T08:03:25.985Z</time></trkpt><trkpt lat="44.8305317" lon="9.4772533"><ele>471.0</ele><time>2026-04-18T08:03:27.985Z</time></trkpt><trkpt lat="44.830515" lon="9.477085"><ele>472.0</ele><time>2026-04-18T08:03:29.985Z</time></trkpt><trkpt lat="44.8305317" lon="9.4769433"><ele>473.0</ele><time>2026-04-18T08:03:31.985Z</time></trkpt><trkpt lat="44.8305683" lon="9.4768"><ele>474.0</ele><time>2026-04-18T08:03:33.985Z</time></trkpt><trkpt lat="44.83064" lon="9.47672"><ele>475.0</ele><time>2026-04-18T08:03:35.984Z</time></trkpt><trkpt lat="44.8307567" lon="9.4767"><ele>476.0</ele><time>2026-04-18T08:03:37.987Z</time></trkpt><trkpt lat="44.83087" lon="9.4767333"><ele>475.99999999999994</ele><time>2026-04-18T08:03:39.987Z</time></trkpt><trkpt lat="44.8309617" lon="9.476735"><ele>476.0</ele><time>2026-04-18T08:03:41.985Z</time></trkpt><trkpt lat="44.8310367" lon="9.4766317"><ele>476.0</ele><time>2026-04-18T08:03:43.985Z</time></trkpt><trkpt lat="44.8310667" lon="9.47654"><ele>476.0</ele><time>2026-04-18T08:03:44.985Z</time></trkpt><trkpt lat="44.831085" lon="9.4764383"><ele>475.99999999999994</ele><time>2026-04-18T08:03:45.985Z</time></trkpt><trkpt lat="44.831095" lon="9.476335"><ele>476.0</ele><time>2026-04-18T08:03:46.985Z</time></trkpt><trkpt lat="44.8310917" lon="9.4762433"><ele>481.66666666666663</ele><time>2026-04-18T08:03:47.985Z</time></trkpt><trkpt lat="44.8310783" lon="9.476095"><ele>487.3333333333333</ele><time>2026-04-18T08:03:49.985Z</time></trkpt><trkpt lat="44.8310867" lon="9.4759467"><ele>493.0</ele><time>2026-04-18T08:03:51.985Z</time></trkpt><trkpt lat="44.8310983" lon="9.4758583"><ele>498.66666666666663</ele><time>2026-04-18T08:03:52.987Z</time></trkpt><trkpt lat="44.8311117" lon="9.4757633"><ele>504.3333333333333</ele><time>2026-04-18T08:03:53.987Z</time></trkpt><trkpt lat="44.8311267" lon="9.4756667"><ele>510.0</ele><time>2026-04-18T08:03:54.987Z</time></trkpt><trkpt lat="44.83114" lon="9.4755717"><ele>510.0</ele><time>2026-04-18T08:03:55.985Z</time></trkpt><trkpt lat="44.83115" lon="9.4754667"><ele>510.0</ele><time>2026-04-18T08:03:56.985Z</time></trkpt><trkpt lat="44.83116" lon="9.475365"><ele>510.0</ele><time>2026-04-18T08:03:57.984Z</time></trkpt><trkpt lat="44.8311733" lon="9.4752717"><ele>510.0</ele><time>2026-04-18T08:03:58.986Z</time></trkpt><trkpt lat="44.8312033" lon="9.4751183"><ele>510.0</ele><time>2026-04-18T08:04:00.985Z</time></trkpt><trkpt lat="44.83123" lon="9.4750117"><ele>510.0</ele><time>2026-04-18T08:04:02.985Z</time></trkpt><trkpt lat="44.831235" lon="9.474915"><ele>510.0</ele><time>2026-04-18T08:04:04.987Z</time></trkpt><trkpt lat="44.8312083" lon="9.4748267"><ele>510.0</ele><time>2026-04-18T08:04:06.985Z</time></trkpt><trkpt lat="44.8311833" lon="9.4747183"><ele>510.0</ele><time>2026-04-18T08:04:09.985Z</time></trkpt><trkpt lat="44.83126" lon="9.4746433"><ele>510.0</ele><time>2026-04-18T08:04:12.986Z</time></trkpt><trkpt lat="44.83138" lon="9.4746017"><ele>510.0</ele><time>2026-04-18T08:04:14.985Z</time></trkpt><trkpt lat="44.8314483" lon="9.4745517"><ele>510.0</ele><time>2026-04-18T08:04:15.985Z</time></trkpt><trkpt lat="44.8315167" lon="9.4744833"><ele>510.0</ele><time>2026-04-18T08:04:16.985Z</time></trkpt><trkpt lat="44.8315817" lon="9.4744033"><ele>510.0</ele><time>2026-04-18T08:04:17.986Z</time></trkpt><trkpt lat="44.8316517" lon="9.474315"><ele>510.0</ele><time>2026-04-18T08:04:18.987Z</time></trkpt><trkpt lat="44.831725" lon="9.4742067"><ele>510.0</ele><time>2026-04-18T08:04:19.987Z</time></trkpt><trkpt lat="44.8318017" lon="9.474085"><ele>510.0</ele><time>2026-04-18T08:04:20.986Z</time></trkpt><trkpt lat="44.831875" lon="9.47396"><ele>512.0</ele><time>2026-04-18T08:04:21.987Z</time></trkpt><trkpt lat="44.8319467" lon="9.4738317"><ele>514.0</ele><time>2026-04-18T08:04:22.985Z</time></trkpt><trkpt lat="44.83201" lon="9.4737083"><ele>516.0</ele><time>2026-04-18T08:04:23.988Z</time></trkpt><trkpt lat="44.8320683" lon="9.473585"><ele>518.0</ele><time>2026-04-18T08:04:24.987Z</time></trkpt><trkpt lat="44.8321267" lon="9.47347"><ele>520.0</ele><time>2026-04-18T08:04:25.986Z</time></trkpt><trkpt lat="44.8321833" lon="9.47338"><ele>520.0</ele><time>2026-04-18T08:04:26.987Z</time></trkpt><trkpt lat="44.8322467" lon="9.47332"><ele>520.0</ele><time>2026-04-18T08:04:27.987Z</time></trkpt><trkpt lat="44.8323233" lon="9.47328"><ele>520.0</ele><time>2026-04-18T08:04:28.987Z</time></trkpt><trkpt lat="44.8324067" lon="9.473245"><ele>520.0</ele><time>2026-04-18T08:04:29.988Z</time></trkpt><trkpt lat="44.832475" lon="9.4732183"><ele>520.0</ele><time>2026-04-18T08:04:30.988Z</time></trkpt><trkpt lat="44.8325817" lon="9.47317"><ele>520.0</ele><time>2026-04-18T08:04:32.988Z</time></trkpt><trkpt lat="44.8326817" lon="9.473095"><ele>521.1666666666667</ele><time>2026-04-18T08:04:34.985Z</time></trkpt><trkpt lat="44.83274" lon="9.47303"><ele>522.3333333333334</ele><time>2026-04-18T08:04:35.986Z</time></trkpt><trkpt lat="44.8328033" lon="9.4729483"><ele>523.5</ele><time>2026-04-18T08:04:36.986Z</time></trkpt><trkpt lat="44.8328633" lon="9.4728567"><ele>524.6666666666666</ele><time>2026-04-18T08:04:37.987Z</time></trkpt><trkpt lat="44.8329117" lon="9.4727617"><ele>525.8333333333333</ele><time>2026-04-18T08:04:38.989Z</time></trkpt><trkpt lat="44.8329517" lon="9.4726567"><ele>527.0</ele><time>2026-04-18T08:04:39.988Z</time></trkpt><trkpt lat="44.8329783" lon="9.47254"><ele>527.0</ele><time>2026-04-18T08:04:40.987Z</time></trkpt><trkpt lat="44.832995" lon="9.47242"><ele>527.0</ele><time>2026-04-18T08:04:41.986Z</time></trkpt><trkpt lat="44.832995" lon="9.4723017"><ele>527.0</ele><time>2026-04-18T08:04:42.988Z</time></trkpt><trkpt lat="44.8329767" lon="9.4721867"><ele>527.0</ele><time>2026-04-18T08:04:43.986Z</time></trkpt><trkpt lat="44.8329233" lon="9.4720883"><ele>527.0</ele><time>2026-04-18T08:04:44.988Z</time></trkpt><trkpt lat="44.83286" lon="9.4719833"><ele>527.0</ele><time>2026-04-18T08:04:45.986Z</time></trkpt><trkpt lat="44.8327967" lon="9.47188"><ele>527.8000000000001</ele><time>2026-04-18T08:04:46.986Z</time></trkpt><trkpt lat="44.8327317" lon="9.47177"><ele>528.6</ele><time>2026-04-18T08:04:47.986Z</time></trkpt><trkpt lat="44.83267" lon="9.4716483"><ele>529.4000000000001</ele><time>2026-04-18T08:04:48.986Z</time></trkpt><trkpt lat="44.8326133" lon="9.4715283"><ele>530.2</ele><time>2026-04-18T08:04:49.984Z</time></trkpt><trkpt lat="44.8325683" lon="9.47141"><ele>531.0</ele><time>2026-04-18T08:04:50.989Z</time></trkpt><trkpt lat="44.8325317" lon="9.4712983"><ele>529.1428571428571</ele><time>2026-04-18T08:04:51.985Z</time></trkpt><trkpt lat="44.8325017" lon="9.4711967"><ele>527.2857142857143</ele><time>2026-04-18T08:04:52.985Z</time></trkpt><trkpt lat="44.8324767" lon="9.4711017"><ele>525.4285714285714</ele><time>2026-04-18T08:04:53.985Z</time></trkpt><trkpt lat="44.8324483" lon="9.4710083"><ele>523.5714285714286</ele><time>2026-04-18T08:04:54.986Z</time></trkpt><trkpt lat="44.832425" lon="9.4709117"><ele>521.7142857142858</ele><time>2026-04-18T08:04:55.987Z</time></trkpt><trkpt lat="44.83241" lon="9.470815"><ele>519.8571428571429</ele><time>2026-04-18T08:04:56.987Z</time></trkpt><trkpt lat="44.8324067" lon="9.4707183"><ele>518.0</ele><time>2026-04-18T08:04:57.985Z</time></trkpt><trkpt lat="44.832405" lon="9.4706233"><ele>518.0</ele><time>2026-04-18T08:04:58.986Z</time></trkpt><trkpt lat="44.8324067" lon="9.4705317"><ele>518.0</ele><time>2026-04-18T08:04:59.988Z</time></trkpt><trkpt lat="44.8324183" lon="9.4704333"><ele>518.0</ele><time>2026-04-18T08:05:00.986Z</time></trkpt><trkpt lat="44.8324367" lon="9.4703333"><ele>518.0</ele><time>2026-04-18T08:05:01.984Z</time></trkpt><trkpt lat="44.8324617" lon="9.470235"><ele>518.0</ele><time>2026-04-18T08:05:02.988Z</time></trkpt><trkpt lat="44.832495" lon="9.4701333"><ele>518.0</ele><time>2026-04-18T08:05:03.985Z</time></trkpt><trkpt lat="44.8325317" lon="9.4700283"><ele>518.0</ele><time>2026-04-18T08:05:04.984Z</time></trkpt><trkpt lat="44.83257" lon="9.4699217"><ele>517.0</ele><time>2026-04-18T08:05:05.982Z</time></trkpt><trkpt lat="44.8326083" lon="9.4698067"><ele>516.0</ele><time>2026-04-18T08:05:06.983Z</time></trkpt><trkpt lat="44.8326467" lon="9.4696833"><ele>515.0</ele><time>2026-04-18T08:05:07.982Z</time></trkpt><trkpt lat="44.83268" lon="9.4695667"><ele>514.0</ele><time>2026-04-18T08:05:08.984Z</time></trkpt><trkpt lat="44.83271" lon="9.46945"><ele>513.0</ele><time>2026-04-18T08:05:09.982Z</time></trkpt><trkpt lat="44.8327217" lon="9.4693333"><ele>512.0</ele><time>2026-04-18T08:05:10.984Z</time></trkpt><trkpt lat="44.832715" lon="9.469215"><ele>510.40000000000003</ele><time>2026-04-18T08:05:11.986Z</time></trkpt><trkpt lat="44.832695" lon="9.4690933"><ele>508.80000000000007</ele><time>2026-04-18T08:05:12.986Z</time></trkpt><trkpt lat="44.832665" lon="9.46897"><ele>507.2</ele><time>2026-04-18T08:05:13.985Z</time></trkpt><trkpt lat="44.832635" lon="9.468845"><ele>505.6</ele><time>2026-04-18T08:05:14.984Z</time></trkpt><trkpt lat="44.832595" lon="9.4687267"><ele>504.0</ele><time>2026-04-18T08:05:15.987Z</time></trkpt><trkpt lat="44.8325483" lon="9.4686183"><ele>503.8333333333333</ele><time>2026-04-18T08:05:16.986Z</time></trkpt><trkpt lat="44.832495" lon="9.4685233"><ele>503.66666666666663</ele><time>2026-04-18T08:05:17.985Z</time></trkpt><trkpt lat="44.832435" lon="9.4684317"><ele>503.5</ele><time>2026-04-18T08:05:18.984Z</time></trkpt><trkpt lat="44.8323817" lon="9.4683567"><ele>503.3333333333333</ele><time>2026-04-18T08:05:19.985Z</time></trkpt><trkpt lat="44.832335" lon="9.468295"><ele>503.16666666666663</ele><time>2026-04-18T08:05:20.985Z</time></trkpt><trkpt lat="44.8322683" lon="9.4682017"><ele>503.0</ele><time>2026-04-18T08:05:22.983Z</time></trkpt><trkpt lat="44.83222" lon="9.46811"><ele>503.0</ele><time>2026-04-18T08:05:25.983Z</time></trkpt><trkpt lat="44.8322833" lon="9.4679783"><ele>502.99999999999994</ele><time>2026-04-18T08:05:28.984Z</time></trkpt><trkpt lat="44.8323967" lon="9.4678367"><ele>502.99999999999994</ele><time>2026-04-18T08:05:30.984Z</time></trkpt><trkpt lat="44.8324617" lon="9.4677633"><ele>503.0</ele><time>2026-04-18T08:05:31.984Z</time></trkpt><trkpt lat="44.8325217" lon="9.4677"><ele>503.0</ele><time>2026-04-18T08:05:32.984Z</time></trkpt><trkpt lat="44.832575" lon="9.4676433"><ele>505.0</ele><time>2026-04-18T08:05:33.983Z</time></trkpt><trkpt lat="44.8326267" lon="9.4675917"><ele>506.99999999999994</ele><time>2026-04-18T08:05:34.985Z</time></trkpt><trkpt lat="44.8327283" lon="9.467505"><ele>508.99999999999994</ele><time>2026-04-18T08:05:36.985Z</time></trkpt><trkpt lat="44.8327983" lon="9.46742"><ele>511.0</ele><time>2026-04-18T08:05:38.984Z</time></trkpt><trkpt lat="44.832825" lon="9.4672967"><ele>513.0</ele><time>2026-04-18T08:05:40.985Z</time></trkpt><trkpt lat="44.8328467" lon="9.4671333"><ele>509.4</ele><time>2026-04-18T08:05:42.985Z</time></trkpt><trkpt lat="44.8328817" lon="9.46698"><ele>505.79999999999995</ele><time>2026-04-18T08:05:44.985Z</time></trkpt><trkpt lat="44.8329217" lon="9.466845"><ele>502.2</ele><time>2026-04-18T08:05:46.985Z</time></trkpt><trkpt lat="44.8329633" lon="9.4667233"><ele>498.6</ele><time>2026-04-18T08:05:48.986Z</time></trkpt><trkpt lat="44.8329983" lon="9.4666"><ele>495.0</ele><time>2026-04-18T08:05:50.987Z</time></trkpt><trkpt lat="44.8330317" lon="9.4664833"><ele>495.0</ele><time>2026-04-18T08:05:52.987Z</time></trkpt><trkpt lat="44.83307" lon="9.4663467"><ele>495.0</ele><time>2026-04-18T08:05:54.985Z</time></trkpt><trkpt lat="44.83312" lon="9.466195"><ele>495.0</ele><time>2026-04-18T08:05:56.984Z</time></trkpt><trkpt lat="44.8331517" lon="9.4661117"><ele>495.0</ele><time>2026-04-18T08:05:57.983Z</time></trkpt><trkpt lat="44.8331883" lon="9.466035"><ele>495.0</ele><time>2026-04-18T08:05:58.984Z</time></trkpt><trkpt lat="44.83323" lon="9.4659667"><ele>495.0</ele><time>2026-04-18T08:05:59.983Z</time></trkpt><trkpt lat="44.8332767" lon="9.465905"><ele>494.3333333333333</ele><time>2026-04-18T08:06:00.985Z</time></trkpt><trkpt lat="44.8333283" lon="9.46585"><ele>493.66666666666663</ele><time>2026-04-18T08:06:01.985Z</time></trkpt><trkpt lat="44.833385" lon="9.465795"><ele>493.0</ele><time>2026-04-18T08:06:02.985Z</time></trkpt><trkpt lat="44.83344" lon="9.465735"><ele>492.3333333333333</ele><time>2026-04-18T08:06:03.984Z</time></trkpt><trkpt lat="44.8334867" lon="9.46566"><ele>491.66666666666663</ele><time>2026-04-18T08:06:04.984Z</time></trkpt><trkpt lat="44.8335267" lon="9.4655867"><ele>491.0</ele><time>2026-04-18T08:06:05.986Z</time></trkpt><trkpt lat="44.8335833" lon="9.4654333"><ele>487.3333333333333</ele><time>2026-04-18T08:06:07.985Z</time></trkpt><trkpt lat="44.8336283" lon="9.4652683"><ele>483.66666666666663</ele><time>2026-04-18T08:06:09.985Z</time></trkpt><trkpt lat="44.8336617" lon="9.4651883"><ele>480.0</ele><time>2026-04-18T08:06:10.985Z</time></trkpt><trkpt lat="44.8337" lon="9.46511"><ele>476.33333333333337</ele><time>2026-04-18T08:06:11.985Z</time></trkpt><trkpt lat="44.83373" lon="9.4650317"><ele>472.6666666666667</ele><time>2026-04-18T08:06:12.986Z</time></trkpt><trkpt lat="44.8337383" lon="9.4648767"><ele>469.0</ele><time>2026-04-18T08:06:14.986Z</time></trkpt><trkpt lat="44.8337367" lon="9.4647367"><ele>469.00000000000006</ele><time>2026-04-18T08:06:16.986Z</time></trkpt><trkpt lat="44.83377" lon="9.4646217"><ele>469.0</ele><time>2026-04-18T08:06:18.986Z</time></trkpt><trkpt lat="44.83383" lon="9.464555"><ele>469.0</ele><time>2026-04-18T08:06:20.985Z</time></trkpt><trkpt lat="44.8338967" lon="9.464485"><ele>469.0</ele><time>2026-04-18T08:06:22.986Z</time></trkpt><trkpt lat="44.83395" lon="9.4643917"><ele>469.00000000000006</ele><time>2026-04-18T08:06:24.983Z</time></trkpt><trkpt lat="44.8340033" lon="9.4642867"><ele>469.0</ele><time>2026-04-18T08:06:26.986Z</time></trkpt><trkpt lat="44.83406" lon="9.4642"><ele>465.33333333333337</ele><time>2026-04-18T08:06:28.985Z</time></trkpt><trkpt lat="44.8341133" lon="9.464115"><ele>461.6666666666667</ele><time>2026-04-18T08:06:30.984Z</time></trkpt><trkpt lat="44.834165" lon="9.4640367"><ele>458.0</ele><time>2026-04-18T08:06:32.984Z</time></trkpt><trkpt lat="44.8342017" lon="9.4639533"><ele>454.33333333333337</ele><time>2026-04-18T08:06:34.983Z</time></trkpt><trkpt lat="44.8342183" lon="9.46385"><ele>450.6666666666667</ele><time>2026-04-18T08:06:36.984Z</time></trkpt><trkpt lat="44.8342033" lon="9.4637333"><ele>447.0</ele><time>2026-04-18T08:06:38.984Z</time></trkpt><trkpt lat="44.8341667" lon="9.4636567"><ele>444.3333333333333</ele><time>2026-04-18T08:06:40.984Z</time></trkpt><trkpt lat="44.83412" lon="9.4635533"><ele>441.66666666666663</ele><time>2026-04-18T08:06:43.985Z</time></trkpt><trkpt lat="44.83408" lon="9.46346"><ele>439.0</ele><time>2026-04-18T08:06:45.985Z</time></trkpt><trkpt lat="44.834055" lon="9.4633733"><ele>436.3333333333333</ele><time>2026-04-18T08:06:47.987Z</time></trkpt><trkpt lat="44.834025" lon="9.4632567"><ele>433.66666666666663</ele><time>2026-04-18T08:06:50.984Z</time></trkpt><trkpt lat="44.8340167" lon="9.4631533"><ele>431.0</ele><time>2026-04-18T08:06:53.986Z</time></trkpt><trkpt lat="44.834055" lon="9.4630683"><ele>431.0</ele><time>2026-04-18T08:06:58.984Z</time></trkpt><trkpt lat="44.8341117" lon="9.4630283"><ele>431.0</ele><time>2026-04-18T08:07:02.984Z</time></trkpt><trkpt lat="44.8341467" lon="9.4629517"><ele>431.0</ele><time>2026-04-18T08:07:05.983Z</time></trkpt><trkpt lat="44.8341833" lon="9.4628467"><ele>431.0</ele><time>2026-04-18T08:07:09.985Z</time></trkpt><trkpt lat="44.8342117" lon="9.462735"><ele>431.0</ele><time>2026-04-18T08:07:12.984Z</time></trkpt><trkpt lat="44.8342317" lon="9.4626467"><ele>431.0</ele><time>2026-04-18T08:07:14.985Z</time></trkpt><trkpt lat="44.8342467" lon="9.4625583"><ele>431.0</ele><time>2026-04-18T08:07:16.986Z</time></trkpt><trkpt lat="44.83422" lon="9.462465"><ele>428.66666666666663</ele><time>2026-04-18T08:07:18.984Z</time></trkpt><trkpt lat="44.8341717" lon="9.46238"><ele>426.3333333333333</ele><time>2026-04-18T08:07:20.984Z</time></trkpt><trkpt lat="44.8341217" lon="9.4623"><ele>424.0</ele><time>2026-04-18T08:07:22.985Z</time></trkpt><trkpt lat="44.834065" lon="9.4622067"><ele>421.66666666666663</ele><time>2026-04-18T08:07:24.986Z</time></trkpt><trkpt lat="44.8339933" lon="9.4621067"><ele>419.3333333333333</ele><time>2026-04-18T08:07:26.985Z</time></trkpt><trkpt lat="44.833945" lon="9.4620467"><ele>417.0</ele><time>2026-04-18T08:07:27.984Z</time></trkpt><trkpt lat="44.8338983" lon="9.461975"><ele>413.8333333333333</ele><time>2026-04-18T08:07:28.985Z</time></trkpt><trkpt lat="44.8338617" lon="9.4619017"><ele>410.66666666666663</ele><time>2026-04-18T08:07:29.985Z</time></trkpt><trkpt lat="44.833825" lon="9.4617767"><ele>407.5</ele><time>2026-04-18T08:07:31.988Z</time></trkpt><trkpt lat="44.8338067" lon="9.4616733"><ele>404.3333333333333</ele><time>2026-04-18T08:07:33.984Z</time></trkpt><trkpt lat="44.83378" lon="9.4615717"><ele>401.16666666666663</ele><time>2026-04-18T08:07:36.986Z</time></trkpt><trkpt lat="44.8337717" lon="9.4614417"><ele>398.0</ele><time>2026-04-18T08:07:58.983Z</time></trkpt><trkpt lat="44.8337633" lon="9.4613217"><ele>394.8333333333333</ele><time>2026-04-18T08:08:01.983Z</time></trkpt><trkpt lat="44.8337517" lon="9.461205"><ele>391.66666666666663</ele><time>2026-04-18T08:08:04.983Z</time></trkpt><trkpt lat="44.8337667" lon="9.46109"><ele>388.5</ele><time>2026-04-18T08:08:07.982Z</time></trkpt><trkpt lat="44.83376" lon="9.461"><ele>385.3333333333333</ele><time>2026-04-18T08:08:09.984Z</time></trkpt><trkpt lat="44.83375" lon="9.4608917"><ele>382.16666666666663</ele><time>2026-04-18T08:08:11.984Z</time></trkpt><trkpt lat="44.8337517" lon="9.460785"><ele>379.0</ele><time>2026-04-18T08:08:13.983Z</time></trkpt><trkpt lat="44.8336983" lon="9.46069"><ele>379.0</ele><time>2026-04-18T08:08:16.984Z</time></trkpt><trkpt lat="44.833625" lon="9.4606967"><ele>379.0</ele><time>2026-04-18T08:08:18.985Z</time></trkpt><trkpt lat="44.833565" lon="9.4607517"><ele>379.0</ele><time>2026-04-18T08:08:20.986Z</time></trkpt><trkpt lat="44.8335467" lon="9.4608417"><ele>379.0</ele><time>2026-04-18T08:08:22.985Z</time></trkpt><trkpt lat="44.8334867" lon="9.4608933"><ele>379.0</ele><time>2026-04-18T08:08:25.984Z</time></trkpt><trkpt lat="44.8334417" lon="9.460805"><ele>379.0</ele><time>2026-04-18T08:08:28.986Z</time></trkpt><trkpt lat="44.8334033" lon="9.4606867"><ele>377.16666666666663</ele><time>2026-04-18T08:08:31.984Z</time></trkpt><trkpt lat="44.83337" lon="9.4605933"><ele>375.3333333333333</ele><time>2026-04-18T08:08:33.985Z</time></trkpt><trkpt lat="44.8333283" lon="9.4604883"><ele>373.5</ele><time>2026-04-18T08:08:35.986Z</time></trkpt><trkpt lat="44.8332783" lon="9.4603867"><ele>371.6666666666667</ele><time>2026-04-18T08:08:37.984Z</time></trkpt><trkpt lat="44.833215" lon="9.4602967"><ele>369.83333333333337</ele><time>2026-04-18T08:08:40.986Z</time></trkpt><trkpt lat="44.8331783" lon="9.4602167"><ele>368.0</ele><time>2026-04-18T08:08:42.984Z</time></trkpt><trkpt lat="44.8331183" lon="9.4601433"><ele>365.1666666666667</ele><time>2026-04-18T08:08:44.986Z</time></trkpt><trkpt lat="44.8330383" lon="9.46009"><ele>362.33333333333337</ele><time>2026-04-18T08:08:46.986Z</time></trkpt><trkpt lat="44.83297" lon="9.4600217"><ele>359.5</ele><time>2026-04-18T08:08:48.986Z</time></trkpt><trkpt lat="44.83288" lon="9.459935"><ele>356.6666666666667</ele><time>2026-04-18T08:09:27.983Z</time></trkpt><trkpt lat="44.83281" lon="9.4598817"><ele>353.8333333333333</ele><time>2026-04-18T08:09:30.983Z</time></trkpt><trkpt lat="44.8327933" lon="9.459795"><ele>351.0</ele><time>2026-04-18T08:09:44.984Z</time></trkpt><trkpt lat="44.8328517" lon="9.4597333"><ele>351.0</ele><time>2026-04-18T08:09:59.985Z</time></trkpt><trkpt lat="44.8328433" lon="9.4596333"><ele>351.0</ele><time>2026-04-18T08:10:04.984Z</time></trkpt><trkpt lat="44.8328017" lon="9.4595217"><ele>351.0</ele><time>2026-04-18T08:10:07.984Z</time></trkpt><trkpt lat="44.8328017" lon="9.4594233"><ele>351.0</ele><time>2026-04-18T08:10:09.983Z</time></trkpt><trkpt lat="44.832785" lon="9.4593167"><ele>351.0</ele><time>2026-04-18T08:10:11.984Z</time></trkpt><trkpt lat="44.832745" lon="9.459225"><ele>351.0</ele><time>2026-04-18T08:10:13.984Z</time></trkpt><trkpt lat="44.8327167" lon="9.45914"><ele>351.3333333333333</ele><time>2026-04-18T08:10:15.983Z</time></trkpt><trkpt lat="44.8327233" lon="9.45904"><ele>351.6666666666667</ele><time>2026-04-18T08:10:17.984Z</time></trkpt><trkpt lat="44.8327383" lon="9.458935"><ele>352.0</ele><time>2026-04-18T08:10:19.984Z</time></trkpt><trkpt lat="44.832715" lon="9.4588467"><ele>352.33333333333337</ele><time>2026-04-18T08:10:21.984Z</time></trkpt><trkpt lat="44.8327167" lon="9.45872"><ele>352.6666666666667</ele><time>2026-04-18T08:10:33.984Z</time></trkpt><trkpt lat="44.8327617" lon="9.4586183"><ele>353.0</ele><time>2026-04-18T08:10:35.983Z</time></trkpt><trkpt lat="44.83283" lon="9.45854"><ele>354.0</ele><time>2026-04-18T08:10:37.982Z</time></trkpt><trkpt lat="44.8329467" lon="9.4584917"><ele>355.0</ele><time>2026-04-18T08:10:39.984Z</time></trkpt><trkpt lat="44.8330167" lon="9.4584633"><ele>356.0</ele><time>2026-04-18T08:10:40.984Z</time></trkpt><trkpt lat="44.8330833" lon="9.4584417"><ele>357.0</ele><time>2026-04-18T08:10:41.983Z</time></trkpt><trkpt lat="44.8331483" lon="9.4584317"><ele>358.0</ele><time>2026-04-18T08:10:42.984Z</time></trkpt><trkpt lat="44.83327" lon="9.4584467"><ele>358.0</ele><time>2026-04-18T08:10:44.985Z</time></trkpt><trkpt lat="44.8333317" lon="9.458465"><ele>358.0</ele><time>2026-04-18T08:10:45.983Z</time></trkpt><trkpt lat="44.8334317" lon="9.4585017"><ele>358.0</ele><time>2026-04-18T08:10:47.984Z</time></trkpt><trkpt lat="44.8335083" lon="9.4584817"><ele>358.0</ele><time>2026-04-18T08:10:49.983Z</time></trkpt><trkpt lat="44.8335867" lon="9.4584383"><ele>358.0</ele><time>2026-04-18T08:10:52.983Z</time></trkpt><trkpt lat="44.8336567" lon="9.45843"><ele>358.0</ele><time>2026-04-18T08:10:54.984Z</time></trkpt><trkpt lat="44.8337467" lon="9.458385"><ele>359.66666666666663</ele><time>2026-04-18T08:10:56.983Z</time></trkpt><trkpt lat="44.8338017" lon="9.4583217"><ele>361.3333333333333</ele><time>2026-04-18T08:10:58.984Z</time></trkpt><trkpt lat="44.8338633" lon="9.45824"><ele>363.0</ele><time>2026-04-18T08:11:06.982Z</time></trkpt><trkpt lat="44.8339383" lon="9.4581567"><ele>364.6666666666667</ele><time>2026-04-18T08:11:09.983Z</time></trkpt><trkpt lat="44.8339917" lon="9.4580567"><ele>366.33333333333337</ele><time>2026-04-18T08:11:12.983Z</time></trkpt><trkpt lat="44.8340667" lon="9.45797"><ele>368.0</ele><time>2026-04-18T08:11:15.984Z</time></trkpt><trkpt lat="44.8341183" lon="9.4578933"><ele>368.0</ele><time>2026-04-18T08:11:17.984Z</time></trkpt><trkpt lat="44.8341717" lon="9.45783"><ele>368.0</ele><time>2026-04-18T08:11:19.986Z</time></trkpt><trkpt lat="44.83423" lon="9.45779"><ele>368.0</ele><time>2026-04-18T08:11:21.985Z</time></trkpt><trkpt lat="44.8343183" lon="9.457755"><ele>368.0</ele><time>2026-04-18T08:11:24.985Z</time></trkpt><trkpt lat="44.8343933" lon="9.457765"><ele>368.0</ele><time>2026-04-18T08:11:26.984Z</time></trkpt><trkpt lat="44.8345133" lon="9.4577483"><ele>368.0</ele><time>2026-04-18T08:11:28.984Z</time></trkpt><trkpt lat="44.8345833" lon="9.4577417"><ele>369.79999999999995</ele><time>2026-04-18T08:11:29.983Z</time></trkpt><trkpt lat="44.8346617" lon="9.4577333"><ele>371.6</ele><time>2026-04-18T08:11:30.984Z</time></trkpt><trkpt lat="44.8347433" lon="9.4577233"><ele>373.4</ele><time>2026-04-18T08:11:31.983Z</time></trkpt><trkpt lat="44.8348217" lon="9.4577133"><ele>375.20000000000005</ele><time>2026-04-18T08:11:32.984Z</time></trkpt><trkpt lat="44.83493" lon="9.4576917"><ele>377.0</ele><time>2026-04-18T08:11:34.983Z</time></trkpt><trkpt lat="44.8350517" lon="9.4576633"><ele>377.0</ele><time>2026-04-18T08:11:36.984Z</time></trkpt><trkpt lat="44.835115" lon="9.4576617"><ele>377.0</ele><time>2026-04-18T08:11:37.983Z</time></trkpt><trkpt lat="44.8351817" lon="9.4576617"><ele>377.0</ele><time>2026-04-18T08:11:38.984Z</time></trkpt><trkpt lat="44.8352567" lon="9.4576683"><ele>377.0</ele><time>2026-04-18T08:11:39.983Z</time></trkpt><trkpt lat="44.835325" lon="9.4576783"><ele>377.0</ele><time>2026-04-18T08:11:40.983Z</time></trkpt><trkpt lat="44.8354333" lon="9.45765"><ele>377.0</ele><time>2026-04-18T08:11:42.984Z</time></trkpt><trkpt lat="44.8355183" lon="9.4575633"><ele>381.25</ele><time>2026-04-18T08:11:44.984Z</time></trkpt><trkpt lat="44.83561" lon="9.45747"><ele>385.5</ele><time>2026-04-18T08:11:46.984Z</time></trkpt><trkpt lat="44.8357033" lon="9.4573783"><ele>389.75</ele><time>2026-04-18T08:11:48.984Z</time></trkpt><trkpt lat="44.835795" lon="9.4572833"><ele>394.0</ele><time>2026-04-18T08:11:50.985Z</time></trkpt><trkpt lat="44.8358733" lon="9.4571683"><ele>393.0</ele><time>2026-04-18T08:11:52.985Z</time></trkpt><trkpt lat="44.8359367" lon="9.4570567"><ele>392.0</ele><time>2026-04-18T08:11:54.985Z</time></trkpt><trkpt lat="44.8360033" lon="9.4569517"><ele>391.0</ele><time>2026-04-18T08:11:56.985Z</time></trkpt><trkpt lat="44.8360733" lon="9.4568483"><ele>390.0</ele><time>2026-04-18T08:11:58.985Z</time></trkpt><trkpt lat="44.8361667" lon="9.4567517"><ele>389.0</ele><time>2026-04-18T08:12:00.985Z</time></trkpt><trkpt lat="44.836215" lon="9.4566933"><ele>391.16666666666663</ele><time>2026-04-18T08:12:01.983Z</time></trkpt><trkpt lat="44.83626" lon="9.45663"><ele>393.3333333333333</ele><time>2026-04-18T08:12:02.985Z</time></trkpt><trkpt lat="44.836355" lon="9.4565417"><ele>395.5</ele><time>2026-04-18T08:12:04.985Z</time></trkpt><trkpt lat="44.8364683" lon="9.4565083"><ele>397.66666666666663</ele><time>2026-04-18T08:12:06.984Z</time></trkpt><trkpt lat="44.8365417" lon="9.4565067"><ele>399.8333333333333</ele><time>2026-04-18T08:12:07.985Z</time></trkpt><trkpt lat="44.8366133" lon="9.4565033"><ele>402.0</ele><time>2026-04-18T08:12:08.984Z</time></trkpt><trkpt lat="44.8366817" lon="9.4564933"><ele>402.0</ele><time>2026-04-18T08:12:09.983Z</time></trkpt><trkpt lat="44.8367567" lon="9.456475"><ele>402.0</ele><time>2026-04-18T08:12:10.985Z</time></trkpt><trkpt lat="44.836835" lon="9.4564567"><ele>402.0</ele><time>2026-04-18T08:12:11.983Z</time></trkpt><trkpt lat="44.83691" lon="9.456445"><ele>402.0</ele><time>2026-04-18T08:12:12.983Z</time></trkpt><trkpt lat="44.8369833" lon="9.4564283"><ele>402.0</ele><time>2026-04-18T08:12:13.983Z</time></trkpt><trkpt lat="44.83706" lon="9.4564083"><ele>402.0</ele><time>2026-04-18T08:12:14.984Z</time></trkpt><trkpt lat="44.8371367" lon="9.4563833"><ele>403.8333333333333</ele><time>2026-04-18T08:12:15.983Z</time></trkpt><trkpt lat="44.837215" lon="9.4563467"><ele>405.66666666666663</ele><time>2026-04-18T08:12:16.984Z</time></trkpt><trkpt lat="44.83729" lon="9.4563167"><ele>407.5</ele><time>2026-04-18T08:12:17.985Z</time></trkpt><trkpt lat="44.837365" lon="9.4562783"><ele>409.3333333333333</ele><time>2026-04-18T08:12:18.984Z</time></trkpt><trkpt lat="44.8374433" lon="9.45624"><ele>411.16666666666663</ele><time>2026-04-18T08:12:19.984Z</time></trkpt><trkpt lat="44.8375217" lon="9.4561933"><ele>413.0</ele><time>2026-04-18T08:12:20.985Z</time></trkpt><trkpt lat="44.8375883" lon="9.456145"><ele>416.3333333333333</ele><time>2026-04-18T08:12:21.985Z</time></trkpt><trkpt lat="44.8376483" lon="9.45609"><ele>419.66666666666663</ele><time>2026-04-18T08:12:22.984Z</time></trkpt><trkpt lat="44.8377067" lon="9.4560267"><ele>423.0</ele><time>2026-04-18T08:12:23.985Z</time></trkpt><trkpt lat="44.83777" lon="9.4559783"><ele>426.33333333333337</ele><time>2026-04-18T08:12:24.983Z</time></trkpt><trkpt lat="44.8378483" lon="9.45594"><ele>429.6666666666667</ele><time>2026-04-18T08:12:25.985Z</time></trkpt><trkpt lat="44.837925" lon="9.455925"><ele>433.0</ele><time>2026-04-18T08:12:26.984Z</time></trkpt><trkpt lat="44.8380033" lon="9.4559267"><ele>432.99999999999994</ele><time>2026-04-18T08:12:27.985Z</time></trkpt><trkpt lat="44.8380767" lon="9.4559433"><ele>433.0</ele><time>2026-04-18T08:12:28.984Z</time></trkpt><trkpt lat="44.83814" lon="9.455985"><ele>433.0</ele><time>2026-04-18T08:12:29.984Z</time></trkpt><trkpt lat="44.8381983" lon="9.4560467"><ele>433.0</ele><time>2026-04-18T08:12:30.985Z</time></trkpt><trkpt lat="44.83826" lon="9.4561117"><ele>433.0</ele><time>2026-04-18T08:12:31.983Z</time></trkpt><trkpt lat="44.8383267" lon="9.4561583"><ele>432.99999999999994</ele><time>2026-04-18T08:12:32.984Z</time></trkpt><trkpt lat="44.83839" lon="9.45619"><ele>433.0</ele><time>2026-04-18T08:12:33.986Z</time></trkpt><trkpt lat="44.8385033" lon="9.4561967"><ele>436.50000000000006</ele><time>2026-04-18T08:12:35.986Z</time></trkpt><trkpt lat="44.8385683" lon="9.4561817"><ele>440.0</ele><time>2026-04-18T08:12:36.983Z</time></trkpt><trkpt lat="44.8386317" lon="9.4561667"><ele>443.5</ele><time>2026-04-18T08:12:37.983Z</time></trkpt><trkpt lat="44.8387383" lon="9.4561783"><ele>447.0</ele><time>2026-04-18T08:12:39.984Z</time></trkpt><trkpt lat="44.8387983" lon="9.456255"><ele>450.50000000000006</ele><time>2026-04-18T08:12:41.984Z</time></trkpt><trkpt lat="44.838805" lon="9.4563617"><ele>454.0</ele><time>2026-04-18T08:12:43.983Z</time></trkpt><trkpt lat="44.83884" lon="9.456465"><ele>455.00000000000006</ele><time>2026-04-18T08:12:45.984Z</time></trkpt><trkpt lat="44.8389233" lon="9.4565667"><ele>456.0</ele><time>2026-04-18T08:12:47.984Z</time></trkpt><trkpt lat="44.83898" lon="9.45661"><ele>457.0</ele><time>2026-04-18T08:12:48.984Z</time></trkpt><trkpt lat="44.8390433" lon="9.4566317"><ele>458.0</ele><time>2026-04-18T08:12:49.984Z</time></trkpt><trkpt lat="44.8391083" lon="9.45663"><ele>459.00000000000006</ele><time>2026-04-18T08:12:50.985Z</time></trkpt><trkpt lat="44.839175" lon="9.4565917"><ele>460.0</ele><time>2026-04-18T08:12:51.983Z</time></trkpt><trkpt lat="44.8392417" lon="9.4565367"><ele>463.33333333333337</ele><time>2026-04-18T08:12:52.984Z</time></trkpt><trkpt lat="44.8393067" lon="9.4564867"><ele>466.6666666666667</ele><time>2026-04-18T08:12:53.986Z</time></trkpt><trkpt lat="44.83937" lon="9.45644"><ele>470.0</ele><time>2026-04-18T08:12:54.983Z</time></trkpt><trkpt lat="44.8394267" lon="9.4563917"><ele>473.33333333333337</ele><time>2026-04-18T08:12:55.986Z</time></trkpt><trkpt lat="44.839515" lon="9.45629"><ele>476.6666666666667</ele><time>2026-04-18T08:12:57.985Z</time></trkpt><trkpt lat="44.8395867" lon="9.4562117"><ele>480.0</ele><time>2026-04-18T08:12:59.984Z</time></trkpt><trkpt lat="44.8396217" lon="9.4561333"><ele>480.0</ele><time>2026-04-18T08:13:02.985Z</time></trkpt><trkpt lat="44.839615" lon="9.4560217"><ele>480.0</ele><time>2026-04-18T08:13:05.983Z</time></trkpt><trkpt lat="44.8396617" lon="9.4558983"><ele>480.0</ele><time>2026-04-18T08:13:07.984Z</time></trkpt><trkpt lat="44.839715" lon="9.4557917"><ele>480.0</ele><time>2026-04-18T08:13:09.984Z</time></trkpt><trkpt lat="44.8397767" lon="9.45567"><ele>480.0</ele><time>2026-04-18T08:13:11.983Z</time></trkpt><trkpt lat="44.8398167" lon="9.455525"><ele>479.0</ele><time>2026-04-18T08:13:13.983Z</time></trkpt><trkpt lat="44.83984" lon="9.45534"><ele>478.0</ele><time>2026-04-18T08:13:15.983Z</time></trkpt><trkpt lat="44.8398517" lon="9.4552417"><ele>477.0</ele><time>2026-04-18T08:13:16.984Z</time></trkpt><trkpt lat="44.83986" lon="9.455145"><ele>476.0</ele><time>2026-04-18T08:13:17.983Z</time></trkpt><trkpt lat="44.8398683" lon="9.4550483"><ele>475.0</ele><time>2026-04-18T08:13:18.983Z</time></trkpt><trkpt lat="44.8398733" lon="9.4549517"><ele>474.0</ele><time>2026-04-18T08:13:19.985Z</time></trkpt><trkpt lat="44.8398783" lon="9.4548433"><ele>473.99999999999994</ele><time>2026-04-18T08:13:20.984Z</time></trkpt><trkpt lat="44.8398883" lon="9.45473"><ele>474.0</ele><time>2026-04-18T08:13:21.984Z</time></trkpt><trkpt lat="44.8399033" lon="9.45462"><ele>473.99999999999994</ele><time>2026-04-18T08:13:22.983Z</time></trkpt><trkpt lat="44.83992" lon="9.4545117"><ele>473.99999999999994</ele><time>2026-04-18T08:13:23.983Z</time></trkpt><trkpt lat="44.8399367" lon="9.45441"><ele>474.0</ele><time>2026-04-18T08:13:24.984Z</time></trkpt><trkpt lat="44.8399533" lon="9.4543167"><ele>473.99999999999994</ele><time>2026-04-18T08:13:25.983Z</time></trkpt><trkpt lat="44.839975" lon="9.45423"><ele>473.99999999999994</ele><time>2026-04-18T08:13:26.983Z</time></trkpt><trkpt lat="44.8400067" lon="9.45414"><ele>473.8333333333333</ele><time>2026-04-18T08:13:27.984Z</time></trkpt><trkpt lat="44.8400483" lon="9.4540467"><ele>473.66666666666663</ele><time>2026-04-18T08:13:28.983Z</time></trkpt><trkpt lat="44.8400933" lon="9.4539533"><ele>473.5</ele><time>2026-04-18T08:13:29.984Z</time></trkpt><trkpt lat="44.8401367" lon="9.4538583"><ele>473.3333333333333</ele><time>2026-04-18T08:13:30.983Z</time></trkpt><trkpt lat="44.8401783" lon="9.4537633"><ele>473.16666666666663</ele><time>2026-04-18T08:13:31.984Z</time></trkpt><trkpt lat="44.8402267" lon="9.4536767"><ele>473.0</ele><time>2026-04-18T08:13:32.984Z</time></trkpt><trkpt lat="44.8402783" lon="9.4536017"><ele>473.0</ele><time>2026-04-18T08:13:33.983Z</time></trkpt><trkpt lat="44.8403367" lon="9.453545"><ele>473.0</ele><time>2026-04-18T08:13:34.983Z</time></trkpt><trkpt lat="44.8403983" lon="9.4535083"><ele>473.0</ele><time>2026-04-18T08:13:35.984Z</time></trkpt><trkpt lat="44.84046" lon="9.4534817"><ele>473.0</ele><time>2026-04-18T08:13:36.983Z</time></trkpt><trkpt lat="44.8405333" lon="9.4534583"><ele>473.0</ele><time>2026-04-18T08:13:37.983Z</time></trkpt><trkpt lat="44.840615" lon="9.4534333"><ele>473.0</ele><time>2026-04-18T08:13:38.984Z</time></trkpt><trkpt lat="44.8406917" lon="9.4533917"><ele>473.0</ele><time>2026-04-18T08:13:39.983Z</time></trkpt><trkpt lat="44.84076" lon="9.453335"><ele>472.99999999999994</ele><time>2026-04-18T08:13:40.983Z</time></trkpt><trkpt lat="44.840835" lon="9.4532817"><ele>473.0</ele><time>2026-04-18T08:13:41.984Z</time></trkpt><trkpt lat="44.8409133" lon="9.4532233"><ele>473.0</ele><time>2026-04-18T08:13:42.983Z</time></trkpt><trkpt lat="44.8409883" lon="9.4531733"><ele>473.0</ele><time>2026-04-18T08:13:43.985Z</time></trkpt><trkpt lat="44.8410533" lon="9.4531467"><ele>472.99999999999994</ele><time>2026-04-18T08:13:44.985Z</time></trkpt><trkpt lat="44.8411183" lon="9.4531133"><ele>473.0</ele><time>2026-04-18T08:13:45.984Z</time></trkpt><trkpt lat="44.84118" lon="9.4530733"><ele>476.49999999999994</ele><time>2026-04-18T08:13:46.983Z</time></trkpt><trkpt lat="44.841235" lon="9.4530167"><ele>480.0</ele><time>2026-04-18T08:13:47.983Z</time></trkpt><trkpt lat="44.84128" lon="9.4529267"><ele>483.5</ele><time>2026-04-18T08:13:48.985Z</time></trkpt><trkpt lat="44.8413167" lon="9.4528283"><ele>487.0</ele><time>2026-04-18T08:13:49.983Z</time></trkpt><trkpt lat="44.841345" lon="9.4527117"><ele>490.49999999999994</ele><time>2026-04-18T08:13:50.985Z</time></trkpt><trkpt lat="44.8413667" lon="9.4525867"><ele>494.0</ele><time>2026-04-18T08:13:51.985Z</time></trkpt><trkpt lat="44.8413583" lon="9.4524467"><ele>494.0</ele><time>2026-04-18T08:13:52.985Z</time></trkpt><trkpt lat="44.8413417" lon="9.4523033"><ele>494.0</ele><time>2026-04-18T08:13:53.985Z</time></trkpt><trkpt lat="44.8413333" lon="9.4521683"><ele>494.0</ele><time>2026-04-18T08:13:54.987Z</time></trkpt><trkpt lat="44.841325" lon="9.45204"><ele>494.0</ele><time>2026-04-18T08:13:55.984Z</time></trkpt><trkpt lat="44.841325" lon="9.4519267"><ele>494.0</ele><time>2026-04-18T08:13:56.984Z</time></trkpt><trkpt lat="44.84133" lon="9.4518067"><ele>493.99999999999994</ele><time>2026-04-18T08:13:57.985Z</time></trkpt><trkpt lat="44.8413433" lon="9.451685"><ele>494.0</ele><time>2026-04-18T08:13:58.983Z</time></trkpt><trkpt lat="44.8413617" lon="9.4515567"><ele>494.0</ele><time>2026-04-18T08:13:59.983Z</time></trkpt><trkpt lat="44.8413733" lon="9.4514367"><ele>494.0</ele><time>2026-04-18T08:14:00.984Z</time></trkpt><trkpt lat="44.8413833" lon="9.451325"><ele>493.99999999999994</ele><time>2026-04-18T08:14:01.984Z</time></trkpt><trkpt lat="44.8413833" lon="9.4512317"><ele>494.0</ele><time>2026-04-18T08:14:02.986Z</time></trkpt><trkpt lat="44.8413633" lon="9.45109"><ele>494.0</ele><time>2026-04-18T08:14:04.984Z</time></trkpt><trkpt lat="44.8413083" lon="9.4510167"><ele>494.0</ele><time>2026-04-18T08:14:06.984Z</time></trkpt><trkpt lat="44.8412517" lon="9.450935"><ele>494.0</ele><time>2026-04-18T08:14:08.983Z</time></trkpt><trkpt lat="44.8412383" lon="9.45078"><ele>494.0</ele><time>2026-04-18T08:14:10.985Z</time></trkpt><trkpt lat="44.8412567" lon="9.4506433"><ele>494.0</ele><time>2026-04-18T08:14:12.984Z</time></trkpt><trkpt lat="44.841315" lon="9.4505517"><ele>493.99999999999994</ele><time>2026-04-18T08:14:14.984Z</time></trkpt><trkpt lat="44.8413667" lon="9.45049"><ele>494.0</ele><time>2026-04-18T08:14:15.983Z</time></trkpt><trkpt lat="44.8414267" lon="9.4504317"><ele>494.0</ele><time>2026-04-18T08:14:16.984Z</time></trkpt><trkpt lat="44.841515" lon="9.4503283"><ele>494.0</ele><time>2026-04-18T08:14:18.984Z</time></trkpt><trkpt lat="44.8415483" lon="9.450175"><ele>493.99999999999994</ele><time>2026-04-18T08:14:20.986Z</time></trkpt><trkpt lat="44.8415517" lon="9.4500717"><ele>494.0</ele><time>2026-04-18T08:14:21.984Z</time></trkpt><trkpt lat="44.8415617" lon="9.4499733"><ele>494.28571428571433</ele><time>2026-04-18T08:14:22.984Z</time></trkpt><trkpt lat="44.8415883" lon="9.4498867"><ele>494.57142857142856</ele><time>2026-04-18T08:14:23.985Z</time></trkpt><trkpt lat="44.8416367" lon="9.4498233"><ele>494.8571428571429</ele><time>2026-04-18T08:14:24.984Z</time></trkpt><trkpt lat="44.8417017" lon="9.449775"><ele>495.14285714285717</ele><time>2026-04-18T08:14:25.985Z</time></trkpt><trkpt lat="44.841755" lon="9.4497117"><ele>495.42857142857144</ele><time>2026-04-18T08:14:26.984Z</time></trkpt><trkpt lat="44.8417933" lon="9.4496167"><ele>495.7142857142857</ele><time>2026-04-18T08:14:27.984Z</time></trkpt><trkpt lat="44.84184" lon="9.449525"><ele>496.0</ele><time>2026-04-18T08:14:28.983Z</time></trkpt><trkpt lat="44.8418817" lon="9.4494317"><ele>497.33333333333337</ele><time>2026-04-18T08:14:29.984Z</time></trkpt><trkpt lat="44.841915" lon="9.4493483"><ele>498.6666666666667</ele><time>2026-04-18T08:14:30.987Z</time></trkpt><trkpt lat="44.8419817" lon="9.4492067"><ele>500.0</ele><time>2026-04-18T08:14:32.985Z</time></trkpt><trkpt lat="44.842035" lon="9.44911"><ele>501.33333333333337</ele><time>2026-04-18T08:14:34.984Z</time></trkpt><trkpt lat="44.8420683" lon="9.4489933"><ele>502.6666666666667</ele><time>2026-04-18T08:15:06.983Z</time></trkpt><trkpt lat="44.8420667" lon="9.448895"><ele>504.0</ele><time>2026-04-18T08:15:08.983Z</time></trkpt><trkpt lat="44.8420633" lon="9.4487967"><ele>506.0</ele><time>2026-04-18T08:15:10.987Z</time></trkpt><trkpt lat="44.8420617" lon="9.4486817"><ele>508.0</ele><time>2026-04-18T08:15:12.985Z</time></trkpt><trkpt lat="44.842045" lon="9.4485633"><ele>510.0</ele><time>2026-04-18T08:15:16.984Z</time></trkpt><trkpt lat="44.8420567" lon="9.44845"><ele>512.0</ele><time>2026-04-18T08:15:18.983Z</time></trkpt><trkpt lat="44.84207" lon="9.4482833"><ele>514.0</ele><time>2026-04-18T08:15:20.985Z</time></trkpt><trkpt lat="44.842075" lon="9.44819"><ele>516.0</ele><time>2026-04-18T08:15:21.985Z</time></trkpt><trkpt lat="44.8420817" lon="9.4480917"><ele>515.9999999999999</ele><time>2026-04-18T08:15:22.985Z</time></trkpt><trkpt lat="44.8420817" lon="9.4479917"><ele>516.0</ele><time>2026-04-18T08:15:23.986Z</time></trkpt><trkpt lat="44.84208" lon="9.4478883"><ele>516.0</ele><time>2026-04-18T08:15:24.985Z</time></trkpt><trkpt lat="44.84208" lon="9.44779"><ele>516.0</ele><time>2026-04-18T08:15:25.987Z</time></trkpt><trkpt lat="44.8420767" lon="9.4476967"><ele>516.0</ele><time>2026-04-18T08:15:26.987Z</time></trkpt><trkpt lat="44.8420767" lon="9.447595"><ele>515.9999999999999</ele><time>2026-04-18T08:15:27.985Z</time></trkpt><trkpt lat="44.8420833" lon="9.4474867"><ele>516.0</ele><time>2026-04-18T08:15:28.986Z</time></trkpt><trkpt lat="44.8420933" lon="9.4473867"><ele>518.8</ele><time>2026-04-18T08:15:29.987Z</time></trkpt><trkpt lat="44.842125" lon="9.4472517"><ele>521.6</ele><time>2026-04-18T08:15:31.984Z</time></trkpt><trkpt lat="44.8421235" lon="9.4470288"><ele>524.4</ele><time>2026-04-18T08:15:55.983Z</time></trkpt><trkpt lat="44.8420839" lon="9.4469439"><ele>527.2</ele><time>2026-04-18T08:15:56.984Z</time></trkpt><trkpt lat="44.8420522" lon="9.4468545"><ele>530.0</ele><time>2026-04-18T08:15:57.983Z</time></trkpt><trkpt lat="44.8420344" lon="9.4467581"><ele>531.8333333333333</ele><time>2026-04-18T08:15:58.984Z</time></trkpt><trkpt lat="44.8420264" lon="9.4466638"><ele>533.6666666666666</ele><time>2026-04-18T08:15:59.982Z</time></trkpt><trkpt lat="44.8420371" lon="9.4465675"><ele>535.5</ele><time>2026-04-18T08:16:00.983Z</time></trkpt><trkpt lat="44.8420632" lon="9.4464591"><ele>537.3333333333334</ele><time>2026-04-18T08:16:01.983Z</time></trkpt><trkpt lat="44.842095" lon="9.446341"><ele>539.1666666666667</ele><time>2026-04-18T08:16:02.982Z</time></trkpt><trkpt lat="44.8421286" lon="9.4462262"><ele>541.0</ele><time>2026-04-18T08:16:03.983Z</time></trkpt><trkpt lat="44.8421546" lon="9.4461325"><ele>542.4285714285714</ele><time>2026-04-18T08:16:04.982Z</time></trkpt><trkpt lat="44.8421782" lon="9.4460153"><ele>543.8571428571429</ele><time>2026-04-18T08:16:06.984Z</time></trkpt><trkpt lat="44.842188" lon="9.4459091"><ele>545.2857142857142</ele><time>2026-04-18T08:17:35.982Z</time></trkpt><trkpt lat="44.8421878" lon="9.4458173"><ele>546.7142857142858</ele><time>2026-04-18T08:17:55.983Z</time></trkpt><trkpt lat="44.8421889" lon="9.4457196"><ele>548.1428571428571</ele><time>2026-04-18T08:17:57.982Z</time></trkpt><trkpt lat="44.842216" lon="9.4456107"><ele>549.5714285714286</ele><time>2026-04-18T08:18:00.984Z</time></trkpt><trkpt lat="44.8422224" lon="9.4455197"><ele>551.0</ele><time>2026-04-18T08:18:07.983Z</time></trkpt><trkpt lat="44.8421975" lon="9.4454327"><ele>552.5</ele><time>2026-04-18T08:18:10.982Z</time></trkpt><trkpt lat="44.8421462" lon="9.4453112"><ele>554.0</ele><time>2026-04-18T08:18:13.982Z</time></trkpt><trkpt lat="44.8420932" lon="9.4452201"><ele>555.5</ele><time>2026-04-18T08:18:15.984Z</time></trkpt><trkpt lat="44.842071" lon="9.445095"><ele>557.0</ele><time>2026-04-18T08:18:18.982Z</time></trkpt><trkpt lat="44.8421064" lon="9.4450149"><ele>558.5</ele><time>2026-04-18T08:18:20.984Z</time></trkpt><trkpt lat="44.8421503" lon="9.4449418"><ele>560.0</ele><time>2026-04-18T08:18:22.983Z</time></trkpt><trkpt lat="44.842164" lon="9.4448544"><ele>560.0</ele><time>2026-04-18T08:18:24.984Z</time></trkpt><trkpt lat="44.8421973" lon="9.4447432"><ele>560.0</ele><time>2026-04-18T08:18:27.984Z</time></trkpt><trkpt lat="44.8422491" lon="9.444634"><ele>560.0</ele><time>2026-04-18T08:19:00.986Z</time></trkpt><trkpt lat="44.8423202" lon="9.4445891"><ele>560.0</ele><time>2026-04-18T08:19:13.982Z</time></trkpt><trkpt lat="44.8423635" lon="9.4445245"><ele>560.0</ele><time>2026-04-18T08:19:16.984Z</time></trkpt><trkpt lat="44.8424029" lon="9.4444471"><ele>560.0</ele><time>2026-04-18T08:19:19.985Z</time></trkpt><trkpt lat="44.8424241" lon="9.4443436"><ele>561.3333333333333</ele><time>2026-04-18T08:19:22.984Z</time></trkpt><trkpt lat="44.8424571" lon="9.4442368"><ele>562.6666666666666</ele><time>2026-04-18T08:19:25.985Z</time></trkpt><trkpt lat="44.8424895" lon="9.4441602"><ele>564.0</ele><time>2026-04-18T08:19:27.984Z</time></trkpt><trkpt lat="44.8425402" lon="9.4440751"><ele>565.3333333333334</ele><time>2026-04-18T08:19:29.983Z</time></trkpt><trkpt lat="44.8425941" lon="9.4439758"><ele>566.6666666666667</ele><time>2026-04-18T08:19:31.984Z</time></trkpt><trkpt lat="44.8426266" lon="9.4438496"><ele>568.0</ele><time>2026-04-18T08:19:34.984Z</time></trkpt><trkpt lat="44.8426674" lon="9.4437763"><ele>572.1999999999999</ele><time>2026-04-18T08:19:36.984Z</time></trkpt><trkpt lat="44.8426989" lon="9.4436672"><ele>576.4</ele><time>2026-04-18T08:19:38.984Z</time></trkpt><trkpt lat="44.8427263" lon="9.443555"><ele>580.5999999999999</ele><time>2026-04-18T08:19:41.008Z</time></trkpt><trkpt lat="44.842781" lon="9.4434161"><ele>584.8</ele><time>2026-04-18T08:19:42.985Z</time></trkpt><trkpt lat="44.8428036" lon="9.4433251"><ele>589.0</ele><time>2026-04-18T08:19:43.983Z</time></trkpt><trkpt lat="44.8428073" lon="9.4431596"><ele>589.0</ele><time>2026-04-18T08:19:45.984Z</time></trkpt><trkpt lat="44.8427737" lon="9.4430332"><ele>589.0</ele><time>2026-04-18T08:19:47.984Z</time></trkpt><trkpt lat="44.8427783" lon="9.4429289"><ele>589.0</ele><time>2026-04-18T08:19:50.984Z</time></trkpt><trkpt lat="44.8428128" lon="9.4428359"><ele>589.0</ele><time>2026-04-18T08:20:04.983Z</time></trkpt><trkpt lat="44.8428625" lon="9.442774"><ele>589.0</ele><time>2026-04-18T08:20:05.984Z</time></trkpt><trkpt lat="44.8429263" lon="9.442704"><ele>589.0</ele><time>2026-04-18T08:20:06.984Z</time></trkpt><trkpt lat="44.8429895" lon="9.442616"><ele>589.6</ele><time>2026-04-18T08:20:07.982Z</time></trkpt><trkpt lat="44.8430498" lon="9.4425077"><ele>590.2</ele><time>2026-04-18T08:20:08.983Z</time></trkpt><trkpt lat="44.8430998" lon="9.442395"><ele>590.8000000000001</ele><time>2026-04-18T08:20:09.983Z</time></trkpt><trkpt lat="44.8431399" lon="9.4423007"><ele>591.4</ele><time>2026-04-18T08:20:10.984Z</time></trkpt><trkpt lat="44.8431793" lon="9.4422312"><ele>592.0</ele><time>2026-04-18T08:20:11.985Z</time></trkpt><trkpt lat="44.843299" lon="9.442166"><ele>592.0</ele><time>2026-04-18T08:20:13.984Z</time></trkpt><trkpt lat="44.8433718" lon="9.4421513"><ele>592.0</ele><time>2026-04-18T08:20:14.985Z</time></trkpt><trkpt lat="44.8434688" lon="9.4421112"><ele>592.0</ele><time>2026-04-18T08:20:16.985Z</time></trkpt><trkpt lat="44.8435011" lon="9.4420342"><ele>592.0</ele><time>2026-04-18T08:20:18.984Z</time></trkpt><trkpt lat="44.84338" lon="9.4419533"><ele>592.0</ele><time>2026-04-18T08:20:20.983Z</time></trkpt><trkpt lat="44.8433033" lon="9.44192"><ele>593.8333333333334</ele><time>2026-04-18T08:20:21.984Z</time></trkpt><trkpt lat="44.8432217" lon="9.4419067"><ele>595.6666666666667</ele><time>2026-04-18T08:20:22.984Z</time></trkpt><trkpt lat="44.8431383" lon="9.4419033"><ele>597.5</ele><time>2026-04-18T08:20:23.984Z</time></trkpt><trkpt lat="44.8430467" lon="9.441915"><ele>599.3333333333334</ele><time>2026-04-18T08:20:24.984Z</time></trkpt><trkpt lat="44.84296" lon="9.4419433"><ele>601.1666666666666</ele><time>2026-04-18T08:20:25.985Z</time></trkpt><trkpt lat="44.8428783" lon="9.442"><ele>603.0</ele><time>2026-04-18T08:20:26.983Z</time></trkpt><trkpt lat="44.84281" lon="9.4420867"><ele>600.8</ele><time>2026-04-18T08:20:27.984Z</time></trkpt><trkpt lat="44.842745" lon="9.4421883"><ele>598.5999999999999</ele><time>2026-04-18T08:20:28.984Z</time></trkpt><trkpt lat="44.842675" lon="9.44229"><ele>596.4000000000001</ele><time>2026-04-18T08:20:29.983Z</time></trkpt><trkpt lat="44.8426083" lon="9.44238"><ele>594.2</ele><time>2026-04-18T08:20:30.982Z</time></trkpt><trkpt lat="44.8425383" lon="9.4424767"><ele>592.0</ele><time>2026-04-18T08:20:31.984Z</time></trkpt><trkpt lat="44.842465" lon="9.44257"><ele>591.4</ele><time>2026-04-18T08:20:32.985Z</time></trkpt><trkpt lat="44.8423917" lon="9.4426633"><ele>590.8000000000001</ele><time>2026-04-18T08:20:33.983Z</time></trkpt><trkpt lat="44.8423183" lon="9.4427467"><ele>590.2</ele><time>2026-04-18T08:20:34.984Z</time></trkpt><trkpt lat="44.8422417" lon="9.4428233"><ele>589.6</ele><time>2026-04-18T08:20:35.983Z</time></trkpt><trkpt lat="44.8421617" lon="9.4428933"><ele>589.0</ele><time>2026-04-18T08:20:36.983Z</time></trkpt><trkpt lat="44.842075" lon="9.44296"><ele>588.1666666666667</ele><time>2026-04-18T08:20:37.984Z</time></trkpt><trkpt lat="44.8419833" lon="9.4430117"><ele>587.3333333333334</ele><time>2026-04-18T08:20:38.983Z</time></trkpt><trkpt lat="44.8418917" lon="9.4430467"><ele>586.5</ele><time>2026-04-18T08:20:39.984Z</time></trkpt><trkpt lat="44.8418067" lon="9.443065"><ele>585.6666666666666</ele><time>2026-04-18T08:20:40.984Z</time></trkpt><trkpt lat="44.8417317" lon="9.4430783"><ele>584.8333333333333</ele><time>2026-04-18T08:20:41.983Z</time></trkpt><trkpt lat="44.8416683" lon="9.4431017"><ele>584.0</ele><time>2026-04-18T08:20:42.983Z</time></trkpt><trkpt lat="44.8415717" lon="9.4432167"><ele>584.0</ele><time>2026-04-18T08:20:44.983Z</time></trkpt><trkpt lat="44.841535" lon="9.44331"><ele>584.0</ele><time>2026-04-18T08:20:45.983Z</time></trkpt><trkpt lat="44.84149" lon="9.4434133"><ele>584.0</ele><time>2026-04-18T08:20:46.983Z</time></trkpt><trkpt lat="44.8414367" lon="9.4435183"><ele>584.0</ele><time>2026-04-18T08:20:47.984Z</time></trkpt><trkpt lat="44.841385" lon="9.4436217"><ele>584.0</ele><time>2026-04-18T08:20:48.983Z</time></trkpt><trkpt lat="44.8413317" lon="9.4437183"><ele>584.0</ele><time>2026-04-18T08:20:49.984Z</time></trkpt><trkpt lat="44.841285" lon="9.44381"><ele>582.8333333333333</ele><time>2026-04-18T08:20:50.984Z</time></trkpt><trkpt lat="44.8412283" lon="9.4438883"><ele>581.6666666666666</ele><time>2026-04-18T08:20:51.983Z</time></trkpt><trkpt lat="44.8411633" lon="9.44395"><ele>580.5</ele><time>2026-04-18T08:20:52.984Z</time></trkpt><trkpt lat="44.8410867" lon="9.444005"><ele>579.3333333333334</ele><time>2026-04-18T08:20:53.983Z</time></trkpt><trkpt lat="44.8410017" lon="9.4440517"><ele>578.1666666666667</ele><time>2026-04-18T08:20:54.984Z</time></trkpt><trkpt lat="44.8409083" lon="9.44409"><ele>577.0</ele><time>2026-04-18T08:20:55.984Z</time></trkpt><trkpt lat="44.8408217" lon="9.4441167"><ele>577.0</ele><time>2026-04-18T08:20:56.983Z</time></trkpt><trkpt lat="44.8407417" lon="9.444125"><ele>577.0</ele><time>2026-04-18T08:20:57.983Z</time></trkpt><trkpt lat="44.840665" lon="9.4441333"><ele>577.0</ele><time>2026-04-18T08:20:58.983Z</time></trkpt><trkpt lat="44.8405867" lon="9.4441433"><ele>577.0</ele><time>2026-04-18T08:20:59.983Z</time></trkpt><trkpt lat="44.8405" lon="9.4441633"><ele>577.0</ele><time>2026-04-18T08:21:00.984Z</time></trkpt><trkpt lat="44.8404167" lon="9.444185"><ele>577.0</ele><time>2026-04-18T08:21:01.985Z</time></trkpt><trkpt lat="44.8403283" lon="9.4442"><ele>577.0</ele><time>2026-04-18T08:21:02.984Z</time></trkpt><trkpt lat="44.8402367" lon="9.4441917"><ele>577.0</ele><time>2026-04-18T08:21:03.983Z</time></trkpt><trkpt lat="44.8401433" lon="9.4441517"><ele>577.0</ele><time>2026-04-18T08:21:04.983Z</time></trkpt><trkpt lat="44.840055" lon="9.4440983"><ele>577.0</ele><time>2026-04-18T08:21:05.984Z</time></trkpt><trkpt lat="44.8399633" lon="9.444055"><ele>577.0</ele><time>2026-04-18T08:21:06.984Z</time></trkpt><trkpt lat="44.8398667" lon="9.4440383"><ele>575.2</ele><time>2026-04-18T08:21:07.985Z</time></trkpt><trkpt lat="44.8397783" lon="9.444035"><ele>573.4000000000001</ele><time>2026-04-18T08:21:08.985Z</time></trkpt><trkpt lat="44.83969" lon="9.444035"><ele>571.5999999999999</ele><time>2026-04-18T08:21:09.983Z</time></trkpt><trkpt lat="44.8396" lon="9.44403"><ele>569.8</ele><time>2026-04-18T08:21:10.984Z</time></trkpt><trkpt lat="44.8395117" lon="9.4440033"><ele>568.0</ele><time>2026-04-18T08:21:11.983Z</time></trkpt><trkpt lat="44.8394233" lon="9.44396"><ele>568.0</ele><time>2026-04-18T08:21:12.983Z</time></trkpt><trkpt lat="44.8393383" lon="9.4439033"><ele>568.0</ele><time>2026-04-18T08:21:13.986Z</time></trkpt><trkpt lat="44.8392467" lon="9.4438483"><ele>568.0</ele><time>2026-04-18T08:21:14.984Z</time></trkpt><trkpt lat="44.839155" lon="9.4438"><ele>568.0</ele><time>2026-04-18T08:21:15.985Z</time></trkpt><trkpt lat="44.8390633" lon="9.4437717"><ele>568.0</ele><time>2026-04-18T08:21:16.984Z</time></trkpt><trkpt lat="44.8389733" lon="9.4437567"><ele>571.0</ele><time>2026-04-18T08:21:17.984Z</time></trkpt><trkpt lat="44.838885" lon="9.4437483"><ele>574.0</ele><time>2026-04-18T08:21:18.984Z</time></trkpt><trkpt lat="44.8387967" lon="9.4437483"><ele>577.0</ele><time>2026-04-18T08:21:19.982Z</time></trkpt><trkpt lat="44.838705" lon="9.44375"><ele>580.0</ele><time>2026-04-18T08:21:20.985Z</time></trkpt><trkpt lat="44.838615" lon="9.4437417"><ele>583.0</ele><time>2026-04-18T08:21:21.983Z</time></trkpt><trkpt lat="44.8385267" lon="9.4437133"><ele>586.0</ele><time>2026-04-18T08:21:22.985Z</time></trkpt><trkpt lat="44.8384567" lon="9.4436633"><ele>587.1666666666667</ele><time>2026-04-18T08:21:23.984Z</time></trkpt><trkpt lat="44.8383933" lon="9.4436267"><ele>588.3333333333334</ele><time>2026-04-18T08:21:24.983Z</time></trkpt><trkpt lat="44.83833" lon="9.443605"><ele>589.5</ele><time>2026-04-18T08:21:25.984Z</time></trkpt><trkpt lat="44.8382583" lon="9.4436067"><ele>590.6666666666666</ele><time>2026-04-18T08:21:26.984Z</time></trkpt><trkpt lat="44.838175" lon="9.4436533"><ele>591.8333333333333</ele><time>2026-04-18T08:21:27.984Z</time></trkpt><trkpt lat="44.838085" lon="9.443705"><ele>593.0</ele><time>2026-04-18T08:21:28.984Z</time></trkpt><trkpt lat="44.83799" lon="9.4437583"><ele>590.25</ele><time>2026-04-18T08:21:29.984Z</time></trkpt><trkpt lat="44.8378883" lon="9.4438067"><ele>587.5</ele><time>2026-04-18T08:21:30.988Z</time></trkpt><trkpt lat="44.8377767" lon="9.4438583"><ele>584.75</ele><time>2026-04-18T08:21:31.983Z</time></trkpt><trkpt lat="44.8376617" lon="9.4439183"><ele>582.0</ele><time>2026-04-18T08:21:32.983Z</time></trkpt><trkpt lat="44.8375533" lon="9.4439833"><ele>582.0</ele><time>2026-04-18T08:21:33.984Z</time></trkpt><trkpt lat="44.8374317" lon="9.4440633"><ele>582.0</ele><time>2026-04-18T08:21:34.983Z</time></trkpt><trkpt lat="44.8373083" lon="9.444135"><ele>582.0</ele><time>2026-04-18T08:21:35.984Z</time></trkpt><trkpt lat="44.837195" lon="9.4441783"><ele>582.0</ele><time>2026-04-18T08:21:36.983Z</time></trkpt><trkpt lat="44.8370817" lon="9.4441833"><ele>582.0</ele><time>2026-04-18T08:21:37.984Z</time></trkpt><trkpt lat="44.836975" lon="9.4441517"><ele>582.0</ele><time>2026-04-18T08:21:38.986Z</time></trkpt><trkpt lat="44.83687" lon="9.4441"><ele>582.0</ele><time>2026-04-18T08:21:39.984Z</time></trkpt><trkpt lat="44.8367833" lon="9.4440133"><ele>582.0</ele><time>2026-04-18T08:21:40.984Z</time></trkpt><trkpt lat="44.8367" lon="9.4439183"><ele>582.0</ele><time>2026-04-18T08:21:41.983Z</time></trkpt><trkpt lat="44.83662" lon="9.4438117"><ele>588.6</ele><time>2026-04-18T08:21:42.983Z</time></trkpt><trkpt lat="44.836545" lon="9.4437033"><ele>595.2</ele><time>2026-04-18T08:21:43.984Z</time></trkpt><trkpt lat="44.8364767" lon="9.4435867"><ele>601.8</ele><time>2026-04-18T08:21:44.985Z</time></trkpt><trkpt lat="44.8364283" lon="9.44346"><ele>608.4</ele><time>2026-04-18T08:21:45.983Z</time></trkpt><trkpt lat="44.8363833" lon="9.4433367"><ele>615.0</ele><time>2026-04-18T08:21:46.983Z</time></trkpt><trkpt lat="44.8363383" lon="9.44322"><ele>615.0</ele><time>2026-04-18T08:21:47.984Z</time></trkpt><trkpt lat="44.8362817" lon="9.4431417"><ele>615.0</ele><time>2026-04-18T08:21:48.983Z</time></trkpt><trkpt lat="44.836215" lon="9.4431033"><ele>615.0</ele><time>2026-04-18T08:21:49.986Z</time></trkpt><trkpt lat="44.8361317" lon="9.44309"><ele>615.0</ele><time>2026-04-18T08:21:50.985Z</time></trkpt><trkpt lat="44.83604" lon="9.4431217"><ele>615.0</ele><time>2026-04-18T08:21:51.985Z</time></trkpt><trkpt lat="44.8359433" lon="9.4431633"><ele>615.0</ele><time>2026-04-18T08:21:52.984Z</time></trkpt><trkpt lat="44.835845" lon="9.443175"><ele>613.2</ele><time>2026-04-18T08:21:53.984Z</time></trkpt><trkpt lat="44.835745" lon="9.443155"><ele>611.4</ele><time>2026-04-18T08:21:54.983Z</time></trkpt><trkpt lat="44.835645" lon="9.4431133"><ele>609.6</ele><time>2026-04-18T08:21:55.984Z</time></trkpt><trkpt lat="44.8355433" lon="9.4430783"><ele>607.8</ele><time>2026-04-18T08:21:56.984Z</time></trkpt><trkpt lat="44.8354433" lon="9.4430617"><ele>606.0</ele><time>2026-04-18T08:21:57.983Z</time></trkpt><trkpt lat="44.835335" lon="9.4430633"><ele>606.0</ele><time>2026-04-18T08:21:58.983Z</time></trkpt><trkpt lat="44.8352217" lon="9.4430917"><ele>606.0</ele><time>2026-04-18T08:21:59.984Z</time></trkpt><trkpt lat="44.8351067" lon="9.4431517"><ele>606.0</ele><time>2026-04-18T08:22:00.984Z</time></trkpt><trkpt lat="44.8349967" lon="9.4432283"><ele>606.0</ele><time>2026-04-18T08:22:01.984Z</time></trkpt><trkpt lat="44.8348967" lon="9.4433117"><ele>607.5</ele><time>2026-04-18T08:22:02.985Z</time></trkpt><trkpt lat="44.8348117" lon="9.443395"><ele>609.0</ele><time>2026-04-18T08:22:03.983Z</time></trkpt><trkpt lat="44.8347333" lon="9.44345"><ele>610.5</ele><time>2026-04-18T08:22:04.983Z</time></trkpt><trkpt lat="44.834655" lon="9.4434783"><ele>612.0</ele><time>2026-04-18T08:22:05.984Z</time></trkpt><trkpt lat="44.8345867" lon="9.443475"><ele>613.5</ele><time>2026-04-18T08:22:06.984Z</time></trkpt><trkpt lat="44.8345167" lon="9.443425"><ele>615.0</ele><time>2026-04-18T08:22:07.984Z</time></trkpt><trkpt lat="44.83444" lon="9.4433367"><ele>615.0</ele><time>2026-04-18T08:22:08.984Z</time></trkpt><trkpt lat="44.83438" lon="9.4432383"><ele>615.0</ele><time>2026-04-18T08:22:09.983Z</time></trkpt><trkpt lat="44.834335" lon="9.4431433"><ele>615.0</ele><time>2026-04-18T08:22:10.983Z</time></trkpt><trkpt lat="44.8343267" lon="9.4430417"><ele>615.0</ele><time>2026-04-18T08:22:11.983Z</time></trkpt><trkpt lat="44.83435" lon="9.4429383"><ele>615.0</ele><time>2026-04-18T08:22:12.984Z</time></trkpt><trkpt lat="44.8343983" lon="9.4428183"><ele>615.0</ele><time>2026-04-18T08:22:13.984Z</time></trkpt><trkpt lat="44.8344567" lon="9.4426933"><ele>617.8</ele><time>2026-04-18T08:22:14.984Z</time></trkpt><trkpt lat="44.8345183" lon="9.4425617"><ele>620.6</ele><time>2026-04-18T08:22:15.984Z</time></trkpt><trkpt lat="44.8345767" lon="9.4424283"><ele>623.4</ele><time>2026-04-18T08:22:16.983Z</time></trkpt><trkpt lat="44.834635" lon="9.4423083"><ele>626.2</ele><time>2026-04-18T08:22:17.984Z</time></trkpt><trkpt lat="44.8346883" lon="9.4422033"><ele>629.0</ele><time>2026-04-18T08:22:18.983Z</time></trkpt><trkpt lat="44.8347383" lon="9.4421033"><ele>629.6666666666666</ele><time>2026-04-18T08:22:19.984Z</time></trkpt><trkpt lat="44.8347917" lon="9.44202"><ele>630.3333333333333</ele><time>2026-04-18T08:22:20.985Z</time></trkpt><trkpt lat="44.8348517" lon="9.4419617"><ele>631.0</ele><time>2026-04-18T08:22:21.983Z</time></trkpt><trkpt lat="44.8349233" lon="9.4419317"><ele>631.6666666666666</ele><time>2026-04-18T08:22:22.983Z</time></trkpt><trkpt lat="44.8350083" lon="9.44192"><ele>632.3333333333334</ele><time>2026-04-18T08:22:23.986Z</time></trkpt><trkpt lat="44.8351083" lon="9.4419083"><ele>633.0</ele><time>2026-04-18T08:22:24.985Z</time></trkpt><trkpt lat="44.8352167" lon="9.441885"><ele>634.0</ele><time>2026-04-18T08:22:25.984Z</time></trkpt><trkpt lat="44.8353283" lon="9.44183"><ele>635.0</ele><time>2026-04-18T08:22:26.986Z</time></trkpt><trkpt lat="44.8354367" lon="9.44175"><ele>636.0</ele><time>2026-04-18T08:22:27.984Z</time></trkpt><trkpt lat="44.83554" lon="9.441655"><ele>637.0</ele><time>2026-04-18T08:22:28.985Z</time></trkpt><trkpt lat="44.8356333" lon="9.4415517"><ele>637.0</ele><time>2026-04-18T08:22:29.985Z</time></trkpt><trkpt lat="44.8357117" lon="9.4414583"><ele>637.0</ele><time>2026-04-18T08:22:30.983Z</time></trkpt><trkpt lat="44.8357767" lon="9.4413733"><ele>637.0</ele><time>2026-04-18T08:22:31.984Z</time></trkpt><trkpt lat="44.8358367" lon="9.441295"><ele>637.0</ele><time>2026-04-18T08:22:32.984Z</time></trkpt><trkpt lat="44.8358933" lon="9.4412233"><ele>637.0</ele><time>2026-04-18T08:22:33.984Z</time></trkpt><trkpt lat="44.8359533" lon="9.441165"><ele>637.0</ele><time>2026-04-18T08:22:34.984Z</time></trkpt><trkpt lat="44.8360267" lon="9.441125"><ele>640.8</ele><time>2026-04-18T08:22:35.985Z</time></trkpt><trkpt lat="44.8361217" lon="9.4410883"><ele>644.6</ele><time>2026-04-18T08:22:36.984Z</time></trkpt><trkpt lat="44.8362233" lon="9.44106"><ele>648.4</ele><time>2026-04-18T08:22:37.984Z</time></trkpt><trkpt lat="44.8363317" lon="9.4410417"><ele>652.1999999999999</ele><time>2026-04-18T08:22:38.985Z</time></trkpt><trkpt lat="44.8364467" lon="9.4410267"><ele>656.0</ele><time>2026-04-18T08:22:39.984Z</time></trkpt><trkpt lat="44.83656" lon="9.441025"><ele>656.0</ele><time>2026-04-18T08:22:40.983Z</time></trkpt><trkpt lat="44.836675" lon="9.4410417"><ele>656.0</ele><time>2026-04-18T08:22:41.984Z</time></trkpt><trkpt lat="44.8367883" lon="9.4410683"><ele>656.0</ele><time>2026-04-18T08:22:42.983Z</time></trkpt><trkpt lat="44.8369033" lon="9.4410917"><ele>656.0</ele><time>2026-04-18T08:22:43.984Z</time></trkpt><trkpt lat="44.8370133" lon="9.4411083"><ele>658.5999999999999</ele><time>2026-04-18T08:22:44.987Z</time></trkpt><trkpt lat="44.837115" lon="9.4411183"><ele>661.2</ele><time>2026-04-18T08:22:45.985Z</time></trkpt><trkpt lat="44.83721" lon="9.4411317"><ele>663.8</ele><time>2026-04-18T08:22:46.983Z</time></trkpt><trkpt lat="44.837305" lon="9.44114"><ele>666.4000000000001</ele><time>2026-04-18T08:22:47.983Z</time></trkpt><trkpt lat="44.8374" lon="9.4411383"><ele>669.0</ele><time>2026-04-18T08:22:48.984Z</time></trkpt><trkpt lat="44.83748" lon="9.4411383"><ele>669.0</ele><time>2026-04-18T08:22:49.983Z</time></trkpt><trkpt lat="44.8375583" lon="9.4411267"><ele>669.0</ele><time>2026-04-18T08:22:50.984Z</time></trkpt><trkpt lat="44.83763" lon="9.44111"><ele>669.0</ele><time>2026-04-18T08:22:51.984Z</time></trkpt><trkpt lat="44.8376933" lon="9.4410783"><ele>669.0</ele><time>2026-04-18T08:22:52.985Z</time></trkpt><trkpt lat="44.8377867" lon="9.4409783"><ele>669.0</ele><time>2026-04-18T08:22:54.985Z</time></trkpt><trkpt lat="44.8378133" lon="9.4407433"><ele>670.0</ele><time>2026-04-18T08:22:56.985Z</time></trkpt><trkpt lat="44.8378317" lon="9.4405917"><ele>671.0</ele><time>2026-04-18T08:22:57.984Z</time></trkpt><trkpt lat="44.83786" lon="9.4404233"><ele>672.0</ele><time>2026-04-18T08:22:58.984Z</time></trkpt><trkpt lat="44.8378933" lon="9.440255"><ele>673.0</ele><time>2026-04-18T08:22:59.985Z</time></trkpt><trkpt lat="44.8379333" lon="9.4400967"><ele>675.4</ele><time>2026-04-18T08:23:00.984Z</time></trkpt><trkpt lat="44.8379733" lon="9.43994"><ele>677.8</ele><time>2026-04-18T08:23:01.983Z</time></trkpt><trkpt lat="44.8380167" lon="9.4397933"><ele>680.2</ele><time>2026-04-18T08:23:02.984Z</time></trkpt><trkpt lat="44.8380533" lon="9.439655"><ele>682.6</ele><time>2026-04-18T08:23:03.983Z</time></trkpt><trkpt lat="44.83809" lon="9.4395283"><ele>685.0</ele><time>2026-04-18T08:23:04.983Z</time></trkpt><trkpt lat="44.8381183" lon="9.439405"><ele>686.8</ele><time>2026-04-18T08:23:05.984Z</time></trkpt><trkpt lat="44.8381383" lon="9.4392883"><ele>688.6</ele><time>2026-04-18T08:23:06.984Z</time></trkpt><trkpt lat="44.8381533" lon="9.43917"><ele>690.4000000000001</ele><time>2026-04-18T08:23:07.983Z</time></trkpt><trkpt lat="44.838175" lon="9.4390333"><ele>692.2</ele><time>2026-04-18T08:23:08.986Z</time></trkpt><trkpt lat="44.8382" lon="9.43889"><ele>694.0</ele><time>2026-04-18T08:23:09.985Z</time></trkpt><trkpt lat="44.8382233" lon="9.4387617"><ele>695.8000000000001</ele><time>2026-04-18T08:23:10.984Z</time></trkpt><trkpt lat="44.8382417" lon="9.43864"><ele>697.6</ele><time>2026-04-18T08:23:11.983Z</time></trkpt><trkpt lat="44.838255" lon="9.4385033"><ele>699.4</ele><time>2026-04-18T08:23:12.983Z</time></trkpt><trkpt lat="44.8382617" lon="9.4383417"><ele>701.2</ele><time>2026-04-18T08:23:13.985Z</time></trkpt><trkpt lat="44.8382617" lon="9.43817"><ele>703.0</ele><time>2026-04-18T08:23:14.985Z</time></trkpt><trkpt lat="44.83826" lon="9.4380067"><ele>706.0</ele><time>2026-04-18T08:23:15.984Z</time></trkpt><trkpt lat="44.8382517" lon="9.43787"><ele>709.0</ele><time>2026-04-18T08:23:16.983Z</time></trkpt><trkpt lat="44.8382367" lon="9.4377467"><ele>712.0</ele><time>2026-04-18T08:23:17.984Z</time></trkpt><trkpt lat="44.838215" lon="9.437605"><ele>715.0</ele><time>2026-04-18T08:23:18.986Z</time></trkpt><trkpt lat="44.8381883" lon="9.4374833"><ele>718.0</ele><time>2026-04-18T08:23:19.985Z</time></trkpt><trkpt lat="44.838155" lon="9.4373583"><ele>718.0</ele><time>2026-04-18T08:23:20.987Z</time></trkpt><trkpt lat="44.838115" lon="9.4372367"><ele>718.0</ele><time>2026-04-18T08:23:21.985Z</time></trkpt><trkpt lat="44.83808" lon="9.4371183"><ele>718.0</ele><time>2026-04-18T08:23:22.985Z</time></trkpt><trkpt lat="44.8380517" lon="9.4370033"><ele>718.0</ele><time>2026-04-18T08:23:23.984Z</time></trkpt><trkpt lat="44.83804" lon="9.4368783"><ele>718.0</ele><time>2026-04-18T08:23:24.984Z</time></trkpt><trkpt lat="44.838045" lon="9.436775"><ele>718.0</ele><time>2026-04-18T08:23:25.983Z</time></trkpt><trkpt lat="44.8380683" lon="9.4366817"><ele>719.6666666666667</ele><time>2026-04-18T08:23:26.984Z</time></trkpt><trkpt lat="44.8381067" lon="9.4365917"><ele>721.3333333333334</ele><time>2026-04-18T08:23:27.984Z</time></trkpt><trkpt lat="44.8381617" lon="9.4365217"><ele>723.0</ele><time>2026-04-18T08:23:28.984Z</time></trkpt><trkpt lat="44.83823" lon="9.436465"><ele>724.6666666666666</ele><time>2026-04-18T08:23:29.986Z</time></trkpt><trkpt lat="44.8383117" lon="9.4364083"><ele>726.3333333333333</ele><time>2026-04-18T08:23:30.984Z</time></trkpt><trkpt lat="44.8384" lon="9.43635"><ele>728.0</ele><time>2026-04-18T08:23:31.984Z</time></trkpt><trkpt lat="44.83848" lon="9.43628"><ele>734.5999999999999</ele><time>2026-04-18T08:23:32.984Z</time></trkpt><trkpt lat="44.8385567" lon="9.436205"><ele>741.1999999999999</ele><time>2026-04-18T08:23:33.984Z</time></trkpt><trkpt lat="44.8386167" lon="9.4361483"><ele>747.8</ele><time>2026-04-18T08:23:34.984Z</time></trkpt><trkpt lat="44.8387217" lon="9.43609"><ele>754.4</ele><time>2026-04-18T08:23:36.984Z</time></trkpt><trkpt lat="44.8388434" lon="9.4360468"><ele>761.0</ele><time>2026-04-18T08:23:38.983Z</time></trkpt><trkpt lat="44.8389561" lon="9.4359889"><ele>761.0</ele><time>2026-04-18T08:23:40.984Z</time></trkpt><trkpt lat="44.8390744" lon="9.4359244"><ele>761.0</ele><time>2026-04-18T08:23:42.984Z</time></trkpt><trkpt lat="44.8391908" lon="9.4358711"><ele>761.0</ele><time>2026-04-18T08:23:44.985Z</time></trkpt><trkpt lat="44.8393038" lon="9.4358476"><ele>761.0</ele><time>2026-04-18T08:23:46.983Z</time></trkpt><trkpt lat="44.8394112" lon="9.4358086"><ele>763.8</ele><time>2026-04-18T08:23:48.983Z</time></trkpt><trkpt lat="44.8395283" lon="9.4357582"><ele>766.5999999999999</ele><time>2026-04-18T08:23:50.984Z</time></trkpt><trkpt lat="44.8396202" lon="9.4357007"><ele>769.4</ele><time>2026-04-18T08:23:52.984Z</time></trkpt><trkpt lat="44.8397249" lon="9.4357121"><ele>772.2</ele><time>2026-04-18T08:23:54.984Z</time></trkpt><trkpt lat="44.8397827" lon="9.4357507"><ele>775.0</ele><time>2026-04-18T08:23:55.983Z</time></trkpt><trkpt lat="44.8398433" lon="9.4357943"><ele>774.9999999999999</ele><time>2026-04-18T08:23:56.985Z</time></trkpt><trkpt lat="44.8399634" lon="9.4358058"><ele>775.0</ele><time>2026-04-18T08:23:58.984Z</time></trkpt><trkpt lat="44.8400276" lon="9.4357629"><ele>775.0</ele><time>2026-04-18T08:23:59.983Z</time></trkpt><trkpt lat="44.8400911" lon="9.435713"><ele>775.0</ele><time>2026-04-18T08:24:00.984Z</time></trkpt><trkpt lat="44.8401543" lon="9.4356714"><ele>774.9999999999999</ele><time>2026-04-18T08:24:01.984Z</time></trkpt><trkpt lat="44.8402202" lon="9.4356524"><ele>775.0</ele><time>2026-04-18T08:24:02.983Z</time></trkpt><trkpt lat="44.8403245" lon="9.4357174"><ele>776.8</ele><time>2026-04-18T08:24:04.982Z</time></trkpt><trkpt lat="44.8403717" lon="9.435785"><ele>778.6</ele><time>2026-04-18T08:24:05.983Z</time></trkpt><trkpt lat="44.8404204" lon="9.4358451"><ele>780.4000000000001</ele><time>2026-04-18T08:24:06.983Z</time></trkpt><trkpt lat="44.8405249" lon="9.4358837"><ele>782.2</ele><time>2026-04-18T08:24:08.982Z</time></trkpt><trkpt lat="44.8406272" lon="9.4358572"><ele>784.0</ele><time>2026-04-18T08:24:10.983Z</time></trkpt><trkpt lat="44.8407297" lon="9.4357924"><ele>783.9999999999999</ele><time>2026-04-18T08:24:12.985Z</time></trkpt><trkpt lat="44.8407893" lon="9.4357348"><ele>784.0</ele><time>2026-04-18T08:24:13.983Z</time></trkpt><trkpt lat="44.8408469" lon="9.4356724"><ele>784.0</ele><time>2026-04-18T08:24:14.982Z</time></trkpt><trkpt lat="44.8409" lon="9.4356116"><ele>784.0</ele><time>2026-04-18T08:24:15.983Z</time></trkpt><trkpt lat="44.8409505" lon="9.4355559"><ele>783.9999999999999</ele><time>2026-04-18T08:24:16.983Z</time></trkpt><trkpt lat="44.8410337" lon="9.4354493"><ele>784.0</ele><time>2026-04-18T08:24:18.982Z</time></trkpt><trkpt lat="44.8411097" lon="9.4353571"><ele>786.0</ele><time>2026-04-18T08:24:20.983Z</time></trkpt><trkpt lat="44.8412102" lon="9.4352545"><ele>788.0</ele><time>2026-04-18T08:24:22.982Z</time></trkpt><trkpt lat="44.841259" lon="9.4351966"><ele>790.0</ele><time>2026-04-18T08:24:23.983Z</time></trkpt><trkpt lat="44.8413582" lon="9.4350923"><ele>792.0</ele><time>2026-04-18T08:24:25.983Z</time></trkpt><trkpt lat="44.8414717" lon="9.4350385"><ele>794.0</ele><time>2026-04-18T08:24:27.982Z</time></trkpt><trkpt lat="44.8415921" lon="9.4350455"><ele>794.0</ele><time>2026-04-18T08:24:29.983Z</time></trkpt><trkpt lat="44.841656" lon="9.4350495"><ele>794.0</ele><time>2026-04-18T08:24:30.984Z</time></trkpt><trkpt lat="44.8417224" lon="9.4350501"><ele>794.0</ele><time>2026-04-18T08:24:31.986Z</time></trkpt><trkpt lat="44.8418345" lon="9.4350386"><ele>794.0</ele><time>2026-04-18T08:24:33.983Z</time></trkpt><trkpt lat="44.8419409" lon="9.435021"><ele>794.0</ele><time>2026-04-18T08:24:35.982Z</time></trkpt><trkpt lat="44.8420526" lon="9.4349809"><ele>792.8000000000001</ele><time>2026-04-18T08:24:37.983Z</time></trkpt><trkpt lat="44.8421557" lon="9.4349766"><ele>791.6</ele><time>2026-04-18T08:24:39.984Z</time></trkpt><trkpt lat="44.8422602" lon="9.4349829"><ele>790.4</ele><time>2026-04-18T08:24:41.984Z</time></trkpt><trkpt lat="44.8423853" lon="9.4350113"><ele>789.2</ele><time>2026-04-18T08:24:43.984Z</time></trkpt><trkpt lat="44.8424946" lon="9.4350345"><ele>788.0</ele><time>2026-04-18T08:24:45.984Z</time></trkpt><trkpt lat="44.8425908" lon="9.4351079"><ele>788.2</ele><time>2026-04-18T08:24:47.984Z</time></trkpt><trkpt lat="44.842698" lon="9.4351968"><ele>788.4</ele><time>2026-04-18T08:24:49.983Z</time></trkpt><trkpt lat="44.8427578" lon="9.4352306"><ele>788.6</ele><time>2026-04-18T08:24:50.983Z</time></trkpt><trkpt lat="44.8428276" lon="9.4352526"><ele>788.8000000000001</ele><time>2026-04-18T08:24:52.982Z</time></trkpt><trkpt lat="44.8429467" lon="9.4351833"><ele>789.0</ele><time>2026-04-18T08:25:11.983Z</time></trkpt><trkpt lat="44.8430217" lon="9.4351383"><ele>789.0</ele><time>2026-04-18T08:25:13.983Z</time></trkpt><trkpt lat="44.8431067" lon="9.4350467"><ele>789.0</ele><time>2026-04-18T08:25:15.983Z</time></trkpt><trkpt lat="44.8431567" lon="9.434985"><ele>789.0</ele><time>2026-04-18T08:25:16.983Z</time></trkpt><trkpt lat="44.8432683" lon="9.4348983"><ele>789.0</ele><time>2026-04-18T08:25:18.983Z</time></trkpt><trkpt lat="44.843335" lon="9.4348567"><ele>789.0</ele><time>2026-04-18T08:25:19.984Z</time></trkpt><trkpt lat="44.8434017" lon="9.43482"><ele>789.0</ele><time>2026-04-18T08:25:20.984Z</time></trkpt><trkpt lat="44.8434683" lon="9.434775"><ele>788.8000000000001</ele><time>2026-04-18T08:25:21.983Z</time></trkpt><trkpt lat="44.843545" lon="9.434735"><ele>788.6</ele><time>2026-04-18T08:25:22.985Z</time></trkpt><trkpt lat="44.843615" lon="9.434705"><ele>788.4</ele><time>2026-04-18T08:25:23.983Z</time></trkpt><trkpt lat="44.8437183" lon="9.434655"><ele>788.2</ele><time>2026-04-18T08:25:25.985Z</time></trkpt><trkpt lat="44.8438283" lon="9.4345633"><ele>788.0</ele><time>2026-04-18T08:25:27.984Z</time></trkpt><trkpt lat="44.8439383" lon="9.4344917"><ele>789.6666666666667</ele><time>2026-04-18T08:25:29.983Z</time></trkpt><trkpt lat="44.8440083" lon="9.4344683"><ele>791.3333333333334</ele><time>2026-04-18T08:25:30.984Z</time></trkpt><trkpt lat="44.844075" lon="9.4344433"><ele>793.0</ele><time>2026-04-18T08:25:31.984Z</time></trkpt><trkpt lat="44.8441389" lon="9.4344142"><ele>794.6666666666667</ele><time>2026-04-18T08:25:32.984Z</time></trkpt><trkpt lat="44.8442047" lon="9.4343894"><ele>796.3333333333334</ele><time>2026-04-18T08:25:33.984Z</time></trkpt><trkpt lat="44.8442691" lon="9.4343595"><ele>798.0</ele><time>2026-04-18T08:25:34.982Z</time></trkpt><trkpt lat="44.8443786" lon="9.4343082"><ele>800.0</ele><time>2026-04-18T08:25:36.983Z</time></trkpt><trkpt lat="44.8444811" lon="9.4342946"><ele>802.0</ele><time>2026-04-18T08:25:38.984Z</time></trkpt><trkpt lat="44.8446136" lon="9.4342489"><ele>804.0</ele><time>2026-04-18T08:25:40.984Z</time></trkpt><trkpt lat="44.8446923" lon="9.4342173"><ele>806.0</ele><time>2026-04-18T08:25:41.983Z</time></trkpt><trkpt lat="44.8447716" lon="9.4341826"><ele>808.0</ele><time>2026-04-18T08:25:42.984Z</time></trkpt><trkpt lat="44.8448513" lon="9.4341507"><ele>807.9999999999999</ele><time>2026-04-18T08:25:43.983Z</time></trkpt><trkpt lat="44.8449287" lon="9.4341088"><ele>808.0</ele><time>2026-04-18T08:25:44.983Z</time></trkpt><trkpt lat="44.8450047" lon="9.4340602"><ele>808.0</ele><time>2026-04-18T08:25:45.983Z</time></trkpt><trkpt lat="44.845088" lon="9.4340291"><ele>808.0</ele><time>2026-04-18T08:25:46.983Z</time></trkpt><trkpt lat="44.8451752" lon="9.4340153"><ele>807.9999999999999</ele><time>2026-04-18T08:25:47.983Z</time></trkpt><trkpt lat="44.8452531" lon="9.4340134"><ele>808.0</ele><time>2026-04-18T08:25:48.984Z</time></trkpt><trkpt lat="44.8453279" lon="9.4340078"><ele>808.4999999999999</ele><time>2026-04-18T08:25:49.984Z</time></trkpt><trkpt lat="44.8454078" lon="9.4339839"><ele>809.0</ele><time>2026-04-18T08:25:50.985Z</time></trkpt><trkpt lat="44.8454876" lon="9.4339377"><ele>809.5</ele><time>2026-04-18T08:25:51.983Z</time></trkpt><trkpt lat="44.8455663" lon="9.433891"><ele>810.0</ele><time>2026-04-18T08:25:52.983Z</time></trkpt><trkpt lat="44.8456421" lon="9.4338572"><ele>810.4999999999999</ele><time>2026-04-18T08:25:53.983Z</time></trkpt><trkpt lat="44.8457116" lon="9.4338229"><ele>811.0</ele><time>2026-04-18T08:25:54.982Z</time></trkpt><trkpt lat="44.845793" lon="9.4337285"><ele>811.0</ele><time>2026-04-18T08:25:56.983Z</time></trkpt><trkpt lat="44.8458415" lon="9.4336"><ele>811.0</ele><time>2026-04-18T08:25:58.984Z</time></trkpt><trkpt lat="44.8459689" lon="9.4335928"><ele>811.0</ele><time>2026-04-18T08:26:00.983Z</time></trkpt><trkpt lat="44.8460638" lon="9.433612"><ele>811.0</ele><time>2026-04-18T08:26:01.983Z</time></trkpt><trkpt lat="44.8461755" lon="9.4336306"><ele>811.0</ele><time>2026-04-18T08:26:02.983Z</time></trkpt><trkpt lat="44.8462961" lon="9.4336421"><ele>810.4</ele><time>2026-04-18T08:26:03.984Z</time></trkpt><trkpt lat="44.8464121" lon="9.4336472"><ele>809.8</ele><time>2026-04-18T08:26:04.982Z</time></trkpt><trkpt lat="44.8465198" lon="9.4336481"><ele>809.1999999999999</ele><time>2026-04-18T08:26:05.982Z</time></trkpt><trkpt lat="44.8466223" lon="9.4336277"><ele>808.5999999999999</ele><time>2026-04-18T08:26:06.984Z</time></trkpt><trkpt lat="44.846721" lon="9.4335944"><ele>808.0</ele><time>2026-04-18T08:26:07.982Z</time></trkpt><trkpt lat="44.8468099" lon="9.4335542"><ele>809.6666666666666</ele><time>2026-04-18T08:26:08.983Z</time></trkpt><trkpt lat="44.8468816" lon="9.4335019"><ele>811.3333333333333</ele><time>2026-04-18T08:26:09.983Z</time></trkpt><trkpt lat="44.846934" lon="9.4334402"><ele>813.0</ele><time>2026-04-18T08:26:10.984Z</time></trkpt><trkpt lat="44.8469812" lon="9.4333676"><ele>814.6666666666667</ele><time>2026-04-18T08:26:11.983Z</time></trkpt><trkpt lat="44.8470335" lon="9.4332947"><ele>816.3333333333334</ele><time>2026-04-18T08:26:12.984Z</time></trkpt><trkpt lat="44.8470976" lon="9.4332286"><ele>818.0</ele><time>2026-04-18T08:26:13.983Z</time></trkpt><trkpt lat="44.847163" lon="9.4331686"><ele>818.0000000000001</ele><time>2026-04-18T08:26:14.987Z</time></trkpt><trkpt lat="44.847218" lon="9.4331154"><ele>818.0</ele><time>2026-04-18T08:26:15.983Z</time></trkpt><trkpt lat="44.8472948" lon="9.4329971"><ele>818.0</ele><time>2026-04-18T08:26:17.984Z</time></trkpt><trkpt lat="44.8473426" lon="9.4329105"><ele>818.0</ele><time>2026-04-18T08:26:19.984Z</time></trkpt><trkpt lat="44.8473723" lon="9.43282"><ele>818.0000000000001</ele><time>2026-04-18T08:26:36.983Z</time></trkpt><trkpt lat="44.8474106" lon="9.4327226"><ele>818.0</ele><time>2026-04-18T08:26:37.983Z</time></trkpt><trkpt lat="44.8474555" lon="9.4326055"><ele>818.4</ele><time>2026-04-18T08:26:38.983Z</time></trkpt><trkpt lat="44.8475006" lon="9.4324815"><ele>818.8</ele><time>2026-04-18T08:26:39.982Z</time></trkpt><trkpt lat="44.8475435" lon="9.4323476"><ele>819.2</ele><time>2026-04-18T08:26:40.983Z</time></trkpt><trkpt lat="44.8475829" lon="9.4322054"><ele>819.6</ele><time>2026-04-18T08:26:41.984Z</time></trkpt><trkpt lat="44.8476248" lon="9.432058"><ele>820.0</ele><time>2026-04-18T08:26:42.983Z</time></trkpt><trkpt lat="44.8476701" lon="9.4319232"><ele>826.0</ele><time>2026-04-18T08:26:43.983Z</time></trkpt><trkpt lat="44.8477132" lon="9.4318112"><ele>832.0</ele><time>2026-04-18T08:26:44.983Z</time></trkpt><trkpt lat="44.847762" lon="9.4317101"><ele>838.0</ele><time>2026-04-18T08:26:45.983Z</time></trkpt><trkpt lat="44.8478175" lon="9.4316102"><ele>844.0</ele><time>2026-04-18T08:26:46.983Z</time></trkpt><trkpt lat="44.8478771" lon="9.4315002"><ele>850.0</ele><time>2026-04-18T08:26:47.983Z</time></trkpt><trkpt lat="44.8479402" lon="9.4313817"><ele>847.8333333333333</ele><time>2026-04-18T08:26:48.983Z</time></trkpt><trkpt lat="44.847998" lon="9.431256"><ele>845.6666666666666</ele><time>2026-04-18T08:26:49.983Z</time></trkpt><trkpt lat="44.8480465" lon="9.4311341"><ele>843.5</ele><time>2026-04-18T08:26:50.985Z</time></trkpt><trkpt lat="44.8480942" lon="9.4310288"><ele>841.3333333333333</ele><time>2026-04-18T08:26:51.984Z</time></trkpt><trkpt lat="44.8481461" lon="9.4309408"><ele>839.1666666666666</ele><time>2026-04-18T08:26:52.983Z</time></trkpt><trkpt lat="44.8481935" lon="9.4308683"><ele>837.0</ele><time>2026-04-18T08:26:53.983Z</time></trkpt><trkpt lat="44.8482343" lon="9.4307888"><ele>837.0</ele><time>2026-04-18T08:26:54.983Z</time></trkpt><trkpt lat="44.8482698" lon="9.4306958"><ele>837.0</ele><time>2026-04-18T08:26:55.984Z</time></trkpt><trkpt lat="44.8483124" lon="9.4305894"><ele>837.0</ele><time>2026-04-18T08:26:56.984Z</time></trkpt><trkpt lat="44.8483639" lon="9.4304863"><ele>837.0</ele><time>2026-04-18T08:26:57.982Z</time></trkpt><trkpt lat="44.8484163" lon="9.4304053"><ele>837.0</ele><time>2026-04-18T08:26:58.983Z</time></trkpt><trkpt lat="44.8484661" lon="9.4303453"><ele>837.0</ele><time>2026-04-18T08:26:59.983Z</time></trkpt><trkpt lat="44.848542" lon="9.4302288"><ele>839.0</ele><time>2026-04-18T08:27:01.984Z</time></trkpt><trkpt lat="44.8485774" lon="9.4300707"><ele>841.0</ele><time>2026-04-18T08:27:03.983Z</time></trkpt><trkpt lat="44.8485877" lon="9.429978"><ele>843.0</ele><time>2026-04-18T08:27:04.983Z</time></trkpt><trkpt lat="44.848616" lon="9.4298361"><ele>845.0</ele><time>2026-04-18T08:27:06.983Z</time></trkpt><trkpt lat="44.8486514" lon="9.4297214"><ele>847.0</ele><time>2026-04-18T08:27:08.986Z</time></trkpt><trkpt lat="44.8486843" lon="9.4296289"><ele>847.0</ele><time>2026-04-18T08:27:11.985Z</time></trkpt><trkpt lat="44.8486783" lon="9.4295367"><ele>847.0</ele><time>2026-04-18T08:27:30.983Z</time></trkpt><trkpt lat="44.8486767" lon="9.4293483"><ele>847.0</ele><time>2026-04-18T08:27:39.983Z</time></trkpt><trkpt lat="44.8486767" lon="9.429235"><ele>847.0</ele><time>2026-04-18T08:27:40.984Z</time></trkpt><trkpt lat="44.84869" lon="9.4291"><ele>847.0</ele><time>2026-04-18T08:27:41.984Z</time></trkpt><trkpt lat="44.8487117" lon="9.4289633"><ele>847.0</ele><time>2026-04-18T08:27:42.984Z</time></trkpt><trkpt lat="44.8487533" lon="9.428825"><ele>847.0</ele><time>2026-04-18T08:27:43.983Z</time></trkpt><trkpt lat="44.8488067" lon="9.428675"><ele>847.0</ele><time>2026-04-18T08:27:44.984Z</time></trkpt><trkpt lat="44.8488617" lon="9.42853"><ele>847.0</ele><time>2026-04-18T08:27:45.983Z</time></trkpt><trkpt lat="44.8488917" lon="9.4283967"><ele>847.0</ele><time>2026-04-18T08:27:46.982Z</time></trkpt><trkpt lat="44.8489" lon="9.4282517"><ele>845.4000000000001</ele><time>2026-04-18T08:27:47.982Z</time></trkpt><trkpt lat="44.8488917" lon="9.4281117"><ele>843.8000000000001</ele><time>2026-04-18T08:27:48.983Z</time></trkpt><trkpt lat="44.8488667" lon="9.4279917"><ele>842.2</ele><time>2026-04-18T08:27:49.983Z</time></trkpt><trkpt lat="44.848845" lon="9.427875"><ele>840.6</ele><time>2026-04-18T08:27:50.984Z</time></trkpt><trkpt lat="44.8488317" lon="9.4277583"><ele>839.0</ele><time>2026-04-18T08:27:51.984Z</time></trkpt><trkpt lat="44.8488283" lon="9.4276117"><ele>839.0</ele><time>2026-04-18T08:27:52.984Z</time></trkpt><trkpt lat="44.8488317" lon="9.4274517"><ele>839.0</ele><time>2026-04-18T08:27:53.984Z</time></trkpt><trkpt lat="44.8488483" lon="9.4272933"><ele>839.0</ele><time>2026-04-18T08:27:54.985Z</time></trkpt><trkpt lat="44.84887" lon="9.4271533"><ele>839.0</ele><time>2026-04-18T08:27:55.984Z</time></trkpt><trkpt lat="44.8488867" lon="9.4270183"><ele>839.0</ele><time>2026-04-18T08:27:56.984Z</time></trkpt><trkpt lat="44.84888" lon="9.426885"><ele>839.0</ele><time>2026-04-18T08:27:57.985Z</time></trkpt><trkpt lat="44.848855" lon="9.4267317"><ele>839.0</ele><time>2026-04-18T08:27:58.984Z</time></trkpt><trkpt lat="44.8488333" lon="9.4265817"><ele>839.0</ele><time>2026-04-18T08:27:59.984Z</time></trkpt><trkpt lat="44.8488183" lon="9.4264267"><ele>839.0</ele><time>2026-04-18T08:28:00.983Z</time></trkpt><trkpt lat="44.8488117" lon="9.42628"><ele>839.0</ele><time>2026-04-18T08:28:01.986Z</time></trkpt><trkpt lat="44.848795" lon="9.426165"><ele>840.3333333333334</ele><time>2026-04-18T08:28:02.984Z</time></trkpt><trkpt lat="44.848765" lon="9.4260833"><ele>841.6666666666667</ele><time>2026-04-18T08:28:03.984Z</time></trkpt><trkpt lat="44.8487283" lon="9.4259233"><ele>843.0</ele><time>2026-04-18T08:28:05.982Z</time></trkpt><trkpt lat="44.848745" lon="9.42583"><ele>844.3333333333333</ele><time>2026-04-18T08:28:06.983Z</time></trkpt><trkpt lat="44.8487633" lon="9.4257233"><ele>845.6666666666666</ele><time>2026-04-18T08:28:07.984Z</time></trkpt><trkpt lat="44.8487667" lon="9.4256167"><ele>847.0</ele><time>2026-04-18T08:28:08.985Z</time></trkpt><trkpt lat="44.84876" lon="9.4255033"><ele>848.6666666666666</ele><time>2026-04-18T08:28:09.983Z</time></trkpt><trkpt lat="44.848745" lon="9.4253917"><ele>850.3333333333333</ele><time>2026-04-18T08:28:10.983Z</time></trkpt><trkpt lat="44.848725" lon="9.4252833"><ele>852.0</ele><time>2026-04-18T08:28:11.983Z</time></trkpt><trkpt lat="44.8487233" lon="9.42518"><ele>853.6666666666667</ele><time>2026-04-18T08:28:12.982Z</time></trkpt><trkpt lat="44.8487333" lon="9.4250783"><ele>855.3333333333334</ele><time>2026-04-18T08:28:13.984Z</time></trkpt><trkpt lat="44.84875" lon="9.4249633"><ele>857.0</ele><time>2026-04-18T08:28:14.983Z</time></trkpt><trkpt lat="44.8487767" lon="9.4248467"><ele>857.0000000000001</ele><time>2026-04-18T08:28:15.984Z</time></trkpt><trkpt lat="44.8488033" lon="9.4247283"><ele>857.0</ele><time>2026-04-18T08:28:16.986Z</time></trkpt><trkpt lat="44.848815" lon="9.4246183"><ele>857.0</ele><time>2026-04-18T08:28:17.983Z</time></trkpt><trkpt lat="44.848815" lon="9.42451"><ele>857.0</ele><time>2026-04-18T08:28:18.985Z</time></trkpt><trkpt lat="44.848805" lon="9.4243967"><ele>857.0000000000001</ele><time>2026-04-18T08:28:19.984Z</time></trkpt><trkpt lat="44.8487867" lon="9.4242717"><ele>857.0</ele><time>2026-04-18T08:28:20.983Z</time></trkpt><trkpt lat="44.848765" lon="9.424155"><ele>857.8333333333334</ele><time>2026-04-18T08:28:21.984Z</time></trkpt><trkpt lat="44.8487383" lon="9.4240433"><ele>858.6666666666667</ele><time>2026-04-18T08:28:22.983Z</time></trkpt><trkpt lat="44.8487217" lon="9.4239217"><ele>859.5</ele><time>2026-04-18T08:28:23.984Z</time></trkpt><trkpt lat="44.84871" lon="9.423805"><ele>860.3333333333333</ele><time>2026-04-18T08:28:24.985Z</time></trkpt><trkpt lat="44.8487067" lon="9.4236883"><ele>861.1666666666666</ele><time>2026-04-18T08:28:25.983Z</time></trkpt><trkpt lat="44.8487067" lon="9.42358"><ele>862.0</ele><time>2026-04-18T08:28:26.984Z</time></trkpt><trkpt lat="44.8487033" lon="9.42348"><ele>862.8571428571429</ele><time>2026-04-18T08:28:27.984Z</time></trkpt><trkpt lat="44.8486817" lon="9.4233833"><ele>863.7142857142857</ele><time>2026-04-18T08:28:28.985Z</time></trkpt><trkpt lat="44.84865" lon="9.4232867"><ele>864.5714285714286</ele><time>2026-04-18T08:28:29.983Z</time></trkpt><trkpt lat="44.848605" lon="9.4232017"><ele>865.4285714285714</ele><time>2026-04-18T08:28:30.983Z</time></trkpt><trkpt lat="44.8485583" lon="9.4231267"><ele>866.2857142857142</ele><time>2026-04-18T08:28:31.984Z</time></trkpt><trkpt lat="44.8485117" lon="9.4230483"><ele>867.1428571428571</ele><time>2026-04-18T08:28:32.983Z</time></trkpt><trkpt lat="44.8484633" lon="9.42296"><ele>868.0</ele><time>2026-04-18T08:28:33.984Z</time></trkpt><trkpt lat="44.8484317" lon="9.4228667"><ele>866.2857142857143</ele><time>2026-04-18T08:28:34.983Z</time></trkpt><trkpt lat="44.8484217" lon="9.4227633"><ele>864.5714285714286</ele><time>2026-04-18T08:28:35.983Z</time></trkpt><trkpt lat="44.8484233" lon="9.4226533"><ele>862.8571428571429</ele><time>2026-04-18T08:28:36.983Z</time></trkpt><trkpt lat="44.84842" lon="9.422545"><ele>861.1428571428571</ele><time>2026-04-18T08:28:37.984Z</time></trkpt><trkpt lat="44.8484067" lon="9.4224467"><ele>859.4285714285714</ele><time>2026-04-18T08:28:38.984Z</time></trkpt><trkpt lat="44.8483817" lon="9.4223467"><ele>857.7142857142858</ele><time>2026-04-18T08:28:39.984Z</time></trkpt><trkpt lat="44.84834" lon="9.42226"><ele>856.0</ele><time>2026-04-18T08:28:40.983Z</time></trkpt><trkpt lat="44.8482833" lon="9.4221867"><ele>860.4</ele><time>2026-04-18T08:28:41.984Z</time></trkpt><trkpt lat="44.848215" lon="9.42212"><ele>864.8</ele><time>2026-04-18T08:28:42.984Z</time></trkpt><trkpt lat="44.8481183" lon="9.4220583"><ele>869.1999999999999</ele><time>2026-04-18T08:28:43.983Z</time></trkpt><trkpt lat="44.848015" lon="9.422"><ele>873.5999999999999</ele><time>2026-04-18T08:28:44.983Z</time></trkpt><trkpt lat="44.8479283" lon="9.4219433"><ele>878.0</ele><time>2026-04-18T08:28:45.984Z</time></trkpt><trkpt lat="44.8478567" lon="9.42188"><ele>878.0000000000001</ele><time>2026-04-18T08:28:46.985Z</time></trkpt><trkpt lat="44.84781" lon="9.4218033"><ele>878.0</ele><time>2026-04-18T08:28:47.984Z</time></trkpt><trkpt lat="44.8477733" lon="9.4217067"><ele>878.0</ele><time>2026-04-18T08:28:48.984Z</time></trkpt><trkpt lat="44.8477533" lon="9.42158"><ele>878.0</ele><time>2026-04-18T08:28:49.983Z</time></trkpt><trkpt lat="44.8477417" lon="9.4214417"><ele>878.0000000000001</ele><time>2026-04-18T08:28:50.984Z</time></trkpt><trkpt lat="44.847735" lon="9.42131"><ele>878.0</ele><time>2026-04-18T08:28:51.984Z</time></trkpt><trkpt lat="44.84773" lon="9.42119"><ele>879.0000000000001</ele><time>2026-04-18T08:28:52.983Z</time></trkpt><trkpt lat="44.8477283" lon="9.4210883"><ele>880.0</ele><time>2026-04-18T08:28:53.983Z</time></trkpt><trkpt lat="44.84773" lon="9.4209983"><ele>881.0</ele><time>2026-04-18T08:28:54.985Z</time></trkpt><trkpt lat="44.84774" lon="9.4208317"><ele>882.0</ele><time>2026-04-18T08:28:56.984Z</time></trkpt><trkpt lat="44.8477433" lon="9.4207283"><ele>883.0000000000001</ele><time>2026-04-18T08:28:57.985Z</time></trkpt><trkpt lat="44.8477417" lon="9.420615"><ele>884.0</ele><time>2026-04-18T08:28:58.985Z</time></trkpt><trkpt lat="44.84774" lon="9.4205017"><ele>883.8000000000001</ele><time>2026-04-18T08:28:59.984Z</time></trkpt><trkpt lat="44.84775" lon="9.4204117"><ele>883.6000000000001</ele><time>2026-04-18T08:29:00.984Z</time></trkpt><trkpt lat="44.84782" lon="9.420255"><ele>883.4</ele><time>2026-04-18T08:29:02.984Z</time></trkpt><trkpt lat="44.84788" lon="9.4201883"><ele>883.2</ele><time>2026-04-18T08:29:03.983Z</time></trkpt><trkpt lat="44.847935" lon="9.4201417"><ele>883.0</ele><time>2026-04-18T08:29:04.982Z</time></trkpt><trkpt lat="44.8480183" lon="9.42002"><ele>883.0</ele><time>2026-04-18T08:29:06.984Z</time></trkpt><trkpt lat="44.84806" lon="9.41993"><ele>883.0</ele><time>2026-04-18T08:29:07.983Z</time></trkpt><trkpt lat="44.8481033" lon="9.4198483"><ele>883.0</ele><time>2026-04-18T08:29:08.983Z</time></trkpt><trkpt lat="44.8481517" lon="9.4197817"><ele>883.0</ele><time>2026-04-18T08:29:09.985Z</time></trkpt><trkpt lat="44.8482033" lon="9.4197167"><ele>883.0</ele><time>2026-04-18T08:29:10.984Z</time></trkpt><trkpt lat="44.8482567" lon="9.419645"><ele>883.0</ele><time>2026-04-18T08:29:11.985Z</time></trkpt><trkpt lat="44.8483033" lon="9.4195683"><ele>883.0</ele><time>2026-04-18T08:29:12.986Z</time></trkpt><trkpt lat="44.8483267" lon="9.4194383"><ele>882.8</ele><time>2026-04-18T08:29:14.985Z</time></trkpt><trkpt lat="44.8483183" lon="9.419285"><ele>882.5999999999999</ele><time>2026-04-18T08:29:16.983Z</time></trkpt><trkpt lat="44.848375" lon="9.419135"><ele>882.4000000000001</ele><time>2026-04-18T08:29:18.983Z</time></trkpt><trkpt lat="44.848425" lon="9.4190717"><ele>882.2</ele><time>2026-04-18T08:29:19.984Z</time></trkpt><trkpt lat="44.8484817" lon="9.41902"><ele>882.0</ele><time>2026-04-18T08:29:20.984Z</time></trkpt><trkpt lat="44.8485667" lon="9.4189133"><ele>886.6666666666666</ele><time>2026-04-18T08:29:22.985Z</time></trkpt><trkpt lat="44.8485767" lon="9.418795"><ele>891.3333333333333</ele><time>2026-04-18T08:29:24.985Z</time></trkpt><trkpt lat="44.8485433" lon="9.4186633"><ele>896.0</ele><time>2026-04-18T08:29:26.983Z</time></trkpt><trkpt lat="44.8484983" lon="9.41857"><ele>900.6666666666666</ele><time>2026-04-18T08:29:28.982Z</time></trkpt><trkpt lat="44.84846" lon="9.4184467"><ele>905.3333333333333</ele><time>2026-04-18T08:29:33.983Z</time></trkpt><trkpt lat="44.8484867" lon="9.4183367"><ele>910.0</ele><time>2026-04-18T08:29:35.983Z</time></trkpt><trkpt lat="44.848555" lon="9.4181983"><ele>909.9999999999999</ele><time>2026-04-18T08:29:37.984Z</time></trkpt><trkpt lat="44.8485983" lon="9.4181183"><ele>910.0</ele><time>2026-04-18T08:29:38.984Z</time></trkpt><trkpt lat="44.8486417" lon="9.41805"><ele>910.0</ele><time>2026-04-18T08:29:39.983Z</time></trkpt><trkpt lat="44.84869" lon="9.41799"><ele>910.0</ele><time>2026-04-18T08:29:40.984Z</time></trkpt><trkpt lat="44.8487417" lon="9.4179367"><ele>909.9999999999999</ele><time>2026-04-18T08:29:41.984Z</time></trkpt><trkpt lat="44.848845" lon="9.4178367"><ele>910.0</ele><time>2026-04-18T08:29:43.983Z</time></trkpt><trkpt lat="44.8489" lon="9.417765"><ele>909.9999999999999</ele><time>2026-04-18T08:29:44.984Z</time></trkpt><trkpt lat="44.8489533" lon="9.41769"><ele>910.0</ele><time>2026-04-18T08:29:45.983Z</time></trkpt><trkpt lat="44.8490067" lon="9.4176333"><ele>910.0</ele><time>2026-04-18T08:29:46.983Z</time></trkpt><trkpt lat="44.8491033" lon="9.41759"><ele>910.0</ele><time>2026-04-18T08:29:48.984Z</time></trkpt><trkpt lat="44.8491817" lon="9.41754"><ele>909.9999999999999</ele><time>2026-04-18T08:29:51.983Z</time></trkpt><trkpt lat="44.8492117" lon="9.4174567"><ele>910.0</ele><time>2026-04-18T08:29:53.983Z</time></trkpt><trkpt lat="44.8492467" lon="9.4173633"><ele>912.4</ele><time>2026-04-18T08:29:55.984Z</time></trkpt><trkpt lat="44.8493067" lon="9.4173117"><ele>914.8</ele><time>2026-04-18T08:29:57.983Z</time></trkpt><trkpt lat="44.8493967" lon="9.4173167"><ele>917.2</ele><time>2026-04-18T08:29:59.983Z</time></trkpt><trkpt lat="44.8494883" lon="9.4173833"><ele>919.6</ele><time>2026-04-18T08:30:01.984Z</time></trkpt><trkpt lat="44.84959" lon="9.4174567"><ele>922.0</ele><time>2026-04-18T08:30:03.983Z</time></trkpt><trkpt lat="44.8496867" lon="9.41755"><ele>922.0</ele><time>2026-04-18T08:30:05.984Z</time></trkpt><trkpt lat="44.8497667" lon="9.417645"><ele>922.0</ele><time>2026-04-18T08:30:07.983Z</time></trkpt><trkpt lat="44.8498633" lon="9.4177167"><ele>922.0</ele><time>2026-04-18T08:30:09.984Z</time></trkpt><trkpt lat="44.84997" lon="9.4177483"><ele>922.0</ele><time>2026-04-18T08:30:11.984Z</time></trkpt><trkpt lat="44.8500767" lon="9.417745"><ele>922.0</ele><time>2026-04-18T08:30:13.983Z</time></trkpt><trkpt lat="44.8501917" lon="9.4177133"><ele>923.8</ele><time>2026-04-18T08:30:15.984Z</time></trkpt><trkpt lat="44.8503067" lon="9.417545"><ele>925.6</ele><time>2026-04-18T08:30:50.984Z</time></trkpt><trkpt lat="44.8502933" lon="9.4174567"><ele>927.3999999999999</ele><time>2026-04-18T08:30:51.982Z</time></trkpt><trkpt lat="44.8502867" lon="9.417365"><ele>929.1999999999999</ele><time>2026-04-18T08:30:52.983Z</time></trkpt><trkpt lat="44.85029" lon="9.4172583"><ele>931.0</ele><time>2026-04-18T08:30:53.985Z</time></trkpt><trkpt lat="44.850315" lon="9.4171417"><ele>927.9999999999999</ele><time>2026-04-18T08:30:54.984Z</time></trkpt><trkpt lat="44.8503367" lon="9.4170283"><ele>925.0</ele><time>2026-04-18T08:30:55.983Z</time></trkpt><trkpt lat="44.85036" lon="9.4169267"><ele>922.0</ele><time>2026-04-18T08:30:56.984Z</time></trkpt><trkpt lat="44.8503833" lon="9.4168367"><ele>919.0</ele><time>2026-04-18T08:30:57.982Z</time></trkpt><trkpt lat="44.8504117" lon="9.4167267"><ele>915.9999999999999</ele><time>2026-04-18T08:30:59.984Z</time></trkpt><trkpt lat="44.85049" lon="9.4166583"><ele>913.0</ele><time>2026-04-18T08:31:05.983Z</time></trkpt><trkpt lat="44.8506" lon="9.4166967"><ele>912.9999999999999</ele><time>2026-04-18T08:31:08.983Z</time></trkpt><trkpt lat="44.8507033" lon="9.4167483"><ele>913.0</ele><time>2026-04-18T08:31:10.984Z</time></trkpt><trkpt lat="44.8507583" lon="9.4167933"><ele>913.0</ele><time>2026-04-18T08:31:11.984Z</time></trkpt><trkpt lat="44.85081" lon="9.4168483"><ele>913.0</ele><time>2026-04-18T08:31:12.984Z</time></trkpt><trkpt lat="44.8508683" lon="9.4169067"><ele>912.9999999999999</ele><time>2026-04-18T08:31:13.983Z</time></trkpt><trkpt lat="44.8509267" lon="9.4169767"><ele>913.0</ele><time>2026-04-18T08:31:14.984Z</time></trkpt><trkpt lat="44.8509783" lon="9.41705"><ele>913.1666666666666</ele><time>2026-04-18T08:31:15.983Z</time></trkpt><trkpt lat="44.8510633" lon="9.4171483"><ele>913.3333333333333</ele><time>2026-04-18T08:31:17.983Z</time></trkpt><trkpt lat="44.8511317" lon="9.4171817"><ele>913.5</ele><time>2026-04-18T08:31:19.982Z</time></trkpt><trkpt lat="44.85124" lon="9.4172083"><ele>913.6666666666667</ele><time>2026-04-18T08:31:21.983Z</time></trkpt><trkpt lat="44.85131" lon="9.4172033"><ele>913.8333333333334</ele><time>2026-04-18T08:31:22.984Z</time></trkpt><trkpt lat="44.8513783" lon="9.4171817"><ele>914.0</ele><time>2026-04-18T08:31:23.984Z</time></trkpt><trkpt lat="44.8514417" lon="9.4171533"><ele>914.0000000000001</ele><time>2026-04-18T08:31:24.985Z</time></trkpt><trkpt lat="44.85151" lon="9.4171233"><ele>914.0</ele><time>2026-04-18T08:31:25.983Z</time></trkpt><trkpt lat="44.85158" lon="9.4171017"><ele>914.0000000000001</ele><time>2026-04-18T08:31:26.986Z</time></trkpt><trkpt lat="44.851655" lon="9.4170783"><ele>914.0000000000001</ele><time>2026-04-18T08:31:27.986Z</time></trkpt><trkpt lat="44.8517183" lon="9.417055"><ele>914.0</ele><time>2026-04-18T08:31:28.986Z</time></trkpt><trkpt lat="44.8517817" lon="9.4170317"><ele>914.0000000000001</ele><time>2026-04-18T08:31:29.984Z</time></trkpt><trkpt lat="44.8518417" lon="9.4170033"><ele>914.0000000000001</ele><time>2026-04-18T08:31:30.987Z</time></trkpt><trkpt lat="44.851945" lon="9.4169633"><ele>914.6</ele><time>2026-04-18T08:31:32.986Z</time></trkpt><trkpt lat="44.8520483" lon="9.4169617"><ele>915.2</ele><time>2026-04-18T08:31:34.984Z</time></trkpt><trkpt lat="44.8521467" lon="9.4169783"><ele>915.8000000000001</ele><time>2026-04-18T08:31:36.985Z</time></trkpt><trkpt lat="44.8522333" lon="9.4169833"><ele>916.4000000000001</ele><time>2026-04-18T08:31:38.988Z</time></trkpt><trkpt lat="44.8523367" lon="9.4169617"><ele>917.0</ele><time>2026-04-18T08:31:40.985Z</time></trkpt><trkpt lat="44.852455" lon="9.41696"><ele>917.0</ele><time>2026-04-18T08:31:42.986Z</time></trkpt><trkpt lat="44.8525683" lon="9.4169767"><ele>917.0</ele><time>2026-04-18T08:31:44.986Z</time></trkpt><trkpt lat="44.85268" lon="9.4169833"><ele>917.0</ele><time>2026-04-18T08:31:46.984Z</time></trkpt><trkpt lat="44.8527783" lon="9.4169517"><ele>917.0</ele><time>2026-04-18T08:31:48.986Z</time></trkpt><trkpt lat="44.8528683" lon="9.4168783"><ele>917.0</ele><time>2026-04-18T08:31:50.985Z</time></trkpt><trkpt lat="44.85297" lon="9.416865"><ele>914.8</ele><time>2026-04-18T08:31:52.984Z</time></trkpt><trkpt lat="44.8530683" lon="9.416845"><ele>912.6</ele><time>2026-04-18T08:31:54.983Z</time></trkpt><trkpt lat="44.8531483" lon="9.416885"><ele>910.3999999999999</ele><time>2026-04-18T08:31:57.985Z</time></trkpt><trkpt lat="44.853225" lon="9.4169083"><ele>908.1999999999999</ele><time>2026-04-18T08:32:00.985Z</time></trkpt><trkpt lat="44.8533783" lon="9.4170317"><ele>906.0</ele><time>2026-04-18T08:32:22.984Z</time></trkpt><trkpt lat="44.8534433" lon="9.4171067"><ele>905.0</ele><time>2026-04-18T08:32:25.984Z</time></trkpt><trkpt lat="44.8534967" lon="9.417165"><ele>904.0</ele><time>2026-04-18T08:32:28.985Z</time></trkpt><trkpt lat="44.853585" lon="9.417205"><ele>903.0</ele><time>2026-04-18T08:32:31.983Z</time></trkpt><trkpt lat="44.8536683" lon="9.4171567"><ele>902.0</ele><time>2026-04-18T08:32:33.984Z</time></trkpt><trkpt lat="44.853775" lon="9.4171117"><ele>901.0</ele><time>2026-04-18T08:32:35.986Z</time></trkpt><trkpt lat="44.8538383" lon="9.4170833"><ele>900.0</ele><time>2026-04-18T08:32:36.986Z</time></trkpt><trkpt lat="44.8539067" lon="9.4170567"><ele>900.0</ele><time>2026-04-18T08:32:37.985Z</time></trkpt><trkpt lat="44.8539683" lon="9.4170167"><ele>900.0</ele><time>2026-04-18T08:32:38.986Z</time></trkpt><trkpt lat="44.8540283" lon="9.4169667"><ele>900.0</ele><time>2026-04-18T08:32:39.985Z</time></trkpt><trkpt lat="44.85413" lon="9.4168967"><ele>900.0</ele><time>2026-04-18T08:32:41.985Z</time></trkpt><trkpt lat="44.8542033" lon="9.41689"><ele>900.0</ele><time>2026-04-18T08:32:43.983Z</time></trkpt><trkpt lat="44.85427" lon="9.4169667"><ele>900.0</ele><time>2026-04-18T08:32:45.984Z</time></trkpt><trkpt lat="44.8543667" lon="9.4169817"><ele>898.0</ele><time>2026-04-18T08:32:47.984Z</time></trkpt><trkpt lat="44.85444" lon="9.416995"><ele>896.0</ele><time>2026-04-18T08:32:49.982Z</time></trkpt><trkpt lat="44.8545133" lon="9.41694"><ele>894.0</ele><time>2026-04-18T08:32:59.984Z</time></trkpt><trkpt lat="44.854555" lon="9.4168533"><ele>892.0</ele><time>2026-04-18T08:33:01.985Z</time></trkpt><trkpt lat="44.8545817" lon="9.4167217"><ele>890.0</ele><time>2026-04-18T08:33:03.984Z</time></trkpt><trkpt lat="44.8545917" lon="9.4165617"><ele>888.0</ele><time>2026-04-18T08:33:05.984Z</time></trkpt><trkpt lat="44.854615" lon="9.4164267"><ele>888.0</ele><time>2026-04-18T08:33:07.987Z</time></trkpt><trkpt lat="44.854665" lon="9.416345"><ele>888.0</ele><time>2026-04-18T08:33:09.986Z</time></trkpt><trkpt lat="44.85472" lon="9.4162417"><ele>888.0</ele><time>2026-04-18T08:33:12.984Z</time></trkpt><trkpt lat="44.8547583" lon="9.416155"><ele>888.0</ele><time>2026-04-18T08:33:14.984Z</time></trkpt><trkpt lat="44.8548" lon="9.4160617"><ele>888.0</ele><time>2026-04-18T08:33:16.983Z</time></trkpt><trkpt lat="44.854855" lon="9.4159483"><ele>888.0</ele><time>2026-04-18T08:33:18.985Z</time></trkpt><trkpt lat="44.8549" lon="9.4158333"><ele>886.5999999999999</ele><time>2026-04-18T08:33:20.99Z</time></trkpt><trkpt lat="44.85492" lon="9.4156883"><ele>885.1999999999999</ele><time>2026-04-18T08:33:22.985Z</time></trkpt><trkpt lat="44.8549367" lon="9.415555"><ele>883.8</ele><time>2026-04-18T08:33:24.984Z</time></trkpt><trkpt lat="44.8549783" lon="9.41542"><ele>882.4</ele><time>2026-04-18T08:33:26.985Z</time></trkpt><trkpt lat="44.8550433" lon="9.4153117"><ele>881.0</ele><time>2026-04-18T08:33:28.984Z</time></trkpt><trkpt lat="44.85509" lon="9.415205"><ele>879.0000000000001</ele><time>2026-04-18T08:33:30.985Z</time></trkpt><trkpt lat="44.8550917" lon="9.4150917"><ele>877.0</ele><time>2026-04-18T08:33:32.986Z</time></trkpt><trkpt lat="44.8550467" lon="9.4150017"><ele>875.0</ele><time>2026-04-18T08:33:35.988Z</time></trkpt><trkpt lat="44.85502" lon="9.4149067"><ele>873.0</ele><time>2026-04-18T08:33:38.987Z</time></trkpt><trkpt lat="44.8550183" lon="9.4148"><ele>871.0000000000001</ele><time>2026-04-18T08:33:40.984Z</time></trkpt><trkpt lat="44.855005" lon="9.4146883"><ele>869.0</ele><time>2026-04-18T08:33:43.984Z</time></trkpt><trkpt lat="44.8549833" lon="9.4146033"><ele>867.2857142857143</ele><time>2026-04-18T08:33:45.985Z</time></trkpt><trkpt lat="44.85495" lon="9.4145183"><ele>865.5714285714286</ele><time>2026-04-18T08:33:47.984Z</time></trkpt><trkpt lat="44.854895" lon="9.414455"><ele>863.8571428571429</ele><time>2026-04-18T08:33:49.985Z</time></trkpt><trkpt lat="44.8548367" lon="9.41439"><ele>862.1428571428571</ele><time>2026-04-18T08:33:51.983Z</time></trkpt><trkpt lat="44.8548017" lon="9.4143133"><ele>860.4285714285713</ele><time>2026-04-18T08:33:53.985Z</time></trkpt><trkpt lat="44.854735" lon="9.41428"><ele>858.7142857142857</ele><time>2026-04-18T08:33:56.983Z</time></trkpt><trkpt lat="44.85467" lon="9.41425"><ele>857.0</ele><time>2026-04-18T08:34:05.986Z</time></trkpt><trkpt lat="44.8545883" lon="9.4141967"><ele>857.0000000000001</ele><time>2026-04-18T08:34:08.985Z</time></trkpt><trkpt lat="44.8545133" lon="9.4141233"><ele>857.0</ele><time>2026-04-18T08:34:11.985Z</time></trkpt><trkpt lat="44.8544217" lon="9.41411"><ele>857.0</ele><time>2026-04-18T08:34:15.984Z</time></trkpt><trkpt lat="44.8543533" lon="9.41416"><ele>857.0</ele><time>2026-04-18T08:34:17.986Z</time></trkpt><trkpt lat="44.8543017" lon="9.4142317"><ele>857.0000000000001</ele><time>2026-04-18T08:34:20.984Z</time></trkpt><trkpt lat="44.8542633" lon="9.4143333"><ele>857.0</ele><time>2026-04-18T08:34:23.985Z</time></trkpt><trkpt lat="44.8541633" lon="9.41441"><ele>853.5000000000001</ele><time>2026-04-18T08:34:37.985Z</time></trkpt><trkpt lat="44.8540917" lon="9.41443"><ele>850.0</ele><time>2026-04-18T08:34:42.984Z</time></trkpt><trkpt lat="44.85402" lon="9.4144333"><ele>846.5</ele><time>2026-04-18T08:34:44.984Z</time></trkpt><trkpt lat="44.8539533" lon="9.4144567"><ele>843.0</ele><time>2026-04-18T08:34:46.984Z</time></trkpt><trkpt lat="44.8538783" lon="9.414525"><ele>839.5000000000001</ele><time>2026-04-18T08:34:48.985Z</time></trkpt><trkpt lat="44.8538167" lon="9.4146233"><ele>836.0</ele><time>2026-04-18T08:34:50.984Z</time></trkpt><trkpt lat="44.8537433" lon="9.4146467"><ele>836.0</ele><time>2026-04-18T08:34:52.984Z</time></trkpt><trkpt lat="44.8536717" lon="9.414545"><ele>836.0</ele><time>2026-04-18T08:34:54.983Z</time></trkpt><trkpt lat="44.8536183" lon="9.4144067"><ele>836.0</ele><time>2026-04-18T08:34:56.983Z</time></trkpt><trkpt lat="44.853545" lon="9.4142683"><ele>836.0</ele><time>2026-04-18T08:34:58.982Z</time></trkpt><trkpt lat="44.8534783" lon="9.4141333"><ele>834.3333333333334</ele><time>2026-04-18T08:35:00.984Z</time></trkpt><trkpt lat="44.8534017" lon="9.4140383"><ele>832.6666666666667</ele><time>2026-04-18T08:35:02.985Z</time></trkpt><trkpt lat="44.8533333" lon="9.4140217"><ele>831.0</ele><time>2026-04-18T08:35:04.984Z</time></trkpt><trkpt lat="44.85326" lon="9.4140467"><ele>829.3333333333333</ele><time>2026-04-18T08:35:06.983Z</time></trkpt><trkpt lat="44.8531733" lon="9.41407"><ele>827.6666666666666</ele><time>2026-04-18T08:35:08.985Z</time></trkpt><trkpt lat="44.8530667" lon="9.4140417"><ele>826.0</ele><time>2026-04-18T08:35:10.983Z</time></trkpt><trkpt lat="44.8530167" lon="9.4139817"><ele>825.9999999999999</ele><time>2026-04-18T08:35:11.983Z</time></trkpt><trkpt lat="44.8529283" lon="9.4138433"><ele>826.0</ele><time>2026-04-18T08:35:13.984Z</time></trkpt><trkpt lat="44.8528817" lon="9.4137817"><ele>826.0</ele><time>2026-04-18T08:35:14.983Z</time></trkpt><trkpt lat="44.8528233" lon="9.4137233"><ele>826.0</ele><time>2026-04-18T08:35:15.983Z</time></trkpt><trkpt lat="44.8527617" lon="9.4136617"><ele>825.9999999999999</ele><time>2026-04-18T08:35:16.984Z</time></trkpt><trkpt lat="44.8527067" lon="9.4135883"><ele>826.0</ele><time>2026-04-18T08:35:17.985Z</time></trkpt><trkpt lat="44.8526567" lon="9.4135167"><ele>823.9999999999999</ele><time>2026-04-18T08:35:18.985Z</time></trkpt><trkpt lat="44.8526017" lon="9.413445"><ele>822.0</ele><time>2026-04-18T08:35:19.985Z</time></trkpt><trkpt lat="44.8525367" lon="9.413375"><ele>820.0</ele><time>2026-04-18T08:35:20.984Z</time></trkpt><trkpt lat="44.85248" lon="9.4132933"><ele>818.0</ele><time>2026-04-18T08:35:21.985Z</time></trkpt><trkpt lat="44.8524317" lon="9.413215"><ele>815.9999999999999</ele><time>2026-04-18T08:35:22.983Z</time></trkpt><trkpt lat="44.8523867" lon="9.4131317"><ele>814.0</ele><time>2026-04-18T08:35:23.984Z</time></trkpt><trkpt lat="44.85234" lon="9.4130667"><ele>814.0</ele><time>2026-04-18T08:35:24.984Z</time></trkpt><trkpt lat="44.852245" lon="9.4130117"><ele>814.0</ele><time>2026-04-18T08:35:26.985Z</time></trkpt><trkpt lat="44.8521683" lon="9.413055"><ele>814.0</ele><time>2026-04-18T08:35:28.983Z</time></trkpt><trkpt lat="44.8520433" lon="9.4131517"><ele>814.0</ele><time>2026-04-18T08:35:56.983Z</time></trkpt><trkpt lat="44.8519783" lon="9.4130867"><ele>814.0</ele><time>2026-04-18T08:36:01.982Z</time></trkpt><trkpt lat="44.8519717" lon="9.412985"><ele>813.6666666666666</ele><time>2026-04-18T08:36:03.983Z</time></trkpt><trkpt lat="44.8519417" lon="9.4128767"><ele>813.3333333333333</ele><time>2026-04-18T08:36:05.983Z</time></trkpt><trkpt lat="44.8519083" lon="9.4127983"><ele>813.0</ele><time>2026-04-18T08:36:06.983Z</time></trkpt><trkpt lat="44.8518633" lon="9.4127067"><ele>812.6666666666667</ele><time>2026-04-18T08:36:07.983Z</time></trkpt><trkpt lat="44.8518233" lon="9.4125967"><ele>812.3333333333334</ele><time>2026-04-18T08:36:08.983Z</time></trkpt><trkpt lat="44.85179" lon="9.4124833"><ele>812.0</ele><time>2026-04-18T08:36:09.982Z</time></trkpt><trkpt lat="44.85176" lon="9.4123783"><ele>812.0000000000001</ele><time>2026-04-18T08:36:10.983Z</time></trkpt><trkpt lat="44.851725" lon="9.4122867"><ele>812.0</ele><time>2026-04-18T08:36:11.983Z</time></trkpt><trkpt lat="44.8516883" lon="9.4122117"><ele>812.0</ele><time>2026-04-18T08:36:12.982Z</time></trkpt><trkpt lat="44.8516333" lon="9.4120783"><ele>812.0</ele><time>2026-04-18T08:36:14.984Z</time></trkpt><trkpt lat="44.8516117" lon="9.4119767"><ele>812.0000000000001</ele><time>2026-04-18T08:36:16.984Z</time></trkpt><trkpt lat="44.8515833" lon="9.411895"><ele>812.0</ele><time>2026-04-18T08:36:18.984Z</time></trkpt><trkpt lat="44.8515467" lon="9.41181"><ele>808.8333333333334</ele><time>2026-04-18T08:36:21.982Z</time></trkpt><trkpt lat="44.85158" lon="9.411695"><ele>805.6666666666667</ele><time>2026-04-18T08:36:28.985Z</time></trkpt><trkpt lat="44.851655" lon="9.411685"><ele>802.5</ele><time>2026-04-18T08:36:31.983Z</time></trkpt><trkpt lat="44.85174" lon="9.4116333"><ele>799.3333333333333</ele><time>2026-04-18T08:36:33.984Z</time></trkpt><trkpt lat="44.851795" lon="9.411585"><ele>796.1666666666666</ele><time>2026-04-18T08:36:34.982Z</time></trkpt><trkpt lat="44.8518567" lon="9.411535"><ele>793.0</ele><time>2026-04-18T08:36:35.983Z</time></trkpt><trkpt lat="44.8519233" lon="9.4114817"><ele>788.8</ele><time>2026-04-18T08:36:36.983Z</time></trkpt><trkpt lat="44.8520317" lon="9.4114017"><ele>784.5999999999999</ele><time>2026-04-18T08:36:38.984Z</time></trkpt><trkpt lat="44.8521433" lon="9.41134"><ele>780.4000000000001</ele><time>2026-04-18T08:36:40.985Z</time></trkpt><trkpt lat="44.8522483" lon="9.4113183"><ele>776.2</ele><time>2026-04-18T08:36:42.983Z</time></trkpt><trkpt lat="44.8523233" lon="9.41133"><ele>772.0</ele><time>2026-04-18T08:36:44.983Z</time></trkpt><trkpt lat="44.8523967" lon="9.4113267"><ele>771.0</ele><time>2026-04-18T08:36:46.982Z</time></trkpt><trkpt lat="44.8524967" lon="9.41125"><ele>770.0</ele><time>2026-04-18T08:36:48.985Z</time></trkpt><trkpt lat="44.8526017" lon="9.411155"><ele>769.0</ele><time>2026-04-18T08:36:50.985Z</time></trkpt><trkpt lat="44.8527117" lon="9.411085"><ele>768.0</ele><time>2026-04-18T08:36:52.985Z</time></trkpt><trkpt lat="44.852775" lon="9.4110633"><ele>767.0</ele><time>2026-04-18T08:36:53.985Z</time></trkpt><trkpt lat="44.8528383" lon="9.4110517"><ele>764.5</ele><time>2026-04-18T08:36:54.984Z</time></trkpt><trkpt lat="44.8529033" lon="9.4110417"><ele>762.0</ele><time>2026-04-18T08:36:55.982Z</time></trkpt><trkpt lat="44.8530233" lon="9.4109817"><ele>759.5</ele><time>2026-04-18T08:36:57.982Z</time></trkpt><trkpt lat="44.8530817" lon="9.4109383"><ele>757.0</ele><time>2026-04-18T08:36:58.984Z</time></trkpt><trkpt lat="44.8531433" lon="9.41088"><ele>754.5</ele><time>2026-04-18T08:36:59.984Z</time></trkpt><trkpt lat="44.8531983" lon="9.410805"><ele>752.0</ele><time>2026-04-18T08:37:00.985Z</time></trkpt><trkpt lat="44.8532467" lon="9.4107183"><ele>752.0</ele><time>2026-04-18T08:37:01.985Z</time></trkpt><trkpt lat="44.8532833" lon="9.4106417"><ele>752.0</ele><time>2026-04-18T08:37:02.983Z</time></trkpt><trkpt lat="44.8533133" lon="9.41051"><ele>752.0</ele><time>2026-04-18T08:37:04.983Z</time></trkpt><trkpt lat="44.8532917" lon="9.4104167"><ele>752.0</ele><time>2026-04-18T08:37:06.984Z</time></trkpt><trkpt lat="44.8531933" lon="9.410335"><ele>752.0</ele><time>2026-04-18T08:37:08.983Z</time></trkpt><trkpt lat="44.853135" lon="9.410295"><ele>752.0</ele><time>2026-04-18T08:37:09.982Z</time></trkpt><trkpt lat="44.8530317" lon="9.41022"><ele>749.5</ele><time>2026-04-18T08:37:11.984Z</time></trkpt><trkpt lat="44.8529683" lon="9.41012"><ele>747.0</ele><time>2026-04-18T08:37:13.982Z</time></trkpt><trkpt lat="44.8529533" lon="9.4099533"><ele>744.5</ele><time>2026-04-18T08:37:15.983Z</time></trkpt><trkpt lat="44.8529483" lon="9.4098633"><ele>742.0</ele><time>2026-04-18T08:37:16.984Z</time></trkpt><trkpt lat="44.8529367" lon="9.4097733"><ele>739.5</ele><time>2026-04-18T08:37:17.985Z</time></trkpt><trkpt lat="44.8529267" lon="9.4096833"><ele>737.0</ele><time>2026-04-18T08:37:18.984Z</time></trkpt><trkpt lat="44.85292" lon="9.4095067"><ele>733.8</ele><time>2026-04-18T08:37:20.984Z</time></trkpt><trkpt lat="44.852915" lon="9.4094133"><ele>730.6</ele><time>2026-04-18T08:37:21.984Z</time></trkpt><trkpt lat="44.8529267" lon="9.4092483"><ele>727.4</ele><time>2026-04-18T08:37:23.986Z</time></trkpt><trkpt lat="44.85292" lon="9.4090833"><ele>724.1999999999999</ele><time>2026-04-18T08:37:25.982Z</time></trkpt><trkpt lat="44.8528817" lon="9.40897"><ele>721.0</ele><time>2026-04-18T08:37:27.982Z</time></trkpt><trkpt lat="44.8528433" lon="9.4088633"><ele>720.5</ele><time>2026-04-18T08:37:29.984Z</time></trkpt><trkpt lat="44.8528333" lon="9.4087317"><ele>720.0</ele><time>2026-04-18T08:37:31.984Z</time></trkpt><trkpt lat="44.8528517" lon="9.4086333"><ele>719.5</ele><time>2026-04-18T08:37:33.983Z</time></trkpt><trkpt lat="44.8529033" lon="9.4085433"><ele>719.0</ele><time>2026-04-18T08:37:35.984Z</time></trkpt><trkpt lat="44.8529383" lon="9.408415"><ele>718.5</ele><time>2026-04-18T08:37:37.983Z</time></trkpt><trkpt lat="44.8529167" lon="9.4083067"><ele>718.0</ele><time>2026-04-18T08:37:39.983Z</time></trkpt><trkpt lat="44.852855" lon="9.40823"><ele>718.0</ele><time>2026-04-18T08:37:41.982Z</time></trkpt><trkpt lat="44.8528283" lon="9.40811"><ele>718.0</ele><time>2026-04-18T08:37:44.983Z</time></trkpt><trkpt lat="44.85283" lon="9.4079983"><ele>718.0</ele><time>2026-04-18T08:37:46.983Z</time></trkpt><trkpt lat="44.85287" lon="9.4078933"><ele>718.0</ele><time>2026-04-18T08:37:48.982Z</time></trkpt><trkpt lat="44.8529033" lon="9.4077617"><ele>718.0</ele><time>2026-04-18T08:37:50.984Z</time></trkpt><trkpt lat="44.852925" lon="9.40763"><ele>718.0</ele><time>2026-04-18T08:37:52.983Z</time></trkpt><trkpt lat="44.85296" lon="9.4074917"><ele>719.0</ele><time>2026-04-18T08:37:54.983Z</time></trkpt><trkpt lat="44.8530317" lon="9.407355"><ele>720.0</ele><time>2026-04-18T08:37:56.983Z</time></trkpt><trkpt lat="44.8531017" lon="9.4072317"><ele>721.0</ele><time>2026-04-18T08:37:58.982Z</time></trkpt><trkpt lat="44.853165" lon="9.4071133"><ele>722.0</ele><time>2026-04-18T08:38:00.984Z</time></trkpt><trkpt lat="44.853245" lon="9.4069783"><ele>721.1666666666666</ele><time>2026-04-18T08:38:02.985Z</time></trkpt><trkpt lat="44.8532933" lon="9.4069083"><ele>720.3333333333333</ele><time>2026-04-18T08:38:03.984Z</time></trkpt><trkpt lat="44.8533483" lon="9.406845"><ele>719.5</ele><time>2026-04-18T08:38:04.984Z</time></trkpt><trkpt lat="44.853415" lon="9.4067917"><ele>718.6666666666666</ele><time>2026-04-18T08:38:05.983Z</time></trkpt><trkpt lat="44.8534783" lon="9.4067483"><ele>717.8333333333334</ele><time>2026-04-18T08:38:06.982Z</time></trkpt><trkpt lat="44.8535317" lon="9.4066983"><ele>717.0</ele><time>2026-04-18T08:38:07.983Z</time></trkpt><trkpt lat="44.853615" lon="9.4065567"><ele>717.0</ele><time>2026-04-18T08:38:09.983Z</time></trkpt><trkpt lat="44.85365" lon="9.4064683"><ele>717.0</ele><time>2026-04-18T08:38:10.983Z</time></trkpt><trkpt lat="44.8536917" lon="9.4063667"><ele>717.0</ele><time>2026-04-18T08:38:11.983Z</time></trkpt><trkpt lat="44.8537367" lon="9.4062667"><ele>717.0</ele><time>2026-04-18T08:38:12.982Z</time></trkpt><trkpt lat="44.85378" lon="9.4061683"><ele>717.0</ele><time>2026-04-18T08:38:13.983Z</time></trkpt><trkpt lat="44.8538117" lon="9.40608"><ele>717.0</ele><time>2026-04-18T08:38:14.984Z</time></trkpt><trkpt lat="44.8538267" lon="9.4059933"><ele>719.5</ele><time>2026-04-18T08:38:15.983Z</time></trkpt><trkpt lat="44.85383" lon="9.4058833"><ele>722.0</ele><time>2026-04-18T08:38:16.984Z</time></trkpt><trkpt lat="44.8538267" lon="9.40575"><ele>724.5</ele><time>2026-04-18T08:38:17.983Z</time></trkpt><trkpt lat="44.853835" lon="9.40562"><ele>727.0</ele><time>2026-04-18T08:38:18.985Z</time></trkpt><trkpt lat="44.8538467" lon="9.4054933"><ele>729.5</ele><time>2026-04-18T08:38:19.983Z</time></trkpt><trkpt lat="44.85386" lon="9.4053867"><ele>732.0</ele><time>2026-04-18T08:38:20.984Z</time></trkpt><trkpt lat="44.8538883" lon="9.405255"><ele>731.8</ele><time>2026-04-18T08:38:22.983Z</time></trkpt><trkpt lat="44.853945" lon="9.4052133"><ele>731.6</ele><time>2026-04-18T08:38:25.984Z</time></trkpt><trkpt lat="44.8540283" lon="9.4051767"><ele>731.4</ele><time>2026-04-18T08:42:05.987Z</time></trkpt><trkpt lat="44.8541617" lon="9.4050967"><ele>731.1999999999999</ele><time>2026-04-18T08:42:07.986Z</time></trkpt><trkpt lat="44.85424" lon="9.4050367"><ele>731.0</ele><time>2026-04-18T08:42:08.985Z</time></trkpt><trkpt lat="44.85432" lon="9.4049767"><ele>731.0</ele><time>2026-04-18T08:42:09.987Z</time></trkpt><trkpt lat="44.854395" lon="9.4049217"><ele>731.0</ele><time>2026-04-18T08:42:10.985Z</time></trkpt><trkpt lat="44.8544683" lon="9.4048583"><ele>731.0</ele><time>2026-04-18T08:42:11.987Z</time></trkpt><trkpt lat="44.8545433" lon="9.40479"><ele>731.0</ele><time>2026-04-18T08:42:12.986Z</time></trkpt><trkpt lat="44.8546167" lon="9.4047217"><ele>731.0</ele><time>2026-04-18T08:42:13.985Z</time></trkpt><trkpt lat="44.8546917" lon="9.4046517"><ele>731.0</ele><time>2026-04-18T08:42:14.987Z</time></trkpt><trkpt lat="44.8547633" lon="9.4045833"><ele>731.6666666666666</ele><time>2026-04-18T08:42:15.983Z</time></trkpt><trkpt lat="44.854835" lon="9.4045033"><ele>732.3333333333333</ele><time>2026-04-18T08:42:16.983Z</time></trkpt><trkpt lat="44.8548933" lon="9.4044317"><ele>733.0</ele><time>2026-04-18T08:42:17.983Z</time></trkpt><trkpt lat="44.8549467" lon="9.404365"><ele>733.6666666666666</ele><time>2026-04-18T08:42:18.984Z</time></trkpt><trkpt lat="44.8550067" lon="9.4043017"><ele>734.3333333333334</ele><time>2026-04-18T08:42:19.983Z</time></trkpt><trkpt lat="44.8550583" lon="9.4042483"><ele>735.0</ele><time>2026-04-18T08:42:20.985Z</time></trkpt><trkpt lat="44.8551517" lon="9.4041783"><ele>735.0</ele><time>2026-04-18T08:42:22.984Z</time></trkpt><trkpt lat="44.8552483" lon="9.4041333"><ele>735.0</ele><time>2026-04-18T08:42:24.984Z</time></trkpt><trkpt lat="44.8553267" lon="9.404045"><ele>735.0</ele><time>2026-04-18T08:42:26.984Z</time></trkpt><trkpt lat="44.855375" lon="9.4039717"><ele>735.0</ele><time>2026-04-18T08:42:28.985Z</time></trkpt><trkpt lat="44.8554517" lon="9.4038917"><ele>735.0</ele><time>2026-04-18T08:42:41.984Z</time></trkpt><trkpt lat="44.8555617" lon="9.4039283"><ele>735.0</ele><time>2026-04-18T08:42:43.983Z</time></trkpt><trkpt lat="44.855635" lon="9.4039483"><ele>735.0</ele><time>2026-04-18T08:42:44.984Z</time></trkpt><trkpt lat="44.855725" lon="9.4039683"><ele>735.0</ele><time>2026-04-18T08:42:45.984Z</time></trkpt><trkpt lat="44.8558167" lon="9.4040067"><ele>735.0</ele><time>2026-04-18T08:42:46.984Z</time></trkpt><trkpt lat="44.8559117" lon="9.4040533"><ele>735.0</ele><time>2026-04-18T08:42:47.982Z</time></trkpt><trkpt lat="44.8560033" lon="9.404095"><ele>736.2</ele><time>2026-04-18T08:42:48.984Z</time></trkpt><trkpt lat="44.8560917" lon="9.4041333"><ele>737.4</ele><time>2026-04-18T08:42:49.984Z</time></trkpt><trkpt lat="44.8561667" lon="9.404165"><ele>738.5999999999999</ele><time>2026-04-18T08:42:50.984Z</time></trkpt><trkpt lat="44.8562717" lon="9.4042833"><ele>739.8</ele><time>2026-04-18T08:42:52.984Z</time></trkpt><trkpt lat="44.8563617" lon="9.4044083"><ele>741.0</ele><time>2026-04-18T08:42:54.984Z</time></trkpt><trkpt lat="44.8564533" lon="9.4045317"><ele>741.0</ele><time>2026-04-18T08:42:56.983Z</time></trkpt><trkpt lat="44.8564917" lon="9.404615"><ele>741.0</ele><time>2026-04-18T08:42:57.983Z</time></trkpt><trkpt lat="44.8565767" lon="9.404705"><ele>741.0</ele><time>2026-04-18T08:42:59.984Z</time></trkpt><trkpt lat="44.856695" lon="9.4047383"><ele>741.0</ele><time>2026-04-18T08:43:01.983Z</time></trkpt><trkpt lat="44.8568083" lon="9.4047267"><ele>741.0</ele><time>2026-04-18T08:43:03.983Z</time></trkpt><trkpt lat="44.856915" lon="9.4046667"><ele>743.0</ele><time>2026-04-18T08:43:05.984Z</time></trkpt><trkpt lat="44.856975" lon="9.4046317"><ele>745.0</ele><time>2026-04-18T08:43:06.985Z</time></trkpt><trkpt lat="44.8570883" lon="9.4045583"><ele>747.0</ele><time>2026-04-18T08:43:08.984Z</time></trkpt><trkpt lat="44.85715" lon="9.404535"><ele>749.0</ele><time>2026-04-18T08:43:09.984Z</time></trkpt><trkpt lat="44.857215" lon="9.404525"><ele>751.0</ele><time>2026-04-18T08:43:10.983Z</time></trkpt><trkpt lat="44.8572817" lon="9.4044967"><ele>753.0</ele><time>2026-04-18T08:43:11.984Z</time></trkpt><trkpt lat="44.8573533" lon="9.4044383"><ele>753.0</ele><time>2026-04-18T08:43:12.984Z</time></trkpt><trkpt lat="44.8574083" lon="9.404375"><ele>753.0</ele><time>2026-04-18T08:43:13.982Z</time></trkpt><trkpt lat="44.8574733" lon="9.4043083"><ele>753.0</ele><time>2026-04-18T08:43:14.984Z</time></trkpt><trkpt lat="44.857535" lon="9.4042417"><ele>753.0</ele><time>2026-04-18T08:43:15.982Z</time></trkpt><trkpt lat="44.857595" lon="9.4041867"><ele>753.0</ele><time>2026-04-18T08:43:16.984Z</time></trkpt><trkpt lat="44.8576583" lon="9.4041433"><ele>753.0</ele><time>2026-04-18T08:43:17.984Z</time></trkpt><trkpt lat="44.85773" lon="9.4041033"><ele>753.0</ele><time>2026-04-18T08:43:18.983Z</time></trkpt><trkpt lat="44.8578017" lon="9.4040717"><ele>754.1666666666666</ele><time>2026-04-18T08:43:19.984Z</time></trkpt><trkpt lat="44.85787" lon="9.4040533"><ele>755.3333333333334</ele><time>2026-04-18T08:43:20.984Z</time></trkpt><trkpt lat="44.8579517" lon="9.4040367"><ele>756.5</ele><time>2026-04-18T08:43:21.984Z</time></trkpt><trkpt lat="44.858035" lon="9.404035"><ele>757.6666666666667</ele><time>2026-04-18T08:43:22.985Z</time></trkpt><trkpt lat="44.8581117" lon="9.4040383"><ele>758.8333333333334</ele><time>2026-04-18T08:43:23.983Z</time></trkpt><trkpt lat="44.858185" lon="9.404045"><ele>760.0</ele><time>2026-04-18T08:43:24.985Z</time></trkpt><trkpt lat="44.8582517" lon="9.40407"><ele>760.0</ele><time>2026-04-18T08:43:25.983Z</time></trkpt><trkpt lat="44.8583617" lon="9.40417"><ele>760.0</ele><time>2026-04-18T08:43:27.985Z</time></trkpt><trkpt lat="44.85842" lon="9.404235"><ele>760.0</ele><time>2026-04-18T08:43:28.988Z</time></trkpt><trkpt lat="44.8584833" lon="9.4043167"><ele>760.0</ele><time>2026-04-18T08:43:29.984Z</time></trkpt><trkpt lat="44.8585467" lon="9.4043967"><ele>760.0</ele><time>2026-04-18T08:43:30.984Z</time></trkpt><trkpt lat="44.8586133" lon="9.40447"><ele>758.5</ele><time>2026-04-18T08:43:31.985Z</time></trkpt><trkpt lat="44.8586733" lon="9.4045417"><ele>757.0</ele><time>2026-04-18T08:43:32.984Z</time></trkpt><trkpt lat="44.8587267" lon="9.4045983"><ele>755.5</ele><time>2026-04-18T08:43:33.984Z</time></trkpt><trkpt lat="44.858835" lon="9.4046717"><ele>754.0</ele><time>2026-04-18T08:43:35.984Z</time></trkpt><trkpt lat="44.8589" lon="9.4047"><ele>752.5</ele><time>2026-04-18T08:43:36.986Z</time></trkpt><trkpt lat="44.8589617" lon="9.4047367"><ele>751.0</ele><time>2026-04-18T08:43:37.986Z</time></trkpt><trkpt lat="44.859025" lon="9.40477"><ele>751.0000000000001</ele><time>2026-04-18T08:43:38.986Z</time></trkpt><trkpt lat="44.8590933" lon="9.4048"><ele>751.0</ele><time>2026-04-18T08:43:39.985Z</time></trkpt><trkpt lat="44.8591633" lon="9.404825"><ele>751.0</ele><time>2026-04-18T08:43:40.986Z</time></trkpt><trkpt lat="44.8592317" lon="9.404855"><ele>751.0</ele><time>2026-04-18T08:43:41.985Z</time></trkpt><trkpt lat="44.8593017" lon="9.4048883"><ele>751.0</ele><time>2026-04-18T08:43:42.984Z</time></trkpt><trkpt lat="44.8593683" lon="9.4049217"><ele>751.0000000000001</ele><time>2026-04-18T08:43:43.985Z</time></trkpt><trkpt lat="44.859435" lon="9.4049483"><ele>751.0</ele><time>2026-04-18T08:43:44.984Z</time></trkpt><trkpt lat="44.8595433" lon="9.404975"><ele>750.8333333333334</ele><time>2026-04-18T08:43:46.984Z</time></trkpt><trkpt lat="44.8596117" lon="9.4049833"><ele>750.6666666666667</ele><time>2026-04-18T08:43:48.984Z</time></trkpt><trkpt lat="44.859685" lon="9.40502"><ele>750.5</ele><time>2026-04-18T08:43:50.984Z</time></trkpt><trkpt lat="44.859775" lon="9.4050417"><ele>750.3333333333334</ele><time>2026-04-18T08:43:52.985Z</time></trkpt><trkpt lat="44.8598633" lon="9.4050183"><ele>750.1666666666666</ele><time>2026-04-18T08:43:54.983Z</time></trkpt><trkpt lat="44.8599383" lon="9.404975"><ele>750.0</ele><time>2026-04-18T08:43:56.986Z</time></trkpt><trkpt lat="44.86" lon="9.40495"><ele>750.0</ele><time>2026-04-18T08:43:58.983Z</time></trkpt><trkpt lat="44.860065" lon="9.4049367"><ele>750.0</ele><time>2026-04-18T08:44:00.984Z</time></trkpt><trkpt lat="44.8601333" lon="9.4049283"><ele>750.0</ele><time>2026-04-18T08:44:02.984Z</time></trkpt><trkpt lat="44.8602217" lon="9.4049433"><ele>750.0</ele><time>2026-04-18T08:44:04.984Z</time></trkpt><trkpt lat="44.8603133" lon="9.4049783"><ele>750.0</ele><time>2026-04-18T08:44:06.983Z</time></trkpt><trkpt lat="44.8604183" lon="9.4049817"><ele>750.0</ele><time>2026-04-18T08:44:08.983Z</time></trkpt><trkpt lat="44.8605083" lon="9.4049367"><ele>747.5714285714286</ele><time>2026-04-18T08:44:10.984Z</time></trkpt><trkpt lat="44.860575" lon="9.4049383"><ele>745.1428571428571</ele><time>2026-04-18T08:44:13.984Z</time></trkpt><trkpt lat="44.8605883" lon="9.4050417"><ele>742.7142857142857</ele><time>2026-04-18T08:44:16.984Z</time></trkpt><trkpt lat="44.8605933" lon="9.4051583"><ele>740.2857142857142</ele><time>2026-04-18T08:44:19.984Z</time></trkpt><trkpt lat="44.8606117" lon="9.4052483"><ele>737.8571428571429</ele><time>2026-04-18T08:44:21.983Z</time></trkpt><trkpt lat="44.8606283" lon="9.4053383"><ele>735.4285714285713</ele><time>2026-04-18T08:44:23.983Z</time></trkpt><trkpt lat="44.8606517" lon="9.4054617"><ele>733.0</ele><time>2026-04-18T08:44:26.984Z</time></trkpt><trkpt lat="44.860705" lon="9.40554"><ele>733.0</ele><time>2026-04-18T08:44:29.983Z</time></trkpt><trkpt lat="44.8607967" lon="9.4055217"><ele>733.0</ele><time>2026-04-18T08:44:32.983Z</time></trkpt><trkpt lat="44.8608433" lon="9.4054583"><ele>733.0</ele><time>2026-04-18T08:44:34.985Z</time></trkpt><trkpt lat="44.8608933" lon="9.4053833"><ele>733.0</ele><time>2026-04-18T08:44:36.983Z</time></trkpt><trkpt lat="44.860995" lon="9.4053183"><ele>733.0</ele><time>2026-04-18T08:44:38.984Z</time></trkpt><trkpt lat="44.8610767" lon="9.4052317"><ele>733.0</ele><time>2026-04-18T08:44:40.984Z</time></trkpt><trkpt lat="44.8611483" lon="9.40511"><ele>728.1666666666667</ele><time>2026-04-18T08:44:42.984Z</time></trkpt><trkpt lat="44.86119" lon="9.4050383"><ele>723.3333333333334</ele><time>2026-04-18T08:44:43.983Z</time></trkpt><trkpt lat="44.861235" lon="9.4049683"><ele>718.5</ele><time>2026-04-18T08:44:44.983Z</time></trkpt><trkpt lat="44.8613083" lon="9.4048533"><ele>713.6666666666666</ele><time>2026-04-18T08:44:46.983Z</time></trkpt><trkpt lat="44.86136" lon="9.4047667"><ele>708.8333333333333</ele><time>2026-04-18T08:44:48.986Z</time></trkpt><trkpt lat="44.8614033" lon="9.4046817"><ele>704.0</ele><time>2026-04-18T08:44:51.985Z</time></trkpt><trkpt lat="44.8614383" lon="9.4046017"><ele>704.0</ele><time>2026-04-18T08:44:55.983Z</time></trkpt><trkpt lat="44.8614633" lon="9.4045167"><ele>704.0</ele><time>2026-04-18T08:44:59.984Z</time></trkpt><trkpt lat="44.8614917" lon="9.4044283"><ele>704.0</ele><time>2026-04-18T08:45:02.984Z</time></trkpt><trkpt lat="44.8615171" lon="9.404341"><ele>704.0</ele><time>2026-04-18T08:45:06.04Z</time></trkpt><trkpt lat="44.8615147" lon="9.4042204"><ele>704.0</ele><time>2026-04-18T08:45:09.038Z</time></trkpt><trkpt lat="44.8615123" lon="9.4040996"><ele>704.0</ele><time>2026-04-18T08:45:11.031Z</time></trkpt><trkpt lat="44.861562" lon="9.403999"><ele>704.75</ele><time>2026-04-18T08:45:12.896Z</time></trkpt><trkpt lat="44.8616374" lon="9.4037825"><ele>705.5</ele><time>2026-04-18T08:45:14.986Z</time></trkpt><trkpt lat="44.8616585" lon="9.4036544"><ele>706.25</ele><time>2026-04-18T08:45:15.984Z</time></trkpt><trkpt lat="44.8616243" lon="9.4034938"><ele>707.0</ele><time>2026-04-18T08:45:17.984Z</time></trkpt><trkpt lat="44.8616211" lon="9.4033993"><ele>707.0</ele><time>2026-04-18T08:45:19.984Z</time></trkpt><trkpt lat="44.8616349" lon="9.4032887"><ele>707.0</ele><time>2026-04-18T08:45:25.984Z</time></trkpt><trkpt lat="44.8616433" lon="9.403155"><ele>707.0</ele><time>2026-04-18T08:45:27.984Z</time></trkpt><trkpt lat="44.86164" lon="9.4030483"><ele>707.0</ele><time>2026-04-18T08:45:29.984Z</time></trkpt><trkpt lat="44.8616283" lon="9.40292"><ele>707.0</ele><time>2026-04-18T08:45:32.984Z</time></trkpt><trkpt lat="44.8616233" lon="9.4028233"><ele>707.0</ele><time>2026-04-18T08:45:34.984Z</time></trkpt><trkpt lat="44.8616367" lon="9.4027017"><ele>707.6</ele><time>2026-04-18T08:45:36.984Z</time></trkpt><trkpt lat="44.8616867" lon="9.4025533"><ele>708.2</ele><time>2026-04-18T08:45:38.985Z</time></trkpt><trkpt lat="44.8617083" lon="9.4024017"><ele>708.8</ele><time>2026-04-18T08:45:40.983Z</time></trkpt><trkpt lat="44.8617133" lon="9.4022517"><ele>709.4</ele><time>2026-04-18T08:45:42.984Z</time></trkpt><trkpt lat="44.8617517" lon="9.4021133"><ele>710.0</ele><time>2026-04-18T08:45:44.986Z</time></trkpt><trkpt lat="44.86178" lon="9.4020033"><ele>710.5</ele><time>2026-04-18T08:45:46.986Z</time></trkpt><trkpt lat="44.861765" lon="9.40188"><ele>711.0</ele><time>2026-04-18T08:45:48.983Z</time></trkpt><trkpt lat="44.8617233" lon="9.40181"><ele>711.5</ele><time>2026-04-18T08:45:50.984Z</time></trkpt><trkpt lat="44.8616617" lon="9.401785"><ele>712.0</ele><time>2026-04-18T08:45:52.984Z</time></trkpt><trkpt lat="44.8615833" lon="9.4017483"><ele>712.5</ele><time>2026-04-18T08:45:55.983Z</time></trkpt><trkpt lat="44.8615267" lon="9.401695"><ele>713.0</ele><time>2026-04-18T08:45:57.984Z</time></trkpt><trkpt lat="44.861465" lon="9.4016033"><ele>713.0</ele><time>2026-04-18T08:45:59.985Z</time></trkpt><trkpt lat="44.8614317" lon="9.4014883"><ele>713.0</ele><time>2026-04-18T08:46:01.983Z</time></trkpt><trkpt lat="44.8614083" lon="9.4013667"><ele>713.0</ele><time>2026-04-18T08:46:03.984Z</time></trkpt><trkpt lat="44.8613883" lon="9.4012417"><ele>713.0</ele><time>2026-04-18T08:46:05.983Z</time></trkpt><trkpt lat="44.8613833" lon="9.4011117"><ele>713.0</ele><time>2026-04-18T08:46:07.983Z</time></trkpt><trkpt lat="44.8613583" lon="9.40098"><ele>715.2</ele><time>2026-04-18T08:46:09.985Z</time></trkpt><trkpt lat="44.8612983" lon="9.4009217"><ele>717.4</ele><time>2026-04-18T08:46:11.984Z</time></trkpt><trkpt lat="44.861195" lon="9.401025"><ele>719.6</ele><time>2026-04-18T08:46:50.986Z</time></trkpt><trkpt lat="44.86109" lon="9.40111"><ele>721.8000000000001</ele><time>2026-04-18T08:46:52.984Z</time></trkpt><trkpt lat="44.8609917" lon="9.401165"><ele>724.0</ele><time>2026-04-18T08:46:54.983Z</time></trkpt><trkpt lat="44.860905" lon="9.4011067"><ele>726.5</ele><time>2026-04-18T08:46:56.984Z</time></trkpt><trkpt lat="44.86086" lon="9.4010417"><ele>729.0</ele><time>2026-04-18T08:46:57.984Z</time></trkpt><trkpt lat="44.8608167" lon="9.400975"><ele>731.5</ele><time>2026-04-18T08:46:58.984Z</time></trkpt><trkpt lat="44.8607617" lon="9.4009083"><ele>734.0</ele><time>2026-04-18T08:46:59.983Z</time></trkpt><trkpt lat="44.8607067" lon="9.4008533"><ele>736.5</ele><time>2026-04-18T08:47:00.984Z</time></trkpt><trkpt lat="44.8605933" lon="9.4007983"><ele>739.0</ele><time>2026-04-18T08:47:02.984Z</time></trkpt><trkpt lat="44.8605183" lon="9.4008"><ele>739.0</ele><time>2026-04-18T08:47:03.983Z</time></trkpt><trkpt lat="44.8604433" lon="9.4008233"><ele>739.0</ele><time>2026-04-18T08:47:04.984Z</time></trkpt><trkpt lat="44.8603733" lon="9.400865"><ele>739.0</ele><time>2026-04-18T08:47:05.985Z</time></trkpt><trkpt lat="44.860295" lon="9.400925"><ele>739.0</ele><time>2026-04-18T08:47:06.984Z</time></trkpt><trkpt lat="44.8602183" lon="9.40098"><ele>739.0</ele><time>2026-04-18T08:47:07.984Z</time></trkpt><trkpt lat="44.8601367" lon="9.401035"><ele>739.0</ele><time>2026-04-18T08:47:08.985Z</time></trkpt><trkpt lat="44.8600567" lon="9.40109"><ele>738.8333333333334</ele><time>2026-04-18T08:47:09.984Z</time></trkpt><trkpt lat="44.8599733" lon="9.401145"><ele>738.6666666666667</ele><time>2026-04-18T08:47:10.984Z</time></trkpt><trkpt lat="44.8598967" lon="9.40119"><ele>738.5</ele><time>2026-04-18T08:47:11.984Z</time></trkpt><trkpt lat="44.859825" lon="9.4012367"><ele>738.3333333333334</ele><time>2026-04-18T08:47:12.984Z</time></trkpt><trkpt lat="44.8597567" lon="9.4012883"><ele>738.1666666666666</ele><time>2026-04-18T08:47:13.984Z</time></trkpt><trkpt lat="44.85969" lon="9.401355"><ele>738.0</ele><time>2026-04-18T08:47:14.984Z</time></trkpt><trkpt lat="44.85962" lon="9.4014367"><ele>742.2</ele><time>2026-04-18T08:47:15.985Z</time></trkpt><trkpt lat="44.8595517" lon="9.401525"><ele>746.4</ele><time>2026-04-18T08:47:16.984Z</time></trkpt><trkpt lat="44.85949" lon="9.4016333"><ele>750.6</ele><time>2026-04-18T08:47:17.983Z</time></trkpt><trkpt lat="44.85943" lon="9.4017433"><ele>754.8000000000001</ele><time>2026-04-18T08:47:18.985Z</time></trkpt><trkpt lat="44.8593867" lon="9.4018717"><ele>759.0</ele><time>2026-04-18T08:47:19.985Z</time></trkpt><trkpt lat="44.8593417" lon="9.401995"><ele>758.0</ele><time>2026-04-18T08:47:20.984Z</time></trkpt><trkpt lat="44.8592817" lon="9.402105"><ele>757.0</ele><time>2026-04-18T08:47:21.984Z</time></trkpt><trkpt lat="44.8592183" lon="9.402195"><ele>756.0</ele><time>2026-04-18T08:47:22.983Z</time></trkpt><trkpt lat="44.8591583" lon="9.4022767"><ele>755.0</ele><time>2026-04-18T08:47:23.985Z</time></trkpt><trkpt lat="44.8590967" lon="9.40235"><ele>754.0</ele><time>2026-04-18T08:47:24.984Z</time></trkpt><trkpt lat="44.8590333" lon="9.4024183"><ele>753.0</ele><time>2026-04-18T08:47:25.984Z</time></trkpt><trkpt lat="44.8589733" lon="9.4024917"><ele>753.0</ele><time>2026-04-18T08:47:26.984Z</time></trkpt><trkpt lat="44.8589017" lon="9.4025617"><ele>753.0</ele><time>2026-04-18T08:47:27.984Z</time></trkpt><trkpt lat="44.8588233" lon="9.4026083"><ele>753.0</ele><time>2026-04-18T08:47:28.984Z</time></trkpt><trkpt lat="44.8587317" lon="9.402645"><ele>753.0</ele><time>2026-04-18T08:47:29.985Z</time></trkpt><trkpt lat="44.85864" lon="9.4026883"><ele>753.0</ele><time>2026-04-18T08:47:30.985Z</time></trkpt><trkpt lat="44.8585617" lon="9.4027417"><ele>753.0</ele><time>2026-04-18T08:47:31.984Z</time></trkpt><trkpt lat="44.85851" lon="9.40282"><ele>753.0</ele><time>2026-04-18T08:47:32.984Z</time></trkpt><trkpt lat="44.8584617" lon="9.402925"><ele>753.0</ele><time>2026-04-18T08:47:33.984Z</time></trkpt><trkpt lat="44.8583933" lon="9.4030333"><ele>753.0</ele><time>2026-04-18T08:47:34.983Z</time></trkpt><trkpt lat="44.8583083" lon="9.4031317"><ele>753.0</ele><time>2026-04-18T08:47:35.985Z</time></trkpt><trkpt lat="44.8582283" lon="9.4032"><ele>752.4</ele><time>2026-04-18T08:47:36.986Z</time></trkpt><trkpt lat="44.858155" lon="9.4032533"><ele>751.8</ele><time>2026-04-18T08:47:37.985Z</time></trkpt><trkpt lat="44.8580867" lon="9.4032667"><ele>751.2</ele><time>2026-04-18T08:47:38.984Z</time></trkpt><trkpt lat="44.857965" lon="9.40321"><ele>750.6</ele><time>2026-04-18T08:47:40.984Z</time></trkpt><trkpt lat="44.85786" lon="9.403165"><ele>750.0</ele><time>2026-04-18T08:47:42.985Z</time></trkpt><trkpt lat="44.8577517" lon="9.40313"><ele>750.0</ele><time>2026-04-18T08:47:44.983Z</time></trkpt><trkpt lat="44.8576833" lon="9.4030817"><ele>750.0</ele><time>2026-04-18T08:47:45.984Z</time></trkpt><trkpt lat="44.8576217" lon="9.4030333"><ele>750.0</ele><time>2026-04-18T08:47:46.983Z</time></trkpt><trkpt lat="44.8575567" lon="9.4029983"><ele>750.0</ele><time>2026-04-18T08:47:47.984Z</time></trkpt><trkpt lat="44.8574767" lon="9.4029733"><ele>750.0</ele><time>2026-04-18T08:47:48.983Z</time></trkpt><trkpt lat="44.8573967" lon="9.4029467"><ele>750.0</ele><time>2026-04-18T08:47:49.984Z</time></trkpt><trkpt lat="44.8573333" lon="9.40292"><ele>750.0</ele><time>2026-04-18T08:47:50.983Z</time></trkpt><trkpt lat="44.857255" lon="9.4028367"><ele>741.4</ele><time>2026-04-18T08:47:52.984Z</time></trkpt><trkpt lat="44.8572467" lon="9.4026717"><ele>732.8</ele><time>2026-04-18T08:47:54.983Z</time></trkpt><trkpt lat="44.8572317" lon="9.4024983"><ele>724.2</ele><time>2026-04-18T08:47:56.983Z</time></trkpt><trkpt lat="44.8571817" lon="9.4023917"><ele>715.6</ele><time>2026-04-18T08:47:58.985Z</time></trkpt><trkpt lat="44.857105" lon="9.402345"><ele>707.0</ele><time>2026-04-18T08:48:00.984Z</time></trkpt><trkpt lat="44.8570283" lon="9.4023383"><ele>707.0</ele><time>2026-04-18T08:48:05.984Z</time></trkpt><trkpt lat="44.857025" lon="9.4024367"><ele>707.0</ele><time>2026-04-18T08:48:08.987Z</time></trkpt><trkpt lat="44.85701" lon="9.402525"><ele>707.0</ele><time>2026-04-18T08:49:00.983Z</time></trkpt><trkpt lat="44.8569683" lon="9.4027033"><ele>707.0</ele><time>2026-04-18T08:49:02.984Z</time></trkpt><trkpt lat="44.8569433" lon="9.4028183"><ele>707.0</ele><time>2026-04-18T08:49:03.984Z</time></trkpt><trkpt lat="44.8569217" lon="9.40295"><ele>707.0</ele><time>2026-04-18T08:49:04.983Z</time></trkpt><trkpt lat="44.85691" lon="9.403095"><ele>709.0</ele><time>2026-04-18T08:49:05.984Z</time></trkpt><trkpt lat="44.8568867" lon="9.403225"><ele>711.0</ele><time>2026-04-18T08:49:06.984Z</time></trkpt><trkpt lat="44.8568533" lon="9.4033333"><ele>713.0</ele><time>2026-04-18T08:49:07.984Z</time></trkpt><trkpt lat="44.8567783" lon="9.4034233"><ele>715.0</ele><time>2026-04-18T08:49:08.985Z</time></trkpt><trkpt lat="44.8566933" lon="9.40349"><ele>717.0</ele><time>2026-04-18T08:49:09.984Z</time></trkpt><trkpt lat="44.8566133" lon="9.4035283"><ele>717.0</ele><time>2026-04-18T08:49:10.984Z</time></trkpt><trkpt lat="44.8565467" lon="9.403525"><ele>717.0</ele><time>2026-04-18T08:49:11.984Z</time></trkpt><trkpt lat="44.8564733" lon="9.4035267"><ele>717.0</ele><time>2026-04-18T08:49:12.983Z</time></trkpt><trkpt lat="44.856385" lon="9.4035283"><ele>717.0</ele><time>2026-04-18T08:49:13.984Z</time></trkpt><trkpt lat="44.8562717" lon="9.4035317"><ele>717.0</ele><time>2026-04-18T08:49:14.983Z</time></trkpt><trkpt lat="44.8561483" lon="9.403535"><ele>717.0</ele><time>2026-04-18T08:49:15.983Z</time></trkpt><trkpt lat="44.856025" lon="9.4035267"><ele>717.0</ele><time>2026-04-18T08:49:16.983Z</time></trkpt><trkpt lat="44.85592" lon="9.4035167"><ele>717.0</ele><time>2026-04-18T08:49:17.983Z</time></trkpt><trkpt lat="44.8558317" lon="9.4035117"><ele>717.0</ele><time>2026-04-18T08:49:18.986Z</time></trkpt><trkpt lat="44.8557633" lon="9.4035"><ele>717.0</ele><time>2026-04-18T08:49:19.985Z</time></trkpt><trkpt lat="44.8557" lon="9.4034817"><ele>716.8333333333334</ele><time>2026-04-18T08:49:21.984Z</time></trkpt><trkpt lat="44.85563" lon="9.403415"><ele>716.6666666666666</ele><time>2026-04-18T08:49:26.985Z</time></trkpt><trkpt lat="44.8555767" lon="9.403305"><ele>716.5</ele><time>2026-04-18T08:49:28.984Z</time></trkpt><trkpt lat="44.8555333" lon="9.4032117"><ele>716.3333333333333</ele><time>2026-04-18T08:49:30.983Z</time></trkpt><trkpt lat="44.85551" lon="9.4031117"><ele>716.1666666666666</ele><time>2026-04-18T08:49:33.984Z</time></trkpt><trkpt lat="44.855535" lon="9.40301"><ele>716.0</ele><time>2026-04-18T08:49:36.984Z</time></trkpt><trkpt lat="44.855555" lon="9.40291"><ele>712.5999999999999</ele><time>2026-04-18T08:49:39.984Z</time></trkpt><trkpt lat="44.85553" lon="9.402805"><ele>709.2</ele><time>2026-04-18T08:49:42.983Z</time></trkpt><trkpt lat="44.8554867" lon="9.402695"><ele>705.8</ele><time>2026-04-18T08:49:45.984Z</time></trkpt><trkpt lat="44.8554117" lon="9.40265"><ele>702.4000000000001</ele><time>2026-04-18T08:49:47.985Z</time></trkpt><trkpt lat="44.8552967" lon="9.4026233"><ele>699.0</ele><time>2026-04-18T08:49:49.984Z</time></trkpt><trkpt lat="44.85521" lon="9.4026467"><ele>699.0</ele><time>2026-04-18T08:49:51.985Z</time></trkpt><trkpt lat="44.8551383" lon="9.4026317"><ele>699.0</ele><time>2026-04-18T08:49:53.983Z</time></trkpt><trkpt lat="44.8550283" lon="9.4025067"><ele>699.0</ele><time>2026-04-18T08:49:55.984Z</time></trkpt><trkpt lat="44.8549617" lon="9.4024267"><ele>699.0</ele><time>2026-04-18T08:49:56.984Z</time></trkpt><trkpt lat="44.8548833" lon="9.4023533"><ele>699.0</ele><time>2026-04-18T08:49:57.983Z</time></trkpt><trkpt lat="44.8548033" lon="9.40229"><ele>700.0</ele><time>2026-04-18T08:49:58.983Z</time></trkpt><trkpt lat="44.8547317" lon="9.4022383"><ele>701.0</ele><time>2026-04-18T08:49:59.983Z</time></trkpt><trkpt lat="44.854675" lon="9.4021983"><ele>702.0</ele><time>2026-04-18T08:50:00.983Z</time></trkpt><trkpt lat="44.854555" lon="9.4021567"><ele>703.0</ele><time>2026-04-18T08:50:02.983Z</time></trkpt><trkpt lat="44.8544883" lon="9.402135"><ele>704.0</ele><time>2026-04-18T08:50:03.983Z</time></trkpt><trkpt lat="44.85442" lon="9.4021083"><ele>705.0</ele><time>2026-04-18T08:50:04.983Z</time></trkpt><trkpt lat="44.85436" lon="9.402015"><ele>704.3333333333334</ele><time>2026-04-18T08:50:06.983Z</time></trkpt><trkpt lat="44.85434" lon="9.4019117"><ele>703.6666666666666</ele><time>2026-04-18T08:50:08.983Z</time></trkpt><trkpt lat="44.8543133" lon="9.4018033"><ele>703.0</ele><time>2026-04-18T08:50:10.983Z</time></trkpt><trkpt lat="44.8542483" lon="9.4017267"><ele>702.3333333333333</ele><time>2026-04-18T08:50:12.982Z</time></trkpt><trkpt lat="44.8541867" lon="9.401665"><ele>701.6666666666666</ele><time>2026-04-18T08:50:14.983Z</time></trkpt><trkpt lat="44.8541117" lon="9.4015683"><ele>701.0</ele><time>2026-04-18T08:50:21.984Z</time></trkpt><trkpt lat="44.8540333" lon="9.4014967"><ele>701.0</ele><time>2026-04-18T08:50:23.983Z</time></trkpt><trkpt lat="44.8539767" lon="9.401455"><ele>701.0</ele><time>2026-04-18T08:50:24.982Z</time></trkpt><trkpt lat="44.8539133" lon="9.4014033"><ele>701.0</ele><time>2026-04-18T08:50:25.983Z</time></trkpt><trkpt lat="44.8538417" lon="9.40135"><ele>701.0</ele><time>2026-04-18T08:50:26.983Z</time></trkpt><trkpt lat="44.8537683" lon="9.4013017"><ele>701.0</ele><time>2026-04-18T08:50:27.983Z</time></trkpt><trkpt lat="44.8536983" lon="9.40125"><ele>701.0</ele><time>2026-04-18T08:50:28.983Z</time></trkpt><trkpt lat="44.853635" lon="9.4011967"><ele>701.3333333333333</ele><time>2026-04-18T08:50:29.983Z</time></trkpt><trkpt lat="44.85357" lon="9.40115"><ele>701.6666666666666</ele><time>2026-04-18T08:50:30.984Z</time></trkpt><trkpt lat="44.8535033" lon="9.40111"><ele>702.0</ele><time>2026-04-18T08:50:31.984Z</time></trkpt><trkpt lat="44.8534383" lon="9.4010683"><ele>702.3333333333334</ele><time>2026-04-18T08:50:32.982Z</time></trkpt><trkpt lat="44.85335" lon="9.400975"><ele>702.6666666666667</ele><time>2026-04-18T08:50:34.982Z</time></trkpt><trkpt lat="44.8533083" lon="9.40085"><ele>703.0</ele><time>2026-04-18T08:50:36.982Z</time></trkpt><trkpt lat="44.85326" lon="9.400685"><ele>703.0</ele><time>2026-04-18T08:50:38.983Z</time></trkpt><trkpt lat="44.8532233" lon="9.40061"><ele>703.0</ele><time>2026-04-18T08:50:39.983Z</time></trkpt><trkpt lat="44.8531783" lon="9.4005433"><ele>703.0</ele><time>2026-04-18T08:50:40.983Z</time></trkpt><trkpt lat="44.8530967" lon="9.4004333"><ele>703.0</ele><time>2026-04-18T08:50:42.983Z</time></trkpt><trkpt lat="44.8529983" lon="9.4003317"><ele>703.0</ele><time>2026-04-18T08:50:44.983Z</time></trkpt><trkpt lat="44.8529167" lon="9.400235"><ele>703.5999999999999</ele><time>2026-04-18T08:50:46.987Z</time></trkpt><trkpt lat="44.8528017" lon="9.4001683"><ele>704.1999999999999</ele><time>2026-04-18T08:50:48.983Z</time></trkpt><trkpt lat="44.8527368" lon="9.4001435"><ele>704.8</ele><time>2026-04-18T08:50:49.983Z</time></trkpt><trkpt lat="44.8526702" lon="9.400122"><ele>705.4</ele><time>2026-04-18T08:50:50.983Z</time></trkpt><trkpt lat="44.8526059" lon="9.4001107"><ele>706.0</ele><time>2026-04-18T08:50:51.982Z</time></trkpt><trkpt lat="44.8524803" lon="9.4001014"><ele>706.0</ele><time>2026-04-18T08:50:53.984Z</time></trkpt><trkpt lat="44.8523835" lon="9.4000209"><ele>706.0</ele><time>2026-04-18T08:50:55.982Z</time></trkpt><trkpt lat="44.8523407" lon="9.3999517"><ele>706.0</ele><time>2026-04-18T08:50:56.982Z</time></trkpt><trkpt lat="44.8522887" lon="9.3999002"><ele>706.0</ele><time>2026-04-18T08:50:57.984Z</time></trkpt><trkpt lat="44.8522187" lon="9.3998674"><ele>706.0</ele><time>2026-04-18T08:50:58.983Z</time></trkpt><trkpt lat="44.8521423" lon="9.3998381"><ele>706.0</ele><time>2026-04-18T08:50:59.983Z</time></trkpt><trkpt lat="44.8520801" lon="9.3998103"><ele>706.0</ele><time>2026-04-18T08:51:00.983Z</time></trkpt><trkpt lat="44.8519669" lon="9.399763"><ele>706.0</ele><time>2026-04-18T08:51:02.983Z</time></trkpt><trkpt lat="44.8518394" lon="9.3997469"><ele>706.0</ele><time>2026-04-18T08:51:04.983Z</time></trkpt><trkpt lat="44.8517598" lon="9.3997507"><ele>706.0</ele><time>2026-04-18T08:51:05.983Z</time></trkpt><trkpt lat="44.8516814" lon="9.3997433"><ele>706.0</ele><time>2026-04-18T08:51:06.983Z</time></trkpt><trkpt lat="44.8516062" lon="9.3997383"><ele>705.8571428571428</ele><time>2026-04-18T08:51:07.983Z</time></trkpt><trkpt lat="44.8515391" lon="9.3997324"><ele>705.7142857142858</ele><time>2026-04-18T08:51:08.985Z</time></trkpt><trkpt lat="44.8514526" lon="9.399726"><ele>705.5714285714286</ele><time>2026-04-18T08:51:10.982Z</time></trkpt><trkpt lat="44.8513942" lon="9.3996925"><ele>705.4285714285713</ele><time>2026-04-18T08:51:42.983Z</time></trkpt><trkpt lat="44.8513283" lon="9.3996412"><ele>705.2857142857142</ele><time>2026-04-18T08:51:44.984Z</time></trkpt><trkpt lat="44.8512653" lon="9.3995907"><ele>705.1428571428571</ele><time>2026-04-18T08:51:46.982Z</time></trkpt><trkpt lat="44.8512026" lon="9.3995485"><ele>705.0</ele><time>2026-04-18T08:51:48.984Z</time></trkpt><trkpt lat="44.8511457" lon="9.3994925"><ele>705.0</ele><time>2026-04-18T08:51:51.984Z</time></trkpt><trkpt lat="44.8511196" lon="9.3994111"><ele>705.0</ele><time>2026-04-18T08:51:54.985Z</time></trkpt><trkpt lat="44.8511417" lon="9.3993033"><ele>705.0</ele><time>2026-04-18T08:51:57.984Z</time></trkpt><trkpt lat="44.8511893" lon="9.3991853"><ele>705.0</ele><time>2026-04-18T08:51:59.984Z</time></trkpt><trkpt lat="44.8512012" lon="9.3990627"><ele>705.0</ele><time>2026-04-18T08:52:01.984Z</time></trkpt><trkpt lat="44.8511742" lon="9.3989104"><ele>705.0</ele><time>2026-04-18T08:52:03.984Z</time></trkpt><trkpt lat="44.8511793" lon="9.3987348"><ele>705.3333333333334</ele><time>2026-04-18T08:52:05.983Z</time></trkpt><trkpt lat="44.8512108" lon="9.398644"><ele>705.6666666666666</ele><time>2026-04-18T08:52:06.983Z</time></trkpt><trkpt lat="44.8512446" lon="9.3985573"><ele>706.0</ele><time>2026-04-18T08:52:07.984Z</time></trkpt><trkpt lat="44.8512764" lon="9.3984715"><ele>706.3333333333333</ele><time>2026-04-18T08:52:08.983Z</time></trkpt><trkpt lat="44.8512917" lon="9.3983767"><ele>706.6666666666666</ele><time>2026-04-18T08:52:09.984Z</time></trkpt><trkpt lat="44.8512933" lon="9.398215"><ele>707.0</ele><time>2026-04-18T08:52:11.984Z</time></trkpt><trkpt lat="44.851275" lon="9.3981"><ele>707.0</ele><time>2026-04-18T08:52:13.983Z</time></trkpt><trkpt lat="44.8512467" lon="9.39801"><ele>707.0</ele><time>2026-04-18T08:52:15.985Z</time></trkpt><trkpt lat="44.851175" lon="9.39794"><ele>707.0</ele><time>2026-04-18T08:52:17.983Z</time></trkpt><trkpt lat="44.851085" lon="9.3978783"><ele>707.0</ele><time>2026-04-18T08:52:19.983Z</time></trkpt><trkpt lat="44.8510083" lon="9.3978183"><ele>707.0</ele><time>2026-04-18T08:52:21.983Z</time></trkpt><trkpt lat="44.850915" lon="9.397725"><ele>710.8333333333333</ele><time>2026-04-18T08:52:35.982Z</time></trkpt><trkpt lat="44.8508267" lon="9.3976933"><ele>714.6666666666666</ele><time>2026-04-18T08:52:38.985Z</time></trkpt><trkpt lat="44.8506967" lon="9.3976367"><ele>718.5</ele><time>2026-04-18T08:52:40.982Z</time></trkpt><trkpt lat="44.8506283" lon="9.3976017"><ele>722.3333333333334</ele><time>2026-04-18T08:52:41.983Z</time></trkpt><trkpt lat="44.8505633" lon="9.397575"><ele>726.1666666666667</ele><time>2026-04-18T08:52:42.984Z</time></trkpt><trkpt lat="44.8504933" lon="9.3975567"><ele>730.0</ele><time>2026-04-18T08:52:43.984Z</time></trkpt><trkpt lat="44.8503817" lon="9.3975983"><ele>730.0</ele><time>2026-04-18T08:52:45.983Z</time></trkpt><trkpt lat="44.8502996" lon="9.3976633"><ele>730.0</ele><time>2026-04-18T08:52:51.984Z</time></trkpt><trkpt lat="44.8501921" lon="9.3975782"><ele>730.0</ele><time>2026-04-18T08:52:56.003Z</time></trkpt><trkpt lat="44.8501115" lon="9.3975139"><ele>730.0</ele><time>2026-04-18T08:52:57.985Z</time></trkpt><trkpt lat="44.8500435" lon="9.3974564"><ele>730.0</ele><time>2026-04-18T08:53:00.059Z</time></trkpt><trkpt lat="44.8499619" lon="9.3973999"><ele>732.3333333333334</ele><time>2026-04-18T08:53:01.983Z</time></trkpt><trkpt lat="44.8498384" lon="9.3973736"><ele>734.6666666666667</ele><time>2026-04-18T08:53:03.983Z</time></trkpt><trkpt lat="44.849774" lon="9.3973378"><ele>737.0</ele><time>2026-04-18T08:53:04.983Z</time></trkpt><trkpt lat="44.8497107" lon="9.3972823"><ele>739.3333333333334</ele><time>2026-04-18T08:53:05.983Z</time></trkpt><trkpt lat="44.8496507" lon="9.3972181"><ele>741.6666666666666</ele><time>2026-04-18T08:53:06.982Z</time></trkpt><trkpt lat="44.8495906" lon="9.3971488"><ele>744.0</ele><time>2026-04-18T08:53:07.982Z</time></trkpt><trkpt lat="44.8495174" lon="9.3970793"><ele>744.5</ele><time>2026-04-18T08:53:08.983Z</time></trkpt><trkpt lat="44.8494438" lon="9.3970089"><ele>745.0</ele><time>2026-04-18T08:53:09.985Z</time></trkpt><trkpt lat="44.8493772" lon="9.3969494"><ele>745.5</ele><time>2026-04-18T08:53:10.983Z</time></trkpt><trkpt lat="44.8493282" lon="9.3968862"><ele>746.0</ele><time>2026-04-18T08:53:11.984Z</time></trkpt><trkpt lat="44.8492847" lon="9.3968178"><ele>746.5</ele><time>2026-04-18T08:53:12.984Z</time></trkpt><trkpt lat="44.84922" lon="9.396715"><ele>747.0</ele><time>2026-04-18T08:53:14.984Z</time></trkpt><trkpt lat="44.8491583" lon="9.39663"><ele>750.4000000000001</ele><time>2026-04-18T08:53:16.982Z</time></trkpt><trkpt lat="44.84909" lon="9.39654"><ele>753.8000000000001</ele><time>2026-04-18T08:53:18.984Z</time></trkpt><trkpt lat="44.84902" lon="9.3964417"><ele>757.2</ele><time>2026-04-18T08:53:20.984Z</time></trkpt><trkpt lat="44.8489383" lon="9.39637"><ele>760.6</ele><time>2026-04-18T08:53:22.983Z</time></trkpt><trkpt lat="44.8488433" lon="9.396325"><ele>764.0</ele><time>2026-04-18T08:53:24.982Z</time></trkpt><trkpt lat="44.8487367" lon="9.3962617"><ele>764.6666666666666</ele><time>2026-04-18T08:53:26.983Z</time></trkpt><trkpt lat="44.848635" lon="9.396205"><ele>765.3333333333333</ele><time>2026-04-18T08:53:28.983Z</time></trkpt><trkpt lat="44.8485467" lon="9.396215"><ele>766.0</ele><time>2026-04-18T08:53:31.985Z</time></trkpt><trkpt lat="44.8484692" lon="9.3961588"><ele>766.6666666666666</ele><time>2026-04-18T08:53:34.982Z</time></trkpt><trkpt lat="44.8484159" lon="9.3960857"><ele>767.3333333333334</ele><time>2026-04-18T08:53:38.038Z</time></trkpt><trkpt lat="44.8484549" lon="9.3960088"><ele>768.0</ele><time>2026-04-18T08:53:40.988Z</time></trkpt><trkpt lat="44.848505" lon="9.3959317"><ele>768.0</ele><time>2026-04-18T08:53:57.984Z</time></trkpt><trkpt lat="44.8485867" lon="9.3958833"><ele>768.0</ele><time>2026-04-18T08:53:59.983Z</time></trkpt><trkpt lat="44.8486833" lon="9.3958433"><ele>768.0</ele><time>2026-04-18T08:54:01.984Z</time></trkpt><trkpt lat="44.8488133" lon="9.39581"><ele>768.0</ele><time>2026-04-18T08:54:03.983Z</time></trkpt><trkpt lat="44.8488867" lon="9.3957983"><ele>768.0</ele><time>2026-04-18T08:54:04.983Z</time></trkpt><trkpt lat="44.8489583" lon="9.3957883"><ele>768.0</ele><time>2026-04-18T08:54:05.983Z</time></trkpt><trkpt lat="44.849035" lon="9.3957717"><ele>768.0</ele><time>2026-04-18T08:54:06.984Z</time></trkpt><trkpt lat="44.8491067" lon="9.3957483"><ele>768.0</ele><time>2026-04-18T08:54:07.984Z</time></trkpt><trkpt lat="44.8491683" lon="9.3957017"><ele>768.0</ele><time>2026-04-18T08:54:08.984Z</time></trkpt><trkpt lat="44.8492383" lon="9.3956517"><ele>768.0</ele><time>2026-04-18T08:54:09.982Z</time></trkpt><trkpt lat="44.8493033" lon="9.3956"><ele>768.0</ele><time>2026-04-18T08:54:10.983Z</time></trkpt><trkpt lat="44.8493717" lon="9.3955433"><ele>765.4285714285713</ele><time>2026-04-18T08:54:11.983Z</time></trkpt><trkpt lat="44.8494333" lon="9.3954883"><ele>762.8571428571429</ele><time>2026-04-18T08:54:12.985Z</time></trkpt><trkpt lat="44.8494867" lon="9.3954367"><ele>760.2857142857142</ele><time>2026-04-18T08:54:13.985Z</time></trkpt><trkpt lat="44.8495433" lon="9.39538"><ele>757.7142857142857</ele><time>2026-04-18T08:54:14.984Z</time></trkpt><trkpt lat="44.8496033" lon="9.3953233"><ele>755.1428571428571</ele><time>2026-04-18T08:54:15.984Z</time></trkpt><trkpt lat="44.8496683" lon="9.395275"><ele>752.5714285714286</ele><time>2026-04-18T08:54:16.985Z</time></trkpt><trkpt lat="44.8497317" lon="9.3952267"><ele>750.0</ele><time>2026-04-18T08:54:17.983Z</time></trkpt><trkpt lat="44.8497983" lon="9.3951817"><ele>750.0</ele><time>2026-04-18T08:54:18.985Z</time></trkpt><trkpt lat="44.8498717" lon="9.3951517"><ele>750.0</ele><time>2026-04-18T08:54:19.983Z</time></trkpt><trkpt lat="44.849945" lon="9.3951217"><ele>750.0</ele><time>2026-04-18T08:54:20.984Z</time></trkpt><trkpt lat="44.8500117" lon="9.39507"><ele>750.0</ele><time>2026-04-18T08:54:21.982Z</time></trkpt><trkpt lat="44.8500733" lon="9.39502"><ele>750.0</ele><time>2026-04-18T08:54:22.984Z</time></trkpt><trkpt lat="44.8501417" lon="9.3949733"><ele>750.0</ele><time>2026-04-18T08:54:23.983Z</time></trkpt><trkpt lat="44.850215" lon="9.3949367"><ele>747.6666666666666</ele><time>2026-04-18T08:54:24.982Z</time></trkpt><trkpt lat="44.8502917" lon="9.3949167"><ele>745.3333333333334</ele><time>2026-04-18T08:54:25.983Z</time></trkpt><trkpt lat="44.85037" lon="9.394895"><ele>743.0</ele><time>2026-04-18T08:54:26.984Z</time></trkpt><trkpt lat="44.8504433" lon="9.3948783"><ele>740.6666666666667</ele><time>2026-04-18T08:54:27.984Z</time></trkpt><trkpt lat="44.8505117" lon="9.39485"><ele>738.3333333333334</ele><time>2026-04-18T08:54:28.984Z</time></trkpt><trkpt lat="44.8505767" lon="9.3948167"><ele>736.0</ele><time>2026-04-18T08:54:29.984Z</time></trkpt><trkpt lat="44.8506483" lon="9.394765"><ele>736.0</ele><time>2026-04-18T08:54:30.985Z</time></trkpt><trkpt lat="44.8507217" lon="9.3947167"><ele>736.0</ele><time>2026-04-18T08:54:31.984Z</time></trkpt><trkpt lat="44.8508067" lon="9.3946667"><ele>736.0</ele><time>2026-04-18T08:54:32.984Z</time></trkpt><trkpt lat="44.85089" lon="9.3946083"><ele>736.0</ele><time>2026-04-18T08:54:33.984Z</time></trkpt><trkpt lat="44.850965" lon="9.394565"><ele>736.0</ele><time>2026-04-18T08:54:34.984Z</time></trkpt><trkpt lat="44.8510417" lon="9.3945533"><ele>736.0</ele><time>2026-04-18T08:54:35.985Z</time></trkpt><trkpt lat="44.85111" lon="9.39457"><ele>733.8571428571429</ele><time>2026-04-18T08:54:36.985Z</time></trkpt><trkpt lat="44.8511717" lon="9.3945917"><ele>731.7142857142857</ele><time>2026-04-18T08:54:37.984Z</time></trkpt><trkpt lat="44.85124" lon="9.3945933"><ele>729.5714285714286</ele><time>2026-04-18T08:54:38.983Z</time></trkpt><trkpt lat="44.8513167" lon="9.39458"><ele>727.4285714285714</ele><time>2026-04-18T08:54:39.984Z</time></trkpt><trkpt lat="44.851385" lon="9.3945383"><ele>725.2857142857142</ele><time>2026-04-18T08:54:40.983Z</time></trkpt><trkpt lat="44.8514417" lon="9.394485"><ele>723.1428571428571</ele><time>2026-04-18T08:54:41.984Z</time></trkpt><trkpt lat="44.8515017" lon="9.3944317"><ele>721.0</ele><time>2026-04-18T08:54:42.983Z</time></trkpt><trkpt lat="44.8515667" lon="9.394395"><ele>721.0</ele><time>2026-04-18T08:54:43.984Z</time></trkpt><trkpt lat="44.85167" lon="9.3943833"><ele>721.0</ele><time>2026-04-18T08:54:45.984Z</time></trkpt><trkpt lat="44.85175" lon="9.394445"><ele>721.0</ele><time>2026-04-18T08:54:47.984Z</time></trkpt><trkpt lat="44.8518417" lon="9.3944833"><ele>721.0</ele><time>2026-04-18T08:54:49.984Z</time></trkpt><trkpt lat="44.8519417" lon="9.39446"><ele>721.0</ele><time>2026-04-18T08:54:51.984Z</time></trkpt><trkpt lat="44.8519983" lon="9.39442"><ele>718.0</ele><time>2026-04-18T08:54:52.983Z</time></trkpt><trkpt lat="44.8520933" lon="9.3943117"><ele>715.0</ele><time>2026-04-18T08:54:54.985Z</time></trkpt><trkpt lat="44.8521617" lon="9.3941733"><ele>712.0</ele><time>2026-04-18T08:54:56.984Z</time></trkpt><trkpt lat="44.8522317" lon="9.3940617"><ele>709.0</ele><time>2026-04-18T08:54:58.984Z</time></trkpt><trkpt lat="44.852325" lon="9.3940283"><ele>706.0</ele><time>2026-04-18T08:55:00.984Z</time></trkpt><trkpt lat="44.8524417" lon="9.394035"><ele>706.0</ele><time>2026-04-18T08:55:02.983Z</time></trkpt><trkpt lat="44.8525567" lon="9.3940867"><ele>706.0</ele><time>2026-04-18T08:55:04.985Z</time></trkpt><trkpt lat="44.8526083" lon="9.3941917"><ele>706.0</ele><time>2026-04-18T08:55:06.984Z</time></trkpt><trkpt lat="44.8526267" lon="9.3943033"><ele>706.0</ele><time>2026-04-18T08:55:08.983Z</time></trkpt><trkpt lat="44.85272" lon="9.394295"><ele>706.0</ele><time>2026-04-18T08:55:12.984Z</time></trkpt><trkpt lat="44.8527783" lon="9.3942367"><ele>702.0</ele><time>2026-04-18T08:55:14.983Z</time></trkpt><trkpt lat="44.8528167" lon="9.3941317"><ele>698.0</ele><time>2026-04-18T08:55:16.984Z</time></trkpt><trkpt lat="44.852825" lon="9.3940233"><ele>694.0</ele><time>2026-04-18T08:55:18.983Z</time></trkpt><trkpt lat="44.852795" lon="9.3939067"><ele>690.0</ele><time>2026-04-18T08:55:20.987Z</time></trkpt><trkpt lat="44.852725" lon="9.3937683"><ele>686.0</ele><time>2026-04-18T08:55:22.984Z</time></trkpt><trkpt lat="44.8526383" lon="9.3936517"><ele>686.1666666666666</ele><time>2026-04-18T08:55:24.983Z</time></trkpt><trkpt lat="44.8525417" lon="9.3935617"><ele>686.3333333333333</ele><time>2026-04-18T08:55:26.985Z</time></trkpt><trkpt lat="44.8524333" lon="9.3935283"><ele>686.5</ele><time>2026-04-18T08:55:28.984Z</time></trkpt><trkpt lat="44.8523667" lon="9.3935317"><ele>686.6666666666666</ele><time>2026-04-18T08:55:29.984Z</time></trkpt><trkpt lat="44.8523" lon="9.3935367"><ele>686.8333333333334</ele><time>2026-04-18T08:55:30.985Z</time></trkpt><trkpt lat="44.852235" lon="9.3935183"><ele>687.0</ele><time>2026-04-18T08:55:31.984Z</time></trkpt><trkpt lat="44.8521767" lon="9.3934833"><ele>687.0</ele><time>2026-04-18T08:55:32.983Z</time></trkpt><trkpt lat="44.8520683" lon="9.3934183"><ele>687.0</ele><time>2026-04-18T08:55:34.984Z</time></trkpt><trkpt lat="44.852005" lon="9.3933917"><ele>687.0</ele><time>2026-04-18T08:55:35.986Z</time></trkpt><trkpt lat="44.851945" lon="9.3933567"><ele>687.0</ele><time>2026-04-18T08:55:36.983Z</time></trkpt><trkpt lat="44.851885" lon="9.3933217"><ele>687.0</ele><time>2026-04-18T08:55:37.983Z</time></trkpt><trkpt lat="44.8518217" lon="9.393305"><ele>687.0</ele><time>2026-04-18T08:55:38.983Z</time></trkpt><trkpt lat="44.8517417" lon="9.39329"><ele>689.2</ele><time>2026-04-18T08:55:39.984Z</time></trkpt><trkpt lat="44.85166" lon="9.3932817"><ele>691.4000000000001</ele><time>2026-04-18T08:55:40.984Z</time></trkpt><trkpt lat="44.85159" lon="9.3932767"><ele>693.5999999999999</ele><time>2026-04-18T08:55:41.984Z</time></trkpt><trkpt lat="44.8514717" lon="9.3932683"><ele>695.8</ele><time>2026-04-18T08:55:43.983Z</time></trkpt><trkpt lat="44.8513467" lon="9.39328"><ele>698.0</ele><time>2026-04-18T08:55:45.983Z</time></trkpt><trkpt lat="44.8512767" lon="9.3932917"><ele>698.0</ele><time>2026-04-18T08:55:46.985Z</time></trkpt><trkpt lat="44.8512" lon="9.3933167"><ele>698.0</ele><time>2026-04-18T08:55:47.984Z</time></trkpt><trkpt lat="44.85113" lon="9.3933533"><ele>698.0</ele><time>2026-04-18T08:55:48.984Z</time></trkpt><trkpt lat="44.8510617" lon="9.39339"><ele>698.0</ele><time>2026-04-18T08:55:49.984Z</time></trkpt><trkpt lat="44.850995" lon="9.3934367"><ele>698.0</ele><time>2026-04-18T08:55:50.983Z</time></trkpt><trkpt lat="44.8508967" lon="9.3935433"><ele>698.0</ele><time>2026-04-18T08:55:52.985Z</time></trkpt><trkpt lat="44.8508283" lon="9.3936033"><ele>698.0</ele><time>2026-04-18T08:55:53.984Z</time></trkpt><trkpt lat="44.8507617" lon="9.393665"><ele>698.0</ele><time>2026-04-18T08:55:54.982Z</time></trkpt><trkpt lat="44.850705" lon="9.3937283"><ele>698.0</ele><time>2026-04-18T08:55:55.983Z</time></trkpt><trkpt lat="44.8506617" lon="9.3937983"><ele>698.0</ele><time>2026-04-18T08:55:56.985Z</time></trkpt><trkpt lat="44.85059" lon="9.3938933"><ele>698.0</ele><time>2026-04-18T08:55:58.984Z</time></trkpt><trkpt lat="44.8505033" lon="9.3939"><ele>698.0</ele><time>2026-04-18T08:56:00.983Z</time></trkpt><trkpt lat="44.850475" lon="9.3937883"><ele>698.0</ele><time>2026-04-18T08:56:02.984Z</time></trkpt><trkpt lat="44.8504517" lon="9.3936183"><ele>698.0</ele><time>2026-04-18T08:56:04.982Z</time></trkpt><trkpt lat="44.8503883" lon="9.3934767"><ele>698.0</ele><time>2026-04-18T08:56:06.983Z</time></trkpt><trkpt lat="44.8503017" lon="9.3934083"><ele>698.0</ele><time>2026-04-18T08:56:08.984Z</time></trkpt><trkpt lat="44.8501967" lon="9.393345"><ele>699.0</ele><time>2026-04-18T08:56:10.984Z</time></trkpt><trkpt lat="44.8501017" lon="9.3932883"><ele>700.0</ele><time>2026-04-18T08:56:12.983Z</time></trkpt><trkpt lat="44.8500233" lon="9.3931833"><ele>701.0</ele><time>2026-04-18T08:56:14.984Z</time></trkpt><trkpt lat="44.8499517" lon="9.3930517"><ele>702.0</ele><time>2026-04-18T08:56:16.984Z</time></trkpt><trkpt lat="44.8499217" lon="9.3929683"><ele>703.0</ele><time>2026-04-18T08:56:17.983Z</time></trkpt><trkpt lat="44.8498867" lon="9.39289"><ele>703.0</ele><time>2026-04-18T08:56:18.983Z</time></trkpt><trkpt lat="44.8498115" lon="9.3927731"><ele>703.0</ele><time>2026-04-18T08:56:20.985Z</time></trkpt><trkpt lat="44.849724" lon="9.3926979"><ele>703.0</ele><time>2026-04-18T08:56:22.983Z</time></trkpt><trkpt lat="44.849661" lon="9.3926803"><ele>703.0</ele><time>2026-04-18T08:56:23.985Z</time></trkpt><trkpt lat="44.8495935" lon="9.3926728"><ele>703.0</ele><time>2026-04-18T08:56:24.983Z</time></trkpt><trkpt lat="44.8495228" lon="9.3926775"><ele>703.0</ele><time>2026-04-18T08:56:25.983Z</time></trkpt><trkpt lat="44.849443" lon="9.3927091"><ele>703.0</ele><time>2026-04-18T08:56:26.985Z</time></trkpt><trkpt lat="44.8493505" lon="9.39275"><ele>703.0</ele><time>2026-04-18T08:56:27.983Z</time></trkpt><trkpt lat="44.8492544" lon="9.3927953"><ele>703.0</ele><time>2026-04-18T08:56:28.984Z</time></trkpt><trkpt lat="44.8491704" lon="9.3928432"><ele>703.0</ele><time>2026-04-18T08:56:29.985Z</time></trkpt><trkpt lat="44.8490834" lon="9.3928928"><ele>703.0</ele><time>2026-04-18T08:56:30.984Z</time></trkpt><trkpt lat="44.8489909" lon="9.3929314"><ele>706.5999999999999</ele><time>2026-04-18T08:56:31.985Z</time></trkpt><trkpt lat="44.8488829" lon="9.3929592"><ele>710.1999999999999</ele><time>2026-04-18T08:56:32.984Z</time></trkpt><trkpt lat="44.8487759" lon="9.3929774"><ele>713.8</ele><time>2026-04-18T08:56:33.984Z</time></trkpt><trkpt lat="44.8486844" lon="9.3929916"><ele>717.4</ele><time>2026-04-18T08:56:34.983Z</time></trkpt><trkpt lat="44.8485995" lon="9.3929995"><ele>721.0</ele><time>2026-04-18T08:56:35.984Z</time></trkpt><trkpt lat="44.8485197" lon="9.3930131"><ele>723.8333333333334</ele><time>2026-04-18T08:56:36.984Z</time></trkpt><trkpt lat="44.848451" lon="9.3930138"><ele>726.6666666666667</ele><time>2026-04-18T08:56:37.983Z</time></trkpt><trkpt lat="44.848346" lon="9.392967"><ele>729.5</ele><time>2026-04-18T08:56:39.984Z</time></trkpt><trkpt lat="44.8483001" lon="9.3928774"><ele>732.3333333333334</ele><time>2026-04-18T08:56:41.984Z</time></trkpt><trkpt lat="44.8482499" lon="9.3927998"><ele>735.1666666666666</ele><time>2026-04-18T08:56:43.984Z</time></trkpt><trkpt lat="44.8481661" lon="9.3927174"><ele>738.0</ele><time>2026-04-18T08:56:45.984Z</time></trkpt><trkpt lat="44.8480941" lon="9.3926077"><ele>738.0</ele><time>2026-04-18T08:56:47.984Z</time></trkpt><trkpt lat="44.8480705" lon="9.3924704"><ele>738.0</ele><time>2026-04-18T08:56:49.984Z</time></trkpt><trkpt lat="44.8480594" lon="9.3923208"><ele>738.0</ele><time>2026-04-18T08:56:51.984Z</time></trkpt><trkpt lat="44.8479897" lon="9.3922043"><ele>738.0</ele><time>2026-04-18T08:56:53.983Z</time></trkpt><trkpt lat="44.8479168" lon="9.3921843"><ele>738.0</ele><time>2026-04-18T08:56:54.984Z</time></trkpt><trkpt lat="44.8478475" lon="9.3921513"><ele>736.5999999999999</ele><time>2026-04-18T08:56:55.984Z</time></trkpt><trkpt lat="44.8477835" lon="9.3920952"><ele>735.1999999999999</ele><time>2026-04-18T08:56:56.982Z</time></trkpt><trkpt lat="44.8477277" lon="9.3920256"><ele>733.8</ele><time>2026-04-18T08:56:57.983Z</time></trkpt><trkpt lat="44.8476755" lon="9.3919588"><ele>732.4</ele><time>2026-04-18T08:56:58.983Z</time></trkpt><trkpt lat="44.8475722" lon="9.3918737"><ele>731.0</ele><time>2026-04-18T08:57:00.983Z</time></trkpt><trkpt lat="44.8474351" lon="9.3918667"><ele>734.5999999999999</ele><time>2026-04-18T08:57:02.985Z</time></trkpt><trkpt lat="44.8473466" lon="9.3918729"><ele>738.2</ele><time>2026-04-18T08:57:03.984Z</time></trkpt><trkpt lat="44.8472506" lon="9.3918911"><ele>741.8</ele><time>2026-04-18T08:57:04.984Z</time></trkpt><trkpt lat="44.8471554" lon="9.3919165"><ele>745.4000000000001</ele><time>2026-04-18T08:57:05.984Z</time></trkpt><trkpt lat="44.8470612" lon="9.3919429"><ele>749.0</ele><time>2026-04-18T08:57:06.984Z</time></trkpt><trkpt lat="44.8469684" lon="9.3919741"><ele>749.0</ele><time>2026-04-18T08:57:07.984Z</time></trkpt><trkpt lat="44.8468743" lon="9.3920032"><ele>749.0</ele><time>2026-04-18T08:57:08.984Z</time></trkpt><trkpt lat="44.846779" lon="9.3920283"><ele>749.0</ele><time>2026-04-18T08:57:09.984Z</time></trkpt><trkpt lat="44.8466919" lon="9.392056"><ele>749.0</ele><time>2026-04-18T08:57:10.983Z</time></trkpt><trkpt lat="44.846622" lon="9.3920793"><ele>749.0</ele><time>2026-04-18T08:57:11.984Z</time></trkpt><trkpt lat="44.8465116" lon="9.3921259"><ele>753.75</ele><time>2026-04-18T08:57:13.984Z</time></trkpt><trkpt lat="44.8464009" lon="9.3921551"><ele>758.5</ele><time>2026-04-18T08:57:15.983Z</time></trkpt><trkpt lat="44.8462823" lon="9.3921794"><ele>763.25</ele><time>2026-04-18T08:57:17.984Z</time></trkpt><trkpt lat="44.8461647" lon="9.3922188"><ele>768.0</ele><time>2026-04-18T08:57:19.983Z</time></trkpt><trkpt lat="44.8460519" lon="9.3922448"><ele>774.0</ele><time>2026-04-18T08:57:21.983Z</time></trkpt><trkpt lat="44.8459251" lon="9.3922805"><ele>780.0</ele><time>2026-04-18T08:57:23.983Z</time></trkpt><trkpt lat="44.8458612" lon="9.39232"><ele>786.0</ele><time>2026-04-18T08:57:24.984Z</time></trkpt><trkpt lat="44.8457615" lon="9.3923969"><ele>792.0</ele><time>2026-04-18T08:57:26.983Z</time></trkpt><trkpt lat="44.845674" lon="9.3924584"><ele>798.0</ele><time>2026-04-18T08:57:28.984Z</time></trkpt><trkpt lat="44.8455913" lon="9.3924784"><ele>798.0</ele><time>2026-04-18T08:57:30.983Z</time></trkpt><trkpt lat="44.8455309" lon="9.3924504"><ele>798.0</ele><time>2026-04-18T08:58:03.984Z</time></trkpt><trkpt lat="44.8455388" lon="9.3923256"><ele>798.0</ele><time>2026-04-18T08:58:05.982Z</time></trkpt><trkpt lat="44.8455424" lon="9.3922243"><ele>798.0</ele><time>2026-04-18T08:58:06.984Z</time></trkpt><trkpt lat="44.8455408" lon="9.3921076"><ele>798.0</ele><time>2026-04-18T08:58:07.983Z</time></trkpt><trkpt lat="44.8455279" lon="9.3919793"><ele>798.0</ele><time>2026-04-18T08:58:08.983Z</time></trkpt><trkpt lat="44.8455074" lon="9.3918495"><ele>796.5</ele><time>2026-04-18T08:58:09.984Z</time></trkpt><trkpt lat="44.8454803" lon="9.3917292"><ele>795.0</ele><time>2026-04-18T08:58:10.984Z</time></trkpt><trkpt lat="44.8454518" lon="9.3916349"><ele>793.5</ele><time>2026-04-18T08:58:11.984Z</time></trkpt><trkpt lat="44.8453936" lon="9.3914933"><ele>792.0</ele><time>2026-04-18T08:58:13.983Z</time></trkpt><trkpt lat="44.8453549" lon="9.3914079"><ele>790.5</ele><time>2026-04-18T08:58:15.983Z</time></trkpt><trkpt lat="44.8453273" lon="9.3913273"><ele>789.0</ele><time>2026-04-18T08:58:17.984Z</time></trkpt><trkpt lat="44.845285" lon="9.3912183"><ele>788.6</ele><time>2026-04-18T08:58:19.984Z</time></trkpt><trkpt lat="44.8452183" lon="9.39109"><ele>788.2</ele><time>2026-04-18T08:58:21.982Z</time></trkpt><trkpt lat="44.84514" lon="9.3909783"><ele>787.8000000000001</ele><time>2026-04-18T08:58:23.984Z</time></trkpt><trkpt lat="44.8450433" lon="9.3909383"><ele>787.4000000000001</ele><time>2026-04-18T08:58:26.985Z</time></trkpt><trkpt lat="44.8449717" lon="9.3909517"><ele>787.0</ele><time>2026-04-18T08:58:28.983Z</time></trkpt><trkpt lat="44.84489" lon="9.3909883"><ele>792.0</ele><time>2026-04-18T08:58:30.985Z</time></trkpt><trkpt lat="44.8448267" lon="9.3910167"><ele>797.0</ele><time>2026-04-18T08:58:31.984Z</time></trkpt><trkpt lat="44.8447417" lon="9.3910317"><ele>802.0</ele><time>2026-04-18T08:58:32.984Z</time></trkpt><trkpt lat="44.8446367" lon="9.3910333"><ele>807.0</ele><time>2026-04-18T08:58:33.983Z</time></trkpt><trkpt lat="44.8445267" lon="9.3910283"><ele>812.0</ele><time>2026-04-18T08:58:34.984Z</time></trkpt><trkpt lat="44.84444" lon="9.391025"><ele>812.0</ele><time>2026-04-18T08:58:35.985Z</time></trkpt><trkpt lat="44.8443433" lon="9.3910183"><ele>812.0</ele><time>2026-04-18T08:58:37.984Z</time></trkpt><trkpt lat="44.84426" lon="9.39092"><ele>812.0</ele><time>2026-04-18T08:58:55.983Z</time></trkpt><trkpt lat="44.84426" lon="9.390745"><ele>812.0</ele><time>2026-04-18T08:58:57.984Z</time></trkpt><trkpt lat="44.8442617" lon="9.3906533"><ele>812.0</ele><time>2026-04-18T08:58:58.983Z</time></trkpt><trkpt lat="44.84427" lon="9.39055"><ele>815.0</ele><time>2026-04-18T08:58:59.983Z</time></trkpt><trkpt lat="44.844275" lon="9.3903983"><ele>818.0</ele><time>2026-04-18T08:59:01.984Z</time></trkpt><trkpt lat="44.844275" lon="9.39026"><ele>821.0</ele><time>2026-04-18T08:59:03.983Z</time></trkpt><trkpt lat="44.8442317" lon="9.39011"><ele>824.0</ele><time>2026-04-18T08:59:05.984Z</time></trkpt><trkpt lat="44.844185" lon="9.389985"><ele>827.0</ele><time>2026-04-18T08:59:07.983Z</time></trkpt><trkpt lat="44.84417" lon="9.3898717"><ele>827.0</ele><time>2026-04-18T08:59:09.984Z</time></trkpt><trkpt lat="44.8442133" lon="9.389795"><ele>827.0</ele><time>2026-04-18T08:59:11.985Z</time></trkpt><trkpt lat="44.8443067" lon="9.38971"><ele>827.0</ele><time>2026-04-18T08:59:13.984Z</time></trkpt><trkpt lat="44.8444083" lon="9.389615"><ele>827.0</ele><time>2026-04-18T08:59:15.983Z</time></trkpt><trkpt lat="44.8444683" lon="9.3895067"><ele>827.0</ele><time>2026-04-18T08:59:17.985Z</time></trkpt><trkpt lat="44.8445317" lon="9.3893567"><ele>827.1666666666667</ele><time>2026-04-18T08:59:19.983Z</time></trkpt><trkpt lat="44.8445817" lon="9.3892617"><ele>827.3333333333334</ele><time>2026-04-18T08:59:20.984Z</time></trkpt><trkpt lat="44.844635" lon="9.3891783"><ele>827.5</ele><time>2026-04-18T08:59:21.984Z</time></trkpt><trkpt lat="44.844695" lon="9.3891033"><ele>827.6666666666667</ele><time>2026-04-18T08:59:22.985Z</time></trkpt><trkpt lat="44.8447517" lon="9.3890417"><ele>827.8333333333334</ele><time>2026-04-18T08:59:23.986Z</time></trkpt><trkpt lat="44.84481" lon="9.3889717"><ele>828.0</ele><time>2026-04-18T08:59:24.986Z</time></trkpt><trkpt lat="44.844865" lon="9.3888983"><ele>828.6666666666666</ele><time>2026-04-18T08:59:25.985Z</time></trkpt><trkpt lat="44.844915" lon="9.38883"><ele>829.3333333333333</ele><time>2026-04-18T08:59:26.983Z</time></trkpt><trkpt lat="44.8449683" lon="9.3887817"><ele>830.0</ele><time>2026-04-18T08:59:27.984Z</time></trkpt><trkpt lat="44.8450483" lon="9.388675"><ele>830.6666666666666</ele><time>2026-04-18T08:59:29.983Z</time></trkpt><trkpt lat="44.8450983" lon="9.3885567"><ele>831.3333333333333</ele><time>2026-04-18T08:59:31.983Z</time></trkpt><trkpt lat="44.8451517" lon="9.3884767"><ele>832.0</ele><time>2026-04-18T08:59:33.985Z</time></trkpt><trkpt lat="44.84521" lon="9.38842"><ele>832.0</ele><time>2026-04-18T08:59:35.984Z</time></trkpt><trkpt lat="44.8452733" lon="9.3883633"><ele>832.0</ele><time>2026-04-18T08:59:37.985Z</time></trkpt><trkpt lat="44.8453617" lon="9.3882733"><ele>832.0</ele><time>2026-04-18T08:59:39.984Z</time></trkpt><trkpt lat="44.8454533" lon="9.3881483"><ele>832.0</ele><time>2026-04-18T08:59:41.983Z</time></trkpt><trkpt lat="44.8454983" lon="9.3880833"><ele>832.0</ele><time>2026-04-18T08:59:42.985Z</time></trkpt><trkpt lat="44.845565" lon="9.3879767"><ele>832.8333333333333</ele><time>2026-04-18T08:59:44.985Z</time></trkpt><trkpt lat="44.8456117" lon="9.38791"><ele>833.6666666666666</ele><time>2026-04-18T08:59:46.984Z</time></trkpt><trkpt lat="44.8456467" lon="9.3878217"><ele>834.5</ele><time>2026-04-18T08:59:52.983Z</time></trkpt><trkpt lat="44.8456783" lon="9.38772"><ele>835.3333333333333</ele><time>2026-04-18T08:59:54.983Z</time></trkpt><trkpt lat="44.8456933" lon="9.3875683"><ele>836.1666666666666</ele><time>2026-04-18T08:59:56.983Z</time></trkpt><trkpt lat="44.8457033" lon="9.38742"><ele>837.0</ele><time>2026-04-18T08:59:58.984Z</time></trkpt><trkpt lat="44.8456717" lon="9.3872533"><ele>836.6666666666666</ele><time>2026-04-18T09:00:00.985Z</time></trkpt><trkpt lat="44.8456417" lon="9.3871617"><ele>836.3333333333333</ele><time>2026-04-18T09:00:01.983Z</time></trkpt><trkpt lat="44.8456083" lon="9.38707"><ele>836.0</ele><time>2026-04-18T09:00:02.984Z</time></trkpt><trkpt lat="44.8455817" lon="9.3869783"><ele>835.6666666666666</ele><time>2026-04-18T09:00:03.985Z</time></trkpt><trkpt lat="44.84555" lon="9.38683"><ele>835.3333333333333</ele><time>2026-04-18T09:00:05.985Z</time></trkpt><trkpt lat="44.8455367" lon="9.3867033"><ele>835.0</ele><time>2026-04-18T09:00:07.984Z</time></trkpt><trkpt lat="44.845535" lon="9.3865883"><ele>835.0</ele><time>2026-04-18T09:00:10.985Z</time></trkpt><trkpt lat="44.845545" lon="9.3865"><ele>835.0</ele><time>2026-04-18T09:00:12.984Z</time></trkpt><trkpt lat="44.8456167" lon="9.3863667"><ele>835.0</ele><time>2026-04-18T09:00:14.984Z</time></trkpt><trkpt lat="44.8456783" lon="9.386285"><ele>835.0</ele><time>2026-04-18T09:00:15.985Z</time></trkpt><trkpt lat="44.8457333" lon="9.3862217"><ele>835.0</ele><time>2026-04-18T09:00:16.982Z</time></trkpt><trkpt lat="44.8458383" lon="9.38612"><ele>836.4</ele><time>2026-04-18T09:00:18.984Z</time></trkpt><trkpt lat="44.84589" lon="9.3860483"><ele>837.8</ele><time>2026-04-18T09:00:19.983Z</time></trkpt><trkpt lat="44.8459367" lon="9.38592"><ele>839.2</ele><time>2026-04-18T09:00:21.984Z</time></trkpt><trkpt lat="44.845905" lon="9.3858033"><ele>840.6</ele><time>2026-04-18T09:00:23.984Z</time></trkpt><trkpt lat="44.8458483" lon="9.3856667"><ele>842.0</ele><time>2026-04-18T09:00:25.983Z</time></trkpt><trkpt lat="44.8458033" lon="9.3855267"><ele>844.5</ele><time>2026-04-18T09:00:27.985Z</time></trkpt><trkpt lat="44.84575" lon="9.38541"><ele>847.0</ele><time>2026-04-18T09:00:29.985Z</time></trkpt><trkpt lat="44.8457367" lon="9.38527"><ele>849.5</ele><time>2026-04-18T09:00:31.985Z</time></trkpt><trkpt lat="44.8457767" lon="9.3851033"><ele>852.0</ele><time>2026-04-18T09:00:33.985Z</time></trkpt><trkpt lat="44.8458483" lon="9.38493"><ele>852.0</ele><time>2026-04-18T09:00:35.984Z</time></trkpt><trkpt lat="44.8458867" lon="9.3848333"><ele>852.0</ele><time>2026-04-18T09:00:36.986Z</time></trkpt><trkpt lat="44.8459683" lon="9.384685"><ele>852.0</ele><time>2026-04-18T09:00:38.984Z</time></trkpt><trkpt lat="44.846035" lon="9.38459"><ele>852.0</ele><time>2026-04-18T09:00:39.984Z</time></trkpt><trkpt lat="44.8461233" lon="9.3844783"><ele>852.0</ele><time>2026-04-18T09:00:40.983Z</time></trkpt><trkpt lat="44.8462083" lon="9.3843683"><ele>851.8333333333334</ele><time>2026-04-18T09:00:41.983Z</time></trkpt><trkpt lat="44.84629" lon="9.3842733"><ele>851.6666666666667</ele><time>2026-04-18T09:00:42.984Z</time></trkpt><trkpt lat="44.84637" lon="9.384195"><ele>851.5</ele><time>2026-04-18T09:00:43.984Z</time></trkpt><trkpt lat="44.846435" lon="9.3841417"><ele>851.3333333333334</ele><time>2026-04-18T09:00:44.983Z</time></trkpt><trkpt lat="44.846495" lon="9.3840967"><ele>851.1666666666667</ele><time>2026-04-18T09:00:45.985Z</time></trkpt><trkpt lat="44.8465467" lon="9.38404"><ele>851.0</ele><time>2026-04-18T09:00:47.986Z</time></trkpt><trkpt lat="44.846555" lon="9.3839167"><ele>852.1666666666667</ele><time>2026-04-18T09:00:49.984Z</time></trkpt><trkpt lat="44.8465667" lon="9.3838"><ele>853.3333333333334</ele><time>2026-04-18T09:00:51.985Z</time></trkpt><trkpt lat="44.8465717" lon="9.38366"><ele>854.5</ele><time>2026-04-18T09:00:53.984Z</time></trkpt><trkpt lat="44.8465783" lon="9.3835483"><ele>855.6666666666667</ele><time>2026-04-18T09:00:55.985Z</time></trkpt><trkpt lat="44.8465567" lon="9.383445"><ele>856.8333333333334</ele><time>2026-04-18T09:00:57.983Z</time></trkpt><trkpt lat="44.846505" lon="9.3833183"><ele>858.0</ele><time>2026-04-18T09:00:59.984Z</time></trkpt><trkpt lat="44.8464617" lon="9.383185"><ele>858.0</ele><time>2026-04-18T09:01:01.984Z</time></trkpt><trkpt lat="44.8464267" lon="9.3830533"><ele>858.0</ele><time>2026-04-18T09:01:03.985Z</time></trkpt><trkpt lat="44.846405" lon="9.38294"><ele>858.0</ele><time>2026-04-18T09:01:05.985Z</time></trkpt><trkpt lat="44.846375" lon="9.3827983"><ele>858.0</ele><time>2026-04-18T09:01:08.985Z</time></trkpt><trkpt lat="44.8463583" lon="9.3826733"><ele>858.0</ele><time>2026-04-18T09:01:10.984Z</time></trkpt><trkpt lat="44.8463433" lon="9.3825467"><ele>857.3333333333334</ele><time>2026-04-18T09:01:12.983Z</time></trkpt><trkpt lat="44.8463233" lon="9.3824217"><ele>856.6666666666667</ele><time>2026-04-18T09:01:15.984Z</time></trkpt><trkpt lat="44.8463417" lon="9.3823233"><ele>856.0</ele><time>2026-04-18T09:01:17.983Z</time></trkpt><trkpt lat="44.846385" lon="9.3822533"><ele>855.3333333333334</ele><time>2026-04-18T09:01:19.985Z</time></trkpt><trkpt lat="44.84645" lon="9.3822467"><ele>854.6666666666667</ele><time>2026-04-18T09:01:21.986Z</time></trkpt><trkpt lat="44.8465517" lon="9.38223"><ele>854.0</ele><time>2026-04-18T09:01:23.985Z</time></trkpt><trkpt lat="44.8466683" lon="9.382205"><ele>854.0</ele><time>2026-04-18T09:01:25.983Z</time></trkpt><trkpt lat="44.8467333" lon="9.3821817"><ele>854.0</ele><time>2026-04-18T09:01:26.986Z</time></trkpt><trkpt lat="44.8468" lon="9.3821617"><ele>854.0</ele><time>2026-04-18T09:01:27.984Z</time></trkpt><trkpt lat="44.8468683" lon="9.3821417"><ele>854.0</ele><time>2026-04-18T09:01:28.985Z</time></trkpt><trkpt lat="44.846935" lon="9.3821117"><ele>854.0</ele><time>2026-04-18T09:01:29.985Z</time></trkpt><trkpt lat="44.8469967" lon="9.3820767"><ele>854.0</ele><time>2026-04-18T09:01:30.984Z</time></trkpt><trkpt lat="44.847055" lon="9.3820317"><ele>854.0</ele><time>2026-04-18T09:01:31.984Z</time></trkpt><trkpt lat="44.84716" lon="9.381955"><ele>852.1428571428571</ele><time>2026-04-18T09:01:33.985Z</time></trkpt><trkpt lat="44.8472333" lon="9.3818883"><ele>850.2857142857142</ele><time>2026-04-18T09:01:35.984Z</time></trkpt><trkpt lat="44.8472867" lon="9.38183"><ele>848.4285714285714</ele><time>2026-04-18T09:01:37.985Z</time></trkpt><trkpt lat="44.8473183" lon="9.381745"><ele>846.5714285714286</ele><time>2026-04-18T09:01:39.984Z</time></trkpt><trkpt lat="44.8473133" lon="9.3816533"><ele>844.7142857142857</ele><time>2026-04-18T09:01:41.983Z</time></trkpt><trkpt lat="44.8472617" lon="9.3815983"><ele>842.8571428571429</ele><time>2026-04-18T09:01:43.984Z</time></trkpt><trkpt lat="44.84721" lon="9.3815183"><ele>841.0</ele><time>2026-04-18T09:01:45.983Z</time></trkpt><trkpt lat="44.8471567" lon="9.381435"><ele>839.5999999999999</ele><time>2026-04-18T09:01:47.984Z</time></trkpt><trkpt lat="44.8470933" lon="9.3813233"><ele>838.2</ele><time>2026-04-18T09:01:50.983Z</time></trkpt><trkpt lat="44.847035" lon="9.3812117"><ele>836.8</ele><time>2026-04-18T09:01:52.984Z</time></trkpt><trkpt lat="44.84702" lon="9.38108"><ele>835.4000000000001</ele><time>2026-04-18T09:01:54.984Z</time></trkpt><trkpt lat="44.8470183" lon="9.3809433"><ele>834.0</ele><time>2026-04-18T09:01:56.983Z</time></trkpt><trkpt lat="44.8469867" lon="9.3807917"><ele>834.0</ele><time>2026-04-18T09:01:58.985Z</time></trkpt><trkpt lat="44.846915" lon="9.3806617"><ele>834.0</ele><time>2026-04-18T09:02:00.984Z</time></trkpt><trkpt lat="44.84684" lon="9.3805667"><ele>834.0</ele><time>2026-04-18T09:02:02.985Z</time></trkpt><trkpt lat="44.8468033" lon="9.38049"><ele>834.0</ele><time>2026-04-18T09:02:04.984Z</time></trkpt><trkpt lat="44.8468017" lon="9.3803583"><ele>834.0</ele><time>2026-04-18T09:02:06.984Z</time></trkpt><trkpt lat="44.8467717" lon="9.38023"><ele>830.3333333333334</ele><time>2026-04-18T09:02:08.985Z</time></trkpt><trkpt lat="44.8466967" lon="9.3801817"><ele>826.6666666666667</ele><time>2026-04-18T09:02:11.984Z</time></trkpt><trkpt lat="44.8466033" lon="9.380205"><ele>823.0</ele><time>2026-04-18T09:02:13.983Z</time></trkpt><trkpt lat="44.846515" lon="9.3802133"><ele>819.3333333333334</ele><time>2026-04-18T09:02:15.984Z</time></trkpt><trkpt lat="44.846445" lon="9.3801867"><ele>815.6666666666667</ele><time>2026-04-18T09:02:17.985Z</time></trkpt><trkpt lat="44.8464033" lon="9.3800967"><ele>812.0</ele><time>2026-04-18T09:02:19.984Z</time></trkpt><trkpt lat="44.84638" lon="9.379975"><ele>812.0000000000001</ele><time>2026-04-18T09:02:21.983Z</time></trkpt><trkpt lat="44.8463983" lon="9.37985"><ele>812.0</ele><time>2026-04-18T09:02:23.986Z</time></trkpt><trkpt lat="44.8464217" lon="9.3797367"><ele>812.0</ele><time>2026-04-18T09:02:25.986Z</time></trkpt><trkpt lat="44.8464433" lon="9.3796083"><ele>812.0</ele><time>2026-04-18T09:02:27.987Z</time></trkpt><trkpt lat="44.846455" lon="9.3794933"><ele>812.0000000000001</ele><time>2026-04-18T09:02:29.984Z</time></trkpt><trkpt lat="44.846465" lon="9.379365"><ele>812.0</ele><time>2026-04-18T09:02:31.985Z</time></trkpt><trkpt lat="44.84648" lon="9.3792017"><ele>808.8</ele><time>2026-04-18T09:02:33.985Z</time></trkpt><trkpt lat="44.8464867" lon="9.3790333"><ele>805.6</ele><time>2026-04-18T09:02:35.986Z</time></trkpt><trkpt lat="44.8464917" lon="9.3788617"><ele>802.4</ele><time>2026-04-18T09:02:37.984Z</time></trkpt><trkpt lat="44.846505" lon="9.3787033"><ele>799.1999999999999</ele><time>2026-04-18T09:02:39.985Z</time></trkpt><trkpt lat="44.8464983" lon="9.3785733"><ele>796.0</ele><time>2026-04-18T09:02:41.984Z</time></trkpt><trkpt lat="44.84643" lon="9.378555"><ele>796.0</ele><time>2026-04-18T09:02:43.984Z</time></trkpt><trkpt lat="44.8463733" lon="9.3786467"><ele>796.0</ele><time>2026-04-18T09:02:45.983Z</time></trkpt><trkpt lat="44.8463217" lon="9.3787767"><ele>796.0</ele><time>2026-04-18T09:02:47.983Z</time></trkpt><trkpt lat="44.84625" lon="9.37889"><ele>796.0</ele><time>2026-04-18T09:02:49.983Z</time></trkpt><trkpt lat="44.8461867" lon="9.37898"><ele>796.0</ele><time>2026-04-18T09:02:51.984Z</time></trkpt><trkpt lat="44.8461183" lon="9.37909"><ele>796.0</ele><time>2026-04-18T09:02:53.983Z</time></trkpt><trkpt lat="44.8460217" lon="9.379195"><ele>796.0</ele><time>2026-04-18T09:02:55.984Z</time></trkpt><trkpt lat="44.8459267" lon="9.3792967"><ele>796.0</ele><time>2026-04-18T09:02:57.983Z</time></trkpt><trkpt lat="44.8458283" lon="9.3793933"><ele>796.0</ele><time>2026-04-18T09:02:59.985Z</time></trkpt><trkpt lat="44.845725" lon="9.3794"><ele>791.1999999999999</ele><time>2026-04-18T09:03:01.984Z</time></trkpt><trkpt lat="44.8456883" lon="9.3793117"><ele>786.4</ele><time>2026-04-18T09:03:03.984Z</time></trkpt><trkpt lat="44.8457383" lon="9.379215"><ele>781.6</ele><time>2026-04-18T09:03:05.984Z</time></trkpt><trkpt lat="44.8458033" lon="9.3791217"><ele>776.8</ele><time>2026-04-18T09:03:07.983Z</time></trkpt><trkpt lat="44.8458533" lon="9.3789867"><ele>772.0</ele><time>2026-04-18T09:03:09.985Z</time></trkpt><trkpt lat="44.845865" lon="9.378825"><ele>768.8</ele><time>2026-04-18T09:03:11.984Z</time></trkpt><trkpt lat="44.8458517" lon="9.3786567"><ele>765.6</ele><time>2026-04-18T09:03:13.983Z</time></trkpt><trkpt lat="44.84582" lon="9.3785"><ele>762.4</ele><time>2026-04-18T09:03:15.985Z</time></trkpt><trkpt lat="44.8458017" lon="9.3783517"><ele>759.1999999999999</ele><time>2026-04-18T09:03:17.983Z</time></trkpt><trkpt lat="44.8458117" lon="9.37822"><ele>756.0</ele><time>2026-04-18T09:03:19.984Z</time></trkpt><trkpt lat="44.8458417" lon="9.3781033"><ele>756.0</ele><time>2026-04-18T09:03:21.985Z</time></trkpt><trkpt lat="44.845865" lon="9.37801"><ele>756.0</ele><time>2026-04-18T09:03:23.984Z</time></trkpt><trkpt lat="44.8457967" lon="9.3780417"><ele>756.0</ele><time>2026-04-18T09:03:27.984Z</time></trkpt><trkpt lat="44.8457067" lon="9.3782017"><ele>756.0</ele><time>2026-04-18T09:03:29.984Z</time></trkpt><trkpt lat="44.8456567" lon="9.3782967"><ele>756.0</ele><time>2026-04-18T09:03:30.983Z</time></trkpt><trkpt lat="44.845615" lon="9.3783633"><ele>756.0</ele><time>2026-04-18T09:03:31.982Z</time></trkpt><trkpt lat="44.8455567" lon="9.37843"><ele>756.0</ele><time>2026-04-18T09:03:33.982Z</time></trkpt><trkpt lat="44.845475" lon="9.37841"><ele>756.0</ele><time>2026-04-18T09:03:36.983Z</time></trkpt><trkpt lat="44.8454367" lon="9.378305"><ele>756.0</ele><time>2026-04-18T09:03:38.983Z</time></trkpt><trkpt lat="44.8453833" lon="9.3781917"><ele>756.0</ele><time>2026-04-18T09:03:40.982Z</time></trkpt><trkpt lat="44.8452867" lon="9.3780967"><ele>756.0</ele><time>2026-04-18T09:03:42.983Z</time></trkpt><trkpt lat="44.84518" lon="9.3780033"><ele>751.5</ele><time>2026-04-18T09:03:44.982Z</time></trkpt><trkpt lat="44.8450967" lon="9.3778867"><ele>747.0</ele><time>2026-04-18T09:03:46.982Z</time></trkpt><trkpt lat="44.8450583" lon="9.3778083"><ele>742.5</ele><time>2026-04-18T09:03:47.982Z</time></trkpt><trkpt lat="44.845025" lon="9.37771"><ele>738.0</ele><time>2026-04-18T09:03:48.982Z</time></trkpt><trkpt lat="44.8450033" lon="9.3775983"><ele>733.5</ele><time>2026-04-18T09:03:49.985Z</time></trkpt><trkpt lat="44.844985" lon="9.3774967"><ele>729.0</ele><time>2026-04-18T09:03:50.983Z</time></trkpt><trkpt lat="44.84497" lon="9.3773967"><ele>729.0</ele><time>2026-04-18T09:03:51.984Z</time></trkpt><trkpt lat="44.8449533" lon="9.37731"><ele>729.0</ele><time>2026-04-18T09:03:52.983Z</time></trkpt><trkpt lat="44.8449017" lon="9.377165"><ele>729.0</ele><time>2026-04-18T09:03:54.982Z</time></trkpt><trkpt lat="44.8448383" lon="9.377065"><ele>729.0</ele><time>2026-04-18T09:03:56.984Z</time></trkpt><trkpt lat="44.8447833" lon="9.3769867"><ele>729.0</ele><time>2026-04-18T09:03:58.984Z</time></trkpt><trkpt lat="44.8447267" lon="9.3768817"><ele>729.0</ele><time>2026-04-18T09:04:01.982Z</time></trkpt><trkpt lat="44.8446733" lon="9.376755"><ele>726.0</ele><time>2026-04-18T09:04:05.983Z</time></trkpt><trkpt lat="44.844615" lon="9.3766867"><ele>723.0</ele><time>2026-04-18T09:04:07.983Z</time></trkpt><trkpt lat="44.8445533" lon="9.3766417"><ele>720.0</ele><time>2026-04-18T09:04:09.984Z</time></trkpt><trkpt lat="44.8444783" lon="9.3766133"><ele>717.0</ele><time>2026-04-18T09:04:11.984Z</time></trkpt><trkpt lat="44.8444067" lon="9.3766033"><ele>714.0</ele><time>2026-04-18T09:04:13.985Z</time></trkpt><trkpt lat="44.84433" lon="9.3765617"><ele>711.0</ele><time>2026-04-18T09:04:16.982Z</time></trkpt><trkpt lat="44.84426" lon="9.37651"><ele>711.0</ele><time>2026-04-18T09:04:19.983Z</time></trkpt><trkpt lat="44.844185" lon="9.3764733"><ele>711.0</ele><time>2026-04-18T09:04:21.984Z</time></trkpt><trkpt lat="44.844105" lon="9.376445"><ele>711.0</ele><time>2026-04-18T09:04:23.984Z</time></trkpt><trkpt lat="44.8440317" lon="9.3764367"><ele>711.0</ele><time>2026-04-18T09:04:25.983Z</time></trkpt><trkpt lat="44.843935" lon="9.376405"><ele>711.0</ele><time>2026-04-18T09:04:27.984Z</time></trkpt><trkpt lat="44.8438217" lon="9.3763267"><ele>708.2857142857143</ele><time>2026-04-18T09:04:29.984Z</time></trkpt><trkpt lat="44.8437683" lon="9.3762767"><ele>705.5714285714286</ele><time>2026-04-18T09:04:30.984Z</time></trkpt><trkpt lat="44.8437117" lon="9.3762333"><ele>702.8571428571429</ele><time>2026-04-18T09:04:31.983Z</time></trkpt><trkpt lat="44.8436533" lon="9.3762"><ele>700.1428571428571</ele><time>2026-04-18T09:04:32.983Z</time></trkpt><trkpt lat="44.8435867" lon="9.3761867"><ele>697.4285714285714</ele><time>2026-04-18T09:04:33.984Z</time></trkpt><trkpt lat="44.8435133" lon="9.376175"><ele>694.7142857142857</ele><time>2026-04-18T09:04:34.984Z</time></trkpt><trkpt lat="44.8434367" lon="9.3761833"><ele>692.0</ele><time>2026-04-18T09:04:35.984Z</time></trkpt><trkpt lat="44.8433617" lon="9.3762133"><ele>692.0</ele><time>2026-04-18T09:04:36.984Z</time></trkpt><trkpt lat="44.84328" lon="9.3762433"><ele>692.0</ele><time>2026-04-18T09:04:37.983Z</time></trkpt><trkpt lat="44.8432" lon="9.37627"><ele>692.0</ele><time>2026-04-18T09:04:38.983Z</time></trkpt><trkpt lat="44.8431233" lon="9.3762867"><ele>692.0</ele><time>2026-04-18T09:04:39.984Z</time></trkpt><trkpt lat="44.8430517" lon="9.3763017"><ele>692.0</ele><time>2026-04-18T09:04:40.984Z</time></trkpt><trkpt lat="44.8429833" lon="9.37632"><ele>692.0</ele><time>2026-04-18T09:04:41.983Z</time></trkpt><trkpt lat="44.84292" lon="9.3763417"><ele>692.0</ele><time>2026-04-18T09:04:42.984Z</time></trkpt><trkpt lat="44.8428517" lon="9.376355"><ele>692.0</ele><time>2026-04-18T09:04:43.983Z</time></trkpt><trkpt lat="44.8427367" lon="9.3763717"><ele>692.0</ele><time>2026-04-18T09:04:45.987Z</time></trkpt><trkpt lat="44.8426767" lon="9.3763367"><ele>692.0</ele><time>2026-04-18T09:04:47.984Z</time></trkpt><trkpt lat="44.8426767" lon="9.376205"><ele>692.0</ele><time>2026-04-18T09:04:49.982Z</time></trkpt><trkpt lat="44.8426917" lon="9.37611"><ele>692.0</ele><time>2026-04-18T09:04:50.985Z</time></trkpt><trkpt lat="44.8427133" lon="9.3760233"><ele>692.0</ele><time>2026-04-18T09:04:51.984Z</time></trkpt><trkpt lat="44.8427333" lon="9.3758467"><ele>692.0</ele><time>2026-04-18T09:04:53.984Z</time></trkpt><trkpt lat="44.84273" lon="9.375755"><ele>692.0</ele><time>2026-04-18T09:04:54.985Z</time></trkpt><trkpt lat="44.8427183" lon="9.375665"><ele>692.0</ele><time>2026-04-18T09:04:55.985Z</time></trkpt><trkpt lat="44.8426617" lon="9.37551"><ele>692.0</ele><time>2026-04-18T09:04:57.984Z</time></trkpt><trkpt lat="44.8426067" lon="9.3753733"><ele>691.0</ele><time>2026-04-18T09:04:59.984Z</time></trkpt><trkpt lat="44.8425733" lon="9.3752483"><ele>690.0</ele><time>2026-04-18T09:05:01.984Z</time></trkpt><trkpt lat="44.8425517" lon="9.3750983"><ele>689.0</ele><time>2026-04-18T09:05:03.982Z</time></trkpt><trkpt lat="44.8425383" lon="9.3749717"><ele>688.0</ele><time>2026-04-18T09:05:05.983Z</time></trkpt><trkpt lat="44.8425267" lon="9.3748317"><ele>687.0</ele><time>2026-04-18T09:05:07.984Z</time></trkpt><trkpt lat="44.8425133" lon="9.3747217"><ele>685.5</ele><time>2026-04-18T09:05:09.984Z</time></trkpt><trkpt lat="44.8425467" lon="9.37464"><ele>684.0</ele><time>2026-04-18T09:05:11.983Z</time></trkpt><trkpt lat="44.8426167" lon="9.3746133"><ele>682.5</ele><time>2026-04-18T09:05:13.982Z</time></trkpt><trkpt lat="44.8427" lon="9.374625"><ele>681.0</ele><time>2026-04-18T09:05:15.984Z</time></trkpt><trkpt lat="44.8427717" lon="9.3746967"><ele>679.5</ele><time>2026-04-18T09:05:17.982Z</time></trkpt><trkpt lat="44.8428667" lon="9.374765"><ele>678.0</ele><time>2026-04-18T09:05:19.983Z</time></trkpt><trkpt lat="44.84297" lon="9.3748417"><ele>678.0</ele><time>2026-04-18T09:05:21.984Z</time></trkpt><trkpt lat="44.843055" lon="9.3748783"><ele>678.0</ele><time>2026-04-18T09:05:23.983Z</time></trkpt><trkpt lat="44.84313" lon="9.374855"><ele>678.0</ele><time>2026-04-18T09:05:25.983Z</time></trkpt><trkpt lat="44.8431583" lon="9.3747667"><ele>678.0</ele><time>2026-04-18T09:05:28.984Z</time></trkpt><trkpt lat="44.8431667" lon="9.3746583"><ele>678.0</ele><time>2026-04-18T09:05:30.984Z</time></trkpt><trkpt lat="44.84317" lon="9.3745283"><ele>678.0</ele><time>2026-04-18T09:05:32.984Z</time></trkpt><trkpt lat="44.8431633" lon="9.3743933"><ele>675.5999999999999</ele><time>2026-04-18T09:05:34.984Z</time></trkpt><trkpt lat="44.8431417" lon="9.374255"><ele>673.1999999999999</ele><time>2026-04-18T09:05:36.984Z</time></trkpt><trkpt lat="44.8431" lon="9.3741117"><ele>670.8</ele><time>2026-04-18T09:05:38.984Z</time></trkpt><trkpt lat="44.8430583" lon="9.3739667"><ele>668.4</ele><time>2026-04-18T09:05:40.983Z</time></trkpt><trkpt lat="44.843065" lon="9.37383"><ele>666.0</ele><time>2026-04-18T09:05:42.983Z</time></trkpt><trkpt lat="44.8430633" lon="9.3736683"><ele>662.5999999999999</ele><time>2026-04-18T09:05:44.986Z</time></trkpt><trkpt lat="44.8430467" lon="9.3735083"><ele>659.2</ele><time>2026-04-18T09:05:46.982Z</time></trkpt><trkpt lat="44.8430367" lon="9.37335"><ele>655.8</ele><time>2026-04-18T09:05:48.985Z</time></trkpt><trkpt lat="44.843045" lon="9.3731933"><ele>652.4000000000001</ele><time>2026-04-18T09:05:50.984Z</time></trkpt><trkpt lat="44.843035" lon="9.373065"><ele>649.0</ele><time>2026-04-18T09:05:52.985Z</time></trkpt><trkpt lat="44.8429667" lon="9.3729867"><ele>645.8000000000001</ele><time>2026-04-18T09:05:54.985Z</time></trkpt><trkpt lat="44.8428833" lon="9.3729067"><ele>642.6</ele><time>2026-04-18T09:05:56.983Z</time></trkpt><trkpt lat="44.8427883" lon="9.3728433"><ele>639.4</ele><time>2026-04-18T09:05:58.984Z</time></trkpt><trkpt lat="44.8426983" lon="9.372805"><ele>636.2</ele><time>2026-04-18T09:06:00.984Z</time></trkpt><trkpt lat="44.842585" lon="9.3727917"><ele>633.0</ele><time>2026-04-18T09:06:02.983Z</time></trkpt><trkpt lat="44.8424783" lon="9.3728217"><ele>633.0</ele><time>2026-04-18T09:06:04.985Z</time></trkpt><trkpt lat="44.8423783" lon="9.3728633"><ele>633.0</ele><time>2026-04-18T09:06:06.983Z</time></trkpt><trkpt lat="44.84228" lon="9.3728583"><ele>633.0</ele><time>2026-04-18T09:06:08.985Z</time></trkpt><trkpt lat="44.8421833" lon="9.3728317"><ele>633.0</ele><time>2026-04-18T09:06:10.983Z</time></trkpt><trkpt lat="44.8421067" lon="9.3727783"><ele>633.0</ele><time>2026-04-18T09:06:12.983Z</time></trkpt><trkpt lat="44.8420333" lon="9.3726917"><ele>633.0</ele><time>2026-04-18T09:06:14.983Z</time></trkpt><trkpt lat="44.8419667" lon="9.372565"><ele>633.0</ele><time>2026-04-18T09:06:16.983Z</time></trkpt><trkpt lat="44.8418983" lon="9.3724383"><ele>633.0</ele><time>2026-04-18T09:06:18.984Z</time></trkpt><trkpt lat="44.8418033" lon="9.37234"><ele>633.0</ele><time>2026-04-18T09:06:20.986Z</time></trkpt><trkpt lat="44.841695" lon="9.3722683"><ele>631.6</ele><time>2026-04-18T09:06:22.982Z</time></trkpt><trkpt lat="44.8416383" lon="9.3722267"><ele>630.1999999999999</ele><time>2026-04-18T09:06:23.982Z</time></trkpt><trkpt lat="44.8415317" lon="9.372155"><ele>628.8</ele><time>2026-04-18T09:06:25.983Z</time></trkpt><trkpt lat="44.8414317" lon="9.372105"><ele>627.4</ele><time>2026-04-18T09:06:27.984Z</time></trkpt><trkpt lat="44.8413167" lon="9.372085"><ele>626.0</ele><time>2026-04-18T09:06:29.983Z</time></trkpt><trkpt lat="44.8412517" lon="9.37207"><ele>624.1428571428571</ele><time>2026-04-18T09:06:30.983Z</time></trkpt><trkpt lat="44.841185" lon="9.3720483"><ele>622.2857142857143</ele><time>2026-04-18T09:06:31.984Z</time></trkpt><trkpt lat="44.84112" lon="9.3720283"><ele>620.4285714285714</ele><time>2026-04-18T09:06:32.983Z</time></trkpt><trkpt lat="44.8410567" lon="9.3720067"><ele>618.5714285714286</ele><time>2026-04-18T09:06:33.984Z</time></trkpt><trkpt lat="44.8409933" lon="9.3719783"><ele>616.7142857142857</ele><time>2026-04-18T09:06:34.983Z</time></trkpt><trkpt lat="44.8409267" lon="9.3719517"><ele>614.8571428571429</ele><time>2026-04-18T09:06:35.983Z</time></trkpt><trkpt lat="44.8408617" lon="9.371925"><ele>613.0</ele><time>2026-04-18T09:06:36.983Z</time></trkpt><trkpt lat="44.8407983" lon="9.3719017"><ele>613.0</ele><time>2026-04-18T09:06:37.984Z</time></trkpt><trkpt lat="44.8406867" lon="9.3718533"><ele>613.0</ele><time>2026-04-18T09:06:39.982Z</time></trkpt><trkpt lat="44.8405967" lon="9.3717833"><ele>613.0</ele><time>2026-04-18T09:06:41.986Z</time></trkpt><trkpt lat="44.8405333" lon="9.3716917"><ele>613.0</ele><time>2026-04-18T09:06:43.982Z</time></trkpt><trkpt lat="44.840495" lon="9.3716017"><ele>613.0</ele><time>2026-04-18T09:06:45.982Z</time></trkpt><trkpt lat="44.840485" lon="9.371505"><ele>613.0</ele><time>2026-04-18T09:06:47.983Z</time></trkpt><trkpt lat="44.840485" lon="9.3713867"><ele>613.0</ele><time>2026-04-18T09:06:49.982Z</time></trkpt><trkpt lat="44.8404567" lon="9.37125"><ele>613.0</ele><time>2026-04-18T09:06:51.983Z</time></trkpt><trkpt lat="44.8403967" lon="9.37111"><ele>613.0</ele><time>2026-04-18T09:06:53.982Z</time></trkpt><trkpt lat="44.84031" lon="9.3710333"><ele>613.0</ele><time>2026-04-18T09:06:55.984Z</time></trkpt><trkpt lat="44.8402183" lon="9.3709817"><ele>612.8333333333334</ele><time>2026-04-18T09:06:57.983Z</time></trkpt><trkpt lat="44.84016" lon="9.37089"><ele>612.6666666666667</ele><time>2026-04-18T09:06:59.984Z</time></trkpt><trkpt lat="44.840175" lon="9.3708017"><ele>612.5</ele><time>2026-04-18T09:07:01.983Z</time></trkpt><trkpt lat="44.8402117" lon="9.3707017"><ele>612.3333333333334</ele><time>2026-04-18T09:07:03.983Z</time></trkpt><trkpt lat="44.8402867" lon="9.3705433"><ele>612.1666666666666</ele><time>2026-04-18T09:07:05.983Z</time></trkpt><trkpt lat="44.8403283" lon="9.3704467"><ele>612.0</ele><time>2026-04-18T09:07:06.984Z</time></trkpt><trkpt lat="44.8403733" lon="9.370365"><ele>612.0</ele><time>2026-04-18T09:07:07.984Z</time></trkpt><trkpt lat="44.8404183" lon="9.3702883"><ele>612.0</ele><time>2026-04-18T09:07:08.984Z</time></trkpt><trkpt lat="44.8404567" lon="9.3701267"><ele>612.0</ele><time>2026-04-18T09:07:10.983Z</time></trkpt><trkpt lat="44.8404783" lon="9.3699667"><ele>612.0</ele><time>2026-04-18T09:07:12.983Z</time></trkpt><trkpt lat="44.84051" lon="9.36979"><ele>612.0</ele><time>2026-04-18T09:07:14.984Z</time></trkpt><trkpt lat="44.8405283" lon="9.3696967"><ele>613.1666666666666</ele><time>2026-04-18T09:07:15.983Z</time></trkpt><trkpt lat="44.8405483" lon="9.3696117"><ele>614.3333333333334</ele><time>2026-04-18T09:07:16.983Z</time></trkpt><trkpt lat="44.8405783" lon="9.36947"><ele>615.5</ele><time>2026-04-18T09:07:18.982Z</time></trkpt><trkpt lat="44.84063" lon="9.369315"><ele>616.6666666666667</ele><time>2026-04-18T09:07:20.982Z</time></trkpt><trkpt lat="44.8406667" lon="9.369225"><ele>617.8333333333334</ele><time>2026-04-18T09:07:21.983Z</time></trkpt><trkpt lat="44.8406933" lon="9.3691333"><ele>619.0</ele><time>2026-04-18T09:07:22.982Z</time></trkpt><trkpt lat="44.8407133" lon="9.3690367"><ele>619.0</ele><time>2026-04-18T09:07:23.984Z</time></trkpt><trkpt lat="44.8407233" lon="9.3689367"><ele>619.0</ele><time>2026-04-18T09:07:24.983Z</time></trkpt><trkpt lat="44.84073" lon="9.3688383"><ele>619.0</ele><time>2026-04-18T09:07:25.983Z</time></trkpt><trkpt lat="44.8407233" lon="9.3687317"><ele>619.0</ele><time>2026-04-18T09:07:26.983Z</time></trkpt><trkpt lat="44.84071" lon="9.368625"><ele>619.0</ele><time>2026-04-18T09:07:27.983Z</time></trkpt><trkpt lat="44.84069" lon="9.3685067"><ele>619.0</ele><time>2026-04-18T09:07:28.983Z</time></trkpt><trkpt lat="44.8406633" lon="9.3683883"><ele>619.3333333333334</ele><time>2026-04-18T09:07:29.983Z</time></trkpt><trkpt lat="44.840635" lon="9.3682833"><ele>619.6666666666667</ele><time>2026-04-18T09:07:30.984Z</time></trkpt><trkpt lat="44.840605" lon="9.3681867"><ele>620.0</ele><time>2026-04-18T09:07:31.985Z</time></trkpt><trkpt lat="44.8405633" lon="9.3680917"><ele>620.3333333333334</ele><time>2026-04-18T09:07:32.985Z</time></trkpt><trkpt lat="44.8405167" lon="9.3679983"><ele>620.6666666666666</ele><time>2026-04-18T09:07:33.984Z</time></trkpt><trkpt lat="44.8404733" lon="9.367915"><ele>621.0</ele><time>2026-04-18T09:07:34.984Z</time></trkpt><trkpt lat="44.8404267" lon="9.3678383"><ele>621.0</ele><time>2026-04-18T09:07:35.984Z</time></trkpt><trkpt lat="44.8403767" lon="9.367765"><ele>621.0</ele><time>2026-04-18T09:07:36.984Z</time></trkpt><trkpt lat="44.840335" lon="9.3676783"><ele>621.0</ele><time>2026-04-18T09:07:37.984Z</time></trkpt><trkpt lat="44.8402917" lon="9.367595"><ele>621.0</ele><time>2026-04-18T09:07:38.984Z</time></trkpt><trkpt lat="44.8402567" lon="9.3675083"><ele>621.0</ele><time>2026-04-18T09:07:39.985Z</time></trkpt><trkpt lat="44.8402367" lon="9.3674167"><ele>621.0</ele><time>2026-04-18T09:07:40.985Z</time></trkpt><trkpt lat="44.8401967" lon="9.3672667"><ele>620.6</ele><time>2026-04-18T09:07:42.983Z</time></trkpt><trkpt lat="44.8401517" lon="9.3671667"><ele>620.2</ele><time>2026-04-18T09:07:44.984Z</time></trkpt><trkpt lat="44.8400683" lon="9.3671217"><ele>619.8</ele><time>2026-04-18T09:07:46.982Z</time></trkpt><trkpt lat="44.8399617" lon="9.3670583"><ele>619.4</ele><time>2026-04-18T09:07:48.982Z</time></trkpt><trkpt lat="44.8399" lon="9.3670133"><ele>619.0</ele><time>2026-04-18T09:07:49.984Z</time></trkpt><trkpt lat="44.83981" lon="9.3669383"><ele>623.25</ele><time>2026-04-18T09:07:51.984Z</time></trkpt><trkpt lat="44.8397667" lon="9.3668333"><ele>627.5</ele><time>2026-04-18T09:07:53.983Z</time></trkpt><trkpt lat="44.8397217" lon="9.3666967"><ele>631.75</ele><time>2026-04-18T09:07:55.984Z</time></trkpt><trkpt lat="44.8396467" lon="9.3665483"><ele>636.0</ele><time>2026-04-18T09:07:57.984Z</time></trkpt><trkpt lat="44.839565" lon="9.3664083"><ele>639.25</ele><time>2026-04-18T09:07:59.983Z</time></trkpt><trkpt lat="44.8394917" lon="9.3662717"><ele>642.5</ele><time>2026-04-18T09:08:01.984Z</time></trkpt><trkpt lat="44.8394083" lon="9.3661133"><ele>645.75</ele><time>2026-04-18T09:08:03.984Z</time></trkpt><trkpt lat="44.839355" lon="9.36604"><ele>649.0</ele><time>2026-04-18T09:08:04.983Z</time></trkpt><trkpt lat="44.8392604" lon="9.365919"><ele>650.4000000000001</ele><time>2026-04-18T09:08:06.984Z</time></trkpt><trkpt lat="44.8392105" lon="9.3658571"><ele>651.8</ele><time>2026-04-18T09:08:07.983Z</time></trkpt><trkpt lat="44.8391588" lon="9.365804"><ele>653.2</ele><time>2026-04-18T09:08:08.983Z</time></trkpt><trkpt lat="44.8390543" lon="9.3657366"><ele>654.5999999999999</ele><time>2026-04-18T09:08:10.984Z</time></trkpt><trkpt lat="44.8389777" lon="9.365664"><ele>656.0</ele><time>2026-04-18T09:08:12.983Z</time></trkpt><trkpt lat="44.8388794" lon="9.3655754"><ele>659.3333333333333</ele><time>2026-04-18T09:08:14.984Z</time></trkpt><trkpt lat="44.8388252" lon="9.3655203"><ele>662.6666666666666</ele><time>2026-04-18T09:08:16.983Z</time></trkpt><trkpt lat="44.8387558" lon="9.3654169"><ele>666.0</ele><time>2026-04-18T09:08:19.984Z</time></trkpt><trkpt lat="44.8387261" lon="9.3653333"><ele>669.3333333333334</ele><time>2026-04-18T09:08:21.984Z</time></trkpt><trkpt lat="44.8387708" lon="9.3652598"><ele>672.6666666666667</ele><time>2026-04-18T09:08:23.983Z</time></trkpt><trkpt lat="44.8388754" lon="9.3651789"><ele>676.0</ele><time>2026-04-18T09:08:25.982Z</time></trkpt><trkpt lat="44.838929" lon="9.3651296"><ele>676.0</ele><time>2026-04-18T09:08:26.984Z</time></trkpt><trkpt lat="44.8389865" lon="9.3650766"><ele>676.0</ele><time>2026-04-18T09:08:27.983Z</time></trkpt><trkpt lat="44.8390833" lon="9.3650019"><ele>676.0</ele><time>2026-04-18T09:08:29.983Z</time></trkpt><trkpt lat="44.839194" lon="9.364992"><ele>676.0</ele><time>2026-04-18T09:08:31.983Z</time></trkpt><trkpt lat="44.8393092" lon="9.3649977"><ele>676.0</ele><time>2026-04-18T09:08:33.984Z</time></trkpt><trkpt lat="44.8393969" lon="9.3650204"><ele>675.5</ele><time>2026-04-18T09:08:35.984Z</time></trkpt><trkpt lat="44.8394795" lon="9.3650235"><ele>675.0</ele><time>2026-04-18T09:08:37.983Z</time></trkpt><trkpt lat="44.8395503" lon="9.3649882"><ele>674.5</ele><time>2026-04-18T09:08:39.984Z</time></trkpt><trkpt lat="44.8396409" lon="9.3649388"><ele>674.0</ele><time>2026-04-18T09:08:41.983Z</time></trkpt><trkpt lat="44.8397419" lon="9.3648565"><ele>673.5</ele><time>2026-04-18T09:08:43.983Z</time></trkpt><trkpt lat="44.8397944" lon="9.364804"><ele>673.0</ele><time>2026-04-18T09:08:44.984Z</time></trkpt><trkpt lat="44.8398934" lon="9.3647078"><ele>674.3333333333334</ele><time>2026-04-18T09:08:46.984Z</time></trkpt><trkpt lat="44.8400042" lon="9.3646235"><ele>675.6666666666667</ele><time>2026-04-18T09:08:48.982Z</time></trkpt><trkpt lat="44.8400738" lon="9.3645746"><ele>677.0</ele><time>2026-04-18T09:08:49.984Z</time></trkpt><trkpt lat="44.8401446" lon="9.3645207"><ele>678.3333333333334</ele><time>2026-04-18T09:08:50.984Z</time></trkpt><trkpt lat="44.8402141" lon="9.364469"><ele>679.6666666666666</ele><time>2026-04-18T09:08:51.984Z</time></trkpt><trkpt lat="44.8402793" lon="9.3644173"><ele>681.0</ele><time>2026-04-18T09:08:52.988Z</time></trkpt><trkpt lat="44.8403353" lon="9.3643753"><ele>681.0</ele><time>2026-04-18T09:08:53.984Z</time></trkpt><trkpt lat="44.8404445" lon="9.3642948"><ele>681.0</ele><time>2026-04-18T09:08:55.984Z</time></trkpt><trkpt lat="44.8405086" lon="9.364248"><ele>681.0</ele><time>2026-04-18T09:08:56.985Z</time></trkpt><trkpt lat="44.8405684" lon="9.3642018"><ele>681.0</ele><time>2026-04-18T09:08:57.983Z</time></trkpt><trkpt lat="44.8406265" lon="9.3641378"><ele>681.0</ele><time>2026-04-18T09:08:58.982Z</time></trkpt><trkpt lat="44.8406858" lon="9.3640642"><ele>681.0</ele><time>2026-04-18T09:08:59.984Z</time></trkpt><trkpt lat="44.8407495" lon="9.3639965"><ele>681.0</ele><time>2026-04-18T09:09:00.984Z</time></trkpt><trkpt lat="44.8408209" lon="9.3639297"><ele>681.0</ele><time>2026-04-18T09:09:01.985Z</time></trkpt><trkpt lat="44.8408875" lon="9.3638654"><ele>681.0</ele><time>2026-04-18T09:09:02.984Z</time></trkpt><trkpt lat="44.84095" lon="9.3637967"><ele>681.0</ele><time>2026-04-18T09:09:03.983Z</time></trkpt><trkpt lat="44.8410015" lon="9.3637303"><ele>681.0</ele><time>2026-04-18T09:09:04.984Z</time></trkpt><trkpt lat="44.8410652" lon="9.3636281"><ele>681.0</ele><time>2026-04-18T09:09:06.984Z</time></trkpt><trkpt lat="44.841085" lon="9.3634983"><ele>680.1666666666666</ele><time>2026-04-18T09:11:58.983Z</time></trkpt><trkpt lat="44.841145" lon="9.3634183"><ele>679.3333333333334</ele><time>2026-04-18T09:12:00.983Z</time></trkpt><trkpt lat="44.8412317" lon="9.363325"><ele>678.5</ele><time>2026-04-18T09:12:02.983Z</time></trkpt><trkpt lat="44.8412683" lon="9.3632167"><ele>677.6666666666667</ele><time>2026-04-18T09:12:04.983Z</time></trkpt><trkpt lat="44.8412833" lon="9.363105"><ele>676.8333333333334</ele><time>2026-04-18T09:12:06.984Z</time></trkpt><trkpt lat="44.8412833" lon="9.36299"><ele>676.0</ele><time>2026-04-18T09:12:08.984Z</time></trkpt><trkpt lat="44.8412783" lon="9.3628433"><ele>676.0</ele><time>2026-04-18T09:12:10.984Z</time></trkpt><trkpt lat="44.84128" lon="9.3627533"><ele>676.0</ele><time>2026-04-18T09:12:11.985Z</time></trkpt><trkpt lat="44.841305" lon="9.3626083"><ele>676.0</ele><time>2026-04-18T09:12:13.983Z</time></trkpt><trkpt lat="44.84132" lon="9.3624633"><ele>676.0</ele><time>2026-04-18T09:12:15.983Z</time></trkpt><trkpt lat="44.8413783" lon="9.362335"><ele>676.0</ele><time>2026-04-18T09:12:17.986Z</time></trkpt><trkpt lat="44.8414517" lon="9.3622467"><ele>676.3333333333334</ele><time>2026-04-18T09:12:19.986Z</time></trkpt><trkpt lat="44.841515" lon="9.3621833"><ele>676.6666666666667</ele><time>2026-04-18T09:12:21.986Z</time></trkpt><trkpt lat="44.841575" lon="9.3621433"><ele>677.0</ele><time>2026-04-18T09:12:23.986Z</time></trkpt><trkpt lat="44.8416383" lon="9.3620667"><ele>677.3333333333334</ele><time>2026-04-18T09:12:25.983Z</time></trkpt><trkpt lat="44.8416817" lon="9.3619917"><ele>677.6666666666666</ele><time>2026-04-18T09:12:27.983Z</time></trkpt><trkpt lat="44.8417233" lon="9.3618883"><ele>678.0</ele><time>2026-04-18T09:12:29.983Z</time></trkpt><trkpt lat="44.841775" lon="9.361805"><ele>674.6666666666666</ele><time>2026-04-18T09:12:31.983Z</time></trkpt><trkpt lat="44.841845" lon="9.36175"><ele>671.3333333333334</ele><time>2026-04-18T09:12:33.984Z</time></trkpt><trkpt lat="44.841925" lon="9.361735"><ele>668.0</ele><time>2026-04-18T09:12:35.985Z</time></trkpt><trkpt lat="44.8420217" lon="9.3617283"><ele>664.6666666666667</ele><time>2026-04-18T09:12:37.984Z</time></trkpt><trkpt lat="44.842105" lon="9.3616933"><ele>661.3333333333334</ele><time>2026-04-18T09:12:39.983Z</time></trkpt><trkpt lat="44.8421667" lon="9.3616467"><ele>658.0</ele><time>2026-04-18T09:12:41.984Z</time></trkpt><trkpt lat="44.8422233" lon="9.3615667"><ele>658.0</ele><time>2026-04-18T09:12:43.984Z</time></trkpt><trkpt lat="44.8422933" lon="9.3615017"><ele>658.0</ele><time>2026-04-18T09:12:45.983Z</time></trkpt><trkpt lat="44.842365" lon="9.3615017"><ele>658.0</ele><time>2026-04-18T09:12:47.984Z</time></trkpt><trkpt lat="44.84245" lon="9.3615233"><ele>658.0</ele><time>2026-04-18T09:12:49.984Z</time></trkpt><trkpt lat="44.8425117" lon="9.3614683"><ele>658.0</ele><time>2026-04-18T09:12:52.983Z</time></trkpt><trkpt lat="44.8425317" lon="9.3613533"><ele>658.0</ele><time>2026-04-18T09:12:55.983Z</time></trkpt><trkpt lat="44.842565" lon="9.3612567"><ele>658.8</ele><time>2026-04-18T09:12:57.984Z</time></trkpt><trkpt lat="44.8426067" lon="9.361165"><ele>659.5999999999999</ele><time>2026-04-18T09:12:59.983Z</time></trkpt><trkpt lat="44.8426633" lon="9.3610633"><ele>660.4000000000001</ele><time>2026-04-18T09:13:01.983Z</time></trkpt><trkpt lat="44.8427117" lon="9.3609467"><ele>661.2</ele><time>2026-04-18T09:13:03.983Z</time></trkpt><trkpt lat="44.8427633" lon="9.3608183"><ele>662.0</ele><time>2026-04-18T09:13:05.984Z</time></trkpt><trkpt lat="44.842825" lon="9.3607067"><ele>658.5</ele><time>2026-04-18T09:13:07.984Z</time></trkpt><trkpt lat="44.84289" lon="9.3606383"><ele>655.0</ele><time>2026-04-18T09:13:09.984Z</time></trkpt><trkpt lat="44.8429567" lon="9.3606117"><ele>651.5</ele><time>2026-04-18T09:13:12.988Z</time></trkpt><trkpt lat="44.8430417" lon="9.3606117"><ele>648.0</ele><time>2026-04-18T09:13:15.984Z</time></trkpt><trkpt lat="44.84313" lon="9.3606067"><ele>644.5</ele><time>2026-04-18T09:13:18.985Z</time></trkpt><trkpt lat="44.8432083" lon="9.3605967"><ele>641.0</ele><time>2026-04-18T09:13:20.984Z</time></trkpt><trkpt lat="44.8432783" lon="9.3605883"><ele>641.0</ele><time>2026-04-18T09:13:22.983Z</time></trkpt><trkpt lat="44.8433467" lon="9.36058"><ele>641.0</ele><time>2026-04-18T09:13:24.983Z</time></trkpt><trkpt lat="44.8434133" lon="9.3605917"><ele>641.0</ele><time>2026-04-18T09:13:26.984Z</time></trkpt><trkpt lat="44.8434833" lon="9.3605783"><ele>641.0</ele><time>2026-04-18T09:13:28.985Z</time></trkpt><trkpt lat="44.84356" lon="9.3605633"><ele>641.0</ele><time>2026-04-18T09:13:30.984Z</time></trkpt><trkpt lat="44.8436567" lon="9.3605483"><ele>641.0</ele><time>2026-04-18T09:13:32.985Z</time></trkpt><trkpt lat="44.8437633" lon="9.36054"><ele>636.8</ele><time>2026-04-18T09:13:34.984Z</time></trkpt><trkpt lat="44.84385" lon="9.3605283"><ele>632.5999999999999</ele><time>2026-04-18T09:13:36.985Z</time></trkpt><trkpt lat="44.8439333" lon="9.3605483"><ele>628.4</ele><time>2026-04-18T09:13:38.985Z</time></trkpt><trkpt lat="44.84403" lon="9.3605583"><ele>624.2</ele><time>2026-04-18T09:13:40.985Z</time></trkpt><trkpt lat="44.8441233" lon="9.3605783"><ele>620.0</ele><time>2026-04-18T09:13:42.983Z</time></trkpt><trkpt lat="44.84422" lon="9.36057"><ele>619.1666666666666</ele><time>2026-04-18T09:13:44.983Z</time></trkpt><trkpt lat="44.844295" lon="9.3605483"><ele>618.3333333333333</ele><time>2026-04-18T09:13:46.984Z</time></trkpt><trkpt lat="44.84438" lon="9.3605433"><ele>617.5</ele><time>2026-04-18T09:13:48.984Z</time></trkpt><trkpt lat="44.84448" lon="9.3605383"><ele>616.6666666666666</ele><time>2026-04-18T09:13:50.984Z</time></trkpt><trkpt lat="44.84457" lon="9.3605383"><ele>615.8333333333334</ele><time>2026-04-18T09:13:52.986Z</time></trkpt><trkpt lat="44.8446483" lon="9.3605"><ele>615.0</ele><time>2026-04-18T09:13:54.985Z</time></trkpt><trkpt lat="44.84472" lon="9.3604567"><ele>611.6666666666666</ele><time>2026-04-18T09:13:56.983Z</time></trkpt><trkpt lat="44.8447917" lon="9.3604"><ele>608.3333333333334</ele><time>2026-04-18T09:13:59.983Z</time></trkpt><trkpt lat="44.8448" lon="9.360305"><ele>605.0</ele><time>2026-04-18T09:14:21.984Z</time></trkpt><trkpt lat="44.8447683" lon="9.3602083"><ele>601.6666666666667</ele><time>2026-04-18T09:14:24.985Z</time></trkpt><trkpt lat="44.84473" lon="9.3600833"><ele>598.3333333333334</ele><time>2026-04-18T09:14:31.983Z</time></trkpt><trkpt lat="44.8447167" lon="9.3599067"><ele>595.0</ele><time>2026-04-18T09:14:33.984Z</time></trkpt><trkpt lat="44.8446933" lon="9.3597917"><ele>596.4</ele><time>2026-04-18T09:14:34.984Z</time></trkpt><trkpt lat="44.844675" lon="9.3596567"><ele>597.8</ele><time>2026-04-18T09:14:35.985Z</time></trkpt><trkpt lat="44.844665" lon="9.359505"><ele>599.2</ele><time>2026-04-18T09:14:36.983Z</time></trkpt><trkpt lat="44.844665" lon="9.359355"><ele>600.6</ele><time>2026-04-18T09:14:37.985Z</time></trkpt><trkpt lat="44.8446683" lon="9.3592433"><ele>602.0</ele><time>2026-04-18T09:14:38.985Z</time></trkpt><trkpt lat="44.844665" lon="9.3591317"><ele>602.0</ele><time>2026-04-18T09:14:39.985Z</time></trkpt><trkpt lat="44.844655" lon="9.3590233"><ele>602.0</ele><time>2026-04-18T09:14:40.984Z</time></trkpt><trkpt lat="44.8446" lon="9.3589217"><ele>602.0</ele><time>2026-04-18T09:14:41.984Z</time></trkpt><trkpt lat="44.8445567" lon="9.358815"><ele>602.0</ele><time>2026-04-18T09:14:42.985Z</time></trkpt><trkpt lat="44.8444817" lon="9.35871"><ele>602.0</ele><time>2026-04-18T09:14:43.984Z</time></trkpt><trkpt lat="44.8443833" lon="9.3585867"><ele>601.2</ele><time>2026-04-18T09:14:44.985Z</time></trkpt><trkpt lat="44.8443067" lon="9.35847"><ele>600.4000000000001</ele><time>2026-04-18T09:14:45.985Z</time></trkpt><trkpt lat="44.844245" lon="9.358355"><ele>599.5999999999999</ele><time>2026-04-18T09:14:46.984Z</time></trkpt><trkpt lat="44.8442017" lon="9.358235"><ele>598.8</ele><time>2026-04-18T09:14:47.984Z</time></trkpt><trkpt lat="44.8441667" lon="9.3581517"><ele>598.0</ele><time>2026-04-18T09:14:48.985Z</time></trkpt><trkpt lat="44.8441367" lon="9.3580517"><ele>602.3333333333334</ele><time>2026-04-18T09:14:49.984Z</time></trkpt><trkpt lat="44.8441067" lon="9.3579683"><ele>606.6666666666667</ele><time>2026-04-18T09:14:50.985Z</time></trkpt><trkpt lat="44.8440833" lon="9.35787"><ele>611.0</ele><time>2026-04-18T09:14:51.984Z</time></trkpt><trkpt lat="44.844055" lon="9.3577817"><ele>615.3333333333334</ele><time>2026-04-18T09:14:52.983Z</time></trkpt><trkpt lat="44.844025" lon="9.3576817"><ele>619.6666666666666</ele><time>2026-04-18T09:14:53.985Z</time></trkpt><trkpt lat="44.843985" lon="9.35758"><ele>624.0</ele><time>2026-04-18T09:14:54.985Z</time></trkpt><trkpt lat="44.8439317" lon="9.35748"><ele>624.0</ele><time>2026-04-18T09:14:55.984Z</time></trkpt><trkpt lat="44.843875" lon="9.3573783"><ele>624.0</ele><time>2026-04-18T09:14:56.986Z</time></trkpt><trkpt lat="44.84383" lon="9.3572683"><ele>624.0</ele><time>2026-04-18T09:14:57.983Z</time></trkpt><trkpt lat="44.8437867" lon="9.357165"><ele>624.0</ele><time>2026-04-18T09:14:58.984Z</time></trkpt><trkpt lat="44.84375" lon="9.3570833"><ele>624.0</ele><time>2026-04-18T09:14:59.985Z</time></trkpt><trkpt lat="44.8437167" lon="9.3569467"><ele>624.0</ele><time>2026-04-18T09:15:01.984Z</time></trkpt><trkpt lat="44.8436883" lon="9.356775"><ele>623.2</ele><time>2026-04-18T09:15:15.985Z</time></trkpt><trkpt lat="44.84363" lon="9.3566667"><ele>622.4</ele><time>2026-04-18T09:15:18.985Z</time></trkpt><trkpt lat="44.843595" lon="9.3565483"><ele>621.6</ele><time>2026-04-18T09:15:20.985Z</time></trkpt><trkpt lat="44.8435917" lon="9.3563783"><ele>620.8</ele><time>2026-04-18T09:15:22.984Z</time></trkpt><trkpt lat="44.84357" lon="9.35622"><ele>620.0</ele><time>2026-04-18T09:15:24.984Z</time></trkpt><trkpt lat="44.8434733" lon="9.3561233"><ele>623.1666666666666</ele><time>2026-04-18T09:15:26.985Z</time></trkpt><trkpt lat="44.8434083" lon="9.3560783"><ele>626.3333333333333</ele><time>2026-04-18T09:15:27.983Z</time></trkpt><trkpt lat="44.8433233" lon="9.3560467"><ele>629.5</ele><time>2026-04-18T09:15:28.984Z</time></trkpt><trkpt lat="44.8432233" lon="9.356035"><ele>632.6666666666666</ele><time>2026-04-18T09:15:29.983Z</time></trkpt><trkpt lat="44.84313" lon="9.3560383"><ele>635.8333333333334</ele><time>2026-04-18T09:15:30.984Z</time></trkpt><trkpt lat="44.8430517" lon="9.356035"><ele>639.0</ele><time>2026-04-18T09:15:31.985Z</time></trkpt><trkpt lat="44.84296" lon="9.356035"><ele>639.0</ele><time>2026-04-18T09:15:32.984Z</time></trkpt><trkpt lat="44.8428867" lon="9.3560133"><ele>639.0</ele><time>2026-04-18T09:15:33.983Z</time></trkpt><trkpt lat="44.8428233" lon="9.3559633"><ele>639.0</ele><time>2026-04-18T09:15:34.983Z</time></trkpt><trkpt lat="44.8427583" lon="9.3559133"><ele>639.0</ele><time>2026-04-18T09:15:35.984Z</time></trkpt><trkpt lat="44.8426917" lon="9.3558667"><ele>639.0</ele><time>2026-04-18T09:15:36.984Z</time></trkpt><trkpt lat="44.8426193" lon="9.3558228"><ele>639.0</ele><time>2026-04-18T09:15:37.985Z</time></trkpt><trkpt lat="44.8425383" lon="9.3557771"><ele>643.6</ele><time>2026-04-18T09:15:38.985Z</time></trkpt><trkpt lat="44.842461" lon="9.3557386"><ele>648.2</ele><time>2026-04-18T09:15:39.983Z</time></trkpt><trkpt lat="44.8423883" lon="9.3556982"><ele>652.8000000000001</ele><time>2026-04-18T09:15:40.983Z</time></trkpt><trkpt lat="44.8423221" lon="9.3556617"><ele>657.4</ele><time>2026-04-18T09:15:41.983Z</time></trkpt><trkpt lat="44.8422244" lon="9.3555845"><ele>662.0</ele><time>2026-04-18T09:15:43.985Z</time></trkpt><trkpt lat="44.8421556" lon="9.355467"><ele>662.0</ele><time>2026-04-18T09:15:45.984Z</time></trkpt><trkpt lat="44.8420718" lon="9.3553193"><ele>662.0</ele><time>2026-04-18T09:15:47.984Z</time></trkpt><trkpt lat="44.842037" lon="9.3552337"><ele>662.0</ele><time>2026-04-18T09:15:48.986Z</time></trkpt><trkpt lat="44.8420032" lon="9.3551567"><ele>662.0</ele><time>2026-04-18T09:15:49.983Z</time></trkpt><trkpt lat="44.8419726" lon="9.3550653"><ele>662.0</ele><time>2026-04-18T09:15:50.985Z</time></trkpt><trkpt lat="44.8419265" lon="9.3549576"><ele>662.0</ele><time>2026-04-18T09:15:51.983Z</time></trkpt><trkpt lat="44.8418831" lon="9.3548379"><ele>662.0</ele><time>2026-04-18T09:15:52.984Z</time></trkpt><trkpt lat="44.8418522" lon="9.3547293"><ele>662.0</ele><time>2026-04-18T09:15:53.985Z</time></trkpt><trkpt lat="44.8418599" lon="9.3545667"><ele>662.0</ele><time>2026-04-18T09:15:55.984Z</time></trkpt><trkpt lat="44.8418954" lon="9.354459"><ele>662.0</ele><time>2026-04-18T09:15:57.983Z</time></trkpt><trkpt lat="44.8419236" lon="9.3543796"><ele>662.0</ele><time>2026-04-18T09:15:59.984Z</time></trkpt><trkpt lat="44.8419255" lon="9.3542367"><ele>662.0</ele><time>2026-04-18T09:16:53.983Z</time></trkpt><trkpt lat="44.8419812" lon="9.3541098"><ele>663.2</ele><time>2026-04-18T09:17:01.983Z</time></trkpt><trkpt lat="44.8420091" lon="9.3539726"><ele>664.4000000000001</ele><time>2026-04-18T09:17:03.985Z</time></trkpt><trkpt lat="44.8420364" lon="9.3538321"><ele>665.5999999999999</ele><time>2026-04-18T09:17:05.984Z</time></trkpt><trkpt lat="44.8420985" lon="9.3536905"><ele>666.8</ele><time>2026-04-18T09:17:07.985Z</time></trkpt><trkpt lat="44.8421439" lon="9.3535314"><ele>668.0</ele><time>2026-04-18T09:17:09.984Z</time></trkpt><trkpt lat="44.8422015" lon="9.353408"><ele>670.8333333333333</ele><time>2026-04-18T09:17:11.984Z</time></trkpt><trkpt lat="44.8422766" lon="9.3533596"><ele>673.6666666666666</ele><time>2026-04-18T09:17:13.983Z</time></trkpt><trkpt lat="44.84234" lon="9.3533246"><ele>676.5</ele><time>2026-04-18T09:17:15.984Z</time></trkpt><trkpt lat="44.8423889" lon="9.3532559"><ele>679.3333333333334</ele><time>2026-04-18T09:17:17.983Z</time></trkpt><trkpt lat="44.8424386" lon="9.3531824"><ele>682.1666666666667</ele><time>2026-04-18T09:17:19.984Z</time></trkpt><trkpt lat="44.8425183" lon="9.3531312"><ele>685.0</ele><time>2026-04-18T09:17:21.984Z</time></trkpt><trkpt lat="44.8426255" lon="9.3530424"><ele>688.0</ele><time>2026-04-18T09:17:23.983Z</time></trkpt><trkpt lat="44.8427187" lon="9.3529171"><ele>691.0</ele><time>2026-04-18T09:17:25.984Z</time></trkpt><trkpt lat="44.8427725" lon="9.3528626"><ele>694.0</ele><time>2026-04-18T09:17:26.983Z</time></trkpt><trkpt lat="44.8428367" lon="9.352825"><ele>697.0</ele><time>2026-04-18T09:17:27.983Z</time></trkpt><trkpt lat="44.8428983" lon="9.3527967"><ele>700.0</ele><time>2026-04-18T09:17:28.984Z</time></trkpt><trkpt lat="44.8429917" lon="9.35274"><ele>703.0</ele><time>2026-04-18T09:17:30.984Z</time></trkpt><trkpt lat="44.843075" lon="9.3526583"><ele>703.0</ele><time>2026-04-18T09:17:32.983Z</time></trkpt><trkpt lat="44.8431567" lon="9.3526"><ele>703.0</ele><time>2026-04-18T09:17:34.983Z</time></trkpt><trkpt lat="44.8432183" lon="9.3525767"><ele>703.0</ele><time>2026-04-18T09:17:36.983Z</time></trkpt><trkpt lat="44.8432883" lon="9.3525683"><ele>703.0</ele><time>2026-04-18T09:17:38.983Z</time></trkpt><trkpt lat="44.84336" lon="9.3525667"><ele>703.0</ele><time>2026-04-18T09:17:40.984Z</time></trkpt><trkpt lat="44.8434367" lon="9.3525833"><ele>703.0</ele><time>2026-04-18T09:17:42.983Z</time></trkpt><trkpt lat="44.8435217" lon="9.3526217"><ele>700.8</ele><time>2026-04-18T09:17:44.984Z</time></trkpt><trkpt lat="44.8436067" lon="9.35264"><ele>698.5999999999999</ele><time>2026-04-18T09:17:47.983Z</time></trkpt><trkpt lat="44.843695" lon="9.35264"><ele>696.4000000000001</ele><time>2026-04-18T09:23:35.983Z</time></trkpt><trkpt lat="44.8437783" lon="9.3526833"><ele>694.2</ele><time>2026-04-18T09:23:37.983Z</time></trkpt><trkpt lat="44.8438967" lon="9.35273"><ele>692.0</ele><time>2026-04-18T09:23:39.984Z</time></trkpt><trkpt lat="44.8439633" lon="9.35275"><ele>692.0</ele><time>2026-04-18T09:23:40.984Z</time></trkpt><trkpt lat="44.844035" lon="9.35277"><ele>692.0</ele><time>2026-04-18T09:23:41.985Z</time></trkpt><trkpt lat="44.8441267" lon="9.3527833"><ele>692.0</ele><time>2026-04-18T09:23:43.984Z</time></trkpt><trkpt lat="44.8441883" lon="9.3527533"><ele>692.0</ele><time>2026-04-18T09:23:45.984Z</time></trkpt><trkpt lat="44.844255" lon="9.3527"><ele>692.0</ele><time>2026-04-18T09:23:47.984Z</time></trkpt><trkpt lat="44.8443467" lon="9.3525817"><ele>692.0</ele><time>2026-04-18T09:23:49.985Z</time></trkpt><trkpt lat="44.8444" lon="9.352525"><ele>692.6</ele><time>2026-04-18T09:23:50.985Z</time></trkpt><trkpt lat="44.8445017" lon="9.3524267"><ele>693.2</ele><time>2026-04-18T09:23:52.983Z</time></trkpt><trkpt lat="44.8445517" lon="9.3523717"><ele>693.8</ele><time>2026-04-18T09:23:53.984Z</time></trkpt><trkpt lat="44.844645" lon="9.3522883"><ele>694.4</ele><time>2026-04-18T09:23:55.984Z</time></trkpt><trkpt lat="44.8447017" lon="9.3522433"><ele>695.0</ele><time>2026-04-18T09:23:56.984Z</time></trkpt><trkpt lat="44.8447967" lon="9.352165"><ele>695.0</ele><time>2026-04-18T09:23:58.984Z</time></trkpt><trkpt lat="44.8448667" lon="9.3521"><ele>695.0</ele><time>2026-04-18T09:24:00.984Z</time></trkpt><trkpt lat="44.8449267" lon="9.35205"><ele>695.0</ele><time>2026-04-18T09:24:02.983Z</time></trkpt><trkpt lat="44.8450217" lon="9.351965"><ele>695.0</ele><time>2026-04-18T09:24:26.985Z</time></trkpt><trkpt lat="44.8451033" lon="9.3518783"><ele>695.0</ele><time>2026-04-18T09:24:29.984Z</time></trkpt><trkpt lat="44.8451717" lon="9.3518117"><ele>692.8333333333333</ele><time>2026-04-18T09:24:31.984Z</time></trkpt><trkpt lat="44.8452383" lon="9.351755"><ele>690.6666666666666</ele><time>2026-04-18T09:24:33.983Z</time></trkpt><trkpt lat="44.8453117" lon="9.3517017"><ele>688.5</ele><time>2026-04-18T09:24:35.983Z</time></trkpt><trkpt lat="44.84539" lon="9.3516417"><ele>686.3333333333334</ele><time>2026-04-18T09:24:37.985Z</time></trkpt><trkpt lat="44.8454717" lon="9.3515883"><ele>684.1666666666667</ele><time>2026-04-18T09:24:39.985Z</time></trkpt><trkpt lat="44.8455733" lon="9.3515483"><ele>682.0</ele><time>2026-04-18T09:24:41.984Z</time></trkpt><trkpt lat="44.845655" lon="9.3514967"><ele>682.0</ele><time>2026-04-18T09:24:43.984Z</time></trkpt><trkpt lat="44.845725" lon="9.35143"><ele>682.0</ele><time>2026-04-18T09:24:45.983Z</time></trkpt><trkpt lat="44.8458117" lon="9.3513967"><ele>682.0</ele><time>2026-04-18T09:24:48.983Z</time></trkpt><trkpt lat="44.84588" lon="9.3514133"><ele>682.0</ele><time>2026-04-18T09:24:50.984Z</time></trkpt><trkpt lat="44.84596" lon="9.35147"><ele>682.0</ele><time>2026-04-18T09:24:52.983Z</time></trkpt><trkpt lat="44.8460417" lon="9.3515383"><ele>682.0</ele><time>2026-04-18T09:24:54.984Z</time></trkpt><trkpt lat="44.846115" lon="9.3515833"><ele>682.8571428571429</ele><time>2026-04-18T09:24:56.985Z</time></trkpt><trkpt lat="44.8461733" lon="9.3516183"><ele>683.7142857142858</ele><time>2026-04-18T09:24:58.983Z</time></trkpt><trkpt lat="44.8462517" lon="9.3516617"><ele>684.5714285714287</ele><time>2026-04-18T09:25:01.985Z</time></trkpt><trkpt lat="44.84632" lon="9.3517233"><ele>685.4285714285714</ele><time>2026-04-18T09:25:04.983Z</time></trkpt><trkpt lat="44.8463817" lon="9.3517533"><ele>686.2857142857143</ele><time>2026-04-18T09:25:07.983Z</time></trkpt><trkpt lat="44.8464483" lon="9.3517967"><ele>687.1428571428572</ele><time>2026-04-18T09:25:10.984Z</time></trkpt><trkpt lat="44.84652" lon="9.3518533"><ele>688.0</ele><time>2026-04-18T09:25:12.985Z</time></trkpt><trkpt lat="44.8465783" lon="9.3519033"><ele>688.0</ele><time>2026-04-18T09:25:13.984Z</time></trkpt><trkpt lat="44.8466333" lon="9.351955"><ele>688.0</ele><time>2026-04-18T09:25:14.986Z</time></trkpt><trkpt lat="44.84669" lon="9.3520083"><ele>688.0</ele><time>2026-04-18T09:25:15.984Z</time></trkpt><trkpt lat="44.84675" lon="9.3520683"><ele>688.0</ele><time>2026-04-18T09:25:16.984Z</time></trkpt><trkpt lat="44.8468367" lon="9.3521917"><ele>688.0</ele><time>2026-04-18T09:25:18.984Z</time></trkpt><trkpt lat="44.84691" lon="9.352315"><ele>688.0</ele><time>2026-04-18T09:25:20.984Z</time></trkpt><trkpt lat="44.8469983" lon="9.3523567"><ele>687.5999999999999</ele><time>2026-04-18T09:25:22.984Z</time></trkpt><trkpt lat="44.847085" lon="9.3523733"><ele>687.1999999999999</ele><time>2026-04-18T09:25:24.985Z</time></trkpt><trkpt lat="44.847175" lon="9.3523717"><ele>686.8</ele><time>2026-04-18T09:25:26.983Z</time></trkpt><trkpt lat="44.8472717" lon="9.3523617"><ele>686.4</ele><time>2026-04-18T09:25:28.984Z</time></trkpt><trkpt lat="44.84737" lon="9.3523483"><ele>686.0</ele><time>2026-04-18T09:25:30.984Z</time></trkpt><trkpt lat="44.847475" lon="9.3523483"><ele>686.0</ele><time>2026-04-18T09:25:32.983Z</time></trkpt><trkpt lat="44.8475433" lon="9.3523517"><ele>686.0</ele><time>2026-04-18T09:25:33.984Z</time></trkpt><trkpt lat="44.847655" lon="9.3523733"><ele>686.0</ele><time>2026-04-18T09:25:35.984Z</time></trkpt><trkpt lat="44.8477233" lon="9.3524033"><ele>686.0</ele><time>2026-04-18T09:25:36.985Z</time></trkpt><trkpt lat="44.847785" lon="9.35244"><ele>686.0</ele><time>2026-04-18T09:25:37.983Z</time></trkpt><trkpt lat="44.847875" lon="9.35251"><ele>686.0</ele><time>2026-04-18T09:25:39.984Z</time></trkpt><trkpt lat="44.847985" lon="9.3525633"><ele>686.8571428571429</ele><time>2026-04-18T09:25:41.984Z</time></trkpt><trkpt lat="44.8480467" lon="9.3525917"><ele>687.7142857142858</ele><time>2026-04-18T09:25:42.987Z</time></trkpt><trkpt lat="44.8481067" lon="9.35262"><ele>688.5714285714286</ele><time>2026-04-18T09:25:43.986Z</time></trkpt><trkpt lat="44.8481683" lon="9.3526533"><ele>689.4285714285714</ele><time>2026-04-18T09:25:44.986Z</time></trkpt><trkpt lat="44.84823" lon="9.3526917"><ele>690.2857142857143</ele><time>2026-04-18T09:25:45.984Z</time></trkpt><trkpt lat="44.8482917" lon="9.35273"><ele>691.1428571428571</ele><time>2026-04-18T09:25:46.983Z</time></trkpt><trkpt lat="44.8483983" lon="9.3527983"><ele>692.0</ele><time>2026-04-18T09:25:48.983Z</time></trkpt><trkpt lat="44.8485167" lon="9.35284"><ele>692.2</ele><time>2026-04-18T09:25:50.984Z</time></trkpt><trkpt lat="44.8486333" lon="9.352865"><ele>692.4000000000001</ele><time>2026-04-18T09:25:52.984Z</time></trkpt><trkpt lat="44.8487233" lon="9.35288"><ele>692.5999999999999</ele><time>2026-04-18T09:25:54.984Z</time></trkpt><trkpt lat="44.8488217" lon="9.3528833"><ele>692.8</ele><time>2026-04-18T09:25:56.984Z</time></trkpt><trkpt lat="44.8489483" lon="9.352885"><ele>693.0</ele><time>2026-04-18T09:25:58.984Z</time></trkpt><trkpt lat="44.8490133" lon="9.352885"><ele>693.0</ele><time>2026-04-18T09:25:59.984Z</time></trkpt><trkpt lat="44.8490867" lon="9.352885"><ele>693.0</ele><time>2026-04-18T09:26:00.982Z</time></trkpt><trkpt lat="44.849165" lon="9.3528783"><ele>693.0</ele><time>2026-04-18T09:26:01.983Z</time></trkpt><trkpt lat="44.849235" lon="9.3528783"><ele>693.0</ele><time>2026-04-18T09:26:02.986Z</time></trkpt><trkpt lat="44.8493" lon="9.35288"><ele>693.0</ele><time>2026-04-18T09:26:03.984Z</time></trkpt><trkpt lat="44.849365" lon="9.3528883"><ele>693.0</ele><time>2026-04-18T09:26:04.983Z</time></trkpt><trkpt lat="44.8494333" lon="9.3528967"><ele>693.0</ele><time>2026-04-18T09:26:05.983Z</time></trkpt><trkpt lat="44.8495083" lon="9.3528983"><ele>692.0</ele><time>2026-04-18T09:26:06.984Z</time></trkpt><trkpt lat="44.84958" lon="9.3528983"><ele>691.0</ele><time>2026-04-18T09:26:07.985Z</time></trkpt><trkpt lat="44.8496467" lon="9.3529"><ele>690.0</ele><time>2026-04-18T09:26:08.985Z</time></trkpt><trkpt lat="44.84971" lon="9.352905"><ele>689.0</ele><time>2026-04-18T09:26:09.984Z</time></trkpt><trkpt lat="44.849775" lon="9.352905"><ele>688.0</ele><time>2026-04-18T09:26:10.983Z</time></trkpt><trkpt lat="44.849885" lon="9.3528983"><ele>687.0</ele><time>2026-04-18T09:26:12.985Z</time></trkpt><trkpt lat="44.84998" lon="9.3528867"><ele>687.0</ele><time>2026-04-18T09:26:14.983Z</time></trkpt><trkpt lat="44.8500817" lon="9.3528617"><ele>687.0</ele><time>2026-04-18T09:26:16.985Z</time></trkpt><trkpt lat="44.850195" lon="9.3528433"><ele>687.0</ele><time>2026-04-18T09:26:18.983Z</time></trkpt><trkpt lat="44.8503167" lon="9.3528183"><ele>687.0</ele><time>2026-04-18T09:26:20.985Z</time></trkpt><trkpt lat="44.85038" lon="9.352805"><ele>687.0</ele><time>2026-04-18T09:26:21.983Z</time></trkpt><trkpt lat="44.8504967" lon="9.3527533"><ele>684.4000000000001</ele><time>2026-04-18T09:26:23.984Z</time></trkpt><trkpt lat="44.8505567" lon="9.352715"><ele>681.8000000000001</ele><time>2026-04-18T09:26:24.984Z</time></trkpt><trkpt lat="44.85068" lon="9.35265"><ele>679.2</ele><time>2026-04-18T09:26:26.985Z</time></trkpt><trkpt lat="44.8507433" lon="9.35262"><ele>676.6</ele><time>2026-04-18T09:26:27.985Z</time></trkpt><trkpt lat="44.8508467" lon="9.3525567"><ele>674.0</ele><time>2026-04-18T09:26:29.983Z</time></trkpt><trkpt lat="44.8509483" lon="9.3524767"><ele>671.8000000000001</ele><time>2026-04-18T09:26:31.984Z</time></trkpt><trkpt lat="44.8510067" lon="9.3524367"><ele>669.6</ele><time>2026-04-18T09:26:32.985Z</time></trkpt><trkpt lat="44.8510667" lon="9.3524017"><ele>667.4</ele><time>2026-04-18T09:26:33.984Z</time></trkpt><trkpt lat="44.85118" lon="9.3523183"><ele>665.2</ele><time>2026-04-18T09:26:35.983Z</time></trkpt><trkpt lat="44.8512633" lon="9.352205"><ele>663.0</ele><time>2026-04-18T09:26:37.984Z</time></trkpt><trkpt lat="44.8513033" lon="9.3520533"><ele>662.9999999999999</ele><time>2026-04-18T09:26:39.985Z</time></trkpt><trkpt lat="44.8513017" lon="9.3519633"><ele>663.0</ele><time>2026-04-18T09:26:40.984Z</time></trkpt><trkpt lat="44.851305" lon="9.3518733"><ele>663.0</ele><time>2026-04-18T09:26:41.984Z</time></trkpt><trkpt lat="44.8513117" lon="9.35177"><ele>663.0</ele><time>2026-04-18T09:26:42.986Z</time></trkpt><trkpt lat="44.85133" lon="9.3516833"><ele>663.0</ele><time>2026-04-18T09:26:43.983Z</time></trkpt><trkpt lat="44.85136" lon="9.3516"><ele>662.9999999999999</ele><time>2026-04-18T09:26:44.985Z</time></trkpt><trkpt lat="44.85141" lon="9.35146"><ele>663.0</ele><time>2026-04-18T09:26:46.985Z</time></trkpt><trkpt lat="44.8514483" lon="9.3513417"><ele>664.4</ele><time>2026-04-18T09:26:48.986Z</time></trkpt><trkpt lat="44.85149" lon="9.35125"><ele>665.8</ele><time>2026-04-18T09:26:50.983Z</time></trkpt><trkpt lat="44.8515583" lon="9.3511233"><ele>667.2</ele><time>2026-04-18T09:26:52.984Z</time></trkpt><trkpt lat="44.8516567" lon="9.3510017"><ele>668.6</ele><time>2026-04-18T09:26:54.983Z</time></trkpt><trkpt lat="44.851715" lon="9.3509417"><ele>670.0</ele><time>2026-04-18T09:26:55.982Z</time></trkpt><trkpt lat="44.8517683" lon="9.350885"><ele>671.0</ele><time>2026-04-18T09:26:56.984Z</time></trkpt><trkpt lat="44.85185" lon="9.350785"><ele>672.0</ele><time>2026-04-18T09:26:58.983Z</time></trkpt><trkpt lat="44.851925" lon="9.3506867"><ele>673.0</ele><time>2026-04-18T09:27:00.983Z</time></trkpt><trkpt lat="44.85198" lon="9.3505967"><ele>674.0</ele><time>2026-04-18T09:27:02.983Z</time></trkpt><trkpt lat="44.8520717" lon="9.35052"><ele>675.0</ele><time>2026-04-18T09:27:04.983Z</time></trkpt><trkpt lat="44.8521567" lon="9.3504533"><ele>675.0</ele><time>2026-04-18T09:27:06.983Z</time></trkpt><trkpt lat="44.8522367" lon="9.3503833"><ele>675.0</ele><time>2026-04-18T09:27:08.982Z</time></trkpt><trkpt lat="44.8523183" lon="9.350315"><ele>675.0</ele><time>2026-04-18T09:27:10.983Z</time></trkpt><trkpt lat="44.8523733" lon="9.3502667"><ele>675.0</ele><time>2026-04-18T09:27:11.983Z</time></trkpt><trkpt lat="44.8524333" lon="9.3502117"><ele>675.0</ele><time>2026-04-18T09:27:12.983Z</time></trkpt><trkpt lat="44.852495" lon="9.35016"><ele>675.0</ele><time>2026-04-18T09:27:13.982Z</time></trkpt><trkpt lat="44.85255" lon="9.350115"><ele>675.2</ele><time>2026-04-18T09:27:14.984Z</time></trkpt><trkpt lat="44.8526417" lon="9.35006"><ele>675.4</ele><time>2026-04-18T09:27:16.983Z</time></trkpt><trkpt lat="44.8527367" lon="9.3500417"><ele>675.5999999999999</ele><time>2026-04-18T09:27:18.982Z</time></trkpt><trkpt lat="44.852835" lon="9.3500983"><ele>675.8</ele><time>2026-04-18T09:27:20.983Z</time></trkpt><trkpt lat="44.8529183" lon="9.35016"><ele>676.0</ele><time>2026-04-18T09:27:22.983Z</time></trkpt><trkpt lat="44.8529817" lon="9.35025"><ele>676.0</ele><time>2026-04-18T09:27:24.983Z</time></trkpt><trkpt lat="44.85305" lon="9.35036"><ele>676.0</ele><time>2026-04-18T09:27:26.984Z</time></trkpt><trkpt lat="44.8531483" lon="9.3504383"><ele>676.0</ele><time>2026-04-18T09:27:28.984Z</time></trkpt><trkpt lat="44.8532133" lon="9.35046"><ele>676.0</ele><time>2026-04-18T09:27:29.984Z</time></trkpt><trkpt lat="44.8532833" lon="9.3504817"><ele>676.0</ele><time>2026-04-18T09:27:30.982Z</time></trkpt><trkpt lat="44.8533467" lon="9.3505033"><ele>676.0</ele><time>2026-04-18T09:27:31.983Z</time></trkpt><trkpt lat="44.85346" lon="9.35052"><ele>676.1999999999999</ele><time>2026-04-18T09:27:33.983Z</time></trkpt><trkpt lat="44.8535683" lon="9.3505267"><ele>676.4</ele><time>2026-04-18T09:27:35.982Z</time></trkpt><trkpt lat="44.8536733" lon="9.3505433"><ele>676.6</ele><time>2026-04-18T09:27:37.983Z</time></trkpt><trkpt lat="44.853765" lon="9.3505833"><ele>676.8</ele><time>2026-04-18T09:27:39.984Z</time></trkpt><trkpt lat="44.8538483" lon="9.350665"><ele>677.0</ele><time>2026-04-18T09:27:41.982Z</time></trkpt><trkpt lat="44.85391" lon="9.3507717"><ele>675.0</ele><time>2026-04-18T09:27:43.984Z</time></trkpt><trkpt lat="44.8539867" lon="9.350875"><ele>673.0</ele><time>2026-04-18T09:27:45.982Z</time></trkpt><trkpt lat="44.8540767" lon="9.3509383"><ele>671.0</ele><time>2026-04-18T09:27:47.984Z</time></trkpt><trkpt lat="44.8541867" lon="9.3510017"><ele>669.0</ele><time>2026-04-18T09:27:49.983Z</time></trkpt><trkpt lat="44.8542483" lon="9.35104"><ele>667.0</ele><time>2026-04-18T09:27:50.984Z</time></trkpt><trkpt lat="44.8543067" lon="9.35108"><ele>667.0</ele><time>2026-04-18T09:27:51.985Z</time></trkpt><trkpt lat="44.8544117" lon="9.3511533"><ele>667.0</ele><time>2026-04-18T09:27:53.984Z</time></trkpt><trkpt lat="44.85449" lon="9.3512083"><ele>667.0</ele><time>2026-04-18T09:27:55.985Z</time></trkpt><trkpt lat="44.8545683" lon="9.35126"><ele>667.0</ele><time>2026-04-18T09:27:57.986Z</time></trkpt><trkpt lat="44.8546317" lon="9.3512967"><ele>667.0</ele><time>2026-04-18T09:27:59.986Z</time></trkpt><trkpt lat="44.8546633" lon="9.351415"><ele>667.0</ele><time>2026-04-18T09:28:03.983Z</time></trkpt><trkpt lat="44.85467" lon="9.3515117"><ele>664.6666666666667</ele><time>2026-04-18T09:28:05.982Z</time></trkpt><trkpt lat="44.8546733" lon="9.3516083"><ele>662.3333333333334</ele><time>2026-04-18T09:28:07.982Z</time></trkpt><trkpt lat="44.8546767" lon="9.3517117"><ele>660.0</ele><time>2026-04-18T09:28:09.983Z</time></trkpt><trkpt lat="44.8546817" lon="9.35182"><ele>657.6666666666666</ele><time>2026-04-18T09:28:11.984Z</time></trkpt><trkpt lat="44.854745" lon="9.3519483"><ele>655.3333333333333</ele><time>2026-04-18T09:28:13.984Z</time></trkpt><trkpt lat="44.85483" lon="9.352025"><ele>653.0</ele><time>2026-04-18T09:28:15.983Z</time></trkpt><trkpt lat="44.8549117" lon="9.3520933"><ele>653.0</ele><time>2026-04-18T09:28:17.984Z</time></trkpt><trkpt lat="44.8549833" lon="9.3521317"><ele>653.0</ele><time>2026-04-18T09:28:19.985Z</time></trkpt><trkpt lat="44.8550567" lon="9.3521517"><ele>653.0</ele><time>2026-04-18T09:28:21.985Z</time></trkpt><trkpt lat="44.8551533" lon="9.3521733"><ele>653.0</ele><time>2026-04-18T09:28:23.984Z</time></trkpt><trkpt lat="44.8552183" lon="9.352185"><ele>653.0</ele><time>2026-04-18T09:28:24.985Z</time></trkpt><trkpt lat="44.8552883" lon="9.3522133"><ele>653.0</ele><time>2026-04-18T09:28:25.984Z</time></trkpt><trkpt lat="44.8553533" lon="9.3522367"><ele>651.5</ele><time>2026-04-18T09:28:26.984Z</time></trkpt><trkpt lat="44.8554683" lon="9.3522217"><ele>650.0</ele><time>2026-04-18T09:28:28.984Z</time></trkpt><trkpt lat="44.8555333" lon="9.3522067"><ele>648.5</ele><time>2026-04-18T09:28:29.985Z</time></trkpt><trkpt lat="44.8556033" lon="9.3522183"><ele>647.0</ele><time>2026-04-18T09:28:30.983Z</time></trkpt><trkpt lat="44.8556667" lon="9.3522517"><ele>645.5</ele><time>2026-04-18T09:28:31.987Z</time></trkpt><trkpt lat="44.8557233" lon="9.3522967"><ele>644.0</ele><time>2026-04-18T09:28:32.983Z</time></trkpt><trkpt lat="44.855825" lon="9.3524"><ele>644.0</ele><time>2026-04-18T09:28:34.982Z</time></trkpt><trkpt lat="44.8558883" lon="9.3524533"><ele>644.0</ele><time>2026-04-18T09:28:35.984Z</time></trkpt><trkpt lat="44.8559667" lon="9.352495"><ele>644.0</ele><time>2026-04-18T09:28:36.983Z</time></trkpt><trkpt lat="44.8560483" lon="9.3525233"><ele>644.0</ele><time>2026-04-18T09:28:37.984Z</time></trkpt><trkpt lat="44.85615" lon="9.3525383"><ele>644.0</ele><time>2026-04-18T09:28:38.982Z</time></trkpt><trkpt lat="44.8562717" lon="9.3525317"><ele>646.6</ele><time>2026-04-18T09:28:39.983Z</time></trkpt><trkpt lat="44.8563783" lon="9.3525333"><ele>649.2</ele><time>2026-04-18T09:28:40.984Z</time></trkpt><trkpt lat="44.8564533" lon="9.35254"><ele>651.8000000000001</ele><time>2026-04-18T09:28:41.983Z</time></trkpt><trkpt lat="44.85655" lon="9.3525533"><ele>654.4000000000001</ele><time>2026-04-18T09:28:43.983Z</time></trkpt><trkpt lat="44.856645" lon="9.35255"><ele>657.0</ele><time>2026-04-18T09:28:45.983Z</time></trkpt><trkpt lat="44.8567367" lon="9.3525317"><ele>658.6</ele><time>2026-04-18T09:28:47.983Z</time></trkpt><trkpt lat="44.85683" lon="9.3525517"><ele>660.2</ele><time>2026-04-18T09:28:49.985Z</time></trkpt><trkpt lat="44.856915" lon="9.3525883"><ele>661.8</ele><time>2026-04-18T09:28:51.985Z</time></trkpt><trkpt lat="44.8570283" lon="9.352585"><ele>663.4</ele><time>2026-04-18T09:29:09.983Z</time></trkpt><trkpt lat="44.8571017" lon="9.3526167"><ele>665.0</ele><time>2026-04-18T09:29:11.983Z</time></trkpt><trkpt lat="44.8571933" lon="9.3526333"><ele>665.0</ele><time>2026-04-18T09:29:13.982Z</time></trkpt><trkpt lat="44.85727" lon="9.3526583"><ele>665.0</ele><time>2026-04-18T09:29:15.983Z</time></trkpt><trkpt lat="44.8573517" lon="9.352675"><ele>665.0</ele><time>2026-04-18T09:29:17.984Z</time></trkpt><trkpt lat="44.8574267" lon="9.3526867"><ele>665.0</ele><time>2026-04-18T09:29:19.982Z</time></trkpt><trkpt lat="44.8575033" lon="9.35267"><ele>665.0</ele><time>2026-04-18T09:29:21.983Z</time></trkpt><trkpt lat="44.8575683" lon="9.3526717"><ele>665.0</ele><time>2026-04-18T09:29:23.984Z</time></trkpt><trkpt lat="44.8576133" lon="9.3527383"><ele>665.0</ele><time>2026-04-18T09:29:26.983Z</time></trkpt><trkpt lat="44.8576317" lon="9.3528317"><ele>665.0</ele><time>2026-04-18T09:29:30.982Z</time></trkpt><trkpt lat="44.8576" lon="9.352735"><ele>665.0</ele><time>2026-04-18T09:29:48.984Z</time></trkpt><trkpt lat="44.8575667" lon="9.3526033"><ele>665.0</ele><time>2026-04-18T09:29:59.982Z</time></trkpt><trkpt lat="44.857565" lon="9.3524917"><ele>665.0</ele><time>2026-04-18T09:30:01.983Z</time></trkpt><trkpt lat="44.8575783" lon="9.3523433"><ele>665.0</ele><time>2026-04-18T09:30:03.984Z</time></trkpt><trkpt lat="44.8575883" lon="9.3521983"><ele>664.8571428571429</ele><time>2026-04-18T09:30:05.984Z</time></trkpt><trkpt lat="44.857625" lon="9.3521167"><ele>664.7142857142858</ele><time>2026-04-18T09:30:07.984Z</time></trkpt><trkpt lat="44.8577283" lon="9.3520667"><ele>664.5714285714286</ele><time>2026-04-18T09:30:09.983Z</time></trkpt><trkpt lat="44.8577917" lon="9.352035"><ele>664.4285714285714</ele><time>2026-04-18T09:30:10.984Z</time></trkpt><trkpt lat="44.85785" lon="9.3519983"><ele>664.2857142857143</ele><time>2026-04-18T09:30:11.984Z</time></trkpt><trkpt lat="44.85791" lon="9.35196"><ele>664.1428571428571</ele><time>2026-04-18T09:30:12.984Z</time></trkpt><trkpt lat="44.85797" lon="9.3519217"><ele>664.0</ele><time>2026-04-18T09:30:13.982Z</time></trkpt><trkpt lat="44.8580267" lon="9.3518783"><ele>664.0</ele><time>2026-04-18T09:30:14.984Z</time></trkpt><trkpt lat="44.8581317" lon="9.3517917"><ele>664.0</ele><time>2026-04-18T09:30:16.983Z</time></trkpt><trkpt lat="44.8581867" lon="9.3517467"><ele>664.0</ele><time>2026-04-18T09:30:17.982Z</time></trkpt><trkpt lat="44.8582433" lon="9.3517067"><ele>664.0</ele><time>2026-04-18T09:30:18.984Z</time></trkpt><trkpt lat="44.8583633" lon="9.3516483"><ele>664.0</ele><time>2026-04-18T09:30:20.984Z</time></trkpt><trkpt lat="44.85843" lon="9.35162"><ele>664.0</ele><time>2026-04-18T09:30:21.983Z</time></trkpt><trkpt lat="44.85851" lon="9.3515983"><ele>661.8333333333334</ele><time>2026-04-18T09:30:22.983Z</time></trkpt><trkpt lat="44.8585967" lon="9.3515833"><ele>659.6666666666667</ele><time>2026-04-18T09:30:23.984Z</time></trkpt><trkpt lat="44.8586867" lon="9.3515683"><ele>657.5</ele><time>2026-04-18T09:30:24.984Z</time></trkpt><trkpt lat="44.8587767" lon="9.351555"><ele>655.3333333333334</ele><time>2026-04-18T09:30:25.983Z</time></trkpt><trkpt lat="44.8588633" lon="9.3515383"><ele>653.1666666666666</ele><time>2026-04-18T09:30:26.984Z</time></trkpt><trkpt lat="44.85895" lon="9.3515167"><ele>651.0</ele><time>2026-04-18T09:30:27.984Z</time></trkpt><trkpt lat="44.8590417" lon="9.3514817"><ele>651.0</ele><time>2026-04-18T09:30:28.984Z</time></trkpt><trkpt lat="44.859135" lon="9.3514317"><ele>651.0</ele><time>2026-04-18T09:30:29.983Z</time></trkpt><trkpt lat="44.859225" lon="9.3513733"><ele>651.0</ele><time>2026-04-18T09:30:30.984Z</time></trkpt><trkpt lat="44.859305" lon="9.3513083"><ele>651.0</ele><time>2026-04-18T09:30:31.984Z</time></trkpt><trkpt lat="44.85937" lon="9.3512383"><ele>651.0</ele><time>2026-04-18T09:30:32.983Z</time></trkpt><trkpt lat="44.8594317" lon="9.3511783"><ele>651.0</ele><time>2026-04-18T09:30:33.985Z</time></trkpt><trkpt lat="44.859495" lon="9.3511267"><ele>653.5</ele><time>2026-04-18T09:30:34.985Z</time></trkpt><trkpt lat="44.8595617" lon="9.35108"><ele>656.0</ele><time>2026-04-18T09:30:35.984Z</time></trkpt><trkpt lat="44.8596367" lon="9.3510367"><ele>658.5</ele><time>2026-04-18T09:30:36.983Z</time></trkpt><trkpt lat="44.859715" lon="9.3510117"><ele>661.0</ele><time>2026-04-18T09:30:37.984Z</time></trkpt><trkpt lat="44.8597983" lon="9.3510117"><ele>663.5</ele><time>2026-04-18T09:30:38.984Z</time></trkpt><trkpt lat="44.859885" lon="9.3510233"><ele>666.0</ele><time>2026-04-18T09:30:39.983Z</time></trkpt><trkpt lat="44.8599717" lon="9.3510233"><ele>666.0</ele><time>2026-04-18T09:30:40.983Z</time></trkpt><trkpt lat="44.860055" lon="9.3510017"><ele>666.0</ele><time>2026-04-18T09:30:41.984Z</time></trkpt><trkpt lat="44.86014" lon="9.3509567"><ele>666.0</ele><time>2026-04-18T09:30:42.985Z</time></trkpt><trkpt lat="44.8602283" lon="9.3509033"><ele>666.0</ele><time>2026-04-18T09:30:43.985Z</time></trkpt><trkpt lat="44.860315" lon="9.35086"><ele>666.0</ele><time>2026-04-18T09:30:44.986Z</time></trkpt><trkpt lat="44.860405" lon="9.35082"><ele>664.4</ele><time>2026-04-18T09:30:45.986Z</time></trkpt><trkpt lat="44.8605" lon="9.3507933"><ele>662.8</ele><time>2026-04-18T09:30:46.986Z</time></trkpt><trkpt lat="44.8605983" lon="9.3507617"><ele>661.1999999999999</ele><time>2026-04-18T09:30:47.986Z</time></trkpt><trkpt lat="44.8607017" lon="9.3507233"><ele>659.5999999999999</ele><time>2026-04-18T09:30:48.986Z</time></trkpt><trkpt lat="44.8607967" lon="9.3506817"><ele>658.0</ele><time>2026-04-18T09:30:49.987Z</time></trkpt><trkpt lat="44.8608867" lon="9.350635"><ele>657.0</ele><time>2026-04-18T09:30:50.986Z</time></trkpt><trkpt lat="44.8609683" lon="9.3505883"><ele>656.0</ele><time>2026-04-18T09:30:51.986Z</time></trkpt><trkpt lat="44.86105" lon="9.35053"><ele>655.0</ele><time>2026-04-18T09:30:52.984Z</time></trkpt><trkpt lat="44.8611233" lon="9.350465"><ele>654.0</ele><time>2026-04-18T09:30:53.983Z</time></trkpt><trkpt lat="44.861185" lon="9.350415"><ele>653.0</ele><time>2026-04-18T09:30:54.984Z</time></trkpt><trkpt lat="44.86125" lon="9.350385"><ele>652.0</ele><time>2026-04-18T09:30:55.984Z</time></trkpt><trkpt lat="44.8613817" lon="9.3504383"><ele>652.0</ele><time>2026-04-18T09:30:57.982Z</time></trkpt><trkpt lat="44.8614517" lon="9.3505017"><ele>652.0</ele><time>2026-04-18T09:30:58.984Z</time></trkpt><trkpt lat="44.8615283" lon="9.3505633"><ele>652.0</ele><time>2026-04-18T09:30:59.983Z</time></trkpt><trkpt lat="44.8616033" lon="9.3505983"><ele>652.0</ele><time>2026-04-18T09:31:00.984Z</time></trkpt><trkpt lat="44.8616933" lon="9.3505883"><ele>652.0</ele><time>2026-04-18T09:31:01.985Z</time></trkpt><trkpt lat="44.8617783" lon="9.35055"><ele>652.0</ele><time>2026-04-18T09:31:02.985Z</time></trkpt><trkpt lat="44.8618633" lon="9.35048"><ele>653.6</ele><time>2026-04-18T09:31:03.984Z</time></trkpt><trkpt lat="44.8619467" lon="9.35039"><ele>655.2</ele><time>2026-04-18T09:31:04.983Z</time></trkpt><trkpt lat="44.8620367" lon="9.3503033"><ele>656.8</ele><time>2026-04-18T09:31:05.983Z</time></trkpt><trkpt lat="44.8621317" lon="9.3502333"><ele>658.4</ele><time>2026-04-18T09:31:06.983Z</time></trkpt><trkpt lat="44.862235" lon="9.3501867"><ele>660.0</ele><time>2026-04-18T09:31:07.983Z</time></trkpt><trkpt lat="44.8623417" lon="9.3501583"><ele>660.0</ele><time>2026-04-18T09:31:08.984Z</time></trkpt><trkpt lat="44.86245" lon="9.35014"><ele>660.0</ele><time>2026-04-18T09:31:09.984Z</time></trkpt><trkpt lat="44.8625517" lon="9.3501233"><ele>660.0</ele><time>2026-04-18T09:31:10.983Z</time></trkpt><trkpt lat="44.8626483" lon="9.3501"><ele>660.0</ele><time>2026-04-18T09:31:11.983Z</time></trkpt><trkpt lat="44.8627367" lon="9.35006"><ele>660.0</ele><time>2026-04-18T09:31:12.983Z</time></trkpt><trkpt lat="44.8628233" lon="9.3499917"><ele>660.0</ele><time>2026-04-18T09:31:13.983Z</time></trkpt><trkpt lat="44.8629217" lon="9.34991"><ele>660.0</ele><time>2026-04-18T09:31:14.984Z</time></trkpt><trkpt lat="44.86302" lon="9.3498367"><ele>660.0</ele><time>2026-04-18T09:31:15.984Z</time></trkpt><trkpt lat="44.8631133" lon="9.3497767"><ele>660.0</ele><time>2026-04-18T09:31:16.984Z</time></trkpt><trkpt lat="44.8632033" lon="9.3497217"><ele>660.0</ele><time>2026-04-18T09:31:17.983Z</time></trkpt><trkpt lat="44.863285" lon="9.3496633"><ele>660.0</ele><time>2026-04-18T09:31:18.982Z</time></trkpt><trkpt lat="44.863365" lon="9.349615"><ele>660.0</ele><time>2026-04-18T09:31:19.982Z</time></trkpt><trkpt lat="44.8634417" lon="9.3495917"><ele>660.0</ele><time>2026-04-18T09:31:20.983Z</time></trkpt><trkpt lat="44.8635217" lon="9.34958"><ele>660.0</ele><time>2026-04-18T09:31:21.982Z</time></trkpt><trkpt lat="44.8636033" lon="9.3495533"><ele>660.0</ele><time>2026-04-18T09:31:22.983Z</time></trkpt><trkpt lat="44.86368" lon="9.3495167"><ele>660.0</ele><time>2026-04-18T09:31:23.984Z</time></trkpt><trkpt lat="44.8637467" lon="9.3494683"><ele>659.5</ele><time>2026-04-18T09:31:24.984Z</time></trkpt><trkpt lat="44.86381" lon="9.3494233"><ele>659.0</ele><time>2026-04-18T09:31:25.982Z</time></trkpt><trkpt lat="44.8638767" lon="9.3494183"><ele>658.5</ele><time>2026-04-18T09:31:26.984Z</time></trkpt><trkpt lat="44.8639783" lon="9.3495133"><ele>658.0</ele><time>2026-04-18T09:31:28.983Z</time></trkpt><trkpt lat="44.8640183" lon="9.3496033"><ele>657.5</ele><time>2026-04-18T09:31:29.984Z</time></trkpt><trkpt lat="44.86405" lon="9.349705"><ele>657.0</ele><time>2026-04-18T09:31:30.983Z</time></trkpt><trkpt lat="44.8640917" lon="9.3498283"><ele>659.25</ele><time>2026-04-18T09:31:31.983Z</time></trkpt><trkpt lat="44.8641517" lon="9.3499583"><ele>661.5</ele><time>2026-04-18T09:31:32.984Z</time></trkpt><trkpt lat="44.864235" lon="9.35009"><ele>663.75</ele><time>2026-04-18T09:31:33.984Z</time></trkpt><trkpt lat="44.864325" lon="9.35021"><ele>666.0</ele><time>2026-04-18T09:31:34.983Z</time></trkpt><trkpt lat="44.8644167" lon="9.3503033"><ele>666.0</ele><time>2026-04-18T09:31:35.984Z</time></trkpt><trkpt lat="44.8645067" lon="9.3503733"><ele>666.0</ele><time>2026-04-18T09:31:36.983Z</time></trkpt><trkpt lat="44.8646" lon="9.3504433"><ele>666.0</ele><time>2026-04-18T09:31:37.985Z</time></trkpt><trkpt lat="44.8646767" lon="9.350535"><ele>666.0</ele><time>2026-04-18T09:31:38.984Z</time></trkpt><trkpt lat="44.864725" lon="9.3506517"><ele>666.0</ele><time>2026-04-18T09:31:39.983Z</time></trkpt><trkpt lat="44.864755" lon="9.3507867"><ele>665.8</ele><time>2026-04-18T09:31:40.984Z</time></trkpt><trkpt lat="44.864785" lon="9.3509267"><ele>665.5999999999999</ele><time>2026-04-18T09:31:41.984Z</time></trkpt><trkpt lat="44.8648117" lon="9.351075"><ele>665.4</ele><time>2026-04-18T09:31:42.984Z</time></trkpt><trkpt lat="44.864815" lon="9.3512333"><ele>665.2</ele><time>2026-04-18T09:31:43.985Z</time></trkpt><trkpt lat="44.8647917" lon="9.3514033"><ele>665.0</ele><time>2026-04-18T09:31:44.984Z</time></trkpt><trkpt lat="44.8647517" lon="9.35159"><ele>665.0</ele><time>2026-04-18T09:31:45.984Z</time></trkpt><trkpt lat="44.864715" lon="9.3517717"><ele>665.0</ele><time>2026-04-18T09:31:46.983Z</time></trkpt><trkpt lat="44.8646883" lon="9.3519267"><ele>665.0</ele><time>2026-04-18T09:31:47.984Z</time></trkpt><trkpt lat="44.8646783" lon="9.3520617"><ele>665.0</ele><time>2026-04-18T09:31:48.983Z</time></trkpt><trkpt lat="44.8646817" lon="9.3521733"><ele>665.0</ele><time>2026-04-18T09:31:49.983Z</time></trkpt><trkpt lat="44.8647117" lon="9.3522633"><ele>663.8</ele><time>2026-04-18T09:31:50.983Z</time></trkpt><trkpt lat="44.8647517" lon="9.3523533"><ele>662.6</ele><time>2026-04-18T09:31:51.984Z</time></trkpt><trkpt lat="44.8648217" lon="9.3524033"><ele>661.4000000000001</ele><time>2026-04-18T09:31:52.983Z</time></trkpt><trkpt lat="44.8649017" lon="9.35244"><ele>660.2</ele><time>2026-04-18T09:31:53.984Z</time></trkpt><trkpt lat="44.8650133" lon="9.3524817"><ele>659.0</ele><time>2026-04-18T09:31:54.984Z</time></trkpt><trkpt lat="44.8651367" lon="9.3525333"><ele>662.25</ele><time>2026-04-18T09:31:55.983Z</time></trkpt><trkpt lat="44.8652617" lon="9.3525833"><ele>665.5</ele><time>2026-04-18T09:31:56.984Z</time></trkpt><trkpt lat="44.8653867" lon="9.352635"><ele>668.75</ele><time>2026-04-18T09:31:57.983Z</time></trkpt><trkpt lat="44.865495" lon="9.3526817"><ele>672.0</ele><time>2026-04-18T09:31:58.984Z</time></trkpt><trkpt lat="44.865585" lon="9.3527233"><ele>672.0</ele><time>2026-04-18T09:31:59.985Z</time></trkpt><trkpt lat="44.86566" lon="9.3527583"><ele>672.0</ele><time>2026-04-18T09:32:00.984Z</time></trkpt><trkpt lat="44.8657267" lon="9.3527917"><ele>672.0</ele><time>2026-04-18T09:32:01.983Z</time></trkpt><trkpt lat="44.8658367" lon="9.3528517"><ele>672.0</ele><time>2026-04-18T09:32:03.983Z</time></trkpt><trkpt lat="44.8658967" lon="9.352885"><ele>672.0</ele><time>2026-04-18T09:32:04.984Z</time></trkpt><trkpt lat="44.8659567" lon="9.3529233"><ele>672.0</ele><time>2026-04-18T09:32:05.984Z</time></trkpt><trkpt lat="44.86602" lon="9.352965"><ele>671.2857142857143</ele><time>2026-04-18T09:32:06.983Z</time></trkpt><trkpt lat="44.8660783" lon="9.353"><ele>670.5714285714286</ele><time>2026-04-18T09:32:07.985Z</time></trkpt><trkpt lat="44.8661367" lon="9.3530417"><ele>669.8571428571429</ele><time>2026-04-18T09:32:08.984Z</time></trkpt><trkpt lat="44.8662" lon="9.3530883"><ele>669.1428571428571</ele><time>2026-04-18T09:32:09.983Z</time></trkpt><trkpt lat="44.8662633" lon="9.3531317"><ele>668.4285714285714</ele><time>2026-04-18T09:32:10.983Z</time></trkpt><trkpt lat="44.86632" lon="9.353185"><ele>667.7142857142858</ele><time>2026-04-18T09:32:11.983Z</time></trkpt><trkpt lat="44.866375" lon="9.3532483"><ele>667.0</ele><time>2026-04-18T09:32:12.985Z</time></trkpt><trkpt lat="44.8664317" lon="9.3533217"><ele>667.0</ele><time>2026-04-18T09:32:13.983Z</time></trkpt><trkpt lat="44.866485" lon="9.3534033"><ele>667.0</ele><time>2026-04-18T09:32:14.984Z</time></trkpt><trkpt lat="44.86653" lon="9.35349"><ele>667.0</ele><time>2026-04-18T09:32:15.984Z</time></trkpt><trkpt lat="44.8665617" lon="9.3535817"><ele>667.0</ele><time>2026-04-18T09:32:16.984Z</time></trkpt><trkpt lat="44.8665817" lon="9.353675"><ele>667.0</ele><time>2026-04-18T09:32:17.984Z</time></trkpt><trkpt lat="44.8665933" lon="9.3537633"><ele>667.0</ele><time>2026-04-18T09:32:18.985Z</time></trkpt><trkpt lat="44.86662" lon="9.3539033"><ele>666.5</ele><time>2026-04-18T09:32:20.985Z</time></trkpt><trkpt lat="44.86667" lon="9.354"><ele>666.0</ele><time>2026-04-18T09:32:22.984Z</time></trkpt><trkpt lat="44.86673" lon="9.3540683"><ele>665.5</ele><time>2026-04-18T09:32:24.982Z</time></trkpt><trkpt lat="44.8668017" lon="9.354105"><ele>665.0</ele><time>2026-04-18T09:32:26.985Z</time></trkpt><trkpt lat="44.8668883" lon="9.3541283"><ele>664.5</ele><time>2026-04-18T09:32:28.983Z</time></trkpt><trkpt lat="44.8669517" lon="9.3541333"><ele>664.0</ele><time>2026-04-18T09:32:29.984Z</time></trkpt><trkpt lat="44.8670183" lon="9.3541383"><ele>664.0</ele><time>2026-04-18T09:32:30.985Z</time></trkpt><trkpt lat="44.867085" lon="9.35416"><ele>664.0</ele><time>2026-04-18T09:32:31.984Z</time></trkpt><trkpt lat="44.8671433" lon="9.3541983"><ele>664.0</ele><time>2026-04-18T09:32:32.983Z</time></trkpt><trkpt lat="44.86721" lon="9.3542917"><ele>664.0</ele><time>2026-04-18T09:32:34.983Z</time></trkpt><trkpt lat="44.8672317" lon="9.354405"><ele>664.0</ele><time>2026-04-18T09:32:36.984Z</time></trkpt><trkpt lat="44.86723" lon="9.3545783"><ele>664.0</ele><time>2026-04-18T09:32:38.984Z</time></trkpt><trkpt lat="44.86722" lon="9.3546767"><ele>663.3333333333334</ele><time>2026-04-18T09:32:39.984Z</time></trkpt><trkpt lat="44.8672083" lon="9.354775"><ele>662.6666666666667</ele><time>2026-04-18T09:32:40.985Z</time></trkpt><trkpt lat="44.8672" lon="9.354865"><ele>662.0</ele><time>2026-04-18T09:32:41.984Z</time></trkpt><trkpt lat="44.8671833" lon="9.3550217"><ele>661.3333333333334</ele><time>2026-04-18T09:32:43.984Z</time></trkpt><trkpt lat="44.8671733" lon="9.35519"><ele>660.6666666666666</ele><time>2026-04-18T09:32:45.984Z</time></trkpt><trkpt lat="44.8671733" lon="9.355285"><ele>660.0</ele><time>2026-04-18T09:32:46.983Z</time></trkpt><trkpt lat="44.8671767" lon="9.3553883"><ele>660.0000000000001</ele><time>2026-04-18T09:32:47.983Z</time></trkpt><trkpt lat="44.86718" lon="9.3554883"><ele>660.0</ele><time>2026-04-18T09:32:48.984Z</time></trkpt><trkpt lat="44.8671833" lon="9.3555817"><ele>660.0</ele><time>2026-04-18T09:32:49.984Z</time></trkpt><trkpt lat="44.86719" lon="9.3556767"><ele>660.0</ele><time>2026-04-18T09:32:50.983Z</time></trkpt><trkpt lat="44.8671933" lon="9.355775"><ele>660.0</ele><time>2026-04-18T09:32:51.984Z</time></trkpt><trkpt lat="44.867195" lon="9.3558733"><ele>660.0000000000001</ele><time>2026-04-18T09:32:52.983Z</time></trkpt><trkpt lat="44.8671933" lon="9.3559733"><ele>660.0</ele><time>2026-04-18T09:32:53.984Z</time></trkpt><trkpt lat="44.8671867" lon="9.3560683"><ele>659.6</ele><time>2026-04-18T09:32:54.985Z</time></trkpt><trkpt lat="44.8671783" lon="9.35616"><ele>659.2</ele><time>2026-04-18T09:32:55.984Z</time></trkpt><trkpt lat="44.86716" lon="9.3563217"><ele>658.8</ele><time>2026-04-18T09:32:57.983Z</time></trkpt><trkpt lat="44.86714" lon="9.356435"><ele>658.4</ele><time>2026-04-18T09:32:59.984Z</time></trkpt><trkpt lat="44.8671267" lon="9.3565617"><ele>658.0</ele><time>2026-04-18T09:33:01.983Z</time></trkpt><trkpt lat="44.8671" lon="9.3567317"><ele>657.6666666666667</ele><time>2026-04-18T09:33:03.983Z</time></trkpt><trkpt lat="44.8670767" lon="9.3568233"><ele>657.3333333333334</ele><time>2026-04-18T09:33:04.984Z</time></trkpt><trkpt lat="44.8670533" lon="9.3569133"><ele>657.0</ele><time>2026-04-18T09:33:05.984Z</time></trkpt><trkpt lat="44.8670117" lon="9.357065"><ele>656.6666666666666</ele><time>2026-04-18T09:33:07.983Z</time></trkpt><trkpt lat="44.866985" lon="9.3571833"><ele>656.3333333333333</ele><time>2026-04-18T09:33:09.984Z</time></trkpt><trkpt lat="44.8669717" lon="9.3572717"><ele>656.0</ele><time>2026-04-18T09:33:11.984Z</time></trkpt><trkpt lat="44.8669267" lon="9.3573483"><ele>654.1999999999999</ele><time>2026-04-18T09:33:13.984Z</time></trkpt><trkpt lat="44.8668833" lon="9.3574483"><ele>652.4</ele><time>2026-04-18T09:33:15.984Z</time></trkpt><trkpt lat="44.8668867" lon="9.3575783"><ele>650.6</ele><time>2026-04-18T09:33:17.984Z</time></trkpt><trkpt lat="44.8669017" lon="9.3577117"><ele>648.8</ele><time>2026-04-18T09:33:19.983Z</time></trkpt><trkpt lat="44.8668917" lon="9.3578467"><ele>647.0</ele><time>2026-04-18T09:33:21.983Z</time></trkpt><trkpt lat="44.8668617" lon="9.3579567"><ele>644.4</ele><time>2026-04-18T09:33:23.985Z</time></trkpt><trkpt lat="44.86682" lon="9.3580533"><ele>641.8000000000001</ele><time>2026-04-18T09:33:25.983Z</time></trkpt><trkpt lat="44.8667617" lon="9.3581467"><ele>639.2</ele><time>2026-04-18T09:33:27.984Z</time></trkpt><trkpt lat="44.8666817" lon="9.35826"><ele>636.6</ele><time>2026-04-18T09:33:29.983Z</time></trkpt><trkpt lat="44.8665933" lon="9.35837"><ele>634.0</ele><time>2026-04-18T09:33:31.985Z</time></trkpt><trkpt lat="44.86652" lon="9.3584883"><ele>634.0</ele><time>2026-04-18T09:33:33.983Z</time></trkpt><trkpt lat="44.8664483" lon="9.3585867"><ele>634.0</ele><time>2026-04-18T09:33:35.985Z</time></trkpt><trkpt lat="44.86639" lon="9.35867"><ele>634.0</ele><time>2026-04-18T09:33:37.983Z</time></trkpt><trkpt lat="44.8663267" lon="9.3587183"><ele>634.0</ele><time>2026-04-18T09:33:39.984Z</time></trkpt><trkpt lat="44.8662467" lon="9.3586817"><ele>634.0</ele><time>2026-04-18T09:33:42.985Z</time></trkpt><trkpt lat="44.8662367" lon="9.3585633"><ele>634.0</ele><time>2026-04-18T09:33:45.984Z</time></trkpt><trkpt lat="44.866225" lon="9.3584317"><ele>634.0</ele><time>2026-04-18T09:33:47.984Z</time></trkpt><trkpt lat="44.866225" lon="9.358305"><ele>634.0</ele><time>2026-04-18T09:33:49.985Z</time></trkpt><trkpt lat="44.8662383" lon="9.3582167"><ele>634.0</ele><time>2026-04-18T09:33:52.984Z</time></trkpt><trkpt lat="44.8662167" lon="9.3581133"><ele>634.0</ele><time>2026-04-18T09:33:56.984Z</time></trkpt><trkpt lat="44.8661667" lon="9.35805"><ele>634.0</ele><time>2026-04-18T09:33:59.984Z</time></trkpt><trkpt lat="44.8660983" lon="9.357995"><ele>634.0</ele><time>2026-04-18T09:34:01.984Z</time></trkpt><trkpt lat="44.8660333" lon="9.3579217"><ele>635.0</ele><time>2026-04-18T09:34:03.984Z</time></trkpt><trkpt lat="44.8659783" lon="9.3578517"><ele>636.0</ele><time>2026-04-18T09:34:05.983Z</time></trkpt><trkpt lat="44.8659267" lon="9.35778"><ele>637.0</ele><time>2026-04-18T09:34:07.984Z</time></trkpt><trkpt lat="44.8658417" lon="9.3577017"><ele>638.0</ele><time>2026-04-18T09:34:09.983Z</time></trkpt><trkpt lat="44.8657833" lon="9.357645"><ele>639.0</ele><time>2026-04-18T09:34:10.985Z</time></trkpt><trkpt lat="44.8657167" lon="9.357565"><ele>640.0</ele><time>2026-04-18T09:34:11.984Z</time></trkpt><trkpt lat="44.8656583" lon="9.3574683"><ele>638.0</ele><time>2026-04-18T09:34:12.984Z</time></trkpt><trkpt lat="44.8656117" lon="9.3573633"><ele>636.0</ele><time>2026-04-18T09:34:13.985Z</time></trkpt><trkpt lat="44.86558" lon="9.35726"><ele>634.0</ele><time>2026-04-18T09:34:14.984Z</time></trkpt><trkpt lat="44.8655633" lon="9.3571633"><ele>632.0</ele><time>2026-04-18T09:34:15.984Z</time></trkpt><trkpt lat="44.86556" lon="9.3570667"><ele>630.0</ele><time>2026-04-18T09:34:16.983Z</time></trkpt><trkpt lat="44.8655583" lon="9.3569717"><ele>628.0</ele><time>2026-04-18T09:34:17.983Z</time></trkpt><trkpt lat="44.8655583" lon="9.3568733"><ele>626.0</ele><time>2026-04-18T09:34:18.984Z</time></trkpt><trkpt lat="44.8655583" lon="9.3567717"><ele>626.0</ele><time>2026-04-18T09:34:19.984Z</time></trkpt><trkpt lat="44.86556" lon="9.356665"><ele>626.0</ele><time>2026-04-18T09:34:20.984Z</time></trkpt><trkpt lat="44.8655667" lon="9.3565583"><ele>626.0</ele><time>2026-04-18T09:34:21.983Z</time></trkpt><trkpt lat="44.8655767" lon="9.3564617"><ele>626.0</ele><time>2026-04-18T09:34:22.989Z</time></trkpt><trkpt lat="44.8655833" lon="9.356365"><ele>626.0</ele><time>2026-04-18T09:34:23.984Z</time></trkpt><trkpt lat="44.8655733" lon="9.356275"><ele>626.0</ele><time>2026-04-18T09:34:24.984Z</time></trkpt><trkpt lat="44.8654867" lon="9.35618"><ele>626.0</ele><time>2026-04-18T09:34:26.983Z</time></trkpt><trkpt lat="44.8653917" lon="9.3562417"><ele>626.0</ele><time>2026-04-18T09:34:28.984Z</time></trkpt><trkpt lat="44.86533" lon="9.356355"><ele>626.0</ele><time>2026-04-18T09:34:30.986Z</time></trkpt><trkpt lat="44.8652767" lon="9.3564633"><ele>626.0</ele><time>2026-04-18T09:34:32.986Z</time></trkpt><trkpt lat="44.86524" lon="9.35656"><ele>626.0</ele><time>2026-04-18T09:34:34.984Z</time></trkpt><trkpt lat="44.8652133" lon="9.3566583"><ele>626.0</ele><time>2026-04-18T09:34:36.983Z</time></trkpt><trkpt lat="44.8651917" lon="9.35676"><ele>626.0</ele><time>2026-04-18T09:34:38.984Z</time></trkpt><trkpt lat="44.8651767" lon="9.3568533"><ele>626.0</ele><time>2026-04-18T09:34:41.985Z</time></trkpt><trkpt lat="44.8651617" lon="9.35696"><ele>626.0</ele><time>2026-04-18T09:35:02.982Z</time></trkpt><trkpt lat="44.8651483" lon="9.3570683"><ele>626.0</ele><time>2026-04-18T09:35:03.982Z</time></trkpt><trkpt lat="44.8651383" lon="9.3572067"><ele>626.0</ele><time>2026-04-18T09:35:04.983Z</time></trkpt><trkpt lat="44.865145" lon="9.3573717"><ele>625.4</ele><time>2026-04-18T09:35:05.984Z</time></trkpt><trkpt lat="44.865165" lon="9.3575467"><ele>624.8</ele><time>2026-04-18T09:35:06.983Z</time></trkpt><trkpt lat="44.8651917" lon="9.3577083"><ele>624.1999999999999</ele><time>2026-04-18T09:35:07.982Z</time></trkpt><trkpt lat="44.8652233" lon="9.3578433"><ele>623.6</ele><time>2026-04-18T09:35:08.983Z</time></trkpt><trkpt lat="44.8652767" lon="9.3579583"><ele>623.0</ele><time>2026-04-18T09:35:09.984Z</time></trkpt><trkpt lat="44.8653333" lon="9.3580583"><ele>622.8333333333333</ele><time>2026-04-18T09:35:10.983Z</time></trkpt><trkpt lat="44.865385" lon="9.3581583"><ele>622.6666666666666</ele><time>2026-04-18T09:35:11.983Z</time></trkpt><trkpt lat="44.86542" lon="9.3582717"><ele>622.5</ele><time>2026-04-18T09:35:12.983Z</time></trkpt><trkpt lat="44.86544" lon="9.3583867"><ele>622.3333333333334</ele><time>2026-04-18T09:35:13.982Z</time></trkpt><trkpt lat="44.8654483" lon="9.3584983"><ele>622.1666666666667</ele><time>2026-04-18T09:35:14.983Z</time></trkpt><trkpt lat="44.8654433" lon="9.3586017"><ele>622.0</ele><time>2026-04-18T09:35:15.983Z</time></trkpt><trkpt lat="44.8654233" lon="9.3587017"><ele>622.0</ele><time>2026-04-18T09:35:16.982Z</time></trkpt><trkpt lat="44.8653883" lon="9.3587983"><ele>622.0</ele><time>2026-04-18T09:35:17.982Z</time></trkpt><trkpt lat="44.8653417" lon="9.3589017"><ele>622.0</ele><time>2026-04-18T09:35:18.983Z</time></trkpt><trkpt lat="44.8652917" lon="9.3590133"><ele>622.0</ele><time>2026-04-18T09:35:19.984Z</time></trkpt><trkpt lat="44.8652333" lon="9.359125"><ele>622.0</ele><time>2026-04-18T09:35:20.984Z</time></trkpt><trkpt lat="44.8651683" lon="9.3592283"><ele>617.1666666666667</ele><time>2026-04-18T09:35:21.982Z</time></trkpt><trkpt lat="44.8651" lon="9.3593233"><ele>612.3333333333334</ele><time>2026-04-18T09:35:22.983Z</time></trkpt><trkpt lat="44.8650417" lon="9.3594167"><ele>607.5</ele><time>2026-04-18T09:35:23.984Z</time></trkpt><trkpt lat="44.8649983" lon="9.35952"><ele>602.6666666666666</ele><time>2026-04-18T09:35:24.982Z</time></trkpt><trkpt lat="44.8649817" lon="9.3596317"><ele>597.8333333333333</ele><time>2026-04-18T09:35:25.983Z</time></trkpt><trkpt lat="44.8649983" lon="9.3597317"><ele>593.0</ele><time>2026-04-18T09:35:26.983Z</time></trkpt><trkpt lat="44.8650483" lon="9.3598117"><ele>594.8333333333333</ele><time>2026-04-18T09:35:27.982Z</time></trkpt><trkpt lat="44.8651267" lon="9.3598917"><ele>596.6666666666666</ele><time>2026-04-18T09:35:28.982Z</time></trkpt><trkpt lat="44.8651867" lon="9.359995"><ele>598.5</ele><time>2026-04-18T09:35:29.984Z</time></trkpt><trkpt lat="44.8652317" lon="9.360105"><ele>600.3333333333334</ele><time>2026-04-18T09:35:30.983Z</time></trkpt><trkpt lat="44.8652567" lon="9.3602217"><ele>602.1666666666667</ele><time>2026-04-18T09:35:31.982Z</time></trkpt><trkpt lat="44.865275" lon="9.3603283"><ele>604.0</ele><time>2026-04-18T09:35:32.985Z</time></trkpt><trkpt lat="44.8653083" lon="9.36042"><ele>604.0</ele><time>2026-04-18T09:35:33.983Z</time></trkpt><trkpt lat="44.865365" lon="9.3604917"><ele>604.0</ele><time>2026-04-18T09:35:34.982Z</time></trkpt><trkpt lat="44.8654367" lon="9.3605383"><ele>604.0</ele><time>2026-04-18T09:35:35.982Z</time></trkpt><trkpt lat="44.86552" lon="9.3605617"><ele>604.0</ele><time>2026-04-18T09:35:36.984Z</time></trkpt><trkpt lat="44.8656033" lon="9.3605583"><ele>604.0</ele><time>2026-04-18T09:35:37.982Z</time></trkpt><trkpt lat="44.8656767" lon="9.3605267"><ele>604.0</ele><time>2026-04-18T09:35:38.982Z</time></trkpt><trkpt lat="44.8657367" lon="9.3604633"><ele>604.0</ele><time>2026-04-18T09:35:39.983Z</time></trkpt><trkpt lat="44.86579" lon="9.36038"><ele>604.0</ele><time>2026-04-18T09:35:40.984Z</time></trkpt><trkpt lat="44.8658367" lon="9.3602883"><ele>604.0</ele><time>2026-04-18T09:35:41.982Z</time></trkpt><trkpt lat="44.86589" lon="9.3602067"><ele>604.0</ele><time>2026-04-18T09:35:42.983Z</time></trkpt><trkpt lat="44.86595" lon="9.360125"><ele>604.0</ele><time>2026-04-18T09:35:43.982Z</time></trkpt><trkpt lat="44.8660167" lon="9.360045"><ele>604.0</ele><time>2026-04-18T09:35:44.982Z</time></trkpt><trkpt lat="44.8660983" lon="9.3599633"><ele>601.8</ele><time>2026-04-18T09:35:45.983Z</time></trkpt><trkpt lat="44.8661817" lon="9.3598917"><ele>599.5999999999999</ele><time>2026-04-18T09:35:46.984Z</time></trkpt><trkpt lat="44.8662667" lon="9.3598367"><ele>597.4</ele><time>2026-04-18T09:35:47.983Z</time></trkpt><trkpt lat="44.866355" lon="9.3598117"><ele>595.1999999999999</ele><time>2026-04-18T09:35:48.984Z</time></trkpt><trkpt lat="44.8664433" lon="9.359805"><ele>593.0</ele><time>2026-04-18T09:35:49.983Z</time></trkpt><trkpt lat="44.8665283" lon="9.359805"><ele>593.0</ele><time>2026-04-18T09:35:50.983Z</time></trkpt><trkpt lat="44.8666117" lon="9.3598283"><ele>593.0</ele><time>2026-04-18T09:35:51.983Z</time></trkpt><trkpt lat="44.86669" lon="9.3598683"><ele>593.0</ele><time>2026-04-18T09:35:52.982Z</time></trkpt><trkpt lat="44.86676" lon="9.35993"><ele>593.0</ele><time>2026-04-18T09:35:53.984Z</time></trkpt><trkpt lat="44.8668283" lon="9.359985"><ele>593.0</ele><time>2026-04-18T09:35:54.983Z</time></trkpt><trkpt lat="44.8668983" lon="9.3600067"><ele>593.0</ele><time>2026-04-18T09:35:55.984Z</time></trkpt><trkpt lat="44.86698" lon="9.3600167"><ele>592.1999999999999</ele><time>2026-04-18T09:35:56.983Z</time></trkpt><trkpt lat="44.8670767" lon="9.3600167"><ele>591.4</ele><time>2026-04-18T09:35:57.983Z</time></trkpt><trkpt lat="44.8671783" lon="9.3600133"><ele>590.5999999999999</ele><time>2026-04-18T09:35:58.983Z</time></trkpt><trkpt lat="44.867285" lon="9.360025"><ele>589.8</ele><time>2026-04-18T09:35:59.989Z</time></trkpt><trkpt lat="44.8673867" lon="9.36006"><ele>589.0</ele><time>2026-04-18T09:36:00.983Z</time></trkpt><trkpt lat="44.86748" lon="9.3601183"><ele>589.0</ele><time>2026-04-18T09:36:01.983Z</time></trkpt><trkpt lat="44.867555" lon="9.360195"><ele>589.0</ele><time>2026-04-18T09:36:02.982Z</time></trkpt><trkpt lat="44.86761" lon="9.3602917"><ele>589.0</ele><time>2026-04-18T09:36:03.983Z</time></trkpt><trkpt lat="44.8676533" lon="9.3603983"><ele>589.0</ele><time>2026-04-18T09:36:04.983Z</time></trkpt><trkpt lat="44.867685" lon="9.3605117"><ele>589.0</ele><time>2026-04-18T09:36:05.984Z</time></trkpt><trkpt lat="44.86771" lon="9.3606283"><ele>589.0</ele><time>2026-04-18T09:36:06.982Z</time></trkpt><trkpt lat="44.8677333" lon="9.3607433"><ele>588.6</ele><time>2026-04-18T09:36:07.983Z</time></trkpt><trkpt lat="44.867765" lon="9.3608583"><ele>588.2</ele><time>2026-04-18T09:36:08.983Z</time></trkpt><trkpt lat="44.8678133" lon="9.360975"><ele>587.8000000000001</ele><time>2026-04-18T09:36:09.983Z</time></trkpt><trkpt lat="44.8678833" lon="9.3610783"><ele>587.4</ele><time>2026-04-18T09:36:10.982Z</time></trkpt><trkpt lat="44.8679533" lon="9.3611817"><ele>587.0</ele><time>2026-04-18T09:36:11.983Z</time></trkpt><trkpt lat="44.868015" lon="9.3612783"><ele>587.0</ele><time>2026-04-18T09:36:12.983Z</time></trkpt><trkpt lat="44.86807" lon="9.3613633"><ele>587.0</ele><time>2026-04-18T09:36:13.983Z</time></trkpt><trkpt lat="44.8681167" lon="9.3614467"><ele>587.0</ele><time>2026-04-18T09:36:14.985Z</time></trkpt><trkpt lat="44.86816" lon="9.3615267"><ele>587.0</ele><time>2026-04-18T09:36:15.983Z</time></trkpt><trkpt lat="44.8681983" lon="9.3616133"><ele>587.0</ele><time>2026-04-18T09:36:16.983Z</time></trkpt><trkpt lat="44.8682183" lon="9.3617117"><ele>587.0</ele><time>2026-04-18T09:36:17.984Z</time></trkpt><trkpt lat="44.8682267" lon="9.3618183"><ele>587.0</ele><time>2026-04-18T09:36:18.983Z</time></trkpt><trkpt lat="44.8682283" lon="9.3619317"><ele>585.0</ele><time>2026-04-18T09:36:19.984Z</time></trkpt><trkpt lat="44.8682333" lon="9.362045"><ele>583.0</ele><time>2026-04-18T09:36:20.984Z</time></trkpt><trkpt lat="44.8682433" lon="9.3621583"><ele>581.0</ele><time>2026-04-18T09:36:21.984Z</time></trkpt><trkpt lat="44.8682583" lon="9.3622667"><ele>579.0</ele><time>2026-04-18T09:36:22.984Z</time></trkpt><trkpt lat="44.8682767" lon="9.362375"><ele>577.0</ele><time>2026-04-18T09:36:23.984Z</time></trkpt><trkpt lat="44.8682883" lon="9.3624733"><ele>575.0</ele><time>2026-04-18T09:36:24.984Z</time></trkpt><trkpt lat="44.8682767" lon="9.3626117"><ele>573.8333333333333</ele><time>2026-04-18T09:36:26.982Z</time></trkpt><trkpt lat="44.8683017" lon="9.3626967"><ele>572.6666666666666</ele><time>2026-04-18T09:37:12.983Z</time></trkpt><trkpt lat="44.8683683" lon="9.3625667"><ele>571.5</ele><time>2026-04-18T09:37:14.982Z</time></trkpt><trkpt lat="44.868405" lon="9.3624817"><ele>570.3333333333334</ele><time>2026-04-18T09:37:15.984Z</time></trkpt><trkpt lat="44.86845" lon="9.36241"><ele>569.1666666666667</ele><time>2026-04-18T09:37:16.984Z</time></trkpt><trkpt lat="44.86851" lon="9.36236"><ele>568.0</ele><time>2026-04-18T09:37:17.984Z</time></trkpt><trkpt lat="44.8685983" lon="9.3623217"><ele>570.8</ele><time>2026-04-18T09:37:18.984Z</time></trkpt><trkpt lat="44.868705" lon="9.36229"><ele>573.5999999999999</ele><time>2026-04-18T09:37:19.983Z</time></trkpt><trkpt lat="44.8688167" lon="9.3622533"><ele>576.4000000000001</ele><time>2026-04-18T09:37:20.983Z</time></trkpt><trkpt lat="44.868925" lon="9.3622217"><ele>579.2</ele><time>2026-04-18T09:37:21.983Z</time></trkpt><trkpt lat="44.8690267" lon="9.3621983"><ele>582.0</ele><time>2026-04-18T09:37:22.984Z</time></trkpt><trkpt lat="44.8691033" lon="9.3621767"><ele>584.2</ele><time>2026-04-18T09:37:23.985Z</time></trkpt><trkpt lat="44.8691633" lon="9.3621483"><ele>586.4000000000001</ele><time>2026-04-18T09:37:24.984Z</time></trkpt><trkpt lat="44.8692483" lon="9.3620133"><ele>588.5999999999999</ele><time>2026-04-18T09:37:26.984Z</time></trkpt><trkpt lat="44.8692883" lon="9.3619"><ele>590.8</ele><time>2026-04-18T09:37:27.983Z</time></trkpt><trkpt lat="44.869325" lon="9.361755"><ele>593.0</ele><time>2026-04-18T09:37:28.984Z</time></trkpt><trkpt lat="44.8693583" lon="9.361605"><ele>593.8</ele><time>2026-04-18T09:37:29.982Z</time></trkpt><trkpt lat="44.8693783" lon="9.3614467"><ele>594.5999999999999</ele><time>2026-04-18T09:37:30.984Z</time></trkpt><trkpt lat="44.8693867" lon="9.36129"><ele>595.4000000000001</ele><time>2026-04-18T09:37:31.984Z</time></trkpt><trkpt lat="44.869395" lon="9.3611567"><ele>596.2</ele><time>2026-04-18T09:37:32.984Z</time></trkpt><trkpt lat="44.8694067" lon="9.3610383"><ele>597.0</ele><time>2026-04-18T09:37:33.982Z</time></trkpt><trkpt lat="44.86943" lon="9.3609183"><ele>601.0</ele><time>2026-04-18T09:37:34.982Z</time></trkpt><trkpt lat="44.8694383" lon="9.3607967"><ele>605.0</ele><time>2026-04-18T09:37:35.984Z</time></trkpt><trkpt lat="44.869435" lon="9.3606717"><ele>609.0</ele><time>2026-04-18T09:37:36.985Z</time></trkpt><trkpt lat="44.869415" lon="9.360545"><ele>613.0</ele><time>2026-04-18T09:37:37.984Z</time></trkpt><trkpt lat="44.8693817" lon="9.360395"><ele>617.0</ele><time>2026-04-18T09:37:38.984Z</time></trkpt><trkpt lat="44.869355" lon="9.3602317"><ele>619.5</ele><time>2026-04-18T09:37:39.982Z</time></trkpt><trkpt lat="44.8693367" lon="9.3600883"><ele>622.0</ele><time>2026-04-18T09:37:40.982Z</time></trkpt><trkpt lat="44.8693383" lon="9.35999"><ele>624.5</ele><time>2026-04-18T09:37:41.984Z</time></trkpt><trkpt lat="44.8693933" lon="9.3598733"><ele>627.0</ele><time>2026-04-18T09:37:43.984Z</time></trkpt><trkpt lat="44.8694483" lon="9.359825"><ele>629.5</ele><time>2026-04-18T09:37:44.984Z</time></trkpt><trkpt lat="44.869505" lon="9.35977"><ele>632.0</ele><time>2026-04-18T09:37:45.984Z</time></trkpt><trkpt lat="44.86958" lon="9.3597217"><ele>632.0</ele><time>2026-04-18T09:37:47.983Z</time></trkpt><trkpt lat="44.8696417" lon="9.35988"><ele>632.0</ele><time>2026-04-18T09:37:49.982Z</time></trkpt><trkpt lat="44.8696783" lon="9.359995"><ele>632.0</ele><time>2026-04-18T09:37:50.983Z</time></trkpt><trkpt lat="44.869725" lon="9.360105"><ele>632.0</ele><time>2026-04-18T09:37:51.984Z</time></trkpt><trkpt lat="44.8697867" lon="9.3602133"><ele>632.0</ele><time>2026-04-18T09:37:52.982Z</time></trkpt><trkpt lat="44.8698683" lon="9.3603217"><ele>632.0</ele><time>2026-04-18T09:37:53.983Z</time></trkpt><trkpt lat="44.86995" lon="9.3604283"><ele>632.0</ele><time>2026-04-18T09:37:54.984Z</time></trkpt><trkpt lat="44.8700283" lon="9.3605233"><ele>632.0</ele><time>2026-04-18T09:37:55.984Z</time></trkpt><trkpt lat="44.870105" lon="9.3605833"><ele>632.0</ele><time>2026-04-18T09:37:56.983Z</time></trkpt><trkpt lat="44.8701833" lon="9.360625"><ele>632.0</ele><time>2026-04-18T09:37:57.983Z</time></trkpt><trkpt lat="44.8702733" lon="9.3606583"><ele>629.2</ele><time>2026-04-18T09:37:58.984Z</time></trkpt><trkpt lat="44.870365" lon="9.3607"><ele>626.4000000000001</ele><time>2026-04-18T09:37:59.984Z</time></trkpt><trkpt lat="44.8704467" lon="9.3607717"><ele>623.5999999999999</ele><time>2026-04-18T09:38:00.983Z</time></trkpt><trkpt lat="44.8705283" lon="9.3608633"><ele>620.8</ele><time>2026-04-18T09:38:01.984Z</time></trkpt><trkpt lat="44.8705883" lon="9.36096"><ele>618.0</ele><time>2026-04-18T09:38:02.984Z</time></trkpt><trkpt lat="44.8706517" lon="9.3610433"><ele>618.0</ele><time>2026-04-18T09:38:03.983Z</time></trkpt><trkpt lat="44.870715" lon="9.3611"><ele>618.0</ele><time>2026-04-18T09:38:05.071Z</time></trkpt><trkpt lat="44.8707883" lon="9.3611267"><ele>618.0</ele><time>2026-04-18T09:38:05.982Z</time></trkpt><trkpt lat="44.8708867" lon="9.3611283"><ele>618.0</ele><time>2026-04-18T09:38:06.985Z</time></trkpt><trkpt lat="44.8710133" lon="9.3611"><ele>618.0</ele><time>2026-04-18T09:38:07.984Z</time></trkpt><trkpt lat="44.87113" lon="9.3610767"><ele>618.0</ele><time>2026-04-18T09:38:08.983Z</time></trkpt><trkpt lat="44.8712367" lon="9.3610717"><ele>618.0</ele><time>2026-04-18T09:38:09.983Z</time></trkpt><trkpt lat="44.8713333" lon="9.3610967"><ele>618.0</ele><time>2026-04-18T09:38:10.983Z</time></trkpt><trkpt lat="44.8714183" lon="9.361135"><ele>618.0</ele><time>2026-04-18T09:38:11.983Z</time></trkpt><trkpt lat="44.8714817" lon="9.361185"><ele>618.0</ele><time>2026-04-18T09:38:12.984Z</time></trkpt><trkpt lat="44.8715567" lon="9.36132"><ele>618.6666666666666</ele><time>2026-04-18T09:38:14.984Z</time></trkpt><trkpt lat="44.87163" lon="9.3614267"><ele>619.3333333333334</ele><time>2026-04-18T09:38:16.984Z</time></trkpt><trkpt lat="44.8716933" lon="9.3614483"><ele>620.0</ele><time>2026-04-18T09:38:17.983Z</time></trkpt><trkpt lat="44.871765" lon="9.3614633"><ele>620.6666666666667</ele><time>2026-04-18T09:38:18.984Z</time></trkpt><trkpt lat="44.8718567" lon="9.36147"><ele>621.3333333333334</ele><time>2026-04-18T09:38:19.984Z</time></trkpt><trkpt lat="44.8719567" lon="9.3614783"><ele>622.0</ele><time>2026-04-18T09:38:20.984Z</time></trkpt><trkpt lat="44.87204" lon="9.36151"><ele>622.0</ele><time>2026-04-18T09:38:21.984Z</time></trkpt><trkpt lat="44.8721117" lon="9.3615683"><ele>622.0</ele><time>2026-04-18T09:38:22.984Z</time></trkpt><trkpt lat="44.8721633" lon="9.3616517"><ele>622.0</ele><time>2026-04-18T09:38:23.983Z</time></trkpt><trkpt lat="44.872205" lon="9.3617417"><ele>622.0</ele><time>2026-04-18T09:38:24.983Z</time></trkpt><trkpt lat="44.8722583" lon="9.361825"><ele>622.0</ele><time>2026-04-18T09:38:25.984Z</time></trkpt><trkpt lat="44.8723167" lon="9.3618917"><ele>622.0</ele><time>2026-04-18T09:38:26.983Z</time></trkpt><trkpt lat="44.8723717" lon="9.361945"><ele>622.0</ele><time>2026-04-18T09:38:27.983Z</time></trkpt><trkpt lat="44.8724617" lon="9.3620233"><ele>622.0</ele><time>2026-04-18T09:38:29.984Z</time></trkpt><trkpt lat="44.8724917" lon="9.362115"><ele>622.0</ele><time>2026-04-18T09:38:31.983Z</time></trkpt><trkpt lat="44.87246" lon="9.3622617"><ele>622.0</ele><time>2026-04-18T09:38:33.984Z</time></trkpt><trkpt lat="44.872435" lon="9.36236"><ele>622.0</ele><time>2026-04-18T09:38:34.984Z</time></trkpt><trkpt lat="44.8724083" lon="9.36248"><ele>622.0</ele><time>2026-04-18T09:38:35.984Z</time></trkpt><trkpt lat="44.8723767" lon="9.36262"><ele>619.2</ele><time>2026-04-18T09:38:36.984Z</time></trkpt><trkpt lat="44.8723483" lon="9.3627633"><ele>616.4000000000001</ele><time>2026-04-18T09:38:37.984Z</time></trkpt><trkpt lat="44.8723217" lon="9.3629133"><ele>613.5999999999999</ele><time>2026-04-18T09:38:38.983Z</time></trkpt><trkpt lat="44.8722967" lon="9.3630633"><ele>610.8</ele><time>2026-04-18T09:38:39.984Z</time></trkpt><trkpt lat="44.8722717" lon="9.3632067"><ele>608.0</ele><time>2026-04-18T09:38:40.984Z</time></trkpt><trkpt lat="44.872245" lon="9.363345"><ele>605.0</ele><time>2026-04-18T09:38:41.984Z</time></trkpt><trkpt lat="44.8722133" lon="9.3634933"><ele>602.0</ele><time>2026-04-18T09:38:42.985Z</time></trkpt><trkpt lat="44.87218" lon="9.3636467"><ele>599.0</ele><time>2026-04-18T09:38:43.984Z</time></trkpt><trkpt lat="44.8721467" lon="9.3637783"><ele>596.0</ele><time>2026-04-18T09:38:44.985Z</time></trkpt><trkpt lat="44.8721217" lon="9.3638717"><ele>593.0</ele><time>2026-04-18T09:38:45.984Z</time></trkpt><trkpt lat="44.8721117" lon="9.3639967"><ele>590.6666666666666</ele><time>2026-04-18T09:38:47.984Z</time></trkpt><trkpt lat="44.8721583" lon="9.3641167"><ele>588.3333333333333</ele><time>2026-04-18T09:38:49.984Z</time></trkpt><trkpt lat="44.8721567" lon="9.3642917"><ele>586.0</ele><time>2026-04-18T09:38:51.984Z</time></trkpt><trkpt lat="44.8721517" lon="9.364395"><ele>583.6666666666666</ele><time>2026-04-18T09:38:52.984Z</time></trkpt><trkpt lat="44.872145" lon="9.3645017"><ele>581.3333333333334</ele><time>2026-04-18T09:38:53.984Z</time></trkpt><trkpt lat="44.8721333" lon="9.364605"><ele>579.0</ele><time>2026-04-18T09:38:54.984Z</time></trkpt><trkpt lat="44.872125" lon="9.3647067"><ele>576.5</ele><time>2026-04-18T09:38:55.983Z</time></trkpt><trkpt lat="44.872125" lon="9.3648167"><ele>574.0</ele><time>2026-04-18T09:38:56.984Z</time></trkpt><trkpt lat="44.872135" lon="9.3649167"><ele>571.5</ele><time>2026-04-18T09:38:57.983Z</time></trkpt><trkpt lat="44.8721383" lon="9.3650117"><ele>569.0</ele><time>2026-04-18T09:38:58.984Z</time></trkpt><trkpt lat="44.8721367" lon="9.3651117"><ele>566.5</ele><time>2026-04-18T09:38:59.984Z</time></trkpt><trkpt lat="44.87213" lon="9.3652283"><ele>564.0</ele><time>2026-04-18T09:39:00.983Z</time></trkpt><trkpt lat="44.87212" lon="9.3653583"><ele>564.0</ele><time>2026-04-18T09:39:01.983Z</time></trkpt><trkpt lat="44.87212" lon="9.3654967"><ele>564.0</ele><time>2026-04-18T09:39:02.984Z</time></trkpt><trkpt lat="44.8721183" lon="9.365635"><ele>564.0</ele><time>2026-04-18T09:39:03.984Z</time></trkpt><trkpt lat="44.872115" lon="9.3657633"><ele>564.0</ele><time>2026-04-18T09:39:04.983Z</time></trkpt><trkpt lat="44.872105" lon="9.3659017"><ele>564.0</ele><time>2026-04-18T09:39:05.984Z</time></trkpt><trkpt lat="44.8721033" lon="9.3660367"><ele>561.0</ele><time>2026-04-18T09:39:06.985Z</time></trkpt><trkpt lat="44.8721033" lon="9.36618"><ele>558.0</ele><time>2026-04-18T09:39:07.984Z</time></trkpt><trkpt lat="44.8721083" lon="9.36633"><ele>555.0</ele><time>2026-04-18T09:39:08.983Z</time></trkpt><trkpt lat="44.8721133" lon="9.3664867"><ele>552.0</ele><time>2026-04-18T09:39:09.984Z</time></trkpt><trkpt lat="44.8721233" lon="9.3666383"><ele>549.0</ele><time>2026-04-18T09:39:10.983Z</time></trkpt><trkpt lat="44.87214" lon="9.3667867"><ele>546.4</ele><time>2026-04-18T09:39:11.984Z</time></trkpt><trkpt lat="44.8721533" lon="9.3669333"><ele>543.8</ele><time>2026-04-18T09:39:12.982Z</time></trkpt><trkpt lat="44.8721633" lon="9.367085"><ele>541.2</ele><time>2026-04-18T09:39:13.982Z</time></trkpt><trkpt lat="44.87217" lon="9.3672283"><ele>538.6</ele><time>2026-04-18T09:39:14.985Z</time></trkpt><trkpt lat="44.8721767" lon="9.3673767"><ele>536.0</ele><time>2026-04-18T09:39:15.984Z</time></trkpt><trkpt lat="44.87218" lon="9.367525"><ele>534.8</ele><time>2026-04-18T09:39:16.984Z</time></trkpt><trkpt lat="44.8721867" lon="9.367665"><ele>533.6</ele><time>2026-04-18T09:39:17.983Z</time></trkpt><trkpt lat="44.87219" lon="9.3678017"><ele>532.4</ele><time>2026-04-18T09:39:18.984Z</time></trkpt><trkpt lat="44.8721917" lon="9.36793"><ele>531.2</ele><time>2026-04-18T09:39:19.984Z</time></trkpt><trkpt lat="44.8721883" lon="9.3680483"><ele>530.0</ele><time>2026-04-18T09:39:20.983Z</time></trkpt><trkpt lat="44.8721833" lon="9.3681633"><ele>528.5</ele><time>2026-04-18T09:39:21.983Z</time></trkpt><trkpt lat="44.8721967" lon="9.368265"><ele>527.0</ele><time>2026-04-18T09:39:22.984Z</time></trkpt><trkpt lat="44.8722117" lon="9.36837"><ele>525.5</ele><time>2026-04-18T09:39:23.985Z</time></trkpt><trkpt lat="44.8722367" lon="9.3684883"><ele>524.0</ele><time>2026-04-18T09:39:24.983Z</time></trkpt><trkpt lat="44.872255" lon="9.3686083"><ele>522.5</ele><time>2026-04-18T09:39:25.983Z</time></trkpt><trkpt lat="44.8722767" lon="9.368725"><ele>521.0</ele><time>2026-04-18T09:39:26.983Z</time></trkpt><trkpt lat="44.8723033" lon="9.36883"><ele>518.8333333333333</ele><time>2026-04-18T09:39:27.983Z</time></trkpt><trkpt lat="44.872335" lon="9.3689333"><ele>516.6666666666666</ele><time>2026-04-18T09:39:28.983Z</time></trkpt><trkpt lat="44.8723767" lon="9.36903"><ele>514.5</ele><time>2026-04-18T09:39:29.984Z</time></trkpt><trkpt lat="44.8724183" lon="9.3691167"><ele>512.3333333333334</ele><time>2026-04-18T09:39:30.984Z</time></trkpt><trkpt lat="44.8724683" lon="9.3692733"><ele>510.1666666666667</ele><time>2026-04-18T09:39:32.984Z</time></trkpt><trkpt lat="44.87247" lon="9.369365"><ele>508.0</ele><time>2026-04-18T09:39:33.984Z</time></trkpt><trkpt lat="44.87246" lon="9.3694733"><ele>508.00000000000006</ele><time>2026-04-18T09:39:34.983Z</time></trkpt><trkpt lat="44.872455" lon="9.3695833"><ele>508.0</ele><time>2026-04-18T09:39:35.984Z</time></trkpt><trkpt lat="44.8724483" lon="9.3697033"><ele>508.0</ele><time>2026-04-18T09:39:36.984Z</time></trkpt><trkpt lat="44.8724367" lon="9.36982"><ele>508.0</ele><time>2026-04-18T09:39:37.984Z</time></trkpt><trkpt lat="44.8724117" lon="9.3699283"><ele>508.00000000000006</ele><time>2026-04-18T09:39:38.983Z</time></trkpt><trkpt lat="44.8723733" lon="9.370025"><ele>508.0</ele><time>2026-04-18T09:39:39.984Z</time></trkpt><trkpt lat="44.8723367" lon="9.3701183"><ele>506.0</ele><time>2026-04-18T09:39:40.984Z</time></trkpt><trkpt lat="44.872305" lon="9.37023"><ele>504.0</ele><time>2026-04-18T09:39:41.985Z</time></trkpt><trkpt lat="44.872285" lon="9.37034"><ele>502.0</ele><time>2026-04-18T09:39:42.984Z</time></trkpt><trkpt lat="44.8722667" lon="9.3704417"><ele>500.0</ele><time>2026-04-18T09:39:43.983Z</time></trkpt><trkpt lat="44.87225" lon="9.3705383"><ele>498.0</ele><time>2026-04-18T09:39:44.983Z</time></trkpt><trkpt lat="44.8722367" lon="9.3706333"><ele>496.0</ele><time>2026-04-18T09:39:45.983Z</time></trkpt><trkpt lat="44.8722317" lon="9.3707283"><ele>494.0</ele><time>2026-04-18T09:39:46.983Z</time></trkpt><trkpt lat="44.8722367" lon="9.3708267"><ele>491.28571428571433</ele><time>2026-04-18T09:39:47.983Z</time></trkpt><trkpt lat="44.872235" lon="9.37092"><ele>488.57142857142856</ele><time>2026-04-18T09:39:48.984Z</time></trkpt><trkpt lat="44.87222" lon="9.3710067"><ele>485.8571428571429</ele><time>2026-04-18T09:39:49.984Z</time></trkpt><trkpt lat="44.8721933" lon="9.3711"><ele>483.14285714285717</ele><time>2026-04-18T09:39:50.985Z</time></trkpt><trkpt lat="44.87216" lon="9.3712"><ele>480.42857142857144</ele><time>2026-04-18T09:39:51.984Z</time></trkpt><trkpt lat="44.87214" lon="9.3712983"><ele>477.7142857142857</ele><time>2026-04-18T09:39:52.983Z</time></trkpt><trkpt lat="44.8721267" lon="9.3713917"><ele>475.0</ele><time>2026-04-18T09:39:53.983Z</time></trkpt><trkpt lat="44.8721167" lon="9.3714867"><ele>472.6666666666667</ele><time>2026-04-18T09:39:54.984Z</time></trkpt><trkpt lat="44.8721033" lon="9.3715817"><ele>470.33333333333337</ele><time>2026-04-18T09:39:55.985Z</time></trkpt><trkpt lat="44.8720933" lon="9.3717467"><ele>468.0</ele><time>2026-04-18T09:39:57.983Z</time></trkpt><trkpt lat="44.8721117" lon="9.3718317"><ele>465.66666666666663</ele><time>2026-04-18T09:39:58.984Z</time></trkpt><trkpt lat="44.87214" lon="9.3719267"><ele>463.3333333333333</ele><time>2026-04-18T09:39:59.983Z</time></trkpt><trkpt lat="44.8721683" lon="9.3720217"><ele>461.0</ele><time>2026-04-18T09:40:00.984Z</time></trkpt><trkpt lat="44.872195" lon="9.3721067"><ele>458.0</ele><time>2026-04-18T09:40:01.984Z</time></trkpt><trkpt lat="44.8722283" lon="9.37223"><ele>455.0</ele><time>2026-04-18T09:40:03.984Z</time></trkpt><trkpt lat="44.8722417" lon="9.3723767"><ele>452.0</ele><time>2026-04-18T09:40:27.984Z</time></trkpt><trkpt lat="44.87222" lon="9.3725133"><ele>449.0</ele><time>2026-04-18T09:40:29.984Z</time></trkpt><trkpt lat="44.872175" lon="9.372605"><ele>446.0</ele><time>2026-04-18T09:40:32.983Z</time></trkpt><trkpt lat="44.8721433" lon="9.372735"><ele>445.99999999999994</ele><time>2026-04-18T09:40:44.983Z</time></trkpt><trkpt lat="44.8721417" lon="9.3728833"><ele>446.0</ele><time>2026-04-18T09:40:46.984Z</time></trkpt><trkpt lat="44.8722" lon="9.37296"><ele>446.0</ele><time>2026-04-18T09:40:48.986Z</time></trkpt><trkpt lat="44.872265" lon="9.37303"><ele>446.0</ele><time>2026-04-18T09:40:50.985Z</time></trkpt><trkpt lat="44.8723667" lon="9.3731017"><ele>445.99999999999994</ele><time>2026-04-18T09:40:52.984Z</time></trkpt><trkpt lat="44.8724333" lon="9.3731217"><ele>446.0</ele><time>2026-04-18T09:40:53.986Z</time></trkpt><trkpt lat="44.8725433" lon="9.3731683"><ele>443.20000000000005</ele><time>2026-04-18T09:40:55.987Z</time></trkpt><trkpt lat="44.8726333" lon="9.3732333"><ele>440.40000000000003</ele><time>2026-04-18T09:40:57.984Z</time></trkpt><trkpt lat="44.872675" lon="9.3733267"><ele>437.6</ele><time>2026-04-18T09:40:59.983Z</time></trkpt><trkpt lat="44.8726417" lon="9.37344"><ele>434.8</ele><time>2026-04-18T09:41:01.984Z</time></trkpt><trkpt lat="44.8725867" lon="9.3735867"><ele>432.0</ele><time>2026-04-18T09:41:03.984Z</time></trkpt><trkpt lat="44.8725" lon="9.3737017"><ele>432.0</ele><time>2026-04-18T09:41:05.983Z</time></trkpt><trkpt lat="44.8724467" lon="9.3737517"><ele>432.0</ele><time>2026-04-18T09:41:06.984Z</time></trkpt><trkpt lat="44.8724017" lon="9.3738167"><ele>432.0</ele><time>2026-04-18T09:41:07.985Z</time></trkpt><trkpt lat="44.87237" lon="9.3739033"><ele>432.0</ele><time>2026-04-18T09:41:08.983Z</time></trkpt><trkpt lat="44.87235" lon="9.37401"><ele>432.0</ele><time>2026-04-18T09:41:09.984Z</time></trkpt><trkpt lat="44.8723283" lon="9.3741283"><ele>432.0</ele><time>2026-04-18T09:41:10.983Z</time></trkpt><trkpt lat="44.8723083" lon="9.3742383"><ele>432.0</ele><time>2026-04-18T09:41:11.984Z</time></trkpt><trkpt lat="44.8723" lon="9.3743367"><ele>429.40000000000003</ele><time>2026-04-18T09:41:12.982Z</time></trkpt><trkpt lat="44.8723217" lon="9.3744883"><ele>426.80000000000007</ele><time>2026-04-18T09:41:14.984Z</time></trkpt><trkpt lat="44.8723917" lon="9.37463"><ele>424.2</ele><time>2026-04-18T09:41:16.984Z</time></trkpt><trkpt lat="44.8724183" lon="9.3747783"><ele>421.6</ele><time>2026-04-18T09:41:18.985Z</time></trkpt><trkpt lat="44.8723733" lon="9.374915"><ele>419.0</ele><time>2026-04-18T09:41:20.984Z</time></trkpt><trkpt lat="44.87228" lon="9.37502"><ele>417.2</ele><time>2026-04-18T09:41:22.984Z</time></trkpt><trkpt lat="44.8722167" lon="9.3751283"><ele>415.4</ele><time>2026-04-18T09:41:24.983Z</time></trkpt><trkpt lat="44.8722167" lon="9.3752517"><ele>413.6</ele><time>2026-04-18T09:41:26.985Z</time></trkpt><trkpt lat="44.872225" lon="9.3753733"><ele>411.8</ele><time>2026-04-18T09:41:29.983Z</time></trkpt><trkpt lat="44.8722583" lon="9.3754733"><ele>410.0</ele><time>2026-04-18T09:41:31.984Z</time></trkpt><trkpt lat="44.872315" lon="9.3756267"><ele>408.4</ele><time>2026-04-18T09:41:33.985Z</time></trkpt><trkpt lat="44.8723667" lon="9.3757783"><ele>406.8</ele><time>2026-04-18T09:41:35.983Z</time></trkpt><trkpt lat="44.8724183" lon="9.3759133"><ele>405.20000000000005</ele><time>2026-04-18T09:41:37.984Z</time></trkpt><trkpt lat="44.8724717" lon="9.3760433"><ele>403.6</ele><time>2026-04-18T09:41:39.984Z</time></trkpt><trkpt lat="44.8725267" lon="9.3761733"><ele>402.0</ele><time>2026-04-18T09:41:41.984Z</time></trkpt><trkpt lat="44.8725817" lon="9.376305"><ele>401.6</ele><time>2026-04-18T09:41:43.985Z</time></trkpt><trkpt lat="44.872635" lon="9.3764283"><ele>401.20000000000005</ele><time>2026-04-18T09:41:45.984Z</time></trkpt><trkpt lat="44.8726917" lon="9.376545"><ele>400.8</ele><time>2026-04-18T09:41:47.985Z</time></trkpt><trkpt lat="44.8727517" lon="9.3766567"><ele>400.4</ele><time>2026-04-18T09:41:49.984Z</time></trkpt><trkpt lat="44.87283" lon="9.37679"><ele>400.0</ele><time>2026-04-18T09:41:51.983Z</time></trkpt><trkpt lat="44.8728833" lon="9.3768667"><ele>400.00000000000006</ele><time>2026-04-18T09:41:52.984Z</time></trkpt><trkpt lat="44.872955" lon="9.3769433"><ele>400.0</ele><time>2026-04-18T09:41:53.983Z</time></trkpt><trkpt lat="44.8730383" lon="9.37701"><ele>400.0</ele><time>2026-04-18T09:41:54.984Z</time></trkpt><trkpt lat="44.8731233" lon="9.37706"><ele>400.0</ele><time>2026-04-18T09:41:55.986Z</time></trkpt><trkpt lat="44.873205" lon="9.377095"><ele>400.00000000000006</ele><time>2026-04-18T09:41:56.985Z</time></trkpt><trkpt lat="44.8732833" lon="9.3771217"><ele>400.0</ele><time>2026-04-18T09:41:57.984Z</time></trkpt><trkpt lat="44.87336" lon="9.3771483"><ele>400.0</ele><time>2026-04-18T09:41:58.985Z</time></trkpt><trkpt lat="44.8734367" lon="9.3771817"><ele>400.0</ele><time>2026-04-18T09:41:59.986Z</time></trkpt><trkpt lat="44.8735167" lon="9.37722"><ele>400.0</ele><time>2026-04-18T09:42:00.986Z</time></trkpt><trkpt lat="44.8735983" lon="9.3772667"><ele>400.0</ele><time>2026-04-18T09:42:01.985Z</time></trkpt><trkpt lat="44.873685" lon="9.3773283"><ele>400.0</ele><time>2026-04-18T09:42:02.984Z</time></trkpt><trkpt lat="44.8737733" lon="9.377415"><ele>399.0</ele><time>2026-04-18T09:42:03.984Z</time></trkpt><trkpt lat="44.873865" lon="9.37752"><ele>398.0</ele><time>2026-04-18T09:42:04.985Z</time></trkpt><trkpt lat="44.8739583" lon="9.3776333"><ele>397.0</ele><time>2026-04-18T09:42:05.984Z</time></trkpt><trkpt lat="44.8740467" lon="9.3777317"><ele>396.0</ele><time>2026-04-18T09:42:06.985Z</time></trkpt><trkpt lat="44.8741267" lon="9.3778083"><ele>396.0</ele><time>2026-04-18T09:42:07.985Z</time></trkpt><trkpt lat="44.8741933" lon="9.3778567"><ele>396.0</ele><time>2026-04-18T09:42:08.985Z</time></trkpt><trkpt lat="44.874275" lon="9.3779317"><ele>396.0</ele><time>2026-04-18T09:42:10.984Z</time></trkpt><trkpt lat="44.874315" lon="9.3780383"><ele>396.0</ele><time>2026-04-18T09:42:12.984Z</time></trkpt><trkpt lat="44.8743883" lon="9.3781367"><ele>396.0</ele><time>2026-04-18T09:42:14.986Z</time></trkpt><trkpt lat="44.8744717" lon="9.378215"><ele>394.8</ele><time>2026-04-18T09:42:16.983Z</time></trkpt><trkpt lat="44.8745467" lon="9.378285"><ele>393.6</ele><time>2026-04-18T09:42:18.984Z</time></trkpt><trkpt lat="44.87462" lon="9.378375"><ele>392.4</ele><time>2026-04-18T09:42:20.984Z</time></trkpt><trkpt lat="44.874715" lon="9.37847"><ele>391.2</ele><time>2026-04-18T09:42:22.984Z</time></trkpt><trkpt lat="44.8748167" lon="9.3785367"><ele>390.0</ele><time>2026-04-18T09:42:24.984Z</time></trkpt><trkpt lat="44.8748917" lon="9.378555"><ele>390.0</ele><time>2026-04-18T09:42:27.984Z</time></trkpt><trkpt lat="44.874965" lon="9.3785817"><ele>390.0</ele><time>2026-04-18T09:42:30.982Z</time></trkpt><trkpt lat="44.8750483" lon="9.378625"><ele>390.0</ele><time>2026-04-18T09:42:32.984Z</time></trkpt><trkpt lat="44.8751267" lon="9.3787183"><ele>390.0</ele><time>2026-04-18T09:42:34.983Z</time></trkpt><trkpt lat="44.8751733" lon="9.3788583"><ele>390.0</ele><time>2026-04-18T09:42:36.984Z</time></trkpt><trkpt lat="44.8751917" lon="9.3789917"><ele>390.1666666666667</ele><time>2026-04-18T09:42:38.982Z</time></trkpt><trkpt lat="44.87517" lon="9.37908"><ele>390.33333333333337</ele><time>2026-04-18T09:42:40.983Z</time></trkpt><trkpt lat="44.8750767" lon="9.379125"><ele>390.5</ele><time>2026-04-18T09:42:42.983Z</time></trkpt><trkpt lat="44.875" lon="9.3791367"><ele>390.6666666666667</ele><time>2026-04-18T09:42:43.983Z</time></trkpt><trkpt lat="44.8748983" lon="9.37916"><ele>390.83333333333337</ele><time>2026-04-18T09:42:44.982Z</time></trkpt><trkpt lat="44.8748033" lon="9.3791983"><ele>391.0</ele><time>2026-04-18T09:42:45.983Z</time></trkpt><trkpt lat="44.874715" lon="9.379255"><ele>391.0</ele><time>2026-04-18T09:42:46.982Z</time></trkpt><trkpt lat="44.8746333" lon="9.3793233"><ele>391.0</ele><time>2026-04-18T09:42:47.983Z</time></trkpt><trkpt lat="44.8745483" lon="9.3794183"><ele>391.0</ele><time>2026-04-18T09:42:48.982Z</time></trkpt><trkpt lat="44.8744583" lon="9.3795217"><ele>391.0</ele><time>2026-04-18T09:42:49.983Z</time></trkpt><trkpt lat="44.87436" lon="9.37962"><ele>391.0</ele><time>2026-04-18T09:42:50.982Z</time></trkpt><trkpt lat="44.8742667" lon="9.3797033"><ele>392.50000000000006</ele><time>2026-04-18T09:42:51.983Z</time></trkpt><trkpt lat="44.8741767" lon="9.3797783"><ele>394.0</ele><time>2026-04-18T09:42:52.982Z</time></trkpt><trkpt lat="44.874105" lon="9.37984"><ele>395.5</ele><time>2026-04-18T09:42:53.983Z</time></trkpt><trkpt lat="44.8740467" lon="9.37989"><ele>397.0</ele><time>2026-04-18T09:42:54.983Z</time></trkpt><trkpt lat="44.8739567" lon="9.3799483"><ele>398.50000000000006</ele><time>2026-04-18T09:42:56.983Z</time></trkpt><trkpt lat="44.87387" lon="9.3799883"><ele>400.0</ele><time>2026-04-18T09:42:58.983Z</time></trkpt><trkpt lat="44.87376" lon="9.3800517"><ele>400.00000000000006</ele><time>2026-04-18T09:43:00.984Z</time></trkpt><trkpt lat="44.8736983" lon="9.3801083"><ele>400.0</ele><time>2026-04-18T09:43:01.983Z</time></trkpt><trkpt lat="44.873625" lon="9.3801833"><ele>400.0</ele><time>2026-04-18T09:43:02.983Z</time></trkpt><trkpt lat="44.8735533" lon="9.3802767"><ele>400.0</ele><time>2026-04-18T09:43:03.982Z</time></trkpt><trkpt lat="44.8734817" lon="9.3803617"><ele>400.00000000000006</ele><time>2026-04-18T09:43:04.984Z</time></trkpt><trkpt lat="44.8734233" lon="9.3804383"><ele>400.0</ele><time>2026-04-18T09:43:05.985Z</time></trkpt><trkpt lat="44.8733683" lon="9.3805117"><ele>399.6666666666667</ele><time>2026-04-18T09:43:06.984Z</time></trkpt><trkpt lat="44.873315" lon="9.3805833"><ele>399.33333333333337</ele><time>2026-04-18T09:43:07.984Z</time></trkpt><trkpt lat="44.873265" lon="9.3806517"><ele>399.0</ele><time>2026-04-18T09:43:08.986Z</time></trkpt><trkpt lat="44.873215" lon="9.3807067"><ele>398.66666666666663</ele><time>2026-04-18T09:43:09.985Z</time></trkpt><trkpt lat="44.8731167" lon="9.3807833"><ele>398.3333333333333</ele><time>2026-04-18T09:43:11.982Z</time></trkpt><trkpt lat="44.8730383" lon="9.3808717"><ele>398.0</ele><time>2026-04-18T09:43:13.984Z</time></trkpt><trkpt lat="44.87299" lon="9.3809333"><ele>397.99999999999994</ele><time>2026-04-18T09:43:14.984Z</time></trkpt><trkpt lat="44.8729267" lon="9.3809983"><ele>398.0</ele><time>2026-04-18T09:43:15.983Z</time></trkpt><trkpt lat="44.8728517" lon="9.3810567"><ele>398.0</ele><time>2026-04-18T09:43:16.983Z</time></trkpt><trkpt lat="44.872775" lon="9.3811083"><ele>398.0</ele><time>2026-04-18T09:43:17.984Z</time></trkpt><trkpt lat="44.872705" lon="9.38116"><ele>397.99999999999994</ele><time>2026-04-18T09:43:18.984Z</time></trkpt><trkpt lat="44.8726383" lon="9.3812283"><ele>398.0</ele><time>2026-04-18T09:43:19.983Z</time></trkpt><trkpt lat="44.87258" lon="9.381315"><ele>398.4285714285714</ele><time>2026-04-18T09:43:20.985Z</time></trkpt><trkpt lat="44.8725267" lon="9.38141"><ele>398.85714285714283</ele><time>2026-04-18T09:43:21.984Z</time></trkpt><trkpt lat="44.872475" lon="9.3814967"><ele>399.2857142857143</ele><time>2026-04-18T09:43:22.983Z</time></trkpt><trkpt lat="44.87242" lon="9.3815683"><ele>399.71428571428567</ele><time>2026-04-18T09:43:23.984Z</time></trkpt><trkpt lat="44.8723667" lon="9.3816283"><ele>400.14285714285717</ele><time>2026-04-18T09:43:24.984Z</time></trkpt><trkpt lat="44.8723117" lon="9.3816883"><ele>400.57142857142856</ele><time>2026-04-18T09:43:25.984Z</time></trkpt><trkpt lat="44.8722517" lon="9.38174"><ele>401.0</ele><time>2026-04-18T09:43:26.984Z</time></trkpt><trkpt lat="44.8721483" lon="9.381825"><ele>401.0</ele><time>2026-04-18T09:43:28.983Z</time></trkpt><trkpt lat="44.8720617" lon="9.38195"><ele>401.0</ele><time>2026-04-18T09:43:30.984Z</time></trkpt><trkpt lat="44.8720267" lon="9.3820283"><ele>401.0</ele><time>2026-04-18T09:43:31.984Z</time></trkpt><trkpt lat="44.8719967" lon="9.3821117"><ele>401.0</ele><time>2026-04-18T09:43:32.985Z</time></trkpt><trkpt lat="44.871995" lon="9.3822617"><ele>401.0</ele><time>2026-04-18T09:43:34.983Z</time></trkpt><trkpt lat="44.8720833" lon="9.3823917"><ele>402.6</ele><time>2026-04-18T09:43:36.983Z</time></trkpt><trkpt lat="44.872155" lon="9.3824767"><ele>404.20000000000005</ele><time>2026-04-18T09:43:37.984Z</time></trkpt><trkpt lat="44.8722267" lon="9.3825767"><ele>405.79999999999995</ele><time>2026-04-18T09:43:38.984Z</time></trkpt><trkpt lat="44.8722867" lon="9.3826833"><ele>407.4</ele><time>2026-04-18T09:43:39.983Z</time></trkpt><trkpt lat="44.8723417" lon="9.3827833"><ele>409.0</ele><time>2026-04-18T09:43:40.983Z</time></trkpt><trkpt lat="44.8724017" lon="9.3828717"><ele>409.0</ele><time>2026-04-18T09:43:41.983Z</time></trkpt><trkpt lat="44.872465" lon="9.382955"><ele>409.0</ele><time>2026-04-18T09:43:42.982Z</time></trkpt><trkpt lat="44.8725367" lon="9.3830417"><ele>409.0</ele><time>2026-04-18T09:43:43.984Z</time></trkpt><trkpt lat="44.8726183" lon="9.3831283"><ele>409.0</ele><time>2026-04-18T09:43:44.984Z</time></trkpt><trkpt lat="44.8726983" lon="9.3832283"><ele>409.0</ele><time>2026-04-18T09:43:45.984Z</time></trkpt><trkpt lat="44.8727767" lon="9.3833283"><ele>412.6</ele><time>2026-04-18T09:43:46.984Z</time></trkpt><trkpt lat="44.8728517" lon="9.3834317"><ele>416.2</ele><time>2026-04-18T09:43:47.984Z</time></trkpt><trkpt lat="44.8729167" lon="9.3835417"><ele>419.80000000000007</ele><time>2026-04-18T09:43:48.984Z</time></trkpt><trkpt lat="44.8729667" lon="9.3836483"><ele>423.40000000000003</ele><time>2026-04-18T09:43:49.982Z</time></trkpt><trkpt lat="44.8730167" lon="9.383755"><ele>427.0</ele><time>2026-04-18T09:43:50.984Z</time></trkpt><trkpt lat="44.873085" lon="9.383825"><ele>429.0</ele><time>2026-04-18T09:43:51.982Z</time></trkpt><trkpt lat="44.87316" lon="9.3838717"><ele>431.00000000000006</ele><time>2026-04-18T09:43:52.983Z</time></trkpt><trkpt lat="44.8732517" lon="9.3839033"><ele>433.00000000000006</ele><time>2026-04-18T09:43:53.983Z</time></trkpt><trkpt lat="44.8733417" lon="9.3839583"><ele>435.0</ele><time>2026-04-18T09:43:54.984Z</time></trkpt><trkpt lat="44.8734233" lon="9.3840417"><ele>437.0</ele><time>2026-04-18T09:43:55.984Z</time></trkpt><trkpt lat="44.8734867" lon="9.3841517"><ele>438.8333333333333</ele><time>2026-04-18T09:43:56.985Z</time></trkpt><trkpt lat="44.87354" lon="9.3842583"><ele>440.66666666666663</ele><time>2026-04-18T09:43:57.984Z</time></trkpt><trkpt lat="44.8735933" lon="9.384345"><ele>442.5</ele><time>2026-04-18T09:43:58.982Z</time></trkpt><trkpt lat="44.873645" lon="9.3844233"><ele>444.33333333333337</ele><time>2026-04-18T09:43:59.983Z</time></trkpt><trkpt lat="44.873685" lon="9.3845083"><ele>446.1666666666667</ele><time>2026-04-18T09:44:00.982Z</time></trkpt><trkpt lat="44.87371" lon="9.3846067"><ele>448.0</ele><time>2026-04-18T09:44:01.984Z</time></trkpt><trkpt lat="44.8737283" lon="9.3847117"><ele>449.1666666666667</ele><time>2026-04-18T09:44:02.983Z</time></trkpt><trkpt lat="44.8737367" lon="9.3848183"><ele>450.33333333333337</ele><time>2026-04-18T09:44:03.982Z</time></trkpt><trkpt lat="44.8737467" lon="9.3849217"><ele>451.5</ele><time>2026-04-18T09:44:04.983Z</time></trkpt><trkpt lat="44.87377" lon="9.385015"><ele>452.66666666666663</ele><time>2026-04-18T09:44:05.982Z</time></trkpt><trkpt lat="44.8738683" lon="9.3851217"><ele>453.8333333333333</ele><time>2026-04-18T09:44:07.984Z</time></trkpt><trkpt lat="44.8739433" lon="9.3851517"><ele>455.0</ele><time>2026-04-18T09:44:08.984Z</time></trkpt><trkpt lat="44.8740117" lon="9.3851917"><ele>454.99999999999994</ele><time>2026-04-18T09:44:09.982Z</time></trkpt><trkpt lat="44.8740683" lon="9.385255"><ele>455.0</ele><time>2026-04-18T09:44:10.984Z</time></trkpt><trkpt lat="44.8741133" lon="9.385325"><ele>455.0</ele><time>2026-04-18T09:44:11.983Z</time></trkpt><trkpt lat="44.8741783" lon="9.3854467"><ele>455.0</ele><time>2026-04-18T09:44:13.984Z</time></trkpt><trkpt lat="44.874265" lon="9.38547"><ele>454.99999999999994</ele><time>2026-04-18T09:44:16.984Z</time></trkpt><trkpt lat="44.87434" lon="9.3853617"><ele>455.0</ele><time>2026-04-18T09:44:18.982Z</time></trkpt><trkpt lat="44.8743683" lon="9.3852717"><ele>456.3333333333333</ele><time>2026-04-18T09:44:19.982Z</time></trkpt><trkpt lat="44.874395" lon="9.385165"><ele>457.66666666666663</ele><time>2026-04-18T09:44:20.983Z</time></trkpt><trkpt lat="44.8744267" lon="9.3850467"><ele>459.0</ele><time>2026-04-18T09:44:21.983Z</time></trkpt><trkpt lat="44.87446" lon="9.38493"><ele>460.33333333333337</ele><time>2026-04-18T09:44:22.982Z</time></trkpt><trkpt lat="44.8744933" lon="9.38482"><ele>461.6666666666667</ele><time>2026-04-18T09:44:23.985Z</time></trkpt><trkpt lat="44.87453" lon="9.3847167"><ele>463.0</ele><time>2026-04-18T09:44:24.989Z</time></trkpt><trkpt lat="44.874565" lon="9.3846317"><ele>463.0</ele><time>2026-04-18T09:44:25.985Z</time></trkpt><trkpt lat="44.8746567" lon="9.3845483"><ele>462.99999999999994</ele><time>2026-04-18T09:44:27.982Z</time></trkpt><trkpt lat="44.87475" lon="9.3846083"><ele>462.99999999999994</ele><time>2026-04-18T09:44:29.983Z</time></trkpt><trkpt lat="44.874765" lon="9.3847517"><ele>463.0</ele><time>2026-04-18T09:44:31.984Z</time></trkpt><trkpt lat="44.87474" lon="9.3848367"><ele>463.0</ele><time>2026-04-18T09:44:32.983Z</time></trkpt><trkpt lat="44.8747067" lon="9.384925"><ele>463.71428571428567</ele><time>2026-04-18T09:44:33.983Z</time></trkpt><trkpt lat="44.8746633" lon="9.3850133"><ele>464.4285714285714</ele><time>2026-04-18T09:44:34.984Z</time></trkpt><trkpt lat="44.8746283" lon="9.3850983"><ele>465.1428571428571</ele><time>2026-04-18T09:44:35.983Z</time></trkpt><trkpt lat="44.8745917" lon="9.3851867"><ele>465.8571428571429</ele><time>2026-04-18T09:44:36.984Z</time></trkpt><trkpt lat="44.8745567" lon="9.3852817"><ele>466.5714285714286</ele><time>2026-04-18T09:44:37.983Z</time></trkpt><trkpt lat="44.87453" lon="9.3853817"><ele>467.28571428571433</ele><time>2026-04-18T09:44:38.985Z</time></trkpt><trkpt lat="44.87453" lon="9.3854717"><ele>468.0</ele><time>2026-04-18T09:44:39.983Z</time></trkpt><trkpt lat="44.8745883" lon="9.3856017"><ele>468.0</ele><time>2026-04-18T09:44:41.984Z</time></trkpt><trkpt lat="44.874655" lon="9.3855817"><ele>468.0</ele><time>2026-04-18T09:44:42.983Z</time></trkpt><trkpt lat="44.8747283" lon="9.3855133"><ele>468.0</ele><time>2026-04-18T09:44:43.984Z</time></trkpt><trkpt lat="44.8747967" lon="9.3854333"><ele>468.0</ele><time>2026-04-18T09:44:44.984Z</time></trkpt><trkpt lat="44.8748667" lon="9.3853417"><ele>468.0</ele><time>2026-04-18T09:44:45.984Z</time></trkpt><trkpt lat="44.87494" lon="9.3852483"><ele>468.0</ele><time>2026-04-18T09:44:46.983Z</time></trkpt><trkpt lat="44.875015" lon="9.3851583"><ele>468.0</ele><time>2026-04-18T09:44:47.983Z</time></trkpt><trkpt lat="44.875095" lon="9.3850733"><ele>467.99999999999994</ele><time>2026-04-18T09:44:48.983Z</time></trkpt><trkpt lat="44.8751733" lon="9.3849933"><ele>467.99999999999994</ele><time>2026-04-18T09:44:49.984Z</time></trkpt><trkpt lat="44.875255" lon="9.384915"><ele>468.0</ele><time>2026-04-18T09:44:50.983Z</time></trkpt><trkpt lat="44.875335" lon="9.38484"><ele>468.0</ele><time>2026-04-18T09:44:51.984Z</time></trkpt><trkpt lat="44.8754117" lon="9.3847683"><ele>470.0</ele><time>2026-04-18T09:44:52.983Z</time></trkpt><trkpt lat="44.8754917" lon="9.384705"><ele>472.0</ele><time>2026-04-18T09:44:53.983Z</time></trkpt><trkpt lat="44.8755717" lon="9.3846517"><ele>474.0</ele><time>2026-04-18T09:44:54.983Z</time></trkpt><trkpt lat="44.8756533" lon="9.3845967"><ele>476.0</ele><time>2026-04-18T09:44:55.982Z</time></trkpt><trkpt lat="44.8757333" lon="9.3845367"><ele>478.0</ele><time>2026-04-18T09:44:56.984Z</time></trkpt><trkpt lat="44.8758067" lon="9.3844767"><ele>480.0</ele><time>2026-04-18T09:44:57.984Z</time></trkpt><trkpt lat="44.8758717" lon="9.3844233"><ele>480.0</ele><time>2026-04-18T09:44:58.982Z</time></trkpt><trkpt lat="44.8759317" lon="9.3843883"><ele>480.0</ele><time>2026-04-18T09:44:59.984Z</time></trkpt><trkpt lat="44.8760283" lon="9.38444"><ele>480.0</ele><time>2026-04-18T09:45:01.984Z</time></trkpt><trkpt lat="44.87602" lon="9.3846033"><ele>480.0</ele><time>2026-04-18T09:45:03.984Z</time></trkpt><trkpt lat="44.8759133" lon="9.3847367"><ele>480.0</ele><time>2026-04-18T09:45:05.984Z</time></trkpt><trkpt lat="44.875845" lon="9.384805"><ele>480.5</ele><time>2026-04-18T09:45:06.984Z</time></trkpt><trkpt lat="44.875795" lon="9.3848733"><ele>481.0</ele><time>2026-04-18T09:45:07.983Z</time></trkpt><trkpt lat="44.8757583" lon="9.3849467"><ele>481.5</ele><time>2026-04-18T09:45:08.985Z</time></trkpt><trkpt lat="44.8757767" lon="9.3850833"><ele>482.0</ele><time>2026-04-18T09:45:10.983Z</time></trkpt><trkpt lat="44.875875" lon="9.3850517"><ele>482.5</ele><time>2026-04-18T09:45:12.982Z</time></trkpt><trkpt lat="44.8759383" lon="9.38497"><ele>483.0</ele><time>2026-04-18T09:45:13.983Z</time></trkpt><trkpt lat="44.8760083" lon="9.3848667"><ele>485.0</ele><time>2026-04-18T09:45:14.983Z</time></trkpt><trkpt lat="44.8760767" lon="9.3847583"><ele>487.0</ele><time>2026-04-18T09:45:15.983Z</time></trkpt><trkpt lat="44.876135" lon="9.3846517"><ele>489.0</ele><time>2026-04-18T09:45:16.982Z</time></trkpt><trkpt lat="44.87618" lon="9.3845583"><ele>491.0</ele><time>2026-04-18T09:45:17.984Z</time></trkpt><trkpt lat="44.8762167" lon="9.38446"><ele>493.0</ele><time>2026-04-18T09:45:18.983Z</time></trkpt><trkpt lat="44.8762433" lon="9.3843567"><ele>495.0</ele><time>2026-04-18T09:45:19.984Z</time></trkpt><trkpt lat="44.8762667" lon="9.3842617"><ele>495.0</ele><time>2026-04-18T09:45:20.985Z</time></trkpt><trkpt lat="44.8763083" lon="9.3841133"><ele>495.0</ele><time>2026-04-18T09:45:22.984Z</time></trkpt><trkpt lat="44.8763733" lon="9.3840767"><ele>495.0</ele><time>2026-04-18T09:45:24.984Z</time></trkpt><trkpt lat="44.87641" lon="9.3841867"><ele>495.0</ele><time>2026-04-18T09:45:26.983Z</time></trkpt><trkpt lat="44.8764117" lon="9.38429"><ele>495.0</ele><time>2026-04-18T09:45:27.983Z</time></trkpt><trkpt lat="44.87641" lon="9.3844067"><ele>495.0</ele><time>2026-04-18T09:45:28.984Z</time></trkpt><trkpt lat="44.8764033" lon="9.3845217"><ele>495.0</ele><time>2026-04-18T09:45:29.984Z</time></trkpt><trkpt lat="44.8764017" lon="9.3846367"><ele>495.0</ele><time>2026-04-18T09:45:30.985Z</time></trkpt><trkpt lat="44.8764167" lon="9.3847533"><ele>495.0</ele><time>2026-04-18T09:45:31.985Z</time></trkpt><trkpt lat="44.8764333" lon="9.38488"><ele>495.0</ele><time>2026-04-18T09:45:32.985Z</time></trkpt><trkpt lat="44.87646" lon="9.3850033"><ele>495.0</ele><time>2026-04-18T09:45:33.983Z</time></trkpt><trkpt lat="44.8765" lon="9.385125"><ele>495.0</ele><time>2026-04-18T09:45:34.983Z</time></trkpt><trkpt lat="44.876555" lon="9.3852333"><ele>495.4</ele><time>2026-04-18T09:45:35.982Z</time></trkpt><trkpt lat="44.8766283" lon="9.3853217"><ele>495.8</ele><time>2026-04-18T09:45:36.983Z</time></trkpt><trkpt lat="44.8767117" lon="9.3853867"><ele>496.20000000000005</ele><time>2026-04-18T09:45:37.983Z</time></trkpt><trkpt lat="44.8768067" lon="9.3854067"><ele>496.6</ele><time>2026-04-18T09:45:38.983Z</time></trkpt><trkpt lat="44.876905" lon="9.3853917"><ele>497.0</ele><time>2026-04-18T09:45:39.983Z</time></trkpt><trkpt lat="44.8770033" lon="9.385345"><ele>500.20000000000005</ele><time>2026-04-18T09:45:40.985Z</time></trkpt><trkpt lat="44.87709" lon="9.3852667"><ele>503.40000000000003</ele><time>2026-04-18T09:45:41.984Z</time></trkpt><trkpt lat="44.8771483" lon="9.3851567"><ele>506.59999999999997</ele><time>2026-04-18T09:45:42.985Z</time></trkpt><trkpt lat="44.8771733" lon="9.38503"><ele>509.79999999999995</ele><time>2026-04-18T09:45:43.984Z</time></trkpt><trkpt lat="44.8771717" lon="9.3848917"><ele>513.0</ele><time>2026-04-18T09:45:44.985Z</time></trkpt><trkpt lat="44.8771583" lon="9.3847483"><ele>512.6666666666666</ele><time>2026-04-18T09:45:45.983Z</time></trkpt><trkpt lat="44.8771283" lon="9.3846117"><ele>512.3333333333334</ele><time>2026-04-18T09:45:46.982Z</time></trkpt><trkpt lat="44.8770983" lon="9.384485"><ele>512.0</ele><time>2026-04-18T09:45:47.984Z</time></trkpt><trkpt lat="44.8770733" lon="9.38437"><ele>511.6666666666667</ele><time>2026-04-18T09:45:48.984Z</time></trkpt><trkpt lat="44.87706" lon="9.384265"><ele>511.33333333333337</ele><time>2026-04-18T09:45:49.984Z</time></trkpt><trkpt lat="44.87706" lon="9.384175"><ele>511.0</ele><time>2026-04-18T09:45:50.983Z</time></trkpt><trkpt lat="44.8771183" lon="9.3840183"><ele>511.00000000000006</ele><time>2026-04-18T09:45:52.983Z</time></trkpt><trkpt lat="44.8771717" lon="9.3839417"><ele>511.0</ele><time>2026-04-18T09:45:53.983Z</time></trkpt><trkpt lat="44.877235" lon="9.3838683"><ele>511.0</ele><time>2026-04-18T09:45:54.984Z</time></trkpt><trkpt lat="44.8773033" lon="9.3838083"><ele>511.0</ele><time>2026-04-18T09:45:55.983Z</time></trkpt><trkpt lat="44.8773817" lon="9.3837733"><ele>511.00000000000006</ele><time>2026-04-18T09:45:56.984Z</time></trkpt><trkpt lat="44.8774683" lon="9.3837383"><ele>511.0</ele><time>2026-04-18T09:45:57.984Z</time></trkpt><trkpt lat="44.8775683" lon="9.3837067"><ele>510.0</ele><time>2026-04-18T09:45:58.983Z</time></trkpt><trkpt lat="44.8776717" lon="9.38367"><ele>509.0</ele><time>2026-04-18T09:45:59.983Z</time></trkpt><trkpt lat="44.8777767" lon="9.3836283"><ele>508.0</ele><time>2026-04-18T09:46:00.985Z</time></trkpt><trkpt lat="44.877885" lon="9.3835783"><ele>507.0</ele><time>2026-04-18T09:46:01.983Z</time></trkpt><trkpt lat="44.8779967" lon="9.3835267"><ele>506.0</ele><time>2026-04-18T09:46:02.983Z</time></trkpt><trkpt lat="44.8781133" lon="9.3834717"><ele>506.0</ele><time>2026-04-18T09:46:03.983Z</time></trkpt><trkpt lat="44.87823" lon="9.383415"><ele>506.0</ele><time>2026-04-18T09:46:04.984Z</time></trkpt><trkpt lat="44.8783567" lon="9.3833533"><ele>506.0</ele><time>2026-04-18T09:46:05.984Z</time></trkpt><trkpt lat="44.87848" lon="9.3832883"><ele>506.0</ele><time>2026-04-18T09:46:06.985Z</time></trkpt><trkpt lat="44.8785967" lon="9.3832233"><ele>507.8</ele><time>2026-04-18T09:46:07.984Z</time></trkpt><trkpt lat="44.8787" lon="9.383165"><ele>509.6</ele><time>2026-04-18T09:46:08.983Z</time></trkpt><trkpt lat="44.8787983" lon="9.3831133"><ele>511.4</ele><time>2026-04-18T09:46:09.984Z</time></trkpt><trkpt lat="44.878895" lon="9.383065"><ele>513.2</ele><time>2026-04-18T09:46:10.984Z</time></trkpt><trkpt lat="44.8790017" lon="9.3830183"><ele>515.0</ele><time>2026-04-18T09:46:11.985Z</time></trkpt><trkpt lat="44.8791117" lon="9.38297"><ele>513.2</ele><time>2026-04-18T09:46:12.984Z</time></trkpt><trkpt lat="44.8792183" lon="9.38291"><ele>511.4</ele><time>2026-04-18T09:46:13.984Z</time></trkpt><trkpt lat="44.8793183" lon="9.38283"><ele>509.6</ele><time>2026-04-18T09:46:14.984Z</time></trkpt><trkpt lat="44.87941" lon="9.382745"><ele>507.8</ele><time>2026-04-18T09:46:15.984Z</time></trkpt><trkpt lat="44.8795" lon="9.38266"><ele>506.0</ele><time>2026-04-18T09:46:16.983Z</time></trkpt><trkpt lat="44.8795933" lon="9.38258"><ele>506.0</ele><time>2026-04-18T09:46:17.985Z</time></trkpt><trkpt lat="44.879695" lon="9.382525"><ele>506.0</ele><time>2026-04-18T09:46:18.984Z</time></trkpt><trkpt lat="44.879805" lon="9.3824867"><ele>506.0</ele><time>2026-04-18T09:46:19.983Z</time></trkpt><trkpt lat="44.8799183" lon="9.3824367"><ele>506.0</ele><time>2026-04-18T09:46:20.983Z</time></trkpt><trkpt lat="44.88002" lon="9.382365"><ele>505.75</ele><time>2026-04-18T09:46:21.983Z</time></trkpt><trkpt lat="44.88011" lon="9.382275"><ele>505.5</ele><time>2026-04-18T09:46:22.983Z</time></trkpt><trkpt lat="44.8801983" lon="9.3821883"><ele>505.25</ele><time>2026-04-18T09:46:23.982Z</time></trkpt><trkpt lat="44.880305" lon="9.3821133"><ele>505.0</ele><time>2026-04-18T09:46:24.983Z</time></trkpt><trkpt lat="44.8804117" lon="9.3820433"><ele>505.0</ele><time>2026-04-18T09:46:25.985Z</time></trkpt><trkpt lat="44.880515" lon="9.3819667"><ele>505.0</ele><time>2026-04-18T09:46:26.984Z</time></trkpt><trkpt lat="44.8806183" lon="9.3819017"><ele>505.0</ele><time>2026-04-18T09:46:27.983Z</time></trkpt><trkpt lat="44.8807183" lon="9.3818517"><ele>505.0</ele><time>2026-04-18T09:46:28.984Z</time></trkpt><trkpt lat="44.8808167" lon="9.381795"><ele>505.0</ele><time>2026-04-18T09:46:29.984Z</time></trkpt><trkpt lat="44.8809083" lon="9.38172"><ele>506.0</ele><time>2026-04-18T09:46:30.984Z</time></trkpt><trkpt lat="44.8809967" lon="9.381645"><ele>507.0</ele><time>2026-04-18T09:46:31.983Z</time></trkpt><trkpt lat="44.8810817" lon="9.3815667"><ele>508.0</ele><time>2026-04-18T09:46:32.984Z</time></trkpt><trkpt lat="44.881175" lon="9.3815017"><ele>509.0</ele><time>2026-04-18T09:46:33.984Z</time></trkpt><trkpt lat="44.8812833" lon="9.381435"><ele>510.0</ele><time>2026-04-18T09:46:34.983Z</time></trkpt><trkpt lat="44.8813967" lon="9.3813683"><ele>507.75</ele><time>2026-04-18T09:46:35.983Z</time></trkpt><trkpt lat="44.881515" lon="9.3813033"><ele>505.5</ele><time>2026-04-18T09:46:36.983Z</time></trkpt><trkpt lat="44.8816317" lon="9.381245"><ele>503.25</ele><time>2026-04-18T09:46:37.982Z</time></trkpt><trkpt lat="44.8817433" lon="9.3811817"><ele>501.0</ele><time>2026-04-18T09:46:38.983Z</time></trkpt><trkpt lat="44.881845" lon="9.3811083"><ele>501.0</ele><time>2026-04-18T09:46:39.984Z</time></trkpt><trkpt lat="44.881935" lon="9.3810483"><ele>501.0</ele><time>2026-04-18T09:46:40.983Z</time></trkpt><trkpt lat="44.882025" lon="9.3810117"><ele>501.0</ele><time>2026-04-18T09:46:41.984Z</time></trkpt><trkpt lat="44.8821083" lon="9.3810167"><ele>501.0</ele><time>2026-04-18T09:46:42.984Z</time></trkpt><trkpt lat="44.8821867" lon="9.38105"><ele>501.0</ele><time>2026-04-18T09:46:43.983Z</time></trkpt><trkpt lat="44.882265" lon="9.3811083"><ele>501.0</ele><time>2026-04-18T09:46:44.985Z</time></trkpt><trkpt lat="44.88234" lon="9.381155"><ele>501.0</ele><time>2026-04-18T09:46:45.985Z</time></trkpt><trkpt lat="44.8824133" lon="9.38118"><ele>501.0</ele><time>2026-04-18T09:46:46.984Z</time></trkpt><trkpt lat="44.8824767" lon="9.3811867"><ele>501.0</ele><time>2026-04-18T09:46:47.983Z</time></trkpt><trkpt lat="44.8825217" lon="9.3811183"><ele>501.0</ele><time>2026-04-18T09:46:48.983Z</time></trkpt><trkpt lat="44.8825817" lon="9.38103"><ele>501.0</ele><time>2026-04-18T09:46:49.984Z</time></trkpt><trkpt lat="44.8826417" lon="9.3809233"><ele>501.0</ele><time>2026-04-18T09:46:50.984Z</time></trkpt><trkpt lat="44.8826933" lon="9.380805"><ele>504.0</ele><time>2026-04-18T09:46:51.984Z</time></trkpt><trkpt lat="44.88273" lon="9.3806583"><ele>507.0</ele><time>2026-04-18T09:46:52.983Z</time></trkpt><trkpt lat="44.8827633" lon="9.3804967"><ele>510.0</ele><time>2026-04-18T09:46:53.984Z</time></trkpt><trkpt lat="44.8827917" lon="9.3803333"><ele>513.0</ele><time>2026-04-18T09:46:54.985Z</time></trkpt><trkpt lat="44.88282" lon="9.38018"><ele>513.0</ele><time>2026-04-18T09:46:55.986Z</time></trkpt><trkpt lat="44.8828433" lon="9.3800017"><ele>513.0</ele><time>2026-04-18T09:46:56.984Z</time></trkpt><trkpt lat="44.882855" lon="9.3798283"><ele>513.0</ele><time>2026-04-18T09:46:57.984Z</time></trkpt><trkpt lat="44.8828683" lon="9.379675"><ele>513.0</ele><time>2026-04-18T09:46:58.983Z</time></trkpt><trkpt lat="44.8828817" lon="9.3795267"><ele>512.8</ele><time>2026-04-18T09:46:59.984Z</time></trkpt><trkpt lat="44.8828933" lon="9.3793833"><ele>512.5999999999999</ele><time>2026-04-18T09:47:00.983Z</time></trkpt><trkpt lat="44.8828983" lon="9.37924"><ele>512.4000000000001</ele><time>2026-04-18T09:47:01.984Z</time></trkpt><trkpt lat="44.8829033" lon="9.3790917"><ele>512.2</ele><time>2026-04-18T09:47:02.983Z</time></trkpt><trkpt lat="44.88291" lon="9.3789417"><ele>512.0</ele><time>2026-04-18T09:47:03.984Z</time></trkpt><trkpt lat="44.8829117" lon="9.3787917"><ele>510.8</ele><time>2026-04-18T09:47:04.984Z</time></trkpt><trkpt lat="44.8829117" lon="9.37865"><ele>509.6</ele><time>2026-04-18T09:47:05.984Z</time></trkpt><trkpt lat="44.8829133" lon="9.378535"><ele>508.40000000000003</ele><time>2026-04-18T09:47:06.983Z</time></trkpt><trkpt lat="44.8829283" lon="9.3784417"><ele>507.20000000000005</ele><time>2026-04-18T09:47:07.984Z</time></trkpt><trkpt lat="44.88301" lon="9.37836"><ele>506.0</ele><time>2026-04-18T09:47:09.985Z</time></trkpt><trkpt lat="44.8831067" lon="9.3783967"><ele>505.99999999999994</ele><time>2026-04-18T09:47:11.985Z</time></trkpt><trkpt lat="44.8831867" lon="9.3785117"><ele>506.0</ele><time>2026-04-18T09:47:13.983Z</time></trkpt><trkpt lat="44.88321" lon="9.3786"><ele>506.0</ele><time>2026-04-18T09:47:14.984Z</time></trkpt><trkpt lat="44.8832283" lon="9.378695"><ele>506.0</ele><time>2026-04-18T09:47:15.984Z</time></trkpt><trkpt lat="44.8832533" lon="9.3787867"><ele>505.99999999999994</ele><time>2026-04-18T09:47:16.984Z</time></trkpt><trkpt lat="44.8832733" lon="9.37888"><ele>506.0</ele><time>2026-04-18T09:47:17.983Z</time></trkpt><trkpt lat="44.8833017" lon="9.37897"><ele>506.8571428571429</ele><time>2026-04-18T09:47:18.986Z</time></trkpt><trkpt lat="44.8833317" lon="9.3790533"><ele>507.7142857142857</ele><time>2026-04-18T09:47:19.984Z</time></trkpt><trkpt lat="44.8833767" lon="9.3791167"><ele>508.57142857142856</ele><time>2026-04-18T09:47:20.984Z</time></trkpt><trkpt lat="44.8834333" lon="9.3791683"><ele>509.42857142857144</ele><time>2026-04-18T09:47:21.983Z</time></trkpt><trkpt lat="44.8834983" lon="9.3791917"><ele>510.2857142857142</ele><time>2026-04-18T09:47:22.983Z</time></trkpt><trkpt lat="44.8835867" lon="9.3791917"><ele>511.1428571428571</ele><time>2026-04-18T09:47:23.983Z</time></trkpt><trkpt lat="44.8836767" lon="9.379185"><ele>512.0</ele><time>2026-04-18T09:47:24.983Z</time></trkpt><trkpt lat="44.8837633" lon="9.37918"><ele>512.5</ele><time>2026-04-18T09:47:25.983Z</time></trkpt><trkpt lat="44.8838417" lon="9.3791817"><ele>513.0</ele><time>2026-04-18T09:47:26.985Z</time></trkpt><trkpt lat="44.8839167" lon="9.3791983"><ele>513.5</ele><time>2026-04-18T09:47:27.983Z</time></trkpt><trkpt lat="44.883985" lon="9.3792417"><ele>514.0</ele><time>2026-04-18T09:47:28.983Z</time></trkpt><trkpt lat="44.8840467" lon="9.3792967"><ele>514.5</ele><time>2026-04-18T09:47:29.983Z</time></trkpt><trkpt lat="44.8841083" lon="9.3793567"><ele>515.0</ele><time>2026-04-18T09:47:30.987Z</time></trkpt><trkpt lat="44.8841767" lon="9.3794183"><ele>515.0</ele><time>2026-04-18T09:47:31.984Z</time></trkpt><trkpt lat="44.88425" lon="9.379465"><ele>515.0</ele><time>2026-04-18T09:47:32.983Z</time></trkpt><trkpt lat="44.8843317" lon="9.3794783"><ele>515.0</ele><time>2026-04-18T09:47:33.984Z</time></trkpt><trkpt lat="44.8844167" lon="9.379465"><ele>515.0</ele><time>2026-04-18T09:47:34.984Z</time></trkpt><trkpt lat="44.884495" lon="9.3794417"><ele>515.0</ele><time>2026-04-18T09:47:35.984Z</time></trkpt><trkpt lat="44.88457" lon="9.3794017"><ele>515.0</ele><time>2026-04-18T09:47:36.984Z</time></trkpt><trkpt lat="44.8846367" lon="9.3793633"><ele>515.0</ele><time>2026-04-18T09:47:37.984Z</time></trkpt><trkpt lat="44.8847117" lon="9.379325"><ele>515.0</ele><time>2026-04-18T09:47:38.984Z</time></trkpt><trkpt lat="44.88479" lon="9.3792883"><ele>515.0</ele><time>2026-04-18T09:47:39.984Z</time></trkpt><trkpt lat="44.8848667" lon="9.379245"><ele>515.0</ele><time>2026-04-18T09:47:40.984Z</time></trkpt><trkpt lat="44.8849483" lon="9.37919"><ele>515.0</ele><time>2026-04-18T09:47:41.985Z</time></trkpt><trkpt lat="44.885025" lon="9.379135"><ele>515.0</ele><time>2026-04-18T09:47:42.984Z</time></trkpt><trkpt lat="44.8850933" lon="9.37908"><ele>513.8</ele><time>2026-04-18T09:47:43.983Z</time></trkpt><trkpt lat="44.8851617" lon="9.3790267"><ele>512.6</ele><time>2026-04-18T09:47:44.983Z</time></trkpt><trkpt lat="44.8852217" lon="9.37897"><ele>511.4</ele><time>2026-04-18T09:47:45.984Z</time></trkpt><trkpt lat="44.8853367" lon="9.3789167"><ele>510.2</ele><time>2026-04-18T09:47:47.984Z</time></trkpt><trkpt lat="44.8854533" lon="9.3788617"><ele>509.0</ele><time>2026-04-18T09:47:49.984Z</time></trkpt><trkpt lat="44.8855483" lon="9.3787317"><ele>508.99999999999994</ele><time>2026-04-18T09:47:51.984Z</time></trkpt><trkpt lat="44.8855967" lon="9.3786483"><ele>509.0</ele><time>2026-04-18T09:47:52.984Z</time></trkpt><trkpt lat="44.8856517" lon="9.3785617"><ele>509.0</ele><time>2026-04-18T09:47:53.984Z</time></trkpt><trkpt lat="44.885705" lon="9.3784717"><ele>509.0</ele><time>2026-04-18T09:47:54.984Z</time></trkpt><trkpt lat="44.885765" lon="9.3783833"><ele>508.99999999999994</ele><time>2026-04-18T09:47:55.985Z</time></trkpt><trkpt lat="44.88582" lon="9.378295"><ele>509.0</ele><time>2026-04-18T09:47:56.985Z</time></trkpt><trkpt lat="44.885865" lon="9.3782033"><ele>508.99999999999994</ele><time>2026-04-18T09:47:57.983Z</time></trkpt><trkpt lat="44.8859033" lon="9.3781283"><ele>509.0</ele><time>2026-04-18T09:47:58.985Z</time></trkpt><trkpt lat="44.886" lon="9.3780217"><ele>509.0</ele><time>2026-04-18T09:48:00.984Z</time></trkpt><trkpt lat="44.8860583" lon="9.3779733"><ele>509.0</ele><time>2026-04-18T09:48:01.984Z</time></trkpt><trkpt lat="44.886115" lon="9.3779167"><ele>508.99999999999994</ele><time>2026-04-18T09:48:02.983Z</time></trkpt><trkpt lat="44.88617" lon="9.37786"><ele>509.0</ele><time>2026-04-18T09:48:03.983Z</time></trkpt><trkpt lat="44.8862217" lon="9.3777983"><ele>507.8333333333333</ele><time>2026-04-18T09:48:04.984Z</time></trkpt><trkpt lat="44.886275" lon="9.3777333"><ele>506.66666666666663</ele><time>2026-04-18T09:48:05.983Z</time></trkpt><trkpt lat="44.8863417" lon="9.3776617"><ele>505.5</ele><time>2026-04-18T09:48:06.984Z</time></trkpt><trkpt lat="44.8864083" lon="9.377595"><ele>504.33333333333337</ele><time>2026-04-18T09:48:07.983Z</time></trkpt><trkpt lat="44.886475" lon="9.377545"><ele>503.1666666666667</ele><time>2026-04-18T09:48:08.984Z</time></trkpt><trkpt lat="44.8865417" lon="9.3775083"><ele>502.0</ele><time>2026-04-18T09:48:09.984Z</time></trkpt><trkpt lat="44.8866083" lon="9.3774817"><ele>502.0</ele><time>2026-04-18T09:48:10.984Z</time></trkpt><trkpt lat="44.8866783" lon="9.37746"><ele>502.00000000000006</ele><time>2026-04-18T09:48:11.984Z</time></trkpt><trkpt lat="44.8867467" lon="9.377445"><ele>502.00000000000006</ele><time>2026-04-18T09:48:12.984Z</time></trkpt><trkpt lat="44.88687" lon="9.377385"><ele>502.0</ele><time>2026-04-18T09:48:14.984Z</time></trkpt><trkpt lat="44.8868983" lon="9.3773033"><ele>502.0</ele><time>2026-04-18T09:48:16.984Z</time></trkpt><trkpt lat="44.88684" lon="9.377165"><ele>499.50000000000006</ele><time>2026-04-18T09:48:18.984Z</time></trkpt><trkpt lat="44.88682" lon="9.3770733"><ele>497.0</ele><time>2026-04-18T09:48:19.983Z</time></trkpt><trkpt lat="44.8868" lon="9.376975"><ele>494.5</ele><time>2026-04-18T09:48:20.985Z</time></trkpt><trkpt lat="44.8867817" lon="9.3768767"><ele>492.0</ele><time>2026-04-18T09:48:21.984Z</time></trkpt><trkpt lat="44.8867817" lon="9.3767033"><ele>489.50000000000006</ele><time>2026-04-18T09:48:23.985Z</time></trkpt><trkpt lat="44.8868033" lon="9.3766167"><ele>487.0</ele><time>2026-04-18T09:48:24.983Z</time></trkpt><trkpt lat="44.8868917" lon="9.3764867"><ele>487.00000000000006</ele><time>2026-04-18T09:48:26.984Z</time></trkpt><trkpt lat="44.886955" lon="9.376445"><ele>487.0</ele><time>2026-04-18T09:48:27.986Z</time></trkpt><trkpt lat="44.887025" lon="9.37641"><ele>487.0</ele><time>2026-04-18T09:48:28.985Z</time></trkpt><trkpt lat="44.8871067" lon="9.376375"><ele>487.0</ele><time>2026-04-18T09:48:29.985Z</time></trkpt><trkpt lat="44.887195" lon="9.3763483"><ele>487.00000000000006</ele><time>2026-04-18T09:48:30.984Z</time></trkpt><trkpt lat="44.8872833" lon="9.37632"><ele>487.0</ele><time>2026-04-18T09:48:31.985Z</time></trkpt><trkpt lat="44.8873667" lon="9.3762967"><ele>484.6666666666667</ele><time>2026-04-18T09:48:32.984Z</time></trkpt><trkpt lat="44.8874483" lon="9.376265"><ele>482.33333333333337</ele><time>2026-04-18T09:48:33.984Z</time></trkpt><trkpt lat="44.8875217" lon="9.3762217"><ele>480.0</ele><time>2026-04-18T09:48:34.984Z</time></trkpt><trkpt lat="44.8875917" lon="9.3761767"><ele>477.66666666666663</ele><time>2026-04-18T09:48:35.984Z</time></trkpt><trkpt lat="44.88766" lon="9.3761317"><ele>475.3333333333333</ele><time>2026-04-18T09:48:36.984Z</time></trkpt><trkpt lat="44.8877283" lon="9.3761017"><ele>473.0</ele><time>2026-04-18T09:48:37.984Z</time></trkpt><trkpt lat="44.8877983" lon="9.3760817"><ele>472.99999999999994</ele><time>2026-04-18T09:48:38.983Z</time></trkpt><trkpt lat="44.8878817" lon="9.3760533"><ele>473.0</ele><time>2026-04-18T09:48:39.983Z</time></trkpt><trkpt lat="44.88797" lon="9.3760283"><ele>473.0</ele><time>2026-04-18T09:48:40.985Z</time></trkpt><trkpt lat="44.88806" lon="9.376"><ele>473.0</ele><time>2026-04-18T09:48:41.985Z</time></trkpt><trkpt lat="44.8881517" lon="9.375965"><ele>472.99999999999994</ele><time>2026-04-18T09:48:42.984Z</time></trkpt><trkpt lat="44.888235" lon="9.37594"><ele>473.0</ele><time>2026-04-18T09:48:43.984Z</time></trkpt><trkpt lat="44.8883183" lon="9.3759217"><ele>472.99999999999994</ele><time>2026-04-18T09:48:44.983Z</time></trkpt><trkpt lat="44.888395" lon="9.3759267"><ele>473.0</ele><time>2026-04-18T09:48:45.983Z</time></trkpt><trkpt lat="44.8884683" lon="9.3759417"><ele>473.0</ele><time>2026-04-18T09:48:46.984Z</time></trkpt><trkpt lat="44.8885417" lon="9.3759683"><ele>473.0</ele><time>2026-04-18T09:48:47.986Z</time></trkpt><trkpt lat="44.8886133" lon="9.375995"><ele>472.99999999999994</ele><time>2026-04-18T09:48:48.984Z</time></trkpt><trkpt lat="44.8886867" lon="9.3759917"><ele>473.0</ele><time>2026-04-18T09:48:49.983Z</time></trkpt><trkpt lat="44.88876" lon="9.3759317"><ele>472.16666666666663</ele><time>2026-04-18T09:48:50.984Z</time></trkpt><trkpt lat="44.88883" lon="9.3758783"><ele>471.3333333333333</ele><time>2026-04-18T09:48:51.983Z</time></trkpt><trkpt lat="44.8889017" lon="9.3758367"><ele>470.5</ele><time>2026-04-18T09:48:52.985Z</time></trkpt><trkpt lat="44.8889717" lon="9.3758117"><ele>469.66666666666663</ele><time>2026-04-18T09:48:53.984Z</time></trkpt><trkpt lat="44.889035" lon="9.3757983"><ele>468.8333333333333</ele><time>2026-04-18T09:48:54.984Z</time></trkpt><trkpt lat="44.889135" lon="9.3758117"><ele>468.0</ele><time>2026-04-18T09:48:56.984Z</time></trkpt><trkpt lat="44.88923" lon="9.3757683"><ele>467.79999999999995</ele><time>2026-04-18T09:48:58.983Z</time></trkpt><trkpt lat="44.8893117" lon="9.37562"><ele>467.59999999999997</ele><time>2026-04-18T09:49:00.984Z</time></trkpt><trkpt lat="44.8893433" lon="9.3755217"><ele>467.40000000000003</ele><time>2026-04-18T09:49:01.984Z</time></trkpt><trkpt lat="44.8893783" lon="9.3754167"><ele>467.20000000000005</ele><time>2026-04-18T09:49:02.984Z</time></trkpt><trkpt lat="44.8894317" lon="9.3753233"><ele>467.0</ele><time>2026-04-18T09:49:03.984Z</time></trkpt><trkpt lat="44.8895" lon="9.3752433"><ele>465.6</ele><time>2026-04-18T09:49:04.983Z</time></trkpt><trkpt lat="44.88958" lon="9.3751667"><ele>464.20000000000005</ele><time>2026-04-18T09:49:05.983Z</time></trkpt><trkpt lat="44.889665" lon="9.3751033"><ele>462.8</ele><time>2026-04-18T09:49:06.985Z</time></trkpt><trkpt lat="44.8897517" lon="9.3750533"><ele>461.4</ele><time>2026-04-18T09:49:07.984Z</time></trkpt><trkpt lat="44.88984" lon="9.3750067"><ele>460.0</ele><time>2026-04-18T09:49:08.984Z</time></trkpt><trkpt lat="44.8899217" lon="9.3749533"><ele>460.0</ele><time>2026-04-18T09:49:09.983Z</time></trkpt><trkpt lat="44.8899967" lon="9.3749017"><ele>460.0</ele><time>2026-04-18T09:49:10.983Z</time></trkpt><trkpt lat="44.8900717" lon="9.3748433"><ele>460.0</ele><time>2026-04-18T09:49:11.983Z</time></trkpt><trkpt lat="44.8901533" lon="9.3747783"><ele>460.0</ele><time>2026-04-18T09:49:12.984Z</time></trkpt><trkpt lat="44.8902383" lon="9.3747067"><ele>460.0</ele><time>2026-04-18T09:49:13.984Z</time></trkpt><trkpt lat="44.890315" lon="9.37463"><ele>462.1666666666667</ele><time>2026-04-18T09:49:14.984Z</time></trkpt><trkpt lat="44.8903883" lon="9.3745633"><ele>464.33333333333337</ele><time>2026-04-18T09:49:15.984Z</time></trkpt><trkpt lat="44.8904517" lon="9.3745"><ele>466.5</ele><time>2026-04-18T09:49:16.983Z</time></trkpt><trkpt lat="44.890515" lon="9.3744383"><ele>468.66666666666663</ele><time>2026-04-18T09:49:17.984Z</time></trkpt><trkpt lat="44.8905833" lon="9.3743733"><ele>470.8333333333333</ele><time>2026-04-18T09:49:18.985Z</time></trkpt><trkpt lat="44.89066" lon="9.3743"><ele>473.0</ele><time>2026-04-18T09:49:19.985Z</time></trkpt><trkpt lat="44.8907267" lon="9.3742117"><ele>473.0</ele><time>2026-04-18T09:49:20.985Z</time></trkpt><trkpt lat="44.890755" lon="9.3740967"><ele>472.99999999999994</ele><time>2026-04-18T09:49:21.984Z</time></trkpt><trkpt lat="44.8907583" lon="9.3739433"><ele>472.99999999999994</ele><time>2026-04-18T09:49:22.984Z</time></trkpt><trkpt lat="44.890735" lon="9.3737767"><ele>473.0</ele><time>2026-04-18T09:49:23.983Z</time></trkpt><trkpt lat="44.8907267" lon="9.37362"><ele>473.0</ele><time>2026-04-18T09:49:24.984Z</time></trkpt><trkpt lat="44.8907433" lon="9.3734817"><ele>473.2</ele><time>2026-04-18T09:49:25.983Z</time></trkpt><trkpt lat="44.8907767" lon="9.3733583"><ele>473.4</ele><time>2026-04-18T09:49:26.984Z</time></trkpt><trkpt lat="44.8908217" lon="9.373245"><ele>473.59999999999997</ele><time>2026-04-18T09:49:27.984Z</time></trkpt><trkpt lat="44.890875" lon="9.3731383"><ele>473.79999999999995</ele><time>2026-04-18T09:49:28.984Z</time></trkpt><trkpt lat="44.89093" lon="9.3730317"><ele>474.0</ele><time>2026-04-18T09:49:29.983Z</time></trkpt><trkpt lat="44.8909833" lon="9.37293"><ele>474.5</ele><time>2026-04-18T09:49:30.984Z</time></trkpt><trkpt lat="44.8910317" lon="9.3728333"><ele>475.0</ele><time>2026-04-18T09:49:31.984Z</time></trkpt><trkpt lat="44.8910633" lon="9.3727417"><ele>475.5</ele><time>2026-04-18T09:49:32.984Z</time></trkpt><trkpt lat="44.8910917" lon="9.37266"><ele>476.0</ele><time>2026-04-18T09:49:33.983Z</time></trkpt><trkpt lat="44.89116" lon="9.3725283"><ele>476.5</ele><time>2026-04-18T09:49:35.983Z</time></trkpt><trkpt lat="44.8912367" lon="9.3724367"><ele>477.0</ele><time>2026-04-18T09:49:37.985Z</time></trkpt><trkpt lat="44.8913383" lon="9.372365"><ele>477.0</ele><time>2026-04-18T09:49:39.983Z</time></trkpt><trkpt lat="44.8914517" lon="9.372325"><ele>477.00000000000006</ele><time>2026-04-18T09:49:41.984Z</time></trkpt><trkpt lat="44.8915683" lon="9.37229"><ele>477.00000000000006</ele><time>2026-04-18T09:49:43.984Z</time></trkpt><trkpt lat="44.8916783" lon="9.372225"><ele>477.0</ele><time>2026-04-18T09:49:45.984Z</time></trkpt><trkpt lat="44.8917383" lon="9.3721867"><ele>477.0</ele><time>2026-04-18T09:49:46.984Z</time></trkpt><trkpt lat="44.891805" lon="9.3721417"><ele>474.0</ele><time>2026-04-18T09:49:47.985Z</time></trkpt><trkpt lat="44.8918783" lon="9.3721"><ele>471.0</ele><time>2026-04-18T09:49:48.983Z</time></trkpt><trkpt lat="44.8919567" lon="9.3720667"><ele>468.0</ele><time>2026-04-18T09:49:49.984Z</time></trkpt><trkpt lat="44.8920367" lon="9.3720533"><ele>465.0</ele><time>2026-04-18T09:49:50.985Z</time></trkpt><trkpt lat="44.8921167" lon="9.3720483"><ele>462.0</ele><time>2026-04-18T09:49:51.983Z</time></trkpt><trkpt lat="44.8921967" lon="9.3720417"><ele>459.0</ele><time>2026-04-18T09:49:52.983Z</time></trkpt><trkpt lat="44.8922733" lon="9.3720333"><ele>459.0</ele><time>2026-04-18T09:49:53.983Z</time></trkpt><trkpt lat="44.8923417" lon="9.3720233"><ele>459.0</ele><time>2026-04-18T09:49:54.984Z</time></trkpt><trkpt lat="44.8924183" lon="9.371995"><ele>459.0</ele><time>2026-04-18T09:49:55.985Z</time></trkpt><trkpt lat="44.8924967" lon="9.3719433"><ele>459.0</ele><time>2026-04-18T09:49:56.984Z</time></trkpt><trkpt lat="44.892575" lon="9.37189"><ele>459.0</ele><time>2026-04-18T09:49:57.983Z</time></trkpt><trkpt lat="44.8926467" lon="9.37185"><ele>459.0</ele><time>2026-04-18T09:49:58.983Z</time></trkpt><trkpt lat="44.8927233" lon="9.371825"><ele>458.8333333333333</ele><time>2026-04-18T09:49:59.983Z</time></trkpt><trkpt lat="44.892815" lon="9.3718167"><ele>458.66666666666663</ele><time>2026-04-18T09:50:00.984Z</time></trkpt><trkpt lat="44.8929083" lon="9.3718083"><ele>458.5</ele><time>2026-04-18T09:50:01.983Z</time></trkpt><trkpt lat="44.8929967" lon="9.3717867"><ele>458.3333333333333</ele><time>2026-04-18T09:50:02.985Z</time></trkpt><trkpt lat="44.8930783" lon="9.37176"><ele>458.16666666666663</ele><time>2026-04-18T09:50:03.985Z</time></trkpt><trkpt lat="44.89316" lon="9.3717433"><ele>458.0</ele><time>2026-04-18T09:50:04.984Z</time></trkpt><trkpt lat="44.8932483" lon="9.371745"><ele>457.99999999999994</ele><time>2026-04-18T09:50:05.984Z</time></trkpt><trkpt lat="44.8933483" lon="9.371755"><ele>458.0</ele><time>2026-04-18T09:50:06.985Z</time></trkpt><trkpt lat="44.8934433" lon="9.3717633"><ele>458.0</ele><time>2026-04-18T09:50:07.983Z</time></trkpt><trkpt lat="44.89353" lon="9.3717733"><ele>458.0</ele><time>2026-04-18T09:50:08.984Z</time></trkpt><trkpt lat="44.893605" lon="9.3717717"><ele>457.99999999999994</ele><time>2026-04-18T09:50:09.983Z</time></trkpt><trkpt lat="44.8936633" lon="9.3717283"><ele>458.0</ele><time>2026-04-18T09:50:10.984Z</time></trkpt><trkpt lat="44.89372" lon="9.3716533"><ele>457.99999999999994</ele><time>2026-04-18T09:50:11.983Z</time></trkpt><trkpt lat="44.8937733" lon="9.3715567"><ele>458.0</ele><time>2026-04-18T09:50:12.983Z</time></trkpt><trkpt lat="44.8938317" lon="9.3714567"><ele>458.0</ele><time>2026-04-18T09:50:13.983Z</time></trkpt><trkpt lat="44.893885" lon="9.3713667"><ele>458.0</ele><time>2026-04-18T09:50:14.984Z</time></trkpt><trkpt lat="44.8939367" lon="9.3712883"><ele>457.99999999999994</ele><time>2026-04-18T09:50:15.985Z</time></trkpt><trkpt lat="44.8939867" lon="9.37122"><ele>458.0</ele><time>2026-04-18T09:50:16.983Z</time></trkpt><trkpt lat="44.894025" lon="9.37114"><ele>455.99999999999994</ele><time>2026-04-18T09:50:17.983Z</time></trkpt><trkpt lat="44.8940567" lon="9.3710433"><ele>454.0</ele><time>2026-04-18T09:50:18.984Z</time></trkpt><trkpt lat="44.89409" lon="9.3709483"><ele>452.0</ele><time>2026-04-18T09:50:19.984Z</time></trkpt><trkpt lat="44.894115" lon="9.3708533"><ele>450.0</ele><time>2026-04-18T09:50:20.985Z</time></trkpt><trkpt lat="44.89414" lon="9.37076"><ele>447.99999999999994</ele><time>2026-04-18T09:50:21.984Z</time></trkpt><trkpt lat="44.8941567" lon="9.3706717"><ele>446.0</ele><time>2026-04-18T09:50:22.985Z</time></trkpt><trkpt lat="44.894175" lon="9.3705067"><ele>444.4</ele><time>2026-04-18T09:50:24.984Z</time></trkpt><trkpt lat="44.8942167" lon="9.3703567"><ele>442.8</ele><time>2026-04-18T09:50:26.983Z</time></trkpt><trkpt lat="44.8942883" lon="9.3702217"><ele>441.19999999999993</ele><time>2026-04-18T09:50:28.984Z</time></trkpt><trkpt lat="44.8943583" lon="9.370095"><ele>439.59999999999997</ele><time>2026-04-18T09:50:30.984Z</time></trkpt><trkpt lat="44.8943967" lon="9.3700233"><ele>438.0</ele><time>2026-04-18T09:50:31.984Z</time></trkpt><trkpt lat="44.8944767" lon="9.3698917"><ele>438.0</ele><time>2026-04-18T09:50:33.983Z</time></trkpt><trkpt lat="44.8945367" lon="9.369845"><ele>438.0</ele><time>2026-04-18T09:50:34.984Z</time></trkpt><trkpt lat="44.8946117" lon="9.3697917"><ele>438.0</ele><time>2026-04-18T09:50:35.983Z</time></trkpt><trkpt lat="44.8946933" lon="9.3697367"><ele>438.0</ele><time>2026-04-18T09:50:36.983Z</time></trkpt><trkpt lat="44.894775" lon="9.36968"><ele>438.0</ele><time>2026-04-18T09:50:37.984Z</time></trkpt><trkpt lat="44.8948583" lon="9.3696133"><ele>438.0</ele><time>2026-04-18T09:50:38.985Z</time></trkpt><trkpt lat="44.8949367" lon="9.3695267"><ele>436.4</ele><time>2026-04-18T09:50:39.983Z</time></trkpt><trkpt lat="44.8950017" lon="9.3694267"><ele>434.79999999999995</ele><time>2026-04-18T09:50:40.984Z</time></trkpt><trkpt lat="44.89506" lon="9.3693233"><ele>433.2</ele><time>2026-04-18T09:50:41.984Z</time></trkpt><trkpt lat="44.8951117" lon="9.3692317"><ele>431.6</ele><time>2026-04-18T09:50:42.984Z</time></trkpt><trkpt lat="44.8951817" lon="9.3691117"><ele>430.0</ele><time>2026-04-18T09:50:44.984Z</time></trkpt><trkpt lat="44.895215" lon="9.3689867"><ele>430.8</ele><time>2026-04-18T09:50:46.984Z</time></trkpt><trkpt lat="44.89519" lon="9.3688017"><ele>431.6</ele><time>2026-04-18T09:50:48.982Z</time></trkpt><trkpt lat="44.895165" lon="9.3686917"><ele>432.4</ele><time>2026-04-18T09:50:49.982Z</time></trkpt><trkpt lat="44.8951517" lon="9.3685817"><ele>433.2</ele><time>2026-04-18T09:50:50.982Z</time></trkpt><trkpt lat="44.89515" lon="9.3684817"><ele>434.0</ele><time>2026-04-18T09:50:51.982Z</time></trkpt><trkpt lat="44.8951817" lon="9.3683183"><ele>433.99999999999994</ele><time>2026-04-18T09:50:53.983Z</time></trkpt><trkpt lat="44.8952183" lon="9.368245"><ele>434.0</ele><time>2026-04-18T09:50:54.983Z</time></trkpt><trkpt lat="44.8952633" lon="9.3681783"><ele>434.0</ele><time>2026-04-18T09:50:55.983Z</time></trkpt><trkpt lat="44.89534" lon="9.3680633"><ele>434.0</ele><time>2026-04-18T09:50:57.983Z</time></trkpt><trkpt lat="44.8953733" lon="9.3679583"><ele>433.99999999999994</ele><time>2026-04-18T09:50:59.982Z</time></trkpt><trkpt lat="44.895345" lon="9.3678683"><ele>434.0</ele><time>2026-04-18T09:51:01.983Z</time></trkpt><trkpt lat="44.895285" lon="9.367835"><ele>433.2</ele><time>2026-04-18T09:51:03.983Z</time></trkpt><trkpt lat="44.8951867" lon="9.3678783"><ele>432.4</ele><time>2026-04-18T09:51:05.983Z</time></trkpt><trkpt lat="44.895075" lon="9.367925"><ele>431.6</ele><time>2026-04-18T09:51:07.983Z</time></trkpt><trkpt lat="44.8950067" lon="9.3679317"><ele>430.8</ele><time>2026-04-18T09:51:08.982Z</time></trkpt><trkpt lat="44.8948767" lon="9.367905"><ele>430.0</ele><time>2026-04-18T09:51:10.983Z</time></trkpt><trkpt lat="44.8948067" lon="9.36787"><ele>427.1666666666667</ele><time>2026-04-18T09:51:11.982Z</time></trkpt><trkpt lat="44.89474" lon="9.3678233"><ele>424.33333333333337</ele><time>2026-04-18T09:51:12.983Z</time></trkpt><trkpt lat="44.894675" lon="9.3677733"><ele>421.5</ele><time>2026-04-18T09:51:13.982Z</time></trkpt><trkpt lat="44.8946183" lon="9.3677217"><ele>418.66666666666663</ele><time>2026-04-18T09:51:14.983Z</time></trkpt><trkpt lat="44.8945233" lon="9.3676033"><ele>415.8333333333333</ele><time>2026-04-18T09:51:16.982Z</time></trkpt><trkpt lat="44.8944783" lon="9.367535"><ele>413.0</ele><time>2026-04-18T09:51:17.982Z</time></trkpt><trkpt lat="44.8944317" lon="9.367455"><ele>413.0</ele><time>2026-04-18T09:51:18.983Z</time></trkpt><trkpt lat="44.8943817" lon="9.3673733"><ele>413.0</ele><time>2026-04-18T09:51:19.984Z</time></trkpt><trkpt lat="44.89433" lon="9.3672933"><ele>413.0</ele><time>2026-04-18T09:51:20.984Z</time></trkpt><trkpt lat="44.8942817" lon="9.367215"><ele>413.0</ele><time>2026-04-18T09:51:21.984Z</time></trkpt><trkpt lat="44.8942317" lon="9.3671383"><ele>413.0</ele><time>2026-04-18T09:51:22.982Z</time></trkpt><trkpt lat="44.8941817" lon="9.3670667"><ele>413.0</ele><time>2026-04-18T09:51:23.983Z</time></trkpt><trkpt lat="44.8941317" lon="9.36699"><ele>413.0</ele><time>2026-04-18T09:51:24.982Z</time></trkpt><trkpt lat="44.89408" lon="9.36691"><ele>409.49999999999994</ele><time>2026-04-18T09:51:25.985Z</time></trkpt><trkpt lat="44.8940267" lon="9.3668317"><ele>406.0</ele><time>2026-04-18T09:51:26.985Z</time></trkpt><trkpt lat="44.893965" lon="9.3667583"><ele>402.5</ele><time>2026-04-18T09:51:27.983Z</time></trkpt><trkpt lat="44.8939017" lon="9.3666917"><ele>399.0</ele><time>2026-04-18T09:51:28.983Z</time></trkpt><trkpt lat="44.89384" lon="9.36663"><ele>395.49999999999994</ele><time>2026-04-18T09:51:29.982Z</time></trkpt><trkpt lat="44.8937867" lon="9.366565"><ele>392.0</ele><time>2026-04-18T09:51:30.983Z</time></trkpt><trkpt lat="44.8937333" lon="9.3665017"><ele>391.99999999999994</ele><time>2026-04-18T09:51:31.982Z</time></trkpt><trkpt lat="44.893685" lon="9.3664333"><ele>392.0</ele><time>2026-04-18T09:51:32.982Z</time></trkpt><trkpt lat="44.8936367" lon="9.3663567"><ele>392.0</ele><time>2026-04-18T09:51:33.983Z</time></trkpt><trkpt lat="44.8935867" lon="9.36627"><ele>392.0</ele><time>2026-04-18T09:51:34.982Z</time></trkpt><trkpt lat="44.893535" lon="9.3661733"><ele>391.99999999999994</ele><time>2026-04-18T09:51:35.982Z</time></trkpt><trkpt lat="44.8934867" lon="9.3660683"><ele>392.0</ele><time>2026-04-18T09:51:36.983Z</time></trkpt><trkpt lat="44.893445" lon="9.365955"><ele>389.16666666666663</ele><time>2026-04-18T09:51:37.983Z</time></trkpt><trkpt lat="44.8934083" lon="9.3658383"><ele>386.3333333333333</ele><time>2026-04-18T09:51:38.982Z</time></trkpt><trkpt lat="44.8933783" lon="9.3657267"><ele>383.5</ele><time>2026-04-18T09:51:39.983Z</time></trkpt><trkpt lat="44.8933533" lon="9.36563"><ele>380.66666666666663</ele><time>2026-04-18T09:51:40.983Z</time></trkpt><trkpt lat="44.8933217" lon="9.3655417"><ele>377.8333333333333</ele><time>2026-04-18T09:51:41.983Z</time></trkpt><trkpt lat="44.8932383" lon="9.3654167"><ele>375.0</ele><time>2026-04-18T09:51:43.983Z</time></trkpt><trkpt lat="44.8931833" lon="9.3653683"><ele>375.0</ele><time>2026-04-18T09:51:44.982Z</time></trkpt><trkpt lat="44.8931283" lon="9.3653167"><ele>375.0</ele><time>2026-04-18T09:51:45.985Z</time></trkpt><trkpt lat="44.8930733" lon="9.3652733"><ele>375.0</ele><time>2026-04-18T09:51:46.984Z</time></trkpt><trkpt lat="44.8929833" lon="9.36523"><ele>375.0</ele><time>2026-04-18T09:51:48.982Z</time></trkpt><trkpt lat="44.89291" lon="9.3652833"><ele>375.0</ele><time>2026-04-18T09:51:50.984Z</time></trkpt><trkpt lat="44.8928783" lon="9.3654417"><ele>375.0</ele><time>2026-04-18T09:51:52.982Z</time></trkpt><trkpt lat="44.8928717" lon="9.36554"><ele>375.0</ele><time>2026-04-18T09:51:53.983Z</time></trkpt><trkpt lat="44.8928633" lon="9.3656367"><ele>375.0</ele><time>2026-04-18T09:51:54.983Z</time></trkpt><trkpt lat="44.8928533" lon="9.3657317"><ele>375.0</ele><time>2026-04-18T09:51:55.983Z</time></trkpt><trkpt lat="44.8928217" lon="9.365875"><ele>375.0</ele><time>2026-04-18T09:51:57.982Z</time></trkpt><trkpt lat="44.892765" lon="9.3659217"><ele>375.0</ele><time>2026-04-18T09:51:59.983Z</time></trkpt><trkpt lat="44.8927133" lon="9.365845"><ele>375.0</ele><time>2026-04-18T09:52:01.983Z</time></trkpt><trkpt lat="44.8927033" lon="9.3656667"><ele>375.0</ele><time>2026-04-18T09:52:03.983Z</time></trkpt><trkpt lat="44.892705" lon="9.3655533"><ele>375.0</ele><time>2026-04-18T09:52:04.982Z</time></trkpt><trkpt lat="44.8927083" lon="9.3654183"><ele>375.0</ele><time>2026-04-18T09:52:05.983Z</time></trkpt><trkpt lat="44.89271" lon="9.36527"><ele>375.0</ele><time>2026-04-18T09:52:06.985Z</time></trkpt><trkpt lat="44.8927183" lon="9.3651083"><ele>375.0</ele><time>2026-04-18T09:52:07.984Z</time></trkpt><trkpt lat="44.8927317" lon="9.36495"><ele>374.0</ele><time>2026-04-18T09:52:08.983Z</time></trkpt><trkpt lat="44.892755" lon="9.3648067"><ele>373.0</ele><time>2026-04-18T09:52:09.982Z</time></trkpt><trkpt lat="44.89279" lon="9.364675"><ele>372.0</ele><time>2026-04-18T09:52:10.984Z</time></trkpt><trkpt lat="44.8928333" lon="9.3645367"><ele>371.0</ele><time>2026-04-18T09:52:11.983Z</time></trkpt><trkpt lat="44.8928833" lon="9.3643883"><ele>370.0</ele><time>2026-04-18T09:52:12.983Z</time></trkpt><trkpt lat="44.89293" lon="9.364235"><ele>368.6</ele><time>2026-04-18T09:52:13.982Z</time></trkpt><trkpt lat="44.8929783" lon="9.3640917"><ele>367.2</ele><time>2026-04-18T09:52:14.985Z</time></trkpt><trkpt lat="44.89302" lon="9.3639583"><ele>365.79999999999995</ele><time>2026-04-18T09:52:15.982Z</time></trkpt><trkpt lat="44.8930633" lon="9.3638333"><ele>364.4</ele><time>2026-04-18T09:52:16.985Z</time></trkpt><trkpt lat="44.893105" lon="9.3637183"><ele>363.0</ele><time>2026-04-18T09:52:17.983Z</time></trkpt><trkpt lat="44.8931467" lon="9.3636033"><ele>362.79999999999995</ele><time>2026-04-18T09:52:18.982Z</time></trkpt><trkpt lat="44.893195" lon="9.3634883"><ele>362.6</ele><time>2026-04-18T09:52:19.983Z</time></trkpt><trkpt lat="44.8932517" lon="9.36337"><ele>362.4</ele><time>2026-04-18T09:52:20.983Z</time></trkpt><trkpt lat="44.89332" lon="9.36325"><ele>362.20000000000005</ele><time>2026-04-18T09:52:21.983Z</time></trkpt><trkpt lat="44.893395" lon="9.3631267"><ele>362.0</ele><time>2026-04-18T09:52:22.983Z</time></trkpt><trkpt lat="44.8934817" lon="9.362995"><ele>362.0</ele><time>2026-04-18T09:52:23.983Z</time></trkpt><trkpt lat="44.8935717" lon="9.3628633"><ele>362.0</ele><time>2026-04-18T09:52:24.983Z</time></trkpt><trkpt lat="44.8936717" lon="9.3627383"><ele>362.0</ele><time>2026-04-18T09:52:25.986Z</time></trkpt><trkpt lat="44.8937783" lon="9.3626233"><ele>362.0</ele><time>2026-04-18T09:52:26.983Z</time></trkpt><trkpt lat="44.89389" lon="9.36252"><ele>362.0</ele><time>2026-04-18T09:52:27.983Z</time></trkpt><trkpt lat="44.8939983" lon="9.36242"><ele>362.0</ele><time>2026-04-18T09:52:28.983Z</time></trkpt><trkpt lat="44.8940983" lon="9.3623267"><ele>362.0</ele><time>2026-04-18T09:52:29.982Z</time></trkpt><trkpt lat="44.8941933" lon="9.36224"><ele>362.0</ele><time>2026-04-18T09:52:30.984Z</time></trkpt><trkpt lat="44.8942833" lon="9.3621517"><ele>362.25</ele><time>2026-04-18T09:52:31.983Z</time></trkpt><trkpt lat="44.8943617" lon="9.3620483"><ele>362.5</ele><time>2026-04-18T09:52:32.984Z</time></trkpt><trkpt lat="44.8944317" lon="9.361935"><ele>362.75</ele><time>2026-04-18T09:52:33.983Z</time></trkpt><trkpt lat="44.8944833" lon="9.3617917"><ele>363.0</ele><time>2026-04-18T09:52:34.983Z</time></trkpt><trkpt lat="44.8945233" lon="9.3616267"><ele>363.0</ele><time>2026-04-18T09:52:35.982Z</time></trkpt><trkpt lat="44.89455" lon="9.361445"><ele>363.0</ele><time>2026-04-18T09:52:36.983Z</time></trkpt><trkpt lat="44.8945733" lon="9.3612583"><ele>363.0</ele><time>2026-04-18T09:52:37.984Z</time></trkpt><trkpt lat="44.8946" lon="9.36108"><ele>363.0</ele><time>2026-04-18T09:52:38.982Z</time></trkpt><trkpt lat="44.89464" lon="9.360915"><ele>361.0</ele><time>2026-04-18T09:52:39.983Z</time></trkpt><trkpt lat="44.8947" lon="9.3607667"><ele>359.0</ele><time>2026-04-18T09:52:40.982Z</time></trkpt><trkpt lat="44.894775" lon="9.3606317"><ele>357.0</ele><time>2026-04-18T09:52:41.983Z</time></trkpt><trkpt lat="44.8948617" lon="9.3605"><ele>355.0</ele><time>2026-04-18T09:52:42.984Z</time></trkpt><trkpt lat="44.8949583" lon="9.3603783"><ele>356.25</ele><time>2026-04-18T09:52:43.983Z</time></trkpt><trkpt lat="44.895065" lon="9.3602733"><ele>357.5</ele><time>2026-04-18T09:52:44.983Z</time></trkpt><trkpt lat="44.895175" lon="9.3601817"><ele>358.75</ele><time>2026-04-18T09:52:45.983Z</time></trkpt><trkpt lat="44.8952817" lon="9.3601033"><ele>360.0</ele><time>2026-04-18T09:52:46.983Z</time></trkpt><trkpt lat="44.89538" lon="9.3600217"><ele>360.0</ele><time>2026-04-18T09:52:47.983Z</time></trkpt><trkpt lat="44.8954717" lon="9.359935"><ele>360.0</ele><time>2026-04-18T09:52:48.983Z</time></trkpt><trkpt lat="44.8955467" lon="9.359835"><ele>360.0</ele><time>2026-04-18T09:52:49.983Z</time></trkpt><trkpt lat="44.8956017" lon="9.359725"><ele>360.0</ele><time>2026-04-18T09:52:50.982Z</time></trkpt><trkpt lat="44.8956417" lon="9.3596067"><ele>360.0</ele><time>2026-04-18T09:52:51.984Z</time></trkpt><trkpt lat="44.8956617" lon="9.3594783"><ele>356.75</ele><time>2026-04-18T09:52:52.984Z</time></trkpt><trkpt lat="44.895665" lon="9.3593333"><ele>353.5</ele><time>2026-04-18T09:52:53.982Z</time></trkpt><trkpt lat="44.8956533" lon="9.3591767"><ele>350.25</ele><time>2026-04-18T09:52:54.984Z</time></trkpt><trkpt lat="44.8956383" lon="9.359005"><ele>347.0</ele><time>2026-04-18T09:52:55.984Z</time></trkpt><trkpt lat="44.8956317" lon="9.35883"><ele>344.5</ele><time>2026-04-18T09:52:56.982Z</time></trkpt><trkpt lat="44.8956433" lon="9.35866"><ele>342.0</ele><time>2026-04-18T09:52:57.982Z</time></trkpt><trkpt lat="44.895685" lon="9.358515"><ele>339.5</ele><time>2026-04-18T09:52:58.983Z</time></trkpt><trkpt lat="44.8957517" lon="9.3583917"><ele>337.0</ele><time>2026-04-18T09:52:59.982Z</time></trkpt><trkpt lat="44.895845" lon="9.358285"><ele>340.5</ele><time>2026-04-18T09:53:00.983Z</time></trkpt><trkpt lat="44.895945" lon="9.3581867"><ele>344.0</ele><time>2026-04-18T09:53:01.983Z</time></trkpt><trkpt lat="44.8960467" lon="9.35808"><ele>347.5</ele><time>2026-04-18T09:53:02.982Z</time></trkpt><trkpt lat="44.89613" lon="9.35796"><ele>351.0</ele><time>2026-04-18T09:53:03.983Z</time></trkpt><trkpt lat="44.896195" lon="9.35781"><ele>351.0</ele><time>2026-04-18T09:53:04.982Z</time></trkpt><trkpt lat="44.896245" lon="9.357635"><ele>351.0</ele><time>2026-04-18T09:53:05.983Z</time></trkpt><trkpt lat="44.8962717" lon="9.3574417"><ele>351.0</ele><time>2026-04-18T09:53:06.983Z</time></trkpt><trkpt lat="44.896295" lon="9.357245"><ele>351.0</ele><time>2026-04-18T09:53:07.984Z</time></trkpt><trkpt lat="44.8963233" lon="9.357055"><ele>348.75</ele><time>2026-04-18T09:53:08.985Z</time></trkpt><trkpt lat="44.8963583" lon="9.3568733"><ele>346.5</ele><time>2026-04-18T09:53:09.984Z</time></trkpt><trkpt lat="44.8964083" lon="9.3567017"><ele>344.25</ele><time>2026-04-18T09:53:10.983Z</time></trkpt><trkpt lat="44.8964717" lon="9.3565267"><ele>342.0</ele><time>2026-04-18T09:53:11.984Z</time></trkpt><trkpt lat="44.89654" lon="9.3563483"><ele>338.3333333333333</ele><time>2026-04-18T09:53:12.984Z</time></trkpt><trkpt lat="44.8966067" lon="9.3561617"><ele>334.66666666666663</ele><time>2026-04-18T09:53:13.982Z</time></trkpt><trkpt lat="44.8966667" lon="9.355965"><ele>331.0</ele><time>2026-04-18T09:53:14.984Z</time></trkpt><trkpt lat="44.8967167" lon="9.355765"><ele>334.75</ele><time>2026-04-18T09:53:15.984Z</time></trkpt><trkpt lat="44.89676" lon="9.3555683"><ele>338.5</ele><time>2026-04-18T09:53:16.983Z</time></trkpt><trkpt lat="44.8968" lon="9.3553783"><ele>342.25</ele><time>2026-04-18T09:53:17.984Z</time></trkpt><trkpt lat="44.89683" lon="9.355195"><ele>346.0</ele><time>2026-04-18T09:53:18.983Z</time></trkpt><trkpt lat="44.89684" lon="9.3550167"><ele>346.0</ele><time>2026-04-18T09:53:19.984Z</time></trkpt><trkpt lat="44.89683" lon="9.354845"><ele>346.0</ele><time>2026-04-18T09:53:20.982Z</time></trkpt><trkpt lat="44.8967983" lon="9.35469"><ele>346.0</ele><time>2026-04-18T09:53:21.982Z</time></trkpt><trkpt lat="44.8967583" lon="9.3545467"><ele>346.0</ele><time>2026-04-18T09:53:22.984Z</time></trkpt><trkpt lat="44.8967133" lon="9.3544133"><ele>340.0</ele><time>2026-04-18T09:53:23.984Z</time></trkpt><trkpt lat="44.8966733" lon="9.35429"><ele>334.0</ele><time>2026-04-18T09:53:24.984Z</time></trkpt><trkpt lat="44.8966383" lon="9.35416"><ele>328.0</ele><time>2026-04-18T09:53:25.982Z</time></trkpt><trkpt lat="44.8965983" lon="9.35402"><ele>322.0</ele><time>2026-04-18T09:53:26.984Z</time></trkpt><trkpt lat="44.8965633" lon="9.3538733"><ele>316.0</ele><time>2026-04-18T09:53:27.984Z</time></trkpt><trkpt lat="44.8965417" lon="9.3537217"><ele>316.0</ele><time>2026-04-18T09:53:28.982Z</time></trkpt><trkpt lat="44.8965433" lon="9.353555"><ele>316.0</ele><time>2026-04-18T09:53:29.982Z</time></trkpt><trkpt lat="44.896565" lon="9.3533817"><ele>316.0</ele><time>2026-04-18T09:53:30.983Z</time></trkpt><trkpt lat="44.8965967" lon="9.3531917"><ele>316.0</ele><time>2026-04-18T09:53:31.982Z</time></trkpt><trkpt lat="44.89663" lon="9.352995"><ele>315.5</ele><time>2026-04-18T09:53:32.982Z</time></trkpt><trkpt lat="44.8966633" lon="9.3528033"><ele>315.0</ele><time>2026-04-18T09:53:33.984Z</time></trkpt><trkpt lat="44.8966917" lon="9.352625"><ele>314.5</ele><time>2026-04-18T09:53:34.983Z</time></trkpt><trkpt lat="44.8967183" lon="9.3524517"><ele>314.0</ele><time>2026-04-18T09:53:35.983Z</time></trkpt><trkpt lat="44.8967517" lon="9.3522667"><ele>316.75</ele><time>2026-04-18T09:53:36.983Z</time></trkpt><trkpt lat="44.896795" lon="9.3520683"><ele>319.5</ele><time>2026-04-18T09:53:37.983Z</time></trkpt><trkpt lat="44.8968467" lon="9.3518833"><ele>322.25</ele><time>2026-04-18T09:53:38.983Z</time></trkpt><trkpt lat="44.8968983" lon="9.3517333"><ele>325.0</ele><time>2026-04-18T09:53:39.983Z</time></trkpt><trkpt lat="44.8969417" lon="9.3516183"><ele>325.0</ele><time>2026-04-18T09:53:40.982Z</time></trkpt><trkpt lat="44.8969717" lon="9.3515283"><ele>325.0</ele><time>2026-04-18T09:53:41.984Z</time></trkpt><trkpt lat="44.896965" lon="9.351415"><ele>325.0</ele><time>2026-04-18T09:53:43.982Z</time></trkpt><trkpt lat="44.8969733" lon="9.3512767"><ele>325.0</ele><time>2026-04-18T09:54:19.983Z</time></trkpt><trkpt lat="44.8970117" lon="9.3511067"><ele>325.0</ele><time>2026-04-18T09:54:21.984Z</time></trkpt><trkpt lat="44.8970367" lon="9.3509817"><ele>323.2</ele><time>2026-04-18T09:54:22.983Z</time></trkpt><trkpt lat="44.89706" lon="9.35085"><ele>321.4</ele><time>2026-04-18T09:54:23.983Z</time></trkpt><trkpt lat="44.89708" lon="9.35072"><ele>319.6</ele><time>2026-04-18T09:54:24.984Z</time></trkpt><trkpt lat="44.8971" lon="9.3505867"><ele>317.8</ele><time>2026-04-18T09:54:25.984Z</time></trkpt><trkpt lat="44.8971283" lon="9.3504583"><ele>316.0</ele><time>2026-04-18T09:54:26.984Z</time></trkpt><trkpt lat="44.8971683" lon="9.35034"><ele>316.66666666666663</ele><time>2026-04-18T09:54:27.982Z</time></trkpt><trkpt lat="44.8972167" lon="9.3502433"><ele>317.3333333333333</ele><time>2026-04-18T09:54:28.984Z</time></trkpt><trkpt lat="44.8972717" lon="9.3501783"><ele>318.0</ele><time>2026-04-18T09:54:29.982Z</time></trkpt><trkpt lat="44.8973283" lon="9.35013"><ele>318.6666666666667</ele><time>2026-04-18T09:54:30.984Z</time></trkpt><trkpt lat="44.89739" lon="9.3501"><ele>319.33333333333337</ele><time>2026-04-18T09:54:31.985Z</time></trkpt><trkpt lat="44.8975083" lon="9.3500833"><ele>320.0</ele><time>2026-04-18T09:54:33.983Z</time></trkpt><trkpt lat="44.8976067" lon="9.3501083"><ele>320.0</ele><time>2026-04-18T09:54:35.983Z</time></trkpt><trkpt lat="44.897715" lon="9.3501367"><ele>320.0</ele><time>2026-04-18T09:54:37.984Z</time></trkpt><trkpt lat="44.8977967" lon="9.3502133"><ele>320.0</ele><time>2026-04-18T09:54:39.982Z</time></trkpt><trkpt lat="44.8978329" lon="9.3502943"><ele>320.0</ele><time>2026-04-18T09:54:41.985Z</time></trkpt><trkpt lat="44.8978383" lon="9.3504091"><ele>320.0</ele><time>2026-04-18T09:54:43.983Z</time></trkpt><trkpt lat="44.8978325" lon="9.3505471"><ele>322.6</ele><time>2026-04-18T09:54:45.983Z</time></trkpt><trkpt lat="44.8978292" lon="9.3506615"><ele>325.2</ele><time>2026-04-18T09:54:47.982Z</time></trkpt><trkpt lat="44.8978576" lon="9.3507921"><ele>327.79999999999995</ele><time>2026-04-18T09:54:51.056Z</time></trkpt><trkpt lat="44.8979424" lon="9.3508624"><ele>330.4</ele><time>2026-04-18T09:54:53.051Z</time></trkpt><trkpt lat="44.8980055" lon="9.3509747"><ele>333.0</ele><time>2026-04-18T09:54:55.027Z</time></trkpt><trkpt lat="44.8980631" lon="9.3510649"><ele>333.0</ele><time>2026-04-18T09:54:57.004Z</time></trkpt><trkpt lat="44.8980902" lon="9.3511611"><ele>333.0</ele><time>2026-04-18T09:54:59.017Z</time></trkpt><trkpt lat="44.8981149" lon="9.3512889"><ele>333.0</ele><time>2026-04-18T09:55:01.059Z</time></trkpt><trkpt lat="44.8981631" lon="9.3514496"><ele>333.0</ele><time>2026-04-18T09:55:03.036Z</time></trkpt><trkpt lat="44.8982275" lon="9.3516008"><ele>333.0</ele><time>2026-04-18T09:55:05.057Z</time></trkpt><trkpt lat="44.8982488" lon="9.3517125"><ele>334.0</ele><time>2026-04-18T09:55:06.983Z</time></trkpt><trkpt lat="44.8982644" lon="9.351836"><ele>335.0</ele><time>2026-04-18T09:55:08.983Z</time></trkpt><trkpt lat="44.8982737" lon="9.3519513"><ele>336.0</ele><time>2026-04-18T09:55:10.984Z</time></trkpt><trkpt lat="44.8982871" lon="9.3520618"><ele>337.0</ele><time>2026-04-18T09:55:12.983Z</time></trkpt><trkpt lat="44.8983071" lon="9.352153"><ele>338.0</ele><time>2026-04-18T09:55:14.984Z</time></trkpt><trkpt lat="44.8983484" lon="9.3522935"><ele>339.0</ele><time>2026-04-18T09:55:17.983Z</time></trkpt><trkpt lat="44.8984063" lon="9.3524034"><ele>340.6666666666667</ele><time>2026-04-18T09:55:21.002Z</time></trkpt><trkpt lat="44.8983932" lon="9.3525003"><ele>342.3333333333333</ele><time>2026-04-18T09:55:23.072Z</time></trkpt><trkpt lat="44.8984177" lon="9.3525945"><ele>344.0</ele><time>2026-04-18T09:55:25.048Z</time></trkpt><trkpt lat="44.8985003" lon="9.352601"><ele>345.66666666666663</ele><time>2026-04-18T09:55:27.024Z</time></trkpt><trkpt lat="44.8985555" lon="9.3526602"><ele>347.3333333333333</ele><time>2026-04-18T09:55:28.999Z</time></trkpt><trkpt lat="44.8986248" lon="9.3527503"><ele>349.0</ele><time>2026-04-18T09:55:30.984Z</time></trkpt><trkpt lat="44.8987019" lon="9.352815"><ele>352.0</ele><time>2026-04-18T09:55:32.942Z</time></trkpt><trkpt lat="44.8987954" lon="9.3528406"><ele>355.0</ele><time>2026-04-18T09:55:34.984Z</time></trkpt><trkpt lat="44.8988815" lon="9.3528695"><ele>358.0</ele><time>2026-04-18T09:55:36.983Z</time></trkpt><trkpt lat="44.8989549" lon="9.3528676"><ele>361.0</ele><time>2026-04-18T09:55:38.984Z</time></trkpt><trkpt lat="44.8990334" lon="9.3528771"><ele>364.0</ele><time>2026-04-18T09:55:40.983Z</time></trkpt><trkpt lat="44.8991268" lon="9.3528869"><ele>367.0</ele><time>2026-04-18T09:55:42.985Z</time></trkpt><trkpt lat="44.8992597" lon="9.3530088"><ele>371.1428571428571</ele><time>2026-04-18T09:55:45.984Z</time></trkpt><trkpt lat="44.8993158" lon="9.3530702"><ele>375.28571428571433</ele><time>2026-04-18T09:55:46.983Z</time></trkpt><trkpt lat="44.8993865" lon="9.3531439"><ele>379.42857142857144</ele><time>2026-04-18T09:55:48.984Z</time></trkpt><trkpt lat="44.8994574" lon="9.3531873"><ele>383.57142857142856</ele><time>2026-04-18T09:55:50.986Z</time></trkpt><trkpt lat="44.8994783" lon="9.353272"><ele>387.71428571428567</ele><time>2026-04-18T09:55:52.983Z</time></trkpt><trkpt lat="44.8994689" lon="9.3533658"><ele>391.8571428571429</ele><time>2026-04-18T09:55:54.983Z</time></trkpt><trkpt lat="44.8994728" lon="9.3534783"><ele>396.0</ele><time>2026-04-18T09:55:57.935Z</time></trkpt><trkpt lat="44.8994373" lon="9.3535863"><ele>396.0</ele><time>2026-04-18T09:56:00.008Z</time></trkpt><trkpt lat="44.899409" lon="9.3536665"><ele>396.0</ele><time>2026-04-18T09:56:02.937Z</time></trkpt><trkpt lat="44.8993883" lon="9.3537769"><ele>396.0</ele><time>2026-04-18T09:56:06.985Z</time></trkpt><trkpt lat="44.8993599" lon="9.3538589"><ele>396.0</ele><time>2026-04-18T09:56:09.056Z</time></trkpt><trkpt lat="44.8992842" lon="9.3539495"><ele>396.0</ele><time>2026-04-18T09:56:11.038Z</time></trkpt><trkpt lat="44.899313" lon="9.354048"><ele>396.0</ele><time>2026-04-18T09:56:11.977Z</time></trkpt><trkpt lat="44.8993129" lon="9.354161"><ele>399.20000000000005</ele><time>2026-04-18T09:56:13.007Z</time></trkpt><trkpt lat="44.8992907" lon="9.354281"><ele>402.40000000000003</ele><time>2026-04-18T09:56:14.983Z</time></trkpt><trkpt lat="44.8992633" lon="9.3543767"><ele>405.6</ele><time>2026-04-18T09:56:16.983Z</time></trkpt><trkpt lat="44.8992733" lon="9.3545317"><ele>408.8</ele><time>2026-04-18T09:56:18.984Z</time></trkpt><trkpt lat="44.8992933" lon="9.3546967"><ele>412.0</ele><time>2026-04-18T09:56:20.984Z</time></trkpt><trkpt lat="44.8993017" lon="9.3548367"><ele>416.8</ele><time>2026-04-18T09:56:22.983Z</time></trkpt><trkpt lat="44.8993067" lon="9.35496"><ele>421.6</ele><time>2026-04-18T09:56:24.984Z</time></trkpt><trkpt lat="44.8993133" lon="9.3550883"><ele>426.40000000000003</ele><time>2026-04-18T09:56:26.983Z</time></trkpt><trkpt lat="44.8993117" lon="9.3551967"><ele>431.20000000000005</ele><time>2026-04-18T09:56:28.985Z</time></trkpt><trkpt lat="44.8993117" lon="9.35535"><ele>436.0</ele><time>2026-04-18T09:56:30.984Z</time></trkpt><trkpt lat="44.8992917" lon="9.3554967"><ele>439.5</ele><time>2026-04-18T09:56:32.983Z</time></trkpt><trkpt lat="44.8992517" lon="9.35564"><ele>443.0</ele><time>2026-04-18T09:56:34.983Z</time></trkpt><trkpt lat="44.8992067" lon="9.3557967"><ele>446.5</ele><time>2026-04-18T09:56:36.983Z</time></trkpt><trkpt lat="44.899145" lon="9.355945"><ele>450.0</ele><time>2026-04-18T09:56:38.984Z</time></trkpt><trkpt lat="44.8990983" lon="9.3560733"><ele>452.0</ele><time>2026-04-18T09:56:40.983Z</time></trkpt><trkpt lat="44.8990767" lon="9.356175"><ele>454.0</ele><time>2026-04-18T09:56:42.983Z</time></trkpt><trkpt lat="44.8990767" lon="9.3562683"><ele>456.0</ele><time>2026-04-18T09:56:44.985Z</time></trkpt><trkpt lat="44.89914" lon="9.3563583"><ele>458.0</ele><time>2026-04-18T09:56:47.984Z</time></trkpt><trkpt lat="44.89921" lon="9.3563683"><ele>460.0</ele><time>2026-04-18T09:56:49.982Z</time></trkpt><trkpt lat="44.8992633" lon="9.3564183"><ele>462.0</ele><time>2026-04-18T09:56:51.984Z</time></trkpt><trkpt lat="44.899305" lon="9.3565267"><ele>462.0</ele><time>2026-04-18T09:56:54.984Z</time></trkpt><trkpt lat="44.8993117" lon="9.3566533"><ele>462.00000000000006</ele><time>2026-04-18T09:56:56.984Z</time></trkpt><trkpt lat="44.8993017" lon="9.3568183"><ele>462.00000000000006</ele><time>2026-04-18T09:56:58.983Z</time></trkpt><trkpt lat="44.899312" lon="9.3569614"><ele>462.0</ele><time>2026-04-18T09:57:00.983Z</time></trkpt><trkpt lat="44.8993539" lon="9.3570798"><ele>462.0</ele><time>2026-04-18T09:57:02.983Z</time></trkpt><trkpt lat="44.8993882" lon="9.3571863"><ele>463.6666666666667</ele><time>2026-04-18T09:57:04.983Z</time></trkpt><trkpt lat="44.8994321" lon="9.3572714"><ele>465.33333333333337</ele><time>2026-04-18T09:57:06.983Z</time></trkpt><trkpt lat="44.8994725" lon="9.3573793"><ele>467.0</ele><time>2026-04-18T09:57:08.984Z</time></trkpt><trkpt lat="44.8995135" lon="9.3575241"><ele>468.6666666666667</ele><time>2026-04-18T09:57:10.984Z</time></trkpt><trkpt lat="44.899538" lon="9.3576099"><ele>470.33333333333337</ele><time>2026-04-18T09:57:11.984Z</time></trkpt><trkpt lat="44.8995768" lon="9.3577153"><ele>472.0</ele><time>2026-04-18T09:57:13.984Z</time></trkpt><trkpt lat="44.8996183" lon="9.3577949"><ele>472.0</ele><time>2026-04-18T09:57:17.985Z</time></trkpt><trkpt lat="44.8995833" lon="9.35767"><ele>472.00000000000006</ele><time>2026-04-18T09:57:28.983Z</time></trkpt><trkpt lat="44.8995917" lon="9.35752"><ele>472.00000000000006</ele><time>2026-04-18T09:59:08.984Z</time></trkpt><trkpt lat="44.8995717" lon="9.3573783"><ele>472.0</ele><time>2026-04-18T09:59:10.984Z</time></trkpt><trkpt lat="44.8995583" lon="9.3572833"><ele>472.0</ele><time>2026-04-18T09:59:12.983Z</time></trkpt><trkpt lat="44.899525" lon="9.3571833"><ele>470.0</ele><time>2026-04-18T10:00:57.984Z</time></trkpt><trkpt lat="44.8995867" lon="9.357015"><ele>468.00000000000006</ele><time>2026-04-18T10:00:59.982Z</time></trkpt><trkpt lat="44.8996283" lon="9.3569233"><ele>466.00000000000006</ele><time>2026-04-18T10:01:00.984Z</time></trkpt><trkpt lat="44.8996733" lon="9.3568267"><ele>464.0</ele><time>2026-04-18T10:01:01.984Z</time></trkpt><trkpt lat="44.8997217" lon="9.3567167"><ele>462.0</ele><time>2026-04-18T10:01:02.985Z</time></trkpt><trkpt lat="44.8997683" lon="9.356595"><ele>462.0</ele><time>2026-04-18T10:01:03.984Z</time></trkpt><trkpt lat="44.8998167" lon="9.3564767"><ele>462.00000000000006</ele><time>2026-04-18T10:01:04.982Z</time></trkpt><trkpt lat="44.8998683" lon="9.356365"><ele>462.00000000000006</ele><time>2026-04-18T10:01:05.984Z</time></trkpt><trkpt lat="44.899935" lon="9.356265"><ele>462.0</ele><time>2026-04-18T10:01:06.984Z</time></trkpt><trkpt lat="44.9000033" lon="9.3561633"><ele>462.0</ele><time>2026-04-18T10:01:07.984Z</time></trkpt><trkpt lat="44.900075" lon="9.3560517"><ele>465.25</ele><time>2026-04-18T10:01:08.985Z</time></trkpt><trkpt lat="44.9001517" lon="9.3559283"><ele>468.5</ele><time>2026-04-18T10:01:09.983Z</time></trkpt><trkpt lat="44.9002283" lon="9.3558083"><ele>471.75</ele><time>2026-04-18T10:01:10.984Z</time></trkpt><trkpt lat="44.900315" lon="9.3556933"><ele>475.0</ele><time>2026-04-18T10:01:11.984Z</time></trkpt><trkpt lat="44.900405" lon="9.3555883"><ele>471.0</ele><time>2026-04-18T10:01:12.984Z</time></trkpt><trkpt lat="44.9004967" lon="9.35549"><ele>467.0</ele><time>2026-04-18T10:01:13.983Z</time></trkpt><trkpt lat="44.90059" lon="9.3554133"><ele>463.0</ele><time>2026-04-18T10:01:14.983Z</time></trkpt><trkpt lat="44.9006783" lon="9.3553667"><ele>459.0</ele><time>2026-04-18T10:01:15.983Z</time></trkpt><trkpt lat="44.9007683" lon="9.3553533"><ele>455.0</ele><time>2026-04-18T10:01:16.983Z</time></trkpt><trkpt lat="44.9008667" lon="9.355355"><ele>457.0</ele><time>2026-04-18T10:01:17.984Z</time></trkpt><trkpt lat="44.90097" lon="9.3553517"><ele>459.0</ele><time>2026-04-18T10:01:18.985Z</time></trkpt><trkpt lat="44.9010733" lon="9.355325"><ele>461.0</ele><time>2026-04-18T10:01:19.984Z</time></trkpt><trkpt lat="44.90117" lon="9.3552967"><ele>463.0</ele><time>2026-04-18T10:01:20.984Z</time></trkpt><trkpt lat="44.901265" lon="9.35528"><ele>465.0</ele><time>2026-04-18T10:01:21.983Z</time></trkpt><trkpt lat="44.9013583" lon="9.3552867"><ele>465.0</ele><time>2026-04-18T10:01:22.983Z</time></trkpt><trkpt lat="44.901455" lon="9.35532"><ele>465.0</ele><time>2026-04-18T10:01:23.983Z</time></trkpt><trkpt lat="44.9015533" lon="9.3553733"><ele>465.0</ele><time>2026-04-18T10:01:24.983Z</time></trkpt><trkpt lat="44.9016467" lon="9.35545"><ele>465.0</ele><time>2026-04-18T10:01:25.983Z</time></trkpt><trkpt lat="44.9017333" lon="9.3555367"><ele>465.0</ele><time>2026-04-18T10:01:26.983Z</time></trkpt><trkpt lat="44.9018117" lon="9.3556467"><ele>469.6</ele><time>2026-04-18T10:01:27.983Z</time></trkpt><trkpt lat="44.9018733" lon="9.3557717"><ele>474.2</ele><time>2026-04-18T10:01:28.984Z</time></trkpt><trkpt lat="44.9019233" lon="9.3558967"><ele>478.79999999999995</ele><time>2026-04-18T10:01:29.983Z</time></trkpt><trkpt lat="44.901975" lon="9.3560033"><ele>483.4</ele><time>2026-04-18T10:01:30.983Z</time></trkpt><trkpt lat="44.9020433" lon="9.3560817"><ele>488.0</ele><time>2026-04-18T10:01:31.983Z</time></trkpt><trkpt lat="44.902125" lon="9.3561417"><ele>487.99999999999994</ele><time>2026-04-18T10:01:32.984Z</time></trkpt><trkpt lat="44.902215" lon="9.3561633"><ele>488.0</ele><time>2026-04-18T10:01:33.983Z</time></trkpt><trkpt lat="44.9022967" lon="9.356205"><ele>488.0</ele><time>2026-04-18T10:01:34.984Z</time></trkpt><trkpt lat="44.90237" lon="9.356255"><ele>488.0</ele><time>2026-04-18T10:01:35.984Z</time></trkpt><trkpt lat="44.9024083" lon="9.3563517"><ele>487.99999999999994</ele><time>2026-04-18T10:01:36.984Z</time></trkpt><trkpt lat="44.9024283" lon="9.3564683"><ele>488.0</ele><time>2026-04-18T10:01:37.984Z</time></trkpt><trkpt lat="44.9024217" lon="9.3565967"><ele>489.3333333333333</ele><time>2026-04-18T10:01:38.983Z</time></trkpt><trkpt lat="44.90241" lon="9.356715"><ele>490.66666666666663</ele><time>2026-04-18T10:01:39.982Z</time></trkpt><trkpt lat="44.9024083" lon="9.3568217"><ele>492.0</ele><time>2026-04-18T10:01:40.984Z</time></trkpt><trkpt lat="44.90243" lon="9.3569083"><ele>493.33333333333337</ele><time>2026-04-18T10:01:41.983Z</time></trkpt><trkpt lat="44.9025217" lon="9.356905"><ele>494.6666666666667</ele><time>2026-04-18T10:01:43.983Z</time></trkpt><trkpt lat="44.9025717" lon="9.356845"><ele>496.0</ele><time>2026-04-18T10:01:44.982Z</time></trkpt><trkpt lat="44.9026183" lon="9.356755"><ele>499.20000000000005</ele><time>2026-04-18T10:01:45.983Z</time></trkpt><trkpt lat="44.9026483" lon="9.3566333"><ele>502.40000000000003</ele><time>2026-04-18T10:01:46.983Z</time></trkpt><trkpt lat="44.9026717" lon="9.3564983"><ele>505.6</ele><time>2026-04-18T10:01:47.983Z</time></trkpt><trkpt lat="44.9026933" lon="9.3563467"><ele>508.8</ele><time>2026-04-18T10:01:48.982Z</time></trkpt><trkpt lat="44.902725" lon="9.356175"><ele>512.0</ele><time>2026-04-18T10:01:49.982Z</time></trkpt><trkpt lat="44.902755" lon="9.3560067"><ele>512.0</ele><time>2026-04-18T10:01:50.985Z</time></trkpt><trkpt lat="44.9027783" lon="9.355865"><ele>512.0</ele><time>2026-04-18T10:01:51.983Z</time></trkpt><trkpt lat="44.9028" lon="9.3557417"><ele>512.0</ele><time>2026-04-18T10:01:52.984Z</time></trkpt><trkpt lat="44.9028317" lon="9.35562"><ele>512.0</ele><time>2026-04-18T10:01:53.982Z</time></trkpt><trkpt lat="44.9028683" lon="9.3555"><ele>512.0</ele><time>2026-04-18T10:01:54.984Z</time></trkpt><trkpt lat="44.9029217" lon="9.3553867"><ele>511.20000000000005</ele><time>2026-04-18T10:01:55.982Z</time></trkpt><trkpt lat="44.90298" lon="9.3552717"><ele>510.40000000000003</ele><time>2026-04-18T10:01:56.984Z</time></trkpt><trkpt lat="44.903035" lon="9.3551467"><ele>509.59999999999997</ele><time>2026-04-18T10:01:57.983Z</time></trkpt><trkpt lat="44.9030833" lon="9.3550167"><ele>508.79999999999995</ele><time>2026-04-18T10:01:58.983Z</time></trkpt><trkpt lat="44.9031383" lon="9.35489"><ele>508.0</ele><time>2026-04-18T10:01:59.984Z</time></trkpt><trkpt lat="44.9031967" lon="9.3547633"><ele>506.0</ele><time>2026-04-18T10:02:00.984Z</time></trkpt><trkpt lat="44.9032633" lon="9.35463"><ele>504.0</ele><time>2026-04-18T10:02:01.984Z</time></trkpt><trkpt lat="44.9033367" lon="9.3544983"><ele>502.0</ele><time>2026-04-18T10:02:02.984Z</time></trkpt><trkpt lat="44.9034067" lon="9.3543567"><ele>500.0</ele><time>2026-04-18T10:02:03.983Z</time></trkpt><trkpt lat="44.9034717" lon="9.3542167"><ele>504.25</ele><time>2026-04-18T10:02:04.982Z</time></trkpt><trkpt lat="44.90353" lon="9.35407"><ele>508.5</ele><time>2026-04-18T10:02:05.984Z</time></trkpt><trkpt lat="44.9035783" lon="9.3539167"><ele>512.75</ele><time>2026-04-18T10:02:06.983Z</time></trkpt><trkpt lat="44.903605" lon="9.3537433"><ele>517.0</ele><time>2026-04-18T10:02:07.983Z</time></trkpt><trkpt lat="44.9036283" lon="9.35358"><ele>517.0</ele><time>2026-04-18T10:02:08.984Z</time></trkpt><trkpt lat="44.9036417" lon="9.3534383"><ele>517.0</ele><time>2026-04-18T10:02:09.983Z</time></trkpt><trkpt lat="44.9036517" lon="9.3533133"><ele>517.0</ele><time>2026-04-18T10:02:10.982Z</time></trkpt><trkpt lat="44.9036633" lon="9.353205"><ele>517.0</ele><time>2026-04-18T10:02:11.983Z</time></trkpt><trkpt lat="44.9036817" lon="9.3531133"><ele>517.0</ele><time>2026-04-18T10:02:12.984Z</time></trkpt><trkpt lat="44.903725" lon="9.3530367"><ele>517.0</ele><time>2026-04-18T10:02:13.985Z</time></trkpt><trkpt lat="44.90379" lon="9.353005"><ele>517.0</ele><time>2026-04-18T10:02:14.984Z</time></trkpt><trkpt lat="44.90387" lon="9.352995"><ele>517.0</ele><time>2026-04-18T10:02:15.982Z</time></trkpt><trkpt lat="44.903945" lon="9.352995"><ele>517.0</ele><time>2026-04-18T10:02:16.984Z</time></trkpt><trkpt lat="44.9040583" lon="9.3530233"><ele>517.0</ele><time>2026-04-18T10:02:18.983Z</time></trkpt><trkpt lat="44.9041867" lon="9.3530467"><ele>517.0</ele><time>2026-04-18T10:02:20.983Z</time></trkpt><trkpt lat="44.9042667" lon="9.3530417"><ele>516.8000000000001</ele><time>2026-04-18T10:02:21.983Z</time></trkpt><trkpt lat="44.9043467" lon="9.3530183"><ele>516.6</ele><time>2026-04-18T10:02:22.983Z</time></trkpt><trkpt lat="44.904415" lon="9.35299"><ele>516.4000000000001</ele><time>2026-04-18T10:02:23.984Z</time></trkpt><trkpt lat="44.904505" lon="9.3530033"><ele>516.2</ele><time>2026-04-18T10:02:25.984Z</time></trkpt><trkpt lat="44.90461" lon="9.3530867"><ele>516.0</ele><time>2026-04-18T10:02:27.983Z</time></trkpt><trkpt lat="44.904665" lon="9.353195"><ele>516.0</ele><time>2026-04-18T10:02:29.984Z</time></trkpt><trkpt lat="44.9046667" lon="9.35329"><ele>516.0</ele><time>2026-04-18T10:02:30.984Z</time></trkpt><trkpt lat="44.9046633" lon="9.3534133"><ele>516.0</ele><time>2026-04-18T10:02:31.984Z</time></trkpt><trkpt lat="44.904665" lon="9.3535567"><ele>516.0</ele><time>2026-04-18T10:02:32.985Z</time></trkpt><trkpt lat="44.904665" lon="9.3537017"><ele>516.0</ele><time>2026-04-18T10:02:33.984Z</time></trkpt><trkpt lat="44.9046733" lon="9.353835"><ele>518.4</ele><time>2026-04-18T10:02:34.984Z</time></trkpt><trkpt lat="44.9046767" lon="9.3539733"><ele>520.8</ele><time>2026-04-18T10:02:35.985Z</time></trkpt><trkpt lat="44.9046767" lon="9.3541067"><ele>523.1999999999999</ele><time>2026-04-18T10:02:36.983Z</time></trkpt><trkpt lat="44.9046777" lon="9.354245"><ele>525.6</ele><time>2026-04-18T10:02:37.983Z</time></trkpt><trkpt lat="44.9046869" lon="9.3543926"><ele>528.0</ele><time>2026-04-18T10:02:38.983Z</time></trkpt><trkpt lat="44.9047047" lon="9.3545537"><ele>530.25</ele><time>2026-04-18T10:02:39.983Z</time></trkpt><trkpt lat="44.9047251" lon="9.3547235"><ele>532.5</ele><time>2026-04-18T10:02:40.983Z</time></trkpt><trkpt lat="44.9047436" lon="9.3549008"><ele>534.75</ele><time>2026-04-18T10:02:41.982Z</time></trkpt><trkpt lat="44.9047554" lon="9.3550848"><ele>537.0</ele><time>2026-04-18T10:02:42.982Z</time></trkpt><trkpt lat="44.9047608" lon="9.3552676"><ele>537.0</ele><time>2026-04-18T10:02:43.983Z</time></trkpt><trkpt lat="44.9047607" lon="9.3554561"><ele>537.0</ele><time>2026-04-18T10:02:44.984Z</time></trkpt><trkpt lat="44.9047585" lon="9.3556527"><ele>537.0</ele><time>2026-04-18T10:02:45.983Z</time></trkpt><trkpt lat="44.9047585" lon="9.3558355"><ele>537.0</ele><time>2026-04-18T10:02:46.983Z</time></trkpt><trkpt lat="44.9047609" lon="9.355999"><ele>538.4</ele><time>2026-04-18T10:02:47.983Z</time></trkpt><trkpt lat="44.9047691" lon="9.3561438"><ele>539.8000000000001</ele><time>2026-04-18T10:02:48.983Z</time></trkpt><trkpt lat="44.9047897" lon="9.3562762"><ele>541.2</ele><time>2026-04-18T10:02:49.982Z</time></trkpt><trkpt lat="44.9048277" lon="9.3564026"><ele>542.6</ele><time>2026-04-18T10:02:50.985Z</time></trkpt><trkpt lat="44.904868" lon="9.3565215"><ele>544.0</ele><time>2026-04-18T10:02:51.988Z</time></trkpt><trkpt lat="44.9048982" lon="9.356634"><ele>545.1666666666667</ele><time>2026-04-18T10:02:52.983Z</time></trkpt><trkpt lat="44.9049276" lon="9.3567435"><ele>546.3333333333334</ele><time>2026-04-18T10:02:53.983Z</time></trkpt><trkpt lat="44.9049578" lon="9.3568485"><ele>547.5</ele><time>2026-04-18T10:02:54.983Z</time></trkpt><trkpt lat="44.9049948" lon="9.3569581"><ele>548.6666666666666</ele><time>2026-04-18T10:02:55.984Z</time></trkpt><trkpt lat="44.9050391" lon="9.3570364"><ele>549.8333333333333</ele><time>2026-04-18T10:02:56.984Z</time></trkpt><trkpt lat="44.9050855" lon="9.3571037"><ele>551.0</ele><time>2026-04-18T10:02:57.983Z</time></trkpt><trkpt lat="44.9051628" lon="9.3571766"><ele>554.0</ele><time>2026-04-18T10:02:59.984Z</time></trkpt><trkpt lat="44.905234" lon="9.3571669"><ele>557.0</ele><time>2026-04-18T10:03:01.982Z</time></trkpt><trkpt lat="44.9053205" lon="9.3571366"><ele>560.0</ele><time>2026-04-18T10:03:03.983Z</time></trkpt><trkpt lat="44.9053875" lon="9.3571584"><ele>563.0</ele><time>2026-04-18T10:03:06.982Z</time></trkpt><trkpt lat="44.9054695" lon="9.3571764"><ele>566.0</ele><time>2026-04-18T10:03:08.984Z</time></trkpt><trkpt lat="44.9055359" lon="9.3572139"><ele>569.0</ele><time>2026-04-18T10:03:10.983Z</time></trkpt><trkpt lat="44.9056353" lon="9.3572487"><ele>569.8</ele><time>2026-04-18T10:03:12.984Z</time></trkpt><trkpt lat="44.9057468" lon="9.3572729"><ele>570.5999999999999</ele><time>2026-04-18T10:03:14.985Z</time></trkpt><trkpt lat="44.9058124" lon="9.3573245"><ele>571.4</ele><time>2026-04-18T10:03:15.983Z</time></trkpt><trkpt lat="44.9059066" lon="9.3573326"><ele>572.1999999999999</ele><time>2026-04-18T10:03:17.984Z</time></trkpt><trkpt lat="44.9059995" lon="9.3573106"><ele>573.0</ele><time>2026-04-18T10:03:19.985Z</time></trkpt><trkpt lat="44.9060908" lon="9.3572668"><ele>576.1999999999999</ele><time>2026-04-18T10:03:21.985Z</time></trkpt><trkpt lat="44.9061749" lon="9.357214"><ele>579.4</ele><time>2026-04-18T10:03:23.984Z</time></trkpt><trkpt lat="44.9062241" lon="9.357144"><ele>582.5999999999999</ele><time>2026-04-18T10:03:25.984Z</time></trkpt><trkpt lat="44.9062863" lon="9.3570413"><ele>585.8</ele><time>2026-04-18T10:03:27.986Z</time></trkpt><trkpt lat="44.9063513" lon="9.3568902"><ele>589.0</ele><time>2026-04-18T10:03:29.985Z</time></trkpt><trkpt lat="44.9064182" lon="9.3567548"><ele>589.0</ele><time>2026-04-18T10:03:31.986Z</time></trkpt><trkpt lat="44.9064949" lon="9.3567102"><ele>589.0</ele><time>2026-04-18T10:03:33.982Z</time></trkpt><trkpt lat="44.9065484" lon="9.3567793"><ele>589.0</ele><time>2026-04-18T10:03:35.984Z</time></trkpt><trkpt lat="44.9065964" lon="9.3568814"><ele>589.0</ele><time>2026-04-18T10:03:37.984Z</time></trkpt><trkpt lat="44.9066712" lon="9.3569965"><ele>589.0</ele><time>2026-04-18T10:03:39.984Z</time></trkpt><trkpt lat="44.906744" lon="9.357096"><ele>588.2</ele><time>2026-04-18T10:03:41.984Z</time></trkpt><trkpt lat="44.9068176" lon="9.3571748"><ele>587.4</ele><time>2026-04-18T10:03:43.983Z</time></trkpt><trkpt lat="44.9068735" lon="9.3572632"><ele>586.6</ele><time>2026-04-18T10:03:45.983Z</time></trkpt><trkpt lat="44.9069063" lon="9.357447"><ele>585.8</ele><time>2026-04-18T10:03:47.982Z</time></trkpt><trkpt lat="44.9069195" lon="9.3575564"><ele>585.0</ele><time>2026-04-18T10:03:48.983Z</time></trkpt><trkpt lat="44.9069368" lon="9.3576658"><ele>585.0</ele><time>2026-04-18T10:03:49.984Z</time></trkpt><trkpt lat="44.9069644" lon="9.3577718"><ele>585.0</ele><time>2026-04-18T10:03:50.984Z</time></trkpt><trkpt lat="44.9069944" lon="9.3578738"><ele>585.0</ele><time>2026-04-18T10:03:51.984Z</time></trkpt><trkpt lat="44.9070169" lon="9.357972"><ele>585.0</ele><time>2026-04-18T10:03:52.983Z</time></trkpt><trkpt lat="44.9070374" lon="9.3580756"><ele>585.0</ele><time>2026-04-18T10:03:53.984Z</time></trkpt><trkpt lat="44.9070535" lon="9.3581873"><ele>585.0</ele><time>2026-04-18T10:03:54.984Z</time></trkpt><trkpt lat="44.9070669" lon="9.3582946"><ele>586.3333333333334</ele><time>2026-04-18T10:03:55.984Z</time></trkpt><trkpt lat="44.9070729" lon="9.3583994"><ele>587.6666666666666</ele><time>2026-04-18T10:03:56.986Z</time></trkpt><trkpt lat="44.9070658" lon="9.3585166"><ele>589.0</ele><time>2026-04-18T10:03:57.983Z</time></trkpt><trkpt lat="44.9070557" lon="9.3586359"><ele>590.3333333333333</ele><time>2026-04-18T10:03:58.983Z</time></trkpt><trkpt lat="44.9070544" lon="9.3587632"><ele>591.6666666666666</ele><time>2026-04-18T10:03:59.985Z</time></trkpt><trkpt lat="44.9070601" lon="9.3589024"><ele>593.0</ele><time>2026-04-18T10:04:00.985Z</time></trkpt><trkpt lat="44.9070698" lon="9.3590395"><ele>594.6666666666666</ele><time>2026-04-18T10:04:01.985Z</time></trkpt><trkpt lat="44.9070788" lon="9.3591821"><ele>596.3333333333333</ele><time>2026-04-18T10:04:02.983Z</time></trkpt><trkpt lat="44.9070874" lon="9.359315"><ele>598.0</ele><time>2026-04-18T10:04:03.983Z</time></trkpt><trkpt lat="44.9070955" lon="9.3594373"><ele>599.6666666666666</ele><time>2026-04-18T10:04:04.984Z</time></trkpt><trkpt lat="44.9070983" lon="9.3595532"><ele>601.3333333333334</ele><time>2026-04-18T10:04:05.984Z</time></trkpt><trkpt lat="44.9070944" lon="9.3596536"><ele>603.0</ele><time>2026-04-18T10:04:06.985Z</time></trkpt><trkpt lat="44.9070801" lon="9.3597431"><ele>604.8</ele><time>2026-04-18T10:04:07.988Z</time></trkpt><trkpt lat="44.907067" lon="9.359893"><ele>606.5999999999999</ele><time>2026-04-18T10:04:09.984Z</time></trkpt><trkpt lat="44.9070413" lon="9.3600325"><ele>608.4000000000001</ele><time>2026-04-18T10:04:11.983Z</time></trkpt><trkpt lat="44.9070222" lon="9.36019"><ele>610.2</ele><time>2026-04-18T10:04:13.984Z</time></trkpt><trkpt lat="44.9070111" lon="9.3603607"><ele>612.0</ele><time>2026-04-18T10:04:15.984Z</time></trkpt><trkpt lat="44.9070014" lon="9.3604507"><ele>613.3333333333334</ele><time>2026-04-18T10:04:16.984Z</time></trkpt><trkpt lat="44.9069981" lon="9.3605396"><ele>614.6666666666666</ele><time>2026-04-18T10:04:17.983Z</time></trkpt><trkpt lat="44.9069812" lon="9.3607108"><ele>616.0</ele><time>2026-04-18T10:04:19.983Z</time></trkpt><trkpt lat="44.9069552" lon="9.360798"><ele>617.3333333333333</ele><time>2026-04-18T10:04:20.985Z</time></trkpt><trkpt lat="44.9069276" lon="9.3608848"><ele>618.6666666666666</ele><time>2026-04-18T10:04:21.984Z</time></trkpt><trkpt lat="44.9069044" lon="9.3609715"><ele>620.0</ele><time>2026-04-18T10:04:22.983Z</time></trkpt><trkpt lat="44.9068889" lon="9.3610648"><ele>620.0</ele><time>2026-04-18T10:04:23.983Z</time></trkpt><trkpt lat="44.9068804" lon="9.361156"><ele>620.0</ele><time>2026-04-18T10:04:24.986Z</time></trkpt><trkpt lat="44.9068683" lon="9.3613426"><ele>620.0</ele><time>2026-04-18T10:04:26.984Z</time></trkpt><trkpt lat="44.9068542" lon="9.3614454"><ele>620.0</ele><time>2026-04-18T10:04:27.983Z</time></trkpt><trkpt lat="44.9068298" lon="9.3615543"><ele>620.0</ele><time>2026-04-18T10:04:28.984Z</time></trkpt><trkpt lat="44.9067965" lon="9.3616656"><ele>620.0</ele><time>2026-04-18T10:04:29.985Z</time></trkpt><trkpt lat="44.9067608" lon="9.3617752"><ele>624.2</ele><time>2026-04-18T10:04:30.985Z</time></trkpt><trkpt lat="44.9067276" lon="9.3618788"><ele>628.4</ele><time>2026-04-18T10:04:31.983Z</time></trkpt><trkpt lat="44.9067059" lon="9.3619748"><ele>632.5999999999999</ele><time>2026-04-18T10:04:32.984Z</time></trkpt><trkpt lat="44.9066913" lon="9.362066"><ele>636.8</ele><time>2026-04-18T10:04:33.983Z</time></trkpt><trkpt lat="44.9066783" lon="9.3622351"><ele>641.0</ele><time>2026-04-18T10:04:35.983Z</time></trkpt><trkpt lat="44.9066748" lon="9.3624037"><ele>642.75</ele><time>2026-04-18T10:04:37.984Z</time></trkpt><trkpt lat="44.9066647" lon="9.3625666"><ele>644.5</ele><time>2026-04-18T10:04:39.984Z</time></trkpt><trkpt lat="44.9066313" lon="9.3627161"><ele>646.25</ele><time>2026-04-18T10:04:41.984Z</time></trkpt><trkpt lat="44.9065783" lon="9.3628767"><ele>648.0</ele><time>2026-04-18T10:04:43.986Z</time></trkpt><trkpt lat="44.9065333" lon="9.3630567"><ele>649.0</ele><time>2026-04-18T10:04:45.984Z</time></trkpt><trkpt lat="44.9065117" lon="9.36316"><ele>650.0</ele><time>2026-04-18T10:04:46.984Z</time></trkpt><trkpt lat="44.9064917" lon="9.3632567"><ele>651.0</ele><time>2026-04-18T10:04:47.984Z</time></trkpt><trkpt lat="44.9064717" lon="9.363345"><ele>652.0</ele><time>2026-04-18T10:04:48.984Z</time></trkpt><trkpt lat="44.9064533" lon="9.3634317"><ele>653.0</ele><time>2026-04-18T10:04:49.983Z</time></trkpt><trkpt lat="44.9064317" lon="9.3635983"><ele>654.0</ele><time>2026-04-18T10:04:51.985Z</time></trkpt><trkpt lat="44.9064083" lon="9.3636833"><ele>654.0</ele><time>2026-04-18T10:04:52.984Z</time></trkpt><trkpt lat="44.9063533" lon="9.3638567"><ele>654.0</ele><time>2026-04-18T10:04:54.985Z</time></trkpt><trkpt lat="44.906305" lon="9.364005"><ele>654.0</ele><time>2026-04-18T10:04:56.985Z</time></trkpt><trkpt lat="44.9062767" lon="9.3641233"><ele>654.0</ele><time>2026-04-18T10:04:58.983Z</time></trkpt><trkpt lat="44.9062317" lon="9.3642383"><ele>654.0</ele><time>2026-04-18T10:05:00.983Z</time></trkpt><trkpt lat="44.90619" lon="9.3643467"><ele>655.8333333333334</ele><time>2026-04-18T10:05:02.983Z</time></trkpt><trkpt lat="44.90622" lon="9.364445"><ele>657.6666666666666</ele><time>2026-04-18T10:05:19.984Z</time></trkpt><trkpt lat="44.9062617" lon="9.3645283"><ele>659.5</ele><time>2026-04-18T10:05:21.984Z</time></trkpt><trkpt lat="44.9062833" lon="9.3646483"><ele>661.3333333333333</ele><time>2026-04-18T10:05:23.983Z</time></trkpt><trkpt lat="44.9062883" lon="9.3647383"><ele>663.1666666666666</ele><time>2026-04-18T10:05:24.984Z</time></trkpt><trkpt lat="44.906275" lon="9.3649"><ele>665.0</ele><time>2026-04-18T10:05:26.983Z</time></trkpt><trkpt lat="44.9062283" lon="9.3650267"><ele>667.2</ele><time>2026-04-18T10:05:28.984Z</time></trkpt><trkpt lat="44.9061967" lon="9.3651717"><ele>669.4</ele><time>2026-04-18T10:05:30.983Z</time></trkpt><trkpt lat="44.9061983" lon="9.3653117"><ele>671.5999999999999</ele><time>2026-04-18T10:05:32.985Z</time></trkpt><trkpt lat="44.906225" lon="9.3654417"><ele>673.8</ele><time>2026-04-18T10:05:34.983Z</time></trkpt><trkpt lat="44.9062383" lon="9.3655383"><ele>676.0</ele><time>2026-04-18T10:05:36.984Z</time></trkpt><trkpt lat="44.9062159" lon="9.3656637"><ele>676.0</ele><time>2026-04-18T10:05:39.984Z</time></trkpt><trkpt lat="44.906163" lon="9.3657585"><ele>676.0</ele><time>2026-04-18T10:05:42.983Z</time></trkpt><trkpt lat="44.9061014" lon="9.3659251"><ele>676.0</ele><time>2026-04-18T10:05:44.983Z</time></trkpt><trkpt lat="44.9060723" lon="9.366013"><ele>676.0</ele><time>2026-04-18T10:05:47.004Z</time></trkpt><trkpt lat="44.9060776" lon="9.3661225"><ele>676.0</ele><time>2026-04-18T10:05:48.984Z</time></trkpt><trkpt lat="44.9060451" lon="9.3662115"><ele>676.0</ele><time>2026-04-18T10:05:51.065Z</time></trkpt><trkpt lat="44.9059905" lon="9.3663446"><ele>676.8</ele><time>2026-04-18T10:05:52.984Z</time></trkpt><trkpt lat="44.9059022" lon="9.3664402"><ele>677.5999999999999</ele><time>2026-04-18T10:05:54.985Z</time></trkpt><trkpt lat="44.9058448" lon="9.3665654"><ele>678.4</ele><time>2026-04-18T10:05:56.984Z</time></trkpt><trkpt lat="44.9058309" lon="9.3666677"><ele>679.2</ele><time>2026-04-18T10:05:57.984Z</time></trkpt><trkpt lat="44.9058293" lon="9.3667923"><ele>680.0</ele><time>2026-04-18T10:05:58.984Z</time></trkpt><trkpt lat="44.9058251" lon="9.3669383"><ele>680.0</ele><time>2026-04-18T10:05:59.984Z</time></trkpt><trkpt lat="44.9058151" lon="9.3670998"><ele>680.0</ele><time>2026-04-18T10:06:00.983Z</time></trkpt><trkpt lat="44.9058017" lon="9.3672583"><ele>680.0</ele><time>2026-04-18T10:06:01.984Z</time></trkpt><trkpt lat="44.9057833" lon="9.36739"><ele>680.0</ele><time>2026-04-18T10:06:02.983Z</time></trkpt><trkpt lat="44.90579" lon="9.3675233"><ele>680.0</ele><time>2026-04-18T10:06:03.985Z</time></trkpt><trkpt lat="44.9057867" lon="9.36764"><ele>681.2857142857143</ele><time>2026-04-18T10:06:04.984Z</time></trkpt><trkpt lat="44.9057767" lon="9.3677483"><ele>682.5714285714286</ele><time>2026-04-18T10:06:05.984Z</time></trkpt><trkpt lat="44.90576" lon="9.3678433"><ele>683.8571428571429</ele><time>2026-04-18T10:06:06.984Z</time></trkpt><trkpt lat="44.9057433" lon="9.3679317"><ele>685.1428571428571</ele><time>2026-04-18T10:06:07.985Z</time></trkpt><trkpt lat="44.9057183" lon="9.3680183"><ele>686.4285714285714</ele><time>2026-04-18T10:06:08.985Z</time></trkpt><trkpt lat="44.9057" lon="9.3681067"><ele>687.7142857142857</ele><time>2026-04-18T10:06:09.983Z</time></trkpt><trkpt lat="44.9056817" lon="9.3682017"><ele>689.0</ele><time>2026-04-18T10:06:10.985Z</time></trkpt><trkpt lat="44.9056483" lon="9.36839"><ele>689.5</ele><time>2026-04-18T10:06:12.988Z</time></trkpt><trkpt lat="44.905625" lon="9.368495"><ele>690.0</ele><time>2026-04-18T10:06:13.983Z</time></trkpt><trkpt lat="44.9055967" lon="9.3685933"><ele>690.5</ele><time>2026-04-18T10:06:14.985Z</time></trkpt><trkpt lat="44.905575" lon="9.3686783"><ele>691.0</ele><time>2026-04-18T10:06:15.983Z</time></trkpt><trkpt lat="44.905555" lon="9.3687683"><ele>691.5</ele><time>2026-04-18T10:06:16.983Z</time></trkpt><trkpt lat="44.9055183" lon="9.3689183"><ele>692.0</ele><time>2026-04-18T10:06:18.983Z</time></trkpt><trkpt lat="44.9054833" lon="9.3690983"><ele>691.0</ele><time>2026-04-18T10:06:20.984Z</time></trkpt><trkpt lat="44.9054633" lon="9.3692"><ele>690.0</ele><time>2026-04-18T10:06:21.984Z</time></trkpt><trkpt lat="44.905435" lon="9.3693017"><ele>689.0</ele><time>2026-04-18T10:06:22.983Z</time></trkpt><trkpt lat="44.905405" lon="9.3694117"><ele>688.0</ele><time>2026-04-18T10:06:23.983Z</time></trkpt><trkpt lat="44.9053767" lon="9.3695083"><ele>687.0</ele><time>2026-04-18T10:06:24.983Z</time></trkpt><trkpt lat="44.9053283" lon="9.369595"><ele>686.0</ele><time>2026-04-18T10:06:25.983Z</time></trkpt><trkpt lat="44.90528" lon="9.3696717"><ele>684.3333333333333</ele><time>2026-04-18T10:06:26.985Z</time></trkpt><trkpt lat="44.90523" lon="9.3697317"><ele>682.6666666666666</ele><time>2026-04-18T10:06:27.986Z</time></trkpt><trkpt lat="44.9051183" lon="9.369805"><ele>681.0</ele><time>2026-04-18T10:06:29.983Z</time></trkpt><trkpt lat="44.90506" lon="9.369855"><ele>679.3333333333334</ele><time>2026-04-18T10:06:30.984Z</time></trkpt><trkpt lat="44.9049983" lon="9.36991"><ele>677.6666666666667</ele><time>2026-04-18T10:06:31.985Z</time></trkpt><trkpt lat="44.9049417" lon="9.3699667"><ele>676.0</ele><time>2026-04-18T10:06:32.984Z</time></trkpt><trkpt lat="44.904895" lon="9.3700267"><ele>677.5999999999999</ele><time>2026-04-18T10:06:33.985Z</time></trkpt><trkpt lat="44.9048533" lon="9.370095"><ele>679.2</ele><time>2026-04-18T10:06:34.985Z</time></trkpt><trkpt lat="44.9048067" lon="9.37023"><ele>680.8</ele><time>2026-04-18T10:06:36.983Z</time></trkpt><trkpt lat="44.9048083" lon="9.3703767"><ele>682.4000000000001</ele><time>2026-04-18T10:06:38.984Z</time></trkpt><trkpt lat="44.9048117" lon="9.3705467"><ele>684.0</ele><time>2026-04-18T10:06:40.983Z</time></trkpt><trkpt lat="44.9047867" lon="9.3706967"><ele>684.0</ele><time>2026-04-18T10:06:42.983Z</time></trkpt><trkpt lat="44.904775" lon="9.3707883"><ele>684.0</ele><time>2026-04-18T10:06:43.982Z</time></trkpt><trkpt lat="44.904765" lon="9.3708883"><ele>684.0</ele><time>2026-04-18T10:06:44.983Z</time></trkpt><trkpt lat="44.9047517" lon="9.3709867"><ele>684.0</ele><time>2026-04-18T10:06:45.983Z</time></trkpt><trkpt lat="44.90472" lon="9.371125"><ele>684.0</ele><time>2026-04-18T10:06:47.984Z</time></trkpt><trkpt lat="44.9046917" lon="9.3712633"><ele>684.0</ele><time>2026-04-18T10:06:49.983Z</time></trkpt><trkpt lat="44.9046733" lon="9.371405"><ele>682.6666666666666</ele><time>2026-04-18T10:06:51.984Z</time></trkpt><trkpt lat="44.9046767" lon="9.3714967"><ele>681.3333333333334</ele><time>2026-04-18T10:06:52.983Z</time></trkpt><trkpt lat="44.9046717" lon="9.3716067"><ele>680.0</ele><time>2026-04-18T10:06:53.984Z</time></trkpt><trkpt lat="44.9046483" lon="9.3717333"><ele>678.6666666666667</ele><time>2026-04-18T10:06:54.983Z</time></trkpt><trkpt lat="44.9046167" lon="9.3718467"><ele>677.3333333333334</ele><time>2026-04-18T10:06:55.983Z</time></trkpt><trkpt lat="44.9045917" lon="9.3719467"><ele>676.0</ele><time>2026-04-18T10:06:56.983Z</time></trkpt><trkpt lat="44.9045567" lon="9.3720333"><ele>676.0</ele><time>2026-04-18T10:06:57.983Z</time></trkpt><trkpt lat="44.9045133" lon="9.3721217"><ele>676.0</ele><time>2026-04-18T10:06:59.983Z</time></trkpt><trkpt lat="44.9044767" lon="9.3721983"><ele>676.0</ele><time>2026-04-18T10:07:21.982Z</time></trkpt><trkpt lat="44.904385" lon="9.372335"><ele>676.0</ele><time>2026-04-18T10:07:23.982Z</time></trkpt><trkpt lat="44.9043133" lon="9.3724217"><ele>676.0</ele><time>2026-04-18T10:07:24.984Z</time></trkpt><trkpt lat="44.9042367" lon="9.3725133"><ele>679.1666666666667</ele><time>2026-04-18T10:07:25.983Z</time></trkpt><trkpt lat="44.9041583" lon="9.3726067"><ele>682.3333333333334</ele><time>2026-04-18T10:07:26.983Z</time></trkpt><trkpt lat="44.9040867" lon="9.3726967"><ele>685.5</ele><time>2026-04-18T10:07:27.982Z</time></trkpt><trkpt lat="44.9040267" lon="9.3727833"><ele>688.6666666666666</ele><time>2026-04-18T10:07:28.983Z</time></trkpt><trkpt lat="44.9039733" lon="9.3728667"><ele>691.8333333333333</ele><time>2026-04-18T10:07:29.984Z</time></trkpt><trkpt lat="44.9039117" lon="9.37295"><ele>695.0</ele><time>2026-04-18T10:07:30.983Z</time></trkpt><trkpt lat="44.9038517" lon="9.3730283"><ele>695.1428571428572</ele><time>2026-04-18T10:07:31.985Z</time></trkpt><trkpt lat="44.9037883" lon="9.3730983"><ele>695.2857142857143</ele><time>2026-04-18T10:07:32.984Z</time></trkpt><trkpt lat="44.9037283" lon="9.3731617"><ele>695.4285714285714</ele><time>2026-04-18T10:07:33.983Z</time></trkpt><trkpt lat="44.903665" lon="9.3732117"><ele>695.5714285714287</ele><time>2026-04-18T10:07:34.985Z</time></trkpt><trkpt lat="44.9036" lon="9.3732517"><ele>695.7142857142858</ele><time>2026-04-18T10:07:35.984Z</time></trkpt><trkpt lat="44.9035333" lon="9.373285"><ele>695.8571428571429</ele><time>2026-04-18T10:07:36.984Z</time></trkpt><trkpt lat="44.9034683" lon="9.3733233"><ele>696.0</ele><time>2026-04-18T10:07:37.985Z</time></trkpt><trkpt lat="44.9034" lon="9.3733783"><ele>696.0</ele><time>2026-04-18T10:07:38.984Z</time></trkpt><trkpt lat="44.903325" lon="9.37343"><ele>696.0</ele><time>2026-04-18T10:07:39.983Z</time></trkpt><trkpt lat="44.90325" lon="9.3734767"><ele>696.0</ele><time>2026-04-18T10:07:40.983Z</time></trkpt><trkpt lat="44.9031733" lon="9.3735117"><ele>696.0</ele><time>2026-04-18T10:07:41.983Z</time></trkpt><trkpt lat="44.9031067" lon="9.3735467"><ele>696.0</ele><time>2026-04-18T10:07:42.984Z</time></trkpt><trkpt lat="44.90305" lon="9.3735917"><ele>696.0</ele><time>2026-04-18T10:07:43.983Z</time></trkpt><trkpt lat="44.9029467" lon="9.37368"><ele>696.0</ele><time>2026-04-18T10:07:45.984Z</time></trkpt><trkpt lat="44.9028183" lon="9.3737067"><ele>696.0</ele><time>2026-04-18T10:07:47.983Z</time></trkpt><trkpt lat="44.902755" lon="9.3737333"><ele>696.0</ele><time>2026-04-18T10:07:48.982Z</time></trkpt><trkpt lat="44.9026983" lon="9.3737733"><ele>696.0</ele><time>2026-04-18T10:07:49.982Z</time></trkpt><trkpt lat="44.9025867" lon="9.3738517"><ele>696.0</ele><time>2026-04-18T10:07:51.983Z</time></trkpt><trkpt lat="44.9025083" lon="9.3739067"><ele>693.5</ele><time>2026-04-18T10:07:52.983Z</time></trkpt><trkpt lat="44.9024283" lon="9.37396"><ele>691.0</ele><time>2026-04-18T10:07:53.983Z</time></trkpt><trkpt lat="44.9023583" lon="9.374015"><ele>688.5</ele><time>2026-04-18T10:07:54.983Z</time></trkpt><trkpt lat="44.9022917" lon="9.374085"><ele>686.0</ele><time>2026-04-18T10:07:55.983Z</time></trkpt><trkpt lat="44.9022333" lon="9.3741617"><ele>683.5</ele><time>2026-04-18T10:07:56.982Z</time></trkpt><trkpt lat="44.9021817" lon="9.3742333"><ele>681.0</ele><time>2026-04-18T10:07:57.984Z</time></trkpt><trkpt lat="44.902125" lon="9.3742967"><ele>681.0000000000001</ele><time>2026-04-18T10:07:58.982Z</time></trkpt><trkpt lat="44.902065" lon="9.374335"><ele>681.0</ele><time>2026-04-18T10:07:59.984Z</time></trkpt><trkpt lat="44.9019983" lon="9.3743617"><ele>681.0</ele><time>2026-04-18T10:08:00.983Z</time></trkpt><trkpt lat="44.9019317" lon="9.3743833"><ele>681.0</ele><time>2026-04-18T10:08:01.983Z</time></trkpt><trkpt lat="44.901855" lon="9.3744083"><ele>681.0</ele><time>2026-04-18T10:08:02.983Z</time></trkpt><trkpt lat="44.901775" lon="9.3744317"><ele>681.0000000000001</ele><time>2026-04-18T10:08:03.985Z</time></trkpt><trkpt lat="44.9016983" lon="9.3744517"><ele>681.0</ele><time>2026-04-18T10:08:04.983Z</time></trkpt><trkpt lat="44.9016283" lon="9.3744833"><ele>680.5</ele><time>2026-04-18T10:08:05.982Z</time></trkpt><trkpt lat="44.9015633" lon="9.3745383"><ele>680.0</ele><time>2026-04-18T10:08:06.983Z</time></trkpt><trkpt lat="44.9014967" lon="9.3746"><ele>679.5</ele><time>2026-04-18T10:08:07.983Z</time></trkpt><trkpt lat="44.9014233" lon="9.37466"><ele>679.0</ele><time>2026-04-18T10:08:08.983Z</time></trkpt><trkpt lat="44.901355" lon="9.37473"><ele>678.5</ele><time>2026-04-18T10:08:09.984Z</time></trkpt><trkpt lat="44.9013017" lon="9.3747983"><ele>678.0</ele><time>2026-04-18T10:08:10.983Z</time></trkpt><trkpt lat="44.9012467" lon="9.3749033"><ele>679.8333333333334</ele><time>2026-04-18T10:08:12.983Z</time></trkpt><trkpt lat="44.9012717" lon="9.3749933"><ele>681.6666666666666</ele><time>2026-04-18T10:08:14.984Z</time></trkpt><trkpt lat="44.901315" lon="9.3751083"><ele>683.5</ele><time>2026-04-18T10:08:16.983Z</time></trkpt><trkpt lat="44.9013717" lon="9.3752133"><ele>685.3333333333333</ele><time>2026-04-18T10:08:18.983Z</time></trkpt><trkpt lat="44.9014117" lon="9.3753133"><ele>687.1666666666666</ele><time>2026-04-18T10:08:20.983Z</time></trkpt><trkpt lat="44.9014217" lon="9.3754283"><ele>689.0</ele><time>2026-04-18T10:08:22.983Z</time></trkpt><trkpt lat="44.9014233" lon="9.375525"><ele>691.5</ele><time>2026-04-18T10:08:24.982Z</time></trkpt><trkpt lat="44.9014817" lon="9.3755833"><ele>694.0</ele><time>2026-04-18T10:08:26.984Z</time></trkpt><trkpt lat="44.9015267" lon="9.37565"><ele>696.5</ele><time>2026-04-18T10:08:28.982Z</time></trkpt><trkpt lat="44.9014806" lon="9.375736"><ele>699.0</ele><time>2026-04-18T10:08:33.072Z</time></trkpt><trkpt lat="44.9013944" lon="9.3757535"><ele>701.5</ele><time>2026-04-18T10:08:43.992Z</time></trkpt><trkpt lat="44.9012933" lon="9.3758065"><ele>704.0</ele><time>2026-04-18T10:08:45.983Z</time></trkpt><trkpt lat="44.9012091" lon="9.3759176"><ele>704.0</ele><time>2026-04-18T10:08:47.982Z</time></trkpt><trkpt lat="44.9011394" lon="9.3760667"><ele>704.0</ele><time>2026-04-18T10:08:49.983Z</time></trkpt><trkpt lat="44.9011067" lon="9.3761433"><ele>704.0</ele><time>2026-04-18T10:08:50.986Z</time></trkpt><trkpt lat="44.9010333" lon="9.3762967"><ele>704.0</ele><time>2026-04-18T10:08:52.983Z</time></trkpt><trkpt lat="44.9009917" lon="9.3763767"><ele>704.0</ele><time>2026-04-18T10:08:53.984Z</time></trkpt><trkpt lat="44.9009567" lon="9.3764633"><ele>706.8000000000001</ele><time>2026-04-18T10:08:54.983Z</time></trkpt><trkpt lat="44.90093" lon="9.3766133"><ele>709.6</ele><time>2026-04-18T10:08:56.984Z</time></trkpt><trkpt lat="44.9009917" lon="9.3766633"><ele>712.4</ele><time>2026-04-18T10:08:58.983Z</time></trkpt><trkpt lat="44.9010917" lon="9.3766517"><ele>715.2</ele><time>2026-04-18T10:09:00.983Z</time></trkpt><trkpt lat="44.9011917" lon="9.3767283"><ele>718.0</ele><time>2026-04-18T10:09:02.984Z</time></trkpt><trkpt lat="44.9012367" lon="9.3768383"><ele>718.0</ele><time>2026-04-18T10:09:04.982Z</time></trkpt><trkpt lat="44.901185" lon="9.3769433"><ele>718.0</ele><time>2026-04-18T10:09:06.983Z</time></trkpt><trkpt lat="44.9011233" lon="9.3770267"><ele>718.0</ele><time>2026-04-18T10:09:08.984Z</time></trkpt><trkpt lat="44.901055" lon="9.3771283"><ele>718.0</ele><time>2026-04-18T10:09:10.982Z</time></trkpt><trkpt lat="44.90099" lon="9.3772833"><ele>718.0</ele><time>2026-04-18T10:09:12.983Z</time></trkpt><trkpt lat="44.9009567" lon="9.37738"><ele>722.5999999999999</ele><time>2026-04-18T10:09:13.983Z</time></trkpt><trkpt lat="44.900915" lon="9.3774767"><ele>727.1999999999999</ele><time>2026-04-18T10:09:14.983Z</time></trkpt><trkpt lat="44.900875" lon="9.377555"><ele>731.8</ele><time>2026-04-18T10:09:15.984Z</time></trkpt><trkpt lat="44.9008083" lon="9.37768"><ele>736.4</ele><time>2026-04-18T10:09:17.983Z</time></trkpt><trkpt lat="44.9007705" lon="9.3777996"><ele>741.0</ele><time>2026-04-18T10:09:19.983Z</time></trkpt><trkpt lat="44.9007015" lon="9.3779448"><ele>744.1428571428571</ele><time>2026-04-18T10:09:21.983Z</time></trkpt><trkpt lat="44.9006528" lon="9.3780211"><ele>747.2857142857143</ele><time>2026-04-18T10:09:22.984Z</time></trkpt><trkpt lat="44.9006047" lon="9.3780936"><ele>750.4285714285714</ele><time>2026-04-18T10:09:23.982Z</time></trkpt><trkpt lat="44.9005537" lon="9.3781611"><ele>753.5714285714286</ele><time>2026-04-18T10:09:24.984Z</time></trkpt><trkpt lat="44.9004976" lon="9.3782152"><ele>756.7142857142858</ele><time>2026-04-18T10:09:25.982Z</time></trkpt><trkpt lat="44.9004349" lon="9.3782562"><ele>759.8571428571429</ele><time>2026-04-18T10:09:26.983Z</time></trkpt><trkpt lat="44.9003663" lon="9.3782973"><ele>763.0</ele><time>2026-04-18T10:09:27.983Z</time></trkpt><trkpt lat="44.9002943" lon="9.3783456"><ele>763.0</ele><time>2026-04-18T10:09:28.983Z</time></trkpt><trkpt lat="44.9002269" lon="9.3783895"><ele>763.0</ele><time>2026-04-18T10:09:29.983Z</time></trkpt><trkpt lat="44.900168" lon="9.3784254"><ele>763.0</ele><time>2026-04-18T10:09:30.988Z</time></trkpt><trkpt lat="44.90011" lon="9.3784753"><ele>763.0</ele><time>2026-04-18T10:09:31.984Z</time></trkpt><trkpt lat="44.900052" lon="9.378542"><ele>763.0</ele><time>2026-04-18T10:09:32.983Z</time></trkpt><trkpt lat="44.8999964" lon="9.3786119"><ele>763.0</ele><time>2026-04-18T10:09:33.984Z</time></trkpt><trkpt lat="44.8999388" lon="9.378688"><ele>763.0</ele><time>2026-04-18T10:09:34.983Z</time></trkpt><trkpt lat="44.899884" lon="9.3787563"><ele>761.8571428571429</ele><time>2026-04-18T10:09:35.983Z</time></trkpt><trkpt lat="44.899829" lon="9.3788123"><ele>760.7142857142858</ele><time>2026-04-18T10:09:36.983Z</time></trkpt><trkpt lat="44.899769" lon="9.3788548"><ele>759.5714285714286</ele><time>2026-04-18T10:09:37.984Z</time></trkpt><trkpt lat="44.8997074" lon="9.3788976"><ele>758.4285714285714</ele><time>2026-04-18T10:09:38.984Z</time></trkpt><trkpt lat="44.8996378" lon="9.3789487"><ele>757.2857142857143</ele><time>2026-04-18T10:09:39.983Z</time></trkpt><trkpt lat="44.8995615" lon="9.3789982"><ele>756.1428571428571</ele><time>2026-04-18T10:09:40.983Z</time></trkpt><trkpt lat="44.8994865" lon="9.3790445"><ele>755.0</ele><time>2026-04-18T10:09:41.985Z</time></trkpt><trkpt lat="44.8994208" lon="9.3790962"><ele>757.6</ele><time>2026-04-18T10:09:42.984Z</time></trkpt><trkpt lat="44.899341" lon="9.3791799"><ele>760.2</ele><time>2026-04-18T10:09:44.985Z</time></trkpt><trkpt lat="44.8992703" lon="9.3792433"><ele>762.8</ele><time>2026-04-18T10:10:06.983Z</time></trkpt><trkpt lat="44.8992" lon="9.3792685"><ele>765.4</ele><time>2026-04-18T10:10:07.984Z</time></trkpt><trkpt lat="44.8991076" lon="9.3793"><ele>768.0</ele><time>2026-04-18T10:10:08.984Z</time></trkpt><trkpt lat="44.8990076" lon="9.3793287"><ele>768.0</ele><time>2026-04-18T10:10:09.984Z</time></trkpt><trkpt lat="44.8989198" lon="9.3793625"><ele>768.0</ele><time>2026-04-18T10:10:10.984Z</time></trkpt><trkpt lat="44.8988411" lon="9.3794127"><ele>768.0</ele><time>2026-04-18T10:10:11.984Z</time></trkpt><trkpt lat="44.8987765" lon="9.3794787"><ele>768.0</ele><time>2026-04-18T10:10:12.983Z</time></trkpt><trkpt lat="44.8987332" lon="9.379548"><ele>768.0</ele><time>2026-04-18T10:10:13.983Z</time></trkpt><trkpt lat="44.8986962" lon="9.3796295"><ele>768.0</ele><time>2026-04-18T10:10:14.984Z</time></trkpt><trkpt lat="44.8986598" lon="9.3797153"><ele>769.1666666666666</ele><time>2026-04-18T10:10:15.984Z</time></trkpt><trkpt lat="44.8986235" lon="9.379788"><ele>770.3333333333333</ele><time>2026-04-18T10:10:16.982Z</time></trkpt><trkpt lat="44.8985646" lon="9.3798965"><ele>771.5</ele><time>2026-04-18T10:10:18.984Z</time></trkpt><trkpt lat="44.8985145" lon="9.3800123"><ele>772.6666666666666</ele><time>2026-04-18T10:10:20.983Z</time></trkpt><trkpt lat="44.8984617" lon="9.38009"><ele>773.8333333333333</ele><time>2026-04-18T10:10:22.984Z</time></trkpt><trkpt lat="44.8983733" lon="9.3801283"><ele>775.0</ele><time>2026-04-18T10:10:24.983Z</time></trkpt><trkpt lat="44.8983117" lon="9.3801583"><ele>771.3333333333333</ele><time>2026-04-18T10:10:25.984Z</time></trkpt><trkpt lat="44.8982533" lon="9.3801983"><ele>767.6666666666666</ele><time>2026-04-18T10:10:26.984Z</time></trkpt><trkpt lat="44.898195" lon="9.3802383"><ele>764.0</ele><time>2026-04-18T10:10:27.984Z</time></trkpt><trkpt lat="44.89814" lon="9.380285"><ele>760.3333333333333</ele><time>2026-04-18T10:10:28.983Z</time></trkpt><trkpt lat="44.8980933" lon="9.380345"><ele>756.6666666666666</ele><time>2026-04-18T10:10:29.984Z</time></trkpt><trkpt lat="44.8980233" lon="9.38049"><ele>753.0</ele><time>2026-04-18T10:10:31.982Z</time></trkpt><trkpt lat="44.8979567" lon="9.3806033"><ele>751.4</ele><time>2026-04-18T10:10:33.983Z</time></trkpt><trkpt lat="44.8978783" lon="9.3806933"><ele>749.8</ele><time>2026-04-18T10:10:35.983Z</time></trkpt><trkpt lat="44.8978217" lon="9.380805"><ele>748.2</ele><time>2026-04-18T10:10:37.983Z</time></trkpt><trkpt lat="44.8977883" lon="9.3809233"><ele>746.6</ele><time>2026-04-18T10:10:39.982Z</time></trkpt><trkpt lat="44.8978033" lon="9.38104"><ele>745.0</ele><time>2026-04-18T10:10:41.984Z</time></trkpt><trkpt lat="44.8978333" lon="9.3811633"><ele>745.0</ele><time>2026-04-18T10:10:43.984Z</time></trkpt><trkpt lat="44.8978483" lon="9.3812717"><ele>745.0</ele><time>2026-04-18T10:10:45.982Z</time></trkpt><trkpt lat="44.8978067" lon="9.3813767"><ele>745.0</ele><time>2026-04-18T10:10:48.983Z</time></trkpt><trkpt lat="44.8977433" lon="9.3814533"><ele>745.0</ele><time>2026-04-18T10:10:50.984Z</time></trkpt><trkpt lat="44.8976633" lon="9.3814933"><ele>745.0</ele><time>2026-04-18T10:10:52.984Z</time></trkpt><trkpt lat="44.8975533" lon="9.381475"><ele>745.0</ele><time>2026-04-18T10:10:54.983Z</time></trkpt><trkpt lat="44.8974917" lon="9.3814517"><ele>740.0</ele><time>2026-04-18T10:10:55.985Z</time></trkpt><trkpt lat="44.8974233" lon="9.3814233"><ele>735.0</ele><time>2026-04-18T10:10:56.984Z</time></trkpt><trkpt lat="44.8973617" lon="9.3814017"><ele>730.0</ele><time>2026-04-18T10:10:57.983Z</time></trkpt><trkpt lat="44.8972383" lon="9.38139"><ele>725.0</ele><time>2026-04-18T10:10:59.983Z</time></trkpt><trkpt lat="44.89714" lon="9.3814167"><ele>720.0</ele><time>2026-04-18T10:11:01.985Z</time></trkpt><trkpt lat="44.89705" lon="9.38147"><ele>720.0</ele><time>2026-04-18T10:11:03.984Z</time></trkpt><trkpt lat="44.8969533" lon="9.38149"><ele>720.0</ele><time>2026-04-18T10:11:05.984Z</time></trkpt><trkpt lat="44.8968767" lon="9.3814817"><ele>720.0</ele><time>2026-04-18T10:11:07.983Z</time></trkpt><trkpt lat="44.896815" lon="9.3814167"><ele>720.0</ele><time>2026-04-18T10:11:10.984Z</time></trkpt><trkpt lat="44.8967583" lon="9.3813733"><ele>720.0</ele><time>2026-04-18T10:11:13.984Z</time></trkpt><trkpt lat="44.896695" lon="9.3813833"><ele>720.0</ele><time>2026-04-18T10:11:16.983Z</time></trkpt><trkpt lat="44.896615" lon="9.3812967"><ele>717.0</ele><time>2026-04-18T10:11:19.984Z</time></trkpt><trkpt lat="44.8965517" lon="9.3812183"><ele>714.0</ele><time>2026-04-18T10:11:21.984Z</time></trkpt><trkpt lat="44.8964967" lon="9.3811417"><ele>711.0</ele><time>2026-04-18T10:11:23.984Z</time></trkpt><trkpt lat="44.8964733" lon="9.3810567"><ele>708.0</ele><time>2026-04-18T10:11:25.982Z</time></trkpt><trkpt lat="44.8964917" lon="9.3809567"><ele>705.0</ele><time>2026-04-18T10:11:28.984Z</time></trkpt><trkpt lat="44.8965067" lon="9.3808517"><ele>702.0</ele><time>2026-04-18T10:11:31.984Z</time></trkpt><trkpt lat="44.896515" lon="9.3807283"><ele>702.0</ele><time>2026-04-18T10:11:34.983Z</time></trkpt><trkpt lat="44.8965733" lon="9.380645"><ele>702.0</ele><time>2026-04-18T10:11:37.983Z</time></trkpt><trkpt lat="44.89656" lon="9.3805433"><ele>702.0</ele><time>2026-04-18T10:11:40.983Z</time></trkpt><trkpt lat="44.8964817" lon="9.3805067"><ele>702.0</ele><time>2026-04-18T10:11:42.984Z</time></trkpt><trkpt lat="44.8963933" lon="9.380465"><ele>702.0</ele><time>2026-04-18T10:11:44.983Z</time></trkpt><trkpt lat="44.896295" lon="9.38042"><ele>702.0</ele><time>2026-04-18T10:11:46.982Z</time></trkpt><trkpt lat="44.8962267" lon="9.380355"><ele>697.6666666666666</ele><time>2026-04-18T10:11:48.984Z</time></trkpt><trkpt lat="44.8962" lon="9.38026"><ele>693.3333333333334</ele><time>2026-04-18T10:11:50.984Z</time></trkpt><trkpt lat="44.8961733" lon="9.3801767"><ele>689.0</ele><time>2026-04-18T10:11:52.984Z</time></trkpt><trkpt lat="44.8961117" lon="9.3800983"><ele>684.6666666666667</ele><time>2026-04-18T10:11:54.983Z</time></trkpt><trkpt lat="44.89604" lon="9.38003"><ele>680.3333333333334</ele><time>2026-04-18T10:11:56.983Z</time></trkpt><trkpt lat="44.8959717" lon="9.3799833"><ele>676.0</ele><time>2026-04-18T10:11:58.983Z</time></trkpt><trkpt lat="44.8959067" lon="9.3799417"><ele>674.5</ele><time>2026-04-18T10:12:00.983Z</time></trkpt><trkpt lat="44.8958533" lon="9.379875"><ele>673.0</ele><time>2026-04-18T10:12:02.984Z</time></trkpt><trkpt lat="44.8957967" lon="9.3798183"><ele>671.5</ele><time>2026-04-18T10:12:04.983Z</time></trkpt><trkpt lat="44.8957383" lon="9.3797733"><ele>670.0</ele><time>2026-04-18T10:12:06.984Z</time></trkpt><trkpt lat="44.8956767" lon="9.3797267"><ele>668.5</ele><time>2026-04-18T10:12:08.984Z</time></trkpt><trkpt lat="44.895605" lon="9.37966"><ele>667.0</ele><time>2026-04-18T10:12:10.984Z</time></trkpt><trkpt lat="44.89553" lon="9.379575"><ele>661.6</ele><time>2026-04-18T10:12:12.984Z</time></trkpt><trkpt lat="44.8954533" lon="9.3794783"><ele>656.2</ele><time>2026-04-18T10:12:14.983Z</time></trkpt><trkpt lat="44.8953617" lon="9.3793917"><ele>650.8</ele><time>2026-04-18T10:12:16.984Z</time></trkpt><trkpt lat="44.8952617" lon="9.379375"><ele>645.4</ele><time>2026-04-18T10:12:18.983Z</time></trkpt><trkpt lat="44.89517" lon="9.3793617"><ele>640.0</ele><time>2026-04-18T10:12:20.983Z</time></trkpt><trkpt lat="44.8951117" lon="9.3793267"><ele>639.0</ele><time>2026-04-18T10:12:22.984Z</time></trkpt><trkpt lat="44.8950467" lon="9.3793033"><ele>638.0</ele><time>2026-04-18T10:12:25.984Z</time></trkpt><trkpt lat="44.8949283" lon="9.3792767"><ele>637.0</ele><time>2026-04-18T10:12:41.983Z</time></trkpt><trkpt lat="44.8948467" lon="9.3792417"><ele>636.0</ele><time>2026-04-18T10:12:43.984Z</time></trkpt><trkpt lat="44.8947833" lon="9.379155"><ele>635.0</ele><time>2026-04-18T10:12:45.985Z</time></trkpt><trkpt lat="44.8947633" lon="9.3790417"><ele>634.0</ele><time>2026-04-18T10:12:47.983Z</time></trkpt><trkpt lat="44.8947867" lon="9.3789317"><ele>629.3333333333334</ele><time>2026-04-18T10:12:49.984Z</time></trkpt><trkpt lat="44.8948383" lon="9.37884"><ele>624.6666666666667</ele><time>2026-04-18T10:12:51.985Z</time></trkpt><trkpt lat="44.8949317" lon="9.3787783"><ele>620.0</ele><time>2026-04-18T10:12:53.984Z</time></trkpt><trkpt lat="44.8949967" lon="9.3786717"><ele>615.3333333333334</ele><time>2026-04-18T10:12:55.983Z</time></trkpt><trkpt lat="44.8950033" lon="9.3785633"><ele>610.6666666666666</ele><time>2026-04-18T10:12:57.984Z</time></trkpt><trkpt lat="44.8949433" lon="9.3785333"><ele>606.0</ele><time>2026-04-18T10:12:59.983Z</time></trkpt><trkpt lat="44.8948283" lon="9.3785067"><ele>606.0</ele><time>2026-04-18T10:13:01.983Z</time></trkpt><trkpt lat="44.8947433" lon="9.378435"><ele>606.0</ele><time>2026-04-18T10:13:03.984Z</time></trkpt><trkpt lat="44.8946767" lon="9.3784167"><ele>606.0</ele><time>2026-04-18T10:13:05.984Z</time></trkpt><trkpt lat="44.8946033" lon="9.3784517"><ele>606.0</ele><time>2026-04-18T10:13:07.983Z</time></trkpt><trkpt lat="44.8945167" lon="9.37849"><ele>606.0</ele><time>2026-04-18T10:13:09.984Z</time></trkpt><trkpt lat="44.8944283" lon="9.3785333"><ele>606.0</ele><time>2026-04-18T10:13:11.984Z</time></trkpt><trkpt lat="44.8943583" lon="9.3785333"><ele>606.0</ele><time>2026-04-18T10:13:13.985Z</time></trkpt><trkpt lat="44.8942867" lon="9.378535"><ele>606.0</ele><time>2026-04-18T10:13:15.984Z</time></trkpt><trkpt lat="44.8942067" lon="9.378575"><ele>606.0</ele><time>2026-04-18T10:13:17.983Z</time></trkpt><trkpt lat="44.89412" lon="9.37861"><ele>606.0</ele><time>2026-04-18T10:13:19.984Z</time></trkpt><trkpt lat="44.894035" lon="9.3786117"><ele>606.0</ele><time>2026-04-18T10:13:21.984Z</time></trkpt><trkpt lat="44.893935" lon="9.378635"><ele>606.0</ele><time>2026-04-18T10:13:23.984Z</time></trkpt><trkpt lat="44.89385" lon="9.3786367"><ele>603.6666666666666</ele><time>2026-04-18T10:13:25.983Z</time></trkpt><trkpt lat="44.8937783" lon="9.3786033"><ele>601.3333333333334</ele><time>2026-04-18T10:13:27.983Z</time></trkpt><trkpt lat="44.8937167" lon="9.3785583"><ele>599.0</ele><time>2026-04-18T10:13:29.984Z</time></trkpt><trkpt lat="44.893665" lon="9.378455"><ele>596.6666666666667</ele><time>2026-04-18T10:13:32.983Z</time></trkpt><trkpt lat="44.8936467" lon="9.3783667"><ele>594.3333333333334</ele><time>2026-04-18T10:13:34.984Z</time></trkpt><trkpt lat="44.8935667" lon="9.3783067"><ele>592.0</ele><time>2026-04-18T10:13:37.984Z</time></trkpt><trkpt lat="44.8934867" lon="9.3782917"><ele>592.0</ele><time>2026-04-18T10:13:40.984Z</time></trkpt><trkpt lat="44.8934767" lon="9.3781933"><ele>592.0</ele><time>2026-04-18T10:13:43.984Z</time></trkpt><trkpt lat="44.89346" lon="9.3781033"><ele>592.0</ele><time>2026-04-18T10:14:37.982Z</time></trkpt><trkpt lat="44.8933783" lon="9.3780283"><ele>592.0</ele><time>2026-04-18T10:14:40.982Z</time></trkpt><trkpt lat="44.8933083" lon="9.3779683"><ele>592.0</ele><time>2026-04-18T10:14:42.983Z</time></trkpt><trkpt lat="44.89323" lon="9.3778883"><ele>592.0</ele><time>2026-04-18T10:14:44.983Z</time></trkpt><trkpt lat="44.8931883" lon="9.37778"><ele>587.0</ele><time>2026-04-18T10:14:46.982Z</time></trkpt><trkpt lat="44.8931683" lon="9.37763"><ele>582.0</ele><time>2026-04-18T10:14:48.984Z</time></trkpt><trkpt lat="44.8931533" lon="9.37752"><ele>577.0</ele><time>2026-04-18T10:14:49.984Z</time></trkpt><trkpt lat="44.8931417" lon="9.3773783"><ele>572.0</ele><time>2026-04-18T10:14:50.985Z</time></trkpt><trkpt lat="44.89313" lon="9.37723"><ele>567.0</ele><time>2026-04-18T10:14:51.983Z</time></trkpt><trkpt lat="44.8931317" lon="9.3770933"><ele>565.0</ele><time>2026-04-18T10:14:52.982Z</time></trkpt><trkpt lat="44.8931517" lon="9.3769833"><ele>563.0</ele><time>2026-04-18T10:14:53.983Z</time></trkpt><trkpt lat="44.89319" lon="9.3769017"><ele>561.0</ele><time>2026-04-18T10:14:54.982Z</time></trkpt><trkpt lat="44.8932217" lon="9.3768167"><ele>559.0</ele><time>2026-04-18T10:14:55.983Z</time></trkpt><trkpt lat="44.893245" lon="9.3767183"><ele>557.0</ele><time>2026-04-18T10:14:56.983Z</time></trkpt><trkpt lat="44.89325" lon="9.376605"><ele>555.0</ele><time>2026-04-18T10:14:57.982Z</time></trkpt><trkpt lat="44.8932433" lon="9.3764817"><ele>555.0</ele><time>2026-04-18T10:14:58.983Z</time></trkpt><trkpt lat="44.8932383" lon="9.3763633"><ele>555.0</ele><time>2026-04-18T10:14:59.983Z</time></trkpt><trkpt lat="44.8932317" lon="9.3762517"><ele>555.0</ele><time>2026-04-18T10:15:00.982Z</time></trkpt><trkpt lat="44.8932217" lon="9.376135"><ele>555.0</ele><time>2026-04-18T10:15:01.982Z</time></trkpt><trkpt lat="44.893205" lon="9.3760233"><ele>555.0</ele><time>2026-04-18T10:15:02.983Z</time></trkpt><trkpt lat="44.89317" lon="9.3759333"><ele>555.0</ele><time>2026-04-18T10:15:03.982Z</time></trkpt><trkpt lat="44.8931167" lon="9.3758533"><ele>552.8333333333334</ele><time>2026-04-18T10:15:04.983Z</time></trkpt><trkpt lat="44.893045" lon="9.3757917"><ele>550.6666666666666</ele><time>2026-04-18T10:15:05.982Z</time></trkpt><trkpt lat="44.8929717" lon="9.375725"><ele>548.5</ele><time>2026-04-18T10:15:06.983Z</time></trkpt><trkpt lat="44.8928967" lon="9.3756517"><ele>546.3333333333333</ele><time>2026-04-18T10:15:07.983Z</time></trkpt><trkpt lat="44.8928383" lon="9.3755767"><ele>544.1666666666666</ele><time>2026-04-18T10:15:08.984Z</time></trkpt><trkpt lat="44.8927917" lon="9.3755067"><ele>542.0</ele><time>2026-04-18T10:15:09.982Z</time></trkpt><trkpt lat="44.89272" lon="9.37538"><ele>539.2</ele><time>2026-04-18T10:15:11.983Z</time></trkpt><trkpt lat="44.8926667" lon="9.3752367"><ele>536.4000000000001</ele><time>2026-04-18T10:15:13.983Z</time></trkpt><trkpt lat="44.8926383" lon="9.3751567"><ele>533.5999999999999</ele><time>2026-04-18T10:15:14.982Z</time></trkpt><trkpt lat="44.89263" lon="9.3749933"><ele>530.8</ele><time>2026-04-18T10:15:16.982Z</time></trkpt><trkpt lat="44.8926883" lon="9.3749433"><ele>528.0</ele><time>2026-04-18T10:15:18.984Z</time></trkpt><trkpt lat="44.8928083" lon="9.375065"><ele>528.0</ele><time>2026-04-18T10:15:20.983Z</time></trkpt><trkpt lat="44.8928817" lon="9.3751417"><ele>528.0</ele><time>2026-04-18T10:15:21.983Z</time></trkpt><trkpt lat="44.8929583" lon="9.3752067"><ele>528.0</ele><time>2026-04-18T10:15:22.984Z</time></trkpt><trkpt lat="44.8930367" lon="9.3752467"><ele>528.0</ele><time>2026-04-18T10:15:23.983Z</time></trkpt><trkpt lat="44.8931133" lon="9.3752567"><ele>528.0</ele><time>2026-04-18T10:15:24.983Z</time></trkpt><trkpt lat="44.8931867" lon="9.375255"><ele>528.0</ele><time>2026-04-18T10:15:25.984Z</time></trkpt><trkpt lat="44.893255" lon="9.3752433"><ele>528.0</ele><time>2026-04-18T10:15:26.985Z</time></trkpt><trkpt lat="44.8933233" lon="9.3752233"><ele>528.0</ele><time>2026-04-18T10:15:27.984Z</time></trkpt><trkpt lat="44.8934417" lon="9.3751817"><ele>528.0</ele><time>2026-04-18T10:15:29.982Z</time></trkpt><trkpt lat="44.8935283" lon="9.375105"><ele>528.0</ele><time>2026-04-18T10:15:31.982Z</time></trkpt><trkpt lat="44.893465" lon="9.3750217"><ele>528.0</ele><time>2026-04-18T10:15:33.984Z</time></trkpt><trkpt lat="44.8934033" lon="9.3749883"><ele>528.0</ele><time>2026-04-18T10:15:34.983Z</time></trkpt><trkpt lat="44.8933183" lon="9.3749417"><ele>528.0</ele><time>2026-04-18T10:15:35.984Z</time></trkpt><trkpt lat="44.8932383" lon="9.3748817"><ele>528.0</ele><time>2026-04-18T10:15:36.983Z</time></trkpt><trkpt lat="44.89316" lon="9.3748067"><ele>528.0</ele><time>2026-04-18T10:15:37.982Z</time></trkpt><trkpt lat="44.8930933" lon="9.374735"><ele>528.0</ele><time>2026-04-18T10:15:38.982Z</time></trkpt><trkpt lat="44.8930183" lon="9.374665"><ele>528.0</ele><time>2026-04-18T10:15:39.983Z</time></trkpt><trkpt lat="44.892955" lon="9.3745983"><ele>528.0</ele><time>2026-04-18T10:15:40.986Z</time></trkpt><trkpt lat="44.8929117" lon="9.3745283"><ele>525.1999999999999</ele><time>2026-04-18T10:15:41.983Z</time></trkpt><trkpt lat="44.8929767" lon="9.3744183"><ele>522.4</ele><time>2026-04-18T10:15:43.983Z</time></trkpt><trkpt lat="44.8930933" lon="9.3744083"><ele>519.5999999999999</ele><time>2026-04-18T10:15:45.982Z</time></trkpt><trkpt lat="44.8931633" lon="9.3744117"><ele>516.8</ele><time>2026-04-18T10:15:46.983Z</time></trkpt><trkpt lat="44.89323" lon="9.3744117"><ele>514.0</ele><time>2026-04-18T10:15:47.982Z</time></trkpt><trkpt lat="44.8933433" lon="9.3744"><ele>514.0</ele><time>2026-04-18T10:15:49.984Z</time></trkpt><trkpt lat="44.8934083" lon="9.3743833"><ele>514.0</ele><time>2026-04-18T10:15:51.984Z</time></trkpt><trkpt lat="44.8934933" lon="9.3743333"><ele>514.0</ele><time>2026-04-18T10:15:54.983Z</time></trkpt><trkpt lat="44.8935917" lon="9.3742833"><ele>514.0</ele><time>2026-04-18T10:15:56.984Z</time></trkpt><trkpt lat="44.89369" lon="9.3742333"><ele>514.0</ele><time>2026-04-18T10:15:58.984Z</time></trkpt><trkpt lat="44.8937967" lon="9.3742483"><ele>512.0</ele><time>2026-04-18T10:16:00.985Z</time></trkpt><trkpt lat="44.893915" lon="9.3743"><ele>510.0</ele><time>2026-04-18T10:16:02.982Z</time></trkpt><trkpt lat="44.8940033" lon="9.3742933"><ele>508.0</ele><time>2026-04-18T10:16:04.983Z</time></trkpt><trkpt lat="44.8940233" lon="9.3741267"><ele>506.0</ele><time>2026-04-18T10:16:06.983Z</time></trkpt><trkpt lat="44.893995" lon="9.37401"><ele>504.0</ele><time>2026-04-18T10:16:07.983Z</time></trkpt><trkpt lat="44.8939567" lon="9.37389"><ele>501.1666666666667</ele><time>2026-04-18T10:16:08.984Z</time></trkpt><trkpt lat="44.8939233" lon="9.3737633"><ele>498.33333333333337</ele><time>2026-04-18T10:16:09.984Z</time></trkpt><trkpt lat="44.893905" lon="9.3736433"><ele>495.5</ele><time>2026-04-18T10:16:10.984Z</time></trkpt><trkpt lat="44.893885" lon="9.3735233"><ele>492.6666666666667</ele><time>2026-04-18T10:16:11.982Z</time></trkpt><trkpt lat="44.8938633" lon="9.3734183"><ele>489.83333333333337</ele><time>2026-04-18T10:16:12.984Z</time></trkpt><trkpt lat="44.89383" lon="9.37332"><ele>487.0</ele><time>2026-04-18T10:16:13.984Z</time></trkpt><trkpt lat="44.8938083" lon="9.37321"><ele>487.00000000000006</ele><time>2026-04-18T10:16:14.984Z</time></trkpt><trkpt lat="44.8937767" lon="9.3731117"><ele>487.0</ele><time>2026-04-18T10:16:15.984Z</time></trkpt><trkpt lat="44.8937417" lon="9.3730317"><ele>487.0</ele><time>2026-04-18T10:16:16.984Z</time></trkpt><trkpt lat="44.8936967" lon="9.3729567"><ele>487.0</ele><time>2026-04-18T10:16:17.984Z</time></trkpt><trkpt lat="44.89365" lon="9.372895"><ele>487.00000000000006</ele><time>2026-04-18T10:16:18.984Z</time></trkpt><trkpt lat="44.8935567" lon="9.372815"><ele>487.0</ele><time>2026-04-18T10:16:20.983Z</time></trkpt><trkpt lat="44.8934467" lon="9.3728383"><ele>485.00000000000006</ele><time>2026-04-18T10:16:22.983Z</time></trkpt><trkpt lat="44.8933783" lon="9.3728617"><ele>483.0</ele><time>2026-04-18T10:16:23.983Z</time></trkpt><trkpt lat="44.8933017" lon="9.3728783"><ele>481.0</ele><time>2026-04-18T10:16:24.984Z</time></trkpt><trkpt lat="44.893225" lon="9.3728967"><ele>479.0</ele><time>2026-04-18T10:16:25.983Z</time></trkpt><trkpt lat="44.8931433" lon="9.372905"><ele>477.00000000000006</ele><time>2026-04-18T10:16:26.983Z</time></trkpt><trkpt lat="44.8930683" lon="9.3729083"><ele>475.0</ele><time>2026-04-18T10:16:27.983Z</time></trkpt><trkpt lat="44.8929967" lon="9.37288"><ele>475.00000000000006</ele><time>2026-04-18T10:16:28.982Z</time></trkpt><trkpt lat="44.8929283" lon="9.3728417"><ele>475.0</ele><time>2026-04-18T10:16:29.982Z</time></trkpt><trkpt lat="44.892855" lon="9.3728067"><ele>475.0</ele><time>2026-04-18T10:16:30.984Z</time></trkpt><trkpt lat="44.8927767" lon="9.3727767"><ele>475.0</ele><time>2026-04-18T10:16:31.984Z</time></trkpt><trkpt lat="44.89269" lon="9.3727433"><ele>475.00000000000006</ele><time>2026-04-18T10:16:32.984Z</time></trkpt><trkpt lat="44.8926083" lon="9.3727167"><ele>475.0</ele><time>2026-04-18T10:16:33.983Z</time></trkpt><trkpt lat="44.89253" lon="9.3726967"><ele>475.14285714285717</ele><time>2026-04-18T10:16:34.984Z</time></trkpt><trkpt lat="44.892455" lon="9.37268"><ele>475.28571428571433</ele><time>2026-04-18T10:16:35.982Z</time></trkpt><trkpt lat="44.8923783" lon="9.37266"><ele>475.42857142857144</ele><time>2026-04-18T10:16:36.984Z</time></trkpt><trkpt lat="44.892305" lon="9.3726283"><ele>475.57142857142856</ele><time>2026-04-18T10:16:37.982Z</time></trkpt><trkpt lat="44.8922383" lon="9.3725983"><ele>475.7142857142857</ele><time>2026-04-18T10:16:38.983Z</time></trkpt><trkpt lat="44.8921733" lon="9.37256"><ele>475.8571428571429</ele><time>2026-04-18T10:16:39.983Z</time></trkpt><trkpt lat="44.8921083" lon="9.37251"><ele>476.0</ele><time>2026-04-18T10:16:40.982Z</time></trkpt><trkpt lat="44.8920433" lon="9.372455"><ele>476.0</ele><time>2026-04-18T10:16:41.984Z</time></trkpt><trkpt lat="44.8919783" lon="9.3724017"><ele>476.0</ele><time>2026-04-18T10:16:42.983Z</time></trkpt><trkpt lat="44.8919183" lon="9.3723517"><ele>476.0</ele><time>2026-04-18T10:16:43.984Z</time></trkpt><trkpt lat="44.891855" lon="9.3723117"><ele>476.0</ele><time>2026-04-18T10:16:44.983Z</time></trkpt><trkpt lat="44.8917883" lon="9.3723"><ele>476.0</ele><time>2026-04-18T10:16:45.984Z</time></trkpt><trkpt lat="44.8917167" lon="9.372305"><ele>476.0</ele><time>2026-04-18T10:16:46.982Z</time></trkpt><trkpt lat="44.8916417" lon="9.3723167"><ele>476.0</ele><time>2026-04-18T10:16:47.983Z</time></trkpt><trkpt lat="44.8915683" lon="9.372335"><ele>476.16666666666663</ele><time>2026-04-18T10:16:48.984Z</time></trkpt><trkpt lat="44.8914967" lon="9.3723467"><ele>476.3333333333333</ele><time>2026-04-18T10:16:49.984Z</time></trkpt><trkpt lat="44.8914317" lon="9.372355"><ele>476.5</ele><time>2026-04-18T10:16:50.983Z</time></trkpt><trkpt lat="44.8913667" lon="9.3723717"><ele>476.66666666666663</ele><time>2026-04-18T10:16:51.984Z</time></trkpt><trkpt lat="44.89126" lon="9.3724217"><ele>476.8333333333333</ele><time>2026-04-18T10:16:53.983Z</time></trkpt><trkpt lat="44.89118" lon="9.37249"><ele>477.0</ele><time>2026-04-18T10:16:55.984Z</time></trkpt><trkpt lat="44.891115" lon="9.3725833"><ele>477.0</ele><time>2026-04-18T10:16:57.983Z</time></trkpt><trkpt lat="44.8910567" lon="9.3727167"><ele>477.0</ele><time>2026-04-18T10:16:59.982Z</time></trkpt><trkpt lat="44.8910067" lon="9.372875"><ele>477.0</ele><time>2026-04-18T10:17:01.983Z</time></trkpt><trkpt lat="44.8909683" lon="9.372955"><ele>477.0</ele><time>2026-04-18T10:17:02.984Z</time></trkpt><trkpt lat="44.8909233" lon="9.3730317"><ele>477.0</ele><time>2026-04-18T10:17:03.984Z</time></trkpt><trkpt lat="44.8908767" lon="9.3731067"><ele>477.0</ele><time>2026-04-18T10:17:04.983Z</time></trkpt><trkpt lat="44.89083" lon="9.3731883"><ele>476.5</ele><time>2026-04-18T10:17:05.983Z</time></trkpt><trkpt lat="44.8907867" lon="9.373275"><ele>476.0</ele><time>2026-04-18T10:17:06.984Z</time></trkpt><trkpt lat="44.89075" lon="9.3733717"><ele>475.5</ele><time>2026-04-18T10:17:07.983Z</time></trkpt><trkpt lat="44.89072" lon="9.373475"><ele>475.0</ele><time>2026-04-18T10:17:08.983Z</time></trkpt><trkpt lat="44.8907017" lon="9.3735817"><ele>474.5</ele><time>2026-04-18T10:17:09.982Z</time></trkpt><trkpt lat="44.8906933" lon="9.3736933"><ele>474.0</ele><time>2026-04-18T10:17:10.983Z</time></trkpt><trkpt lat="44.8906983" lon="9.373805"><ele>473.8333333333333</ele><time>2026-04-18T10:17:11.982Z</time></trkpt><trkpt lat="44.8907117" lon="9.37392"><ele>473.66666666666663</ele><time>2026-04-18T10:17:12.983Z</time></trkpt><trkpt lat="44.8907233" lon="9.3740333"><ele>473.5</ele><time>2026-04-18T10:17:13.983Z</time></trkpt><trkpt lat="44.890725" lon="9.3741383"><ele>473.3333333333333</ele><time>2026-04-18T10:17:14.984Z</time></trkpt><trkpt lat="44.8907017" lon="9.3742317"><ele>473.16666666666663</ele><time>2026-04-18T10:17:15.983Z</time></trkpt><trkpt lat="44.8906583" lon="9.3743117"><ele>473.0</ele><time>2026-04-18T10:17:16.984Z</time></trkpt><trkpt lat="44.89059" lon="9.3743767"><ele>473.0</ele><time>2026-04-18T10:17:17.983Z</time></trkpt><trkpt lat="44.8905167" lon="9.37444"><ele>472.99999999999994</ele><time>2026-04-18T10:17:18.984Z</time></trkpt><trkpt lat="44.8904433" lon="9.3745083"><ele>472.99999999999994</ele><time>2026-04-18T10:17:19.984Z</time></trkpt><trkpt lat="44.8903683" lon="9.3745817"><ele>473.0</ele><time>2026-04-18T10:17:20.985Z</time></trkpt><trkpt lat="44.8902833" lon="9.3746633"><ele>473.0</ele><time>2026-04-18T10:17:21.983Z</time></trkpt><trkpt lat="44.890195" lon="9.374745"><ele>473.0</ele><time>2026-04-18T10:17:22.984Z</time></trkpt><trkpt lat="44.8901017" lon="9.3748217"><ele>472.99999999999994</ele><time>2026-04-18T10:17:23.984Z</time></trkpt><trkpt lat="44.89001" lon="9.374895"><ele>472.99999999999994</ele><time>2026-04-18T10:17:24.985Z</time></trkpt><trkpt lat="44.88991" lon="9.3749717"><ele>473.0</ele><time>2026-04-18T10:17:25.983Z</time></trkpt><trkpt lat="44.8898" lon="9.3750417"><ele>473.0</ele><time>2026-04-18T10:17:26.983Z</time></trkpt><trkpt lat="44.8896967" lon="9.3750983"><ele>470.4</ele><time>2026-04-18T10:17:27.982Z</time></trkpt><trkpt lat="44.8895967" lon="9.3751583"><ele>467.79999999999995</ele><time>2026-04-18T10:17:28.984Z</time></trkpt><trkpt lat="44.88951" lon="9.375225"><ele>465.2</ele><time>2026-04-18T10:17:29.983Z</time></trkpt><trkpt lat="44.8894333" lon="9.3752983"><ele>462.6</ele><time>2026-04-18T10:17:30.983Z</time></trkpt><trkpt lat="44.889375" lon="9.3753917"><ele>460.0</ele><time>2026-04-18T10:17:31.983Z</time></trkpt><trkpt lat="44.8893333" lon="9.3755083"><ele>461.4</ele><time>2026-04-18T10:17:32.984Z</time></trkpt><trkpt lat="44.8893017" lon="9.3756283"><ele>462.8</ele><time>2026-04-18T10:17:33.984Z</time></trkpt><trkpt lat="44.8892717" lon="9.375735"><ele>464.20000000000005</ele><time>2026-04-18T10:17:34.983Z</time></trkpt><trkpt lat="44.8892067" lon="9.3758633"><ele>465.6</ele><time>2026-04-18T10:17:36.982Z</time></trkpt><trkpt lat="44.8891217" lon="9.3758817"><ele>467.0</ele><time>2026-04-18T10:17:38.984Z</time></trkpt><trkpt lat="44.8890033" lon="9.3758467"><ele>467.16666666666663</ele><time>2026-04-18T10:17:40.984Z</time></trkpt><trkpt lat="44.8888733" lon="9.37586"><ele>467.3333333333333</ele><time>2026-04-18T10:17:42.985Z</time></trkpt><trkpt lat="44.888805" lon="9.37591"><ele>467.5</ele><time>2026-04-18T10:17:43.984Z</time></trkpt><trkpt lat="44.8887383" lon="9.3759683"><ele>467.66666666666663</ele><time>2026-04-18T10:17:44.984Z</time></trkpt><trkpt lat="44.8886683" lon="9.37601"><ele>467.8333333333333</ele><time>2026-04-18T10:17:45.983Z</time></trkpt><trkpt lat="44.8885917" lon="9.3760267"><ele>468.0</ele><time>2026-04-18T10:17:46.983Z</time></trkpt><trkpt lat="44.888515" lon="9.3760117"><ele>468.0</ele><time>2026-04-18T10:17:47.983Z</time></trkpt><trkpt lat="44.888435" lon="9.3759817"><ele>468.0</ele><time>2026-04-18T10:17:48.983Z</time></trkpt><trkpt lat="44.888355" lon="9.3759717"><ele>468.0</ele><time>2026-04-18T10:17:49.983Z</time></trkpt><trkpt lat="44.8882733" lon="9.37598"><ele>468.0</ele><time>2026-04-18T10:17:50.984Z</time></trkpt><trkpt lat="44.8881817" lon="9.3760033"><ele>468.0</ele><time>2026-04-18T10:17:51.985Z</time></trkpt><trkpt lat="44.8880883" lon="9.376035"><ele>468.0</ele><time>2026-04-18T10:17:52.984Z</time></trkpt><trkpt lat="44.8879867" lon="9.37607"><ele>468.6666666666667</ele><time>2026-04-18T10:17:53.984Z</time></trkpt><trkpt lat="44.8878883" lon="9.3760917"><ele>469.33333333333337</ele><time>2026-04-18T10:17:54.983Z</time></trkpt><trkpt lat="44.8878" lon="9.3761117"><ele>470.0</ele><time>2026-04-18T10:17:55.983Z</time></trkpt><trkpt lat="44.887725" lon="9.3761317"><ele>470.6666666666667</ele><time>2026-04-18T10:17:56.983Z</time></trkpt><trkpt lat="44.8876567" lon="9.3761683"><ele>471.33333333333337</ele><time>2026-04-18T10:17:57.984Z</time></trkpt><trkpt lat="44.8875833" lon="9.3762017"><ele>472.0</ele><time>2026-04-18T10:17:58.983Z</time></trkpt><trkpt lat="44.8875017" lon="9.3762467"><ele>472.0</ele><time>2026-04-18T10:17:59.983Z</time></trkpt><trkpt lat="44.8874067" lon="9.37628"><ele>472.00000000000006</ele><time>2026-04-18T10:18:00.984Z</time></trkpt><trkpt lat="44.8873083" lon="9.3763067"><ele>472.00000000000006</ele><time>2026-04-18T10:18:01.983Z</time></trkpt><trkpt lat="44.8872117" lon="9.3763317"><ele>472.0</ele><time>2026-04-18T10:18:02.984Z</time></trkpt><trkpt lat="44.887125" lon="9.3763617"><ele>472.0</ele><time>2026-04-18T10:18:03.985Z</time></trkpt><trkpt lat="44.8870433" lon="9.3763967"><ele>473.85714285714283</ele><time>2026-04-18T10:18:04.983Z</time></trkpt><trkpt lat="44.8869633" lon="9.3764367"><ele>475.7142857142858</ele><time>2026-04-18T10:18:05.984Z</time></trkpt><trkpt lat="44.8868933" lon="9.3764833"><ele>477.5714285714286</ele><time>2026-04-18T10:18:06.984Z</time></trkpt><trkpt lat="44.8868333" lon="9.3765433"><ele>479.42857142857144</ele><time>2026-04-18T10:18:07.984Z</time></trkpt><trkpt lat="44.8867883" lon="9.376615"><ele>481.28571428571433</ele><time>2026-04-18T10:18:08.984Z</time></trkpt><trkpt lat="44.8867533" lon="9.376705"><ele>483.1428571428572</ele><time>2026-04-18T10:18:09.983Z</time></trkpt><trkpt lat="44.8867367" lon="9.3767983"><ele>485.00000000000006</ele><time>2026-04-18T10:18:10.984Z</time></trkpt><trkpt lat="44.8867367" lon="9.3768983"><ele>484.99999999999994</ele><time>2026-04-18T10:18:11.984Z</time></trkpt><trkpt lat="44.8867533" lon="9.3770017"><ele>485.0</ele><time>2026-04-18T10:18:12.982Z</time></trkpt><trkpt lat="44.88678" lon="9.3771117"><ele>485.0</ele><time>2026-04-18T10:18:13.985Z</time></trkpt><trkpt lat="44.8868117" lon="9.3772117"><ele>485.0</ele><time>2026-04-18T10:18:14.983Z</time></trkpt><trkpt lat="44.88685" lon="9.377295"><ele>484.99999999999994</ele><time>2026-04-18T10:18:15.984Z</time></trkpt><trkpt lat="44.886925" lon="9.3774083"><ele>485.0</ele><time>2026-04-18T10:18:17.984Z</time></trkpt><trkpt lat="44.8868533" lon="9.3774767"><ele>487.4285714285715</ele><time>2026-04-18T10:18:19.984Z</time></trkpt><trkpt lat="44.8867833" lon="9.3774817"><ele>489.8571428571429</ele><time>2026-04-18T10:18:20.984Z</time></trkpt><trkpt lat="44.8867083" lon="9.3774817"><ele>492.2857142857143</ele><time>2026-04-18T10:18:21.983Z</time></trkpt><trkpt lat="44.886635" lon="9.3775"><ele>494.7142857142857</ele><time>2026-04-18T10:18:22.984Z</time></trkpt><trkpt lat="44.8865583" lon="9.3775167"><ele>497.1428571428571</ele><time>2026-04-18T10:18:23.985Z</time></trkpt><trkpt lat="44.8864917" lon="9.377545"><ele>499.5714285714285</ele><time>2026-04-18T10:18:24.984Z</time></trkpt><trkpt lat="44.8864267" lon="9.3775883"><ele>501.99999999999994</ele><time>2026-04-18T10:18:25.986Z</time></trkpt><trkpt lat="44.8863683" lon="9.3776383"><ele>502.00000000000006</ele><time>2026-04-18T10:18:26.983Z</time></trkpt><trkpt lat="44.8863083" lon="9.3776967"><ele>502.0</ele><time>2026-04-18T10:18:27.983Z</time></trkpt><trkpt lat="44.8862533" lon="9.3777633"><ele>502.0</ele><time>2026-04-18T10:18:28.983Z</time></trkpt><trkpt lat="44.886195" lon="9.3778433"><ele>502.0</ele><time>2026-04-18T10:18:29.984Z</time></trkpt><trkpt lat="44.8861333" lon="9.3779117"><ele>502.00000000000006</ele><time>2026-04-18T10:18:30.983Z</time></trkpt><trkpt lat="44.8860683" lon="9.3779817"><ele>502.0</ele><time>2026-04-18T10:18:31.983Z</time></trkpt><trkpt lat="44.8860067" lon="9.37804"><ele>503.1666666666667</ele><time>2026-04-18T10:18:32.985Z</time></trkpt><trkpt lat="44.8859483" lon="9.3780967"><ele>504.33333333333337</ele><time>2026-04-18T10:18:33.984Z</time></trkpt><trkpt lat="44.8858967" lon="9.378165"><ele>505.5</ele><time>2026-04-18T10:18:34.983Z</time></trkpt><trkpt lat="44.88585" lon="9.3782483"><ele>506.66666666666663</ele><time>2026-04-18T10:18:35.983Z</time></trkpt><trkpt lat="44.885795" lon="9.37833"><ele>507.8333333333333</ele><time>2026-04-18T10:18:36.982Z</time></trkpt><trkpt lat="44.8857333" lon="9.3784167"><ele>509.0</ele><time>2026-04-18T10:18:37.984Z</time></trkpt><trkpt lat="44.8856733" lon="9.3785067"><ele>508.99999999999994</ele><time>2026-04-18T10:18:38.983Z</time></trkpt><trkpt lat="44.8856133" lon="9.3785967"><ele>509.0</ele><time>2026-04-18T10:18:39.983Z</time></trkpt><trkpt lat="44.88556" lon="9.378695"><ele>509.0</ele><time>2026-04-18T10:18:40.984Z</time></trkpt><trkpt lat="44.8855067" lon="9.378785"><ele>509.0</ele><time>2026-04-18T10:18:41.984Z</time></trkpt><trkpt lat="44.885445" lon="9.3788567"><ele>508.99999999999994</ele><time>2026-04-18T10:18:42.983Z</time></trkpt><trkpt lat="44.8853783" lon="9.37891"><ele>509.0</ele><time>2026-04-18T10:18:43.984Z</time></trkpt><trkpt lat="44.8853133" lon="9.378945"><ele>509.99999999999994</ele><time>2026-04-18T10:18:44.984Z</time></trkpt><trkpt lat="44.8852467" lon="9.37898"><ele>511.0</ele><time>2026-04-18T10:18:45.983Z</time></trkpt><trkpt lat="44.8851917" lon="9.3790267"><ele>512.0</ele><time>2026-04-18T10:18:46.984Z</time></trkpt><trkpt lat="44.8851267" lon="9.3790883"><ele>513.0</ele><time>2026-04-18T10:18:47.984Z</time></trkpt><trkpt lat="44.885065" lon="9.379155"><ele>514.0</ele><time>2026-04-18T10:18:48.984Z</time></trkpt><trkpt lat="44.8849967" lon="9.3792167"><ele>515.0</ele><time>2026-04-18T10:18:49.985Z</time></trkpt><trkpt lat="44.88492" lon="9.3792717"><ele>515.0</ele><time>2026-04-18T10:18:50.985Z</time></trkpt><trkpt lat="44.8848333" lon="9.37932"><ele>515.0</ele><time>2026-04-18T10:18:51.983Z</time></trkpt><trkpt lat="44.8847417" lon="9.379365"><ele>515.0</ele><time>2026-04-18T10:18:52.983Z</time></trkpt><trkpt lat="44.8846467" lon="9.3794117"><ele>515.0</ele><time>2026-04-18T10:18:53.983Z</time></trkpt><trkpt lat="44.8845567" lon="9.3794417"><ele>515.0</ele><time>2026-04-18T10:18:54.983Z</time></trkpt><trkpt lat="44.8844683" lon="9.3794633"><ele>515.0</ele><time>2026-04-18T10:18:55.984Z</time></trkpt><trkpt lat="44.88438" lon="9.3794783"><ele>515.0</ele><time>2026-04-18T10:18:56.985Z</time></trkpt><trkpt lat="44.8842883" lon="9.3794833"><ele>515.0</ele><time>2026-04-18T10:18:57.983Z</time></trkpt><trkpt lat="44.8842033" lon="9.379475"><ele>515.0</ele><time>2026-04-18T10:18:58.983Z</time></trkpt><trkpt lat="44.884125" lon="9.3794417"><ele>515.0</ele><time>2026-04-18T10:18:59.985Z</time></trkpt><trkpt lat="44.8840583" lon="9.3793767"><ele>515.0</ele><time>2026-04-18T10:19:00.984Z</time></trkpt><trkpt lat="44.8839967" lon="9.3793167"><ele>515.0</ele><time>2026-04-18T10:19:01.985Z</time></trkpt><trkpt lat="44.8839367" lon="9.37927"><ele>515.0</ele><time>2026-04-18T10:19:02.983Z</time></trkpt><trkpt lat="44.8838733" lon="9.3792433"><ele>515.0</ele><time>2026-04-18T10:19:03.983Z</time></trkpt><trkpt lat="44.8838017" lon="9.3792367"><ele>515.0</ele><time>2026-04-18T10:19:04.985Z</time></trkpt><trkpt lat="44.883735" lon="9.379235"><ele>515.0</ele><time>2026-04-18T10:19:05.983Z</time></trkpt><trkpt lat="44.8836667" lon="9.3792267"><ele>515.0</ele><time>2026-04-18T10:19:06.983Z</time></trkpt><trkpt lat="44.8835983" lon="9.3792183"><ele>515.0</ele><time>2026-04-18T10:19:07.983Z</time></trkpt><trkpt lat="44.8835317" lon="9.3792117"><ele>514.4</ele><time>2026-04-18T10:19:08.986Z</time></trkpt><trkpt lat="44.8834217" lon="9.37918"><ele>513.8</ele><time>2026-04-18T10:19:10.984Z</time></trkpt><trkpt lat="44.88335" lon="9.3790983"><ele>513.2</ele><time>2026-04-18T10:19:12.985Z</time></trkpt><trkpt lat="44.8833083" lon="9.3789883"><ele>512.6</ele><time>2026-04-18T10:19:14.985Z</time></trkpt><trkpt lat="44.8832733" lon="9.3788783"><ele>512.0</ele><time>2026-04-18T10:19:16.983Z</time></trkpt><trkpt lat="44.8832467" lon="9.378755"><ele>510.8</ele><time>2026-04-18T10:19:18.983Z</time></trkpt><trkpt lat="44.8832183" lon="9.378635"><ele>509.6</ele><time>2026-04-18T10:19:20.984Z</time></trkpt><trkpt lat="44.88318" lon="9.37851"><ele>508.40000000000003</ele><time>2026-04-18T10:19:22.984Z</time></trkpt><trkpt lat="44.883115" lon="9.3784167"><ele>507.20000000000005</ele><time>2026-04-18T10:19:24.983Z</time></trkpt><trkpt lat="44.88302" lon="9.3783717"><ele>506.0</ele><time>2026-04-18T10:19:26.984Z</time></trkpt><trkpt lat="44.8829483" lon="9.378415"><ele>506.0</ele><time>2026-04-18T10:19:28.985Z</time></trkpt><trkpt lat="44.8828983" lon="9.3785717"><ele>506.0</ele><time>2026-04-18T10:19:30.983Z</time></trkpt><trkpt lat="44.88289" lon="9.3786883"><ele>506.0</ele><time>2026-04-18T10:19:31.983Z</time></trkpt><trkpt lat="44.882885" lon="9.3788217"><ele>506.0</ele><time>2026-04-18T10:19:32.983Z</time></trkpt><trkpt lat="44.8828817" lon="9.378965"><ele>506.0</ele><time>2026-04-18T10:19:33.983Z</time></trkpt><trkpt lat="44.882875" lon="9.379115"><ele>507.20000000000005</ele><time>2026-04-18T10:19:34.983Z</time></trkpt><trkpt lat="44.8828667" lon="9.3792667"><ele>508.40000000000003</ele><time>2026-04-18T10:19:35.983Z</time></trkpt><trkpt lat="44.8828617" lon="9.3794133"><ele>509.6</ele><time>2026-04-18T10:19:36.985Z</time></trkpt><trkpt lat="44.8828567" lon="9.3795617"><ele>510.8</ele><time>2026-04-18T10:19:37.983Z</time></trkpt><trkpt lat="44.8828533" lon="9.3797017"><ele>512.0</ele><time>2026-04-18T10:19:38.984Z</time></trkpt><trkpt lat="44.8828467" lon="9.3798383"><ele>512.2</ele><time>2026-04-18T10:19:39.984Z</time></trkpt><trkpt lat="44.882835" lon="9.3799683"><ele>512.4000000000001</ele><time>2026-04-18T10:19:40.984Z</time></trkpt><trkpt lat="44.8828183" lon="9.3800933"><ele>512.5999999999999</ele><time>2026-04-18T10:19:41.984Z</time></trkpt><trkpt lat="44.8827933" lon="9.380215"><ele>512.8</ele><time>2026-04-18T10:19:42.984Z</time></trkpt><trkpt lat="44.8827683" lon="9.380345"><ele>513.0</ele><time>2026-04-18T10:19:43.983Z</time></trkpt><trkpt lat="44.882745" lon="9.3804917"><ele>514.6</ele><time>2026-04-18T10:19:44.984Z</time></trkpt><trkpt lat="44.8827217" lon="9.3806333"><ele>516.1999999999999</ele><time>2026-04-18T10:19:45.983Z</time></trkpt><trkpt lat="44.88269" lon="9.3807617"><ele>517.8</ele><time>2026-04-18T10:19:46.983Z</time></trkpt><trkpt lat="44.8826433" lon="9.3808767"><ele>519.4</ele><time>2026-04-18T10:19:47.984Z</time></trkpt><trkpt lat="44.8825833" lon="9.3809817"><ele>521.0</ele><time>2026-04-18T10:19:48.983Z</time></trkpt><trkpt lat="44.882525" lon="9.3810783"><ele>517.0</ele><time>2026-04-18T10:19:49.984Z</time></trkpt><trkpt lat="44.8824633" lon="9.381165"><ele>513.0</ele><time>2026-04-18T10:19:50.983Z</time></trkpt><trkpt lat="44.8824" lon="9.3812333"><ele>509.0</ele><time>2026-04-18T10:19:51.983Z</time></trkpt><trkpt lat="44.8823217" lon="9.3812667"><ele>505.0</ele><time>2026-04-18T10:19:52.983Z</time></trkpt><trkpt lat="44.88219" lon="9.3812"><ele>501.0</ele><time>2026-04-18T10:19:54.984Z</time></trkpt><trkpt lat="44.8821133" lon="9.38115"><ele>501.0</ele><time>2026-04-18T10:19:55.984Z</time></trkpt><trkpt lat="44.8820283" lon="9.381115"><ele>501.0</ele><time>2026-04-18T10:19:56.984Z</time></trkpt><trkpt lat="44.8819483" lon="9.3811083"><ele>501.0</ele><time>2026-04-18T10:19:57.984Z</time></trkpt><trkpt lat="44.88186" lon="9.3811367"><ele>501.0</ele><time>2026-04-18T10:19:58.984Z</time></trkpt><trkpt lat="44.8817617" lon="9.381195"><ele>501.0</ele><time>2026-04-18T10:19:59.983Z</time></trkpt><trkpt lat="44.8816433" lon="9.3812617"><ele>499.25</ele><time>2026-04-18T10:20:00.983Z</time></trkpt><trkpt lat="44.8815133" lon="9.381325"><ele>497.5</ele><time>2026-04-18T10:20:01.984Z</time></trkpt><trkpt lat="44.8813867" lon="9.3813933"><ele>495.75</ele><time>2026-04-18T10:20:02.984Z</time></trkpt><trkpt lat="44.881275" lon="9.3814567"><ele>494.0</ele><time>2026-04-18T10:20:03.984Z</time></trkpt><trkpt lat="44.881175" lon="9.3815167"><ele>496.2</ele><time>2026-04-18T10:20:04.984Z</time></trkpt><trkpt lat="44.8810783" lon="9.3815783"><ele>498.4</ele><time>2026-04-18T10:20:05.984Z</time></trkpt><trkpt lat="44.8809867" lon="9.3816467"><ele>500.6</ele><time>2026-04-18T10:20:06.983Z</time></trkpt><trkpt lat="44.8809033" lon="9.381725"><ele>502.8</ele><time>2026-04-18T10:20:07.983Z</time></trkpt><trkpt lat="44.8808167" lon="9.3818017"><ele>505.0</ele><time>2026-04-18T10:20:08.983Z</time></trkpt><trkpt lat="44.880725" lon="9.3818667"><ele>505.0</ele><time>2026-04-18T10:20:09.983Z</time></trkpt><trkpt lat="44.8806333" lon="9.3819217"><ele>505.0</ele><time>2026-04-18T10:20:10.984Z</time></trkpt><trkpt lat="44.8805417" lon="9.38198"><ele>505.0</ele><time>2026-04-18T10:20:11.984Z</time></trkpt><trkpt lat="44.8804567" lon="9.38204"><ele>505.0</ele><time>2026-04-18T10:20:12.983Z</time></trkpt><trkpt lat="44.8803667" lon="9.3821"><ele>505.0</ele><time>2026-04-18T10:20:13.985Z</time></trkpt><trkpt lat="44.880275" lon="9.38216"><ele>505.2</ele><time>2026-04-18T10:20:14.983Z</time></trkpt><trkpt lat="44.8801917" lon="9.3822233"><ele>505.4</ele><time>2026-04-18T10:20:15.985Z</time></trkpt><trkpt lat="44.8801133" lon="9.3822983"><ele>505.6</ele><time>2026-04-18T10:20:16.983Z</time></trkpt><trkpt lat="44.880045" lon="9.382375"><ele>505.8</ele><time>2026-04-18T10:20:17.983Z</time></trkpt><trkpt lat="44.879965" lon="9.3824467"><ele>506.0</ele><time>2026-04-18T10:20:18.983Z</time></trkpt><trkpt lat="44.8798733" lon="9.3825067"><ele>506.0</ele><time>2026-04-18T10:20:19.984Z</time></trkpt><trkpt lat="44.8797683" lon="9.3825483"><ele>506.0</ele><time>2026-04-18T10:20:20.984Z</time></trkpt><trkpt lat="44.8796667" lon="9.3825867"><ele>506.0</ele><time>2026-04-18T10:20:21.984Z</time></trkpt><trkpt lat="44.8795717" lon="9.382635"><ele>506.0</ele><time>2026-04-18T10:20:22.983Z</time></trkpt><trkpt lat="44.879485" lon="9.3827017"><ele>506.0</ele><time>2026-04-18T10:20:23.983Z</time></trkpt><trkpt lat="44.8794033" lon="9.3827867"><ele>506.0</ele><time>2026-04-18T10:20:24.982Z</time></trkpt><trkpt lat="44.8793133" lon="9.382865"><ele>506.0</ele><time>2026-04-18T10:20:25.985Z</time></trkpt><trkpt lat="44.87922" lon="9.38293"><ele>506.0</ele><time>2026-04-18T10:20:26.985Z</time></trkpt><trkpt lat="44.8791217" lon="9.3829833"><ele>506.0</ele><time>2026-04-18T10:20:27.985Z</time></trkpt><trkpt lat="44.8790283" lon="9.3830233"><ele>506.0</ele><time>2026-04-18T10:20:28.985Z</time></trkpt><trkpt lat="44.8789317" lon="9.3830617"><ele>508.25</ele><time>2026-04-18T10:20:29.984Z</time></trkpt><trkpt lat="44.8788317" lon="9.3831083"><ele>510.5</ele><time>2026-04-18T10:20:30.984Z</time></trkpt><trkpt lat="44.8787233" lon="9.383165"><ele>512.75</ele><time>2026-04-18T10:20:31.983Z</time></trkpt><trkpt lat="44.87861" lon="9.3832317"><ele>515.0</ele><time>2026-04-18T10:20:32.983Z</time></trkpt><trkpt lat="44.8784867" lon="9.3833017"><ele>512.75</ele><time>2026-04-18T10:20:33.983Z</time></trkpt><trkpt lat="44.8783583" lon="9.3833633"><ele>510.5</ele><time>2026-04-18T10:20:34.985Z</time></trkpt><trkpt lat="44.8782283" lon="9.3834267"><ele>508.25</ele><time>2026-04-18T10:20:35.984Z</time></trkpt><trkpt lat="44.8781" lon="9.3834867"><ele>506.0</ele><time>2026-04-18T10:20:36.984Z</time></trkpt><trkpt lat="44.8779783" lon="9.3835417"><ele>506.0</ele><time>2026-04-18T10:20:37.985Z</time></trkpt><trkpt lat="44.8778617" lon="9.3835933"><ele>506.0</ele><time>2026-04-18T10:20:38.984Z</time></trkpt><trkpt lat="44.8777517" lon="9.38364"><ele>506.0</ele><time>2026-04-18T10:20:39.986Z</time></trkpt><trkpt lat="44.8776467" lon="9.3836817"><ele>506.0</ele><time>2026-04-18T10:20:40.985Z</time></trkpt><trkpt lat="44.87755" lon="9.383725"><ele>506.0</ele><time>2026-04-18T10:20:41.984Z</time></trkpt><trkpt lat="44.8774567" lon="9.3837483"><ele>505.16666666666663</ele><time>2026-04-18T10:20:42.984Z</time></trkpt><trkpt lat="44.8773733" lon="9.383775"><ele>504.3333333333333</ele><time>2026-04-18T10:20:43.983Z</time></trkpt><trkpt lat="44.8772967" lon="9.3838117"><ele>503.5</ele><time>2026-04-18T10:20:44.984Z</time></trkpt><trkpt lat="44.877225" lon="9.3838683"><ele>502.66666666666663</ele><time>2026-04-18T10:20:45.984Z</time></trkpt><trkpt lat="44.8771667" lon="9.3839283"><ele>501.8333333333333</ele><time>2026-04-18T10:20:46.984Z</time></trkpt><trkpt lat="44.877115" lon="9.3839933"><ele>501.0</ele><time>2026-04-18T10:20:47.984Z</time></trkpt><trkpt lat="44.8770683" lon="9.3840583"><ele>502.6666666666667</ele><time>2026-04-18T10:20:48.983Z</time></trkpt><trkpt lat="44.8770283" lon="9.38413"><ele>504.33333333333337</ele><time>2026-04-18T10:20:49.983Z</time></trkpt><trkpt lat="44.8770117" lon="9.3842217"><ele>506.0</ele><time>2026-04-18T10:20:50.984Z</time></trkpt><trkpt lat="44.877015" lon="9.38434"><ele>507.6666666666667</ele><time>2026-04-18T10:20:51.983Z</time></trkpt><trkpt lat="44.8770367" lon="9.38448"><ele>509.33333333333337</ele><time>2026-04-18T10:20:52.985Z</time></trkpt><trkpt lat="44.8770683" lon="9.3846233"><ele>511.0</ele><time>2026-04-18T10:20:53.984Z</time></trkpt><trkpt lat="44.8770917" lon="9.38476"><ele>511.33333333333337</ele><time>2026-04-18T10:20:54.984Z</time></trkpt><trkpt lat="44.8771117" lon="9.38489"><ele>511.6666666666667</ele><time>2026-04-18T10:20:55.983Z</time></trkpt><trkpt lat="44.877125" lon="9.3850133"><ele>512.0</ele><time>2026-04-18T10:20:56.985Z</time></trkpt><trkpt lat="44.87712" lon="9.3851283"><ele>512.3333333333334</ele><time>2026-04-18T10:20:57.985Z</time></trkpt><trkpt lat="44.8770833" lon="9.3852267"><ele>512.6666666666666</ele><time>2026-04-18T10:20:58.983Z</time></trkpt><trkpt lat="44.87702" lon="9.3853033"><ele>513.0</ele><time>2026-04-18T10:20:59.983Z</time></trkpt><trkpt lat="44.876945" lon="9.3853567"><ele>513.0</ele><time>2026-04-18T10:21:00.983Z</time></trkpt><trkpt lat="44.87686" lon="9.3853867"><ele>513.0</ele><time>2026-04-18T10:21:01.983Z</time></trkpt><trkpt lat="44.8767767" lon="9.3853933"><ele>513.0</ele><time>2026-04-18T10:21:02.983Z</time></trkpt><trkpt lat="44.8766933" lon="9.3853767"><ele>513.0</ele><time>2026-04-18T10:21:03.984Z</time></trkpt><trkpt lat="44.87662" lon="9.38533"><ele>513.0</ele><time>2026-04-18T10:21:04.983Z</time></trkpt><trkpt lat="44.8765533" lon="9.3852667"><ele>513.0</ele><time>2026-04-18T10:21:05.983Z</time></trkpt><trkpt lat="44.8764983" lon="9.3851883"><ele>510.3333333333333</ele><time>2026-04-18T10:21:06.984Z</time></trkpt><trkpt lat="44.8764567" lon="9.3850967"><ele>507.66666666666663</ele><time>2026-04-18T10:21:07.984Z</time></trkpt><trkpt lat="44.8764233" lon="9.38499"><ele>505.0</ele><time>2026-04-18T10:21:08.985Z</time></trkpt><trkpt lat="44.8764033" lon="9.3848783"><ele>502.3333333333333</ele><time>2026-04-18T10:21:09.983Z</time></trkpt><trkpt lat="44.87639" lon="9.3847667"><ele>499.66666666666663</ele><time>2026-04-18T10:21:10.985Z</time></trkpt><trkpt lat="44.87639" lon="9.3846517"><ele>497.0</ele><time>2026-04-18T10:21:11.986Z</time></trkpt><trkpt lat="44.8763967" lon="9.3845433"><ele>496.66666666666663</ele><time>2026-04-18T10:21:12.984Z</time></trkpt><trkpt lat="44.8764067" lon="9.384435"><ele>496.3333333333333</ele><time>2026-04-18T10:21:13.983Z</time></trkpt><trkpt lat="44.8764133" lon="9.38433"><ele>496.0</ele><time>2026-04-18T10:21:14.984Z</time></trkpt><trkpt lat="44.87642" lon="9.3842317"><ele>495.66666666666663</ele><time>2026-04-18T10:21:15.985Z</time></trkpt><trkpt lat="44.8764017" lon="9.384085"><ele>495.3333333333333</ele><time>2026-04-18T10:21:17.984Z</time></trkpt><trkpt lat="44.8763433" lon="9.3840033"><ele>495.0</ele><time>2026-04-18T10:21:20.986Z</time></trkpt><trkpt lat="44.8763583" lon="9.3838933"><ele>495.0</ele><time>2026-04-18T10:21:24.983Z</time></trkpt><trkpt lat="44.876375" lon="9.383775"><ele>495.0</ele><time>2026-04-18T10:21:27.983Z</time></trkpt><trkpt lat="44.876405" lon="9.3836733"><ele>495.0</ele><time>2026-04-18T10:21:30.984Z</time></trkpt><trkpt lat="44.8763783" lon="9.3837833"><ele>495.0</ele><time>2026-04-18T10:24:57.984Z</time></trkpt><trkpt lat="44.8763467" lon="9.38387"><ele>495.0</ele><time>2026-04-18T10:25:02.984Z</time></trkpt><trkpt lat="44.8762883" lon="9.3839067"><ele>495.0</ele><time>2026-04-18T10:26:09.985Z</time></trkpt><trkpt lat="44.87631" lon="9.3837867"><ele>495.0</ele><time>2026-04-18T10:27:54.986Z</time></trkpt><trkpt lat="44.8762448" lon="9.3838036"><ele>495.0</ele><time>2026-04-18T10:28:43.023Z</time></trkpt><trkpt lat="44.8762498" lon="9.3839212"><ele>495.0</ele><time>2026-04-18T10:33:32.983Z</time></trkpt><trkpt lat="44.8762626" lon="9.3838039"><ele>495.0</ele><time>2026-04-18T10:35:06.679Z</time></trkpt><trkpt lat="44.8763253" lon="9.3838523"><ele>495.0</ele><time>2026-04-18T10:44:42.008Z</time></trkpt><trkpt lat="44.8763899" lon="9.3838722"><ele>495.0</ele><time>2026-04-18T10:45:29.016Z</time></trkpt><trkpt lat="44.8765325" lon="9.3838963"><ele>494.1666666666667</ele><time>2026-04-18T10:46:00.008Z</time></trkpt><trkpt lat="44.8765006" lon="9.3838178"><ele>493.33333333333337</ele><time>2026-04-18T10:47:03.031Z</time></trkpt><trkpt lat="44.8764484" lon="9.3837655"><ele>492.5</ele><time>2026-04-18T10:47:37.04Z</time></trkpt><trkpt lat="44.8763503" lon="9.3837071"><ele>491.6666666666667</ele><time>2026-04-18T10:49:57.024Z</time></trkpt><trkpt lat="44.8762929" lon="9.3836516"><ele>490.83333333333337</ele><time>2026-04-18T10:50:10.024Z</time></trkpt><trkpt lat="44.8762716" lon="9.3838193"><ele>490.0</ele><time>2026-04-18T10:54:41.588Z</time></trkpt><trkpt lat="44.8762114" lon="9.3837928"><ele>490.00000000000006</ele><time>2026-04-18T11:23:56.984Z</time></trkpt><trkpt lat="44.8762411" lon="9.3837134"><ele>490.0</ele><time>2026-04-18T11:29:01.075Z</time></trkpt><trkpt lat="44.8762537" lon="9.3838446"><ele>490.0</ele><time>2026-04-18T11:32:35.004Z</time></trkpt><trkpt lat="44.8761851" lon="9.3838188"><ele>490.0</ele><time>2026-04-18T11:32:39.059Z</time></trkpt><trkpt lat="44.876114" lon="9.3838168"><ele>490.00000000000006</ele><time>2026-04-18T11:32:44.051Z</time></trkpt><trkpt lat="44.8761755" lon="9.3837754"><ele>490.0</ele><time>2026-04-18T11:33:01.004Z</time></trkpt><trkpt lat="44.8762604" lon="9.3836785"><ele>490.00000000000006</ele><time>2026-04-18T11:33:08.846Z</time></trkpt><trkpt lat="44.8762777" lon="9.3837911"><ele>490.0</ele><time>2026-04-18T11:33:10.051Z</time></trkpt><trkpt lat="44.8762309" lon="9.3838834"><ele>490.0</ele><time>2026-04-18T11:33:15.043Z</time></trkpt><trkpt lat="44.8762754" lon="9.3838054"><ele>490.0</ele><time>2026-04-18T11:34:04.031Z</time></trkpt><trkpt lat="44.8763478" lon="9.3837254"><ele>490.00000000000006</ele><time>2026-04-18T11:34:43.035Z</time></trkpt><trkpt lat="44.8764043" lon="9.3836767"><ele>490.0</ele><time>2026-04-18T11:34:49.068Z</time></trkpt><trkpt lat="44.8764788" lon="9.3836768"><ele>490.00000000000006</ele><time>2026-04-18T11:34:54.06Z</time></trkpt><trkpt lat="44.8765305" lon="9.3836001"><ele>490.0</ele><time>2026-04-18T11:39:09.985Z</time></trkpt><trkpt lat="44.8765869" lon="9.3835295"><ele>490.0</ele><time>2026-04-18T11:39:10.985Z</time></trkpt><trkpt lat="44.8765155" lon="9.3835609"><ele>490.0</ele><time>2026-04-18T11:39:19.984Z</time></trkpt><trkpt lat="44.8764343" lon="9.3836574"><ele>490.00000000000006</ele><time>2026-04-18T11:39:23.051Z</time></trkpt><trkpt lat="44.8763889" lon="9.3837763"><ele>490.0</ele><time>2026-04-18T11:39:25.028Z</time></trkpt><trkpt lat="44.8763766" lon="9.3838709"><ele>490.83333333333337</ele><time>2026-04-18T11:39:26.067Z</time></trkpt><trkpt lat="44.8763596" lon="9.3839903"><ele>491.6666666666667</ele><time>2026-04-18T11:39:28.062Z</time></trkpt><trkpt lat="44.8763329" lon="9.3841047"><ele>492.5</ele><time>2026-04-18T11:39:30Z</time></trkpt><trkpt lat="44.8763022" lon="9.3842522"><ele>493.33333333333337</ele><time>2026-04-18T11:39:31.987Z</time></trkpt><trkpt lat="44.8762836" lon="9.3843485"><ele>494.1666666666667</ele><time>2026-04-18T11:39:32.984Z</time></trkpt><trkpt lat="44.8762554" lon="9.3844443"><ele>495.0</ele><time>2026-04-18T11:39:33.983Z</time></trkpt><trkpt lat="44.8762206" lon="9.3845325"><ele>495.0</ele><time>2026-04-18T11:39:34.984Z</time></trkpt><trkpt lat="44.8761797" lon="9.3846137"><ele>495.0</ele><time>2026-04-18T11:39:35.985Z</time></trkpt><trkpt lat="44.8761374" lon="9.384692"><ele>495.0</ele><time>2026-04-18T11:39:36.985Z</time></trkpt><trkpt lat="44.8760952" lon="9.3847589"><ele>495.0</ele><time>2026-04-18T11:39:37.984Z</time></trkpt><trkpt lat="44.8760172" lon="9.384871"><ele>495.0</ele><time>2026-04-18T11:39:39.984Z</time></trkpt><trkpt lat="44.8759473" lon="9.3849617"><ele>495.0</ele><time>2026-04-18T11:39:41.983Z</time></trkpt><trkpt lat="44.8758782" lon="9.3850271"><ele>495.0</ele><time>2026-04-18T11:39:43.984Z</time></trkpt><trkpt lat="44.875798" lon="9.3850324"><ele>495.0</ele><time>2026-04-18T11:39:45.984Z</time></trkpt><trkpt lat="44.8757525" lon="9.3849565"><ele>495.0</ele><time>2026-04-18T11:39:47.986Z</time></trkpt><trkpt lat="44.8758087" lon="9.3848553"><ele>495.0</ele><time>2026-04-18T11:39:49.984Z</time></trkpt><trkpt lat="44.8758677" lon="9.3847888"><ele>495.0</ele><time>2026-04-18T11:39:50.984Z</time></trkpt><trkpt lat="44.8759283" lon="9.3847277"><ele>495.0</ele><time>2026-04-18T11:39:51.984Z</time></trkpt><trkpt lat="44.8759809" lon="9.3846674"><ele>495.0</ele><time>2026-04-18T11:39:52.983Z</time></trkpt><trkpt lat="44.8760399" lon="9.3845368"><ele>495.0</ele><time>2026-04-18T11:39:54.983Z</time></trkpt><trkpt lat="44.8760157" lon="9.384418"><ele>495.0</ele><time>2026-04-18T11:39:56.986Z</time></trkpt><trkpt lat="44.8759298" lon="9.3843776"><ele>495.0</ele><time>2026-04-18T11:39:58.984Z</time></trkpt><trkpt lat="44.8758683" lon="9.3844333"><ele>495.0</ele><time>2026-04-18T11:39:59.983Z</time></trkpt><trkpt lat="44.8758017" lon="9.3844783"><ele>495.0</ele><time>2026-04-18T11:40:00.983Z</time></trkpt><trkpt lat="44.87573" lon="9.384525"><ele>493.0</ele><time>2026-04-18T11:40:01.984Z</time></trkpt><trkpt lat="44.87566" lon="9.3845767"><ele>491.0</ele><time>2026-04-18T11:40:02.984Z</time></trkpt><trkpt lat="44.87559" lon="9.3846283"><ele>489.0</ele><time>2026-04-18T11:40:03.984Z</time></trkpt><trkpt lat="44.87552" lon="9.3846783"><ele>487.0</ele><time>2026-04-18T11:40:04.983Z</time></trkpt><trkpt lat="44.8754483" lon="9.384735"><ele>485.0</ele><time>2026-04-18T11:40:05.982Z</time></trkpt><trkpt lat="44.8753783" lon="9.3848"><ele>483.0</ele><time>2026-04-18T11:40:06.984Z</time></trkpt><trkpt lat="44.8753033" lon="9.384865"><ele>483.0</ele><time>2026-04-18T11:40:07.984Z</time></trkpt><trkpt lat="44.87523" lon="9.3849283"><ele>483.0</ele><time>2026-04-18T11:40:08.983Z</time></trkpt><trkpt lat="44.8751633" lon="9.3849917"><ele>483.0</ele><time>2026-04-18T11:40:09.983Z</time></trkpt><trkpt lat="44.8750917" lon="9.385055"><ele>483.0</ele><time>2026-04-18T11:40:10.984Z</time></trkpt><trkpt lat="44.8750283" lon="9.3851183"><ele>483.0</ele><time>2026-04-18T11:40:11.984Z</time></trkpt><trkpt lat="44.8749733" lon="9.3851783"><ele>483.0</ele><time>2026-04-18T11:40:12.984Z</time></trkpt><trkpt lat="44.874885" lon="9.3852883"><ele>480.6666666666667</ele><time>2026-04-18T11:40:14.985Z</time></trkpt><trkpt lat="44.8748183" lon="9.3853917"><ele>478.33333333333337</ele><time>2026-04-18T11:40:16.984Z</time></trkpt><trkpt lat="44.8747783" lon="9.385465"><ele>476.0</ele><time>2026-04-18T11:40:17.983Z</time></trkpt><trkpt lat="44.8747383" lon="9.3855483"><ele>473.6666666666667</ele><time>2026-04-18T11:40:18.984Z</time></trkpt><trkpt lat="44.8747067" lon="9.38564"><ele>471.33333333333337</ele><time>2026-04-18T11:40:19.984Z</time></trkpt><trkpt lat="44.87468" lon="9.38575"><ele>469.0</ele><time>2026-04-18T11:40:20.985Z</time></trkpt><trkpt lat="44.8746533" lon="9.385865"><ele>469.00000000000006</ele><time>2026-04-18T11:40:21.984Z</time></trkpt><trkpt lat="44.8746233" lon="9.385985"><ele>469.0</ele><time>2026-04-18T11:40:22.984Z</time></trkpt><trkpt lat="44.8746033" lon="9.3860967"><ele>469.0</ele><time>2026-04-18T11:40:23.983Z</time></trkpt><trkpt lat="44.8745833" lon="9.386195"><ele>469.0</ele><time>2026-04-18T11:40:24.984Z</time></trkpt><trkpt lat="44.8745433" lon="9.386325"><ele>469.00000000000006</ele><time>2026-04-18T11:40:26.983Z</time></trkpt><trkpt lat="44.8744683" lon="9.3863833"><ele>469.0</ele><time>2026-04-18T11:40:28.983Z</time></trkpt><trkpt lat="44.8744117" lon="9.386425"><ele>469.50000000000006</ele><time>2026-04-18T11:40:29.984Z</time></trkpt><trkpt lat="44.8743483" lon="9.3864833"><ele>470.0</ele><time>2026-04-18T11:40:30.983Z</time></trkpt><trkpt lat="44.8742817" lon="9.3865567"><ele>470.5</ele><time>2026-04-18T11:40:31.983Z</time></trkpt><trkpt lat="44.87422" lon="9.38664"><ele>471.0</ele><time>2026-04-18T11:40:32.985Z</time></trkpt><trkpt lat="44.87416" lon="9.386715"><ele>471.50000000000006</ele><time>2026-04-18T11:40:33.985Z</time></trkpt><trkpt lat="44.8741067" lon="9.38678"><ele>472.0</ele><time>2026-04-18T11:40:34.983Z</time></trkpt><trkpt lat="44.8740533" lon="9.3868283"><ele>472.6666666666667</ele><time>2026-04-18T11:40:35.983Z</time></trkpt><trkpt lat="44.8739667" lon="9.386895"><ele>473.33333333333337</ele><time>2026-04-18T11:40:37.984Z</time></trkpt><trkpt lat="44.8739117" lon="9.3869583"><ele>474.0</ele><time>2026-04-18T11:40:39.984Z</time></trkpt><trkpt lat="44.8738933" lon="9.387085"><ele>474.66666666666663</ele><time>2026-04-18T11:40:42.983Z</time></trkpt><trkpt lat="44.873935" lon="9.387195"><ele>475.3333333333333</ele><time>2026-04-18T11:40:44.985Z</time></trkpt><trkpt lat="44.873955" lon="9.3873083"><ele>476.0</ele><time>2026-04-18T11:40:46.983Z</time></trkpt><trkpt lat="44.8739033" lon="9.3874617"><ele>476.0</ele><time>2026-04-18T11:41:02.986Z</time></trkpt><trkpt lat="44.8738717" lon="9.3875433"><ele>476.0</ele><time>2026-04-18T11:41:04.983Z</time></trkpt><trkpt lat="44.8738317" lon="9.3876433"><ele>476.0</ele><time>2026-04-18T11:41:06.984Z</time></trkpt><trkpt lat="44.8737517" lon="9.3877717"><ele>476.0</ele><time>2026-04-18T11:41:08.985Z</time></trkpt><trkpt lat="44.8736683" lon="9.38789"><ele>476.0</ele><time>2026-04-18T11:41:10.984Z</time></trkpt><trkpt lat="44.873585" lon="9.3880033"><ele>478.6</ele><time>2026-04-18T11:41:12.983Z</time></trkpt><trkpt lat="44.87354" lon="9.3880933"><ele>481.20000000000005</ele><time>2026-04-18T11:41:13.983Z</time></trkpt><trkpt lat="44.8734833" lon="9.3882433"><ele>483.79999999999995</ele><time>2026-04-18T11:41:15.986Z</time></trkpt><trkpt lat="44.873435" lon="9.388405"><ele>486.4</ele><time>2026-04-18T11:41:17.983Z</time></trkpt><trkpt lat="44.8734083" lon="9.3884867"><ele>489.0</ele><time>2026-04-18T11:41:18.984Z</time></trkpt><trkpt lat="44.8733717" lon="9.388625"><ele>489.0</ele><time>2026-04-18T11:41:20.984Z</time></trkpt><trkpt lat="44.8733217" lon="9.3887283"><ele>489.0</ele><time>2026-04-18T11:41:22.984Z</time></trkpt><trkpt lat="44.873255" lon="9.3888017"><ele>489.0</ele><time>2026-04-18T11:41:25.984Z</time></trkpt><trkpt lat="44.8732133" lon="9.3888833"><ele>489.0</ele><time>2026-04-18T11:41:28.984Z</time></trkpt><trkpt lat="44.873175" lon="9.3889683"><ele>489.0</ele><time>2026-04-18T11:41:31.984Z</time></trkpt><trkpt lat="44.873165" lon="9.3890583"><ele>489.0</ele><time>2026-04-18T11:41:34.983Z</time></trkpt><trkpt lat="44.8732033" lon="9.38914"><ele>491.6</ele><time>2026-04-18T11:41:36.985Z</time></trkpt><trkpt lat="44.8732633" lon="9.389235"><ele>494.2</ele><time>2026-04-18T11:41:38.985Z</time></trkpt><trkpt lat="44.8733133" lon="9.3893783"><ele>496.80000000000007</ele><time>2026-04-18T11:41:40.984Z</time></trkpt><trkpt lat="44.87328" lon="9.3895467"><ele>499.40000000000003</ele><time>2026-04-18T11:41:42.984Z</time></trkpt><trkpt lat="44.8732317" lon="9.38963"><ele>502.0</ele><time>2026-04-18T11:41:43.984Z</time></trkpt><trkpt lat="44.8731783" lon="9.38971"><ele>502.83333333333337</ele><time>2026-04-18T11:41:44.984Z</time></trkpt><trkpt lat="44.8731133" lon="9.389795"><ele>503.6666666666667</ele><time>2026-04-18T11:41:45.984Z</time></trkpt><trkpt lat="44.873045" lon="9.3898783"><ele>504.5</ele><time>2026-04-18T11:41:46.984Z</time></trkpt><trkpt lat="44.8729883" lon="9.3899583"><ele>505.33333333333337</ele><time>2026-04-18T11:41:47.985Z</time></trkpt><trkpt lat="44.87293" lon="9.3900367"><ele>506.1666666666667</ele><time>2026-04-18T11:41:48.983Z</time></trkpt><trkpt lat="44.8728717" lon="9.3901167"><ele>507.0</ele><time>2026-04-18T11:41:49.986Z</time></trkpt><trkpt lat="44.872815" lon="9.39021"><ele>507.0</ele><time>2026-04-18T11:41:50.984Z</time></trkpt><trkpt lat="44.8727617" lon="9.3903317"><ele>507.00000000000006</ele><time>2026-04-18T11:41:51.984Z</time></trkpt><trkpt lat="44.87272" lon="9.390465"><ele>507.00000000000006</ele><time>2026-04-18T11:41:52.983Z</time></trkpt><trkpt lat="44.8726833" lon="9.3905967"><ele>507.0</ele><time>2026-04-18T11:41:53.985Z</time></trkpt><trkpt lat="44.87264" lon="9.3907217"><ele>507.0</ele><time>2026-04-18T11:41:54.983Z</time></trkpt><trkpt lat="44.8725917" lon="9.39085"><ele>505.1666666666667</ele><time>2026-04-18T11:41:55.985Z</time></trkpt><trkpt lat="44.8725417" lon="9.3909683"><ele>503.33333333333337</ele><time>2026-04-18T11:41:56.986Z</time></trkpt><trkpt lat="44.872495" lon="9.3910783"><ele>501.5</ele><time>2026-04-18T11:41:57.982Z</time></trkpt><trkpt lat="44.872455" lon="9.391185"><ele>499.6666666666667</ele><time>2026-04-18T11:41:58.983Z</time></trkpt><trkpt lat="44.8724217" lon="9.3912833"><ele>497.83333333333337</ele><time>2026-04-18T11:41:59.982Z</time></trkpt><trkpt lat="44.8723867" lon="9.391375"><ele>496.0</ele><time>2026-04-18T11:42:00.983Z</time></trkpt><trkpt lat="44.872345" lon="9.39146"><ele>496.0</ele><time>2026-04-18T11:42:01.983Z</time></trkpt><trkpt lat="44.8723017" lon="9.391535"><ele>496.0</ele><time>2026-04-18T11:42:02.984Z</time></trkpt><trkpt lat="44.8722117" lon="9.3916567"><ele>496.0</ele><time>2026-04-18T11:42:04.983Z</time></trkpt><trkpt lat="44.872115" lon="9.3917667"><ele>496.0</ele><time>2026-04-18T11:42:06.984Z</time></trkpt><trkpt lat="44.8720167" lon="9.39189"><ele>496.0</ele><time>2026-04-18T11:42:08.983Z</time></trkpt><trkpt lat="44.8719633" lon="9.391955"><ele>496.0</ele><time>2026-04-18T11:42:09.984Z</time></trkpt><trkpt lat="44.8719167" lon="9.392015"><ele>496.0</ele><time>2026-04-18T11:42:10.984Z</time></trkpt><trkpt lat="44.8718433" lon="9.3921367"><ele>496.0</ele><time>2026-04-18T11:42:12.983Z</time></trkpt><trkpt lat="44.8717917" lon="9.39229"><ele>496.0</ele><time>2026-04-18T11:42:14.984Z</time></trkpt><trkpt lat="44.8717783" lon="9.3924567"><ele>496.0</ele><time>2026-04-18T11:42:16.982Z</time></trkpt><trkpt lat="44.8717667" lon="9.3925833"><ele>494.8</ele><time>2026-04-18T11:42:18.983Z</time></trkpt><trkpt lat="44.8717583" lon="9.3926983"><ele>493.6</ele><time>2026-04-18T11:42:20.983Z</time></trkpt><trkpt lat="44.87171" lon="9.3927983"><ele>492.4</ele><time>2026-04-18T11:42:22.982Z</time></trkpt><trkpt lat="44.8716283" lon="9.3929233"><ele>491.2</ele><time>2026-04-18T11:42:24.984Z</time></trkpt><trkpt lat="44.87156" lon="9.3930433"><ele>490.0</ele><time>2026-04-18T11:42:26.984Z</time></trkpt><trkpt lat="44.8714883" lon="9.39311"><ele>490.00000000000006</ele><time>2026-04-18T11:42:28.984Z</time></trkpt><trkpt lat="44.871395" lon="9.3931117"><ele>490.0</ele><time>2026-04-18T11:42:30.982Z</time></trkpt><trkpt lat="44.8713017" lon="9.3931067"><ele>490.0</ele><time>2026-04-18T11:42:32.983Z</time></trkpt><trkpt lat="44.871235" lon="9.3931417"><ele>490.0</ele><time>2026-04-18T11:42:34.984Z</time></trkpt><trkpt lat="44.87118" lon="9.393215"><ele>490.00000000000006</ele><time>2026-04-18T11:42:36.982Z</time></trkpt><trkpt lat="44.8711417" lon="9.393305"><ele>490.0</ele><time>2026-04-18T11:42:38.984Z</time></trkpt><trkpt lat="44.8711067" lon="9.3934417"><ele>490.0</ele><time>2026-04-18T11:42:40.983Z</time></trkpt><trkpt lat="44.8710833" lon="9.3935683"><ele>490.0</ele><time>2026-04-18T11:42:42.982Z</time></trkpt><trkpt lat="44.871075" lon="9.3936933"><ele>490.0</ele><time>2026-04-18T11:42:44.984Z</time></trkpt><trkpt lat="44.87109" lon="9.3938133"><ele>490.0</ele><time>2026-04-18T11:42:46.984Z</time></trkpt><trkpt lat="44.87111" lon="9.3939617"><ele>490.0</ele><time>2026-04-18T11:42:48.983Z</time></trkpt><trkpt lat="44.871125" lon="9.39413"><ele>490.25</ele><time>2026-04-18T11:42:50.983Z</time></trkpt><trkpt lat="44.8711333" lon="9.3942867"><ele>490.5</ele><time>2026-04-18T11:42:52.983Z</time></trkpt><trkpt lat="44.8711333" lon="9.3944567"><ele>490.75</ele><time>2026-04-18T11:42:54.983Z</time></trkpt><trkpt lat="44.8711067" lon="9.3946233"><ele>491.0</ele><time>2026-04-18T11:42:56.983Z</time></trkpt><trkpt lat="44.8710633" lon="9.394775"><ele>491.16666666666663</ele><time>2026-04-18T11:42:58.984Z</time></trkpt><trkpt lat="44.8710183" lon="9.39491"><ele>491.3333333333333</ele><time>2026-04-18T11:43:00.982Z</time></trkpt><trkpt lat="44.8709733" lon="9.39504"><ele>491.5</ele><time>2026-04-18T11:43:02.983Z</time></trkpt><trkpt lat="44.8709433" lon="9.3951417"><ele>491.66666666666663</ele><time>2026-04-18T11:43:04.983Z</time></trkpt><trkpt lat="44.87092" lon="9.395225"><ele>491.8333333333333</ele><time>2026-04-18T11:43:06.982Z</time></trkpt><trkpt lat="44.8708983" lon="9.395315"><ele>492.0</ele><time>2026-04-18T11:43:08.984Z</time></trkpt><trkpt lat="44.8708733" lon="9.39543"><ele>487.8</ele><time>2026-04-18T11:43:10.982Z</time></trkpt><trkpt lat="44.8708133" lon="9.3955067"><ele>483.6</ele><time>2026-04-18T11:43:12.983Z</time></trkpt><trkpt lat="44.87072" lon="9.395575"><ele>479.40000000000003</ele><time>2026-04-18T11:43:14.983Z</time></trkpt><trkpt lat="44.8706517" lon="9.3956617"><ele>475.20000000000005</ele><time>2026-04-18T11:43:16.983Z</time></trkpt><trkpt lat="44.8705783" lon="9.3957933"><ele>471.0</ele><time>2026-04-18T11:43:18.984Z</time></trkpt><trkpt lat="44.8705367" lon="9.395865"><ele>471.0</ele><time>2026-04-18T11:43:19.982Z</time></trkpt><trkpt lat="44.8704933" lon="9.39593"><ele>471.0</ele><time>2026-04-18T11:43:20.983Z</time></trkpt><trkpt lat="44.8704017" lon="9.3960383"><ele>471.0</ele><time>2026-04-18T11:43:22.984Z</time></trkpt><trkpt lat="44.8703133" lon="9.3961383"><ele>471.0</ele><time>2026-04-18T11:43:24.983Z</time></trkpt><trkpt lat="44.8702633" lon="9.396195"><ele>471.0</ele><time>2026-04-18T11:43:25.983Z</time></trkpt><trkpt lat="44.87021" lon="9.3962467"><ele>471.0</ele><time>2026-04-18T11:43:26.983Z</time></trkpt><trkpt lat="44.8701617" lon="9.3963067"><ele>470.8</ele><time>2026-04-18T11:43:27.983Z</time></trkpt><trkpt lat="44.870115" lon="9.3963667"><ele>470.6</ele><time>2026-04-18T11:43:28.983Z</time></trkpt><trkpt lat="44.870045" lon="9.3964833"><ele>470.4</ele><time>2026-04-18T11:43:30.984Z</time></trkpt><trkpt lat="44.87003" lon="9.396605"><ele>470.2</ele><time>2026-04-18T11:43:32.983Z</time></trkpt><trkpt lat="44.8700633" lon="9.39674"><ele>470.0</ele><time>2026-04-18T11:43:34.983Z</time></trkpt><trkpt lat="44.8701017" lon="9.396895"><ele>468.6</ele><time>2026-04-18T11:43:36.985Z</time></trkpt><trkpt lat="44.8701" lon="9.3970617"><ele>467.2</ele><time>2026-04-18T11:43:38.984Z</time></trkpt><trkpt lat="44.87009" lon="9.39715"><ele>465.79999999999995</ele><time>2026-04-18T11:43:39.984Z</time></trkpt><trkpt lat="44.87007" lon="9.3972367"><ele>464.4</ele><time>2026-04-18T11:43:40.984Z</time></trkpt><trkpt lat="44.8700117" lon="9.3973983"><ele>463.0</ele><time>2026-04-18T11:43:42.984Z</time></trkpt><trkpt lat="44.8699417" lon="9.3975467"><ele>463.00000000000006</ele><time>2026-04-18T11:43:44.984Z</time></trkpt><trkpt lat="44.8698833" lon="9.3976183"><ele>463.0</ele><time>2026-04-18T11:43:45.983Z</time></trkpt><trkpt lat="44.86983" lon="9.3976883"><ele>463.0</ele><time>2026-04-18T11:43:46.982Z</time></trkpt><trkpt lat="44.8697867" lon="9.3977567"><ele>463.0</ele><time>2026-04-18T11:43:47.983Z</time></trkpt><trkpt lat="44.8697517" lon="9.3978333"><ele>463.00000000000006</ele><time>2026-04-18T11:43:48.983Z</time></trkpt><trkpt lat="44.8697083" lon="9.39799"><ele>463.0</ele><time>2026-04-18T11:43:50.983Z</time></trkpt><trkpt lat="44.8696467" lon="9.39816"><ele>464.59999999999997</ele><time>2026-04-18T11:43:52.982Z</time></trkpt><trkpt lat="44.8696" lon="9.3982567"><ele>466.19999999999993</ele><time>2026-04-18T11:43:53.984Z</time></trkpt><trkpt lat="44.8695583" lon="9.3983683"><ele>467.8</ele><time>2026-04-18T11:43:54.983Z</time></trkpt><trkpt lat="44.8695183" lon="9.39849"><ele>469.4</ele><time>2026-04-18T11:43:55.984Z</time></trkpt><trkpt lat="44.8694767" lon="9.3986133"><ele>471.0</ele><time>2026-04-18T11:43:56.984Z</time></trkpt><trkpt lat="44.8694317" lon="9.39873"><ele>472.0</ele><time>2026-04-18T11:43:57.983Z</time></trkpt><trkpt lat="44.8693817" lon="9.398845"><ele>473.0</ele><time>2026-04-18T11:43:58.983Z</time></trkpt><trkpt lat="44.8693317" lon="9.3989517"><ele>474.0</ele><time>2026-04-18T11:43:59.985Z</time></trkpt><trkpt lat="44.8692867" lon="9.3990583"><ele>475.0</ele><time>2026-04-18T11:44:00.984Z</time></trkpt><trkpt lat="44.8692533" lon="9.399165"><ele>476.0</ele><time>2026-04-18T11:44:01.984Z</time></trkpt><trkpt lat="44.8692383" lon="9.3992867"><ele>477.0</ele><time>2026-04-18T11:44:02.985Z</time></trkpt><trkpt lat="44.8692383" lon="9.3994133"><ele>477.40000000000003</ele><time>2026-04-18T11:44:03.984Z</time></trkpt><trkpt lat="44.869255" lon="9.3995483"><ele>477.80000000000007</ele><time>2026-04-18T11:44:04.983Z</time></trkpt><trkpt lat="44.869275" lon="9.3996783"><ele>478.2</ele><time>2026-04-18T11:44:05.984Z</time></trkpt><trkpt lat="44.86929" lon="9.39981"><ele>478.6</ele><time>2026-04-18T11:44:06.983Z</time></trkpt><trkpt lat="44.8693067" lon="9.3999383"><ele>479.0</ele><time>2026-04-18T11:44:07.983Z</time></trkpt><trkpt lat="44.86933" lon="9.4000567"><ele>478.99999999999994</ele><time>2026-04-18T11:44:08.983Z</time></trkpt><trkpt lat="44.869365" lon="9.4001667"><ele>479.0</ele><time>2026-04-18T11:44:09.984Z</time></trkpt><trkpt lat="44.8694067" lon="9.40026"><ele>479.0</ele><time>2026-04-18T11:44:10.984Z</time></trkpt><trkpt lat="44.869455" lon="9.4003433"><ele>479.0</ele><time>2026-04-18T11:44:11.983Z</time></trkpt><trkpt lat="44.8695" lon="9.4004267"><ele>478.99999999999994</ele><time>2026-04-18T11:44:12.983Z</time></trkpt><trkpt lat="44.86953" lon="9.4005167"><ele>479.0</ele><time>2026-04-18T11:44:13.983Z</time></trkpt><trkpt lat="44.8695367" lon="9.4006083"><ele>479.4</ele><time>2026-04-18T11:44:14.984Z</time></trkpt><trkpt lat="44.8694483" lon="9.4007633"><ele>479.79999999999995</ele><time>2026-04-18T11:44:16.984Z</time></trkpt><trkpt lat="44.8693933" lon="9.4008367"><ele>480.20000000000005</ele><time>2026-04-18T11:44:17.984Z</time></trkpt><trkpt lat="44.869345" lon="9.4009017"><ele>480.6</ele><time>2026-04-18T11:44:18.987Z</time></trkpt><trkpt lat="44.8692767" lon="9.40103"><ele>481.0</ele><time>2026-04-18T11:44:20.984Z</time></trkpt><trkpt lat="44.8692333" lon="9.401175"><ele>480.1666666666667</ele><time>2026-04-18T11:44:22.983Z</time></trkpt><trkpt lat="44.8692017" lon="9.4013083"><ele>479.33333333333337</ele><time>2026-04-18T11:44:24.982Z</time></trkpt><trkpt lat="44.8691767" lon="9.4014417"><ele>478.5</ele><time>2026-04-18T11:44:27.984Z</time></trkpt><trkpt lat="44.869165" lon="9.4015433"><ele>477.66666666666663</ele><time>2026-04-18T11:44:29.983Z</time></trkpt><trkpt lat="44.869155" lon="9.40165"><ele>476.8333333333333</ele><time>2026-04-18T11:44:31.983Z</time></trkpt><trkpt lat="44.8691433" lon="9.40177"><ele>476.0</ele><time>2026-04-18T11:44:33.983Z</time></trkpt><trkpt lat="44.8691383" lon="9.401915"><ele>476.0</ele><time>2026-04-18T11:44:35.983Z</time></trkpt><trkpt lat="44.8691417" lon="9.4020483"><ele>476.0</ele><time>2026-04-18T11:44:37.985Z</time></trkpt><trkpt lat="44.869145" lon="9.4022233"><ele>476.0</ele><time>2026-04-18T11:44:39.984Z</time></trkpt><trkpt lat="44.8691483" lon="9.4023217"><ele>476.0</ele><time>2026-04-18T11:44:40.984Z</time></trkpt><trkpt lat="44.8691483" lon="9.4024333"><ele>476.0</ele><time>2026-04-18T11:44:41.984Z</time></trkpt><trkpt lat="44.8691517" lon="9.40256"><ele>477.4</ele><time>2026-04-18T11:44:42.984Z</time></trkpt><trkpt lat="44.8691583" lon="9.4027"><ele>478.8</ele><time>2026-04-18T11:44:43.984Z</time></trkpt><trkpt lat="44.869155" lon="9.40285"><ele>480.19999999999993</ele><time>2026-04-18T11:44:44.985Z</time></trkpt><trkpt lat="44.8691417" lon="9.403005"><ele>481.59999999999997</ele><time>2026-04-18T11:44:45.983Z</time></trkpt><trkpt lat="44.8691133" lon="9.4031617"><ele>483.0</ele><time>2026-04-18T11:44:46.983Z</time></trkpt><trkpt lat="44.8690717" lon="9.403315"><ele>484.5</ele><time>2026-04-18T11:44:47.983Z</time></trkpt><trkpt lat="44.8690183" lon="9.4034633"><ele>486.0</ele><time>2026-04-18T11:44:48.984Z</time></trkpt><trkpt lat="44.8689617" lon="9.4036117"><ele>487.5</ele><time>2026-04-18T11:44:49.983Z</time></trkpt><trkpt lat="44.8689033" lon="9.403745"><ele>489.0</ele><time>2026-04-18T11:44:50.983Z</time></trkpt><trkpt lat="44.8688367" lon="9.4038683"><ele>490.79999999999995</ele><time>2026-04-18T11:44:51.984Z</time></trkpt><trkpt lat="44.868775" lon="9.4039767"><ele>492.59999999999997</ele><time>2026-04-18T11:44:52.983Z</time></trkpt><trkpt lat="44.86872" lon="9.404085"><ele>494.4</ele><time>2026-04-18T11:44:53.983Z</time></trkpt><trkpt lat="44.86868" lon="9.4041983"><ele>496.2</ele><time>2026-04-18T11:44:54.983Z</time></trkpt><trkpt lat="44.8686533" lon="9.4043367"><ele>498.0</ele><time>2026-04-18T11:44:55.983Z</time></trkpt><trkpt lat="44.8686383" lon="9.4045"><ele>500.0</ele><time>2026-04-18T11:44:56.983Z</time></trkpt><trkpt lat="44.8686167" lon="9.40467"><ele>502.0</ele><time>2026-04-18T11:44:57.984Z</time></trkpt><trkpt lat="44.86859" lon="9.404835"><ele>504.0</ele><time>2026-04-18T11:44:58.983Z</time></trkpt><trkpt lat="44.8685517" lon="9.404985"><ele>506.0</ele><time>2026-04-18T11:44:59.984Z</time></trkpt><trkpt lat="44.8685033" lon="9.405125"><ele>506.0</ele><time>2026-04-18T11:45:00.984Z</time></trkpt><trkpt lat="44.8684567" lon="9.4052633"><ele>506.0</ele><time>2026-04-18T11:45:01.983Z</time></trkpt><trkpt lat="44.8684167" lon="9.4053967"><ele>506.0</ele><time>2026-04-18T11:45:02.984Z</time></trkpt><trkpt lat="44.868385" lon="9.4055333"><ele>506.0</ele><time>2026-04-18T11:45:03.984Z</time></trkpt><trkpt lat="44.86836" lon="9.4056767"><ele>506.0</ele><time>2026-04-18T11:45:04.985Z</time></trkpt><trkpt lat="44.8683433" lon="9.4058167"><ele>503.4</ele><time>2026-04-18T11:45:05.986Z</time></trkpt><trkpt lat="44.8683367" lon="9.405945"><ele>500.8</ele><time>2026-04-18T11:45:06.985Z</time></trkpt><trkpt lat="44.86834" lon="9.4060633"><ele>498.19999999999993</ele><time>2026-04-18T11:45:07.985Z</time></trkpt><trkpt lat="44.8683583" lon="9.4061867"><ele>495.59999999999997</ele><time>2026-04-18T11:45:08.984Z</time></trkpt><trkpt lat="44.8683933" lon="9.4063217"><ele>493.0</ele><time>2026-04-18T11:45:09.983Z</time></trkpt><trkpt lat="44.86843" lon="9.40647"><ele>494.79999999999995</ele><time>2026-04-18T11:45:10.984Z</time></trkpt><trkpt lat="44.86847" lon="9.406625"><ele>496.59999999999997</ele><time>2026-04-18T11:45:11.983Z</time></trkpt><trkpt lat="44.8685067" lon="9.4067817"><ele>498.40000000000003</ele><time>2026-04-18T11:45:12.985Z</time></trkpt><trkpt lat="44.8685367" lon="9.4069333"><ele>500.20000000000005</ele><time>2026-04-18T11:45:13.984Z</time></trkpt><trkpt lat="44.8685683" lon="9.4070717"><ele>502.0</ele><time>2026-04-18T11:45:14.983Z</time></trkpt><trkpt lat="44.8685983" lon="9.4071983"><ele>502.00000000000006</ele><time>2026-04-18T11:45:15.984Z</time></trkpt><trkpt lat="44.8686283" lon="9.40731"><ele>502.0</ele><time>2026-04-18T11:45:16.984Z</time></trkpt><trkpt lat="44.868665" lon="9.40741"><ele>502.0</ele><time>2026-04-18T11:45:17.984Z</time></trkpt><trkpt lat="44.8687033" lon="9.4075017"><ele>502.0</ele><time>2026-04-18T11:45:18.984Z</time></trkpt><trkpt lat="44.868755" lon="9.4075933"><ele>502.00000000000006</ele><time>2026-04-18T11:45:19.984Z</time></trkpt><trkpt lat="44.8688183" lon="9.407685"><ele>502.0</ele><time>2026-04-18T11:45:20.984Z</time></trkpt><trkpt lat="44.8688817" lon="9.407775"><ele>501.99999999999994</ele><time>2026-04-18T11:45:21.984Z</time></trkpt><trkpt lat="44.8689333" lon="9.4078567"><ele>502.0</ele><time>2026-04-18T11:45:22.984Z</time></trkpt><trkpt lat="44.86897" lon="9.4079383"><ele>501.99999999999994</ele><time>2026-04-18T11:45:23.985Z</time></trkpt><trkpt lat="44.8689967" lon="9.4080217"><ele>501.99999999999994</ele><time>2026-04-18T11:45:24.984Z</time></trkpt><trkpt lat="44.8690217" lon="9.4081133"><ele>502.0</ele><time>2026-04-18T11:45:25.983Z</time></trkpt><trkpt lat="44.8690333" lon="9.4082083"><ele>501.99999999999994</ele><time>2026-04-18T11:45:26.985Z</time></trkpt><trkpt lat="44.869015" lon="9.4082983"><ele>501.99999999999994</ele><time>2026-04-18T11:45:27.983Z</time></trkpt><trkpt lat="44.8689633" lon="9.4083717"><ele>502.40000000000003</ele><time>2026-04-18T11:45:28.984Z</time></trkpt><trkpt lat="44.8688883" lon="9.408445"><ele>502.80000000000007</ele><time>2026-04-18T11:45:29.985Z</time></trkpt><trkpt lat="44.86879" lon="9.408525"><ele>503.2</ele><time>2026-04-18T11:45:30.984Z</time></trkpt><trkpt lat="44.86868" lon="9.4086033"><ele>503.6</ele><time>2026-04-18T11:45:31.983Z</time></trkpt><trkpt lat="44.8685717" lon="9.40868"><ele>504.0</ele><time>2026-04-18T11:45:32.985Z</time></trkpt><trkpt lat="44.868465" lon="9.40877"><ele>502.6</ele><time>2026-04-18T11:45:33.984Z</time></trkpt><trkpt lat="44.8683667" lon="9.40887"><ele>501.2</ele><time>2026-04-18T11:45:34.986Z</time></trkpt><trkpt lat="44.8682717" lon="9.408955"><ele>499.80000000000007</ele><time>2026-04-18T11:45:35.984Z</time></trkpt><trkpt lat="44.86817" lon="9.4090067"><ele>498.40000000000003</ele><time>2026-04-18T11:45:36.984Z</time></trkpt><trkpt lat="44.8680683" lon="9.4090283"><ele>497.0</ele><time>2026-04-18T11:45:37.983Z</time></trkpt><trkpt lat="44.8679783" lon="9.4090517"><ele>497.0</ele><time>2026-04-18T11:45:38.985Z</time></trkpt><trkpt lat="44.867895" lon="9.4091"><ele>497.00000000000006</ele><time>2026-04-18T11:45:39.984Z</time></trkpt><trkpt lat="44.8678267" lon="9.4092033"><ele>497.00000000000006</ele><time>2026-04-18T11:45:40.984Z</time></trkpt><trkpt lat="44.8677583" lon="9.4093333"><ele>497.0</ele><time>2026-04-18T11:45:41.983Z</time></trkpt><trkpt lat="44.8676983" lon="9.4094667"><ele>497.0</ele><time>2026-04-18T11:45:42.983Z</time></trkpt><trkpt lat="44.867645" lon="9.4095883"><ele>498.20000000000005</ele><time>2026-04-18T11:45:43.984Z</time></trkpt><trkpt lat="44.8676033" lon="9.4096967"><ele>499.40000000000003</ele><time>2026-04-18T11:45:44.985Z</time></trkpt><trkpt lat="44.8675583" lon="9.40978"><ele>500.59999999999997</ele><time>2026-04-18T11:45:45.984Z</time></trkpt><trkpt lat="44.8674467" lon="9.40979"><ele>501.79999999999995</ele><time>2026-04-18T11:45:47.985Z</time></trkpt><trkpt lat="44.8673983" lon="9.409685"><ele>503.0</ele><time>2026-04-18T11:45:48.984Z</time></trkpt><trkpt lat="44.8673533" lon="9.409555"><ele>503.0</ele><time>2026-04-18T11:45:49.984Z</time></trkpt><trkpt lat="44.867295" lon="9.4093883"><ele>503.0</ele><time>2026-04-18T11:45:50.984Z</time></trkpt><trkpt lat="44.8672283" lon="9.409225"><ele>503.0</ele><time>2026-04-18T11:45:51.984Z</time></trkpt><trkpt lat="44.86716" lon="9.4090617"><ele>503.0</ele><time>2026-04-18T11:45:52.984Z</time></trkpt><trkpt lat="44.8671017" lon="9.40889"><ele>502.0</ele><time>2026-04-18T11:45:53.983Z</time></trkpt><trkpt lat="44.8670567" lon="9.4087133"><ele>501.0</ele><time>2026-04-18T11:45:54.983Z</time></trkpt><trkpt lat="44.8670217" lon="9.4085417"><ele>500.0</ele><time>2026-04-18T11:45:55.984Z</time></trkpt><trkpt lat="44.8669983" lon="9.4083767"><ele>499.0</ele><time>2026-04-18T11:45:56.986Z</time></trkpt><trkpt lat="44.8669917" lon="9.4082133"><ele>499.0</ele><time>2026-04-18T11:45:57.983Z</time></trkpt><trkpt lat="44.8670017" lon="9.408055"><ele>499.0</ele><time>2026-04-18T11:45:58.985Z</time></trkpt><trkpt lat="44.8670083" lon="9.4079"><ele>499.0</ele><time>2026-04-18T11:45:59.983Z</time></trkpt><trkpt lat="44.8669967" lon="9.4077633"><ele>499.0</ele><time>2026-04-18T11:46:00.985Z</time></trkpt><trkpt lat="44.86698" lon="9.4076483"><ele>499.0</ele><time>2026-04-18T11:46:01.983Z</time></trkpt><trkpt lat="44.8669617" lon="9.40755"><ele>498.0</ele><time>2026-04-18T11:46:02.984Z</time></trkpt><trkpt lat="44.8669167" lon="9.4074017"><ele>497.0</ele><time>2026-04-18T11:46:04.984Z</time></trkpt><trkpt lat="44.866875" lon="9.4072883"><ele>496.0</ele><time>2026-04-18T11:46:06.984Z</time></trkpt><trkpt lat="44.8667983" lon="9.4072317"><ele>495.0</ele><time>2026-04-18T11:46:08.984Z</time></trkpt><trkpt lat="44.86672" lon="9.40724"><ele>494.0</ele><time>2026-04-18T11:46:10.985Z</time></trkpt><trkpt lat="44.8666583" lon="9.4073133"><ele>498.79999999999995</ele><time>2026-04-18T11:46:12.983Z</time></trkpt><trkpt lat="44.86666" lon="9.40746"><ele>503.59999999999997</ele><time>2026-04-18T11:46:14.985Z</time></trkpt><trkpt lat="44.866665" lon="9.40755"><ele>508.4</ele><time>2026-04-18T11:46:15.983Z</time></trkpt><trkpt lat="44.866675" lon="9.4077233"><ele>513.1999999999999</ele><time>2026-04-18T11:46:17.983Z</time></trkpt><trkpt lat="44.86666" lon="9.40788"><ele>518.0</ele><time>2026-04-18T11:46:19.983Z</time></trkpt><trkpt lat="44.8666067" lon="9.4080417"><ele>519.4</ele><time>2026-04-18T11:46:21.983Z</time></trkpt><trkpt lat="44.8665633" lon="9.4081067"><ele>520.8</ele><time>2026-04-18T11:46:22.983Z</time></trkpt><trkpt lat="44.866515" lon="9.4081683"><ele>522.2</ele><time>2026-04-18T11:46:23.983Z</time></trkpt><trkpt lat="44.8664283" lon="9.40829"><ele>523.6</ele><time>2026-04-18T11:46:25.983Z</time></trkpt><trkpt lat="44.8663633" lon="9.40845"><ele>525.0</ele><time>2026-04-18T11:46:27.985Z</time></trkpt><trkpt lat="44.86634" lon="9.4085567"><ele>525.0</ele><time>2026-04-18T11:46:28.984Z</time></trkpt><trkpt lat="44.8663133" lon="9.4086633"><ele>525.0</ele><time>2026-04-18T11:46:29.984Z</time></trkpt><trkpt lat="44.8662883" lon="9.40877"><ele>525.0</ele><time>2026-04-18T11:46:30.983Z</time></trkpt><trkpt lat="44.8662617" lon="9.4088717"><ele>525.0</ele><time>2026-04-18T11:46:31.984Z</time></trkpt><trkpt lat="44.8662" lon="9.4090283"><ele>525.0</ele><time>2026-04-18T11:46:33.984Z</time></trkpt><trkpt lat="44.86616" lon="9.4091117"><ele>525.0</ele><time>2026-04-18T11:46:34.984Z</time></trkpt><trkpt lat="44.8661067" lon="9.4092067"><ele>525.0</ele><time>2026-04-18T11:46:35.985Z</time></trkpt><trkpt lat="44.8660517" lon="9.409305"><ele>525.0</ele><time>2026-04-18T11:46:36.985Z</time></trkpt><trkpt lat="44.8660083" lon="9.4094"><ele>525.0</ele><time>2026-04-18T11:46:37.984Z</time></trkpt><trkpt lat="44.86597" lon="9.4094833"><ele>525.0</ele><time>2026-04-18T11:46:38.984Z</time></trkpt><trkpt lat="44.8659167" lon="9.4095617"><ele>525.0</ele><time>2026-04-18T11:46:39.984Z</time></trkpt><trkpt lat="44.86588" lon="9.4096583"><ele>525.0</ele><time>2026-04-18T11:46:40.984Z</time></trkpt><trkpt lat="44.8658517" lon="9.4097633"><ele>531.1666666666666</ele><time>2026-04-18T11:46:41.983Z</time></trkpt><trkpt lat="44.8658267" lon="9.4098717"><ele>537.3333333333334</ele><time>2026-04-18T11:46:42.985Z</time></trkpt><trkpt lat="44.8657917" lon="9.409975"><ele>543.5</ele><time>2026-04-18T11:46:43.983Z</time></trkpt><trkpt lat="44.8657567" lon="9.41008"><ele>549.6666666666667</ele><time>2026-04-18T11:46:44.983Z</time></trkpt><trkpt lat="44.8657433" lon="9.4101733"><ele>555.8333333333334</ele><time>2026-04-18T11:46:45.984Z</time></trkpt><trkpt lat="44.8657117" lon="9.4102667"><ele>562.0</ele><time>2026-04-18T11:46:46.984Z</time></trkpt><trkpt lat="44.865675" lon="9.4103717"><ele>562.0</ele><time>2026-04-18T11:46:47.983Z</time></trkpt><trkpt lat="44.865635" lon="9.4104767"><ele>562.0</ele><time>2026-04-18T11:46:48.985Z</time></trkpt><trkpt lat="44.8655917" lon="9.410575"><ele>562.0</ele><time>2026-04-18T11:46:49.983Z</time></trkpt><trkpt lat="44.865545" lon="9.4106783"><ele>562.0</ele><time>2026-04-18T11:46:50.984Z</time></trkpt><trkpt lat="44.8654917" lon="9.410765"><ele>562.0</ele><time>2026-04-18T11:46:51.984Z</time></trkpt><trkpt lat="44.8654383" lon="9.410845"><ele>562.0</ele><time>2026-04-18T11:46:52.985Z</time></trkpt><trkpt lat="44.8653883" lon="9.410915"><ele>561.3333333333334</ele><time>2026-04-18T11:46:53.985Z</time></trkpt><trkpt lat="44.865335" lon="9.410975"><ele>560.6666666666667</ele><time>2026-04-18T11:46:54.985Z</time></trkpt><trkpt lat="44.8652767" lon="9.4110233"><ele>560.0</ele><time>2026-04-18T11:46:55.984Z</time></trkpt><trkpt lat="44.8652217" lon="9.4110733"><ele>559.3333333333334</ele><time>2026-04-18T11:46:56.985Z</time></trkpt><trkpt lat="44.8651617" lon="9.4111183"><ele>558.6666666666666</ele><time>2026-04-18T11:46:57.985Z</time></trkpt><trkpt lat="44.8650583" lon="9.4111683"><ele>558.0</ele><time>2026-04-18T11:46:59.985Z</time></trkpt><trkpt lat="44.86496" lon="9.4112267"><ele>561.5714285714286</ele><time>2026-04-18T11:47:01.984Z</time></trkpt><trkpt lat="44.86488" lon="9.4113483"><ele>565.1428571428571</ele><time>2026-04-18T11:47:03.985Z</time></trkpt><trkpt lat="44.8648517" lon="9.41143"><ele>568.7142857142858</ele><time>2026-04-18T11:47:04.984Z</time></trkpt><trkpt lat="44.86483" lon="9.41152"><ele>572.2857142857142</ele><time>2026-04-18T11:47:05.985Z</time></trkpt><trkpt lat="44.8648033" lon="9.4116017"><ele>575.8571428571429</ele><time>2026-04-18T11:47:06.984Z</time></trkpt><trkpt lat="44.8647767" lon="9.411685"><ele>579.4285714285714</ele><time>2026-04-18T11:47:07.984Z</time></trkpt><trkpt lat="44.8647483" lon="9.4117683"><ele>583.0</ele><time>2026-04-18T11:47:08.985Z</time></trkpt><trkpt lat="44.8646933" lon="9.4118983"><ele>583.0</ele><time>2026-04-18T11:47:10.984Z</time></trkpt><trkpt lat="44.864655" lon="9.41204"><ele>583.0</ele><time>2026-04-18T11:47:12.984Z</time></trkpt><trkpt lat="44.86466" lon="9.4122167"><ele>583.0</ele><time>2026-04-18T11:47:14.985Z</time></trkpt><trkpt lat="44.8646617" lon="9.4123583"><ele>583.0</ele><time>2026-04-18T11:47:16.985Z</time></trkpt><trkpt lat="44.864605" lon="9.4124067"><ele>583.0</ele><time>2026-04-18T11:47:18.984Z</time></trkpt><trkpt lat="44.8644917" lon="9.412385"><ele>583.1666666666667</ele><time>2026-04-18T11:47:20.984Z</time></trkpt><trkpt lat="44.86442" lon="9.4123933"><ele>583.3333333333334</ele><time>2026-04-18T11:47:21.983Z</time></trkpt><trkpt lat="44.86434" lon="9.4124167"><ele>583.5</ele><time>2026-04-18T11:47:22.984Z</time></trkpt><trkpt lat="44.8642633" lon="9.41245"><ele>583.6666666666666</ele><time>2026-04-18T11:47:23.984Z</time></trkpt><trkpt lat="44.8641883" lon="9.4124967"><ele>583.8333333333333</ele><time>2026-04-18T11:47:24.985Z</time></trkpt><trkpt lat="44.8641167" lon="9.4125517"><ele>584.0</ele><time>2026-04-18T11:47:25.984Z</time></trkpt><trkpt lat="44.8640517" lon="9.4126183"><ele>586.8</ele><time>2026-04-18T11:47:26.984Z</time></trkpt><trkpt lat="44.8639917" lon="9.412695"><ele>589.5999999999999</ele><time>2026-04-18T11:47:27.984Z</time></trkpt><trkpt lat="44.8639317" lon="9.4127883"><ele>592.4</ele><time>2026-04-18T11:47:28.983Z</time></trkpt><trkpt lat="44.863875" lon="9.41289"><ele>595.1999999999999</ele><time>2026-04-18T11:47:29.983Z</time></trkpt><trkpt lat="44.8638167" lon="9.4129983"><ele>598.0</ele><time>2026-04-18T11:47:30.983Z</time></trkpt><trkpt lat="44.863765" lon="9.4131067"><ele>598.8</ele><time>2026-04-18T11:47:31.983Z</time></trkpt><trkpt lat="44.8637167" lon="9.41321"><ele>599.5999999999999</ele><time>2026-04-18T11:47:32.983Z</time></trkpt><trkpt lat="44.8636567" lon="9.4133133"><ele>600.4000000000001</ele><time>2026-04-18T11:47:33.983Z</time></trkpt><trkpt lat="44.8635883" lon="9.4134117"><ele>601.2</ele><time>2026-04-18T11:47:34.983Z</time></trkpt><trkpt lat="44.86351" lon="9.4135083"><ele>602.0</ele><time>2026-04-18T11:47:35.983Z</time></trkpt><trkpt lat="44.8634267" lon="9.4136083"><ele>602.0</ele><time>2026-04-18T11:47:36.983Z</time></trkpt><trkpt lat="44.8633567" lon="9.41372"><ele>602.0</ele><time>2026-04-18T11:47:37.982Z</time></trkpt><trkpt lat="44.8632817" lon="9.41383"><ele>602.0</ele><time>2026-04-18T11:47:38.983Z</time></trkpt><trkpt lat="44.8632" lon="9.4139417"><ele>602.0</ele><time>2026-04-18T11:47:39.982Z</time></trkpt><trkpt lat="44.8631117" lon="9.4140367"><ele>602.0</ele><time>2026-04-18T11:47:40.983Z</time></trkpt><trkpt lat="44.863025" lon="9.4141083"><ele>604.4</ele><time>2026-04-18T11:47:41.982Z</time></trkpt><trkpt lat="44.862955" lon="9.4141733"><ele>606.8000000000001</ele><time>2026-04-18T11:47:42.984Z</time></trkpt><trkpt lat="44.8629067" lon="9.4142433"><ele>609.2</ele><time>2026-04-18T11:47:43.982Z</time></trkpt><trkpt lat="44.8629267" lon="9.41436"><ele>611.6</ele><time>2026-04-18T11:47:45.982Z</time></trkpt><trkpt lat="44.8630583" lon="9.4144067"><ele>614.0</ele><time>2026-04-18T11:47:47.984Z</time></trkpt><trkpt lat="44.8631467" lon="9.41441"><ele>614.0</ele><time>2026-04-18T11:47:48.984Z</time></trkpt><trkpt lat="44.8632467" lon="9.4143983"><ele>614.0</ele><time>2026-04-18T11:47:49.982Z</time></trkpt><trkpt lat="44.8633383" lon="9.41438"><ele>614.0</ele><time>2026-04-18T11:47:50.982Z</time></trkpt><trkpt lat="44.8634267" lon="9.4143533"><ele>614.0</ele><time>2026-04-18T11:47:51.983Z</time></trkpt><trkpt lat="44.8635067" lon="9.41431"><ele>614.0</ele><time>2026-04-18T11:47:52.982Z</time></trkpt><trkpt lat="44.8635917" lon="9.4142583"><ele>614.8</ele><time>2026-04-18T11:47:53.984Z</time></trkpt><trkpt lat="44.863685" lon="9.414215"><ele>615.5999999999999</ele><time>2026-04-18T11:47:54.982Z</time></trkpt><trkpt lat="44.86378" lon="9.4141783"><ele>616.4</ele><time>2026-04-18T11:47:55.982Z</time></trkpt><trkpt lat="44.8638717" lon="9.41415"><ele>617.1999999999999</ele><time>2026-04-18T11:47:56.983Z</time></trkpt><trkpt lat="44.8639683" lon="9.4141283"><ele>618.0</ele><time>2026-04-18T11:47:57.984Z</time></trkpt><trkpt lat="44.8640633" lon="9.4141217"><ele>618.0</ele><time>2026-04-18T11:47:58.982Z</time></trkpt><trkpt lat="44.8641433" lon="9.4141467"><ele>618.0</ele><time>2026-04-18T11:47:59.983Z</time></trkpt><trkpt lat="44.86421" lon="9.4141917"><ele>618.0</ele><time>2026-04-18T11:48:00.983Z</time></trkpt><trkpt lat="44.8642617" lon="9.4142617"><ele>618.0</ele><time>2026-04-18T11:48:01.982Z</time></trkpt><trkpt lat="44.8642917" lon="9.4143567"><ele>618.0</ele><time>2026-04-18T11:48:02.983Z</time></trkpt><trkpt lat="44.8643067" lon="9.4144683"><ele>618.0</ele><time>2026-04-18T11:48:03.982Z</time></trkpt><trkpt lat="44.8643083" lon="9.4145917"><ele>619.0</ele><time>2026-04-18T11:48:04.984Z</time></trkpt><trkpt lat="44.8643083" lon="9.4147133"><ele>620.0</ele><time>2026-04-18T11:48:05.982Z</time></trkpt><trkpt lat="44.864295" lon="9.41483"><ele>621.0</ele><time>2026-04-18T11:48:06.983Z</time></trkpt><trkpt lat="44.8642617" lon="9.4149333"><ele>622.0</ele><time>2026-04-18T11:48:07.984Z</time></trkpt><trkpt lat="44.8642233" lon="9.4150233"><ele>623.0</ele><time>2026-04-18T11:48:08.984Z</time></trkpt><trkpt lat="44.86417" lon="9.41511"><ele>624.0</ele><time>2026-04-18T11:48:09.984Z</time></trkpt><trkpt lat="44.86411" lon="9.415205"><ele>624.0</ele><time>2026-04-18T11:48:10.983Z</time></trkpt><trkpt lat="44.8640467" lon="9.415315"><ele>624.0</ele><time>2026-04-18T11:48:11.984Z</time></trkpt><trkpt lat="44.86399" lon="9.4154267"><ele>624.0</ele><time>2026-04-18T11:48:12.984Z</time></trkpt><trkpt lat="44.8639317" lon="9.4155367"><ele>624.0</ele><time>2026-04-18T11:48:13.984Z</time></trkpt><trkpt lat="44.863885" lon="9.4156433"><ele>624.0</ele><time>2026-04-18T11:48:14.984Z</time></trkpt><trkpt lat="44.86385" lon="9.415755"><ele>624.0</ele><time>2026-04-18T11:48:15.983Z</time></trkpt><trkpt lat="44.863825" lon="9.415875"><ele>624.0</ele><time>2026-04-18T11:48:16.984Z</time></trkpt><trkpt lat="44.8638133" lon="9.4159833"><ele>624.0</ele><time>2026-04-18T11:48:17.983Z</time></trkpt><trkpt lat="44.8637967" lon="9.416085"><ele>624.0</ele><time>2026-04-18T11:48:18.983Z</time></trkpt><trkpt lat="44.8637867" lon="9.416185"><ele>624.0</ele><time>2026-04-18T11:48:19.983Z</time></trkpt><trkpt lat="44.8637767" lon="9.4162733"><ele>624.0</ele><time>2026-04-18T11:48:20.982Z</time></trkpt><trkpt lat="44.863745" lon="9.4163617"><ele>624.0</ele><time>2026-04-18T11:48:21.983Z</time></trkpt><trkpt lat="44.8637017" lon="9.4164617"><ele>624.0</ele><time>2026-04-18T11:48:22.982Z</time></trkpt><trkpt lat="44.863665" lon="9.4165883"><ele>624.0</ele><time>2026-04-18T11:48:23.984Z</time></trkpt><trkpt lat="44.8636117" lon="9.4167183"><ele>624.0</ele><time>2026-04-18T11:48:24.983Z</time></trkpt><trkpt lat="44.863565" lon="9.41683"><ele>624.0</ele><time>2026-04-18T11:48:25.985Z</time></trkpt><trkpt lat="44.8635183" lon="9.4169433"><ele>624.0</ele><time>2026-04-18T11:48:26.984Z</time></trkpt><trkpt lat="44.8634767" lon="9.4170483"><ele>628.1666666666666</ele><time>2026-04-18T11:48:27.984Z</time></trkpt><trkpt lat="44.86343" lon="9.4171367"><ele>632.3333333333334</ele><time>2026-04-18T11:48:28.982Z</time></trkpt><trkpt lat="44.863385" lon="9.417225"><ele>636.5</ele><time>2026-04-18T11:48:29.984Z</time></trkpt><trkpt lat="44.86334" lon="9.4173217"><ele>640.6666666666667</ele><time>2026-04-18T11:48:30.984Z</time></trkpt><trkpt lat="44.8633017" lon="9.4174033"><ele>644.8333333333334</ele><time>2026-04-18T11:48:31.983Z</time></trkpt><trkpt lat="44.8632233" lon="9.41753"><ele>649.0</ele><time>2026-04-18T11:48:33.982Z</time></trkpt><trkpt lat="44.86317" lon="9.4175833"><ele>649.9999999999999</ele><time>2026-04-18T11:48:34.984Z</time></trkpt><trkpt lat="44.8631067" lon="9.4176467"><ele>651.0</ele><time>2026-04-18T11:48:35.983Z</time></trkpt><trkpt lat="44.8630467" lon="9.417695"><ele>652.0</ele><time>2026-04-18T11:48:36.983Z</time></trkpt><trkpt lat="44.862985" lon="9.4177433"><ele>653.0</ele><time>2026-04-18T11:48:37.982Z</time></trkpt><trkpt lat="44.8629117" lon="9.4177867"><ele>654.0</ele><time>2026-04-18T11:48:38.984Z</time></trkpt><trkpt lat="44.8628533" lon="9.41784"><ele>654.9999999999999</ele><time>2026-04-18T11:48:39.983Z</time></trkpt><trkpt lat="44.8627983" lon="9.4178967"><ele>656.0</ele><time>2026-04-18T11:48:40.982Z</time></trkpt><trkpt lat="44.86271" lon="9.4180183"><ele>656.8333333333333</ele><time>2026-04-18T11:48:42.983Z</time></trkpt><trkpt lat="44.8626683" lon="9.4180983"><ele>657.6666666666666</ele><time>2026-04-18T11:48:43.984Z</time></trkpt><trkpt lat="44.8626267" lon="9.4181833"><ele>658.5</ele><time>2026-04-18T11:48:44.987Z</time></trkpt><trkpt lat="44.8625867" lon="9.4182667"><ele>659.3333333333334</ele><time>2026-04-18T11:48:45.983Z</time></trkpt><trkpt lat="44.8625417" lon="9.41841"><ele>660.1666666666667</ele><time>2026-04-18T11:48:47.984Z</time></trkpt><trkpt lat="44.8625017" lon="9.4185167"><ele>661.0</ele><time>2026-04-18T11:48:49.985Z</time></trkpt><trkpt lat="44.8624317" lon="9.418585"><ele>664.5999999999999</ele><time>2026-04-18T11:48:51.984Z</time></trkpt><trkpt lat="44.862345" lon="9.4186267"><ele>668.2</ele><time>2026-04-18T11:48:53.984Z</time></trkpt><trkpt lat="44.86226" lon="9.4186233"><ele>671.8</ele><time>2026-04-18T11:48:55.983Z</time></trkpt><trkpt lat="44.86216" lon="9.4186017"><ele>675.4000000000001</ele><time>2026-04-18T11:48:57.983Z</time></trkpt><trkpt lat="44.8620467" lon="9.418575"><ele>679.0</ele><time>2026-04-18T11:48:59.985Z</time></trkpt><trkpt lat="44.86197" lon="9.4185683"><ele>679.0</ele><time>2026-04-18T11:49:00.984Z</time></trkpt><trkpt lat="44.8618617" lon="9.418615"><ele>679.0</ele><time>2026-04-18T11:49:02.984Z</time></trkpt><trkpt lat="44.8617633" lon="9.4186767"><ele>679.0</ele><time>2026-04-18T11:49:04.984Z</time></trkpt><trkpt lat="44.86164" lon="9.4187233"><ele>679.0</ele><time>2026-04-18T11:49:06.983Z</time></trkpt><trkpt lat="44.861565" lon="9.4187417"><ele>679.0</ele><time>2026-04-18T11:49:07.984Z</time></trkpt><trkpt lat="44.8614967" lon="9.4187617"><ele>681.1666666666667</ele><time>2026-04-18T11:49:08.984Z</time></trkpt><trkpt lat="44.8614383" lon="9.4188033"><ele>683.3333333333334</ele><time>2026-04-18T11:49:09.983Z</time></trkpt><trkpt lat="44.8613683" lon="9.4188667"><ele>685.5</ele><time>2026-04-18T11:49:10.983Z</time></trkpt><trkpt lat="44.861315" lon="9.4189333"><ele>687.6666666666666</ele><time>2026-04-18T11:49:11.985Z</time></trkpt><trkpt lat="44.8612583" lon="9.419"><ele>689.8333333333333</ele><time>2026-04-18T11:49:12.984Z</time></trkpt><trkpt lat="44.8612183" lon="9.4190883"><ele>692.0</ele><time>2026-04-18T11:49:14.983Z</time></trkpt><trkpt lat="44.861135" lon="9.4191367"><ele>693.5</ele><time>2026-04-18T11:49:23.983Z</time></trkpt><trkpt lat="44.86106" lon="9.419165"><ele>695.0</ele><time>2026-04-18T11:49:25.984Z</time></trkpt><trkpt lat="44.8609933" lon="9.4191683"><ele>696.5</ele><time>2026-04-18T11:49:27.983Z</time></trkpt><trkpt lat="44.8609167" lon="9.41919"><ele>698.0</ele><time>2026-04-18T11:49:29.984Z</time></trkpt><trkpt lat="44.8608233" lon="9.419205"><ele>699.5</ele><time>2026-04-18T11:49:32.985Z</time></trkpt><trkpt lat="44.860735" lon="9.4192217"><ele>701.0</ele><time>2026-04-18T11:49:34.984Z</time></trkpt><trkpt lat="44.8606417" lon="9.4192733"><ele>703.4</ele><time>2026-04-18T11:49:36.984Z</time></trkpt><trkpt lat="44.8605267" lon="9.4193083"><ele>705.8</ele><time>2026-04-18T11:49:38.983Z</time></trkpt><trkpt lat="44.86042" lon="9.4193"><ele>708.1999999999999</ele><time>2026-04-18T11:49:40.983Z</time></trkpt><trkpt lat="44.8603033" lon="9.41925"><ele>710.5999999999999</ele><time>2026-04-18T11:49:42.983Z</time></trkpt><trkpt lat="44.860245" lon="9.419215"><ele>713.0</ele><time>2026-04-18T11:49:43.984Z</time></trkpt><trkpt lat="44.8601733" lon="9.419095"><ele>713.0</ele><time>2026-04-18T11:49:45.986Z</time></trkpt><trkpt lat="44.8601517" lon="9.4189117"><ele>713.0</ele><time>2026-04-18T11:49:47.983Z</time></trkpt><trkpt lat="44.8601333" lon="9.4188017"><ele>713.0</ele><time>2026-04-18T11:49:48.984Z</time></trkpt><trkpt lat="44.8601317" lon="9.41869"><ele>713.0</ele><time>2026-04-18T11:49:49.982Z</time></trkpt><trkpt lat="44.8601367" lon="9.418585"><ele>713.0</ele><time>2026-04-18T11:49:50.984Z</time></trkpt><trkpt lat="44.8601433" lon="9.418475"><ele>713.0</ele><time>2026-04-18T11:49:51.984Z</time></trkpt><trkpt lat="44.86016" lon="9.4183517"><ele>709.6666666666666</ele><time>2026-04-18T11:49:52.983Z</time></trkpt><trkpt lat="44.860185" lon="9.4182183"><ele>706.3333333333333</ele><time>2026-04-18T11:49:53.984Z</time></trkpt><trkpt lat="44.8602117" lon="9.4180933"><ele>703.0</ele><time>2026-04-18T11:49:54.984Z</time></trkpt><trkpt lat="44.8602383" lon="9.41798"><ele>699.6666666666666</ele><time>2026-04-18T11:49:55.983Z</time></trkpt><trkpt lat="44.86026" lon="9.4178767"><ele>696.3333333333334</ele><time>2026-04-18T11:49:56.983Z</time></trkpt><trkpt lat="44.8602817" lon="9.4177767"><ele>693.0</ele><time>2026-04-18T11:49:57.984Z</time></trkpt><trkpt lat="44.8603067" lon="9.41769"><ele>690.0</ele><time>2026-04-18T11:49:58.982Z</time></trkpt><trkpt lat="44.8603817" lon="9.4175967"><ele>687.0</ele><time>2026-04-18T11:50:00.983Z</time></trkpt><trkpt lat="44.8604583" lon="9.4176183"><ele>684.0</ele><time>2026-04-18T11:50:02.984Z</time></trkpt><trkpt lat="44.86055" lon="9.417685"><ele>681.0</ele><time>2026-04-18T11:50:04.984Z</time></trkpt><trkpt lat="44.860615" lon="9.417655"><ele>678.0</ele><time>2026-04-18T11:50:06.984Z</time></trkpt><trkpt lat="44.8606483" lon="9.4175667"><ele>675.0</ele><time>2026-04-18T11:50:08.983Z</time></trkpt><trkpt lat="44.8606583" lon="9.417455"><ele>675.0</ele><time>2026-04-18T11:50:10.984Z</time></trkpt><trkpt lat="44.86067" lon="9.417335"><ele>675.0</ele><time>2026-04-18T11:50:12.983Z</time></trkpt><trkpt lat="44.86069" lon="9.4172217"><ele>675.0</ele><time>2026-04-18T11:50:14.984Z</time></trkpt><trkpt lat="44.86071" lon="9.41711"><ele>675.0</ele><time>2026-04-18T11:50:17.982Z</time></trkpt><trkpt lat="44.86073" lon="9.417015"><ele>675.0</ele><time>2026-04-18T11:50:20.983Z</time></trkpt><trkpt lat="44.8607567" lon="9.4169033"><ele>675.0</ele><time>2026-04-18T11:50:22.982Z</time></trkpt><trkpt lat="44.8607933" lon="9.416795"><ele>672.4285714285714</ele><time>2026-04-18T11:50:24.984Z</time></trkpt><trkpt lat="44.8607683" lon="9.4166983"><ele>669.8571428571429</ele><time>2026-04-18T11:50:27.985Z</time></trkpt><trkpt lat="44.8606817" lon="9.41669"><ele>667.2857142857142</ele><time>2026-04-18T11:50:30.983Z</time></trkpt><trkpt lat="44.8606167" lon="9.4166983"><ele>664.7142857142858</ele><time>2026-04-18T11:52:55.983Z</time></trkpt><trkpt lat="44.86056" lon="9.4167533"><ele>662.1428571428572</ele><time>2026-04-18T11:52:57.984Z</time></trkpt><trkpt lat="44.860505" lon="9.4168017"><ele>659.5714285714286</ele><time>2026-04-18T11:52:58.984Z</time></trkpt><trkpt lat="44.860455" lon="9.4168667"><ele>657.0</ele><time>2026-04-18T11:52:59.984Z</time></trkpt><trkpt lat="44.8603633" lon="9.4169567"><ele>657.0</ele><time>2026-04-18T11:53:00.984Z</time></trkpt><trkpt lat="44.8602817" lon="9.4170417"><ele>657.0</ele><time>2026-04-18T11:53:01.984Z</time></trkpt><trkpt lat="44.8602183" lon="9.417095"><ele>657.0</ele><time>2026-04-18T11:53:02.984Z</time></trkpt><trkpt lat="44.86015" lon="9.41714"><ele>657.0</ele><time>2026-04-18T11:53:03.984Z</time></trkpt><trkpt lat="44.8600867" lon="9.41717"><ele>657.0</ele><time>2026-04-18T11:53:04.984Z</time></trkpt><trkpt lat="44.8599667" lon="9.4171917"><ele>657.0</ele><time>2026-04-18T11:53:06.984Z</time></trkpt><trkpt lat="44.8598933" lon="9.4171233"><ele>658.1666666666666</ele><time>2026-04-18T11:53:08.985Z</time></trkpt><trkpt lat="44.85985" lon="9.417005"><ele>659.3333333333334</ele><time>2026-04-18T11:53:10.983Z</time></trkpt><trkpt lat="44.8597783" lon="9.4168867"><ele>660.5</ele><time>2026-04-18T11:53:12.984Z</time></trkpt><trkpt lat="44.85972" lon="9.4168467"><ele>661.6666666666667</ele><time>2026-04-18T11:53:13.985Z</time></trkpt><trkpt lat="44.859655" lon="9.4168133"><ele>662.8333333333334</ele><time>2026-04-18T11:53:14.984Z</time></trkpt><trkpt lat="44.85958" lon="9.4167767"><ele>664.0</ele><time>2026-04-18T11:53:15.986Z</time></trkpt><trkpt lat="44.8594967" lon="9.4167283"><ele>664.0</ele><time>2026-04-18T11:53:16.984Z</time></trkpt><trkpt lat="44.8594083" lon="9.4166767"><ele>664.0</ele><time>2026-04-18T11:53:17.984Z</time></trkpt><trkpt lat="44.8593283" lon="9.4166367"><ele>664.0</ele><time>2026-04-18T11:53:18.985Z</time></trkpt><trkpt lat="44.8592667" lon="9.4166067"><ele>664.0</ele><time>2026-04-18T11:53:19.985Z</time></trkpt><trkpt lat="44.8591917" lon="9.41652"><ele>664.0</ele><time>2026-04-18T11:53:21.985Z</time></trkpt><trkpt lat="44.8592067" lon="9.4163433"><ele>663.2</ele><time>2026-04-18T11:53:23.983Z</time></trkpt><trkpt lat="44.8592333" lon="9.4162467"><ele>662.4000000000001</ele><time>2026-04-18T11:53:24.984Z</time></trkpt><trkpt lat="44.8592717" lon="9.4161583"><ele>661.6</ele><time>2026-04-18T11:53:25.985Z</time></trkpt><trkpt lat="44.85934" lon="9.416035"><ele>660.8</ele><time>2026-04-18T11:53:27.984Z</time></trkpt><trkpt lat="44.8593617" lon="9.415905"><ele>660.0</ele><time>2026-04-18T11:53:29.985Z</time></trkpt><trkpt lat="44.8593167" lon="9.4157367"><ele>665.8333333333334</ele><time>2026-04-18T11:53:31.985Z</time></trkpt><trkpt lat="44.85928" lon="9.415635"><ele>671.6666666666666</ele><time>2026-04-18T11:53:32.985Z</time></trkpt><trkpt lat="44.8592367" lon="9.41554"><ele>677.5</ele><time>2026-04-18T11:53:33.983Z</time></trkpt><trkpt lat="44.8591933" lon="9.415455"><ele>683.3333333333333</ele><time>2026-04-18T11:53:34.984Z</time></trkpt><trkpt lat="44.8591533" lon="9.415385"><ele>689.1666666666666</ele><time>2026-04-18T11:53:35.984Z</time></trkpt><trkpt lat="44.859055" lon="9.41531"><ele>695.0</ele><time>2026-04-18T11:53:38.077Z</time></trkpt><trkpt lat="44.85899" lon="9.415285"><ele>695.5</ele><time>2026-04-18T11:53:38.985Z</time></trkpt><trkpt lat="44.8589233" lon="9.4152667"><ele>696.0</ele><time>2026-04-18T11:53:39.984Z</time></trkpt><trkpt lat="44.8588533" lon="9.41525"><ele>696.5</ele><time>2026-04-18T11:53:40.983Z</time></trkpt><trkpt lat="44.858785" lon="9.41524"><ele>697.0</ele><time>2026-04-18T11:53:41.983Z</time></trkpt><trkpt lat="44.8587167" lon="9.4152367"><ele>697.5</ele><time>2026-04-18T11:53:42.986Z</time></trkpt><trkpt lat="44.8586133" lon="9.4152367"><ele>698.0</ele><time>2026-04-18T11:53:44.987Z</time></trkpt><trkpt lat="44.8585433" lon="9.4151267"><ele>698.0</ele><time>2026-04-18T11:53:47.983Z</time></trkpt><trkpt lat="44.8585117" lon="9.415"><ele>698.0</ele><time>2026-04-18T11:53:58.983Z</time></trkpt><trkpt lat="44.8584833" lon="9.4149033"><ele>698.0</ele><time>2026-04-18T11:54:01.983Z</time></trkpt><trkpt lat="44.858465" lon="9.4148"><ele>698.0</ele><time>2026-04-18T11:54:04.983Z</time></trkpt><trkpt lat="44.858465" lon="9.4146833"><ele>698.0</ele><time>2026-04-18T11:54:06.983Z</time></trkpt><trkpt lat="44.85847" lon="9.4145517"><ele>698.0</ele><time>2026-04-18T11:54:08.984Z</time></trkpt><trkpt lat="44.858485" lon="9.41443"><ele>700.75</ele><time>2026-04-18T11:54:10.983Z</time></trkpt><trkpt lat="44.8585017" lon="9.41423"><ele>703.5</ele><time>2026-04-18T11:54:12.984Z</time></trkpt><trkpt lat="44.858505" lon="9.41405"><ele>706.25</ele><time>2026-04-18T11:54:14.983Z</time></trkpt><trkpt lat="44.8584733" lon="9.4139183"><ele>709.0</ele><time>2026-04-18T11:54:16.983Z</time></trkpt><trkpt lat="44.8583767" lon="9.413905"><ele>715.0</ele><time>2026-04-18T11:54:18.982Z</time></trkpt><trkpt lat="44.8582667" lon="9.413855"><ele>721.0</ele><time>2026-04-18T11:54:20.983Z</time></trkpt><trkpt lat="44.8581517" lon="9.4137833"><ele>727.0</ele><time>2026-04-18T11:54:22.982Z</time></trkpt><trkpt lat="44.8580483" lon="9.41369"><ele>733.0</ele><time>2026-04-18T11:54:24.984Z</time></trkpt><trkpt lat="44.8579967" lon="9.4136283"><ele>739.0</ele><time>2026-04-18T11:54:25.984Z</time></trkpt><trkpt lat="44.85795" lon="9.4135533"><ele>739.0</ele><time>2026-04-18T11:54:26.984Z</time></trkpt><trkpt lat="44.857895" lon="9.4134817"><ele>739.0</ele><time>2026-04-18T11:54:27.985Z</time></trkpt><trkpt lat="44.85784" lon="9.4134133"><ele>739.0</ele><time>2026-04-18T11:54:28.983Z</time></trkpt><trkpt lat="44.85777" lon="9.41336"><ele>739.0</ele><time>2026-04-18T11:54:29.983Z</time></trkpt><trkpt lat="44.8577033" lon="9.4133"><ele>739.0</ele><time>2026-04-18T11:54:30.984Z</time></trkpt><trkpt lat="44.8576367" lon="9.41326"><ele>739.0</ele><time>2026-04-18T11:54:31.983Z</time></trkpt><trkpt lat="44.8575783" lon="9.413215"><ele>739.0</ele><time>2026-04-18T11:54:32.984Z</time></trkpt><trkpt lat="44.8574933" lon="9.4131967"><ele>744.6666666666667</ele><time>2026-04-18T11:54:34.983Z</time></trkpt><trkpt lat="44.8574683" lon="9.4133117"><ele>750.3333333333334</ele><time>2026-04-18T11:54:37.984Z</time></trkpt><trkpt lat="44.8574383" lon="9.41339"><ele>756.0</ele><time>2026-04-18T11:54:39.983Z</time></trkpt><trkpt lat="44.8573668" lon="9.4135289"><ele>761.6666666666667</ele><time>2026-04-18T11:55:07.987Z</time></trkpt><trkpt lat="44.8572987" lon="9.4136101"><ele>767.3333333333334</ele><time>2026-04-18T11:55:11.003Z</time></trkpt><trkpt lat="44.8572092" lon="9.4136158"><ele>773.0</ele><time>2026-04-18T11:55:14.046Z</time></trkpt><trkpt lat="44.8571702" lon="9.4137605"><ele>775.4</ele><time>2026-04-18T11:55:15.995Z</time></trkpt><trkpt lat="44.8571265" lon="9.4138831"><ele>777.8</ele><time>2026-04-18T11:55:18.076Z</time></trkpt><trkpt lat="44.8570607" lon="9.4139288"><ele>780.2</ele><time>2026-04-18T11:55:20.052Z</time></trkpt><trkpt lat="44.8569825" lon="9.4140594"><ele>782.6</ele><time>2026-04-18T11:55:21.984Z</time></trkpt><trkpt lat="44.8569246" lon="9.414137"><ele>785.0</ele><time>2026-04-18T11:55:22.983Z</time></trkpt><trkpt lat="44.8568528" lon="9.4142019"><ele>789.5000000000001</ele><time>2026-04-18T11:55:23.983Z</time></trkpt><trkpt lat="44.856768" lon="9.4142629"><ele>794.0</ele><time>2026-04-18T11:55:24.984Z</time></trkpt><trkpt lat="44.8566858" lon="9.4143204"><ele>798.5</ele><time>2026-04-18T11:55:25.983Z</time></trkpt><trkpt lat="44.8566062" lon="9.4143573"><ele>803.0</ele><time>2026-04-18T11:55:26.983Z</time></trkpt><trkpt lat="44.8565319" lon="9.4143837"><ele>807.5000000000001</ele><time>2026-04-18T11:55:27.985Z</time></trkpt><trkpt lat="44.8564419" lon="9.4144226"><ele>812.0</ele><time>2026-04-18T11:55:29.986Z</time></trkpt><trkpt lat="44.856358" lon="9.4144466"><ele>812.0000000000001</ele><time>2026-04-18T11:55:33.983Z</time></trkpt><trkpt lat="44.856295" lon="9.4144083"><ele>812.0</ele><time>2026-04-18T11:55:36.983Z</time></trkpt><trkpt lat="44.8562033" lon="9.4143217"><ele>812.0</ele><time>2026-04-18T11:59:43.983Z</time></trkpt><trkpt lat="44.8561117" lon="9.414265"><ele>812.0</ele><time>2026-04-18T11:59:45.984Z</time></trkpt><trkpt lat="44.8560417" lon="9.4142283"><ele>812.0000000000001</ele><time>2026-04-18T11:59:46.983Z</time></trkpt><trkpt lat="44.8559667" lon="9.414195"><ele>812.0</ele><time>2026-04-18T11:59:47.984Z</time></trkpt><trkpt lat="44.8558867" lon="9.4141633"><ele>813.8333333333334</ele><time>2026-04-18T11:59:48.986Z</time></trkpt><trkpt lat="44.85581" lon="9.4141233"><ele>815.6666666666667</ele><time>2026-04-18T11:59:49.985Z</time></trkpt><trkpt lat="44.8557417" lon="9.41407"><ele>817.5</ele><time>2026-04-18T11:59:50.984Z</time></trkpt><trkpt lat="44.8556717" lon="9.4140117"><ele>819.3333333333333</ele><time>2026-04-18T11:59:51.983Z</time></trkpt><trkpt lat="44.8556133" lon="9.4139367"><ele>821.1666666666666</ele><time>2026-04-18T11:59:52.984Z</time></trkpt><trkpt lat="44.85557" lon="9.4138517"><ele>823.0</ele><time>2026-04-18T11:59:53.983Z</time></trkpt><trkpt lat="44.8555283" lon="9.41378"><ele>822.9999999999999</ele><time>2026-04-18T11:59:54.983Z</time></trkpt><trkpt lat="44.85548" lon="9.4137217"><ele>823.0</ele><time>2026-04-18T11:59:55.985Z</time></trkpt><trkpt lat="44.8553783" lon="9.4136233"><ele>823.0</ele><time>2026-04-18T11:59:57.983Z</time></trkpt><trkpt lat="44.8553183" lon="9.4135833"><ele>823.0</ele><time>2026-04-18T11:59:58.984Z</time></trkpt><trkpt lat="44.8552533" lon="9.4135517"><ele>822.9999999999999</ele><time>2026-04-18T11:59:59.984Z</time></trkpt><trkpt lat="44.8551767" lon="9.413535"><ele>823.0</ele><time>2026-04-18T12:00:00.986Z</time></trkpt><trkpt lat="44.8551117" lon="9.4135267"><ele>825.8</ele><time>2026-04-18T12:00:01.983Z</time></trkpt><trkpt lat="44.8550217" lon="9.4135367"><ele>828.5999999999999</ele><time>2026-04-18T12:00:02.986Z</time></trkpt><trkpt lat="44.85495" lon="9.4135467"><ele>831.4000000000001</ele><time>2026-04-18T12:00:03.983Z</time></trkpt><trkpt lat="44.8548817" lon="9.4135667"><ele>834.2</ele><time>2026-04-18T12:00:04.985Z</time></trkpt><trkpt lat="44.854785" lon="9.4136567"><ele>837.0</ele><time>2026-04-18T12:00:06.985Z</time></trkpt><trkpt lat="44.8547017" lon="9.4137783"><ele>840.3333333333334</ele><time>2026-04-18T12:00:08.985Z</time></trkpt><trkpt lat="44.85464" lon="9.4138783"><ele>843.6666666666667</ele><time>2026-04-18T12:00:10.983Z</time></trkpt><trkpt lat="44.854565" lon="9.41398"><ele>847.0</ele><time>2026-04-18T12:00:17.984Z</time></trkpt><trkpt lat="44.85458" lon="9.4140667"><ele>850.3333333333334</ele><time>2026-04-18T12:00:19.986Z</time></trkpt><trkpt lat="44.8546167" lon="9.4141667"><ele>853.6666666666667</ele><time>2026-04-18T12:00:31.984Z</time></trkpt><trkpt lat="44.8546783" lon="9.4142167"><ele>857.0</ele><time>2026-04-18T12:00:33.986Z</time></trkpt><trkpt lat="44.854735" lon="9.4142633"><ele>857.0000000000001</ele><time>2026-04-18T12:00:35.985Z</time></trkpt><trkpt lat="44.8547983" lon="9.4142933"><ele>857.0</ele><time>2026-04-18T12:00:37.984Z</time></trkpt><trkpt lat="44.8548583" lon="9.4143933"><ele>857.0</ele><time>2026-04-18T12:00:39.986Z</time></trkpt><trkpt lat="44.854905" lon="9.4144783"><ele>857.0</ele><time>2026-04-18T12:00:41.986Z</time></trkpt><trkpt lat="44.8549733" lon="9.4145782"><ele>857.0000000000001</ele><time>2026-04-18T12:00:45.072Z</time></trkpt><trkpt lat="44.8550118" lon="9.414686"><ele>857.0</ele><time>2026-04-18T12:00:46.978Z</time></trkpt><trkpt lat="44.8550228" lon="9.414807"><ele>859.0000000000001</ele><time>2026-04-18T12:00:49.017Z</time></trkpt><trkpt lat="44.8550579" lon="9.4149242"><ele>861.0</ele><time>2026-04-18T12:00:50.985Z</time></trkpt><trkpt lat="44.8550956" lon="9.4150199"><ele>863.0</ele><time>2026-04-18T12:00:53.048Z</time></trkpt><trkpt lat="44.8551033" lon="9.415125"><ele>865.0</ele><time>2026-04-18T12:00:54.983Z</time></trkpt><trkpt lat="44.8550933" lon="9.4152183"><ele>867.0000000000001</ele><time>2026-04-18T12:00:56.986Z</time></trkpt><trkpt lat="44.8550733" lon="9.41531"><ele>869.0</ele><time>2026-04-18T12:00:58.983Z</time></trkpt><trkpt lat="44.8550217" lon="9.4154067"><ele>871.4000000000001</ele><time>2026-04-18T12:01:00.984Z</time></trkpt><trkpt lat="44.854985" lon="9.415535"><ele>873.8000000000001</ele><time>2026-04-18T12:01:02.984Z</time></trkpt><trkpt lat="44.8549633" lon="9.4157017"><ele>876.1999999999999</ele><time>2026-04-18T12:01:04.983Z</time></trkpt><trkpt lat="44.8549333" lon="9.4158633"><ele>878.5999999999999</ele><time>2026-04-18T12:01:06.984Z</time></trkpt><trkpt lat="44.854905" lon="9.4159483"><ele>881.0</ele><time>2026-04-18T12:01:07.983Z</time></trkpt><trkpt lat="44.8548717" lon="9.416025"><ele>881.0</ele><time>2026-04-18T12:01:08.983Z</time></trkpt><trkpt lat="44.854835" lon="9.4161"><ele>881.0</ele><time>2026-04-18T12:01:09.983Z</time></trkpt><trkpt lat="44.854805" lon="9.41618"><ele>881.0</ele><time>2026-04-18T12:01:10.984Z</time></trkpt><trkpt lat="44.8547633" lon="9.4162583"><ele>881.0</ele><time>2026-04-18T12:01:11.984Z</time></trkpt><trkpt lat="44.8547167" lon="9.4163267"><ele>881.0</ele><time>2026-04-18T12:01:12.983Z</time></trkpt><trkpt lat="44.8546533" lon="9.4164617"><ele>881.0</ele><time>2026-04-18T12:01:14.984Z</time></trkpt><trkpt lat="44.8546383" lon="9.4165483"><ele>881.0</ele><time>2026-04-18T12:01:15.983Z</time></trkpt><trkpt lat="44.854635" lon="9.4166417"><ele>881.6666666666667</ele><time>2026-04-18T12:01:16.983Z</time></trkpt><trkpt lat="44.85463" lon="9.4167383"><ele>882.3333333333334</ele><time>2026-04-18T12:01:17.984Z</time></trkpt><trkpt lat="44.8546167" lon="9.4168317"><ele>883.0</ele><time>2026-04-18T12:01:18.984Z</time></trkpt><trkpt lat="44.854585" lon="9.4169633"><ele>883.6666666666667</ele><time>2026-04-18T12:01:20.984Z</time></trkpt><trkpt lat="44.85455" lon="9.4170917"><ele>884.3333333333334</ele><time>2026-04-18T12:01:28.983Z</time></trkpt><trkpt lat="44.8545367" lon="9.41722"><ele>885.0</ele><time>2026-04-18T12:01:30.983Z</time></trkpt><trkpt lat="44.8545167" lon="9.41732"><ele>885.0</ele><time>2026-04-18T12:01:32.985Z</time></trkpt><trkpt lat="44.85448" lon="9.4174183"><ele>885.0</ele><time>2026-04-18T12:01:34.982Z</time></trkpt><trkpt lat="44.8544417" lon="9.4175383"><ele>885.0</ele><time>2026-04-18T12:01:36.983Z</time></trkpt><trkpt lat="44.8544133" lon="9.41764"><ele>885.0</ele><time>2026-04-18T12:01:38.985Z</time></trkpt><trkpt lat="44.854335" lon="9.417815"><ele>885.0</ele><time>2026-04-18T12:04:54.984Z</time></trkpt><trkpt lat="44.8542667" lon="9.4178717"><ele>890.1666666666666</ele><time>2026-04-18T12:05:03.984Z</time></trkpt><trkpt lat="44.85424" lon="9.4179683"><ele>895.3333333333333</ele><time>2026-04-18T12:05:08.983Z</time></trkpt><trkpt lat="44.8542683" lon="9.4180567"><ele>900.5</ele><time>2026-04-18T12:05:12.983Z</time></trkpt><trkpt lat="44.85423" lon="9.4181517"><ele>905.6666666666666</ele><time>2026-04-18T12:05:15.983Z</time></trkpt><trkpt lat="44.8541967" lon="9.4182367"><ele>910.8333333333333</ele><time>2026-04-18T12:20:43.983Z</time></trkpt><trkpt lat="44.85414" lon="9.4183283"><ele>916.0</ele><time>2026-04-18T12:20:49.983Z</time></trkpt><trkpt lat="44.8540483" lon="9.41851"><ele>917.1666666666666</ele><time>2026-04-18T12:20:59.984Z</time></trkpt><trkpt lat="44.8540017" lon="9.41863"><ele>918.3333333333333</ele><time>2026-04-18T12:21:02.983Z</time></trkpt><trkpt lat="44.8539683" lon="9.4187367"><ele>919.5</ele><time>2026-04-18T12:21:04.983Z</time></trkpt><trkpt lat="44.853945" lon="9.4188833"><ele>920.6666666666667</ele><time>2026-04-18T12:21:06.985Z</time></trkpt><trkpt lat="44.8539267" lon="9.4189783"><ele>921.8333333333334</ele><time>2026-04-18T12:21:07.983Z</time></trkpt><trkpt lat="44.8539217" lon="9.4190767"><ele>923.0</ele><time>2026-04-18T12:21:08.984Z</time></trkpt><trkpt lat="44.8539067" lon="9.41917"><ele>923.5000000000001</ele><time>2026-04-18T12:21:09.985Z</time></trkpt><trkpt lat="44.8538883" lon="9.41926"><ele>924.0</ele><time>2026-04-18T12:21:10.983Z</time></trkpt><trkpt lat="44.8538983" lon="9.4193633"><ele>924.5</ele><time>2026-04-18T12:21:12.984Z</time></trkpt><trkpt lat="44.8539283" lon="9.4194567"><ele>925.0</ele><time>2026-04-18T12:21:14.983Z</time></trkpt><trkpt lat="44.8539633" lon="9.419535"><ele>925.5000000000001</ele><time>2026-04-18T12:21:15.984Z</time></trkpt><trkpt lat="44.85401" lon="9.4197117"><ele>926.0</ele><time>2026-04-18T12:21:17.984Z</time></trkpt><trkpt lat="44.85404" lon="9.4197983"><ele>928.4</ele><time>2026-04-18T12:21:18.983Z</time></trkpt><trkpt lat="44.8540583" lon="9.41989"><ele>930.8</ele><time>2026-04-18T12:21:19.983Z</time></trkpt><trkpt lat="44.8540783" lon="9.4200483"><ele>933.1999999999999</ele><time>2026-04-18T12:21:21.983Z</time></trkpt><trkpt lat="44.854065" lon="9.4202233"><ele>935.5999999999999</ele><time>2026-04-18T12:21:23.985Z</time></trkpt><trkpt lat="44.854065" lon="9.42037"><ele>938.0</ele><time>2026-04-18T12:21:25.983Z</time></trkpt><trkpt lat="44.8541067" lon="9.4204983"><ele>938.8333333333334</ele><time>2026-04-18T12:21:27.983Z</time></trkpt><trkpt lat="44.85417" lon="9.4205917"><ele>939.6666666666667</ele><time>2026-04-18T12:21:29.983Z</time></trkpt><trkpt lat="44.8541933" lon="9.4207"><ele>940.5</ele><time>2026-04-18T12:21:32.984Z</time></trkpt><trkpt lat="44.85419" lon="9.4207933"><ele>941.3333333333333</ele><time>2026-04-18T12:21:36.983Z</time></trkpt><trkpt lat="44.8542033" lon="9.4209367"><ele>942.1666666666666</ele><time>2026-04-18T12:21:54.983Z</time></trkpt><trkpt lat="44.8541867" lon="9.4210267"><ele>943.0</ele><time>2026-04-18T12:22:15.983Z</time></trkpt><trkpt lat="44.85424" lon="9.4211133"><ele>934.75</ele><time>2026-04-18T12:22:18.984Z</time></trkpt><trkpt lat="44.8543067" lon="9.4212317"><ele>926.5</ele><time>2026-04-18T12:22:21.983Z</time></trkpt><trkpt lat="44.85438" lon="9.4213617"><ele>918.25</ele><time>2026-04-18T12:22:23.983Z</time></trkpt><trkpt lat="44.8544717" lon="9.42147"><ele>910.0</ele><time>2026-04-18T12:22:25.982Z</time></trkpt><trkpt lat="44.8546067" lon="9.4215633"><ele>910.0</ele><time>2026-04-18T12:22:28.984Z</time></trkpt><trkpt lat="44.85467" lon="9.4216"><ele>910.0</ele><time>2026-04-18T12:22:30.984Z</time></trkpt><trkpt lat="44.85472" lon="9.421665"><ele>910.0</ele><time>2026-04-18T12:23:14.983Z</time></trkpt><trkpt lat="44.8548017" lon="9.4217517"><ele>910.0</ele><time>2026-04-18T12:23:16.983Z</time></trkpt><trkpt lat="44.8548617" lon="9.4218833"><ele>910.0</ele><time>2026-04-18T12:23:18.983Z</time></trkpt><trkpt lat="44.8548983" lon="9.42205"><ele>909.8571428571429</ele><time>2026-04-18T12:23:20.984Z</time></trkpt><trkpt lat="44.854895" lon="9.4221483"><ele>909.7142857142858</ele><time>2026-04-18T12:23:21.985Z</time></trkpt><trkpt lat="44.85488" lon="9.422255"><ele>909.5714285714286</ele><time>2026-04-18T12:23:22.983Z</time></trkpt><trkpt lat="44.8548633" lon="9.4223533"><ele>909.4285714285714</ele><time>2026-04-18T12:23:23.983Z</time></trkpt><trkpt lat="44.8548467" lon="9.42245"><ele>909.2857142857143</ele><time>2026-04-18T12:23:24.984Z</time></trkpt><trkpt lat="44.8548233" lon="9.4225383"><ele>909.1428571428571</ele><time>2026-04-18T12:23:25.984Z</time></trkpt><trkpt lat="44.8548067" lon="9.4226617"><ele>909.0</ele><time>2026-04-18T12:23:27.984Z</time></trkpt><trkpt lat="44.85479" lon="9.4227833"><ele>909.0</ele><time>2026-04-18T12:23:46.983Z</time></trkpt><trkpt lat="44.8547017" lon="9.422815"><ele>909.0000000000001</ele><time>2026-04-18T12:23:48.984Z</time></trkpt><trkpt lat="44.8545983" lon="9.4228533"><ele>909.0000000000001</ele><time>2026-04-18T12:23:50.984Z</time></trkpt><trkpt lat="44.8544933" lon="9.422915"><ele>909.0</ele><time>2026-04-18T12:23:52.983Z</time></trkpt><trkpt lat="44.85441" lon="9.4230083"><ele>909.0</ele><time>2026-04-18T12:23:54.983Z</time></trkpt><trkpt lat="44.8543367" lon="9.4231283"><ele>907.7142857142857</ele><time>2026-04-18T12:23:56.984Z</time></trkpt><trkpt lat="44.854295" lon="9.4231983"><ele>906.4285714285716</ele><time>2026-04-18T12:23:57.984Z</time></trkpt><trkpt lat="44.85425" lon="9.4232717"><ele>905.1428571428572</ele><time>2026-04-18T12:23:58.984Z</time></trkpt><trkpt lat="44.854205" lon="9.4233667"><ele>903.8571428571429</ele><time>2026-04-18T12:23:59.983Z</time></trkpt><trkpt lat="44.8541633" lon="9.4234583"><ele>902.5714285714287</ele><time>2026-04-18T12:24:00.983Z</time></trkpt><trkpt lat="44.85412" lon="9.423555"><ele>901.2857142857144</ele><time>2026-04-18T12:24:01.984Z</time></trkpt><trkpt lat="44.8540733" lon="9.4236367"><ele>900.0000000000001</ele><time>2026-04-18T12:24:02.983Z</time></trkpt><trkpt lat="44.8539767" lon="9.4236817"><ele>908.8</ele><time>2026-04-18T12:24:04.983Z</time></trkpt><trkpt lat="44.8538917" lon="9.4236733"><ele>917.6</ele><time>2026-04-18T12:24:06.984Z</time></trkpt><trkpt lat="44.85383" lon="9.42365"><ele>926.4000000000001</ele><time>2026-04-18T12:24:08.984Z</time></trkpt><trkpt lat="44.85376" lon="9.4235967"><ele>935.2</ele><time>2026-04-18T12:24:10.984Z</time></trkpt><trkpt lat="44.8536617" lon="9.42354"><ele>944.0</ele><time>2026-04-18T12:24:12.984Z</time></trkpt><trkpt lat="44.8535833" lon="9.4234183"><ele>944.0000000000001</ele><time>2026-04-18T12:24:14.984Z</time></trkpt><trkpt lat="44.8535233" lon="9.4232783"><ele>944.0</ele><time>2026-04-18T12:24:16.984Z</time></trkpt><trkpt lat="44.8534483" lon="9.4231583"><ele>944.0</ele><time>2026-04-18T12:24:18.985Z</time></trkpt><trkpt lat="44.853395" lon="9.4231033"><ele>944.0</ele><time>2026-04-18T12:24:19.984Z</time></trkpt><trkpt lat="44.8533383" lon="9.4230467"><ele>944.0000000000001</ele><time>2026-04-18T12:24:20.984Z</time></trkpt><trkpt lat="44.8532717" lon="9.422995"><ele>944.0</ele><time>2026-04-18T12:24:21.984Z</time></trkpt><trkpt lat="44.8532033" lon="9.4229367"><ele>949.1666666666667</ele><time>2026-04-18T12:24:22.984Z</time></trkpt><trkpt lat="44.8531217" lon="9.422895"><ele>954.3333333333334</ele><time>2026-04-18T12:24:23.984Z</time></trkpt><trkpt lat="44.8530391" lon="9.4228513"><ele>959.5</ele><time>2026-04-18T12:24:24.984Z</time></trkpt><trkpt lat="44.8529524" lon="9.4227884"><ele>964.6666666666667</ele><time>2026-04-18T12:24:25.984Z</time></trkpt><trkpt lat="44.8528858" lon="9.4227174"><ele>969.8333333333334</ele><time>2026-04-18T12:24:26.985Z</time></trkpt><trkpt lat="44.8528337" lon="9.4226379"><ele>975.0</ele><time>2026-04-18T12:24:27.984Z</time></trkpt><trkpt lat="44.8527865" lon="9.4225689"><ele>975.0</ele><time>2026-04-18T12:24:28.983Z</time></trkpt><trkpt lat="44.852734" lon="9.4225159"><ele>975.0</ele><time>2026-04-18T12:24:29.984Z</time></trkpt><trkpt lat="44.8526375" lon="9.4224466"><ele>975.0</ele><time>2026-04-18T12:24:31.984Z</time></trkpt><trkpt lat="44.8525781" lon="9.4223994"><ele>975.0</ele><time>2026-04-18T12:24:34.983Z</time></trkpt><trkpt lat="44.85252" lon="9.4223565"><ele>975.0</ele><time>2026-04-18T12:25:07.984Z</time></trkpt><trkpt lat="44.8524303" lon="9.4222665"><ele>975.0</ele><time>2026-04-18T12:25:09.983Z</time></trkpt><trkpt lat="44.852372" lon="9.4221559"><ele>976.0</ele><time>2026-04-18T12:25:11.984Z</time></trkpt><trkpt lat="44.8523243" lon="9.422027"><ele>977.0</ele><time>2026-04-18T12:25:13.985Z</time></trkpt><trkpt lat="44.8522673" lon="9.4219366"><ele>978.0</ele><time>2026-04-18T12:25:15.984Z</time></trkpt><trkpt lat="44.8522201" lon="9.4217964"><ele>979.0</ele><time>2026-04-18T12:25:17.985Z</time></trkpt><trkpt lat="44.8521894" lon="9.4217075"><ele>980.0</ele><time>2026-04-18T12:25:18.985Z</time></trkpt><trkpt lat="44.8521535" lon="9.4215995"><ele>980.0000000000001</ele><time>2026-04-18T12:25:19.984Z</time></trkpt><trkpt lat="44.8521154" lon="9.4214838"><ele>980.0</ele><time>2026-04-18T12:25:20.985Z</time></trkpt><trkpt lat="44.8520737" lon="9.4213825"><ele>980.0</ele><time>2026-04-18T12:25:21.984Z</time></trkpt><trkpt lat="44.8520274" lon="9.4212968"><ele>980.0</ele><time>2026-04-18T12:25:22.985Z</time></trkpt><trkpt lat="44.8519867" lon="9.421215"><ele>980.0000000000001</ele><time>2026-04-18T12:25:23.984Z</time></trkpt><trkpt lat="44.8519233" lon="9.421095"><ele>980.0</ele><time>2026-04-18T12:25:25.984Z</time></trkpt><trkpt lat="44.85185" lon="9.421"><ele>979.8</ele><time>2026-04-18T12:25:27.985Z</time></trkpt><trkpt lat="44.8517683" lon="9.4209017"><ele>979.6</ele><time>2026-04-18T12:25:29.984Z</time></trkpt><trkpt lat="44.8516833" lon="9.4207667"><ele>979.4000000000001</ele><time>2026-04-18T12:25:31.985Z</time></trkpt><trkpt lat="44.8516017" lon="9.4206683"><ele>979.2</ele><time>2026-04-18T12:25:33.985Z</time></trkpt><trkpt lat="44.8515417" lon="9.420555"><ele>979.0</ele><time>2026-04-18T12:25:35.984Z</time></trkpt><trkpt lat="44.8514883" lon="9.4204417"><ele>979.0</ele><time>2026-04-18T12:25:37.984Z</time></trkpt><trkpt lat="44.85143" lon="9.420345"><ele>979.0000000000001</ele><time>2026-04-18T12:25:39.983Z</time></trkpt><trkpt lat="44.8513833" lon="9.420285"><ele>979.0000000000001</ele><time>2026-04-18T12:25:40.985Z</time></trkpt><trkpt lat="44.85131" lon="9.42019"><ele>979.0</ele><time>2026-04-18T12:25:42.984Z</time></trkpt><trkpt lat="44.8512267" lon="9.4201133"><ele>979.0</ele><time>2026-04-18T12:25:44.984Z</time></trkpt><trkpt lat="44.851135" lon="9.4200183"><ele>979.0</ele><time>2026-04-18T12:25:46.983Z</time></trkpt><trkpt lat="44.8510633" lon="9.4199067"><ele>979.0000000000001</ele><time>2026-04-18T12:25:48.983Z</time></trkpt><trkpt lat="44.8509917" lon="9.419795"><ele>979.0000000000001</ele><time>2026-04-18T12:25:50.985Z</time></trkpt><trkpt lat="44.8509167" lon="9.4197033"><ele>979.0</ele><time>2026-04-18T12:25:51.983Z</time></trkpt><trkpt lat="44.850835" lon="9.419585"><ele>979.0</ele><time>2026-04-18T12:25:53.984Z</time></trkpt><trkpt lat="44.85078" lon="9.4194683"><ele>974.0</ele><time>2026-04-18T12:25:55.984Z</time></trkpt><trkpt lat="44.8507567" lon="9.4193317"><ele>969.0000000000001</ele><time>2026-04-18T12:25:57.985Z</time></trkpt><trkpt lat="44.850745" lon="9.4191783"><ele>964.0000000000001</ele><time>2026-04-18T12:25:59.985Z</time></trkpt><trkpt lat="44.8507483" lon="9.4190283"><ele>959.0</ele><time>2026-04-18T12:26:01.984Z</time></trkpt><trkpt lat="44.85074" lon="9.4189067"><ele>954.0</ele><time>2026-04-18T12:26:03.985Z</time></trkpt><trkpt lat="44.8507233" lon="9.418815"><ele>953.0</ele><time>2026-04-18T12:26:05.984Z</time></trkpt><trkpt lat="44.85072" lon="9.41872"><ele>952.0</ele><time>2026-04-18T12:26:07.985Z</time></trkpt><trkpt lat="44.8507217" lon="9.4186033"><ele>951.0</ele><time>2026-04-18T12:26:09.983Z</time></trkpt><trkpt lat="44.850695" lon="9.4184817"><ele>950.0</ele><time>2026-04-18T12:26:11.985Z</time></trkpt><trkpt lat="44.8506467" lon="9.4183867"><ele>949.0</ele><time>2026-04-18T12:26:13.985Z</time></trkpt><trkpt lat="44.8506" lon="9.4182967"><ele>948.0</ele><time>2026-04-18T12:26:15.985Z</time></trkpt><trkpt lat="44.8505317" lon="9.4181917"><ele>948.0</ele><time>2026-04-18T12:26:17.984Z</time></trkpt><trkpt lat="44.8504817" lon="9.4181017"><ele>948.0</ele><time>2026-04-18T12:26:19.984Z</time></trkpt><trkpt lat="44.8504433" lon="9.4180083"><ele>948.0</ele><time>2026-04-18T12:26:21.983Z</time></trkpt><trkpt lat="44.8504" lon="9.4179017"><ele>948.0</ele><time>2026-04-18T12:26:23.984Z</time></trkpt><trkpt lat="44.8503167" lon="9.4178683"><ele>948.0</ele><time>2026-04-18T12:26:27.983Z</time></trkpt><trkpt lat="44.850235" lon="9.417875"><ele>948.0</ele><time>2026-04-18T12:26:29.984Z</time></trkpt><trkpt lat="44.850125" lon="9.4179067"><ele>941.5</ele><time>2026-04-18T12:26:31.984Z</time></trkpt><trkpt lat="44.8500317" lon="9.4178783"><ele>935.0</ele><time>2026-04-18T12:26:33.983Z</time></trkpt><trkpt lat="44.8499167" lon="9.417825"><ele>928.5</ele><time>2026-04-18T12:26:35.985Z</time></trkpt><trkpt lat="44.8498217" lon="9.417765"><ele>922.0</ele><time>2026-04-18T12:26:37.985Z</time></trkpt><trkpt lat="44.8496967" lon="9.4176367"><ele>921.9999999999999</ele><time>2026-04-18T12:26:39.984Z</time></trkpt><trkpt lat="44.8496417" lon="9.4175833"><ele>922.0</ele><time>2026-04-18T12:26:40.984Z</time></trkpt><trkpt lat="44.849565" lon="9.4175183"><ele>922.0</ele><time>2026-04-18T12:26:41.984Z</time></trkpt><trkpt lat="44.849505" lon="9.417465"><ele>922.0</ele><time>2026-04-18T12:26:42.984Z</time></trkpt><trkpt lat="44.8494467" lon="9.417415"><ele>921.9999999999999</ele><time>2026-04-18T12:26:43.984Z</time></trkpt><trkpt lat="44.8493667" lon="9.41737"><ele>922.0</ele><time>2026-04-18T12:26:45.985Z</time></trkpt><trkpt lat="44.84928" lon="9.41739"><ele>919.6</ele><time>2026-04-18T12:26:47.984Z</time></trkpt><trkpt lat="44.84924" lon="9.417495"><ele>917.2</ele><time>2026-04-18T12:26:49.985Z</time></trkpt><trkpt lat="44.84919" lon="9.4176"><ele>914.8</ele><time>2026-04-18T12:26:51.983Z</time></trkpt><trkpt lat="44.8491067" lon="9.4176533"><ele>912.4</ele><time>2026-04-18T12:26:53.985Z</time></trkpt><trkpt lat="44.8490067" lon="9.4177067"><ele>910.0</ele><time>2026-04-18T12:26:55.983Z</time></trkpt><trkpt lat="44.8489167" lon="9.417805"><ele>910.0</ele><time>2026-04-18T12:26:57.984Z</time></trkpt><trkpt lat="44.8488667" lon="9.4178633"><ele>910.0</ele><time>2026-04-18T12:26:58.984Z</time></trkpt><trkpt lat="44.8488117" lon="9.4179183"><ele>910.0</ele><time>2026-04-18T12:26:59.983Z</time></trkpt><trkpt lat="44.848705" lon="9.4180083"><ele>910.0</ele><time>2026-04-18T12:27:01.985Z</time></trkpt><trkpt lat="44.8486117" lon="9.41809"><ele>910.0</ele><time>2026-04-18T12:27:03.983Z</time></trkpt><trkpt lat="44.84854" lon="9.4182083"><ele>910.0</ele><time>2026-04-18T12:27:05.984Z</time></trkpt><trkpt lat="44.8484683" lon="9.418305"><ele>910.0</ele><time>2026-04-18T12:27:07.984Z</time></trkpt><trkpt lat="44.848405" lon="9.4182683"><ele>910.0</ele><time>2026-04-18T12:27:10.984Z</time></trkpt><trkpt lat="44.8483517" lon="9.4181433"><ele>910.0</ele><time>2026-04-18T12:27:20.986Z</time></trkpt><trkpt lat="44.8482967" lon="9.4180117"><ele>910.0</ele><time>2026-04-18T12:27:22.984Z</time></trkpt><trkpt lat="44.8482367" lon="9.4178983"><ele>908.2</ele><time>2026-04-18T12:27:24.984Z</time></trkpt><trkpt lat="44.8481617" lon="9.417805"><ele>906.4</ele><time>2026-04-18T12:27:26.985Z</time></trkpt><trkpt lat="44.84808" lon="9.41772"><ele>904.5999999999999</ele><time>2026-04-18T12:27:28.983Z</time></trkpt><trkpt lat="44.8479733" lon="9.41764"><ele>902.8</ele><time>2026-04-18T12:27:30.983Z</time></trkpt><trkpt lat="44.8479133" lon="9.417585"><ele>901.0</ele><time>2026-04-18T12:27:31.985Z</time></trkpt><trkpt lat="44.84785" lon="9.417535"><ele>901.0</ele><time>2026-04-18T12:27:32.984Z</time></trkpt><trkpt lat="44.847755" lon="9.4174767"><ele>900.9999999999999</ele><time>2026-04-18T12:27:34.984Z</time></trkpt><trkpt lat="44.847655" lon="9.4174367"><ele>900.9999999999999</ele><time>2026-04-18T12:27:36.984Z</time></trkpt><trkpt lat="44.8475683" lon="9.4173333"><ele>901.0</ele><time>2026-04-18T12:27:38.985Z</time></trkpt><trkpt lat="44.8475133" lon="9.4172733"><ele>901.0</ele><time>2026-04-18T12:27:39.984Z</time></trkpt><trkpt lat="44.8474633" lon="9.41721"><ele>902.5714285714287</ele><time>2026-04-18T12:27:40.984Z</time></trkpt><trkpt lat="44.8474033" lon="9.4171483"><ele>904.1428571428572</ele><time>2026-04-18T12:27:41.984Z</time></trkpt><trkpt lat="44.847345" lon="9.417095"><ele>905.7142857142858</ele><time>2026-04-18T12:27:42.985Z</time></trkpt><trkpt lat="44.8472833" lon="9.4170383"><ele>907.2857142857142</ele><time>2026-04-18T12:27:43.984Z</time></trkpt><trkpt lat="44.8472267" lon="9.4169883"><ele>908.8571428571428</ele><time>2026-04-18T12:27:44.985Z</time></trkpt><trkpt lat="44.847175" lon="9.41693"><ele>910.4285714285713</ele><time>2026-04-18T12:27:45.984Z</time></trkpt><trkpt lat="44.8471183" lon="9.4168583"><ele>912.0</ele><time>2026-04-18T12:27:46.983Z</time></trkpt><trkpt lat="44.847065" lon="9.4167883"><ele>912.0</ele><time>2026-04-18T12:27:47.989Z</time></trkpt><trkpt lat="44.8469817" lon="9.416705"><ele>912.0</ele><time>2026-04-18T12:27:48.984Z</time></trkpt><trkpt lat="44.8469133" lon="9.4166333"><ele>912.0</ele><time>2026-04-18T12:27:49.985Z</time></trkpt><trkpt lat="44.8468383" lon="9.4165617"><ele>912.0</ele><time>2026-04-18T12:27:50.984Z</time></trkpt><trkpt lat="44.84677" lon="9.4165067"><ele>912.0</ele><time>2026-04-18T12:27:51.984Z</time></trkpt><trkpt lat="44.8466917" lon="9.4164417"><ele>912.0</ele><time>2026-04-18T12:27:52.984Z</time></trkpt><trkpt lat="44.8466283" lon="9.4163833"><ele>913.0</ele><time>2026-04-18T12:27:53.984Z</time></trkpt><trkpt lat="44.846545" lon="9.4163117"><ele>914.0</ele><time>2026-04-18T12:27:54.984Z</time></trkpt><trkpt lat="44.846465" lon="9.4162367"><ele>915.0</ele><time>2026-04-18T12:27:55.984Z</time></trkpt><trkpt lat="44.8464033" lon="9.416165"><ele>916.0</ele><time>2026-04-18T12:27:56.986Z</time></trkpt><trkpt lat="44.84632" lon="9.4160483"><ele>917.0</ele><time>2026-04-18T12:27:58.985Z</time></trkpt><trkpt lat="44.846295" lon="9.415955"><ele>917.0000000000001</ele><time>2026-04-18T12:28:00.983Z</time></trkpt><trkpt lat="44.846245" lon="9.4158733"><ele>917.0</ele><time>2026-04-18T12:28:02.984Z</time></trkpt><trkpt lat="44.84619" lon="9.4158067"><ele>917.0</ele><time>2026-04-18T12:28:04.985Z</time></trkpt><trkpt lat="44.8461333" lon="9.41572"><ele>917.0</ele><time>2026-04-18T12:28:06.983Z</time></trkpt><trkpt lat="44.8460833" lon="9.4156433"><ele>917.0000000000001</ele><time>2026-04-18T12:28:08.984Z</time></trkpt><trkpt lat="44.8460433" lon="9.4155733"><ele>917.0</ele><time>2026-04-18T12:28:10.985Z</time></trkpt><trkpt lat="44.8459717" lon="9.4155217"><ele>915.8333333333334</ele><time>2026-04-18T12:28:13.985Z</time></trkpt><trkpt lat="44.8458917" lon="9.4154917"><ele>914.6666666666667</ele><time>2026-04-18T12:28:15.984Z</time></trkpt><trkpt lat="44.8458267" lon="9.41546"><ele>913.5</ele><time>2026-04-18T12:28:17.986Z</time></trkpt><trkpt lat="44.8457567" lon="9.415515"><ele>912.3333333333333</ele><time>2026-04-18T12:28:21.983Z</time></trkpt><trkpt lat="44.8456933" lon="9.4155183"><ele>911.1666666666666</ele><time>2026-04-18T12:28:23.985Z</time></trkpt><trkpt lat="44.8456067" lon="9.4155433"><ele>910.0</ele><time>2026-04-18T12:28:25.985Z</time></trkpt><trkpt lat="44.8455233" lon="9.4156033"><ele>908.6666666666666</ele><time>2026-04-18T12:28:27.985Z</time></trkpt><trkpt lat="44.84542" lon="9.41568"><ele>907.3333333333333</ele><time>2026-04-18T12:28:29.984Z</time></trkpt><trkpt lat="44.845365" lon="9.4157333"><ele>906.0</ele><time>2026-04-18T12:28:30.984Z</time></trkpt><trkpt lat="44.84531" lon="9.4157883"><ele>904.6666666666667</ele><time>2026-04-18T12:28:31.982Z</time></trkpt><trkpt lat="44.845255" lon="9.4158383"><ele>903.3333333333334</ele><time>2026-04-18T12:28:32.983Z</time></trkpt><trkpt lat="44.8451933" lon="9.41588"><ele>902.0</ele><time>2026-04-18T12:28:33.983Z</time></trkpt><trkpt lat="44.8451283" lon="9.415915"><ele>900.6666666666667</ele><time>2026-04-18T12:28:34.984Z</time></trkpt><trkpt lat="44.8450633" lon="9.4159517"><ele>899.3333333333334</ele><time>2026-04-18T12:28:35.986Z</time></trkpt><trkpt lat="44.8449567" lon="9.4160317"><ele>898.0</ele><time>2026-04-18T12:28:37.983Z</time></trkpt><trkpt lat="44.844835" lon="9.4160633"><ele>896.6666666666667</ele><time>2026-04-18T12:28:39.983Z</time></trkpt><trkpt lat="44.8447733" lon="9.4160917"><ele>895.3333333333334</ele><time>2026-04-18T12:28:40.982Z</time></trkpt><trkpt lat="44.8447117" lon="9.4161217"><ele>894.0</ele><time>2026-04-18T12:28:41.983Z</time></trkpt><trkpt lat="44.8446483" lon="9.4161417"><ele>894.0</ele><time>2026-04-18T12:28:42.982Z</time></trkpt><trkpt lat="44.8445367" lon="9.416175"><ele>894.0000000000001</ele><time>2026-04-18T12:28:44.985Z</time></trkpt><trkpt lat="44.84446" lon="9.4161617"><ele>894.0000000000001</ele><time>2026-04-18T12:28:46.983Z</time></trkpt><trkpt lat="44.8443833" lon="9.416115"><ele>894.0</ele><time>2026-04-18T12:28:48.984Z</time></trkpt><trkpt lat="44.8442733" lon="9.4160733"><ele>894.0</ele><time>2026-04-18T12:28:50.984Z</time></trkpt><trkpt lat="44.8442083" lon="9.4160633"><ele>892.6666666666666</ele><time>2026-04-18T12:28:51.984Z</time></trkpt><trkpt lat="44.8441433" lon="9.4160483"><ele>891.3333333333333</ele><time>2026-04-18T12:28:52.983Z</time></trkpt><trkpt lat="44.8440467" lon="9.4160367"><ele>890.0</ele><time>2026-04-18T12:28:54.983Z</time></trkpt><trkpt lat="44.8439683" lon="9.4160517"><ele>888.6666666666666</ele><time>2026-04-18T12:28:56.984Z</time></trkpt><trkpt lat="44.8438667" lon="9.4160617"><ele>887.3333333333333</ele><time>2026-04-18T12:28:58.984Z</time></trkpt><trkpt lat="44.8437967" lon="9.4160567"><ele>886.0</ele><time>2026-04-18T12:28:59.983Z</time></trkpt><trkpt lat="44.84368" lon="9.4160367"><ele>885.9999999999999</ele><time>2026-04-18T12:29:01.983Z</time></trkpt><trkpt lat="44.843625" lon="9.415955"><ele>886.0</ele><time>2026-04-18T12:29:03.982Z</time></trkpt><trkpt lat="44.8436267" lon="9.415855"><ele>886.0</ele><time>2026-04-18T12:29:05.984Z</time></trkpt><trkpt lat="44.843605" lon="9.4157467"><ele>886.0</ele><time>2026-04-18T12:29:21.984Z</time></trkpt><trkpt lat="44.8435733" lon="9.4156567"><ele>885.9999999999999</ele><time>2026-04-18T12:29:23.983Z</time></trkpt><trkpt lat="44.84356" lon="9.4155283"><ele>886.0</ele><time>2026-04-18T12:29:25.984Z</time></trkpt><trkpt lat="44.8435417" lon="9.415375"><ele>883.5999999999999</ele><time>2026-04-18T12:29:27.984Z</time></trkpt><trkpt lat="44.843535" lon="9.4152333"><ele>881.1999999999999</ele><time>2026-04-18T12:29:29.984Z</time></trkpt><trkpt lat="44.843525" lon="9.4151083"><ele>878.8000000000001</ele><time>2026-04-18T12:29:31.984Z</time></trkpt><trkpt lat="44.843545" lon="9.4150033"><ele>876.4000000000001</ele><time>2026-04-18T12:29:33.983Z</time></trkpt><trkpt lat="44.8436017" lon="9.414885"><ele>874.0</ele><time>2026-04-18T12:29:35.982Z</time></trkpt><trkpt lat="44.8436783" lon="9.4147533"><ele>870.4999999999999</ele><time>2026-04-18T12:29:37.984Z</time></trkpt><trkpt lat="44.84376" lon="9.4146417"><ele>867.0</ele><time>2026-04-18T12:29:39.982Z</time></trkpt><trkpt lat="44.84383" lon="9.414565"><ele>863.5</ele><time>2026-04-18T12:29:41.984Z</time></trkpt><trkpt lat="44.8439067" lon="9.414505"><ele>860.0</ele><time>2026-04-18T12:29:44.984Z</time></trkpt><trkpt lat="44.84396" lon="9.4144467"><ele>856.4999999999999</ele><time>2026-04-18T12:29:46.984Z</time></trkpt><trkpt lat="44.84403" lon="9.4143967"><ele>853.0</ele><time>2026-04-18T12:29:48.984Z</time></trkpt><trkpt lat="44.8441" lon="9.414335"><ele>853.0</ele><time>2026-04-18T12:29:50.984Z</time></trkpt><trkpt lat="44.8441367" lon="9.4142217"><ele>853.0</ele><time>2026-04-18T12:29:53.984Z</time></trkpt><trkpt lat="44.844145" lon="9.4140933"><ele>853.0</ele><time>2026-04-18T12:29:56.983Z</time></trkpt><trkpt lat="44.8441383" lon="9.4139"><ele>853.0</ele><time>2026-04-18T12:30:40.984Z</time></trkpt><trkpt lat="44.8441483" lon="9.4137933"><ele>853.0</ele><time>2026-04-18T12:30:44.984Z</time></trkpt><trkpt lat="44.8441967" lon="9.4137033"><ele>851.3333333333333</ele><time>2026-04-18T12:30:48.986Z</time></trkpt><trkpt lat="44.8441483" lon="9.41363"><ele>849.6666666666666</ele><time>2026-04-18T12:30:53.983Z</time></trkpt><trkpt lat="44.8441233" lon="9.4135483"><ele>848.0</ele><time>2026-04-18T12:30:59.983Z</time></trkpt><trkpt lat="44.84405" lon="9.4134433"><ele>846.3333333333333</ele><time>2026-04-18T12:33:21.983Z</time></trkpt><trkpt lat="44.84397" lon="9.4134367"><ele>844.6666666666666</ele><time>2026-04-18T12:33:26.984Z</time></trkpt><trkpt lat="44.8438833" lon="9.4134167"><ele>843.0</ele><time>2026-04-18T12:33:34.985Z</time></trkpt><trkpt lat="44.84381" lon="9.413335"><ele>843.0</ele><time>2026-04-18T12:33:37.985Z</time></trkpt><trkpt lat="44.84374" lon="9.4132717"><ele>843.0</ele><time>2026-04-18T12:33:39.984Z</time></trkpt><trkpt lat="44.84366" lon="9.4131767"><ele>843.0</ele><time>2026-04-18T12:33:41.984Z</time></trkpt><trkpt lat="44.843585" lon="9.4130983"><ele>843.0</ele><time>2026-04-18T12:33:43.984Z</time></trkpt><trkpt lat="44.843515" lon="9.4130383"><ele>843.0</ele><time>2026-04-18T12:33:45.985Z</time></trkpt><trkpt lat="44.8434517" lon="9.4130017"><ele>843.0</ele><time>2026-04-18T12:33:47.985Z</time></trkpt><trkpt lat="44.843375" lon="9.412945"><ele>837.3333333333334</ele><time>2026-04-18T12:33:50.985Z</time></trkpt><trkpt lat="44.8433167" lon="9.4128817"><ele>831.6666666666667</ele><time>2026-04-18T12:33:53.985Z</time></trkpt><trkpt lat="44.8432567" lon="9.4128283"><ele>826.0</ele><time>2026-04-18T12:33:57.985Z</time></trkpt><trkpt lat="44.8431867" lon="9.41285"><ele>820.3333333333334</ele><time>2026-04-18T12:34:02.983Z</time></trkpt><trkpt lat="44.84311" lon="9.4127933"><ele>814.6666666666667</ele><time>2026-04-18T12:34:05.984Z</time></trkpt><trkpt lat="44.843035" lon="9.4127583"><ele>809.0</ele><time>2026-04-18T12:34:07.984Z</time></trkpt><trkpt lat="44.84294" lon="9.4127267"><ele>809.0</ele><time>2026-04-18T12:34:09.983Z</time></trkpt><trkpt lat="44.8428633" lon="9.4126967"><ele>809.0</ele><time>2026-04-18T12:34:11.985Z</time></trkpt><trkpt lat="44.8427517" lon="9.412675"><ele>809.0</ele><time>2026-04-18T12:34:13.984Z</time></trkpt><trkpt lat="44.8426367" lon="9.4126533"><ele>809.0</ele><time>2026-04-18T12:34:15.983Z</time></trkpt><trkpt lat="44.84255" lon="9.4126183"><ele>809.0</ele><time>2026-04-18T12:34:17.985Z</time></trkpt><trkpt lat="44.8424567" lon="9.4125917"><ele>802.0</ele><time>2026-04-18T12:34:19.984Z</time></trkpt><trkpt lat="44.8423733" lon="9.4125817"><ele>795.0</ele><time>2026-04-18T12:34:21.985Z</time></trkpt><trkpt lat="44.8423017" lon="9.4125717"><ele>788.0</ele><time>2026-04-18T12:34:23.983Z</time></trkpt><trkpt lat="44.8421783" lon="9.4124533"><ele>781.0</ele><time>2026-04-18T12:35:46.983Z</time></trkpt><trkpt lat="44.8421117" lon="9.4124167"><ele>774.0</ele><time>2026-04-18T12:35:49.984Z</time></trkpt><trkpt lat="44.84203" lon="9.4124067"><ele>774.0</ele><time>2026-04-18T12:35:51.984Z</time></trkpt><trkpt lat="44.8419433" lon="9.4124083"><ele>774.0</ele><time>2026-04-18T12:35:53.985Z</time></trkpt><trkpt lat="44.8418383" lon="9.4124133"><ele>774.0</ele><time>2026-04-18T12:35:55.984Z</time></trkpt><trkpt lat="44.8417417" lon="9.4124"><ele>774.0</ele><time>2026-04-18T12:35:57.984Z</time></trkpt><trkpt lat="44.84165" lon="9.41238"><ele>774.0</ele><time>2026-04-18T12:35:59.983Z</time></trkpt><trkpt lat="44.8415633" lon="9.41234"><ele>769.1666666666666</ele><time>2026-04-18T12:36:01.983Z</time></trkpt><trkpt lat="44.841465" lon="9.4123133"><ele>764.3333333333334</ele><time>2026-04-18T12:36:03.984Z</time></trkpt><trkpt lat="44.8413733" lon="9.412305"><ele>759.5</ele><time>2026-04-18T12:36:05.983Z</time></trkpt><trkpt lat="44.8412883" lon="9.412315"><ele>754.6666666666667</ele><time>2026-04-18T12:36:07.984Z</time></trkpt><trkpt lat="44.8412233" lon="9.4123067"><ele>749.8333333333334</ele><time>2026-04-18T12:36:09.984Z</time></trkpt><trkpt lat="44.841155" lon="9.4123"><ele>745.0</ele><time>2026-04-18T12:36:11.984Z</time></trkpt><trkpt lat="44.8411083" lon="9.412235"><ele>744.8571428571429</ele><time>2026-04-18T12:36:14.984Z</time></trkpt><trkpt lat="44.8411317" lon="9.4121233"><ele>744.7142857142857</ele><time>2026-04-18T12:36:17.984Z</time></trkpt><trkpt lat="44.8411567" lon="9.4120317"><ele>744.5714285714287</ele><time>2026-04-18T12:36:19.984Z</time></trkpt><trkpt lat="44.841185" lon="9.4119467"><ele>744.4285714285714</ele><time>2026-04-18T12:36:21.984Z</time></trkpt><trkpt lat="44.84122" lon="9.411855"><ele>744.2857142857143</ele><time>2026-04-18T12:36:23.983Z</time></trkpt><trkpt lat="44.8412517" lon="9.411765"><ele>744.1428571428572</ele><time>2026-04-18T12:36:25.984Z</time></trkpt><trkpt lat="44.8412683" lon="9.4116517"><ele>744.0</ele><time>2026-04-18T12:36:27.984Z</time></trkpt><trkpt lat="44.8412717" lon="9.411535"><ele>744.0</ele><time>2026-04-18T12:36:29.984Z</time></trkpt><trkpt lat="44.84129" lon="9.4114067"><ele>744.0</ele><time>2026-04-18T12:36:31.985Z</time></trkpt><trkpt lat="44.8413033" lon="9.4112833"><ele>744.0</ele><time>2026-04-18T12:36:33.984Z</time></trkpt><trkpt lat="44.8412967" lon="9.4111817"><ele>744.0</ele><time>2026-04-18T12:36:35.984Z</time></trkpt><trkpt lat="44.8413017" lon="9.4110867"><ele>744.0</ele><time>2026-04-18T12:36:37.986Z</time></trkpt><trkpt lat="44.84132" lon="9.410985"><ele>744.0</ele><time>2026-04-18T12:36:39.985Z</time></trkpt><trkpt lat="44.8413417" lon="9.4108783"><ele>741.3333333333334</ele><time>2026-04-18T12:36:41.984Z</time></trkpt><trkpt lat="44.841365" lon="9.41078"><ele>738.6666666666666</ele><time>2026-04-18T12:36:43.984Z</time></trkpt><trkpt lat="44.8413817" lon="9.4106683"><ele>736.0</ele><time>2026-04-18T12:36:46.984Z</time></trkpt><trkpt lat="44.8414117" lon="9.41056"><ele>733.3333333333333</ele><time>2026-04-18T12:36:49.985Z</time></trkpt><trkpt lat="44.8414433" lon="9.4104483"><ele>730.6666666666666</ele><time>2026-04-18T12:36:52.983Z</time></trkpt><trkpt lat="44.8414667" lon="9.4103433"><ele>728.0</ele><time>2026-04-18T12:36:55.984Z</time></trkpt><trkpt lat="44.8413967" lon="9.410315"><ele>728.0</ele><time>2026-04-18T12:36:59.984Z</time></trkpt><trkpt lat="44.8412983" lon="9.410355"><ele>728.0</ele><time>2026-04-18T12:37:02.984Z</time></trkpt><trkpt lat="44.8412117" lon="9.4104133"><ele>728.0</ele><time>2026-04-18T12:37:04.985Z</time></trkpt><trkpt lat="44.8411315" lon="9.4104713"><ele>728.0</ele><time>2026-04-18T12:37:06.983Z</time></trkpt><trkpt lat="44.8410597" lon="9.410507"><ele>728.0</ele><time>2026-04-18T12:37:08.984Z</time></trkpt><trkpt lat="44.8409738" lon="9.4105487"><ele>719.4</ele><time>2026-04-18T12:37:10.984Z</time></trkpt><trkpt lat="44.8408941" lon="9.4106262"><ele>710.8</ele><time>2026-04-18T12:37:12.984Z</time></trkpt><trkpt lat="44.840813" lon="9.4107179"><ele>702.2</ele><time>2026-04-18T12:37:14.985Z</time></trkpt><trkpt lat="44.8407357" lon="9.4108387"><ele>693.6</ele><time>2026-04-18T12:37:16.985Z</time></trkpt><trkpt lat="44.8406851" lon="9.4109733"><ele>685.0</ele><time>2026-04-18T12:37:18.985Z</time></trkpt><trkpt lat="44.8406077" lon="9.4110881"><ele>685.0</ele><time>2026-04-18T12:37:20.983Z</time></trkpt><trkpt lat="44.8405166" lon="9.4111408"><ele>685.0</ele><time>2026-04-18T12:37:22.982Z</time></trkpt><trkpt lat="44.8404509" lon="9.4111666"><ele>685.0</ele><time>2026-04-18T12:37:24.986Z</time></trkpt><trkpt lat="44.8403903" lon="9.4111959"><ele>685.0</ele><time>2026-04-18T12:37:26.984Z</time></trkpt><trkpt lat="44.8403196" lon="9.4112371"><ele>685.0</ele><time>2026-04-18T12:37:28.983Z</time></trkpt><trkpt lat="44.8402307" lon="9.4113005"><ele>685.0</ele><time>2026-04-18T12:37:30.984Z</time></trkpt><trkpt lat="44.8401263" lon="9.4113688"><ele>682.8</ele><time>2026-04-18T12:37:32.984Z</time></trkpt><trkpt lat="44.8400291" lon="9.4114209"><ele>680.6</ele><time>2026-04-18T12:37:34.983Z</time></trkpt><trkpt lat="44.8399446" lon="9.4114746"><ele>678.4000000000001</ele><time>2026-04-18T12:37:36.984Z</time></trkpt><trkpt lat="44.8398629" lon="9.4115388"><ele>676.2</ele><time>2026-04-18T12:37:38.983Z</time></trkpt><trkpt lat="44.8397806" lon="9.4116063"><ele>674.0</ele><time>2026-04-18T12:37:40.983Z</time></trkpt><trkpt lat="44.8396776" lon="9.4116598"><ele>674.0</ele><time>2026-04-18T12:37:42.984Z</time></trkpt><trkpt lat="44.8395811" lon="9.4116998"><ele>674.0</ele><time>2026-04-18T12:37:44.984Z</time></trkpt><trkpt lat="44.8394655" lon="9.4117647"><ele>674.0</ele><time>2026-04-18T12:37:46.983Z</time></trkpt><trkpt lat="44.8394083" lon="9.411815"><ele>674.0</ele><time>2026-04-18T12:37:47.982Z</time></trkpt><trkpt lat="44.8393167" lon="9.411895"><ele>674.0</ele><time>2026-04-18T12:37:49.985Z</time></trkpt><trkpt lat="44.839235" lon="9.4119617"><ele>668.0000000000001</ele><time>2026-04-18T12:37:51.984Z</time></trkpt><trkpt lat="44.8391733" lon="9.41202"><ele>662.0</ele><time>2026-04-18T12:37:53.983Z</time></trkpt><trkpt lat="44.839105" lon="9.4120717"><ele>656.0</ele><time>2026-04-18T12:37:56.984Z</time></trkpt><trkpt lat="44.8390817" lon="9.4119833"><ele>650.0</ele><time>2026-04-18T12:37:59.983Z</time></trkpt><trkpt lat="44.8391333" lon="9.4119133"><ele>644.0</ele><time>2026-04-18T12:38:02.983Z</time></trkpt><trkpt lat="44.83919" lon="9.4118483"><ele>638.0000000000001</ele><time>2026-04-18T12:38:06.982Z</time></trkpt><trkpt lat="44.83923" lon="9.4117533"><ele>632.0</ele><time>2026-04-18T12:38:08.983Z</time></trkpt><trkpt lat="44.8392983" lon="9.41157"><ele>636.6</ele><time>2026-04-18T12:38:10.982Z</time></trkpt><trkpt lat="44.839345" lon="9.411445"><ele>641.2</ele><time>2026-04-18T12:38:11.982Z</time></trkpt><trkpt lat="44.8394" lon="9.4113133"><ele>645.8</ele><time>2026-04-18T12:38:12.984Z</time></trkpt><trkpt lat="44.839455" lon="9.4111883"><ele>650.4</ele><time>2026-04-18T12:38:13.982Z</time></trkpt><trkpt lat="44.8395033" lon="9.41107"><ele>655.0</ele><time>2026-04-18T12:38:14.983Z</time></trkpt><trkpt lat="44.8395367" lon="9.4109517"><ele>655.0</ele><time>2026-04-18T12:38:15.984Z</time></trkpt><trkpt lat="44.8395533" lon="9.4108317"><ele>655.0</ele><time>2026-04-18T12:38:16.982Z</time></trkpt><trkpt lat="44.8395517" lon="9.4107133"><ele>655.0</ele><time>2026-04-18T12:38:17.984Z</time></trkpt><trkpt lat="44.83954" lon="9.4106033"><ele>655.0</ele><time>2026-04-18T12:38:18.982Z</time></trkpt><trkpt lat="44.839515" lon="9.4105083"><ele>655.0</ele><time>2026-04-18T12:38:19.982Z</time></trkpt><trkpt lat="44.8394767" lon="9.4103817"><ele>655.0</ele><time>2026-04-18T12:38:21.983Z</time></trkpt><trkpt lat="44.8395467" lon="9.41038"><ele>657.0</ele><time>2026-04-18T12:38:43.984Z</time></trkpt><trkpt lat="44.8395183" lon="9.4102717"><ele>659.0</ele><time>2026-04-18T12:38:46.983Z</time></trkpt><trkpt lat="44.8394133" lon="9.410155"><ele>661.0</ele><time>2026-04-18T12:38:48.983Z</time></trkpt><trkpt lat="44.83935" lon="9.4101"><ele>663.0</ele><time>2026-04-18T12:38:49.983Z</time></trkpt><trkpt lat="44.83929" lon="9.4100533"><ele>665.0</ele><time>2026-04-18T12:38:50.983Z</time></trkpt><trkpt lat="44.8392283" lon="9.41002"><ele>667.0</ele><time>2026-04-18T12:38:51.983Z</time></trkpt><trkpt lat="44.83916" lon="9.4100133"><ele>663.0</ele><time>2026-04-18T12:38:52.984Z</time></trkpt><trkpt lat="44.8390933" lon="9.4100133"><ele>659.0</ele><time>2026-04-18T12:38:53.983Z</time></trkpt><trkpt lat="44.8390217" lon="9.4099983"><ele>655.0</ele><time>2026-04-18T12:38:54.984Z</time></trkpt><trkpt lat="44.8389467" lon="9.4099617"><ele>651.0</ele><time>2026-04-18T12:38:55.983Z</time></trkpt><trkpt lat="44.838865" lon="9.4099167"><ele>647.0</ele><time>2026-04-18T12:38:56.984Z</time></trkpt><trkpt lat="44.8387717" lon="9.40987"><ele>643.0</ele><time>2026-04-18T12:38:57.982Z</time></trkpt><trkpt lat="44.8386917" lon="9.4098283"><ele>643.0</ele><time>2026-04-18T12:38:58.983Z</time></trkpt><trkpt lat="44.838615" lon="9.4097733"><ele>643.0</ele><time>2026-04-18T12:38:59.983Z</time></trkpt><trkpt lat="44.838545" lon="9.4097167"><ele>643.0</ele><time>2026-04-18T12:39:00.984Z</time></trkpt><trkpt lat="44.838475" lon="9.40966"><ele>643.0</ele><time>2026-04-18T12:39:01.984Z</time></trkpt><trkpt lat="44.83839" lon="9.4096133"><ele>643.0</ele><time>2026-04-18T12:39:02.983Z</time></trkpt><trkpt lat="44.8383117" lon="9.409585"><ele>643.0</ele><time>2026-04-18T12:39:03.983Z</time></trkpt><trkpt lat="44.8382417" lon="9.4095633"><ele>649.4</ele><time>2026-04-18T12:39:04.982Z</time></trkpt><trkpt lat="44.8381217" lon="9.409525"><ele>655.8</ele><time>2026-04-18T12:39:06.982Z</time></trkpt><trkpt lat="44.8380067" lon="9.409495"><ele>662.2</ele><time>2026-04-18T12:39:08.983Z</time></trkpt><trkpt lat="44.83794" lon="9.409475"><ele>668.6</ele><time>2026-04-18T12:39:09.983Z</time></trkpt><trkpt lat="44.8378683" lon="9.4094617"><ele>675.0</ele><time>2026-04-18T12:39:10.983Z</time></trkpt><trkpt lat="44.8377967" lon="9.4094617"><ele>675.0</ele><time>2026-04-18T12:39:11.983Z</time></trkpt><trkpt lat="44.8377233" lon="9.4094783"><ele>675.0</ele><time>2026-04-18T12:39:12.983Z</time></trkpt><trkpt lat="44.8376467" lon="9.4095"><ele>675.0</ele><time>2026-04-18T12:39:13.984Z</time></trkpt><trkpt lat="44.837525" lon="9.4095267"><ele>675.0</ele><time>2026-04-18T12:39:15.984Z</time></trkpt><trkpt lat="44.8374583" lon="9.4095083"><ele>675.0</ele><time>2026-04-18T12:39:16.984Z</time></trkpt><trkpt lat="44.83739" lon="9.40948"><ele>675.0</ele><time>2026-04-18T12:39:17.983Z</time></trkpt><trkpt lat="44.8373267" lon="9.40945"><ele>671.8571428571429</ele><time>2026-04-18T12:39:18.984Z</time></trkpt><trkpt lat="44.8372633" lon="9.4094167"><ele>668.7142857142858</ele><time>2026-04-18T12:39:19.984Z</time></trkpt><trkpt lat="44.837195" lon="9.4093917"><ele>665.5714285714287</ele><time>2026-04-18T12:39:20.985Z</time></trkpt><trkpt lat="44.837125" lon="9.4093717"><ele>662.4285714285714</ele><time>2026-04-18T12:39:21.984Z</time></trkpt><trkpt lat="44.8370483" lon="9.40935"><ele>659.2857142857143</ele><time>2026-04-18T12:39:22.985Z</time></trkpt><trkpt lat="44.83697" lon="9.4093333"><ele>656.1428571428572</ele><time>2026-04-18T12:39:23.985Z</time></trkpt><trkpt lat="44.8369" lon="9.4093117"><ele>653.0</ele><time>2026-04-18T12:39:24.984Z</time></trkpt><trkpt lat="44.8368383" lon="9.40928"><ele>651.1666666666666</ele><time>2026-04-18T12:39:25.985Z</time></trkpt><trkpt lat="44.836745" lon="9.4092217"><ele>649.3333333333333</ele><time>2026-04-18T12:39:27.984Z</time></trkpt><trkpt lat="44.8366933" lon="9.4091433"><ele>647.5</ele><time>2026-04-18T12:39:29.984Z</time></trkpt><trkpt lat="44.8367117" lon="9.4090417"><ele>645.6666666666666</ele><time>2026-04-18T12:39:31.985Z</time></trkpt><trkpt lat="44.836765" lon="9.408935"><ele>643.8333333333334</ele><time>2026-04-18T12:39:33.985Z</time></trkpt><trkpt lat="44.8368117" lon="9.4088133"><ele>642.0</ele><time>2026-04-18T12:39:35.985Z</time></trkpt><trkpt lat="44.8368733" lon="9.4086533"><ele>647.5</ele><time>2026-04-18T12:39:37.989Z</time></trkpt><trkpt lat="44.836925" lon="9.4085783"><ele>653.0</ele><time>2026-04-18T12:39:38.986Z</time></trkpt><trkpt lat="44.83698" lon="9.4085083"><ele>658.5</ele><time>2026-04-18T12:39:39.984Z</time></trkpt><trkpt lat="44.83703" lon="9.4084383"><ele>664.0</ele><time>2026-04-18T12:39:40.985Z</time></trkpt><trkpt lat="44.837095" lon="9.4082983"><ele>669.5</ele><time>2026-04-18T12:39:42.984Z</time></trkpt><trkpt lat="44.837135" lon="9.40818"><ele>675.0</ele><time>2026-04-18T12:39:44.984Z</time></trkpt><trkpt lat="44.83716" lon="9.40807"><ele>674.3333333333334</ele><time>2026-04-18T12:39:46.983Z</time></trkpt><trkpt lat="44.837155" lon="9.407955"><ele>673.6666666666666</ele><time>2026-04-18T12:39:48.984Z</time></trkpt><trkpt lat="44.8371583" lon="9.4078417"><ele>673.0</ele><time>2026-04-18T12:39:50.983Z</time></trkpt><trkpt lat="44.8371183" lon="9.40772"><ele>672.3333333333333</ele><time>2026-04-18T12:39:52.984Z</time></trkpt><trkpt lat="44.8370717" lon="9.4076067"><ele>671.6666666666666</ele><time>2026-04-18T12:39:54.984Z</time></trkpt><trkpt lat="44.8370367" lon="9.4075"><ele>671.0</ele><time>2026-04-18T12:39:56.984Z</time></trkpt><trkpt lat="44.8370017" lon="9.4074083"><ele>671.0</ele><time>2026-04-18T12:39:58.984Z</time></trkpt><trkpt lat="44.8370017" lon="9.4072933"><ele>671.0</ele><time>2026-04-18T12:40:00.983Z</time></trkpt><trkpt lat="44.8370417" lon="9.4071617"><ele>671.0</ele><time>2026-04-18T12:40:02.983Z</time></trkpt><trkpt lat="44.8370733" lon="9.40704"><ele>671.0</ele><time>2026-04-18T12:40:04.983Z</time></trkpt><trkpt lat="44.837095" lon="9.4069017"><ele>671.0</ele><time>2026-04-18T12:40:06.984Z</time></trkpt><trkpt lat="44.83709" lon="9.40676"><ele>666.5999999999999</ele><time>2026-04-18T12:40:08.984Z</time></trkpt><trkpt lat="44.8370683" lon="9.4066317"><ele>662.2</ele><time>2026-04-18T12:40:10.984Z</time></trkpt><trkpt lat="44.837045" lon="9.406515"><ele>657.8</ele><time>2026-04-18T12:40:12.984Z</time></trkpt><trkpt lat="44.8370633" lon="9.4064033"><ele>653.4000000000001</ele><time>2026-04-18T12:40:14.983Z</time></trkpt><trkpt lat="44.837105" lon="9.4062833"><ele>649.0</ele><time>2026-04-18T12:40:16.984Z</time></trkpt><trkpt lat="44.8371617" lon="9.40617"><ele>644.6</ele><time>2026-04-18T12:40:18.983Z</time></trkpt><trkpt lat="44.8372433" lon="9.4060817"><ele>640.2</ele><time>2026-04-18T12:40:20.985Z</time></trkpt><trkpt lat="44.837325" lon="9.406"><ele>635.8000000000001</ele><time>2026-04-18T12:40:22.983Z</time></trkpt><trkpt lat="44.8373767" lon="9.405875"><ele>631.4000000000001</ele><time>2026-04-18T12:40:24.984Z</time></trkpt><trkpt lat="44.8373883" lon="9.4057217"><ele>627.0</ele><time>2026-04-18T12:40:26.984Z</time></trkpt><trkpt lat="44.837395" lon="9.4056333"><ele>625.5</ele><time>2026-04-18T12:40:27.984Z</time></trkpt><trkpt lat="44.8374333" lon="9.4054817"><ele>624.0</ele><time>2026-04-18T12:40:29.983Z</time></trkpt><trkpt lat="44.83748" lon="9.4053583"><ele>622.5</ele><time>2026-04-18T12:40:31.983Z</time></trkpt><trkpt lat="44.8375033" lon="9.4052667"><ele>621.0</ele><time>2026-04-18T12:40:33.983Z</time></trkpt><trkpt lat="44.83748" lon="9.40517"><ele>619.5</ele><time>2026-04-18T12:40:35.984Z</time></trkpt><trkpt lat="44.837455" lon="9.4050567"><ele>618.0</ele><time>2026-04-18T12:40:37.984Z</time></trkpt><trkpt lat="44.837375" lon="9.404955"><ele>618.0</ele><time>2026-04-18T12:40:40.983Z</time></trkpt><trkpt lat="44.8373233" lon="9.404885"><ele>618.0</ele><time>2026-04-18T12:40:42.984Z</time></trkpt><trkpt lat="44.8373167" lon="9.4047833"><ele>618.0</ele><time>2026-04-18T12:40:44.984Z</time></trkpt><trkpt lat="44.8373417" lon="9.4046383"><ele>618.0</ele><time>2026-04-18T12:40:46.984Z</time></trkpt><trkpt lat="44.837375" lon="9.4044883"><ele>618.0</ele><time>2026-04-18T12:40:48.983Z</time></trkpt><trkpt lat="44.8374183" lon="9.404345"><ele>615.6</ele><time>2026-04-18T12:40:50.986Z</time></trkpt><trkpt lat="44.8374633" lon="9.4042133"><ele>613.1999999999999</ele><time>2026-04-18T12:40:52.985Z</time></trkpt><trkpt lat="44.837495" lon="9.4040817"><ele>610.8</ele><time>2026-04-18T12:40:54.984Z</time></trkpt><trkpt lat="44.8375267" lon="9.403965"><ele>608.4</ele><time>2026-04-18T12:40:56.984Z</time></trkpt><trkpt lat="44.8375533" lon="9.403865"><ele>606.0</ele><time>2026-04-18T12:40:58.984Z</time></trkpt><trkpt lat="44.8374983" lon="9.4037683"><ele>606.0</ele><time>2026-04-18T12:41:01.983Z</time></trkpt><trkpt lat="44.837385" lon="9.4037983"><ele>606.0</ele><time>2026-04-18T12:41:03.983Z</time></trkpt><trkpt lat="44.8373217" lon="9.4038317"><ele>606.0</ele><time>2026-04-18T12:41:04.983Z</time></trkpt><trkpt lat="44.8372583" lon="9.4038667"><ele>606.0</ele><time>2026-04-18T12:41:05.983Z</time></trkpt><trkpt lat="44.8371367" lon="9.4039433"><ele>606.0</ele><time>2026-04-18T12:41:07.984Z</time></trkpt><trkpt lat="44.8370683" lon="9.403985"><ele>606.0</ele><time>2026-04-18T12:41:08.984Z</time></trkpt><trkpt lat="44.836995" lon="9.4040267"><ele>606.0</ele><time>2026-04-18T12:41:09.982Z</time></trkpt><trkpt lat="44.8369283" lon="9.40408"><ele>606.0</ele><time>2026-04-18T12:41:10.984Z</time></trkpt><trkpt lat="44.8368667" lon="9.4041367"><ele>606.0</ele><time>2026-04-18T12:41:11.983Z</time></trkpt><trkpt lat="44.8368" lon="9.4041883"><ele>606.0</ele><time>2026-04-18T12:41:12.984Z</time></trkpt><trkpt lat="44.8367417" lon="9.40423"><ele>606.0</ele><time>2026-04-18T12:41:13.984Z</time></trkpt><trkpt lat="44.8366383" lon="9.4043067"><ele>600.8</ele><time>2026-04-18T12:41:15.984Z</time></trkpt><trkpt lat="44.836545" lon="9.4043867"><ele>595.6</ele><time>2026-04-18T12:41:17.983Z</time></trkpt><trkpt lat="44.836455" lon="9.4044317"><ele>590.4</ele><time>2026-04-18T12:41:19.984Z</time></trkpt><trkpt lat="44.836355" lon="9.4044267"><ele>585.2</ele><time>2026-04-18T12:41:21.983Z</time></trkpt><trkpt lat="44.836285" lon="9.4043417"><ele>580.0</ele><time>2026-04-18T12:41:23.985Z</time></trkpt><trkpt lat="44.8362333" lon="9.40421"><ele>580.0</ele><time>2026-04-18T12:41:25.983Z</time></trkpt><trkpt lat="44.8361617" lon="9.4041033"><ele>580.0</ele><time>2026-04-18T12:41:27.984Z</time></trkpt><trkpt lat="44.8360633" lon="9.4040517"><ele>580.0</ele><time>2026-04-18T12:41:29.983Z</time></trkpt><trkpt lat="44.835975" lon="9.4040417"><ele>580.0</ele><time>2026-04-18T12:41:31.984Z</time></trkpt><trkpt lat="44.8358933" lon="9.4039917"><ele>580.0</ele><time>2026-04-18T12:41:33.984Z</time></trkpt><trkpt lat="44.8358467" lon="9.40389"><ele>576.3333333333334</ele><time>2026-04-18T12:41:35.984Z</time></trkpt><trkpt lat="44.8358517" lon="9.403745"><ele>572.6666666666667</ele><time>2026-04-18T12:41:37.985Z</time></trkpt><trkpt lat="44.8358833" lon="9.403655"><ele>569.0</ele><time>2026-04-18T12:41:38.985Z</time></trkpt><trkpt lat="44.8359283" lon="9.40357"><ele>565.3333333333334</ele><time>2026-04-18T12:41:39.984Z</time></trkpt><trkpt lat="44.8359783" lon="9.403495"><ele>561.6666666666666</ele><time>2026-04-18T12:41:40.984Z</time></trkpt><trkpt lat="44.83603" lon="9.4034317"><ele>558.0</ele><time>2026-04-18T12:41:41.984Z</time></trkpt><trkpt lat="44.8360817" lon="9.403375"><ele>558.0</ele><time>2026-04-18T12:41:42.983Z</time></trkpt><trkpt lat="44.8361383" lon="9.4033283"><ele>558.0</ele><time>2026-04-18T12:41:43.984Z</time></trkpt><trkpt lat="44.8362533" lon="9.4032417"><ele>558.0</ele><time>2026-04-18T12:41:45.984Z</time></trkpt><trkpt lat="44.836355" lon="9.4031333"><ele>558.0</ele><time>2026-04-18T12:41:47.983Z</time></trkpt><trkpt lat="44.8364067" lon="9.403075"><ele>558.0</ele><time>2026-04-18T12:41:48.984Z</time></trkpt><trkpt lat="44.8364583" lon="9.4030217"><ele>556.8</ele><time>2026-04-18T12:41:49.983Z</time></trkpt><trkpt lat="44.8365417" lon="9.4029117"><ele>555.5999999999999</ele><time>2026-04-18T12:41:51.984Z</time></trkpt><trkpt lat="44.836555" lon="9.4028133"><ele>554.4000000000001</ele><time>2026-04-18T12:41:53.984Z</time></trkpt><trkpt lat="44.83647" lon="9.4027167"><ele>553.2</ele><time>2026-04-18T12:41:56.985Z</time></trkpt><trkpt lat="44.8363967" lon="9.4026883"><ele>552.0</ele><time>2026-04-18T12:41:57.985Z</time></trkpt><trkpt lat="44.8363083" lon="9.4026717"><ele>552.0</ele><time>2026-04-18T12:41:58.983Z</time></trkpt><trkpt lat="44.8362267" lon="9.4026733"><ele>552.0</ele><time>2026-04-18T12:41:59.984Z</time></trkpt><trkpt lat="44.8361483" lon="9.4026767"><ele>552.0</ele><time>2026-04-18T12:42:00.984Z</time></trkpt><trkpt lat="44.8360417" lon="9.4026767"><ele>552.0</ele><time>2026-04-18T12:42:02.984Z</time></trkpt><trkpt lat="44.835945" lon="9.4026283"><ele>552.0</ele><time>2026-04-18T12:42:04.985Z</time></trkpt><trkpt lat="44.8358767" lon="9.40253"><ele>550.6</ele><time>2026-04-18T12:42:06.984Z</time></trkpt><trkpt lat="44.8358" lon="9.4024133"><ele>549.2</ele><time>2026-04-18T12:42:08.986Z</time></trkpt><trkpt lat="44.83569" lon="9.4023267"><ele>547.8</ele><time>2026-04-18T12:42:10.985Z</time></trkpt><trkpt lat="44.8356167" lon="9.4022983"><ele>546.4</ele><time>2026-04-18T12:42:11.985Z</time></trkpt><trkpt lat="44.8355333" lon="9.4022717"><ele>545.0</ele><time>2026-04-18T12:42:12.983Z</time></trkpt><trkpt lat="44.8354417" lon="9.4022533"><ele>545.0</ele><time>2026-04-18T12:42:13.983Z</time></trkpt><trkpt lat="44.8353417" lon="9.4022417"><ele>545.0</ele><time>2026-04-18T12:42:14.985Z</time></trkpt><trkpt lat="44.8352433" lon="9.4022433"><ele>545.0</ele><time>2026-04-18T12:42:15.985Z</time></trkpt><trkpt lat="44.8351433" lon="9.402255"><ele>545.0</ele><time>2026-04-18T12:42:16.984Z</time></trkpt><trkpt lat="44.8350383" lon="9.4022783"><ele>545.0</ele><time>2026-04-18T12:42:17.985Z</time></trkpt><trkpt lat="44.8349433" lon="9.4022867"><ele>547.0</ele><time>2026-04-18T12:42:18.985Z</time></trkpt><trkpt lat="44.8348567" lon="9.40229"><ele>549.0</ele><time>2026-04-18T12:42:19.985Z</time></trkpt><trkpt lat="44.8347767" lon="9.4022933"><ele>551.0</ele><time>2026-04-18T12:42:20.984Z</time></trkpt><trkpt lat="44.8347017" lon="9.4022867"><ele>553.0</ele><time>2026-04-18T12:42:21.983Z</time></trkpt><trkpt lat="44.8346133" lon="9.4023"><ele>555.0</ele><time>2026-04-18T12:42:22.985Z</time></trkpt><trkpt lat="44.8345467" lon="9.4023417"><ele>557.0</ele><time>2026-04-18T12:42:23.983Z</time></trkpt><trkpt lat="44.8344767" lon="9.40239"><ele>557.0</ele><time>2026-04-18T12:42:24.987Z</time></trkpt><trkpt lat="44.8344117" lon="9.4024567"><ele>557.0</ele><time>2026-04-18T12:42:25.984Z</time></trkpt><trkpt lat="44.83437" lon="9.4025433"><ele>557.0</ele><time>2026-04-18T12:42:26.985Z</time></trkpt><trkpt lat="44.8343217" lon="9.4026867"><ele>557.0</ele><time>2026-04-18T12:42:28.983Z</time></trkpt><trkpt lat="44.834315" lon="9.4027767"><ele>557.0</ele><time>2026-04-18T12:42:29.985Z</time></trkpt><trkpt lat="44.8342683" lon="9.4029117"><ele>557.0</ele><time>2026-04-18T12:42:31.986Z</time></trkpt><trkpt lat="44.834215" lon="9.4030017"><ele>559.5</ele><time>2026-04-18T12:42:33.983Z</time></trkpt><trkpt lat="44.834095" lon="9.4029633"><ele>562.0</ele><time>2026-04-18T12:42:35.983Z</time></trkpt><trkpt lat="44.8340317" lon="9.4029117"><ele>564.5</ele><time>2026-04-18T12:42:36.983Z</time></trkpt><trkpt lat="44.8339667" lon="9.402855"><ele>567.0</ele><time>2026-04-18T12:42:37.984Z</time></trkpt><trkpt lat="44.8339067" lon="9.4027933"><ele>569.5</ele><time>2026-04-18T12:42:38.985Z</time></trkpt><trkpt lat="44.8338483" lon="9.4027333"><ele>572.0</ele><time>2026-04-18T12:42:39.984Z</time></trkpt><trkpt lat="44.8337833" lon="9.4026667"><ele>572.0</ele><time>2026-04-18T12:42:40.984Z</time></trkpt><trkpt lat="44.8337167" lon="9.4026033"><ele>572.0</ele><time>2026-04-18T12:42:41.985Z</time></trkpt><trkpt lat="44.8336617" lon="9.40255"><ele>572.0</ele><time>2026-04-18T12:42:42.984Z</time></trkpt><trkpt lat="44.83361" lon="9.4024967"><ele>572.0</ele><time>2026-04-18T12:42:43.984Z</time></trkpt><trkpt lat="44.83351" lon="9.4024017"><ele>572.0</ele><time>2026-04-18T12:42:45.984Z</time></trkpt><trkpt lat="44.83342" lon="9.40231"><ele>572.0</ele><time>2026-04-18T12:42:47.984Z</time></trkpt><trkpt lat="44.8333383" lon="9.4022867"><ele>572.4</ele><time>2026-04-18T12:42:49.984Z</time></trkpt><trkpt lat="44.8332867" lon="9.4023417"><ele>572.8000000000001</ele><time>2026-04-18T12:42:51.984Z</time></trkpt><trkpt lat="44.833255" lon="9.4024433"><ele>573.2</ele><time>2026-04-18T12:42:53.985Z</time></trkpt><trkpt lat="44.8332233" lon="9.40258"><ele>573.6</ele><time>2026-04-18T12:42:55.984Z</time></trkpt><trkpt lat="44.8332133" lon="9.4027383"><ele>574.0</ele><time>2026-04-18T12:42:57.984Z</time></trkpt><trkpt lat="44.833185" lon="9.4029167"><ele>572.6666666666667</ele><time>2026-04-18T12:42:59.984Z</time></trkpt><trkpt lat="44.8331667" lon="9.4030167"><ele>571.3333333333334</ele><time>2026-04-18T12:43:00.985Z</time></trkpt><trkpt lat="44.833145" lon="9.4031267"><ele>570.0</ele><time>2026-04-18T12:43:01.984Z</time></trkpt><trkpt lat="44.8331083" lon="9.4032283"><ele>568.6666666666666</ele><time>2026-04-18T12:43:02.984Z</time></trkpt><trkpt lat="44.8330783" lon="9.403325"><ele>567.3333333333333</ele><time>2026-04-18T12:43:03.984Z</time></trkpt><trkpt lat="44.83305" lon="9.4034233"><ele>566.0</ele><time>2026-04-18T12:43:04.984Z</time></trkpt><trkpt lat="44.833025" lon="9.4035283"><ele>566.0</ele><time>2026-04-18T12:43:05.984Z</time></trkpt><trkpt lat="44.8329983" lon="9.4036217"><ele>566.0</ele><time>2026-04-18T12:43:06.985Z</time></trkpt><trkpt lat="44.8329683" lon="9.4037083"><ele>566.0</ele><time>2026-04-18T12:43:07.985Z</time></trkpt><trkpt lat="44.832895" lon="9.4038483"><ele>566.0</ele><time>2026-04-18T12:43:09.985Z</time></trkpt><trkpt lat="44.8328433" lon="9.4039117"><ele>566.0</ele><time>2026-04-18T12:43:10.984Z</time></trkpt><trkpt lat="44.8327867" lon="9.40397"><ele>566.0</ele><time>2026-04-18T12:43:11.985Z</time></trkpt><trkpt lat="44.832675" lon="9.40402"><ele>569.0</ele><time>2026-04-18T12:43:13.984Z</time></trkpt><trkpt lat="44.8326117" lon="9.4040333"><ele>572.0</ele><time>2026-04-18T12:43:14.985Z</time></trkpt><trkpt lat="44.8325383" lon="9.4040567"><ele>575.0</ele><time>2026-04-18T12:43:15.983Z</time></trkpt><trkpt lat="44.8324683" lon="9.4040867"><ele>578.0</ele><time>2026-04-18T12:43:16.984Z</time></trkpt><trkpt lat="44.832405" lon="9.4041317"><ele>581.0</ele><time>2026-04-18T12:43:17.986Z</time></trkpt><trkpt lat="44.8323433" lon="9.40419"><ele>584.0</ele><time>2026-04-18T12:43:18.984Z</time></trkpt><trkpt lat="44.8322867" lon="9.4042417"><ele>587.0</ele><time>2026-04-18T12:43:19.983Z</time></trkpt><trkpt lat="44.8321933" lon="9.4043433"><ele>587.0</ele><time>2026-04-18T12:43:21.983Z</time></trkpt><trkpt lat="44.832105" lon="9.4044483"><ele>587.0</ele><time>2026-04-18T12:43:23.984Z</time></trkpt><trkpt lat="44.832015" lon="9.4045433"><ele>587.0</ele><time>2026-04-18T12:43:25.983Z</time></trkpt><trkpt lat="44.83192" lon="9.404625"><ele>587.0</ele><time>2026-04-18T12:43:27.984Z</time></trkpt><trkpt lat="44.8318417" lon="9.40468"><ele>587.0</ele><time>2026-04-18T12:43:29.984Z</time></trkpt><trkpt lat="44.8317767" lon="9.4047117"><ele>585.4</ele><time>2026-04-18T12:43:31.984Z</time></trkpt><trkpt lat="44.8317067" lon="9.4047567"><ele>583.8000000000001</ele><time>2026-04-18T12:43:34.984Z</time></trkpt><trkpt lat="44.831715" lon="9.4048717"><ele>582.2</ele><time>2026-04-18T12:43:36.984Z</time></trkpt><trkpt lat="44.8317417" lon="9.4050233"><ele>580.6</ele><time>2026-04-18T12:43:38.985Z</time></trkpt><trkpt lat="44.8317667" lon="9.40518"><ele>579.0</ele><time>2026-04-18T12:43:40.985Z</time></trkpt><trkpt lat="44.8317683" lon="9.4053333"><ele>579.0</ele><time>2026-04-18T12:43:42.984Z</time></trkpt><trkpt lat="44.8317833" lon="9.4054267"><ele>579.0</ele><time>2026-04-18T12:43:43.983Z</time></trkpt><trkpt lat="44.831785" lon="9.40552"><ele>579.0</ele><time>2026-04-18T12:43:44.985Z</time></trkpt><trkpt lat="44.8317983" lon="9.40568"><ele>579.0</ele><time>2026-04-18T12:43:46.983Z</time></trkpt><trkpt lat="44.8318467" lon="9.4058033"><ele>579.0</ele><time>2026-04-18T12:43:48.983Z</time></trkpt><trkpt lat="44.8318667" lon="9.4059083"><ele>579.0</ele><time>2026-04-18T12:43:50.986Z</time></trkpt><trkpt lat="44.8318483" lon="9.4060283"><ele>577.3333333333334</ele><time>2026-04-18T12:43:52.985Z</time></trkpt><trkpt lat="44.83181" lon="9.40614"><ele>575.6666666666666</ele><time>2026-04-18T12:43:54.985Z</time></trkpt><trkpt lat="44.8317967" lon="9.40625"><ele>574.0</ele><time>2026-04-18T12:43:56.983Z</time></trkpt><trkpt lat="44.8317867" lon="9.4063567"><ele>572.3333333333333</ele><time>2026-04-18T12:43:58.983Z</time></trkpt><trkpt lat="44.8317367" lon="9.4064567"><ele>570.6666666666666</ele><time>2026-04-18T12:44:00.982Z</time></trkpt><trkpt lat="44.83168" lon="9.40656"><ele>569.0</ele><time>2026-04-18T12:44:02.983Z</time></trkpt><trkpt lat="44.8316383" lon="9.406665"><ele>569.0</ele><time>2026-04-18T12:44:04.984Z</time></trkpt><trkpt lat="44.8315717" lon="9.4066717"><ele>569.0</ele><time>2026-04-18T12:44:06.983Z</time></trkpt><trkpt lat="44.8315033" lon="9.4065983"><ele>569.0</ele><time>2026-04-18T12:44:08.984Z</time></trkpt><trkpt lat="44.8314367" lon="9.4065167"><ele>569.0</ele><time>2026-04-18T12:44:10.983Z</time></trkpt><trkpt lat="44.8313617" lon="9.4064383"><ele>569.0</ele><time>2026-04-18T12:44:12.982Z</time></trkpt><trkpt lat="44.83129" lon="9.406375"><ele>569.0</ele><time>2026-04-18T12:44:14.984Z</time></trkpt><trkpt lat="44.8312267" lon="9.4063117"><ele>569.0</ele><time>2026-04-18T12:44:16.984Z</time></trkpt><trkpt lat="44.8311533" lon="9.4062467"><ele>569.0</ele><time>2026-04-18T12:44:18.982Z</time></trkpt><trkpt lat="44.83109" lon="9.4061783"><ele>569.0</ele><time>2026-04-18T12:44:20.984Z</time></trkpt><trkpt lat="44.8310333" lon="9.4060867"><ele>569.0</ele><time>2026-04-18T12:44:22.983Z</time></trkpt><trkpt lat="44.8309883" lon="9.406"><ele>569.0</ele><time>2026-04-18T12:44:24.983Z</time></trkpt><trkpt lat="44.83094" lon="9.4059417"><ele>569.0</ele><time>2026-04-18T12:44:26.984Z</time></trkpt><trkpt lat="44.8308533" lon="9.4058867"><ele>562.8</ele><time>2026-04-18T12:44:28.983Z</time></trkpt><trkpt lat="44.8307467" lon="9.4058333"><ele>556.5999999999999</ele><time>2026-04-18T12:44:30.982Z</time></trkpt><trkpt lat="44.8306767" lon="9.405845"><ele>550.4</ele><time>2026-04-18T12:44:32.984Z</time></trkpt><trkpt lat="44.8306417" lon="9.40592"><ele>544.1999999999999</ele><time>2026-04-18T12:44:34.982Z</time></trkpt><trkpt lat="44.8306567" lon="9.4060667"><ele>538.0</ele><time>2026-04-18T12:44:36.983Z</time></trkpt><trkpt lat="44.8306733" lon="9.40622"><ele>536.4</ele><time>2026-04-18T12:44:38.984Z</time></trkpt><trkpt lat="44.8306983" lon="9.4063867"><ele>534.8</ele><time>2026-04-18T12:44:40.984Z</time></trkpt><trkpt lat="44.830715" lon="9.4064733"><ele>533.2</ele><time>2026-04-18T12:44:41.984Z</time></trkpt><trkpt lat="44.8307517" lon="9.4066217"><ele>531.6</ele><time>2026-04-18T12:44:43.986Z</time></trkpt><trkpt lat="44.8308" lon="9.40675"><ele>530.0</ele><time>2026-04-18T12:44:45.985Z</time></trkpt><trkpt lat="44.8308567" lon="9.4068733"><ele>530.0</ele><time>2026-04-18T12:44:47.983Z</time></trkpt><trkpt lat="44.8308867" lon="9.4069933"><ele>530.0</ele><time>2026-04-18T12:44:49.983Z</time></trkpt><trkpt lat="44.8308683" lon="9.4071"><ele>530.0</ele><time>2026-04-18T12:44:51.984Z</time></trkpt><trkpt lat="44.8308433" lon="9.40723"><ele>530.0</ele><time>2026-04-18T12:44:53.983Z</time></trkpt><trkpt lat="44.8308533" lon="9.4073733"><ele>530.0</ele><time>2026-04-18T12:44:55.984Z</time></trkpt><trkpt lat="44.8308867" lon="9.407525"><ele>528.3333333333333</ele><time>2026-04-18T12:44:57.984Z</time></trkpt><trkpt lat="44.8308633" lon="9.4076483"><ele>526.6666666666666</ele><time>2026-04-18T12:44:59.984Z</time></trkpt><trkpt lat="44.8307717" lon="9.4077717"><ele>525.0</ele><time>2026-04-18T12:45:01.983Z</time></trkpt><trkpt lat="44.83072" lon="9.40783"><ele>523.3333333333334</ele><time>2026-04-18T12:45:02.983Z</time></trkpt><trkpt lat="44.8306683" lon="9.407895"><ele>521.6666666666667</ele><time>2026-04-18T12:45:03.983Z</time></trkpt><trkpt lat="44.8306233" lon="9.4079633"><ele>520.0</ele><time>2026-04-18T12:45:04.984Z</time></trkpt><trkpt lat="44.8305867" lon="9.4080383"><ele>517.5</ele><time>2026-04-18T12:45:05.982Z</time></trkpt><trkpt lat="44.830545" lon="9.4081133"><ele>515.0</ele><time>2026-04-18T12:45:06.983Z</time></trkpt><trkpt lat="44.8304883" lon="9.4082417"><ele>512.5</ele><time>2026-04-18T12:45:08.983Z</time></trkpt><trkpt lat="44.8304717" lon="9.4083583"><ele>510.0</ele><time>2026-04-18T12:45:10.984Z</time></trkpt><trkpt lat="44.8304633" lon="9.4084817"><ele>507.50000000000006</ele><time>2026-04-18T12:45:12.983Z</time></trkpt><trkpt lat="44.8304667" lon="9.4085917"><ele>505.0</ele><time>2026-04-18T12:45:14.983Z</time></trkpt><trkpt lat="44.8304883" lon="9.40869"><ele>505.0</ele><time>2026-04-18T12:45:16.983Z</time></trkpt><trkpt lat="44.8305033" lon="9.4088033"><ele>505.0</ele><time>2026-04-18T12:45:18.982Z</time></trkpt><trkpt lat="44.8305267" lon="9.408955"><ele>505.0</ele><time>2026-04-18T12:45:20.983Z</time></trkpt><trkpt lat="44.8305533" lon="9.40911"><ele>505.0</ele><time>2026-04-18T12:45:22.984Z</time></trkpt><trkpt lat="44.8306033" lon="9.40924"><ele>505.0</ele><time>2026-04-18T12:45:24.983Z</time></trkpt><trkpt lat="44.8306733" lon="9.4093583"><ele>505.2</ele><time>2026-04-18T12:45:26.984Z</time></trkpt><trkpt lat="44.8307033" lon="9.4095033"><ele>505.4</ele><time>2026-04-18T12:45:28.983Z</time></trkpt><trkpt lat="44.8307" lon="9.409655"><ele>505.6</ele><time>2026-04-18T12:45:30.982Z</time></trkpt><trkpt lat="44.8307233" lon="9.4097783"><ele>505.8</ele><time>2026-04-18T12:45:32.984Z</time></trkpt><trkpt lat="44.83075" lon="9.4099033"><ele>506.0</ele><time>2026-04-18T12:45:34.984Z</time></trkpt><trkpt lat="44.83078" lon="9.4100217"><ele>506.0</ele><time>2026-04-18T12:45:36.988Z</time></trkpt><trkpt lat="44.830785" lon="9.4101283"><ele>506.0</ele><time>2026-04-18T12:45:38.983Z</time></trkpt><trkpt lat="44.8307783" lon="9.410265"><ele>506.0</ele><time>2026-04-18T12:45:40.983Z</time></trkpt><trkpt lat="44.8307567" lon="9.4104233"><ele>506.0</ele><time>2026-04-18T12:45:42.983Z</time></trkpt><trkpt lat="44.8307117" lon="9.4105567"><ele>506.0</ele><time>2026-04-18T12:45:44.984Z</time></trkpt><trkpt lat="44.8306833" lon="9.4107017"><ele>503.75</ele><time>2026-04-18T12:45:46.983Z</time></trkpt><trkpt lat="44.8306633" lon="9.4108633"><ele>501.5</ele><time>2026-04-18T12:45:48.983Z</time></trkpt><trkpt lat="44.8306467" lon="9.41103"><ele>499.25</ele><time>2026-04-18T12:45:50.984Z</time></trkpt><trkpt lat="44.8306433" lon="9.4111917"><ele>497.0</ele><time>2026-04-18T12:45:52.982Z</time></trkpt><trkpt lat="44.8306283" lon="9.41135"><ele>493.25</ele><time>2026-04-18T12:45:54.982Z</time></trkpt><trkpt lat="44.830595" lon="9.4114867"><ele>489.5</ele><time>2026-04-18T12:45:56.985Z</time></trkpt><trkpt lat="44.8305883" lon="9.4116367"><ele>485.75</ele><time>2026-04-18T12:45:58.984Z</time></trkpt><trkpt lat="44.8305767" lon="9.411815"><ele>482.0</ele><time>2026-04-18T12:46:00.983Z</time></trkpt><trkpt lat="44.83055" lon="9.4119833"><ele>482.0</ele><time>2026-04-18T12:46:02.984Z</time></trkpt><trkpt lat="44.8305033" lon="9.41213"><ele>482.00000000000006</ele><time>2026-04-18T12:46:04.984Z</time></trkpt><trkpt lat="44.830445" lon="9.4122717"><ele>482.00000000000006</ele><time>2026-04-18T12:46:06.984Z</time></trkpt><trkpt lat="44.8304083" lon="9.4124017"><ele>482.0</ele><time>2026-04-18T12:46:08.984Z</time></trkpt><trkpt lat="44.8303867" lon="9.41251"><ele>482.0</ele><time>2026-04-18T12:46:10.984Z</time></trkpt><trkpt lat="44.8303717" lon="9.4126267"><ele>480.16666666666663</ele><time>2026-04-18T12:46:12.983Z</time></trkpt><trkpt lat="44.8303817" lon="9.412765"><ele>478.3333333333333</ele><time>2026-04-18T12:46:14.983Z</time></trkpt><trkpt lat="44.8304283" lon="9.4128667"><ele>476.5</ele><time>2026-04-18T12:46:16.983Z</time></trkpt><trkpt lat="44.8304867" lon="9.4129583"><ele>474.66666666666663</ele><time>2026-04-18T12:46:19.983Z</time></trkpt><trkpt lat="44.83051" lon="9.4130783"><ele>472.8333333333333</ele><time>2026-04-18T12:46:22.982Z</time></trkpt><trkpt lat="44.8305533" lon="9.4131733"><ele>471.0</ele><time>2026-04-18T12:46:24.982Z</time></trkpt><trkpt lat="44.8306167" lon="9.413245"><ele>468.20000000000005</ele><time>2026-04-18T12:46:26.985Z</time></trkpt><trkpt lat="44.8306783" lon="9.4133167"><ele>465.40000000000003</ele><time>2026-04-18T12:46:28.982Z</time></trkpt><trkpt lat="44.83071" lon="9.4134317"><ele>462.6</ele><time>2026-04-18T12:46:30.984Z</time></trkpt><trkpt lat="44.8307" lon="9.4135517"><ele>459.8</ele><time>2026-04-18T12:46:32.984Z</time></trkpt><trkpt lat="44.8306867" lon="9.4136817"><ele>457.0</ele><time>2026-04-18T12:46:34.984Z</time></trkpt><trkpt lat="44.8306767" lon="9.413835"><ele>453.6</ele><time>2026-04-18T12:46:36.983Z</time></trkpt><trkpt lat="44.8306833" lon="9.4139983"><ele>450.20000000000005</ele><time>2026-04-18T12:46:38.983Z</time></trkpt><trkpt lat="44.8306867" lon="9.4141283"><ele>446.8</ele><time>2026-04-18T12:46:40.984Z</time></trkpt><trkpt lat="44.8307067" lon="9.4142717"><ele>443.4</ele><time>2026-04-18T12:46:42.983Z</time></trkpt><trkpt lat="44.830745" lon="9.4143883"><ele>440.0</ele><time>2026-04-18T12:46:44.984Z</time></trkpt><trkpt lat="44.8307867" lon="9.41448"><ele>439.99999999999994</ele><time>2026-04-18T12:46:46.984Z</time></trkpt><trkpt lat="44.83082" lon="9.4145717"><ele>440.0</ele><time>2026-04-18T12:46:48.983Z</time></trkpt><trkpt lat="44.83087" lon="9.4146767"><ele>440.0</ele><time>2026-04-18T12:46:51.983Z</time></trkpt><trkpt lat="44.8309133" lon="9.41475"><ele>440.0</ele><time>2026-04-18T12:46:54.984Z</time></trkpt><trkpt lat="44.830925" lon="9.4146467"><ele>440.0</ele><time>2026-04-18T12:47:02.984Z</time></trkpt><trkpt lat="44.8309233" lon="9.4145467"><ele>439.99999999999994</ele><time>2026-04-18T12:47:04.983Z</time></trkpt><trkpt lat="44.8309267" lon="9.4144467"><ele>440.0</ele><time>2026-04-18T12:47:06.984Z</time></trkpt><trkpt lat="44.83094" lon="9.4143467"><ele>439.99999999999994</ele><time>2026-04-18T12:47:08.984Z</time></trkpt><trkpt lat="44.83097" lon="9.414245"><ele>440.0</ele><time>2026-04-18T12:47:10.984Z</time></trkpt><trkpt lat="44.831025" lon="9.4141333"><ele>440.0</ele><time>2026-04-18T12:47:12.983Z</time></trkpt><trkpt lat="44.8310933" lon="9.4140083"><ele>440.0</ele><time>2026-04-18T12:47:14.983Z</time></trkpt><trkpt lat="44.8311317" lon="9.4139367"><ele>439.99999999999994</ele><time>2026-04-18T12:47:15.984Z</time></trkpt><trkpt lat="44.8311683" lon="9.4138617"><ele>440.0</ele><time>2026-04-18T12:47:16.984Z</time></trkpt><trkpt lat="44.8312067" lon="9.4137883"><ele>435.8333333333333</ele><time>2026-04-18T12:47:17.984Z</time></trkpt><trkpt lat="44.8312783" lon="9.4136367"><ele>431.66666666666663</ele><time>2026-04-18T12:47:19.983Z</time></trkpt><trkpt lat="44.8313083" lon="9.4135567"><ele>427.5</ele><time>2026-04-18T12:47:20.983Z</time></trkpt><trkpt lat="44.8313283" lon="9.4134717"><ele>423.33333333333337</ele><time>2026-04-18T12:47:21.984Z</time></trkpt><trkpt lat="44.8313533" lon="9.4133767"><ele>419.1666666666667</ele><time>2026-04-18T12:47:22.983Z</time></trkpt><trkpt lat="44.8313767" lon="9.4132783"><ele>415.0</ele><time>2026-04-18T12:47:23.984Z</time></trkpt><trkpt lat="44.831405" lon="9.413185"><ele>415.00000000000006</ele><time>2026-04-18T12:47:24.983Z</time></trkpt><trkpt lat="44.831435" lon="9.413105"><ele>415.0</ele><time>2026-04-18T12:47:25.984Z</time></trkpt><trkpt lat="44.8315133" lon="9.412995"><ele>415.0</ele><time>2026-04-18T12:47:27.984Z</time></trkpt><trkpt lat="44.831595" lon="9.412915"><ele>415.0</ele><time>2026-04-18T12:47:29.984Z</time></trkpt><trkpt lat="44.8316717" lon="9.4128183"><ele>415.00000000000006</ele><time>2026-04-18T12:47:31.986Z</time></trkpt><trkpt lat="44.8317117" lon="9.4127483"><ele>415.0</ele><time>2026-04-18T12:47:32.984Z</time></trkpt><trkpt lat="44.83175" lon="9.412675"><ele>417.1666666666667</ele><time>2026-04-18T12:47:33.984Z</time></trkpt><trkpt lat="44.8317867" lon="9.4125983"><ele>419.33333333333337</ele><time>2026-04-18T12:47:34.984Z</time></trkpt><trkpt lat="44.8318367" lon="9.4124567"><ele>421.5</ele><time>2026-04-18T12:47:36.983Z</time></trkpt><trkpt lat="44.831855" lon="9.4123317"><ele>423.66666666666663</ele><time>2026-04-18T12:47:38.983Z</time></trkpt><trkpt lat="44.8318517" lon="9.4122283"><ele>425.8333333333333</ele><time>2026-04-18T12:47:40.983Z</time></trkpt><trkpt lat="44.83192" lon="9.412245"><ele>428.0</ele><time>2026-04-18T12:47:45.985Z</time></trkpt><trkpt lat="44.8319417" lon="9.4123867"><ele>429.4</ele><time>2026-04-18T12:47:47.984Z</time></trkpt><trkpt lat="44.8319483" lon="9.4125383"><ele>430.79999999999995</ele><time>2026-04-18T12:47:49.987Z</time></trkpt><trkpt lat="44.8319667" lon="9.412705"><ele>432.2</ele><time>2026-04-18T12:47:51.985Z</time></trkpt><trkpt lat="44.8319733" lon="9.4128567"><ele>433.6</ele><time>2026-04-18T12:47:53.985Z</time></trkpt><trkpt lat="44.8319683" lon="9.4129833"><ele>435.0</ele><time>2026-04-18T12:47:55.986Z</time></trkpt><trkpt lat="44.8319617" lon="9.41316"><ele>435.0</ele><time>2026-04-18T12:47:57.984Z</time></trkpt><trkpt lat="44.83195" lon="9.4133283"><ele>435.0</ele><time>2026-04-18T12:47:59.985Z</time></trkpt><trkpt lat="44.8319417" lon="9.4134967"><ele>435.0</ele><time>2026-04-18T12:48:01.985Z</time></trkpt><trkpt lat="44.8319317" lon="9.413595"><ele>435.0</ele><time>2026-04-18T12:48:02.986Z</time></trkpt><trkpt lat="44.831915" lon="9.4137067"><ele>435.0</ele><time>2026-04-18T12:48:03.985Z</time></trkpt><trkpt lat="44.8318983" lon="9.4138867"><ele>433.3333333333333</ele><time>2026-04-18T12:48:05.985Z</time></trkpt><trkpt lat="44.8318983" lon="9.41406"><ele>431.66666666666663</ele><time>2026-04-18T12:48:07.984Z</time></trkpt><trkpt lat="44.8319067" lon="9.41416"><ele>430.0</ele><time>2026-04-18T12:48:08.986Z</time></trkpt><trkpt lat="44.8319083" lon="9.41426"><ele>428.3333333333333</ele><time>2026-04-18T12:48:09.985Z</time></trkpt><trkpt lat="44.8319033" lon="9.4143733"><ele>426.66666666666663</ele><time>2026-04-18T12:48:10.984Z</time></trkpt><trkpt lat="44.8318933" lon="9.41447"><ele>425.0</ele><time>2026-04-18T12:48:11.985Z</time></trkpt><trkpt lat="44.8318883" lon="9.4145617"><ele>422.3333333333333</ele><time>2026-04-18T12:48:12.986Z</time></trkpt><trkpt lat="44.8318633" lon="9.414735"><ele>419.66666666666663</ele><time>2026-04-18T12:48:14.986Z</time></trkpt><trkpt lat="44.83186" lon="9.4148283"><ele>417.0</ele><time>2026-04-18T12:48:15.985Z</time></trkpt><trkpt lat="44.8318583" lon="9.4149267"><ele>414.33333333333337</ele><time>2026-04-18T12:48:16.984Z</time></trkpt><trkpt lat="44.83186" lon="9.4150233"><ele>411.6666666666667</ele><time>2026-04-18T12:48:17.984Z</time></trkpt><trkpt lat="44.8318617" lon="9.4151233"><ele>409.0</ele><time>2026-04-18T12:48:18.985Z</time></trkpt><trkpt lat="44.8318633" lon="9.4152283"><ele>409.00000000000006</ele><time>2026-04-18T12:48:19.985Z</time></trkpt><trkpt lat="44.8318683" lon="9.4153333"><ele>409.0</ele><time>2026-04-18T12:48:20.985Z</time></trkpt><trkpt lat="44.8318783" lon="9.4154367"><ele>409.0</ele><time>2026-04-18T12:48:21.985Z</time></trkpt><trkpt lat="44.831885" lon="9.41554"><ele>409.0</ele><time>2026-04-18T12:48:22.99Z</time></trkpt><trkpt lat="44.8318917" lon="9.4156367"><ele>409.00000000000006</ele><time>2026-04-18T12:48:23.986Z</time></trkpt><trkpt lat="44.8319017" lon="9.415815"><ele>409.0</ele><time>2026-04-18T12:48:25.985Z</time></trkpt><trkpt lat="44.8319" lon="9.4159717"><ele>408.50000000000006</ele><time>2026-04-18T12:48:27.983Z</time></trkpt><trkpt lat="44.8318567" lon="9.4160583"><ele>408.0</ele><time>2026-04-18T12:48:29.985Z</time></trkpt><trkpt lat="44.8317567" lon="9.41609"><ele>407.5</ele><time>2026-04-18T12:48:31.984Z</time></trkpt><trkpt lat="44.83164" lon="9.416155"><ele>407.0</ele><time>2026-04-18T12:48:33.983Z</time></trkpt><trkpt lat="44.8315933" lon="9.4162183"><ele>406.50000000000006</ele><time>2026-04-18T12:48:34.985Z</time></trkpt><trkpt lat="44.8315533" lon="9.4162967"><ele>406.0</ele><time>2026-04-18T12:48:35.983Z</time></trkpt><trkpt lat="44.8315233" lon="9.4163817"><ele>403.42857142857144</ele><time>2026-04-18T12:48:36.983Z</time></trkpt><trkpt lat="44.8314967" lon="9.4164683"><ele>400.8571428571429</ele><time>2026-04-18T12:48:37.983Z</time></trkpt><trkpt lat="44.8314833" lon="9.4165617"><ele>398.2857142857143</ele><time>2026-04-18T12:48:38.983Z</time></trkpt><trkpt lat="44.831475" lon="9.4166583"><ele>395.7142857142857</ele><time>2026-04-18T12:48:39.984Z</time></trkpt><trkpt lat="44.8314683" lon="9.416755"><ele>393.14285714285717</ele><time>2026-04-18T12:48:40.983Z</time></trkpt><trkpt lat="44.83146" lon="9.4168467"><ele>390.57142857142856</ele><time>2026-04-18T12:48:41.985Z</time></trkpt><trkpt lat="44.8314517" lon="9.4169367"><ele>388.0</ele><time>2026-04-18T12:48:42.984Z</time></trkpt><trkpt lat="44.831435" lon="9.4171033"><ele>387.4</ele><time>2026-04-18T12:48:44.983Z</time></trkpt><trkpt lat="44.8314417" lon="9.41727"><ele>386.79999999999995</ele><time>2026-04-18T12:48:46.984Z</time></trkpt><trkpt lat="44.8314333" lon="9.4174317"><ele>386.2</ele><time>2026-04-18T12:48:48.984Z</time></trkpt><trkpt lat="44.83135" lon="9.4175517"><ele>385.6</ele><time>2026-04-18T12:48:50.985Z</time></trkpt><trkpt lat="44.831295" lon="9.41761"><ele>385.0</ele><time>2026-04-18T12:48:51.983Z</time></trkpt><trkpt lat="44.8312417" lon="9.4176683"><ele>385.0</ele><time>2026-04-18T12:48:52.983Z</time></trkpt><trkpt lat="44.8311967" lon="9.41774"><ele>385.0</ele><time>2026-04-18T12:48:53.984Z</time></trkpt><trkpt lat="44.8311383" lon="9.4178983"><ele>385.0</ele><time>2026-04-18T12:48:55.984Z</time></trkpt><trkpt lat="44.8311167" lon="9.4179817"><ele>385.0</ele><time>2026-04-18T12:48:56.984Z</time></trkpt><trkpt lat="44.8310533" lon="9.4181033"><ele>385.0</ele><time>2026-04-18T12:48:58.984Z</time></trkpt><trkpt lat="44.8309483" lon="9.4181567"><ele>383.2857142857143</ele><time>2026-04-18T12:49:00.983Z</time></trkpt><trkpt lat="44.830885" lon="9.41815"><ele>381.57142857142856</ele><time>2026-04-18T12:49:01.983Z</time></trkpt><trkpt lat="44.8308133" lon="9.4181333"><ele>379.8571428571429</ele><time>2026-04-18T12:49:02.984Z</time></trkpt><trkpt lat="44.8307433" lon="9.41812"><ele>378.1428571428571</ele><time>2026-04-18T12:49:03.984Z</time></trkpt><trkpt lat="44.83067" lon="9.4181133"><ele>376.42857142857144</ele><time>2026-04-18T12:49:04.983Z</time></trkpt><trkpt lat="44.8306017" lon="9.4181083"><ele>374.7142857142857</ele><time>2026-04-18T12:49:05.984Z</time></trkpt><trkpt lat="44.830535" lon="9.41809"><ele>373.0</ele><time>2026-04-18T12:49:06.984Z</time></trkpt><trkpt lat="44.8304683" lon="9.4180533"><ele>373.0</ele><time>2026-04-18T12:49:07.985Z</time></trkpt><trkpt lat="44.8304" lon="9.418"><ele>373.0</ele><time>2026-04-18T12:49:08.983Z</time></trkpt><trkpt lat="44.8303233" lon="9.4179283"><ele>373.0</ele><time>2026-04-18T12:49:09.983Z</time></trkpt><trkpt lat="44.8302417" lon="9.4178517"><ele>373.0</ele><time>2026-04-18T12:49:10.984Z</time></trkpt><trkpt lat="44.8301617" lon="9.41778"><ele>373.0</ele><time>2026-04-18T12:49:11.984Z</time></trkpt><trkpt lat="44.83008" lon="9.417715"><ele>372.59999999999997</ele><time>2026-04-18T12:49:12.984Z</time></trkpt><trkpt lat="44.8300033" lon="9.4176533"><ele>372.2</ele><time>2026-04-18T12:49:13.983Z</time></trkpt><trkpt lat="44.829925" lon="9.4175933"><ele>371.8</ele><time>2026-04-18T12:49:14.984Z</time></trkpt><trkpt lat="44.8298433" lon="9.417535"><ele>371.4</ele><time>2026-04-18T12:49:15.984Z</time></trkpt><trkpt lat="44.8297583" lon="9.41748"><ele>371.0</ele><time>2026-04-18T12:49:16.984Z</time></trkpt><trkpt lat="44.8296717" lon="9.4174267"><ele>371.0</ele><time>2026-04-18T12:49:17.984Z</time></trkpt><trkpt lat="44.82959" lon="9.4173767"><ele>371.0</ele><time>2026-04-18T12:49:18.984Z</time></trkpt><trkpt lat="44.8295133" lon="9.4173217"><ele>371.0</ele><time>2026-04-18T12:49:19.984Z</time></trkpt><trkpt lat="44.829435" lon="9.4172717"><ele>371.0</ele><time>2026-04-18T12:49:20.985Z</time></trkpt><trkpt lat="44.8293567" lon="9.4172233"><ele>371.0</ele><time>2026-04-18T12:49:21.983Z</time></trkpt><trkpt lat="44.8292817" lon="9.4171717"><ele>371.0</ele><time>2026-04-18T12:49:22.986Z</time></trkpt><trkpt lat="44.8292083" lon="9.4171217"><ele>370.83333333333337</ele><time>2026-04-18T12:49:23.984Z</time></trkpt><trkpt lat="44.829135" lon="9.4170817"><ele>370.6666666666667</ele><time>2026-04-18T12:49:24.984Z</time></trkpt><trkpt lat="44.82906" lon="9.4170383"><ele>370.5</ele><time>2026-04-18T12:49:25.983Z</time></trkpt><trkpt lat="44.828985" lon="9.4169933"><ele>370.3333333333333</ele><time>2026-04-18T12:49:26.983Z</time></trkpt><trkpt lat="44.8289117" lon="9.4169483"><ele>370.16666666666663</ele><time>2026-04-18T12:49:27.984Z</time></trkpt><trkpt lat="44.8288383" lon="9.4169"><ele>370.0</ele><time>2026-04-18T12:49:28.984Z</time></trkpt><trkpt lat="44.82876" lon="9.4168517"><ele>370.0</ele><time>2026-04-18T12:49:29.983Z</time></trkpt><trkpt lat="44.82868" lon="9.41681"><ele>370.0</ele><time>2026-04-18T12:49:30.985Z</time></trkpt><trkpt lat="44.828605" lon="9.4167867"><ele>370.0</ele><time>2026-04-18T12:49:31.984Z</time></trkpt><trkpt lat="44.8285333" lon="9.4168117"><ele>370.0</ele><time>2026-04-18T12:49:32.983Z</time></trkpt><trkpt lat="44.8284617" lon="9.41686"><ele>370.0</ele><time>2026-04-18T12:49:33.984Z</time></trkpt><trkpt lat="44.828385" lon="9.4169217"><ele>370.0</ele><time>2026-04-18T12:49:34.984Z</time></trkpt><trkpt lat="44.828305" lon="9.416985"><ele>369.2</ele><time>2026-04-18T12:49:35.984Z</time></trkpt><trkpt lat="44.8282183" lon="9.4170433"><ele>368.4</ele><time>2026-04-18T12:49:36.984Z</time></trkpt><trkpt lat="44.82813" lon="9.4170983"><ele>367.6</ele><time>2026-04-18T12:49:37.983Z</time></trkpt><trkpt lat="44.8280367" lon="9.41715"><ele>366.8</ele><time>2026-04-18T12:49:38.985Z</time></trkpt><trkpt lat="44.827945" lon="9.4172017"><ele>366.0</ele><time>2026-04-18T12:49:39.984Z</time></trkpt><trkpt lat="44.8278517" lon="9.4172433"><ele>364.8</ele><time>2026-04-18T12:49:40.983Z</time></trkpt><trkpt lat="44.82776" lon="9.4172867"><ele>363.6</ele><time>2026-04-18T12:49:41.984Z</time></trkpt><trkpt lat="44.8276733" lon="9.4173433"><ele>362.4</ele><time>2026-04-18T12:49:42.984Z</time></trkpt><trkpt lat="44.8275983" lon="9.417415"><ele>361.2</ele><time>2026-04-18T12:49:43.984Z</time></trkpt><trkpt lat="44.8275317" lon="9.41751"><ele>360.0</ele><time>2026-04-18T12:49:44.986Z</time></trkpt><trkpt lat="44.8274667" lon="9.41761"><ele>360.0</ele><time>2026-04-18T12:49:45.984Z</time></trkpt><trkpt lat="44.827405" lon="9.417705"><ele>360.0</ele><time>2026-04-18T12:49:46.983Z</time></trkpt><trkpt lat="44.8273483" lon="9.4177983"><ele>360.0</ele><time>2026-04-18T12:49:47.983Z</time></trkpt><trkpt lat="44.8272967" lon="9.4179"><ele>360.0</ele><time>2026-04-18T12:49:48.983Z</time></trkpt><trkpt lat="44.827255" lon="9.4180083"><ele>360.0</ele><time>2026-04-18T12:49:49.984Z</time></trkpt><trkpt lat="44.8272167" lon="9.418125"><ele>360.0</ele><time>2026-04-18T12:49:50.985Z</time></trkpt><trkpt lat="44.82718" lon="9.4182433"><ele>359.0</ele><time>2026-04-18T12:49:51.983Z</time></trkpt><trkpt lat="44.8271433" lon="9.41835"><ele>358.0</ele><time>2026-04-18T12:49:52.984Z</time></trkpt><trkpt lat="44.8270967" lon="9.4184467"><ele>357.0</ele><time>2026-04-18T12:49:53.984Z</time></trkpt><trkpt lat="44.8270433" lon="9.4185383"><ele>356.0</ele><time>2026-04-18T12:49:54.983Z</time></trkpt><trkpt lat="44.8269917" lon="9.4186383"><ele>355.0</ele><time>2026-04-18T12:49:55.984Z</time></trkpt><trkpt lat="44.82694" lon="9.4187433"><ele>354.0</ele><time>2026-04-18T12:49:56.984Z</time></trkpt><trkpt lat="44.8268967" lon="9.418855"><ele>354.4</ele><time>2026-04-18T12:49:57.983Z</time></trkpt><trkpt lat="44.826855" lon="9.4189667"><ele>354.79999999999995</ele><time>2026-04-18T12:49:58.988Z</time></trkpt><trkpt lat="44.8268133" lon="9.4190833"><ele>355.20000000000005</ele><time>2026-04-18T12:49:59.983Z</time></trkpt><trkpt lat="44.8267667" lon="9.4192033"><ele>355.6</ele><time>2026-04-18T12:50:00.985Z</time></trkpt><trkpt lat="44.82672" lon="9.4193233"><ele>356.0</ele><time>2026-04-18T12:50:01.983Z</time></trkpt><trkpt lat="44.8266783" lon="9.4194417"><ele>356.0</ele><time>2026-04-18T12:50:02.983Z</time></trkpt><trkpt lat="44.8266283" lon="9.4195517"><ele>356.0</ele><time>2026-04-18T12:50:03.985Z</time></trkpt><trkpt lat="44.8265717" lon="9.4196467"><ele>356.0</ele><time>2026-04-18T12:50:04.984Z</time></trkpt><trkpt lat="44.8265083" lon="9.41971"><ele>356.0</ele><time>2026-04-18T12:50:05.983Z</time></trkpt><trkpt lat="44.82644" lon="9.4197367"><ele>356.0</ele><time>2026-04-18T12:50:06.983Z</time></trkpt><trkpt lat="44.8263333" lon="9.419675"><ele>356.0</ele><time>2026-04-18T12:50:08.984Z</time></trkpt><trkpt lat="44.8262667" lon="9.4195517"><ele>356.0</ele><time>2026-04-18T12:50:10.983Z</time></trkpt><trkpt lat="44.8262383" lon="9.4194367"><ele>356.0</ele><time>2026-04-18T12:50:12.984Z</time></trkpt><trkpt lat="44.8262083" lon="9.4192567"><ele>356.0</ele><time>2026-04-18T12:50:14.983Z</time></trkpt><trkpt lat="44.8261883" lon="9.4191517"><ele>356.0</ele><time>2026-04-18T12:50:15.984Z</time></trkpt><trkpt lat="44.82616" lon="9.4190417"><ele>356.0</ele><time>2026-04-18T12:50:16.985Z</time></trkpt><trkpt lat="44.8261217" lon="9.4189167"><ele>356.8</ele><time>2026-04-18T12:50:17.983Z</time></trkpt><trkpt lat="44.8260733" lon="9.4187883"><ele>357.6</ele><time>2026-04-18T12:50:18.984Z</time></trkpt><trkpt lat="44.8260233" lon="9.418665"><ele>358.4</ele><time>2026-04-18T12:50:19.984Z</time></trkpt><trkpt lat="44.8259683" lon="9.41855"><ele>359.2</ele><time>2026-04-18T12:50:20.984Z</time></trkpt><trkpt lat="44.8259117" lon="9.418435"><ele>360.0</ele><time>2026-04-18T12:50:21.984Z</time></trkpt><trkpt lat="44.8258567" lon="9.4183283"><ele>360.0</ele><time>2026-04-18T12:50:22.988Z</time></trkpt><trkpt lat="44.8257967" lon="9.4182367"><ele>360.0</ele><time>2026-04-18T12:50:23.985Z</time></trkpt><trkpt lat="44.8257333" lon="9.4181683"><ele>360.0</ele><time>2026-04-18T12:50:24.984Z</time></trkpt><trkpt lat="44.8256617" lon="9.41813"><ele>360.0</ele><time>2026-04-18T12:50:25.983Z</time></trkpt><trkpt lat="44.8255883" lon="9.4181117"><ele>360.0</ele><time>2026-04-18T12:50:26.984Z</time></trkpt><trkpt lat="44.8255183" lon="9.4181417"><ele>360.0</ele><time>2026-04-18T12:50:27.984Z</time></trkpt><trkpt lat="44.8254467" lon="9.4181983"><ele>360.0</ele><time>2026-04-18T12:50:28.983Z</time></trkpt><trkpt lat="44.8253917" lon="9.41828"><ele>360.0</ele><time>2026-04-18T12:50:29.984Z</time></trkpt><trkpt lat="44.82536" lon="9.4183867"><ele>360.0</ele><time>2026-04-18T12:50:30.984Z</time></trkpt><trkpt lat="44.8253533" lon="9.41851"><ele>360.0</ele><time>2026-04-18T12:50:31.986Z</time></trkpt><trkpt lat="44.8253783" lon="9.4186517"><ele>360.0</ele><time>2026-04-18T12:50:32.984Z</time></trkpt><trkpt lat="44.8254083" lon="9.4187967"><ele>359.0</ele><time>2026-04-18T12:50:33.984Z</time></trkpt><trkpt lat="44.8254367" lon="9.418935"><ele>358.0</ele><time>2026-04-18T12:50:34.984Z</time></trkpt><trkpt lat="44.82546" lon="9.419065"><ele>357.0</ele><time>2026-04-18T12:50:35.985Z</time></trkpt><trkpt lat="44.825475" lon="9.4191817"><ele>356.0</ele><time>2026-04-18T12:50:36.984Z</time></trkpt><trkpt lat="44.82548" lon="9.4192933"><ele>355.0</ele><time>2026-04-18T12:50:37.983Z</time></trkpt><trkpt lat="44.8254767" lon="9.4193983"><ele>354.0</ele><time>2026-04-18T12:50:38.985Z</time></trkpt><trkpt lat="44.8254767" lon="9.4195067"><ele>354.0</ele><time>2026-04-18T12:50:39.983Z</time></trkpt><trkpt lat="44.825475" lon="9.41962"><ele>354.0</ele><time>2026-04-18T12:50:40.983Z</time></trkpt><trkpt lat="44.8254767" lon="9.419745"><ele>354.0</ele><time>2026-04-18T12:50:41.984Z</time></trkpt><trkpt lat="44.8254767" lon="9.4198683"><ele>354.0</ele><time>2026-04-18T12:50:42.983Z</time></trkpt><trkpt lat="44.825455" lon="9.41998"><ele>354.0</ele><time>2026-04-18T12:50:43.984Z</time></trkpt><trkpt lat="44.8254067" lon="9.4200833"><ele>354.0</ele><time>2026-04-18T12:50:44.983Z</time></trkpt><trkpt lat="44.8253383" lon="9.4201883"><ele>353.6</ele><time>2026-04-18T12:50:45.983Z</time></trkpt><trkpt lat="44.825265" lon="9.4202917"><ele>353.2</ele><time>2026-04-18T12:50:46.984Z</time></trkpt><trkpt lat="44.8251933" lon="9.4203917"><ele>352.8</ele><time>2026-04-18T12:50:47.984Z</time></trkpt><trkpt lat="44.825125" lon="9.4204867"><ele>352.40000000000003</ele><time>2026-04-18T12:50:48.984Z</time></trkpt><trkpt lat="44.8250617" lon="9.42058"><ele>352.0</ele><time>2026-04-18T12:50:49.986Z</time></trkpt><trkpt lat="44.8250033" lon="9.4206733"><ele>352.0</ele><time>2026-04-18T12:50:50.985Z</time></trkpt><trkpt lat="44.8249517" lon="9.4207717"><ele>352.0</ele><time>2026-04-18T12:50:51.984Z</time></trkpt><trkpt lat="44.824905" lon="9.4208817"><ele>352.0</ele><time>2026-04-18T12:50:52.984Z</time></trkpt><trkpt lat="44.8248567" lon="9.4210083"><ele>352.0</ele><time>2026-04-18T12:50:53.984Z</time></trkpt><trkpt lat="44.8248" lon="9.4211467"><ele>352.0</ele><time>2026-04-18T12:50:54.984Z</time></trkpt><trkpt lat="44.8247433" lon="9.42129"><ele>351.40000000000003</ele><time>2026-04-18T12:50:55.984Z</time></trkpt><trkpt lat="44.8246867" lon="9.4214317"><ele>350.8</ele><time>2026-04-18T12:50:56.985Z</time></trkpt><trkpt lat="44.8246333" lon="9.42157"><ele>350.2</ele><time>2026-04-18T12:50:57.983Z</time></trkpt><trkpt lat="44.82458" lon="9.4217017"><ele>349.6</ele><time>2026-04-18T12:50:58.983Z</time></trkpt><trkpt lat="44.8245317" lon="9.4218267"><ele>349.0</ele><time>2026-04-18T12:50:59.984Z</time></trkpt><trkpt lat="44.824485" lon="9.4219467"><ele>349.0</ele><time>2026-04-18T12:51:00.984Z</time></trkpt><trkpt lat="44.82444" lon="9.42206"><ele>349.0</ele><time>2026-04-18T12:51:01.984Z</time></trkpt><trkpt lat="44.824395" lon="9.4221667"><ele>349.0</ele><time>2026-04-18T12:51:02.985Z</time></trkpt><trkpt lat="44.8243533" lon="9.4222683"><ele>349.0</ele><time>2026-04-18T12:51:03.983Z</time></trkpt><trkpt lat="44.8243133" lon="9.4223633"><ele>349.0</ele><time>2026-04-18T12:51:04.983Z</time></trkpt><trkpt lat="44.8242733" lon="9.4224433"><ele>349.0</ele><time>2026-04-18T12:51:05.984Z</time></trkpt><trkpt lat="44.82423" lon="9.4225083"><ele>347.6</ele><time>2026-04-18T12:51:06.984Z</time></trkpt><trkpt lat="44.8241533" lon="9.4226183"><ele>346.2</ele><time>2026-04-18T12:51:08.984Z</time></trkpt><trkpt lat="44.8240983" lon="9.4227317"><ele>344.8</ele><time>2026-04-18T12:51:10.985Z</time></trkpt><trkpt lat="44.824035" lon="9.4228433"><ele>343.40000000000003</ele><time>2026-04-18T12:51:12.983Z</time></trkpt><trkpt lat="44.8239717" lon="9.422955"><ele>342.0</ele><time>2026-04-18T12:51:14.985Z</time></trkpt><trkpt lat="44.8238883" lon="9.42303"><ele>341.1666666666667</ele><time>2026-04-18T12:51:16.983Z</time></trkpt><trkpt lat="44.8238283" lon="9.42306"><ele>340.3333333333333</ele><time>2026-04-18T12:51:17.984Z</time></trkpt><trkpt lat="44.8237633" lon="9.4230883"><ele>339.5</ele><time>2026-04-18T12:51:18.984Z</time></trkpt><trkpt lat="44.8237017" lon="9.4231233"><ele>338.66666666666663</ele><time>2026-04-18T12:51:19.983Z</time></trkpt><trkpt lat="44.8236383" lon="9.4231583"><ele>337.8333333333333</ele><time>2026-04-18T12:51:20.984Z</time></trkpt><trkpt lat="44.8235767" lon="9.4231933"><ele>337.0</ele><time>2026-04-18T12:51:21.984Z</time></trkpt><trkpt lat="44.8234683" lon="9.4232883"><ele>336.28571428571433</ele><time>2026-04-18T12:51:23.985Z</time></trkpt><trkpt lat="44.8234067" lon="9.42334"><ele>335.57142857142856</ele><time>2026-04-18T12:51:24.984Z</time></trkpt><trkpt lat="44.823345" lon="9.42339"><ele>334.8571428571429</ele><time>2026-04-18T12:51:25.983Z</time></trkpt><trkpt lat="44.8232833" lon="9.4234333"><ele>334.14285714285717</ele><time>2026-04-18T12:51:26.985Z</time></trkpt><trkpt lat="44.8232233" lon="9.4234683"><ele>333.42857142857144</ele><time>2026-04-18T12:51:27.984Z</time></trkpt><trkpt lat="44.82316" lon="9.4235"><ele>332.7142857142857</ele><time>2026-04-18T12:51:28.984Z</time></trkpt><trkpt lat="44.8230933" lon="9.4235333"><ele>332.0</ele><time>2026-04-18T12:51:29.985Z</time></trkpt><trkpt lat="44.82302" lon="9.42357"><ele>332.0</ele><time>2026-04-18T12:51:30.983Z</time></trkpt><trkpt lat="44.8229367" lon="9.423615"><ele>332.0</ele><time>2026-04-18T12:51:31.983Z</time></trkpt><trkpt lat="44.8228467" lon="9.4236483"><ele>332.0</ele><time>2026-04-18T12:51:32.984Z</time></trkpt><trkpt lat="44.8227567" lon="9.42368"><ele>332.0</ele><time>2026-04-18T12:51:33.984Z</time></trkpt><trkpt lat="44.822675" lon="9.4237083"><ele>332.0</ele><time>2026-04-18T12:51:34.984Z</time></trkpt><trkpt lat="44.8225933" lon="9.4237283"><ele>332.0</ele><time>2026-04-18T12:51:35.984Z</time></trkpt><trkpt lat="44.8225117" lon="9.4237417"><ele>331.1666666666667</ele><time>2026-04-18T12:51:36.983Z</time></trkpt><trkpt lat="44.8224367" lon="9.4237617"><ele>330.33333333333337</ele><time>2026-04-18T12:51:37.983Z</time></trkpt><trkpt lat="44.8223617" lon="9.423785"><ele>329.5</ele><time>2026-04-18T12:51:38.985Z</time></trkpt><trkpt lat="44.8222867" lon="9.42382"><ele>328.6666666666667</ele><time>2026-04-18T12:51:39.985Z</time></trkpt><trkpt lat="44.82221" lon="9.4238667"><ele>327.8333333333333</ele><time>2026-04-18T12:51:40.984Z</time></trkpt><trkpt lat="44.8221383" lon="9.423925"><ele>327.0</ele><time>2026-04-18T12:51:41.984Z</time></trkpt><trkpt lat="44.82207" lon="9.4239933"><ele>326.1666666666667</ele><time>2026-04-18T12:51:42.985Z</time></trkpt><trkpt lat="44.8220017" lon="9.4240583"><ele>325.3333333333333</ele><time>2026-04-18T12:51:43.984Z</time></trkpt><trkpt lat="44.8219417" lon="9.424135"><ele>324.5</ele><time>2026-04-18T12:51:44.984Z</time></trkpt><trkpt lat="44.8218917" lon="9.42422"><ele>323.66666666666663</ele><time>2026-04-18T12:51:45.986Z</time></trkpt><trkpt lat="44.821865" lon="9.424315"><ele>322.8333333333333</ele><time>2026-04-18T12:51:46.983Z</time></trkpt><trkpt lat="44.8218933" lon="9.4244117"><ele>322.0</ele><time>2026-04-18T12:51:47.984Z</time></trkpt><trkpt lat="44.821945" lon="9.4244933"><ele>322.0</ele><time>2026-04-18T12:51:48.983Z</time></trkpt><trkpt lat="44.822" lon="9.4245483"><ele>322.0</ele><time>2026-04-18T12:51:49.984Z</time></trkpt><trkpt lat="44.8220783" lon="9.4245733"><ele>322.0</ele><time>2026-04-18T12:51:50.984Z</time></trkpt><trkpt lat="44.8221717" lon="9.4245817"><ele>322.0</ele><time>2026-04-18T12:51:51.985Z</time></trkpt><trkpt lat="44.8222633" lon="9.4245883"><ele>322.0</ele><time>2026-04-18T12:51:52.984Z</time></trkpt><trkpt lat="44.8223517" lon="9.4246017"><ele>322.0</ele><time>2026-04-18T12:51:53.985Z</time></trkpt><trkpt lat="44.8224217" lon="9.4246067"><ele>322.0</ele><time>2026-04-18T12:51:54.984Z</time></trkpt><trkpt lat="44.8224967" lon="9.4246217"><ele>322.0</ele><time>2026-04-18T12:51:55.985Z</time></trkpt><trkpt lat="44.8225683" lon="9.4246433"><ele>322.0</ele><time>2026-04-18T12:51:56.985Z</time></trkpt><trkpt lat="44.8226383" lon="9.4246633"><ele>322.0</ele><time>2026-04-18T12:51:57.985Z</time></trkpt><trkpt lat="44.8227383" lon="9.4247383"><ele>322.0</ele><time>2026-04-18T12:51:59.984Z</time></trkpt><trkpt lat="44.8228083" lon="9.4248533"><ele>322.0</ele><time>2026-04-18T12:52:01.983Z</time></trkpt><trkpt lat="44.8228667" lon="9.4249767"><ele>320.6</ele><time>2026-04-18T12:52:03.983Z</time></trkpt><trkpt lat="44.8229333" lon="9.425085"><ele>319.20000000000005</ele><time>2026-04-18T12:52:05.983Z</time></trkpt><trkpt lat="44.8229517" lon="9.425185"><ele>317.8</ele><time>2026-04-18T12:52:07.982Z</time></trkpt><trkpt lat="44.8228817" lon="9.4252417"><ele>316.4</ele><time>2026-04-18T12:52:09.984Z</time></trkpt><trkpt lat="44.822765" lon="9.4252567"><ele>315.0</ele><time>2026-04-18T12:52:11.984Z</time></trkpt><trkpt lat="44.822645" lon="9.4252383"><ele>313.8</ele><time>2026-04-18T12:52:13.984Z</time></trkpt><trkpt lat="44.82253" lon="9.42518"><ele>312.6</ele><time>2026-04-18T12:52:15.982Z</time></trkpt><trkpt lat="44.8224217" lon="9.425115"><ele>311.4</ele><time>2026-04-18T12:52:17.982Z</time></trkpt><trkpt lat="44.8223167" lon="9.425035"><ele>310.2</ele><time>2026-04-18T12:52:19.982Z</time></trkpt><trkpt lat="44.8222583" lon="9.4249983"><ele>309.0</ele><time>2026-04-18T12:52:20.983Z</time></trkpt><trkpt lat="44.82214" lon="9.4249833"><ele>309.0</ele><time>2026-04-18T12:52:22.983Z</time></trkpt><trkpt lat="44.82203" lon="9.4250467"><ele>309.0</ele><time>2026-04-18T12:52:24.983Z</time></trkpt><trkpt lat="44.821975" lon="9.42509"><ele>309.0</ele><time>2026-04-18T12:52:25.984Z</time></trkpt><trkpt lat="44.82187" lon="9.4251683"><ele>309.0</ele><time>2026-04-18T12:52:27.984Z</time></trkpt><trkpt lat="44.8217517" lon="9.425225"><ele>309.0</ele><time>2026-04-18T12:52:29.982Z</time></trkpt><trkpt lat="44.8216883" lon="9.42525"><ele>307.59999999999997</ele><time>2026-04-18T12:52:30.982Z</time></trkpt><trkpt lat="44.8216267" lon="9.425275"><ele>306.2</ele><time>2026-04-18T12:52:31.984Z</time></trkpt><trkpt lat="44.8215183" lon="9.4253067"><ele>304.79999999999995</ele><time>2026-04-18T12:52:33.984Z</time></trkpt><trkpt lat="44.8214017" lon="9.42534"><ele>303.4</ele><time>2026-04-18T12:52:35.983Z</time></trkpt><trkpt lat="44.82134" lon="9.4253617"><ele>302.0</ele><time>2026-04-18T12:52:36.986Z</time></trkpt><trkpt lat="44.82122" lon="9.4254133"><ele>302.0</ele><time>2026-04-18T12:52:38.983Z</time></trkpt><trkpt lat="44.821155" lon="9.4254333"><ele>302.0</ele><time>2026-04-18T12:52:39.982Z</time></trkpt><trkpt lat="44.8210367" lon="9.4254917"><ele>302.0</ele><time>2026-04-18T12:52:41.983Z</time></trkpt><trkpt lat="44.8209783" lon="9.4255267"><ele>302.0</ele><time>2026-04-18T12:52:42.983Z</time></trkpt><trkpt lat="44.8209167" lon="9.425555"><ele>302.0</ele><time>2026-04-18T12:52:43.983Z</time></trkpt><trkpt lat="44.8208033" lon="9.425605"><ele>302.0</ele><time>2026-04-18T12:52:45.983Z</time></trkpt><trkpt lat="44.8206867" lon="9.4256367"><ele>299.28571428571433</ele><time>2026-04-18T12:52:47.984Z</time></trkpt><trkpt lat="44.820625" lon="9.425655"><ele>296.57142857142856</ele><time>2026-04-18T12:52:48.984Z</time></trkpt><trkpt lat="44.820565" lon="9.4256867"><ele>293.8571428571429</ele><time>2026-04-18T12:52:49.984Z</time></trkpt><trkpt lat="44.8204617" lon="9.4257817"><ele>291.14285714285717</ele><time>2026-04-18T12:52:51.983Z</time></trkpt><trkpt lat="44.8204067" lon="9.4258283"><ele>288.42857142857144</ele><time>2026-04-18T12:52:52.983Z</time></trkpt><trkpt lat="44.8203533" lon="9.4258783"><ele>285.7142857142857</ele><time>2026-04-18T12:52:53.984Z</time></trkpt><trkpt lat="44.8203067" lon="9.4259383"><ele>283.0</ele><time>2026-04-18T12:52:54.983Z</time></trkpt><trkpt lat="44.8202133" lon="9.4260383"><ele>282.16666666666663</ele><time>2026-04-18T12:52:56.983Z</time></trkpt><trkpt lat="44.8201117" lon="9.4261217"><ele>281.3333333333333</ele><time>2026-04-18T12:52:58.984Z</time></trkpt><trkpt lat="44.8200583" lon="9.4261733"><ele>280.5</ele><time>2026-04-18T12:52:59.984Z</time></trkpt><trkpt lat="44.820005" lon="9.426225"><ele>279.6666666666667</ele><time>2026-04-18T12:53:00.983Z</time></trkpt><trkpt lat="44.81995" lon="9.426275"><ele>278.83333333333337</ele><time>2026-04-18T12:53:01.984Z</time></trkpt><trkpt lat="44.8198583" lon="9.4263817"><ele>278.0</ele><time>2026-04-18T12:53:03.984Z</time></trkpt><trkpt lat="44.8197667" lon="9.4264667"><ele>276.8</ele><time>2026-04-18T12:53:05.984Z</time></trkpt><trkpt lat="44.8196667" lon="9.4265367"><ele>275.6</ele><time>2026-04-18T12:53:07.984Z</time></trkpt><trkpt lat="44.819575" lon="9.4266117"><ele>274.4</ele><time>2026-04-18T12:53:09.983Z</time></trkpt><trkpt lat="44.8194817" lon="9.4266567"><ele>273.2</ele><time>2026-04-18T12:53:11.983Z</time></trkpt><trkpt lat="44.819405" lon="9.42668"><ele>272.0</ele><time>2026-04-18T12:53:13.984Z</time></trkpt><trkpt lat="44.8193367" lon="9.426675"><ele>271.0</ele><time>2026-04-18T12:53:15.983Z</time></trkpt><trkpt lat="44.8192417" lon="9.42668"><ele>270.0</ele><time>2026-04-18T12:53:17.984Z</time></trkpt><trkpt lat="44.8191483" lon="9.4266733"><ele>269.0</ele><time>2026-04-18T12:53:19.983Z</time></trkpt><trkpt lat="44.8190617" lon="9.4266967"><ele>268.0</ele><time>2026-04-18T12:53:21.984Z</time></trkpt><trkpt lat="44.818985" lon="9.4267217"><ele>267.0</ele><time>2026-04-18T12:53:23.984Z</time></trkpt><trkpt lat="44.8189183" lon="9.4267517"><ele>266.0</ele><time>2026-04-18T12:53:26.983Z</time></trkpt><trkpt lat="44.8188133" lon="9.4267867"><ele>266.0</ele><time>2026-04-18T12:54:38.984Z</time></trkpt><trkpt lat="44.818745" lon="9.4268"><ele>266.0</ele><time>2026-04-18T12:54:41.983Z</time></trkpt><trkpt lat="44.8186367" lon="9.4268217"><ele>266.0</ele><time>2026-04-18T12:54:43.982Z</time></trkpt><trkpt lat="44.8185217" lon="9.4268117"><ele>266.0</ele><time>2026-04-18T12:54:45.983Z</time></trkpt><trkpt lat="44.818405" lon="9.426855"><ele>266.0</ele><time>2026-04-18T12:55:51.984Z</time></trkpt><trkpt lat="44.8182717" lon="9.4269367"><ele>266.2</ele><time>2026-04-18T12:55:53.983Z</time></trkpt><trkpt lat="44.8181883" lon="9.4269867"><ele>266.40000000000003</ele><time>2026-04-18T12:55:54.983Z</time></trkpt><trkpt lat="44.818105" lon="9.4270317"><ele>266.6</ele><time>2026-04-18T12:55:55.983Z</time></trkpt><trkpt lat="44.81804" lon="9.42707"><ele>266.8</ele><time>2026-04-18T12:55:56.984Z</time></trkpt><trkpt lat="44.817935" lon="9.42714"><ele>267.0</ele><time>2026-04-18T12:55:58.984Z</time></trkpt><trkpt lat="44.81784" lon="9.4272083"><ele>265.8</ele><time>2026-04-18T12:56:00.984Z</time></trkpt><trkpt lat="44.8177583" lon="9.427265"><ele>264.6</ele><time>2026-04-18T12:56:02.984Z</time></trkpt><trkpt lat="44.8176517" lon="9.42732"><ele>263.40000000000003</ele><time>2026-04-18T12:56:20.985Z</time></trkpt><trkpt lat="44.8175417" lon="9.4274217"><ele>262.2</ele><time>2026-04-18T12:56:22.983Z</time></trkpt><trkpt lat="44.8174683" lon="9.4274817"><ele>261.0</ele><time>2026-04-18T12:56:23.984Z</time></trkpt><trkpt lat="44.8173867" lon="9.4275517"><ele>261.0</ele><time>2026-04-18T12:56:24.984Z</time></trkpt><trkpt lat="44.8172983" lon="9.4276317"><ele>261.0</ele><time>2026-04-18T12:56:25.985Z</time></trkpt><trkpt lat="44.8172083" lon="9.4277233"><ele>261.0</ele><time>2026-04-18T12:56:26.983Z</time></trkpt><trkpt lat="44.81711" lon="9.4278183"><ele>261.0</ele><time>2026-04-18T12:56:27.984Z</time></trkpt><trkpt lat="44.8170167" lon="9.4279117"><ele>260.0</ele><time>2026-04-18T12:56:28.985Z</time></trkpt><trkpt lat="44.8169217" lon="9.428"><ele>259.0</ele><time>2026-04-18T12:56:29.983Z</time></trkpt><trkpt lat="44.816825" lon="9.4280833"><ele>258.0</ele><time>2026-04-18T12:56:30.984Z</time></trkpt><trkpt lat="44.8167283" lon="9.4281717"><ele>257.0</ele><time>2026-04-18T12:56:31.985Z</time></trkpt><trkpt lat="44.8166417" lon="9.4282633"><ele>257.0</ele><time>2026-04-18T12:56:32.985Z</time></trkpt><trkpt lat="44.8165583" lon="9.42835"><ele>257.0</ele><time>2026-04-18T12:56:33.985Z</time></trkpt><trkpt lat="44.8164867" lon="9.428425"><ele>257.0</ele><time>2026-04-18T12:56:34.984Z</time></trkpt><trkpt lat="44.8164167" lon="9.4285017"><ele>257.0</ele><time>2026-04-18T12:56:35.984Z</time></trkpt><trkpt lat="44.8163417" lon="9.42859"><ele>257.0</ele><time>2026-04-18T12:56:36.984Z</time></trkpt><trkpt lat="44.8162583" lon="9.428695"><ele>257.0</ele><time>2026-04-18T12:56:37.985Z</time></trkpt><trkpt lat="44.816175" lon="9.4288033"><ele>257.0</ele><time>2026-04-18T12:56:38.984Z</time></trkpt><trkpt lat="44.816095" lon="9.42891"><ele>257.0</ele><time>2026-04-18T12:56:39.985Z</time></trkpt><trkpt lat="44.8160267" lon="9.42902"><ele>257.0</ele><time>2026-04-18T12:56:40.984Z</time></trkpt><trkpt lat="44.8159667" lon="9.42913"><ele>257.0</ele><time>2026-04-18T12:56:41.984Z</time></trkpt><trkpt lat="44.8159083" lon="9.4292417"><ele>257.6</ele><time>2026-04-18T12:56:42.983Z</time></trkpt><trkpt lat="44.8158517" lon="9.4293517"><ele>258.2</ele><time>2026-04-18T12:56:43.985Z</time></trkpt><trkpt lat="44.8157983" lon="9.4294617"><ele>258.8</ele><time>2026-04-18T12:56:44.985Z</time></trkpt><trkpt lat="44.81575" lon="9.4295717"><ele>259.4</ele><time>2026-04-18T12:56:45.984Z</time></trkpt><trkpt lat="44.8156983" lon="9.4296767"><ele>260.0</ele><time>2026-04-18T12:56:46.984Z</time></trkpt><trkpt lat="44.8156333" lon="9.42978"><ele>257.25</ele><time>2026-04-18T12:56:47.985Z</time></trkpt><trkpt lat="44.81555" lon="9.4298867"><ele>254.5</ele><time>2026-04-18T12:56:48.983Z</time></trkpt><trkpt lat="44.8154567" lon="9.430005"><ele>251.75</ele><time>2026-04-18T12:56:49.985Z</time></trkpt><trkpt lat="44.81536" lon="9.4301283"><ele>249.0</ele><time>2026-04-18T12:56:50.985Z</time></trkpt><trkpt lat="44.8152617" lon="9.4302483"><ele>249.0</ele><time>2026-04-18T12:56:51.984Z</time></trkpt><trkpt lat="44.8151667" lon="9.430365"><ele>249.0</ele><time>2026-04-18T12:56:52.983Z</time></trkpt><trkpt lat="44.815075" lon="9.430485"><ele>249.0</ele><time>2026-04-18T12:56:53.983Z</time></trkpt><trkpt lat="44.8149833" lon="9.4306017"><ele>249.0</ele><time>2026-04-18T12:56:54.985Z</time></trkpt><trkpt lat="44.814895" lon="9.4307117"><ele>249.75</ele><time>2026-04-18T12:56:55.983Z</time></trkpt><trkpt lat="44.8148117" lon="9.4308183"><ele>250.5</ele><time>2026-04-18T12:56:56.984Z</time></trkpt><trkpt lat="44.814725" lon="9.43092"><ele>251.25</ele><time>2026-04-18T12:56:57.983Z</time></trkpt><trkpt lat="44.8146367" lon="9.4310283"><ele>252.0</ele><time>2026-04-18T12:56:58.984Z</time></trkpt><trkpt lat="44.8145517" lon="9.43114"><ele>252.0</ele><time>2026-04-18T12:56:59.985Z</time></trkpt><trkpt lat="44.8144667" lon="9.4312533"><ele>252.0</ele><time>2026-04-18T12:57:00.984Z</time></trkpt><trkpt lat="44.8143767" lon="9.431365"><ele>252.0</ele><time>2026-04-18T12:57:01.984Z</time></trkpt><trkpt lat="44.8142817" lon="9.4314633"><ele>252.0</ele><time>2026-04-18T12:57:02.984Z</time></trkpt><trkpt lat="44.81418" lon="9.4315517"><ele>251.5</ele><time>2026-04-18T12:57:03.984Z</time></trkpt><trkpt lat="44.81407" lon="9.43163"><ele>251.0</ele><time>2026-04-18T12:57:04.983Z</time></trkpt><trkpt lat="44.8139533" lon="9.4316933"><ele>250.5</ele><time>2026-04-18T12:57:05.984Z</time></trkpt><trkpt lat="44.8138333" lon="9.431745"><ele>250.0</ele><time>2026-04-18T12:57:06.983Z</time></trkpt><trkpt lat="44.81371" lon="9.4317783"><ele>250.0</ele><time>2026-04-18T12:57:07.984Z</time></trkpt><trkpt lat="44.8135883" lon="9.4317967"><ele>250.0</ele><time>2026-04-18T12:57:08.984Z</time></trkpt><trkpt lat="44.8134717" lon="9.431805"><ele>250.0</ele><time>2026-04-18T12:57:09.983Z</time></trkpt><trkpt lat="44.81336" lon="9.4318017"><ele>250.0</ele><time>2026-04-18T12:57:10.983Z</time></trkpt><trkpt lat="44.81325" lon="9.4317783"><ele>250.75</ele><time>2026-04-18T12:57:11.983Z</time></trkpt><trkpt lat="44.81314" lon="9.4317367"><ele>251.5</ele><time>2026-04-18T12:57:12.983Z</time></trkpt><trkpt lat="44.81303" lon="9.4316817"><ele>252.25</ele><time>2026-04-18T12:57:13.983Z</time></trkpt><trkpt lat="44.8129233" lon="9.4316167"><ele>253.0</ele><time>2026-04-18T12:57:14.985Z</time></trkpt><trkpt lat="44.8128167" lon="9.431555"><ele>253.0</ele><time>2026-04-18T12:57:15.984Z</time></trkpt><trkpt lat="44.81271" lon="9.431495"><ele>253.0</ele><time>2026-04-18T12:57:16.983Z</time></trkpt><trkpt lat="44.8126067" lon="9.4314367"><ele>253.0</ele><time>2026-04-18T12:57:17.984Z</time></trkpt><trkpt lat="44.81251" lon="9.431385"><ele>253.0</ele><time>2026-04-18T12:57:18.983Z</time></trkpt><trkpt lat="44.8124167" lon="9.4313367"><ele>253.0</ele><time>2026-04-18T12:57:19.983Z</time></trkpt><trkpt lat="44.8123217" lon="9.431295"><ele>252.75</ele><time>2026-04-18T12:57:20.984Z</time></trkpt><trkpt lat="44.8122233" lon="9.431275"><ele>252.5</ele><time>2026-04-18T12:57:21.984Z</time></trkpt><trkpt lat="44.8121133" lon="9.4312817"><ele>252.25</ele><time>2026-04-18T12:57:22.985Z</time></trkpt><trkpt lat="44.811995" lon="9.4313183"><ele>252.0</ele><time>2026-04-18T12:57:23.985Z</time></trkpt><trkpt lat="44.8118717" lon="9.4313867"><ele>251.25</ele><time>2026-04-18T12:57:24.984Z</time></trkpt><trkpt lat="44.811745" lon="9.431465"><ele>250.5</ele><time>2026-04-18T12:57:25.984Z</time></trkpt><trkpt lat="44.811625" lon="9.4315417"><ele>249.75</ele><time>2026-04-18T12:57:26.984Z</time></trkpt><trkpt lat="44.8115117" lon="9.431615"><ele>249.0</ele><time>2026-04-18T12:57:27.983Z</time></trkpt><trkpt lat="44.8114017" lon="9.4316817"><ele>249.0</ele><time>2026-04-18T12:57:28.983Z</time></trkpt><trkpt lat="44.8112933" lon="9.4317433"><ele>249.0</ele><time>2026-04-18T12:57:29.985Z</time></trkpt><trkpt lat="44.8111833" lon="9.431805"><ele>249.0</ele><time>2026-04-18T12:57:30.984Z</time></trkpt><trkpt lat="44.8110633" lon="9.4318617"><ele>249.0</ele><time>2026-04-18T12:57:31.983Z</time></trkpt><trkpt lat="44.8109333" lon="9.4319"><ele>248.25</ele><time>2026-04-18T12:57:32.984Z</time></trkpt><trkpt lat="44.810795" lon="9.43191"><ele>247.5</ele><time>2026-04-18T12:57:33.983Z</time></trkpt><trkpt lat="44.81065" lon="9.431895"><ele>246.75</ele><time>2026-04-18T12:57:34.983Z</time></trkpt><trkpt lat="44.8104983" lon="9.43186"><ele>246.0</ele><time>2026-04-18T12:57:35.984Z</time></trkpt><trkpt lat="44.8103533" lon="9.431805"><ele>246.0</ele><time>2026-04-18T12:57:36.984Z</time></trkpt><trkpt lat="44.8102183" lon="9.43174"><ele>246.0</ele><time>2026-04-18T12:57:37.984Z</time></trkpt><trkpt lat="44.8100833" lon="9.4316683"><ele>246.0</ele><time>2026-04-18T12:57:38.984Z</time></trkpt><trkpt lat="44.8099433" lon="9.4315917"><ele>246.0</ele><time>2026-04-18T12:57:39.983Z</time></trkpt><trkpt lat="44.8098" lon="9.431515"><ele>245.25</ele><time>2026-04-18T12:57:40.984Z</time></trkpt><trkpt lat="44.8096617" lon="9.43144"><ele>244.5</ele><time>2026-04-18T12:57:41.985Z</time></trkpt><trkpt lat="44.8095283" lon="9.4313717"><ele>243.75</ele><time>2026-04-18T12:57:42.984Z</time></trkpt><trkpt lat="44.8093917" lon="9.431305"><ele>243.0</ele><time>2026-04-18T12:57:43.984Z</time></trkpt><trkpt lat="44.809255" lon="9.431235"><ele>245.0</ele><time>2026-04-18T12:57:44.985Z</time></trkpt><trkpt lat="44.8091183" lon="9.4311633"><ele>247.0</ele><time>2026-04-18T12:57:45.984Z</time></trkpt><trkpt lat="44.8089883" lon="9.4310983"><ele>249.0</ele><time>2026-04-18T12:57:46.984Z</time></trkpt><trkpt lat="44.8088633" lon="9.4310367"><ele>251.0</ele><time>2026-04-18T12:57:47.983Z</time></trkpt><trkpt lat="44.808745" lon="9.4309767"><ele>251.0</ele><time>2026-04-18T12:57:48.985Z</time></trkpt><trkpt lat="44.8086283" lon="9.4309133"><ele>251.0</ele><time>2026-04-18T12:57:49.984Z</time></trkpt><trkpt lat="44.8085067" lon="9.4308417"><ele>251.0</ele><time>2026-04-18T12:57:50.984Z</time></trkpt><trkpt lat="44.8083867" lon="9.4307733"><ele>251.0</ele><time>2026-04-18T12:57:51.984Z</time></trkpt><trkpt lat="44.8082683" lon="9.43071"><ele>250.0</ele><time>2026-04-18T12:57:52.984Z</time></trkpt><trkpt lat="44.8081517" lon="9.430655"><ele>249.0</ele><time>2026-04-18T12:57:53.983Z</time></trkpt><trkpt lat="44.8080333" lon="9.4306117"><ele>248.0</ele><time>2026-04-18T12:57:54.985Z</time></trkpt><trkpt lat="44.8079167" lon="9.4305933"><ele>247.0</ele><time>2026-04-18T12:57:55.985Z</time></trkpt><trkpt lat="44.807805" lon="9.4306067"><ele>247.0</ele><time>2026-04-18T12:57:56.984Z</time></trkpt><trkpt lat="44.8077017" lon="9.4306567"><ele>247.0</ele><time>2026-04-18T12:57:57.983Z</time></trkpt><trkpt lat="44.8076167" lon="9.430745"><ele>247.0</ele><time>2026-04-18T12:57:58.982Z</time></trkpt><trkpt lat="44.8075533" lon="9.4308617"><ele>247.0</ele><time>2026-04-18T12:57:59.983Z</time></trkpt><trkpt lat="44.8075267" lon="9.431"><ele>247.0</ele><time>2026-04-18T12:58:00.984Z</time></trkpt><trkpt lat="44.8075167" lon="9.431145"><ele>245.8</ele><time>2026-04-18T12:58:01.983Z</time></trkpt><trkpt lat="44.807525" lon="9.43129"><ele>244.6</ele><time>2026-04-18T12:58:02.984Z</time></trkpt><trkpt lat="44.8075617" lon="9.431425"><ele>243.40000000000003</ele><time>2026-04-18T12:58:03.982Z</time></trkpt><trkpt lat="44.8076283" lon="9.431545"><ele>242.20000000000002</ele><time>2026-04-18T12:58:04.982Z</time></trkpt><trkpt lat="44.80772" lon="9.4316433"><ele>241.0</ele><time>2026-04-18T12:58:05.984Z</time></trkpt><trkpt lat="44.8078267" lon="9.43173"><ele>240.5</ele><time>2026-04-18T12:58:06.982Z</time></trkpt><trkpt lat="44.8079417" lon="9.4318083"><ele>240.0</ele><time>2026-04-18T12:58:07.982Z</time></trkpt><trkpt lat="44.8080583" lon="9.4318983"><ele>239.5</ele><time>2026-04-18T12:58:08.983Z</time></trkpt><trkpt lat="44.8081717" lon="9.4319883"><ele>239.0</ele><time>2026-04-18T12:58:09.982Z</time></trkpt><trkpt lat="44.8082783" lon="9.4320783"><ele>237.00000000000003</ele><time>2026-04-18T12:58:10.983Z</time></trkpt><trkpt lat="44.8083683" lon="9.4321667"><ele>235.0</ele><time>2026-04-18T12:58:11.984Z</time></trkpt><trkpt lat="44.8084367" lon="9.4322533"><ele>233.0</ele><time>2026-04-18T12:58:12.982Z</time></trkpt><trkpt lat="44.8084783" lon="9.432335"><ele>231.0</ele><time>2026-04-18T12:58:13.982Z</time></trkpt><trkpt lat="44.80847" lon="9.43248"><ele>229.00000000000003</ele><time>2026-04-18T12:58:15.983Z</time></trkpt><trkpt lat="44.8084017" lon="9.432515"><ele>227.0</ele><time>2026-04-18T12:58:16.982Z</time></trkpt><trkpt lat="44.8083183" lon="9.432505"><ele>227.0</ele><time>2026-04-18T12:58:17.984Z</time></trkpt><trkpt lat="44.8082217" lon="9.432455"><ele>227.0</ele><time>2026-04-18T12:58:18.983Z</time></trkpt><trkpt lat="44.8081183" lon="9.4323817"><ele>227.0</ele><time>2026-04-18T12:58:19.983Z</time></trkpt><trkpt lat="44.8080117" lon="9.432305"><ele>227.0</ele><time>2026-04-18T12:58:20.983Z</time></trkpt><trkpt lat="44.8079033" lon="9.4322283"><ele>227.0</ele><time>2026-04-18T12:58:21.983Z</time></trkpt><trkpt lat="44.8078" lon="9.4321583"><ele>227.0</ele><time>2026-04-18T12:58:22.983Z</time></trkpt><trkpt lat="44.8077017" lon="9.4320917"><ele>227.0</ele><time>2026-04-18T12:58:23.983Z</time></trkpt><trkpt lat="44.8076067" lon="9.4320283"><ele>227.0</ele><time>2026-04-18T12:58:24.983Z</time></trkpt><trkpt lat="44.807525" lon="9.4319767"><ele>227.0</ele><time>2026-04-18T12:58:25.983Z</time></trkpt><trkpt lat="44.8074483" lon="9.431925"><ele>226.6</ele><time>2026-04-18T12:58:26.983Z</time></trkpt><trkpt lat="44.80738" lon="9.4318833"><ele>226.2</ele><time>2026-04-18T12:58:27.984Z</time></trkpt><trkpt lat="44.807285" lon="9.43187"><ele>225.8</ele><time>2026-04-18T12:58:29.984Z</time></trkpt><trkpt lat="44.8072417" lon="9.4319533"><ele>225.4</ele><time>2026-04-18T12:58:31.984Z</time></trkpt><trkpt lat="44.8072633" lon="9.4321533"><ele>225.0</ele><time>2026-04-18T12:58:33.983Z</time></trkpt><trkpt lat="44.8073" lon="9.4322783"><ele>225.0</ele><time>2026-04-18T12:58:34.982Z</time></trkpt><trkpt lat="44.8073483" lon="9.4324017"><ele>225.0</ele><time>2026-04-18T12:58:35.982Z</time></trkpt><trkpt lat="44.8073983" lon="9.4325367"><ele>225.0</ele><time>2026-04-18T12:58:36.983Z</time></trkpt><trkpt lat="44.8074467" lon="9.432675"><ele>225.0</ele><time>2026-04-18T12:58:37.983Z</time></trkpt><trkpt lat="44.8074933" lon="9.4328167"><ele>225.0</ele><time>2026-04-18T12:58:38.984Z</time></trkpt><trkpt lat="44.8075467" lon="9.4329633"><ele>223.66666666666669</ele><time>2026-04-18T12:58:39.983Z</time></trkpt><trkpt lat="44.807595" lon="9.433115"><ele>222.33333333333334</ele><time>2026-04-18T12:58:40.982Z</time></trkpt><trkpt lat="44.8076467" lon="9.4332683"><ele>221.0</ele><time>2026-04-18T12:58:41.982Z</time></trkpt><trkpt lat="44.8077483" lon="9.43358"><ele>221.0</ele><time>2026-04-18T12:58:43.983Z</time></trkpt><trkpt lat="44.8078033" lon="9.4337367"><ele>221.0</ele><time>2026-04-18T12:58:44.983Z</time></trkpt><trkpt lat="44.8078617" lon="9.4339017"><ele>221.0</ele><time>2026-04-18T12:58:45.982Z</time></trkpt><trkpt lat="44.8079233" lon="9.434075"><ele>221.0</ele><time>2026-04-18T12:58:46.982Z</time></trkpt><trkpt lat="44.8079867" lon="9.4342583"><ele>221.0</ele><time>2026-04-18T12:58:47.982Z</time></trkpt><trkpt lat="44.808055" lon="9.4344533"><ele>221.0</ele><time>2026-04-18T12:58:48.984Z</time></trkpt><trkpt lat="44.808125" lon="9.434655"><ele>221.0</ele><time>2026-04-18T12:58:49.983Z</time></trkpt><trkpt lat="44.808195" lon="9.434855"><ele>221.0</ele><time>2026-04-18T12:58:50.985Z</time></trkpt><trkpt lat="44.8082633" lon="9.435045"><ele>221.0</ele><time>2026-04-18T12:58:51.983Z</time></trkpt><trkpt lat="44.8083267" lon="9.4352283"><ele>221.0</ele><time>2026-04-18T12:58:52.984Z</time></trkpt><trkpt lat="44.808395" lon="9.4354167"><ele>221.0</ele><time>2026-04-18T12:58:53.984Z</time></trkpt><trkpt lat="44.808465" lon="9.43561"><ele>221.25</ele><time>2026-04-18T12:58:54.982Z</time></trkpt><trkpt lat="44.808535" lon="9.435805"><ele>221.5</ele><time>2026-04-18T12:58:55.984Z</time></trkpt><trkpt lat="44.8086" lon="9.4359883"><ele>221.75</ele><time>2026-04-18T12:58:56.983Z</time></trkpt><trkpt lat="44.80866" lon="9.4361617"><ele>222.0</ele><time>2026-04-18T12:58:57.982Z</time></trkpt><trkpt lat="44.8087183" lon="9.4363267"><ele>222.0</ele><time>2026-04-18T12:58:58.984Z</time></trkpt><trkpt lat="44.808775" lon="9.4364883"><ele>222.0</ele><time>2026-04-18T12:58:59.983Z</time></trkpt><trkpt lat="44.8088367" lon="9.436655"><ele>222.0</ele><time>2026-04-18T12:59:00.982Z</time></trkpt><trkpt lat="44.808905" lon="9.43683"><ele>222.0</ele><time>2026-04-18T12:59:01.984Z</time></trkpt><trkpt lat="44.80898" lon="9.4370083"><ele>225.33333333333331</ele><time>2026-04-18T12:59:02.984Z</time></trkpt><trkpt lat="44.8090633" lon="9.4371817"><ele>228.66666666666666</ele><time>2026-04-18T12:59:03.983Z</time></trkpt><trkpt lat="44.8091567" lon="9.43735"><ele>232.0</ele><time>2026-04-18T12:59:04.982Z</time></trkpt><trkpt lat="44.8092533" lon="9.437515"><ele>231.0</ele><time>2026-04-18T12:59:05.984Z</time></trkpt><trkpt lat="44.8093517" lon="9.437675"><ele>230.0</ele><time>2026-04-18T12:59:06.983Z</time></trkpt><trkpt lat="44.80946" lon="9.437835"><ele>229.0</ele><time>2026-04-18T12:59:07.983Z</time></trkpt><trkpt lat="44.8095717" lon="9.438"><ele>229.0</ele><time>2026-04-18T12:59:08.984Z</time></trkpt><trkpt lat="44.8096817" lon="9.4381683"><ele>229.0</ele><time>2026-04-18T12:59:09.984Z</time></trkpt><trkpt lat="44.8098017" lon="9.4383283"><ele>229.0</ele><time>2026-04-18T12:59:10.984Z</time></trkpt><trkpt lat="44.80992" lon="9.43849"><ele>229.0</ele><time>2026-04-18T12:59:11.984Z</time></trkpt><trkpt lat="44.8100367" lon="9.4386417"><ele>229.0</ele><time>2026-04-18T12:59:12.983Z</time></trkpt><trkpt lat="44.8101367" lon="9.4387933"><ele>229.0</ele><time>2026-04-18T12:59:13.983Z</time></trkpt><trkpt lat="44.8102333" lon="9.438935"><ele>229.0</ele><time>2026-04-18T12:59:14.984Z</time></trkpt><trkpt lat="44.8103267" lon="9.4390717"><ele>228.0</ele><time>2026-04-18T12:59:15.984Z</time></trkpt><trkpt lat="44.8104267" lon="9.4392117"><ele>227.0</ele><time>2026-04-18T12:59:16.983Z</time></trkpt><trkpt lat="44.8105183" lon="9.4393617"><ele>226.0</ele><time>2026-04-18T12:59:17.982Z</time></trkpt><trkpt lat="44.810605" lon="9.439525"><ele>225.0</ele><time>2026-04-18T12:59:18.983Z</time></trkpt><trkpt lat="44.8106917" lon="9.4396883"><ele>225.0</ele><time>2026-04-18T12:59:19.984Z</time></trkpt><trkpt lat="44.8107733" lon="9.4398483"><ele>225.0</ele><time>2026-04-18T12:59:20.984Z</time></trkpt><trkpt lat="44.8108417" lon="9.4399967"><ele>225.0</ele><time>2026-04-18T12:59:21.984Z</time></trkpt><trkpt lat="44.8108883" lon="9.4401367"><ele>225.0</ele><time>2026-04-18T12:59:22.983Z</time></trkpt><trkpt lat="44.8109233" lon="9.4402783"><ele>225.0</ele><time>2026-04-18T12:59:23.983Z</time></trkpt><trkpt lat="44.810955" lon="9.44042"><ele>225.0</ele><time>2026-04-18T12:59:24.984Z</time></trkpt><trkpt lat="44.8109867" lon="9.4405583"><ele>225.0</ele><time>2026-04-18T12:59:25.982Z</time></trkpt><trkpt lat="44.8110167" lon="9.4406883"><ele>225.0</ele><time>2026-04-18T12:59:26.983Z</time></trkpt><trkpt lat="44.81104" lon="9.4408183"><ele>225.0</ele><time>2026-04-18T12:59:27.983Z</time></trkpt><trkpt lat="44.81106" lon="9.4409567"><ele>223.8</ele><time>2026-04-18T12:59:28.983Z</time></trkpt><trkpt lat="44.81108" lon="9.4410967"><ele>222.6</ele><time>2026-04-18T12:59:29.983Z</time></trkpt><trkpt lat="44.8110983" lon="9.4412417"><ele>221.39999999999998</ele><time>2026-04-18T12:59:30.983Z</time></trkpt><trkpt lat="44.811115" lon="9.4413933"><ele>220.2</ele><time>2026-04-18T12:59:31.984Z</time></trkpt><trkpt lat="44.811135" lon="9.4415533"><ele>219.0</ele><time>2026-04-18T12:59:32.985Z</time></trkpt><trkpt lat="44.8111517" lon="9.4417217"><ele>219.0</ele><time>2026-04-18T12:59:33.983Z</time></trkpt><trkpt lat="44.8111683" lon="9.4418883"><ele>218.99999999999997</ele><time>2026-04-18T12:59:34.983Z</time></trkpt><trkpt lat="44.8111883" lon="9.44204"><ele>218.99999999999997</ele><time>2026-04-18T12:59:35.983Z</time></trkpt><trkpt lat="44.8112017" lon="9.442185"><ele>219.0</ele><time>2026-04-18T12:59:36.984Z</time></trkpt><trkpt lat="44.8112017" lon="9.4423133"><ele>219.0</ele><time>2026-04-18T12:59:37.983Z</time></trkpt><trkpt lat="44.81118" lon="9.4424217"><ele>219.39999999999998</ele><time>2026-04-18T12:59:38.983Z</time></trkpt><trkpt lat="44.8110883" lon="9.4425067"><ele>219.79999999999998</ele><time>2026-04-18T12:59:40.984Z</time></trkpt><trkpt lat="44.8109783" lon="9.4424083"><ele>220.20000000000002</ele><time>2026-04-18T12:59:42.983Z</time></trkpt><trkpt lat="44.8109217" lon="9.4423083"><ele>220.60000000000002</ele><time>2026-04-18T12:59:43.983Z</time></trkpt><trkpt lat="44.81087" lon="9.4421733"><ele>221.0</ele><time>2026-04-18T12:59:44.983Z</time></trkpt><trkpt lat="44.8108183" lon="9.4420283"><ele>222.5</ele><time>2026-04-18T12:59:45.984Z</time></trkpt><trkpt lat="44.8107633" lon="9.44187"><ele>224.0</ele><time>2026-04-18T12:59:46.983Z</time></trkpt><trkpt lat="44.8107133" lon="9.441715"><ele>225.5</ele><time>2026-04-18T12:59:47.983Z</time></trkpt><trkpt lat="44.8106633" lon="9.4415733"><ele>227.0</ele><time>2026-04-18T12:59:48.983Z</time></trkpt><trkpt lat="44.8106083" lon="9.4414533"><ele>227.00000000000003</ele><time>2026-04-18T12:59:49.983Z</time></trkpt><trkpt lat="44.8105467" lon="9.4413567"><ele>227.0</ele><time>2026-04-18T12:59:50.984Z</time></trkpt><trkpt lat="44.81048" lon="9.4412883"><ele>227.0</ele><time>2026-04-18T12:59:51.983Z</time></trkpt><trkpt lat="44.8104117" lon="9.44126"><ele>227.0</ele><time>2026-04-18T12:59:52.984Z</time></trkpt><trkpt lat="44.81035" lon="9.4413"><ele>227.00000000000003</ele><time>2026-04-18T12:59:53.983Z</time></trkpt><trkpt lat="44.810295" lon="9.4413583"><ele>227.0</ele><time>2026-04-18T12:59:54.984Z</time></trkpt><trkpt lat="44.8102617" lon="9.4414433"><ele>227.0</ele><time>2026-04-18T12:59:55.983Z</time></trkpt><trkpt lat="44.8102467" lon="9.441575"><ele>227.0</ele><time>2026-04-18T12:59:56.983Z</time></trkpt><trkpt lat="44.810235" lon="9.441735"><ele>227.0</ele><time>2026-04-18T12:59:57.984Z</time></trkpt><trkpt lat="44.810245" lon="9.441905"><ele>227.0</ele><time>2026-04-18T12:59:58.984Z</time></trkpt><trkpt lat="44.8102483" lon="9.442065"><ele>227.0</ele><time>2026-04-18T12:59:59.983Z</time></trkpt><trkpt lat="44.8102633" lon="9.4422267"><ele>227.25</ele><time>2026-04-18T13:00:00.984Z</time></trkpt><trkpt lat="44.81029" lon="9.4423817"><ele>227.5</ele><time>2026-04-18T13:00:01.983Z</time></trkpt><trkpt lat="44.81033" lon="9.44253"><ele>227.75</ele><time>2026-04-18T13:00:02.983Z</time></trkpt><trkpt lat="44.810365" lon="9.4426817"><ele>228.0</ele><time>2026-04-18T13:00:03.984Z</time></trkpt><trkpt lat="44.8104083" lon="9.442845"><ele>228.5</ele><time>2026-04-18T13:00:04.983Z</time></trkpt><trkpt lat="44.8104517" lon="9.4430133"><ele>229.0</ele><time>2026-04-18T13:00:05.984Z</time></trkpt><trkpt lat="44.8104867" lon="9.4431867"><ele>229.5</ele><time>2026-04-18T13:00:06.985Z</time></trkpt><trkpt lat="44.8105183" lon="9.4433633"><ele>230.0</ele><time>2026-04-18T13:00:07.982Z</time></trkpt><trkpt lat="44.8105467" lon="9.44354"><ele>230.0</ele><time>2026-04-18T13:00:08.984Z</time></trkpt><trkpt lat="44.8105733" lon="9.4437167"><ele>230.0</ele><time>2026-04-18T13:00:09.985Z</time></trkpt><trkpt lat="44.8105917" lon="9.4438883"><ele>230.0</ele><time>2026-04-18T13:00:10.984Z</time></trkpt><trkpt lat="44.8105983" lon="9.4440617"><ele>230.0</ele><time>2026-04-18T13:00:11.984Z</time></trkpt><trkpt lat="44.8106033" lon="9.444235"><ele>230.0</ele><time>2026-04-18T13:00:12.984Z</time></trkpt><trkpt lat="44.81059" lon="9.4444067"><ele>230.0</ele><time>2026-04-18T13:00:13.984Z</time></trkpt><trkpt lat="44.8105683" lon="9.444585"><ele>230.0</ele><time>2026-04-18T13:00:14.983Z</time></trkpt><trkpt lat="44.8105333" lon="9.4447617"><ele>230.0</ele><time>2026-04-18T13:00:15.984Z</time></trkpt><trkpt lat="44.81049" lon="9.4449267"><ele>230.0</ele><time>2026-04-18T13:00:16.982Z</time></trkpt><trkpt lat="44.8104483" lon="9.44509"><ele>230.0</ele><time>2026-04-18T13:00:17.99Z</time></trkpt><trkpt lat="44.8104117" lon="9.4452533"><ele>230.0</ele><time>2026-04-18T13:00:18.984Z</time></trkpt><trkpt lat="44.810395" lon="9.4454267"><ele>230.0</ele><time>2026-04-18T13:00:19.984Z</time></trkpt><trkpt lat="44.8103983" lon="9.4456033"><ele>230.0</ele><time>2026-04-18T13:00:20.983Z</time></trkpt><trkpt lat="44.8104117" lon="9.44579"><ele>230.0</ele><time>2026-04-18T13:00:21.984Z</time></trkpt><trkpt lat="44.8104333" lon="9.4459783"><ele>230.0</ele><time>2026-04-18T13:00:22.983Z</time></trkpt><trkpt lat="44.8104633" lon="9.4461683"><ele>230.0</ele><time>2026-04-18T13:00:23.983Z</time></trkpt><trkpt lat="44.81049" lon="9.4463583"><ele>230.5</ele><time>2026-04-18T13:00:24.984Z</time></trkpt><trkpt lat="44.810515" lon="9.4465433"><ele>231.0</ele><time>2026-04-18T13:00:25.983Z</time></trkpt><trkpt lat="44.8105367" lon="9.4467267"><ele>231.5</ele><time>2026-04-18T13:00:26.985Z</time></trkpt><trkpt lat="44.810565" lon="9.4469017"><ele>232.0</ele><time>2026-04-18T13:00:27.984Z</time></trkpt><trkpt lat="44.81059" lon="9.4470683"><ele>232.5</ele><time>2026-04-18T13:00:28.982Z</time></trkpt><trkpt lat="44.8106283" lon="9.4472267"><ele>233.0</ele><time>2026-04-18T13:00:29.984Z</time></trkpt><trkpt lat="44.8106683" lon="9.447375"><ele>233.5</ele><time>2026-04-18T13:00:30.988Z</time></trkpt><trkpt lat="44.810705" lon="9.44752"><ele>234.0</ele><time>2026-04-18T13:00:31.983Z</time></trkpt><trkpt lat="44.8107383" lon="9.4476683"><ele>234.0</ele><time>2026-04-18T13:00:32.984Z</time></trkpt><trkpt lat="44.8107817" lon="9.4478167"><ele>233.99999999999997</ele><time>2026-04-18T13:00:33.983Z</time></trkpt><trkpt lat="44.8108233" lon="9.4479567"><ele>233.99999999999997</ele><time>2026-04-18T13:00:34.987Z</time></trkpt><trkpt lat="44.8108633" lon="9.4480883"><ele>234.0</ele><time>2026-04-18T13:00:35.983Z</time></trkpt><trkpt lat="44.8109033" lon="9.4482183"><ele>234.0</ele><time>2026-04-18T13:00:36.985Z</time></trkpt><trkpt lat="44.81094" lon="9.448345"><ele>235.0</ele><time>2026-04-18T13:00:37.985Z</time></trkpt><trkpt lat="44.8109767" lon="9.44847"><ele>235.99999999999997</ele><time>2026-04-18T13:00:38.984Z</time></trkpt><trkpt lat="44.8110083" lon="9.4485967"><ele>236.99999999999997</ele><time>2026-04-18T13:00:39.983Z</time></trkpt><trkpt lat="44.8110317" lon="9.4487267"><ele>238.0</ele><time>2026-04-18T13:00:40.985Z</time></trkpt><trkpt lat="44.8110517" lon="9.4488567"><ele>239.0</ele><time>2026-04-18T13:00:41.985Z</time></trkpt><trkpt lat="44.8110683" lon="9.4489867"><ele>237.33333333333334</ele><time>2026-04-18T13:00:42.984Z</time></trkpt><trkpt lat="44.8110783" lon="9.449115"><ele>235.66666666666669</ele><time>2026-04-18T13:00:43.984Z</time></trkpt><trkpt lat="44.8110817" lon="9.44924"><ele>234.0</ele><time>2026-04-18T13:00:44.985Z</time></trkpt><trkpt lat="44.8110783" lon="9.449355"><ele>232.33333333333331</ele><time>2026-04-18T13:00:45.982Z</time></trkpt><trkpt lat="44.81107" lon="9.449465"><ele>230.66666666666666</ele><time>2026-04-18T13:00:46.982Z</time></trkpt><trkpt lat="44.8110617" lon="9.4495617"><ele>229.0</ele><time>2026-04-18T13:00:47.983Z</time></trkpt><trkpt lat="44.81106" lon="9.4497283"><ele>229.0</ele><time>2026-04-18T13:00:49.985Z</time></trkpt><trkpt lat="44.81108" lon="9.4499017"><ele>228.99999999999997</ele><time>2026-04-18T13:00:51.984Z</time></trkpt><trkpt lat="44.8111" lon="9.4500167"><ele>228.99999999999997</ele><time>2026-04-18T13:00:52.983Z</time></trkpt><trkpt lat="44.811115" lon="9.4501433"><ele>229.0</ele><time>2026-04-18T13:00:53.984Z</time></trkpt><trkpt lat="44.8111333" lon="9.4502733"><ele>229.0</ele><time>2026-04-18T13:00:54.983Z</time></trkpt><trkpt lat="44.811155" lon="9.4504033"><ele>229.16666666666666</ele><time>2026-04-18T13:00:55.984Z</time></trkpt><trkpt lat="44.81117" lon="9.45053"><ele>229.33333333333331</ele><time>2026-04-18T13:00:56.984Z</time></trkpt><trkpt lat="44.811185" lon="9.4506567"><ele>229.5</ele><time>2026-04-18T13:00:57.983Z</time></trkpt><trkpt lat="44.8112033" lon="9.4507767"><ele>229.66666666666669</ele><time>2026-04-18T13:00:58.984Z</time></trkpt><trkpt lat="44.8112183" lon="9.450895"><ele>229.83333333333334</ele><time>2026-04-18T13:00:59.983Z</time></trkpt><trkpt lat="44.8112317" lon="9.4510083"><ele>230.0</ele><time>2026-04-18T13:01:00.985Z</time></trkpt><trkpt lat="44.811245" lon="9.4511233"><ele>230.00000000000003</ele><time>2026-04-18T13:01:01.983Z</time></trkpt><trkpt lat="44.8112617" lon="9.45124"><ele>230.0</ele><time>2026-04-18T13:01:02.984Z</time></trkpt><trkpt lat="44.8112783" lon="9.45136"><ele>230.0</ele><time>2026-04-18T13:01:03.984Z</time></trkpt><trkpt lat="44.8112983" lon="9.4514833"><ele>230.0</ele><time>2026-04-18T13:01:04.984Z</time></trkpt><trkpt lat="44.8113167" lon="9.4516167"><ele>230.00000000000003</ele><time>2026-04-18T13:01:05.984Z</time></trkpt><trkpt lat="44.8113367" lon="9.4517433"><ele>230.0</ele><time>2026-04-18T13:01:06.984Z</time></trkpt><trkpt lat="44.8113533" lon="9.4518617"><ele>230.33333333333334</ele><time>2026-04-18T13:01:07.984Z</time></trkpt><trkpt lat="44.8113633" lon="9.4519717"><ele>230.66666666666669</ele><time>2026-04-18T13:01:08.984Z</time></trkpt><trkpt lat="44.81136" lon="9.4520717"><ele>231.0</ele><time>2026-04-18T13:01:09.983Z</time></trkpt><trkpt lat="44.8113233" lon="9.452165"><ele>231.33333333333331</ele><time>2026-04-18T13:01:10.983Z</time></trkpt><trkpt lat="44.8112817" lon="9.4522667"><ele>231.66666666666666</ele><time>2026-04-18T13:01:11.985Z</time></trkpt><trkpt lat="44.81125" lon="9.4523767"><ele>232.0</ele><time>2026-04-18T13:01:12.985Z</time></trkpt><trkpt lat="44.8112367" lon="9.4524817"><ele>233.0</ele><time>2026-04-18T13:01:13.983Z</time></trkpt><trkpt lat="44.8112383" lon="9.4525867"><ele>234.0</ele><time>2026-04-18T13:01:14.984Z</time></trkpt><trkpt lat="44.8112667" lon="9.452705"><ele>235.0</ele><time>2026-04-18T13:01:15.983Z</time></trkpt><trkpt lat="44.8112867" lon="9.4528367"><ele>236.0</ele><time>2026-04-18T13:01:16.985Z</time></trkpt><trkpt lat="44.8113033" lon="9.4529767"><ele>237.0</ele><time>2026-04-18T13:01:17.984Z</time></trkpt><trkpt lat="44.8113183" lon="9.453115"><ele>238.5</ele><time>2026-04-18T13:01:18.983Z</time></trkpt><trkpt lat="44.8113317" lon="9.4532433"><ele>240.0</ele><time>2026-04-18T13:01:19.983Z</time></trkpt><trkpt lat="44.8113467" lon="9.4533583"><ele>241.5</ele><time>2026-04-18T13:01:20.984Z</time></trkpt><trkpt lat="44.8113433" lon="9.4534583"><ele>243.0</ele><time>2026-04-18T13:01:21.985Z</time></trkpt><trkpt lat="44.8113133" lon="9.45355"><ele>244.5</ele><time>2026-04-18T13:01:22.983Z</time></trkpt><trkpt lat="44.811255" lon="9.453645"><ele>246.0</ele><time>2026-04-18T13:01:23.984Z</time></trkpt><trkpt lat="44.8111867" lon="9.4537317"><ele>248.0</ele><time>2026-04-18T13:01:24.984Z</time></trkpt><trkpt lat="44.8111167" lon="9.4538017"><ele>250.00000000000003</ele><time>2026-04-18T13:01:25.984Z</time></trkpt><trkpt lat="44.8110517" lon="9.4538417"><ele>252.00000000000003</ele><time>2026-04-18T13:01:26.983Z</time></trkpt><trkpt lat="44.810925" lon="9.4538217"><ele>254.0</ele><time>2026-04-18T13:01:28.983Z</time></trkpt><trkpt lat="44.8108433" lon="9.4537583"><ele>256.0</ele><time>2026-04-18T13:01:29.984Z</time></trkpt><trkpt lat="44.8107633" lon="9.4536767"><ele>256.6</ele><time>2026-04-18T13:01:30.984Z</time></trkpt><trkpt lat="44.810685" lon="9.4535883"><ele>257.20000000000005</ele><time>2026-04-18T13:01:31.983Z</time></trkpt><trkpt lat="44.8106033" lon="9.4535033"><ele>257.79999999999995</ele><time>2026-04-18T13:01:32.984Z</time></trkpt><trkpt lat="44.8105167" lon="9.45343"><ele>258.4</ele><time>2026-04-18T13:01:33.983Z</time></trkpt><trkpt lat="44.8104167" lon="9.453375"><ele>259.0</ele><time>2026-04-18T13:01:34.985Z</time></trkpt><trkpt lat="44.8103167" lon="9.4533283"><ele>259.0</ele><time>2026-04-18T13:01:35.983Z</time></trkpt><trkpt lat="44.8102233" lon="9.4532833"><ele>259.0</ele><time>2026-04-18T13:01:36.984Z</time></trkpt><trkpt lat="44.8101317" lon="9.453255"><ele>259.0</ele><time>2026-04-18T13:01:37.983Z</time></trkpt><trkpt lat="44.81004" lon="9.4532467"><ele>259.0</ele><time>2026-04-18T13:01:38.984Z</time></trkpt><trkpt lat="44.809955" lon="9.453275"><ele>259.0</ele><time>2026-04-18T13:01:39.983Z</time></trkpt><trkpt lat="44.80988" lon="9.45336"><ele>261.8</ele><time>2026-04-18T13:01:40.984Z</time></trkpt><trkpt lat="44.8098017" lon="9.4534667"><ele>264.59999999999997</ele><time>2026-04-18T13:01:41.986Z</time></trkpt><trkpt lat="44.8097283" lon="9.453575"><ele>267.4</ele><time>2026-04-18T13:01:42.984Z</time></trkpt><trkpt lat="44.80966" lon="9.4536817"><ele>270.2</ele><time>2026-04-18T13:01:43.984Z</time></trkpt><trkpt lat="44.8096083" lon="9.4537917"><ele>273.0</ele><time>2026-04-18T13:01:44.984Z</time></trkpt><trkpt lat="44.8095817" lon="9.4538983"><ele>276.2</ele><time>2026-04-18T13:01:45.983Z</time></trkpt><trkpt lat="44.8095833" lon="9.4540067"><ele>279.4</ele><time>2026-04-18T13:01:46.985Z</time></trkpt><trkpt lat="44.8096383" lon="9.4541233"><ele>282.59999999999997</ele><time>2026-04-18T13:01:47.984Z</time></trkpt><trkpt lat="44.8097033" lon="9.45424"><ele>285.8</ele><time>2026-04-18T13:01:48.984Z</time></trkpt><trkpt lat="44.8097767" lon="9.4543533"><ele>289.0</ele><time>2026-04-18T13:01:49.984Z</time></trkpt><trkpt lat="44.809845" lon="9.454455"><ele>289.0</ele><time>2026-04-18T13:01:50.984Z</time></trkpt><trkpt lat="44.80991" lon="9.4545483"><ele>289.0</ele><time>2026-04-18T13:01:51.983Z</time></trkpt><trkpt lat="44.8099717" lon="9.4546367"><ele>289.0</ele><time>2026-04-18T13:01:52.983Z</time></trkpt><trkpt lat="44.8100233" lon="9.4547117"><ele>289.0</ele><time>2026-04-18T13:01:53.983Z</time></trkpt><trkpt lat="44.8100733" lon="9.4547833"><ele>289.0</ele><time>2026-04-18T13:01:54.984Z</time></trkpt><trkpt lat="44.81012" lon="9.4548633"><ele>289.0</ele><time>2026-04-18T13:01:55.984Z</time></trkpt><trkpt lat="44.8101617" lon="9.4549583"><ele>288.66666666666663</ele><time>2026-04-18T13:01:56.985Z</time></trkpt><trkpt lat="44.8101967" lon="9.45506"><ele>288.3333333333333</ele><time>2026-04-18T13:01:57.984Z</time></trkpt><trkpt lat="44.8102233" lon="9.455165"><ele>288.0</ele><time>2026-04-18T13:01:58.983Z</time></trkpt><trkpt lat="44.81025" lon="9.4552733"><ele>287.6666666666667</ele><time>2026-04-18T13:01:59.986Z</time></trkpt><trkpt lat="44.8102817" lon="9.4553867"><ele>287.33333333333337</ele><time>2026-04-18T13:02:00.984Z</time></trkpt><trkpt lat="44.8103167" lon="9.4555133"><ele>287.0</ele><time>2026-04-18T13:02:01.984Z</time></trkpt><trkpt lat="44.81036" lon="9.455655"><ele>287.0</ele><time>2026-04-18T13:02:02.984Z</time></trkpt><trkpt lat="44.8104033" lon="9.4558133"><ele>287.0</ele><time>2026-04-18T13:02:03.985Z</time></trkpt><trkpt lat="44.8104483" lon="9.45599"><ele>287.0</ele><time>2026-04-18T13:02:04.983Z</time></trkpt><trkpt lat="44.8105067" lon="9.45617"><ele>287.0</ele><time>2026-04-18T13:02:05.983Z</time></trkpt><trkpt lat="44.8105767" lon="9.45635"><ele>289.5</ele><time>2026-04-18T13:02:06.984Z</time></trkpt><trkpt lat="44.81065" lon="9.45652"><ele>292.0</ele><time>2026-04-18T13:02:07.984Z</time></trkpt><trkpt lat="44.8107083" lon="9.45667"><ele>294.5</ele><time>2026-04-18T13:02:08.984Z</time></trkpt><trkpt lat="44.81075" lon="9.4568033"><ele>297.0</ele><time>2026-04-18T13:02:09.985Z</time></trkpt><trkpt lat="44.8107733" lon="9.4569183"><ele>297.0</ele><time>2026-04-18T13:02:10.984Z</time></trkpt><trkpt lat="44.8107833" lon="9.4570233"><ele>297.0</ele><time>2026-04-18T13:02:11.984Z</time></trkpt><trkpt lat="44.810765" lon="9.45711"><ele>297.0</ele><time>2026-04-18T13:02:12.984Z</time></trkpt><trkpt lat="44.8106717" lon="9.45715"><ele>297.0</ele><time>2026-04-18T13:02:14.986Z</time></trkpt><trkpt lat="44.81054" lon="9.4570683"><ele>297.0</ele><time>2026-04-18T13:02:16.984Z</time></trkpt><trkpt lat="44.81046" lon="9.4569983"><ele>297.0</ele><time>2026-04-18T13:02:17.983Z</time></trkpt><trkpt lat="44.81038" lon="9.45693"><ele>297.0</ele><time>2026-04-18T13:02:18.984Z</time></trkpt><trkpt lat="44.8103033" lon="9.4568633"><ele>297.0</ele><time>2026-04-18T13:02:19.983Z</time></trkpt><trkpt lat="44.810235" lon="9.4567967"><ele>297.0</ele><time>2026-04-18T13:02:20.985Z</time></trkpt><trkpt lat="44.8101733" lon="9.4567333"><ele>297.0</ele><time>2026-04-18T13:02:21.984Z</time></trkpt><trkpt lat="44.8101233" lon="9.456675"><ele>297.0</ele><time>2026-04-18T13:02:22.988Z</time></trkpt><trkpt lat="44.8100417" lon="9.4565933"><ele>299.3333333333333</ele><time>2026-04-18T13:02:24.984Z</time></trkpt><trkpt lat="44.8099833" lon="9.4566467"><ele>301.6666666666667</ele><time>2026-04-18T13:02:27.984Z</time></trkpt><trkpt lat="44.8100417" lon="9.4567767"><ele>304.0</ele><time>2026-04-18T13:02:29.984Z</time></trkpt><trkpt lat="44.8100783" lon="9.4568633"><ele>306.33333333333337</ele><time>2026-04-18T13:02:30.983Z</time></trkpt><trkpt lat="44.81011" lon="9.4569583"><ele>308.6666666666667</ele><time>2026-04-18T13:02:31.984Z</time></trkpt><trkpt lat="44.81014" lon="9.45706"><ele>311.0</ele><time>2026-04-18T13:02:32.984Z</time></trkpt><trkpt lat="44.8101667" lon="9.45717"><ele>311.0</ele><time>2026-04-18T13:02:33.983Z</time></trkpt><trkpt lat="44.810205" lon="9.4572717"><ele>311.0</ele><time>2026-04-18T13:02:34.985Z</time></trkpt><trkpt lat="44.810255" lon="9.4573617"><ele>311.0</ele><time>2026-04-18T13:02:35.985Z</time></trkpt><trkpt lat="44.81031" lon="9.4574367"><ele>311.0</ele><time>2026-04-18T13:02:36.984Z</time></trkpt><trkpt lat="44.8103567" lon="9.4575067"><ele>311.0</ele><time>2026-04-18T13:02:37.983Z</time></trkpt><trkpt lat="44.8103833" lon="9.4576817"><ele>311.0</ele><time>2026-04-18T13:02:39.983Z</time></trkpt><trkpt lat="44.8103883" lon="9.45779"><ele>311.0</ele><time>2026-04-18T13:02:40.983Z</time></trkpt><trkpt lat="44.8103867" lon="9.4578933"><ele>311.0</ele><time>2026-04-18T13:02:41.984Z</time></trkpt><trkpt lat="44.8103683" lon="9.457995"><ele>311.0</ele><time>2026-04-18T13:02:42.983Z</time></trkpt><trkpt lat="44.8103383" lon="9.4581033"><ele>311.0</ele><time>2026-04-18T13:02:43.985Z</time></trkpt><trkpt lat="44.8103033" lon="9.4582083"><ele>311.0</ele><time>2026-04-18T13:02:44.985Z</time></trkpt><trkpt lat="44.8102667" lon="9.4583117"><ele>311.0</ele><time>2026-04-18T13:02:45.984Z</time></trkpt><trkpt lat="44.81022" lon="9.4584133"><ele>318.20000000000005</ele><time>2026-04-18T13:02:46.983Z</time></trkpt><trkpt lat="44.8101567" lon="9.4585183"><ele>325.40000000000003</ele><time>2026-04-18T13:02:47.987Z</time></trkpt><trkpt lat="44.8101017" lon="9.4586183"><ele>332.6</ele><time>2026-04-18T13:02:48.983Z</time></trkpt><trkpt lat="44.810055" lon="9.4587283"><ele>339.8</ele><time>2026-04-18T13:02:49.983Z</time></trkpt><trkpt lat="44.81001" lon="9.4588483"><ele>347.0</ele><time>2026-04-18T13:02:50.984Z</time></trkpt><trkpt lat="44.80996" lon="9.458965"><ele>347.0</ele><time>2026-04-18T13:02:51.983Z</time></trkpt><trkpt lat="44.8099117" lon="9.4590667"><ele>347.0</ele><time>2026-04-18T13:02:52.984Z</time></trkpt><trkpt lat="44.8098583" lon="9.4591467"><ele>347.0</ele><time>2026-04-18T13:02:53.983Z</time></trkpt><trkpt lat="44.8098017" lon="9.459215"><ele>347.0</ele><time>2026-04-18T13:02:54.984Z</time></trkpt><trkpt lat="44.8097483" lon="9.459295"><ele>347.0</ele><time>2026-04-18T13:02:55.984Z</time></trkpt><trkpt lat="44.809705" lon="9.4593817"><ele>347.0</ele><time>2026-04-18T13:02:56.984Z</time></trkpt><trkpt lat="44.8096667" lon="9.45948"><ele>347.0</ele><time>2026-04-18T13:02:57.983Z</time></trkpt><trkpt lat="44.8096317" lon="9.4595867"><ele>347.0</ele><time>2026-04-18T13:02:58.984Z</time></trkpt><trkpt lat="44.8096067" lon="9.4596917"><ele>347.0</ele><time>2026-04-18T13:02:59.984Z</time></trkpt><trkpt lat="44.8095833" lon="9.459785"><ele>347.0</ele><time>2026-04-18T13:03:00.984Z</time></trkpt><trkpt lat="44.8095567" lon="9.4598683"><ele>347.0</ele><time>2026-04-18T13:03:01.984Z</time></trkpt><trkpt lat="44.80952" lon="9.4599467"><ele>347.0</ele><time>2026-04-18T13:03:02.985Z</time></trkpt><trkpt lat="44.809475" lon="9.46001"><ele>347.0</ele><time>2026-04-18T13:03:03.983Z</time></trkpt><trkpt lat="44.8094133" lon="9.4600733"><ele>347.20000000000005</ele><time>2026-04-18T13:03:04.984Z</time></trkpt><trkpt lat="44.8093367" lon="9.4601533"><ele>347.4</ele><time>2026-04-18T13:03:05.983Z</time></trkpt><trkpt lat="44.809265" lon="9.46024"><ele>347.6</ele><time>2026-04-18T13:03:06.983Z</time></trkpt><trkpt lat="44.8091983" lon="9.460335"><ele>347.79999999999995</ele><time>2026-04-18T13:03:07.983Z</time></trkpt><trkpt lat="44.8091417" lon="9.4604383"><ele>348.0</ele><time>2026-04-18T13:03:08.985Z</time></trkpt><trkpt lat="44.8090967" lon="9.4605417"><ele>352.1666666666667</ele><time>2026-04-18T13:03:09.984Z</time></trkpt><trkpt lat="44.8090617" lon="9.4606467"><ele>356.3333333333333</ele><time>2026-04-18T13:03:10.983Z</time></trkpt><trkpt lat="44.8090367" lon="9.4607583"><ele>360.5</ele><time>2026-04-18T13:03:11.984Z</time></trkpt><trkpt lat="44.8090083" lon="9.4608733"><ele>364.66666666666663</ele><time>2026-04-18T13:03:12.984Z</time></trkpt><trkpt lat="44.80898" lon="9.4609883"><ele>368.8333333333333</ele><time>2026-04-18T13:03:13.983Z</time></trkpt><trkpt lat="44.8089417" lon="9.4610967"><ele>373.0</ele><time>2026-04-18T13:03:14.984Z</time></trkpt><trkpt lat="44.8089017" lon="9.4611967"><ele>373.5</ele><time>2026-04-18T13:03:15.985Z</time></trkpt><trkpt lat="44.808865" lon="9.461285"><ele>374.0</ele><time>2026-04-18T13:03:16.984Z</time></trkpt><trkpt lat="44.80884" lon="9.4613683"><ele>374.5</ele><time>2026-04-18T13:03:17.985Z</time></trkpt><trkpt lat="44.8088233" lon="9.46146"><ele>375.0</ele><time>2026-04-18T13:03:18.984Z</time></trkpt><trkpt lat="44.8088183" lon="9.461555"><ele>375.5</ele><time>2026-04-18T13:03:19.984Z</time></trkpt><trkpt lat="44.8087967" lon="9.461725"><ele>376.0</ele><time>2026-04-18T13:03:21.984Z</time></trkpt><trkpt lat="44.8087183" lon="9.46185"><ele>376.0</ele><time>2026-04-18T13:03:23.983Z</time></trkpt><trkpt lat="44.8086417" lon="9.46189"><ele>376.0</ele><time>2026-04-18T13:03:24.985Z</time></trkpt><trkpt lat="44.8085767" lon="9.4619417"><ele>376.0</ele><time>2026-04-18T13:03:25.985Z</time></trkpt><trkpt lat="44.8085183" lon="9.462015"><ele>376.0</ele><time>2026-04-18T13:03:26.984Z</time></trkpt><trkpt lat="44.8084567" lon="9.4621133"><ele>376.0</ele><time>2026-04-18T13:03:27.983Z</time></trkpt><trkpt lat="44.8083983" lon="9.46221"><ele>376.0</ele><time>2026-04-18T13:03:28.984Z</time></trkpt><trkpt lat="44.8083467" lon="9.4623067"><ele>380.5</ele><time>2026-04-18T13:03:29.985Z</time></trkpt><trkpt lat="44.8083033" lon="9.4624"><ele>385.0</ele><time>2026-04-18T13:03:30.984Z</time></trkpt><trkpt lat="44.8082633" lon="9.4624883"><ele>389.5</ele><time>2026-04-18T13:03:31.984Z</time></trkpt><trkpt lat="44.8082183" lon="9.4625817"><ele>394.0</ele><time>2026-04-18T13:03:32.985Z</time></trkpt><trkpt lat="44.808165" lon="9.4626783"><ele>398.50000000000006</ele><time>2026-04-18T13:03:33.984Z</time></trkpt><trkpt lat="44.808115" lon="9.4627683"><ele>403.0</ele><time>2026-04-18T13:03:34.984Z</time></trkpt><trkpt lat="44.80808" lon="9.4628583"><ele>403.00000000000006</ele><time>2026-04-18T13:03:35.984Z</time></trkpt><trkpt lat="44.808055" lon="9.4629583"><ele>403.0</ele><time>2026-04-18T13:03:36.985Z</time></trkpt><trkpt lat="44.8080417" lon="9.46307"><ele>403.0</ele><time>2026-04-18T13:03:37.985Z</time></trkpt><trkpt lat="44.8080383" lon="9.4631867"><ele>403.0</ele><time>2026-04-18T13:03:38.985Z</time></trkpt><trkpt lat="44.80804" lon="9.4633"><ele>403.00000000000006</ele><time>2026-04-18T13:03:39.985Z</time></trkpt><trkpt lat="44.8080433" lon="9.4633983"><ele>403.0</ele><time>2026-04-18T13:03:40.985Z</time></trkpt><trkpt lat="44.8080433" lon="9.4635617"><ele>403.00000000000006</ele><time>2026-04-18T13:03:42.985Z</time></trkpt><trkpt lat="44.8080767" lon="9.4637367"><ele>403.0</ele><time>2026-04-18T13:03:44.985Z</time></trkpt><trkpt lat="44.8081117" lon="9.46383"><ele>403.0</ele><time>2026-04-18T13:03:45.983Z</time></trkpt><trkpt lat="44.8081467" lon="9.463925"><ele>403.0</ele><time>2026-04-18T13:03:46.983Z</time></trkpt><trkpt lat="44.808185" lon="9.4640267"><ele>403.00000000000006</ele><time>2026-04-18T13:03:47.984Z</time></trkpt><trkpt lat="44.8082317" lon="9.4641267"><ele>403.0</ele><time>2026-04-18T13:03:48.984Z</time></trkpt><trkpt lat="44.8082783" lon="9.4642183"><ele>403.59999999999997</ele><time>2026-04-18T13:03:49.986Z</time></trkpt><trkpt lat="44.8083267" lon="9.4643067"><ele>404.2</ele><time>2026-04-18T13:03:50.985Z</time></trkpt><trkpt lat="44.8083683" lon="9.46439"><ele>404.8</ele><time>2026-04-18T13:03:51.984Z</time></trkpt><trkpt lat="44.8084" lon="9.4644717"><ele>405.4</ele><time>2026-04-18T13:03:52.983Z</time></trkpt><trkpt lat="44.8084117" lon="9.4646317"><ele>406.0</ele><time>2026-04-18T13:03:54.985Z</time></trkpt><trkpt lat="44.808395" lon="9.4647967"><ele>406.0</ele><time>2026-04-18T13:03:56.985Z</time></trkpt><trkpt lat="44.80835" lon="9.46494"><ele>406.0</ele><time>2026-04-18T13:03:58.984Z</time></trkpt><trkpt lat="44.8082417" lon="9.465015"><ele>406.0</ele><time>2026-04-18T13:04:00.985Z</time></trkpt><trkpt lat="44.8081683" lon="9.4650117"><ele>406.0</ele><time>2026-04-18T13:04:01.984Z</time></trkpt><trkpt lat="44.8080917" lon="9.4649817"><ele>406.0</ele><time>2026-04-18T13:04:02.985Z</time></trkpt><trkpt lat="44.8080183" lon="9.4649517"><ele>406.00000000000006</ele><time>2026-04-18T13:04:03.984Z</time></trkpt><trkpt lat="44.80795" lon="9.4649383"><ele>406.0</ele><time>2026-04-18T13:04:04.985Z</time></trkpt><trkpt lat="44.8078767" lon="9.464945"><ele>406.0</ele><time>2026-04-18T13:04:05.985Z</time></trkpt><trkpt lat="44.807805" lon="9.4649883"><ele>406.0</ele><time>2026-04-18T13:04:06.984Z</time></trkpt><trkpt lat="44.80773" lon="9.465045"><ele>406.00000000000006</ele><time>2026-04-18T13:04:07.984Z</time></trkpt><trkpt lat="44.8076533" lon="9.4651033"><ele>406.0</ele><time>2026-04-18T13:04:08.985Z</time></trkpt><trkpt lat="44.80759" lon="9.4651667"><ele>408.33333333333337</ele><time>2026-04-18T13:04:09.984Z</time></trkpt><trkpt lat="44.8075433" lon="9.46523"><ele>410.6666666666667</ele><time>2026-04-18T13:04:10.983Z</time></trkpt><trkpt lat="44.8075167" lon="9.4653867"><ele>413.0</ele><time>2026-04-18T13:04:12.984Z</time></trkpt><trkpt lat="44.8075317" lon="9.4654983"><ele>415.33333333333337</ele><time>2026-04-18T13:04:13.983Z</time></trkpt><trkpt lat="44.8075267" lon="9.4656167"><ele>417.6666666666667</ele><time>2026-04-18T13:04:14.985Z</time></trkpt><trkpt lat="44.8075117" lon="9.465735"><ele>420.0</ele><time>2026-04-18T13:04:15.983Z</time></trkpt><trkpt lat="44.8074783" lon="9.46584"><ele>420.3333333333333</ele><time>2026-04-18T13:04:16.983Z</time></trkpt><trkpt lat="44.8074283" lon="9.4659167"><ele>420.66666666666663</ele><time>2026-04-18T13:04:17.985Z</time></trkpt><trkpt lat="44.807365" lon="9.4659717"><ele>421.0</ele><time>2026-04-18T13:04:18.984Z</time></trkpt><trkpt lat="44.80729" lon="9.4660233"><ele>421.3333333333333</ele><time>2026-04-18T13:04:19.985Z</time></trkpt><trkpt lat="44.8072133" lon="9.46608"><ele>421.66666666666663</ele><time>2026-04-18T13:04:20.985Z</time></trkpt><trkpt lat="44.8071433" lon="9.46613"><ele>422.0</ele><time>2026-04-18T13:04:21.983Z</time></trkpt><trkpt lat="44.8070767" lon="9.4661733"><ele>421.99999999999994</ele><time>2026-04-18T13:04:22.985Z</time></trkpt><trkpt lat="44.8070121" lon="9.4662218"><ele>422.0</ele><time>2026-04-18T13:04:23.985Z</time></trkpt><trkpt lat="44.8069391" lon="9.4662665"><ele>422.0</ele><time>2026-04-18T13:04:24.985Z</time></trkpt><trkpt lat="44.806861" lon="9.466303"><ele>422.0</ele><time>2026-04-18T13:04:25.985Z</time></trkpt><trkpt lat="44.8067797" lon="9.4663354"><ele>421.99999999999994</ele><time>2026-04-18T13:04:26.984Z</time></trkpt><trkpt lat="44.8066987" lon="9.4663803"><ele>422.0</ele><time>2026-04-18T13:04:27.984Z</time></trkpt><trkpt lat="44.8066245" lon="9.4664283"><ele>423.99999999999994</ele><time>2026-04-18T13:04:28.985Z</time></trkpt><trkpt lat="44.8065515" lon="9.4664673"><ele>426.0</ele><time>2026-04-18T13:04:29.985Z</time></trkpt><trkpt lat="44.8064767" lon="9.4664965"><ele>428.0</ele><time>2026-04-18T13:04:30.985Z</time></trkpt><trkpt lat="44.8064042" lon="9.466525"><ele>430.0</ele><time>2026-04-18T13:04:31.983Z</time></trkpt><trkpt lat="44.8063358" lon="9.466549"><ele>431.99999999999994</ele><time>2026-04-18T13:04:32.984Z</time></trkpt><trkpt lat="44.8062392" lon="9.4666349"><ele>434.0</ele><time>2026-04-18T13:04:34.982Z</time></trkpt><trkpt lat="44.8062147" lon="9.4667921"><ele>433.99999999999994</ele><time>2026-04-18T13:04:36.982Z</time></trkpt><trkpt lat="44.8062203" lon="9.4668921"><ele>434.0</ele><time>2026-04-18T13:04:37.983Z</time></trkpt><trkpt lat="44.8062211" lon="9.4669895"><ele>434.0</ele><time>2026-04-18T13:04:38.984Z</time></trkpt><trkpt lat="44.8062203" lon="9.4670821"><ele>434.0</ele><time>2026-04-18T13:04:39.987Z</time></trkpt><trkpt lat="44.8062539" lon="9.4672315"><ele>433.99999999999994</ele><time>2026-04-18T13:04:41.985Z</time></trkpt><trkpt lat="44.8063515" lon="9.4673242"><ele>434.0</ele><time>2026-04-18T13:04:43.983Z</time></trkpt><trkpt lat="44.8064288" lon="9.4674033"><ele>434.4</ele><time>2026-04-18T13:04:45.983Z</time></trkpt><trkpt lat="44.8064302" lon="9.4674952"><ele>434.79999999999995</ele><time>2026-04-18T13:05:01.983Z</time></trkpt><trkpt lat="44.8063782" lon="9.4675723"><ele>435.20000000000005</ele><time>2026-04-18T13:05:04.983Z</time></trkpt><trkpt lat="44.806333" lon="9.4676887"><ele>435.6</ele><time>2026-04-18T13:05:07.984Z</time></trkpt><trkpt lat="44.8062539" lon="9.4677932"><ele>436.0</ele><time>2026-04-18T13:05:10.982Z</time></trkpt><trkpt lat="44.8061542" lon="9.4678907"><ele>435.6</ele><time>2026-04-18T13:05:12.984Z</time></trkpt><trkpt lat="44.8060339" lon="9.4679635"><ele>435.20000000000005</ele><time>2026-04-18T13:05:14.983Z</time></trkpt><trkpt lat="44.8059732" lon="9.4679942"><ele>434.79999999999995</ele><time>2026-04-18T13:05:15.984Z</time></trkpt><trkpt lat="44.8058993" lon="9.4680634"><ele>434.4</ele><time>2026-04-18T13:05:17.984Z</time></trkpt><trkpt lat="44.8058572" lon="9.4681525"><ele>434.0</ele><time>2026-04-18T13:05:19.984Z</time></trkpt><trkpt lat="44.8057926" lon="9.4682701"><ele>436.49999999999994</ele><time>2026-04-18T13:05:21.984Z</time></trkpt><trkpt lat="44.8056983" lon="9.46835"><ele>439.0</ele><time>2026-04-18T13:05:23.982Z</time></trkpt><trkpt lat="44.8056433" lon="9.4684083"><ele>441.5</ele><time>2026-04-18T13:05:25.983Z</time></trkpt><trkpt lat="44.80559" lon="9.468465"><ele>444.0</ele><time>2026-04-18T13:05:33.983Z</time></trkpt><trkpt lat="44.80553" lon="9.4685367"><ele>446.49999999999994</ele><time>2026-04-18T13:05:37.983Z</time></trkpt><trkpt lat="44.8054867" lon="9.468605"><ele>449.0</ele><time>2026-04-18T13:05:39.984Z</time></trkpt><trkpt lat="44.8054233" lon="9.4686567"><ele>448.99999999999994</ele><time>2026-04-18T13:05:41.983Z</time></trkpt><trkpt lat="44.8053517" lon="9.4687067"><ele>449.0</ele><time>2026-04-18T13:05:43.982Z</time></trkpt><trkpt lat="44.8052967" lon="9.4688"><ele>449.0</ele><time>2026-04-18T13:05:45.984Z</time></trkpt><trkpt lat="44.805265" lon="9.468945"><ele>449.0</ele><time>2026-04-18T13:05:47.984Z</time></trkpt><trkpt lat="44.8052467" lon="9.46903"><ele>448.99999999999994</ele><time>2026-04-18T13:05:48.984Z</time></trkpt><trkpt lat="44.80522" lon="9.469115"><ele>449.0</ele><time>2026-04-18T13:05:49.982Z</time></trkpt><trkpt lat="44.8051883" lon="9.4691983"><ele>451.16666666666663</ele><time>2026-04-18T13:05:50.984Z</time></trkpt><trkpt lat="44.8051267" lon="9.46928"><ele>453.3333333333333</ele><time>2026-04-18T13:05:51.984Z</time></trkpt><trkpt lat="44.80504" lon="9.46936"><ele>455.5</ele><time>2026-04-18T13:05:52.983Z</time></trkpt><trkpt lat="44.804965" lon="9.4694333"><ele>457.66666666666663</ele><time>2026-04-18T13:05:53.983Z</time></trkpt><trkpt lat="44.8049083" lon="9.4694933"><ele>459.8333333333333</ele><time>2026-04-18T13:05:54.983Z</time></trkpt><trkpt lat="44.804845" lon="9.469545"><ele>462.0</ele><time>2026-04-18T13:05:56.983Z</time></trkpt><trkpt lat="44.8047817" lon="9.4695983"><ele>462.0</ele><time>2026-04-18T13:07:38.984Z</time></trkpt><trkpt lat="44.8047017" lon="9.469595"><ele>462.0</ele><time>2026-04-18T13:07:43.983Z</time></trkpt><trkpt lat="44.8046033" lon="9.4695983"><ele>462.0</ele><time>2026-04-18T13:07:46.984Z</time></trkpt><trkpt lat="44.8045283" lon="9.469605"><ele>462.0</ele><time>2026-04-18T13:07:48.983Z</time></trkpt><trkpt lat="44.8044436" lon="9.469613"><ele>462.0</ele><time>2026-04-18T13:07:51.052Z</time></trkpt><trkpt lat="44.8043659" lon="9.4695618"><ele>462.0</ele><time>2026-04-18T13:07:53.027Z</time></trkpt><trkpt lat="44.8043046" lon="9.469458"><ele>465.0</ele><time>2026-04-18T13:07:55.004Z</time></trkpt><trkpt lat="44.8042753" lon="9.469333"><ele>468.00000000000006</ele><time>2026-04-18T13:07:57.084Z</time></trkpt><trkpt lat="44.8042045" lon="9.4692851"><ele>471.00000000000006</ele><time>2026-04-18T13:07:59.059Z</time></trkpt><trkpt lat="44.8041249" lon="9.4693345"><ele>474.0</ele><time>2026-04-18T13:08:00.984Z</time></trkpt><trkpt lat="44.8040198" lon="9.4692642"><ele>477.0</ele><time>2026-04-18T13:08:02.985Z</time></trkpt><trkpt lat="44.8039271" lon="9.4691768"><ele>477.0</ele><time>2026-04-18T13:08:04.983Z</time></trkpt><trkpt lat="44.8038297" lon="9.4691455"><ele>477.00000000000006</ele><time>2026-04-18T13:08:06.984Z</time></trkpt><trkpt lat="44.8037513" lon="9.4690861"><ele>477.00000000000006</ele><time>2026-04-18T13:08:08.984Z</time></trkpt><trkpt lat="44.8036726" lon="9.4690602"><ele>477.0</ele><time>2026-04-18T13:08:10.983Z</time></trkpt><trkpt lat="44.8036014" lon="9.4689905"><ele>477.0</ele><time>2026-04-18T13:08:12.984Z</time></trkpt><trkpt lat="44.8035336" lon="9.4688983"><ele>478.5</ele><time>2026-04-18T13:08:14.984Z</time></trkpt><trkpt lat="44.8034776" lon="9.4688096"><ele>480.0</ele><time>2026-04-18T13:08:16.984Z</time></trkpt><trkpt lat="44.8034157" lon="9.4687522"><ele>481.5</ele><time>2026-04-18T13:08:18.983Z</time></trkpt><trkpt lat="44.8033424" lon="9.468727"><ele>483.0</ele><time>2026-04-18T13:08:20.984Z</time></trkpt><trkpt lat="44.8032662" lon="9.4686745"><ele>484.5</ele><time>2026-04-18T13:08:22.984Z</time></trkpt><trkpt lat="44.80321" lon="9.4685884"><ele>486.0</ele><time>2026-04-18T13:08:24.984Z</time></trkpt><trkpt lat="44.8031567" lon="9.4684883"><ele>487.4</ele><time>2026-04-18T13:08:26.985Z</time></trkpt><trkpt lat="44.8030725" lon="9.4683908"><ele>488.8</ele><time>2026-04-18T13:08:28.984Z</time></trkpt><trkpt lat="44.8029925" lon="9.4682787"><ele>490.19999999999993</ele><time>2026-04-18T13:08:30.984Z</time></trkpt><trkpt lat="44.8029035" lon="9.4682174"><ele>491.59999999999997</ele><time>2026-04-18T13:08:32.984Z</time></trkpt><trkpt lat="44.802794" lon="9.4681987"><ele>493.0</ele><time>2026-04-18T13:08:34.983Z</time></trkpt><trkpt lat="44.8027062" lon="9.4681685"><ele>494.83333333333337</ele><time>2026-04-18T13:08:36.984Z</time></trkpt><trkpt lat="44.8026379" lon="9.4681797"><ele>496.6666666666667</ele><time>2026-04-18T13:08:40.006Z</time></trkpt><trkpt lat="44.8025614" lon="9.4682001"><ele>498.5</ele><time>2026-04-18T13:08:40.984Z</time></trkpt><trkpt lat="44.8024902" lon="9.4682383"><ele>500.33333333333337</ele><time>2026-04-18T13:08:43.035Z</time></trkpt><trkpt lat="44.802424" lon="9.4682784"><ele>502.1666666666667</ele><time>2026-04-18T13:08:43.984Z</time></trkpt><trkpt lat="44.8023262" lon="9.4682813"><ele>504.0</ele><time>2026-04-18T13:08:45.983Z</time></trkpt><trkpt lat="44.8022657" lon="9.4682122"><ele>504.0</ele><time>2026-04-18T13:08:47.984Z</time></trkpt><trkpt lat="44.8021857" lon="9.4681519"><ele>504.0</ele><time>2026-04-18T13:09:31.984Z</time></trkpt><trkpt lat="44.8021233" lon="9.4682123"><ele>504.0</ele><time>2026-04-18T13:09:33.984Z</time></trkpt><trkpt lat="44.8020151" lon="9.4682394"><ele>504.0</ele><time>2026-04-18T13:09:35.984Z</time></trkpt><trkpt lat="44.8019024" lon="9.468251"><ele>504.0</ele><time>2026-04-18T13:09:37.984Z</time></trkpt><trkpt lat="44.801838" lon="9.4683493"><ele>504.0</ele><time>2026-04-18T13:09:39.984Z</time></trkpt><trkpt lat="44.8018518" lon="9.468511"><ele>504.0</ele><time>2026-04-18T13:09:41.984Z</time></trkpt><trkpt lat="44.8018751" lon="9.4685978"><ele>504.0</ele><time>2026-04-18T13:09:42.983Z</time></trkpt><trkpt lat="44.8019131" lon="9.4686835"><ele>504.0</ele><time>2026-04-18T13:09:43.983Z</time></trkpt><trkpt lat="44.8019533" lon="9.4687566"><ele>504.0</ele><time>2026-04-18T13:09:44.984Z</time></trkpt><trkpt lat="44.8019972" lon="9.4688949"><ele>504.0</ele><time>2026-04-18T13:09:46.983Z</time></trkpt><trkpt lat="44.8020082" lon="9.4690448"><ele>502.4</ele><time>2026-04-18T13:09:48.984Z</time></trkpt><trkpt lat="44.8020123" lon="9.4692164"><ele>500.79999999999995</ele><time>2026-04-18T13:09:50.985Z</time></trkpt><trkpt lat="44.8020193" lon="9.4693065"><ele>499.20000000000005</ele><time>2026-04-18T13:09:51.986Z</time></trkpt><trkpt lat="44.8020384" lon="9.4694744"><ele>497.6</ele><time>2026-04-18T13:09:53.985Z</time></trkpt><trkpt lat="44.8020614" lon="9.4695657"><ele>496.0</ele><time>2026-04-18T13:09:54.984Z</time></trkpt><trkpt lat="44.8020974" lon="9.4696696"><ele>496.00000000000006</ele><time>2026-04-18T13:09:55.986Z</time></trkpt><trkpt lat="44.8021436" lon="9.4697789"><ele>496.0</ele><time>2026-04-18T13:09:56.986Z</time></trkpt><trkpt lat="44.8021949" lon="9.4698775"><ele>496.0</ele><time>2026-04-18T13:09:57.986Z</time></trkpt><trkpt lat="44.8022602" lon="9.46997"><ele>496.0</ele><time>2026-04-18T13:09:58.985Z</time></trkpt><trkpt lat="44.802329" lon="9.4700589"><ele>496.00000000000006</ele><time>2026-04-18T13:09:59.984Z</time></trkpt><trkpt lat="44.8023882" lon="9.4701478"><ele>496.0</ele><time>2026-04-18T13:10:00.984Z</time></trkpt><trkpt lat="44.8024387" lon="9.4702313"><ele>496.0</ele><time>2026-04-18T13:10:01.986Z</time></trkpt><trkpt lat="44.8024836" lon="9.4703068"><ele>496.00000000000006</ele><time>2026-04-18T13:10:02.985Z</time></trkpt><trkpt lat="44.8025258" lon="9.4703808"><ele>496.0</ele><time>2026-04-18T13:10:03.985Z</time></trkpt><trkpt lat="44.8025646" lon="9.4704597"><ele>496.0</ele><time>2026-04-18T13:10:04.985Z</time></trkpt><trkpt lat="44.8026095" lon="9.4705394"><ele>496.00000000000006</ele><time>2026-04-18T13:10:05.985Z</time></trkpt><trkpt lat="44.802663" lon="9.4706124"><ele>496.0</ele><time>2026-04-18T13:10:06.986Z</time></trkpt><trkpt lat="44.80272" lon="9.470689"><ele>496.0</ele><time>2026-04-18T13:10:07.985Z</time></trkpt><trkpt lat="44.8027769" lon="9.4707775"><ele>495.50000000000006</ele><time>2026-04-18T13:10:08.986Z</time></trkpt><trkpt lat="44.8028287" lon="9.4708686"><ele>495.0</ele><time>2026-04-18T13:10:09.984Z</time></trkpt><trkpt lat="44.8028759" lon="9.4709575"><ele>494.5</ele><time>2026-04-18T13:10:10.984Z</time></trkpt><trkpt lat="44.802915" lon="9.4710462"><ele>494.0</ele><time>2026-04-18T13:10:11.989Z</time></trkpt><trkpt lat="44.8029378" lon="9.4711333"><ele>493.50000000000006</ele><time>2026-04-18T13:10:12.986Z</time></trkpt><trkpt lat="44.8029583" lon="9.471218"><ele>493.0</ele><time>2026-04-18T13:10:13.984Z</time></trkpt><trkpt lat="44.8030206" lon="9.4713624"><ele>493.00000000000006</ele><time>2026-04-18T13:10:15.987Z</time></trkpt><trkpt lat="44.8030827" lon="9.4714891"><ele>493.0</ele><time>2026-04-18T13:10:17.984Z</time></trkpt><trkpt lat="44.8031202" lon="9.4716515"><ele>493.0</ele><time>2026-04-18T13:10:19.985Z</time></trkpt><trkpt lat="44.8031396" lon="9.4717502"><ele>493.0</ele><time>2026-04-18T13:10:20.985Z</time></trkpt><trkpt lat="44.8031645" lon="9.4718497"><ele>493.00000000000006</ele><time>2026-04-18T13:10:21.984Z</time></trkpt><trkpt lat="44.8031912" lon="9.4719426"><ele>493.0</ele><time>2026-04-18T13:10:22.985Z</time></trkpt><trkpt lat="44.80322" lon="9.4720278"><ele>493.33333333333337</ele><time>2026-04-18T13:10:23.987Z</time></trkpt><trkpt lat="44.8032854" lon="9.4721626"><ele>493.6666666666667</ele><time>2026-04-18T13:10:25.985Z</time></trkpt><trkpt lat="44.8033672" lon="9.472248"><ele>494.0</ele><time>2026-04-18T13:10:27.984Z</time></trkpt><trkpt lat="44.8034221" lon="9.4722967"><ele>494.33333333333337</ele><time>2026-04-18T13:10:28.985Z</time></trkpt><trkpt lat="44.80347" lon="9.4723604"><ele>494.6666666666667</ele><time>2026-04-18T13:10:29.985Z</time></trkpt><trkpt lat="44.8035061" lon="9.4724376"><ele>495.0</ele><time>2026-04-18T13:10:30.985Z</time></trkpt><trkpt lat="44.8035692" lon="9.4725657"><ele>495.0</ele><time>2026-04-18T13:10:32.985Z</time></trkpt><trkpt lat="44.8036702" lon="9.4726283"><ele>495.0</ele><time>2026-04-18T13:10:34.985Z</time></trkpt><trkpt lat="44.8037876" lon="9.4726519"><ele>495.0</ele><time>2026-04-18T13:10:36.985Z</time></trkpt><trkpt lat="44.8038988" lon="9.4726884"><ele>495.0</ele><time>2026-04-18T13:10:38.984Z</time></trkpt><trkpt lat="44.8039879" lon="9.4726415"><ele>495.0</ele><time>2026-04-18T13:10:40.985Z</time></trkpt><trkpt lat="44.804089" lon="9.4725926"><ele>495.0</ele><time>2026-04-18T13:10:42.987Z</time></trkpt><trkpt lat="44.8042228" lon="9.4725877"><ele>495.0</ele><time>2026-04-18T13:10:44.985Z</time></trkpt><trkpt lat="44.8043021" lon="9.4725803"><ele>495.0</ele><time>2026-04-18T13:10:45.985Z</time></trkpt><trkpt lat="44.804368" lon="9.4725858"><ele>495.0</ele><time>2026-04-18T13:10:46.984Z</time></trkpt><trkpt lat="44.8044559" lon="9.4726172"><ele>495.0</ele><time>2026-04-18T13:10:48.984Z</time></trkpt><trkpt lat="44.804525" lon="9.4726195"><ele>495.0</ele><time>2026-04-18T13:10:51.985Z</time></trkpt><trkpt lat="44.8046256" lon="9.4726831"><ele>495.8333333333333</ele><time>2026-04-18T13:10:57.984Z</time></trkpt><trkpt lat="44.8047139" lon="9.4728096"><ele>496.66666666666663</ele><time>2026-04-18T13:10:59.984Z</time></trkpt><trkpt lat="44.8047576" lon="9.4728936"><ele>497.5</ele><time>2026-04-18T13:11:00.984Z</time></trkpt><trkpt lat="44.8048012" lon="9.4729903"><ele>498.3333333333333</ele><time>2026-04-18T13:11:01.983Z</time></trkpt><trkpt lat="44.8048381" lon="9.4730945"><ele>499.16666666666663</ele><time>2026-04-18T13:11:02.986Z</time></trkpt><trkpt lat="44.8048731" lon="9.4731972"><ele>500.0</ele><time>2026-04-18T13:11:03.985Z</time></trkpt><trkpt lat="44.8048974" lon="9.473297"><ele>499.99999999999994</ele><time>2026-04-18T13:11:04.984Z</time></trkpt><trkpt lat="44.8049169" lon="9.4734082"><ele>500.0</ele><time>2026-04-18T13:11:05.983Z</time></trkpt><trkpt lat="44.8049345" lon="9.4735259"><ele>500.0</ele><time>2026-04-18T13:11:06.983Z</time></trkpt><trkpt lat="44.80495" lon="9.4736433"><ele>500.0</ele><time>2026-04-18T13:11:07.985Z</time></trkpt><trkpt lat="44.8049567" lon="9.4737517"><ele>499.99999999999994</ele><time>2026-04-18T13:11:08.984Z</time></trkpt><trkpt lat="44.8049533" lon="9.4738617"><ele>500.0</ele><time>2026-04-18T13:11:09.984Z</time></trkpt><trkpt lat="44.8049283" lon="9.4739683"><ele>499.16666666666663</ele><time>2026-04-18T13:11:10.983Z</time></trkpt><trkpt lat="44.8049" lon="9.47407"><ele>498.3333333333333</ele><time>2026-04-18T13:11:11.983Z</time></trkpt><trkpt lat="44.8048817" lon="9.4741683"><ele>497.5</ele><time>2026-04-18T13:11:12.983Z</time></trkpt><trkpt lat="44.8049117" lon="9.474345"><ele>496.66666666666663</ele><time>2026-04-18T13:11:14.985Z</time></trkpt><trkpt lat="44.8049533" lon="9.4744367"><ele>495.8333333333333</ele><time>2026-04-18T13:11:15.985Z</time></trkpt><trkpt lat="44.804995" lon="9.4745367"><ele>495.0</ele><time>2026-04-18T13:11:16.983Z</time></trkpt><trkpt lat="44.805035" lon="9.474655"><ele>494.4</ele><time>2026-04-18T13:11:17.983Z</time></trkpt><trkpt lat="44.8050567" lon="9.474785"><ele>493.8</ele><time>2026-04-18T13:11:18.985Z</time></trkpt><trkpt lat="44.80506" lon="9.47491"><ele>493.20000000000005</ele><time>2026-04-18T13:11:19.984Z</time></trkpt><trkpt lat="44.805055" lon="9.475035"><ele>492.6</ele><time>2026-04-18T13:11:20.986Z</time></trkpt><trkpt lat="44.8050367" lon="9.4751567"><ele>492.0</ele><time>2026-04-18T13:11:21.984Z</time></trkpt><trkpt lat="44.8049967" lon="9.475275"><ele>492.0</ele><time>2026-04-18T13:11:22.984Z</time></trkpt><trkpt lat="44.8049467" lon="9.4753883"><ele>492.00000000000006</ele><time>2026-04-18T13:11:23.983Z</time></trkpt><trkpt lat="44.8048883" lon="9.475525"><ele>492.00000000000006</ele><time>2026-04-18T13:11:24.984Z</time></trkpt><trkpt lat="44.8048167" lon="9.475675"><ele>492.0</ele><time>2026-04-18T13:11:25.985Z</time></trkpt><trkpt lat="44.804765" lon="9.4758083"><ele>492.0</ele><time>2026-04-18T13:11:26.985Z</time></trkpt><trkpt lat="44.8047167" lon="9.4759417"><ele>490.0</ele><time>2026-04-18T13:11:27.985Z</time></trkpt><trkpt lat="44.8046533" lon="9.4760817"><ele>488.0</ele><time>2026-04-18T13:11:28.984Z</time></trkpt><trkpt lat="44.8045733" lon="9.4762467"><ele>486.0</ele><time>2026-04-18T13:11:29.983Z</time></trkpt><trkpt lat="44.8044867" lon="9.47641"><ele>484.0</ele><time>2026-04-18T13:11:30.983Z</time></trkpt><trkpt lat="44.80441" lon="9.4765617"><ele>483.0</ele><time>2026-04-18T13:11:31.982Z</time></trkpt><trkpt lat="44.8043517" lon="9.4766883"><ele>482.0</ele><time>2026-04-18T13:11:32.983Z</time></trkpt><trkpt lat="44.80431" lon="9.4767833"><ele>481.0</ele><time>2026-04-18T13:11:33.982Z</time></trkpt><trkpt lat="44.80427" lon="9.47686"><ele>480.0</ele><time>2026-04-18T13:11:34.983Z</time></trkpt><trkpt lat="44.8042417" lon="9.47701"><ele>479.0</ele><time>2026-04-18T13:11:47.983Z</time></trkpt><trkpt lat="44.8042733" lon="9.477155"><ele>479.49999999999994</ele><time>2026-04-18T13:11:49.983Z</time></trkpt><trkpt lat="44.804305" lon="9.4772383"><ele>480.0</ele><time>2026-04-18T13:11:50.982Z</time></trkpt><trkpt lat="44.804345" lon="9.4773167"><ele>480.5</ele><time>2026-04-18T13:11:51.983Z</time></trkpt><trkpt lat="44.8043917" lon="9.47739"><ele>481.0</ele><time>2026-04-18T13:11:52.983Z</time></trkpt><trkpt lat="44.8044383" lon="9.47746"><ele>481.49999999999994</ele><time>2026-04-18T13:11:53.983Z</time></trkpt><trkpt lat="44.8044867" lon="9.4775317"><ele>482.0</ele><time>2026-04-18T13:11:54.983Z</time></trkpt><trkpt lat="44.8045767" lon="9.4776467"><ele>481.99999999999994</ele><time>2026-04-18T13:11:56.983Z</time></trkpt><trkpt lat="44.8046667" lon="9.47777"><ele>482.0</ele><time>2026-04-18T13:11:58.983Z</time></trkpt><trkpt lat="44.8047083" lon="9.4778417"><ele>482.0</ele><time>2026-04-18T13:11:59.983Z</time></trkpt><trkpt lat="44.8047667" lon="9.4779233"><ele>482.0</ele><time>2026-04-18T13:12:00.985Z</time></trkpt><trkpt lat="44.80483" lon="9.478005"><ele>481.99999999999994</ele><time>2026-04-18T13:12:01.983Z</time></trkpt><trkpt lat="44.804905" lon="9.478075"><ele>482.0</ele><time>2026-04-18T13:12:02.984Z</time></trkpt><trkpt lat="44.8049783" lon="9.47813"><ele>482.8</ele><time>2026-04-18T13:12:03.983Z</time></trkpt><trkpt lat="44.8050517" lon="9.4781767"><ele>483.6</ele><time>2026-04-18T13:12:04.982Z</time></trkpt><trkpt lat="44.8051267" lon="9.47823"><ele>484.40000000000003</ele><time>2026-04-18T13:12:05.983Z</time></trkpt><trkpt lat="44.8052067" lon="9.478295"><ele>485.20000000000005</ele><time>2026-04-18T13:12:06.984Z</time></trkpt><trkpt lat="44.80529" lon="9.4783683"><ele>486.0</ele><time>2026-04-18T13:12:07.983Z</time></trkpt><trkpt lat="44.805375" lon="9.4784433"><ele>486.0</ele><time>2026-04-18T13:12:08.984Z</time></trkpt><trkpt lat="44.80545" lon="9.4785167"><ele>486.0</ele><time>2026-04-18T13:12:09.983Z</time></trkpt><trkpt lat="44.8055167" lon="9.4786017"><ele>486.0</ele><time>2026-04-18T13:12:10.983Z</time></trkpt><trkpt lat="44.8055617" lon="9.4786917"><ele>486.0</ele><time>2026-04-18T13:12:11.984Z</time></trkpt><trkpt lat="44.8056033" lon="9.4788"><ele>486.0</ele><time>2026-04-18T13:12:12.983Z</time></trkpt><trkpt lat="44.80564" lon="9.4789133"><ele>486.0</ele><time>2026-04-18T13:12:13.982Z</time></trkpt><trkpt lat="44.805685" lon="9.4790317"><ele>485.6666666666667</ele><time>2026-04-18T13:12:14.984Z</time></trkpt><trkpt lat="44.8057333" lon="9.4791517"><ele>485.33333333333337</ele><time>2026-04-18T13:12:15.983Z</time></trkpt><trkpt lat="44.8057767" lon="9.47926"><ele>485.0</ele><time>2026-04-18T13:12:16.983Z</time></trkpt><trkpt lat="44.8058083" lon="9.4793567"><ele>484.6666666666667</ele><time>2026-04-18T13:12:17.982Z</time></trkpt><trkpt lat="44.8058333" lon="9.47945"><ele>484.33333333333337</ele><time>2026-04-18T13:12:18.984Z</time></trkpt><trkpt lat="44.805855" lon="9.47954"><ele>484.0</ele><time>2026-04-18T13:12:19.984Z</time></trkpt><trkpt lat="44.80587" lon="9.4796367"><ele>483.0</ele><time>2026-04-18T13:12:20.983Z</time></trkpt><trkpt lat="44.8058717" lon="9.4797433"><ele>481.99999999999994</ele><time>2026-04-18T13:12:21.983Z</time></trkpt><trkpt lat="44.805865" lon="9.479845"><ele>481.0</ele><time>2026-04-18T13:12:22.983Z</time></trkpt><trkpt lat="44.8058583" lon="9.4799433"><ele>480.0</ele><time>2026-04-18T13:12:23.984Z</time></trkpt><trkpt lat="44.80585" lon="9.480035"><ele>478.99999999999994</ele><time>2026-04-18T13:12:24.983Z</time></trkpt><trkpt lat="44.80584" lon="9.48013"><ele>478.0</ele><time>2026-04-18T13:12:25.983Z</time></trkpt><trkpt lat="44.8058333" lon="9.4802217"><ele>477.0</ele><time>2026-04-18T13:12:26.983Z</time></trkpt><trkpt lat="44.80583" lon="9.4804017"><ele>476.0</ele><time>2026-04-18T13:12:28.983Z</time></trkpt><trkpt lat="44.8058333" lon="9.4805"><ele>474.99999999999994</ele><time>2026-04-18T13:12:29.983Z</time></trkpt><trkpt lat="44.805845" lon="9.480595"><ele>474.0</ele><time>2026-04-18T13:12:30.983Z</time></trkpt><trkpt lat="44.80586" lon="9.48069"><ele>473.0</ele><time>2026-04-18T13:12:31.983Z</time></trkpt><trkpt lat="44.8058817" lon="9.4807867"><ele>471.99999999999994</ele><time>2026-04-18T13:12:32.984Z</time></trkpt><trkpt lat="44.805905" lon="9.4808833"><ele>471.0</ele><time>2026-04-18T13:12:33.983Z</time></trkpt><trkpt lat="44.8059267" lon="9.4809833"><ele>470.0</ele><time>2026-04-18T13:12:34.984Z</time></trkpt><trkpt lat="44.805945" lon="9.4810833"><ele>469.99999999999994</ele><time>2026-04-18T13:12:35.983Z</time></trkpt><trkpt lat="44.8059717" lon="9.4811783"><ele>470.0</ele><time>2026-04-18T13:12:36.982Z</time></trkpt><trkpt lat="44.8059967" lon="9.4812667"><ele>470.0</ele><time>2026-04-18T13:12:37.984Z</time></trkpt><trkpt lat="44.8060217" lon="9.4813483"><ele>470.0</ele><time>2026-04-18T13:12:38.984Z</time></trkpt><trkpt lat="44.806035" lon="9.4814783"><ele>469.99999999999994</ele><time>2026-04-18T13:12:40.983Z</time></trkpt><trkpt lat="44.80599" lon="9.4815967"><ele>470.0</ele><time>2026-04-18T13:12:42.985Z</time></trkpt><trkpt lat="44.8059333" lon="9.4816667"><ele>468.16666666666663</ele><time>2026-04-18T13:12:43.982Z</time></trkpt><trkpt lat="44.80587" lon="9.4817433"><ele>466.3333333333333</ele><time>2026-04-18T13:12:44.983Z</time></trkpt><trkpt lat="44.8058083" lon="9.4818267"><ele>464.5</ele><time>2026-04-18T13:12:45.983Z</time></trkpt><trkpt lat="44.805745" lon="9.481905"><ele>462.66666666666663</ele><time>2026-04-18T13:12:46.983Z</time></trkpt><trkpt lat="44.8056783" lon="9.4819783"><ele>460.8333333333333</ele><time>2026-04-18T13:12:47.983Z</time></trkpt><trkpt lat="44.8056083" lon="9.4820533"><ele>459.0</ele><time>2026-04-18T13:12:48.984Z</time></trkpt><trkpt lat="44.80553" lon="9.4821317"><ele>458.0</ele><time>2026-04-18T13:12:49.984Z</time></trkpt><trkpt lat="44.8054433" lon="9.4822167"><ele>457.0</ele><time>2026-04-18T13:12:50.984Z</time></trkpt><trkpt lat="44.8053517" lon="9.4823067"><ele>456.0</ele><time>2026-04-18T13:12:51.983Z</time></trkpt><trkpt lat="44.80526" lon="9.4823883"><ele>455.0</ele><time>2026-04-18T13:12:52.984Z</time></trkpt><trkpt lat="44.805175" lon="9.48246"><ele>454.0</ele><time>2026-04-18T13:12:53.983Z</time></trkpt><trkpt lat="44.8050933" lon="9.48253"><ele>454.00000000000006</ele><time>2026-04-18T13:12:54.984Z</time></trkpt><trkpt lat="44.8050217" lon="9.48261"><ele>454.0</ele><time>2026-04-18T13:12:55.983Z</time></trkpt><trkpt lat="44.80496" lon="9.482695"><ele>454.0</ele><time>2026-04-18T13:12:56.986Z</time></trkpt><trkpt lat="44.8049017" lon="9.48278"><ele>454.0</ele><time>2026-04-18T13:12:57.984Z</time></trkpt><trkpt lat="44.8048417" lon="9.4828683"><ele>454.00000000000006</ele><time>2026-04-18T13:12:58.983Z</time></trkpt><trkpt lat="44.80479" lon="9.4829667"><ele>454.0</ele><time>2026-04-18T13:12:59.983Z</time></trkpt><trkpt lat="44.8047417" lon="9.48306"><ele>450.79999999999995</ele><time>2026-04-18T13:13:00.984Z</time></trkpt><trkpt lat="44.8047017" lon="9.4831483"><ele>447.59999999999997</ele><time>2026-04-18T13:13:01.983Z</time></trkpt><trkpt lat="44.8046717" lon="9.4832267"><ele>444.4</ele><time>2026-04-18T13:13:02.984Z</time></trkpt><trkpt lat="44.80466" lon="9.48338"><ele>441.2</ele><time>2026-04-18T13:13:04.984Z</time></trkpt><trkpt lat="44.8047283" lon="9.4835067"><ele>438.0</ele><time>2026-04-18T13:13:06.986Z</time></trkpt><trkpt lat="44.8047833" lon="9.4836383"><ele>438.0</ele><time>2026-04-18T13:13:08.986Z</time></trkpt><trkpt lat="44.8047417" lon="9.483755"><ele>438.0</ele><time>2026-04-18T13:13:10.983Z</time></trkpt><trkpt lat="44.8046833" lon="9.4838267"><ele>438.0</ele><time>2026-04-18T13:13:11.982Z</time></trkpt><trkpt lat="44.8046183" lon="9.4839083"><ele>438.0</ele><time>2026-04-18T13:13:12.983Z</time></trkpt><trkpt lat="44.804555" lon="9.4839883"><ele>438.0</ele><time>2026-04-18T13:13:13.983Z</time></trkpt><trkpt lat="44.8044917" lon="9.4840617"><ele>438.0</ele><time>2026-04-18T13:13:14.984Z</time></trkpt><trkpt lat="44.8044417" lon="9.4841333"><ele>439.3333333333333</ele><time>2026-04-18T13:13:15.984Z</time></trkpt><trkpt lat="44.804385" lon="9.48422"><ele>440.66666666666663</ele><time>2026-04-18T13:13:16.984Z</time></trkpt><trkpt lat="44.804335" lon="9.4843083"><ele>442.0</ele><time>2026-04-18T13:13:17.984Z</time></trkpt><trkpt lat="44.8043017" lon="9.4843933"><ele>443.3333333333333</ele><time>2026-04-18T13:13:18.983Z</time></trkpt><trkpt lat="44.8042767" lon="9.4844833"><ele>444.66666666666663</ele><time>2026-04-18T13:13:19.984Z</time></trkpt><trkpt lat="44.8042433" lon="9.48458"><ele>446.0</ele><time>2026-04-18T13:13:20.984Z</time></trkpt><trkpt lat="44.8042033" lon="9.48467"><ele>442.66666666666663</ele><time>2026-04-18T13:13:21.983Z</time></trkpt><trkpt lat="44.804165" lon="9.4847533"><ele>439.3333333333333</ele><time>2026-04-18T13:13:22.984Z</time></trkpt><trkpt lat="44.8041167" lon="9.484835"><ele>436.0</ele><time>2026-04-18T13:13:23.985Z</time></trkpt><trkpt lat="44.8040683" lon="9.4849083"><ele>432.66666666666663</ele><time>2026-04-18T13:13:24.984Z</time></trkpt><trkpt lat="44.804015" lon="9.4849867"><ele>429.3333333333333</ele><time>2026-04-18T13:13:25.983Z</time></trkpt><trkpt lat="44.80395" lon="9.4850617"><ele>426.0</ele><time>2026-04-18T13:13:26.984Z</time></trkpt><trkpt lat="44.803875" lon="9.4851383"><ele>426.0</ele><time>2026-04-18T13:13:27.984Z</time></trkpt><trkpt lat="44.8037967" lon="9.48521"><ele>426.0</ele><time>2026-04-18T13:13:28.983Z</time></trkpt><trkpt lat="44.803725" lon="9.4852833"><ele>426.0</ele><time>2026-04-18T13:13:29.984Z</time></trkpt><trkpt lat="44.8036567" lon="9.48537"><ele>426.0</ele><time>2026-04-18T13:13:30.984Z</time></trkpt><trkpt lat="44.8035967" lon="9.485455"><ele>426.0</ele><time>2026-04-18T13:13:31.983Z</time></trkpt><trkpt lat="44.80354" lon="9.4855367"><ele>426.0</ele><time>2026-04-18T13:13:32.984Z</time></trkpt><trkpt lat="44.8034767" lon="9.4856017"><ele>424.4285714285714</ele><time>2026-04-18T13:13:33.983Z</time></trkpt><trkpt lat="44.8034133" lon="9.4856467"><ele>422.85714285714283</ele><time>2026-04-18T13:13:34.982Z</time></trkpt><trkpt lat="44.8033383" lon="9.4856867"><ele>421.2857142857143</ele><time>2026-04-18T13:13:35.984Z</time></trkpt><trkpt lat="44.8032683" lon="9.485725"><ele>419.71428571428567</ele><time>2026-04-18T13:13:36.983Z</time></trkpt><trkpt lat="44.8032083" lon="9.48578"><ele>418.14285714285717</ele><time>2026-04-18T13:13:37.983Z</time></trkpt><trkpt lat="44.8031533" lon="9.4858517"><ele>416.57142857142856</ele><time>2026-04-18T13:13:38.984Z</time></trkpt><trkpt lat="44.8031017" lon="9.4859267"><ele>415.0</ele><time>2026-04-18T13:13:39.984Z</time></trkpt><trkpt lat="44.8030467" lon="9.48598"><ele>415.00000000000006</ele><time>2026-04-18T13:13:40.984Z</time></trkpt><trkpt lat="44.8029867" lon="9.48602"><ele>415.0</ele><time>2026-04-18T13:13:41.983Z</time></trkpt><trkpt lat="44.8029233" lon="9.486055"><ele>415.0</ele><time>2026-04-18T13:13:42.982Z</time></trkpt><trkpt lat="44.8028133" lon="9.4861383"><ele>415.0</ele><time>2026-04-18T13:13:44.983Z</time></trkpt><trkpt lat="44.8027717" lon="9.486205"><ele>415.00000000000006</ele><time>2026-04-18T13:13:45.983Z</time></trkpt><trkpt lat="44.8027367" lon="9.486345"><ele>415.0</ele><time>2026-04-18T13:13:47.984Z</time></trkpt><trkpt lat="44.8027567" lon="9.4864967"><ele>414.4</ele><time>2026-04-18T13:13:49.984Z</time></trkpt><trkpt lat="44.802815" lon="9.4866033"><ele>413.8</ele><time>2026-04-18T13:13:51.984Z</time></trkpt><trkpt lat="44.8029117" lon="9.48669"><ele>413.20000000000005</ele><time>2026-04-18T13:13:53.984Z</time></trkpt><trkpt lat="44.8030067" lon="9.4867317"><ele>412.6</ele><time>2026-04-18T13:13:54.984Z</time></trkpt><trkpt lat="44.8031" lon="9.48679"><ele>412.0</ele><time>2026-04-18T13:13:55.983Z</time></trkpt><trkpt lat="44.8031983" lon="9.4868633"><ele>412.0</ele><time>2026-04-18T13:13:56.984Z</time></trkpt><trkpt lat="44.8032967" lon="9.486925"><ele>412.0</ele><time>2026-04-18T13:13:57.983Z</time></trkpt><trkpt lat="44.8034083" lon="9.486995"><ele>412.0</ele><time>2026-04-18T13:13:58.984Z</time></trkpt><trkpt lat="44.803515" lon="9.4870433"><ele>412.0</ele><time>2026-04-18T13:13:59.984Z</time></trkpt><trkpt lat="44.803615" lon="9.4870967"><ele>412.0</ele><time>2026-04-18T13:14:00.984Z</time></trkpt><trkpt lat="44.8037067" lon="9.48716"><ele>413.0</ele><time>2026-04-18T13:14:01.983Z</time></trkpt><trkpt lat="44.8038133" lon="9.4872433"><ele>414.0</ele><time>2026-04-18T13:14:02.984Z</time></trkpt><trkpt lat="44.8039083" lon="9.487315"><ele>415.0</ele><time>2026-04-18T13:14:03.985Z</time></trkpt><trkpt lat="44.804" lon="9.487375"><ele>416.0</ele><time>2026-04-18T13:14:04.985Z</time></trkpt><trkpt lat="44.80408" lon="9.4874183"><ele>417.0</ele><time>2026-04-18T13:14:05.984Z</time></trkpt><trkpt lat="44.8041617" lon="9.4874583"><ele>417.0</ele><time>2026-04-18T13:14:06.984Z</time></trkpt><trkpt lat="44.804245" lon="9.4874767"><ele>417.0</ele><time>2026-04-18T13:14:07.984Z</time></trkpt><trkpt lat="44.8043367" lon="9.4874683"><ele>417.0</ele><time>2026-04-18T13:14:08.984Z</time></trkpt><trkpt lat="44.80442" lon="9.4874367"><ele>417.0</ele><time>2026-04-18T13:14:09.983Z</time></trkpt><trkpt lat="44.8045033" lon="9.4874167"><ele>417.0</ele><time>2026-04-18T13:14:10.983Z</time></trkpt><trkpt lat="44.8045817" lon="9.487405"><ele>417.0</ele><time>2026-04-18T13:14:11.983Z</time></trkpt><trkpt lat="44.80465" lon="9.4874083"><ele>415.3333333333333</ele><time>2026-04-18T13:14:12.984Z</time></trkpt><trkpt lat="44.8047317" lon="9.487445"><ele>413.66666666666663</ele><time>2026-04-18T13:14:13.984Z</time></trkpt><trkpt lat="44.8048167" lon="9.4875033"><ele>412.0</ele><time>2026-04-18T13:14:14.983Z</time></trkpt><trkpt lat="44.8048833" lon="9.4875817"><ele>410.3333333333333</ele><time>2026-04-18T13:14:15.983Z</time></trkpt><trkpt lat="44.8049367" lon="9.487655"><ele>408.66666666666663</ele><time>2026-04-18T13:14:16.984Z</time></trkpt><trkpt lat="44.8049833" lon="9.4877517"><ele>407.0</ele><time>2026-04-18T13:14:18.983Z</time></trkpt><trkpt lat="44.8050517" lon="9.4878067"><ele>406.99999999999994</ele><time>2026-04-18T13:14:27.983Z</time></trkpt><trkpt lat="44.8051167" lon="9.4878317"><ele>407.0</ele><time>2026-04-18T13:14:28.983Z</time></trkpt><trkpt lat="44.8051833" lon="9.4878517"><ele>407.0</ele><time>2026-04-18T13:14:29.982Z</time></trkpt><trkpt lat="44.8052567" lon="9.4878583"><ele>407.0</ele><time>2026-04-18T13:14:30.985Z</time></trkpt><trkpt lat="44.8053383" lon="9.487845"><ele>406.99999999999994</ele><time>2026-04-18T13:14:31.983Z</time></trkpt><trkpt lat="44.8054233" lon="9.4878283"><ele>407.0</ele><time>2026-04-18T13:14:32.983Z</time></trkpt><trkpt lat="44.8055083" lon="9.4878217"><ele>405.49999999999994</ele><time>2026-04-18T13:14:33.984Z</time></trkpt><trkpt lat="44.805585" lon="9.4878167"><ele>404.0</ele><time>2026-04-18T13:14:34.983Z</time></trkpt><trkpt lat="44.8056633" lon="9.4878283"><ele>402.5</ele><time>2026-04-18T13:14:35.984Z</time></trkpt><trkpt lat="44.805745" lon="9.487855"><ele>401.0</ele><time>2026-04-18T13:14:36.984Z</time></trkpt><trkpt lat="44.8058233" lon="9.4878867"><ele>399.49999999999994</ele><time>2026-04-18T13:14:37.983Z</time></trkpt><trkpt lat="44.80591" lon="9.4879333"><ele>398.0</ele><time>2026-04-18T13:14:38.983Z</time></trkpt><trkpt lat="44.8059933" lon="9.4879833"><ele>396.3333333333333</ele><time>2026-04-18T13:14:39.986Z</time></trkpt><trkpt lat="44.8060733" lon="9.4880383"><ele>394.66666666666663</ele><time>2026-04-18T13:14:40.984Z</time></trkpt><trkpt lat="44.8061467" lon="9.48809"><ele>393.0</ele><time>2026-04-18T13:14:41.984Z</time></trkpt><trkpt lat="44.8062183" lon="9.4881233"><ele>391.33333333333337</ele><time>2026-04-18T13:14:42.984Z</time></trkpt><trkpt lat="44.8062867" lon="9.4881433"><ele>389.6666666666667</ele><time>2026-04-18T13:14:43.982Z</time></trkpt><trkpt lat="44.8063667" lon="9.4881417"><ele>388.0</ele><time>2026-04-18T13:14:44.984Z</time></trkpt><trkpt lat="44.8064417" lon="9.4881217"><ele>388.00000000000006</ele><time>2026-04-18T13:14:45.984Z</time></trkpt><trkpt lat="44.8065183" lon="9.4880933"><ele>388.0</ele><time>2026-04-18T13:14:46.983Z</time></trkpt><trkpt lat="44.8065917" lon="9.4880633"><ele>388.0</ele><time>2026-04-18T13:14:47.983Z</time></trkpt><trkpt lat="44.806665" lon="9.48803"><ele>388.0</ele><time>2026-04-18T13:14:48.983Z</time></trkpt><trkpt lat="44.8067417" lon="9.4880017"><ele>388.00000000000006</ele><time>2026-04-18T13:14:49.983Z</time></trkpt><trkpt lat="44.80682" lon="9.48799"><ele>388.0</ele><time>2026-04-18T13:14:50.984Z</time></trkpt><trkpt lat="44.806905" lon="9.4879983"><ele>386.1666666666667</ele><time>2026-04-18T13:14:51.983Z</time></trkpt><trkpt lat="44.8069883" lon="9.48802"><ele>384.33333333333337</ele><time>2026-04-18T13:14:52.983Z</time></trkpt><trkpt lat="44.8070717" lon="9.4880433"><ele>382.5</ele><time>2026-04-18T13:14:53.983Z</time></trkpt><trkpt lat="44.8071533" lon="9.4880767"><ele>380.6666666666667</ele><time>2026-04-18T13:14:54.984Z</time></trkpt><trkpt lat="44.8072417" lon="9.4881283"><ele>378.83333333333337</ele><time>2026-04-18T13:14:55.983Z</time></trkpt><trkpt lat="44.8073267" lon="9.48819"><ele>377.0</ele><time>2026-04-18T13:14:56.983Z</time></trkpt><trkpt lat="44.8074" lon="9.4882583"><ele>377.0</ele><time>2026-04-18T13:14:57.984Z</time></trkpt><trkpt lat="44.8074683" lon="9.4883367"><ele>377.0</ele><time>2026-04-18T13:14:58.983Z</time></trkpt><trkpt lat="44.8075267" lon="9.48842"><ele>377.0</ele><time>2026-04-18T13:14:59.985Z</time></trkpt><trkpt lat="44.8075733" lon="9.48851"><ele>377.0</ele><time>2026-04-18T13:15:00.983Z</time></trkpt><trkpt lat="44.8076033" lon="9.4886033"><ele>377.0</ele><time>2026-04-18T13:15:01.983Z</time></trkpt><trkpt lat="44.8076317" lon="9.4887017"><ele>377.0</ele><time>2026-04-18T13:15:02.984Z</time></trkpt><trkpt lat="44.8076633" lon="9.4887867"><ele>375.6</ele><time>2026-04-18T13:15:03.985Z</time></trkpt><trkpt lat="44.8077467" lon="9.4889083"><ele>374.20000000000005</ele><time>2026-04-18T13:15:05.984Z</time></trkpt><trkpt lat="44.8078267" lon="9.48897"><ele>372.8</ele><time>2026-04-18T13:15:07.984Z</time></trkpt><trkpt lat="44.8078683" lon="9.4890767"><ele>371.4</ele><time>2026-04-18T13:15:10.984Z</time></trkpt><trkpt lat="44.8078533" lon="9.4891833"><ele>370.0</ele><time>2026-04-18T13:15:12.984Z</time></trkpt><trkpt lat="44.8078533" lon="9.4893117"><ele>370.0</ele><time>2026-04-18T13:15:14.983Z</time></trkpt><trkpt lat="44.8078467" lon="9.4894533"><ele>370.0</ele><time>2026-04-18T13:15:16.983Z</time></trkpt><trkpt lat="44.8077983" lon="9.4895767"><ele>370.0</ele><time>2026-04-18T13:15:18.985Z</time></trkpt><trkpt lat="44.8077467" lon="9.4896367"><ele>370.0</ele><time>2026-04-18T13:15:19.985Z</time></trkpt><trkpt lat="44.8076733" lon="9.4897017"><ele>370.0</ele><time>2026-04-18T13:15:20.984Z</time></trkpt><trkpt lat="44.807595" lon="9.4897583"><ele>370.0</ele><time>2026-04-18T13:15:21.983Z</time></trkpt><trkpt lat="44.80751" lon="9.48981"><ele>371.6</ele><time>2026-04-18T13:15:22.983Z</time></trkpt><trkpt lat="44.8074233" lon="9.4898483"><ele>373.2</ele><time>2026-04-18T13:15:23.984Z</time></trkpt><trkpt lat="44.8073333" lon="9.489885"><ele>374.79999999999995</ele><time>2026-04-18T13:15:24.984Z</time></trkpt><trkpt lat="44.8072433" lon="9.4899183"><ele>376.4</ele><time>2026-04-18T13:15:25.984Z</time></trkpt><trkpt lat="44.807155" lon="9.48995"><ele>378.0</ele><time>2026-04-18T13:15:26.983Z</time></trkpt><trkpt lat="44.8070683" lon="9.4899867"><ele>378.0</ele><time>2026-04-18T13:15:27.983Z</time></trkpt><trkpt lat="44.8069917" lon="9.4900267"><ele>378.0</ele><time>2026-04-18T13:15:28.984Z</time></trkpt><trkpt lat="44.8069267" lon="9.4900717"><ele>378.0</ele><time>2026-04-18T13:15:29.983Z</time></trkpt><trkpt lat="44.8068733" lon="9.4901233"><ele>378.0</ele><time>2026-04-18T13:15:30.986Z</time></trkpt><trkpt lat="44.8068317" lon="9.490205"><ele>378.0</ele><time>2026-04-18T13:15:31.982Z</time></trkpt><trkpt lat="44.806795" lon="9.4903067"><ele>378.0</ele><time>2026-04-18T13:15:32.984Z</time></trkpt><trkpt lat="44.8067617" lon="9.490405"><ele>378.0</ele><time>2026-04-18T13:15:33.982Z</time></trkpt><trkpt lat="44.806725" lon="9.4905067"><ele>378.59999999999997</ele><time>2026-04-18T13:15:34.984Z</time></trkpt><trkpt lat="44.8066833" lon="9.4906117"><ele>379.2</ele><time>2026-04-18T13:15:35.983Z</time></trkpt><trkpt lat="44.806635" lon="9.49073"><ele>379.8</ele><time>2026-04-18T13:15:36.984Z</time></trkpt><trkpt lat="44.806585" lon="9.49084"><ele>380.4</ele><time>2026-04-18T13:15:37.982Z</time></trkpt><trkpt lat="44.8065317" lon="9.49095"><ele>381.0</ele><time>2026-04-18T13:15:38.984Z</time></trkpt><trkpt lat="44.80647" lon="9.4910533"><ele>381.0</ele><time>2026-04-18T13:15:39.984Z</time></trkpt><trkpt lat="44.8064133" lon="9.4911433"><ele>381.0</ele><time>2026-04-18T13:15:40.982Z</time></trkpt><trkpt lat="44.8063617" lon="9.4912267"><ele>381.0</ele><time>2026-04-18T13:15:41.983Z</time></trkpt><trkpt lat="44.8063167" lon="9.491305"><ele>381.0</ele><time>2026-04-18T13:15:42.984Z</time></trkpt><trkpt lat="44.8062717" lon="9.4913883"><ele>381.0</ele><time>2026-04-18T13:15:43.984Z</time></trkpt><trkpt lat="44.8062233" lon="9.4914833"><ele>381.0</ele><time>2026-04-18T13:15:44.985Z</time></trkpt><trkpt lat="44.806165" lon="9.4915683"><ele>381.0</ele><time>2026-04-18T13:15:45.983Z</time></trkpt><trkpt lat="44.8060983" lon="9.491635"><ele>381.0</ele><time>2026-04-18T13:15:46.983Z</time></trkpt><trkpt lat="44.8060267" lon="9.491685"><ele>381.0</ele><time>2026-04-18T13:15:47.983Z</time></trkpt><trkpt lat="44.8059533" lon="9.4917133"><ele>381.0</ele><time>2026-04-18T13:15:48.984Z</time></trkpt><trkpt lat="44.80588" lon="9.491715"><ele>381.0</ele><time>2026-04-18T13:15:49.983Z</time></trkpt><trkpt lat="44.8058" lon="9.4916883"><ele>381.0</ele><time>2026-04-18T13:15:50.985Z</time></trkpt><trkpt lat="44.8057283" lon="9.4916367"><ele>381.0</ele><time>2026-04-18T13:15:51.984Z</time></trkpt><trkpt lat="44.8056583" lon="9.4915583"><ele>381.0</ele><time>2026-04-18T13:15:52.984Z</time></trkpt><trkpt lat="44.805605" lon="9.4914833"><ele>381.0</ele><time>2026-04-18T13:15:53.983Z</time></trkpt><trkpt lat="44.8055433" lon="9.4914167"><ele>381.0</ele><time>2026-04-18T13:15:54.983Z</time></trkpt><trkpt lat="44.8054617" lon="9.4913517"><ele>381.0</ele><time>2026-04-18T13:15:55.983Z</time></trkpt><trkpt lat="44.8053383" lon="9.491305"><ele>381.0</ele><time>2026-04-18T13:15:57.984Z</time></trkpt><trkpt lat="44.805215" lon="9.4913633"><ele>381.0</ele><time>2026-04-18T13:15:59.985Z</time></trkpt><trkpt lat="44.80514" lon="9.4914033"><ele>381.0</ele><time>2026-04-18T13:16:00.984Z</time></trkpt><trkpt lat="44.8050683" lon="9.4914517"><ele>381.0</ele><time>2026-04-18T13:16:01.983Z</time></trkpt><trkpt lat="44.8050067" lon="9.4914883"><ele>381.0</ele><time>2026-04-18T13:16:02.984Z</time></trkpt><trkpt lat="44.804945" lon="9.4915317"><ele>381.0</ele><time>2026-04-18T13:16:03.984Z</time></trkpt><trkpt lat="44.8048583" lon="9.491605"><ele>383.0</ele><time>2026-04-18T13:16:05.984Z</time></trkpt><trkpt lat="44.8048417" lon="9.4917517"><ele>385.0</ele><time>2026-04-18T13:16:14.984Z</time></trkpt><trkpt lat="44.8048633" lon="9.491885"><ele>387.0</ele><time>2026-04-18T13:16:16.984Z</time></trkpt><trkpt lat="44.8049133" lon="9.492025"><ele>389.0</ele><time>2026-04-18T13:16:18.985Z</time></trkpt><trkpt lat="44.80501" lon="9.4920817"><ele>391.0</ele><time>2026-04-18T13:16:20.985Z</time></trkpt><trkpt lat="44.8050883" lon="9.4921067"><ele>390.0</ele><time>2026-04-18T13:16:21.985Z</time></trkpt><trkpt lat="44.8051733" lon="9.4921517"><ele>389.0</ele><time>2026-04-18T13:16:22.986Z</time></trkpt><trkpt lat="44.805255" lon="9.4921983"><ele>388.0</ele><time>2026-04-18T13:16:23.985Z</time></trkpt><trkpt lat="44.8053433" lon="9.4922517"><ele>387.0</ele><time>2026-04-18T13:16:24.985Z</time></trkpt><trkpt lat="44.8054283" lon="9.4923067"><ele>386.0</ele><time>2026-04-18T13:16:25.984Z</time></trkpt><trkpt lat="44.8055033" lon="9.4923633"><ele>386.00000000000006</ele><time>2026-04-18T13:16:26.985Z</time></trkpt><trkpt lat="44.8055683" lon="9.4924283"><ele>386.0</ele><time>2026-04-18T13:16:27.984Z</time></trkpt><trkpt lat="44.805625" lon="9.4925017"><ele>386.0</ele><time>2026-04-18T13:16:28.984Z</time></trkpt><trkpt lat="44.8056733" lon="9.4925783"><ele>386.0</ele><time>2026-04-18T13:16:29.985Z</time></trkpt><trkpt lat="44.8057183" lon="9.492645"><ele>386.0</ele><time>2026-04-18T13:16:30.986Z</time></trkpt><trkpt lat="44.8057717" lon="9.4927033"><ele>386.00000000000006</ele><time>2026-04-18T13:16:31.986Z</time></trkpt><trkpt lat="44.8058217" lon="9.4927633"><ele>386.0</ele><time>2026-04-18T13:16:32.986Z</time></trkpt><trkpt lat="44.8058817" lon="9.4928433"><ele>385.8333333333333</ele><time>2026-04-18T13:16:33.984Z</time></trkpt><trkpt lat="44.8059517" lon="9.492925"><ele>385.66666666666663</ele><time>2026-04-18T13:16:34.985Z</time></trkpt><trkpt lat="44.8060167" lon="9.4929933"><ele>385.5</ele><time>2026-04-18T13:16:35.985Z</time></trkpt><trkpt lat="44.8060817" lon="9.4930567"><ele>385.33333333333337</ele><time>2026-04-18T13:16:36.984Z</time></trkpt><trkpt lat="44.80615" lon="9.4931133"><ele>385.1666666666667</ele><time>2026-04-18T13:16:37.985Z</time></trkpt><trkpt lat="44.80623" lon="9.4931667"><ele>385.0</ele><time>2026-04-18T13:16:38.986Z</time></trkpt><trkpt lat="44.8063067" lon="9.4932083"><ele>385.0</ele><time>2026-04-18T13:16:39.984Z</time></trkpt><trkpt lat="44.806395" lon="9.4932433"><ele>385.0</ele><time>2026-04-18T13:16:40.983Z</time></trkpt><trkpt lat="44.80649" lon="9.4932733"><ele>385.0</ele><time>2026-04-18T13:16:41.984Z</time></trkpt><trkpt lat="44.8065783" lon="9.493315"><ele>385.0</ele><time>2026-04-18T13:16:42.983Z</time></trkpt><trkpt lat="44.8066617" lon="9.4933683"><ele>385.0</ele><time>2026-04-18T13:16:43.985Z</time></trkpt><trkpt lat="44.8067333" lon="9.4934383"><ele>385.00000000000006</ele><time>2026-04-18T13:16:44.987Z</time></trkpt><trkpt lat="44.8068033" lon="9.4935167"><ele>385.0</ele><time>2026-04-18T13:16:45.984Z</time></trkpt><trkpt lat="44.8068617" lon="9.493615"><ele>385.0</ele><time>2026-04-18T13:16:46.983Z</time></trkpt><trkpt lat="44.806915" lon="9.493705"><ele>385.0</ele><time>2026-04-18T13:16:47.985Z</time></trkpt><trkpt lat="44.806965" lon="9.493785"><ele>385.00000000000006</ele><time>2026-04-18T13:16:48.985Z</time></trkpt><trkpt lat="44.8070017" lon="9.49386"><ele>385.0</ele><time>2026-04-18T13:16:49.984Z</time></trkpt><trkpt lat="44.8070483" lon="9.4940083"><ele>384.83333333333337</ele><time>2026-04-18T13:16:51.984Z</time></trkpt><trkpt lat="44.8071017" lon="9.4941733"><ele>384.6666666666667</ele><time>2026-04-18T13:16:53.983Z</time></trkpt><trkpt lat="44.8071367" lon="9.49426"><ele>384.5</ele><time>2026-04-18T13:16:54.984Z</time></trkpt><trkpt lat="44.8071667" lon="9.4943483"><ele>384.33333333333337</ele><time>2026-04-18T13:16:55.983Z</time></trkpt><trkpt lat="44.80721" lon="9.4944433"><ele>384.1666666666667</ele><time>2026-04-18T13:16:56.983Z</time></trkpt><trkpt lat="44.8072483" lon="9.4945433"><ele>384.0</ele><time>2026-04-18T13:16:57.984Z</time></trkpt><trkpt lat="44.8072867" lon="9.4946383"><ele>384.0</ele><time>2026-04-18T13:16:58.984Z</time></trkpt><trkpt lat="44.80732" lon="9.4947183"><ele>384.0</ele><time>2026-04-18T13:16:59.984Z</time></trkpt><trkpt lat="44.8073667" lon="9.4948283"><ele>384.0</ele><time>2026-04-18T13:17:01.985Z</time></trkpt><trkpt lat="44.8074183" lon="9.4949217"><ele>384.0</ele><time>2026-04-18T13:17:03.983Z</time></trkpt><trkpt lat="44.807465" lon="9.4950333"><ele>384.0</ele><time>2026-04-18T13:17:05.986Z</time></trkpt><trkpt lat="44.80752" lon="9.49519"><ele>384.0</ele><time>2026-04-18T13:17:07.984Z</time></trkpt><trkpt lat="44.807555" lon="9.4952767"><ele>384.0</ele><time>2026-04-18T13:17:08.986Z</time></trkpt><trkpt lat="44.8075933" lon="9.495365"><ele>384.0</ele><time>2026-04-18T13:17:09.984Z</time></trkpt><trkpt lat="44.807635" lon="9.4954617"><ele>384.0</ele><time>2026-04-18T13:17:10.984Z</time></trkpt><trkpt lat="44.807675" lon="9.4955633"><ele>384.0</ele><time>2026-04-18T13:17:11.985Z</time></trkpt><trkpt lat="44.8077183" lon="9.4956583"><ele>384.0</ele><time>2026-04-18T13:17:12.984Z</time></trkpt><trkpt lat="44.8077583" lon="9.4957433"><ele>382.4</ele><time>2026-04-18T13:17:13.984Z</time></trkpt><trkpt lat="44.8077933" lon="9.4958183"><ele>380.79999999999995</ele><time>2026-04-18T13:17:14.985Z</time></trkpt><trkpt lat="44.8078617" lon="9.4959617"><ele>379.20000000000005</ele><time>2026-04-18T13:17:16.984Z</time></trkpt><trkpt lat="44.8079133" lon="9.496015"><ele>377.6</ele><time>2026-04-18T13:17:17.984Z</time></trkpt><trkpt lat="44.8080517" lon="9.496075"><ele>376.0</ele><time>2026-04-18T13:17:19.983Z</time></trkpt><trkpt lat="44.80813" lon="9.4960967"><ele>376.0</ele><time>2026-04-18T13:17:20.984Z</time></trkpt><trkpt lat="44.808206" lon="9.4961192"><ele>376.0</ele><time>2026-04-18T13:17:21.985Z</time></trkpt><trkpt lat="44.8082834" lon="9.4961476"><ele>376.0</ele><time>2026-04-18T13:17:22.984Z</time></trkpt><trkpt lat="44.8083592" lon="9.4961828"><ele>376.0</ele><time>2026-04-18T13:17:23.984Z</time></trkpt><trkpt lat="44.8084399" lon="9.4962271"><ele>376.0</ele><time>2026-04-18T13:17:24.984Z</time></trkpt><trkpt lat="44.8085134" lon="9.4962732"><ele>376.0</ele><time>2026-04-18T13:17:25.984Z</time></trkpt><trkpt lat="44.8085745" lon="9.4963211"><ele>373.6</ele><time>2026-04-18T13:17:26.985Z</time></trkpt><trkpt lat="44.8086738" lon="9.4964182"><ele>371.20000000000005</ele><time>2026-04-18T13:17:28.985Z</time></trkpt><trkpt lat="44.8087693" lon="9.4965456"><ele>368.79999999999995</ele><time>2026-04-18T13:17:30.984Z</time></trkpt><trkpt lat="44.8088195" lon="9.4966148"><ele>366.4</ele><time>2026-04-18T13:17:31.985Z</time></trkpt><trkpt lat="44.8088735" lon="9.4966835"><ele>364.0</ele><time>2026-04-18T13:17:32.987Z</time></trkpt><trkpt lat="44.808928" lon="9.496754"><ele>364.0</ele><time>2026-04-18T13:17:33.984Z</time></trkpt><trkpt lat="44.8089855" lon="9.496825"><ele>364.0</ele><time>2026-04-18T13:17:34.983Z</time></trkpt><trkpt lat="44.8090399" lon="9.4968961"><ele>364.0</ele><time>2026-04-18T13:17:35.984Z</time></trkpt><trkpt lat="44.8090914" lon="9.4969677"><ele>364.0</ele><time>2026-04-18T13:17:36.985Z</time></trkpt><trkpt lat="44.8091402" lon="9.4970356"><ele>364.0</ele><time>2026-04-18T13:17:37.983Z</time></trkpt><trkpt lat="44.8092309" lon="9.4971136"><ele>364.0</ele><time>2026-04-18T13:17:39.986Z</time></trkpt><trkpt lat="44.809312" lon="9.4971886"><ele>362.5</ele><time>2026-04-18T13:17:41.984Z</time></trkpt><trkpt lat="44.8093958" lon="9.4973034"><ele>361.0</ele><time>2026-04-18T13:17:43.984Z</time></trkpt><trkpt lat="44.8094428" lon="9.4973735"><ele>359.5</ele><time>2026-04-18T13:17:44.985Z</time></trkpt><trkpt lat="44.8094887" lon="9.4974354"><ele>358.0</ele><time>2026-04-18T13:17:45.983Z</time></trkpt><trkpt lat="44.8095845" lon="9.4975212"><ele>356.5</ele><time>2026-04-18T13:17:47.984Z</time></trkpt><trkpt lat="44.8096435" lon="9.4975614"><ele>355.0</ele><time>2026-04-18T13:17:48.983Z</time></trkpt><trkpt lat="44.8097045" lon="9.4976"><ele>355.0</ele><time>2026-04-18T13:17:49.983Z</time></trkpt><trkpt lat="44.8097659" lon="9.4976379"><ele>355.0</ele><time>2026-04-18T13:17:50.983Z</time></trkpt><trkpt lat="44.8098318" lon="9.4976781"><ele>355.0</ele><time>2026-04-18T13:17:51.985Z</time></trkpt><trkpt lat="44.8099007" lon="9.4977181"><ele>355.0</ele><time>2026-04-18T13:17:52.983Z</time></trkpt><trkpt lat="44.8099684" lon="9.4977568"><ele>355.0</ele><time>2026-04-18T13:17:53.984Z</time></trkpt><trkpt lat="44.8100338" lon="9.4977978"><ele>355.0</ele><time>2026-04-18T13:17:54.983Z</time></trkpt><trkpt lat="44.8101012" lon="9.4978363"><ele>355.0</ele><time>2026-04-18T13:17:55.984Z</time></trkpt><trkpt lat="44.8101748" lon="9.4978731"><ele>355.6</ele><time>2026-04-18T13:17:56.984Z</time></trkpt><trkpt lat="44.8102557" lon="9.4979041"><ele>356.2</ele><time>2026-04-18T13:17:57.985Z</time></trkpt><trkpt lat="44.8103327" lon="9.4979367"><ele>356.79999999999995</ele><time>2026-04-18T13:17:58.984Z</time></trkpt><trkpt lat="44.8104116" lon="9.4979794"><ele>357.4</ele><time>2026-04-18T13:17:59.985Z</time></trkpt><trkpt lat="44.8105013" lon="9.4980325"><ele>358.0</ele><time>2026-04-18T13:18:00.985Z</time></trkpt><trkpt lat="44.8105984" lon="9.4980912"><ele>358.0</ele><time>2026-04-18T13:18:01.984Z</time></trkpt><trkpt lat="44.8106958" lon="9.4981532"><ele>358.0</ele><time>2026-04-18T13:18:02.984Z</time></trkpt><trkpt lat="44.8107861" lon="9.4982141"><ele>358.0</ele><time>2026-04-18T13:18:03.985Z</time></trkpt><trkpt lat="44.8108675" lon="9.4982672"><ele>358.0</ele><time>2026-04-18T13:18:04.988Z</time></trkpt><trkpt lat="44.8109393" lon="9.4983204"><ele>358.0</ele><time>2026-04-18T13:18:05.985Z</time></trkpt><trkpt lat="44.8110108" lon="9.4983849"><ele>355.79999999999995</ele><time>2026-04-18T13:18:06.985Z</time></trkpt><trkpt lat="44.8110957" lon="9.4984647"><ele>353.6</ele><time>2026-04-18T13:18:07.984Z</time></trkpt><trkpt lat="44.8111923" lon="9.4985385"><ele>351.4</ele><time>2026-04-18T13:18:08.985Z</time></trkpt><trkpt lat="44.811295" lon="9.4985983"><ele>349.20000000000005</ele><time>2026-04-18T13:18:09.985Z</time></trkpt><trkpt lat="44.8113967" lon="9.4986417"><ele>347.0</ele><time>2026-04-18T13:18:10.983Z</time></trkpt><trkpt lat="44.8115017" lon="9.4986633"><ele>347.0</ele><time>2026-04-18T13:18:11.985Z</time></trkpt><trkpt lat="44.8116083" lon="9.498685"><ele>347.0</ele><time>2026-04-18T13:18:12.983Z</time></trkpt><trkpt lat="44.8117067" lon="9.49872"><ele>347.0</ele><time>2026-04-18T13:18:13.986Z</time></trkpt><trkpt lat="44.8118" lon="9.4987617"><ele>347.0</ele><time>2026-04-18T13:18:14.985Z</time></trkpt><trkpt lat="44.811895" lon="9.49881"><ele>347.0</ele><time>2026-04-18T13:18:15.984Z</time></trkpt><trkpt lat="44.8119983" lon="9.4988583"><ele>348.0</ele><time>2026-04-18T13:18:16.983Z</time></trkpt><trkpt lat="44.8121067" lon="9.4989083"><ele>349.0</ele><time>2026-04-18T13:18:17.984Z</time></trkpt><trkpt lat="44.8122083" lon="9.4989517"><ele>350.0</ele><time>2026-04-18T13:18:18.984Z</time></trkpt><trkpt lat="44.8123033" lon="9.4989783"><ele>351.0</ele><time>2026-04-18T13:18:19.983Z</time></trkpt><trkpt lat="44.8123917" lon="9.498995"><ele>352.0</ele><time>2026-04-18T13:18:20.984Z</time></trkpt><trkpt lat="44.8124717" lon="9.4990083"><ele>352.0</ele><time>2026-04-18T13:18:21.984Z</time></trkpt><trkpt lat="44.8125433" lon="9.4990117"><ele>352.0</ele><time>2026-04-18T13:18:22.984Z</time></trkpt><trkpt lat="44.8126333" lon="9.4989917"><ele>352.0</ele><time>2026-04-18T13:18:24.983Z</time></trkpt><trkpt lat="44.81274" lon="9.4989583"><ele>352.0</ele><time>2026-04-18T13:19:02.984Z</time></trkpt><trkpt lat="44.8128467" lon="9.4989"><ele>352.0</ele><time>2026-04-18T13:19:04.985Z</time></trkpt><trkpt lat="44.8129083" lon="9.4988617"><ele>350.42857142857144</ele><time>2026-04-18T13:19:05.983Z</time></trkpt><trkpt lat="44.8129717" lon="9.4988267"><ele>348.85714285714283</ele><time>2026-04-18T13:19:06.983Z</time></trkpt><trkpt lat="44.8130317" lon="9.4987933"><ele>347.2857142857143</ele><time>2026-04-18T13:19:07.983Z</time></trkpt><trkpt lat="44.813095" lon="9.498765"><ele>345.7142857142857</ele><time>2026-04-18T13:19:08.985Z</time></trkpt><trkpt lat="44.81316" lon="9.4987417"><ele>344.14285714285717</ele><time>2026-04-18T13:19:09.983Z</time></trkpt><trkpt lat="44.8132317" lon="9.4987317"><ele>342.57142857142856</ele><time>2026-04-18T13:19:10.984Z</time></trkpt><trkpt lat="44.8133067" lon="9.4987267"><ele>341.0</ele><time>2026-04-18T13:19:11.984Z</time></trkpt><trkpt lat="44.8133833" lon="9.498725"><ele>341.0</ele><time>2026-04-18T13:19:12.984Z</time></trkpt><trkpt lat="44.8134633" lon="9.4987167"><ele>341.0</ele><time>2026-04-18T13:19:13.985Z</time></trkpt><trkpt lat="44.8135467" lon="9.49871"><ele>341.0</ele><time>2026-04-18T13:19:14.985Z</time></trkpt><trkpt lat="44.81364" lon="9.498705"><ele>341.0</ele><time>2026-04-18T13:19:15.984Z</time></trkpt><trkpt lat="44.8137317" lon="9.4987017"><ele>341.0</ele><time>2026-04-18T13:19:16.983Z</time></trkpt><trkpt lat="44.8138233" lon="9.4986933"><ele>341.0</ele><time>2026-04-18T13:19:17.983Z</time></trkpt><trkpt lat="44.813915" lon="9.49869"><ele>338.6</ele><time>2026-04-18T13:19:18.986Z</time></trkpt><trkpt lat="44.8140067" lon="9.498685"><ele>336.20000000000005</ele><time>2026-04-18T13:19:19.985Z</time></trkpt><trkpt lat="44.8140983" lon="9.4986867"><ele>333.79999999999995</ele><time>2026-04-18T13:19:20.99Z</time></trkpt><trkpt lat="44.8141867" lon="9.49869"><ele>331.4</ele><time>2026-04-18T13:19:21.983Z</time></trkpt><trkpt lat="44.814275" lon="9.4986933"><ele>329.0</ele><time>2026-04-18T13:19:22.984Z</time></trkpt><trkpt lat="44.814365" lon="9.4987017"><ele>326.75</ele><time>2026-04-18T13:19:23.985Z</time></trkpt><trkpt lat="44.81447" lon="9.498715"><ele>324.5</ele><time>2026-04-18T13:19:24.983Z</time></trkpt><trkpt lat="44.8145867" lon="9.4987333"><ele>322.25</ele><time>2026-04-18T13:19:25.984Z</time></trkpt><trkpt lat="44.81471" lon="9.49876"><ele>320.0</ele><time>2026-04-18T13:19:26.984Z</time></trkpt><trkpt lat="44.81483" lon="9.4987917"><ele>320.0</ele><time>2026-04-18T13:19:27.984Z</time></trkpt><trkpt lat="44.8149467" lon="9.498815"><ele>320.0</ele><time>2026-04-18T13:19:28.983Z</time></trkpt><trkpt lat="44.81506" lon="9.498835"><ele>320.0</ele><time>2026-04-18T13:19:29.982Z</time></trkpt><trkpt lat="44.8151683" lon="9.4988617"><ele>320.0</ele><time>2026-04-18T13:19:30.982Z</time></trkpt><trkpt lat="44.8152667" lon="9.4988983"><ele>320.0</ele><time>2026-04-18T13:19:31.983Z</time></trkpt><trkpt lat="44.8153533" lon="9.4989567"><ele>317.83333333333337</ele><time>2026-04-18T13:19:32.983Z</time></trkpt><trkpt lat="44.81542" lon="9.49903"><ele>315.6666666666667</ele><time>2026-04-18T13:19:33.983Z</time></trkpt><trkpt lat="44.815475" lon="9.499115"><ele>313.5</ele><time>2026-04-18T13:19:34.983Z</time></trkpt><trkpt lat="44.8155183" lon="9.4992033"><ele>311.3333333333333</ele><time>2026-04-18T13:19:35.983Z</time></trkpt><trkpt lat="44.8155583" lon="9.4992867"><ele>309.16666666666663</ele><time>2026-04-18T13:19:36.984Z</time></trkpt><trkpt lat="44.8156" lon="9.4993567"><ele>307.0</ele><time>2026-04-18T13:19:37.982Z</time></trkpt><trkpt lat="44.8157" lon="9.4994467"><ele>307.0</ele><time>2026-04-18T13:19:39.984Z</time></trkpt><trkpt lat="44.8157967" lon="9.499565"><ele>307.0</ele><time>2026-04-18T13:19:41.982Z</time></trkpt><trkpt lat="44.8158383" lon="9.49965"><ele>307.0</ele><time>2026-04-18T13:19:42.983Z</time></trkpt><trkpt lat="44.8158833" lon="9.49973"><ele>307.0</ele><time>2026-04-18T13:19:43.983Z</time></trkpt><trkpt lat="44.8159433" lon="9.4997883"><ele>307.0</ele><time>2026-04-18T13:19:44.983Z</time></trkpt><trkpt lat="44.8160133" lon="9.49982"><ele>307.0</ele><time>2026-04-18T13:19:45.983Z</time></trkpt><trkpt lat="44.8160917" lon="9.499845"><ele>305.0</ele><time>2026-04-18T13:19:46.983Z</time></trkpt><trkpt lat="44.8161767" lon="9.4998817"><ele>303.0</ele><time>2026-04-18T13:19:47.983Z</time></trkpt><trkpt lat="44.8162517" lon="9.4999283"><ele>301.0</ele><time>2026-04-18T13:19:48.984Z</time></trkpt><trkpt lat="44.81632" lon="9.4999833"><ele>299.0</ele><time>2026-04-18T13:19:49.983Z</time></trkpt><trkpt lat="44.8163883" lon="9.5000467"><ele>297.0</ele><time>2026-04-18T13:19:50.983Z</time></trkpt><trkpt lat="44.816455" lon="9.5000967"><ele>295.0</ele><time>2026-04-18T13:19:51.982Z</time></trkpt><trkpt lat="44.816525" lon="9.500125"><ele>295.0</ele><time>2026-04-18T13:19:52.983Z</time></trkpt><trkpt lat="44.8165967" lon="9.5001267"><ele>295.0</ele><time>2026-04-18T13:19:53.982Z</time></trkpt><trkpt lat="44.8166633" lon="9.50009"><ele>295.0</ele><time>2026-04-18T13:19:54.982Z</time></trkpt><trkpt lat="44.8167233" lon="9.5000217"><ele>295.0</ele><time>2026-04-18T13:19:55.983Z</time></trkpt><trkpt lat="44.8167917" lon="9.49996"><ele>295.0</ele><time>2026-04-18T13:19:56.983Z</time></trkpt><trkpt lat="44.8168633" lon="9.4999017"><ele>295.0</ele><time>2026-04-18T13:19:57.983Z</time></trkpt><trkpt lat="44.8169433" lon="9.4998467"><ele>291.66666666666663</ele><time>2026-04-18T13:19:58.985Z</time></trkpt><trkpt lat="44.81702" lon="9.4997883"><ele>288.3333333333333</ele><time>2026-04-18T13:19:59.982Z</time></trkpt><trkpt lat="44.817095" lon="9.4997333"><ele>285.0</ele><time>2026-04-18T13:20:00.983Z</time></trkpt><trkpt lat="44.8171767" lon="9.4996933"><ele>281.6666666666667</ele><time>2026-04-18T13:20:01.984Z</time></trkpt><trkpt lat="44.81726" lon="9.4996833"><ele>278.33333333333337</ele><time>2026-04-18T13:20:02.984Z</time></trkpt><trkpt lat="44.8173467" lon="9.4996933"><ele>275.0</ele><time>2026-04-18T13:20:03.982Z</time></trkpt><trkpt lat="44.8174417" lon="9.4997217"><ele>275.0</ele><time>2026-04-18T13:20:04.983Z</time></trkpt><trkpt lat="44.817545" lon="9.49975"><ele>275.0</ele><time>2026-04-18T13:20:05.982Z</time></trkpt><trkpt lat="44.8176483" lon="9.499775"><ele>275.0</ele><time>2026-04-18T13:20:06.982Z</time></trkpt><trkpt lat="44.8177533" lon="9.4998117"><ele>275.0</ele><time>2026-04-18T13:20:07.983Z</time></trkpt><trkpt lat="44.81785" lon="9.49985"><ele>275.0</ele><time>2026-04-18T13:20:08.984Z</time></trkpt><trkpt lat="44.8179483" lon="9.49988"><ele>272.6</ele><time>2026-04-18T13:20:09.983Z</time></trkpt><trkpt lat="44.8180517" lon="9.4998983"><ele>270.2</ele><time>2026-04-18T13:20:10.982Z</time></trkpt><trkpt lat="44.818155" lon="9.499905"><ele>267.8</ele><time>2026-04-18T13:20:11.984Z</time></trkpt><trkpt lat="44.8182567" lon="9.4999017"><ele>265.4</ele><time>2026-04-18T13:20:12.982Z</time></trkpt><trkpt lat="44.8183583" lon="9.49989"><ele>263.0</ele><time>2026-04-18T13:20:13.983Z</time></trkpt><trkpt lat="44.8184667" lon="9.4998817"><ele>259.8</ele><time>2026-04-18T13:20:14.984Z</time></trkpt><trkpt lat="44.818575" lon="9.49988"><ele>256.6</ele><time>2026-04-18T13:20:15.983Z</time></trkpt><trkpt lat="44.8186833" lon="9.4998967"><ele>253.39999999999998</ele><time>2026-04-18T13:20:16.982Z</time></trkpt><trkpt lat="44.8187917" lon="9.499935"><ele>250.2</ele><time>2026-04-18T13:20:17.983Z</time></trkpt><trkpt lat="44.81889" lon="9.4999817"><ele>247.0</ele><time>2026-04-18T13:20:18.984Z</time></trkpt><trkpt lat="44.8189817" lon="9.5000267"><ele>246.99999999999997</ele><time>2026-04-18T13:20:19.984Z</time></trkpt><trkpt lat="44.819065" lon="9.500055"><ele>247.0</ele><time>2026-04-18T13:20:20.984Z</time></trkpt><trkpt lat="44.8191483" lon="9.500065"><ele>247.0</ele><time>2026-04-18T13:20:21.983Z</time></trkpt><trkpt lat="44.819225" lon="9.5000517"><ele>247.0</ele><time>2026-04-18T13:20:22.983Z</time></trkpt><trkpt lat="44.8192917" lon="9.5000433"><ele>246.99999999999997</ele><time>2026-04-18T13:20:23.982Z</time></trkpt><trkpt lat="44.8193733" lon="9.5000967"><ele>247.0</ele><time>2026-04-18T13:20:25.984Z</time></trkpt><trkpt lat="44.81938" lon="9.5002733"><ele>244.33333333333331</ele><time>2026-04-18T13:20:27.983Z</time></trkpt><trkpt lat="44.819355" lon="9.5003733"><ele>241.66666666666666</ele><time>2026-04-18T13:20:28.983Z</time></trkpt><trkpt lat="44.8193117" lon="9.500475"><ele>239.0</ele><time>2026-04-18T13:20:29.982Z</time></trkpt><trkpt lat="44.8192667" lon="9.5005767"><ele>236.33333333333331</ele><time>2026-04-18T13:20:30.982Z</time></trkpt><trkpt lat="44.8192383" lon="9.5006717"><ele>233.66666666666666</ele><time>2026-04-18T13:20:31.983Z</time></trkpt><trkpt lat="44.819225" lon="9.5007633"><ele>231.0</ele><time>2026-04-18T13:20:32.984Z</time></trkpt><trkpt lat="44.8192833" lon="9.5009233"><ele>228.0</ele><time>2026-04-18T13:20:34.983Z</time></trkpt><trkpt lat="44.8193517" lon="9.5010033"><ele>225.0</ele><time>2026-04-18T13:20:35.985Z</time></trkpt><trkpt lat="44.819415" lon="9.5010933"><ele>222.0</ele><time>2026-04-18T13:20:36.982Z</time></trkpt><trkpt lat="44.819465" lon="9.5011967"><ele>219.0</ele><time>2026-04-18T13:20:37.983Z</time></trkpt><trkpt lat="44.81951" lon="9.5012917"><ele>216.0</ele><time>2026-04-18T13:20:38.983Z</time></trkpt><trkpt lat="44.8195517" lon="9.5013717"><ele>213.0</ele><time>2026-04-18T13:20:39.985Z</time></trkpt><trkpt lat="44.8195917" lon="9.501445"><ele>211.60000000000002</ele><time>2026-04-18T13:20:40.983Z</time></trkpt><trkpt lat="44.81967" lon="9.501565"><ele>210.20000000000002</ele><time>2026-04-18T13:20:42.983Z</time></trkpt><trkpt lat="44.8197333" lon="9.5016717"><ele>208.8</ele><time>2026-04-18T13:20:44.983Z</time></trkpt><trkpt lat="44.8196717" lon="9.50177"><ele>207.4</ele><time>2026-04-18T13:20:58.983Z</time></trkpt><trkpt lat="44.8196167" lon="9.5018283"><ele>206.0</ele><time>2026-04-18T13:21:00.984Z</time></trkpt><trkpt lat="44.819585" lon="9.50194"><ele>206.00000000000003</ele><time>2026-04-18T13:21:03.986Z</time></trkpt><trkpt lat="44.8195817" lon="9.5020767"><ele>206.0</ele><time>2026-04-18T13:21:06.983Z</time></trkpt><trkpt lat="44.8195833" lon="9.5022483"><ele>206.0</ele><time>2026-04-18T13:21:08.984Z</time></trkpt><trkpt lat="44.8196017" lon="9.5023417"><ele>206.0</ele><time>2026-04-18T13:21:09.983Z</time></trkpt><trkpt lat="44.81963" lon="9.5024283"><ele>206.00000000000003</ele><time>2026-04-18T13:21:10.984Z</time></trkpt><trkpt lat="44.8196583" lon="9.502515"><ele>206.0</ele><time>2026-04-18T13:21:11.984Z</time></trkpt><trkpt lat="44.81969" lon="9.5026"><ele>205.83333333333334</ele><time>2026-04-18T13:21:12.984Z</time></trkpt><trkpt lat="44.81972" lon="9.50268"><ele>205.66666666666669</ele><time>2026-04-18T13:21:13.982Z</time></trkpt><trkpt lat="44.8197483" lon="9.50276"><ele>205.5</ele><time>2026-04-18T13:21:14.984Z</time></trkpt><trkpt lat="44.8197983" lon="9.502895"><ele>205.33333333333331</ele><time>2026-04-18T13:21:16.983Z</time></trkpt><trkpt lat="44.8198433" lon="9.503005"><ele>205.16666666666666</ele><time>2026-04-18T13:21:18.984Z</time></trkpt><trkpt lat="44.8198767" lon="9.503095"><ele>205.0</ele><time>2026-04-18T13:21:20.985Z</time></trkpt><trkpt lat="44.819915" lon="9.50319"><ele>204.0</ele><time>2026-04-18T13:21:23.984Z</time></trkpt><trkpt lat="44.81997" lon="9.503285"><ele>204.0</ele><time>2026-04-18T13:21:33.984Z</time></trkpt><trkpt lat="44.8199783" lon="9.503385"><ele>204.0</ele><time>2026-04-18T13:21:36.982Z</time></trkpt></trkseg></trk></gpx>